<?xml version='1.0' encoding='UTF-8'?><gpx version="1.1" creator="JPX - https://github.com/jenetics/jpx" xmlns="http://www.topografix.com/GPX/1/1"><trk><trkseg><trkpt lat="43.68754" lon="11.136615"><ele>98.0</ele><time>2026-04-04T08:56:37.012Z</time></trkpt><trkpt lat="43.6876217" lon="11.1365533"><ele>98.0</ele><time>2026-04-04T08:56:48.012Z</time></trkpt><trkpt lat="43.6876633" lon="11.1363933"><ele>98.0</ele><time>2026-04-04T08:56:50.012Z</time></trkpt><trkpt lat="43.6876767" lon="11.1362867"><ele>98.0</ele><time>2026-04-04T08:56:51.014Z</time></trkpt><trkpt lat="43.6876917" lon="11.1361733"><ele>98.0</ele><time>2026-04-04T08:56:52.014Z</time></trkpt><trkpt lat="43.6877083" lon="11.1360583"><ele>97.83333333333333</ele><time>2026-04-04T08:56:53.013Z</time></trkpt><trkpt lat="43.6877267" lon="11.1359433"><ele>97.66666666666666</ele><time>2026-04-04T08:56:54.013Z</time></trkpt><trkpt lat="43.687745" lon="11.1358283"><ele>97.5</ele><time>2026-04-04T08:56:55.012Z</time></trkpt><trkpt lat="43.6877617" lon="11.1357167"><ele>97.33333333333334</ele><time>2026-04-04T08:56:56.013Z</time></trkpt><trkpt lat="43.6877767" lon="11.1355983"><ele>97.16666666666667</ele><time>2026-04-04T08:56:57.013Z</time></trkpt><trkpt lat="43.6877933" lon="11.1354633"><ele>97.0</ele><time>2026-04-04T08:56:58.012Z</time></trkpt><trkpt lat="43.6878117" lon="11.1353167"><ele>99.25</ele><time>2026-04-04T08:56:59.011Z</time></trkpt><trkpt lat="43.68782" lon="11.13516"><ele>101.5</ele><time>2026-04-04T08:57:00.011Z</time></trkpt><trkpt lat="43.6878217" lon="11.1350017"><ele>103.75</ele><time>2026-04-04T08:57:01.012Z</time></trkpt><trkpt lat="43.687805" lon="11.1348433"><ele>106.0</ele><time>2026-04-04T08:57:02.013Z</time></trkpt><trkpt lat="43.6877783" lon="11.1346817"><ele>104.0</ele><time>2026-04-04T08:57:03.011Z</time></trkpt><trkpt lat="43.6877267" lon="11.1344983"><ele>102.0</ele><time>2026-04-04T08:57:04.011Z</time></trkpt><trkpt lat="43.6876683" lon="11.134275"><ele>100.0</ele><time>2026-04-04T08:57:05.013Z</time></trkpt><trkpt lat="43.6876133" lon="11.1340583"><ele>100.25</ele><time>2026-04-04T08:57:06.012Z</time></trkpt><trkpt lat="43.6875717" lon="11.13386"><ele>100.5</ele><time>2026-04-04T08:57:07.013Z</time></trkpt><trkpt lat="43.68754" lon="11.1336817"><ele>100.75</ele><time>2026-04-04T08:57:08.012Z</time></trkpt><trkpt lat="43.6875217" lon="11.1335117"><ele>101.0</ele><time>2026-04-04T08:57:09.011Z</time></trkpt><trkpt lat="43.68751" lon="11.1333417"><ele>100.8</ele><time>2026-04-04T08:57:10.01Z</time></trkpt><trkpt lat="43.6874933" lon="11.1331867"><ele>100.6</ele><time>2026-04-04T08:57:11.011Z</time></trkpt><trkpt lat="43.687485" lon="11.1330317"><ele>100.4</ele><time>2026-04-04T08:57:12.011Z</time></trkpt><trkpt lat="43.68746" lon="11.1328883"><ele>100.2</ele><time>2026-04-04T08:57:13.012Z</time></trkpt><trkpt lat="43.68742" lon="11.1327433"><ele>100.0</ele><time>2026-04-04T08:57:14.011Z</time></trkpt><trkpt lat="43.68736" lon="11.132605"><ele>100.0</ele><time>2026-04-04T08:57:15.011Z</time></trkpt><trkpt lat="43.687295" lon="11.1324717"><ele>100.0</ele><time>2026-04-04T08:57:16.012Z</time></trkpt><trkpt lat="43.6872183" lon="11.132365"><ele>100.0</ele><time>2026-04-04T08:57:17.012Z</time></trkpt><trkpt lat="43.68715" lon="11.1322533"><ele>100.0</ele><time>2026-04-04T08:57:18.012Z</time></trkpt><trkpt lat="43.6870833" lon="11.1321383"><ele>100.0</ele><time>2026-04-04T08:57:19.013Z</time></trkpt><trkpt lat="43.6870167" lon="11.1320233"><ele>99.25</ele><time>2026-04-04T08:57:20.013Z</time></trkpt><trkpt lat="43.68695" lon="11.131905"><ele>98.5</ele><time>2026-04-04T08:57:21.014Z</time></trkpt><trkpt lat="43.68688" lon="11.1317817"><ele>97.75</ele><time>2026-04-04T08:57:22.013Z</time></trkpt><trkpt lat="43.6868083" lon="11.13166"><ele>97.0</ele><time>2026-04-04T08:57:23.013Z</time></trkpt><trkpt lat="43.6867317" lon="11.131535"><ele>96.25</ele><time>2026-04-04T08:57:24.013Z</time></trkpt><trkpt lat="43.6866533" lon="11.1314133"><ele>95.5</ele><time>2026-04-04T08:57:25.012Z</time></trkpt><trkpt lat="43.6865717" lon="11.1313017"><ele>94.75</ele><time>2026-04-04T08:57:26.012Z</time></trkpt><trkpt lat="43.6864867" lon="11.1312033"><ele>94.0</ele><time>2026-04-04T08:57:27.012Z</time></trkpt><trkpt lat="43.6864017" lon="11.1311133"><ele>94.0</ele><time>2026-04-04T08:57:28.012Z</time></trkpt><trkpt lat="43.68632" lon="11.1310233"><ele>94.0</ele><time>2026-04-04T08:57:29.012Z</time></trkpt><trkpt lat="43.6862367" lon="11.1309383"><ele>94.0</ele><time>2026-04-04T08:57:30.012Z</time></trkpt><trkpt lat="43.6861533" lon="11.1308517"><ele>94.0</ele><time>2026-04-04T08:57:31.013Z</time></trkpt><trkpt lat="43.6860733" lon="11.13077"><ele>94.0</ele><time>2026-04-04T08:57:32.012Z</time></trkpt><trkpt lat="43.685995" lon="11.130695"><ele>93.2</ele><time>2026-04-04T08:57:33.012Z</time></trkpt><trkpt lat="43.6859183" lon="11.1306083"><ele>92.4</ele><time>2026-04-04T08:57:34.012Z</time></trkpt><trkpt lat="43.685845" lon="11.13052"><ele>91.6</ele><time>2026-04-04T08:57:35.013Z</time></trkpt><trkpt lat="43.6857633" lon="11.13043"><ele>90.8</ele><time>2026-04-04T08:57:36.013Z</time></trkpt><trkpt lat="43.6856817" lon="11.1303433"><ele>90.0</ele><time>2026-04-04T08:57:37.013Z</time></trkpt><trkpt lat="43.6856033" lon="11.13026"><ele>90.0</ele><time>2026-04-04T08:57:38.013Z</time></trkpt><trkpt lat="43.685525" lon="11.130165"><ele>90.0</ele><time>2026-04-04T08:57:39.013Z</time></trkpt><trkpt lat="43.6854417" lon="11.13008"><ele>90.0</ele><time>2026-04-04T08:57:40.014Z</time></trkpt><trkpt lat="43.6853533" lon="11.1299983"><ele>90.0</ele><time>2026-04-04T08:57:41.014Z</time></trkpt><trkpt lat="43.6852633" lon="11.1299033"><ele>90.0</ele><time>2026-04-04T08:57:42.014Z</time></trkpt><trkpt lat="43.6851733" lon="11.1298083"><ele>89.0</ele><time>2026-04-04T08:57:43.014Z</time></trkpt><trkpt lat="43.6850867" lon="11.129705"><ele>88.0</ele><time>2026-04-04T08:57:44.015Z</time></trkpt><trkpt lat="43.6850067" lon="11.1295967"><ele>87.0</ele><time>2026-04-04T08:57:45.014Z</time></trkpt><trkpt lat="43.68494" lon="11.1294717"><ele>86.0</ele><time>2026-04-04T08:57:46.014Z</time></trkpt><trkpt lat="43.6848817" lon="11.1293467"><ele>85.0</ele><time>2026-04-04T08:57:47.012Z</time></trkpt><trkpt lat="43.684825" lon="11.1292233"><ele>85.0</ele><time>2026-04-04T08:57:48.013Z</time></trkpt><trkpt lat="43.6847767" lon="11.129095"><ele>85.0</ele><time>2026-04-04T08:57:49.013Z</time></trkpt><trkpt lat="43.6847333" lon="11.1289717"><ele>85.0</ele><time>2026-04-04T08:57:50.013Z</time></trkpt><trkpt lat="43.6846933" lon="11.1288517"><ele>85.0</ele><time>2026-04-04T08:57:51.013Z</time></trkpt><trkpt lat="43.68466" lon="11.1287433"><ele>85.0</ele><time>2026-04-04T08:57:52.013Z</time></trkpt><trkpt lat="43.684635" lon="11.1286383"><ele>84.83333333333333</ele><time>2026-04-04T08:57:53.014Z</time></trkpt><trkpt lat="43.6846117" lon="11.1285417"><ele>84.66666666666666</ele><time>2026-04-04T08:57:54.013Z</time></trkpt><trkpt lat="43.684595" lon="11.1284533"><ele>84.5</ele><time>2026-04-04T08:57:55.014Z</time></trkpt><trkpt lat="43.6845583" lon="11.1283083"><ele>84.33333333333333</ele><time>2026-04-04T08:57:57.013Z</time></trkpt><trkpt lat="43.6845233" lon="11.1282233"><ele>84.16666666666667</ele><time>2026-04-04T08:57:59.012Z</time></trkpt><trkpt lat="43.6844817" lon="11.128145"><ele>84.0</ele><time>2026-04-04T08:58:09.013Z</time></trkpt><trkpt lat="43.6844183" lon="11.1280683"><ele>83.6</ele><time>2026-04-04T08:58:14.012Z</time></trkpt><trkpt lat="43.6843583" lon="11.12794"><ele>83.2</ele><time>2026-04-04T08:58:16.011Z</time></trkpt><trkpt lat="43.6843167" lon="11.1278683"><ele>82.8</ele><time>2026-04-04T08:58:17.012Z</time></trkpt><trkpt lat="43.6842633" lon="11.12779"><ele>82.39999999999999</ele><time>2026-04-04T08:58:18.013Z</time></trkpt><trkpt lat="43.6841917" lon="11.1276933"><ele>82.0</ele><time>2026-04-04T08:58:19.014Z</time></trkpt><trkpt lat="43.68411" lon="11.1275733"><ele>82.0</ele><time>2026-04-04T08:58:20.014Z</time></trkpt><trkpt lat="43.6840217" lon="11.12744"><ele>82.0</ele><time>2026-04-04T08:58:21.014Z</time></trkpt><trkpt lat="43.6839317" lon="11.1272967"><ele>82.0</ele><time>2026-04-04T08:58:22.013Z</time></trkpt><trkpt lat="43.6838517" lon="11.1271317"><ele>82.0</ele><time>2026-04-04T08:58:23.011Z</time></trkpt><trkpt lat="43.68378" lon="11.1269483"><ele>81.66666666666666</ele><time>2026-04-04T08:58:24.013Z</time></trkpt><trkpt lat="43.683715" lon="11.1267383"><ele>81.33333333333333</ele><time>2026-04-04T08:58:25.014Z</time></trkpt><trkpt lat="43.68364" lon="11.126525"><ele>81.0</ele><time>2026-04-04T08:58:26.013Z</time></trkpt><trkpt lat="43.6835533" lon="11.1263067"><ele>79.33333333333333</ele><time>2026-04-04T08:58:27.013Z</time></trkpt><trkpt lat="43.6834483" lon="11.1261033"><ele>77.66666666666666</ele><time>2026-04-04T08:58:28.012Z</time></trkpt><trkpt lat="43.6833333" lon="11.1259067"><ele>76.0</ele><time>2026-04-04T08:58:29.013Z</time></trkpt><trkpt lat="43.6832083" lon="11.125725"><ele>76.0</ele><time>2026-04-04T08:58:30.013Z</time></trkpt><trkpt lat="43.6830767" lon="11.125545"><ele>76.0</ele><time>2026-04-04T08:58:31.012Z</time></trkpt><trkpt lat="43.68294" lon="11.1253633"><ele>76.0</ele><time>2026-04-04T08:58:32.012Z</time></trkpt><trkpt lat="43.682795" lon="11.1251817"><ele>76.0</ele><time>2026-04-04T08:58:33.011Z</time></trkpt><trkpt lat="43.6826517" lon="11.1249917"><ele>76.0</ele><time>2026-04-04T08:58:34.012Z</time></trkpt><trkpt lat="43.6825133" lon="11.124805"><ele>76.0</ele><time>2026-04-04T08:58:35.012Z</time></trkpt><trkpt lat="43.6823783" lon="11.1246133"><ele>76.0</ele><time>2026-04-04T08:58:36.013Z</time></trkpt><trkpt lat="43.6822483" lon="11.1244117"><ele>76.0</ele><time>2026-04-04T08:58:37.012Z</time></trkpt><trkpt lat="43.68212" lon="11.1242167"><ele>76.0</ele><time>2026-04-04T08:58:38.013Z</time></trkpt><trkpt lat="43.6819933" lon="11.1240183"><ele>76.0</ele><time>2026-04-04T08:58:39.013Z</time></trkpt><trkpt lat="43.68187" lon="11.12382"><ele>76.0</ele><time>2026-04-04T08:58:40.012Z</time></trkpt><trkpt lat="43.6817583" lon="11.1236183"><ele>76.0</ele><time>2026-04-04T08:58:41.012Z</time></trkpt><trkpt lat="43.6816517" lon="11.1234283"><ele>76.0</ele><time>2026-04-04T08:58:42.012Z</time></trkpt><trkpt lat="43.68155" lon="11.1232483"><ele>76.0</ele><time>2026-04-04T08:58:43.013Z</time></trkpt><trkpt lat="43.68145" lon="11.12307"><ele>76.0</ele><time>2026-04-04T08:58:44.012Z</time></trkpt><trkpt lat="43.68135" lon="11.1228967"><ele>77.66666666666666</ele><time>2026-04-04T08:58:45.013Z</time></trkpt><trkpt lat="43.6812533" lon="11.1227283"><ele>79.33333333333333</ele><time>2026-04-04T08:58:46.014Z</time></trkpt><trkpt lat="43.68116" lon="11.1225567"><ele>81.0</ele><time>2026-04-04T08:58:47.013Z</time></trkpt><trkpt lat="43.68107" lon="11.1223867"><ele>81.5</ele><time>2026-04-04T08:58:48.014Z</time></trkpt><trkpt lat="43.6809767" lon="11.1222217"><ele>82.0</ele><time>2026-04-04T08:58:49.013Z</time></trkpt><trkpt lat="43.6808767" lon="11.12207"><ele>82.5</ele><time>2026-04-04T08:58:50.014Z</time></trkpt><trkpt lat="43.6807667" lon="11.12193"><ele>83.0</ele><time>2026-04-04T08:58:51.013Z</time></trkpt><trkpt lat="43.6806467" lon="11.121795"><ele>83.0</ele><time>2026-04-04T08:58:52.012Z</time></trkpt><trkpt lat="43.6805283" lon="11.12166"><ele>83.0</ele><time>2026-04-04T08:58:53.013Z</time></trkpt><trkpt lat="43.6804067" lon="11.1215317"><ele>83.0</ele><time>2026-04-04T08:58:54.012Z</time></trkpt><trkpt lat="43.6802883" lon="11.1214"><ele>86.0</ele><time>2026-04-04T08:58:55.012Z</time></trkpt><trkpt lat="43.6801717" lon="11.121275"><ele>89.0</ele><time>2026-04-04T08:58:56.013Z</time></trkpt><trkpt lat="43.680055" lon="11.1211483"><ele>92.0</ele><time>2026-04-04T08:58:57.013Z</time></trkpt><trkpt lat="43.6799367" lon="11.12101"><ele>92.0</ele><time>2026-04-04T08:58:58.01Z</time></trkpt><trkpt lat="43.67982" lon="11.1208717"><ele>92.0</ele><time>2026-04-04T08:58:59.013Z</time></trkpt><trkpt lat="43.6797" lon="11.12073"><ele>92.0</ele><time>2026-04-04T08:59:00.012Z</time></trkpt><trkpt lat="43.679575" lon="11.1205917"><ele>95.0</ele><time>2026-04-04T08:59:01.013Z</time></trkpt><trkpt lat="43.6794483" lon="11.1204533"><ele>98.0</ele><time>2026-04-04T08:59:02.012Z</time></trkpt><trkpt lat="43.67932" lon="11.1203117"><ele>101.0</ele><time>2026-04-04T08:59:03.012Z</time></trkpt><trkpt lat="43.6791883" lon="11.120165"><ele>102.0</ele><time>2026-04-04T08:59:04.013Z</time></trkpt><trkpt lat="43.6790517" lon="11.1200167"><ele>103.0</ele><time>2026-04-04T08:59:05.011Z</time></trkpt><trkpt lat="43.678915" lon="11.1198667"><ele>104.0</ele><time>2026-04-04T08:59:06.012Z</time></trkpt><trkpt lat="43.678775" lon="11.1197133"><ele>107.0</ele><time>2026-04-04T08:59:07.013Z</time></trkpt><trkpt lat="43.67864" lon="11.119555"><ele>110.0</ele><time>2026-04-04T08:59:08.014Z</time></trkpt><trkpt lat="43.6785067" lon="11.11939"><ele>113.0</ele><time>2026-04-04T08:59:09.013Z</time></trkpt><trkpt lat="43.6783867" lon="11.1192067"><ele>116.0</ele><time>2026-04-04T08:59:10.012Z</time></trkpt><trkpt lat="43.6782933" lon="11.119015"><ele>119.0</ele><time>2026-04-04T08:59:11.013Z</time></trkpt><trkpt lat="43.6782367" lon="11.1188083"><ele>122.0</ele><time>2026-04-04T08:59:12.015Z</time></trkpt><trkpt lat="43.6782217" lon="11.1185817"><ele>122.0</ele><time>2026-04-04T08:59:13.013Z</time></trkpt><trkpt lat="43.6782417" lon="11.118335"><ele>122.0</ele><time>2026-04-04T08:59:14.014Z</time></trkpt><trkpt lat="43.67827" lon="11.1180667"><ele>122.0</ele><time>2026-04-04T08:59:15.014Z</time></trkpt><trkpt lat="43.678295" lon="11.11779"><ele>124.33333333333333</ele><time>2026-04-04T08:59:16.012Z</time></trkpt><trkpt lat="43.6782883" lon="11.1175233"><ele>126.66666666666666</ele><time>2026-04-04T08:59:17.013Z</time></trkpt><trkpt lat="43.6782467" lon="11.117255"><ele>129.0</ele><time>2026-04-04T08:59:18.013Z</time></trkpt><trkpt lat="43.6781617" lon="11.116975"><ele>132.5</ele><time>2026-04-04T08:59:19.012Z</time></trkpt><trkpt lat="43.678065" lon="11.11667"><ele>136.0</ele><time>2026-04-04T08:59:20.014Z</time></trkpt><trkpt lat="43.6779833" lon="11.11636"><ele>141.0</ele><time>2026-04-04T08:59:21.012Z</time></trkpt><trkpt lat="43.6779167" lon="11.116045"><ele>146.0</ele><time>2026-04-04T08:59:22.014Z</time></trkpt><trkpt lat="43.677855" lon="11.11574"><ele>144.33333333333331</ele><time>2026-04-04T08:59:23.013Z</time></trkpt><trkpt lat="43.6778017" lon="11.115455"><ele>142.66666666666666</ele><time>2026-04-04T08:59:24.014Z</time></trkpt><trkpt lat="43.677755" lon="11.1151983"><ele>141.0</ele><time>2026-04-04T08:59:25.012Z</time></trkpt><trkpt lat="43.677705" lon="11.114975"><ele>144.66666666666666</ele><time>2026-04-04T08:59:26.012Z</time></trkpt><trkpt lat="43.6776233" lon="11.1147983"><ele>148.33333333333331</ele><time>2026-04-04T08:59:27.013Z</time></trkpt><trkpt lat="43.677505" lon="11.11467"><ele>152.0</ele><time>2026-04-04T08:59:28.012Z</time></trkpt><trkpt lat="43.6773533" lon="11.1145933"><ele>152.0</ele><time>2026-04-04T08:59:29.012Z</time></trkpt><trkpt lat="43.6771733" lon="11.1145367"><ele>152.0</ele><time>2026-04-04T08:59:30.014Z</time></trkpt><trkpt lat="43.67698" lon="11.11447"><ele>152.0</ele><time>2026-04-04T08:59:31.012Z</time></trkpt><trkpt lat="43.6767833" lon="11.1144033"><ele>151.33333333333331</ele><time>2026-04-04T08:59:32.013Z</time></trkpt><trkpt lat="43.6765967" lon="11.1143367"><ele>150.66666666666666</ele><time>2026-04-04T08:59:33.012Z</time></trkpt><trkpt lat="43.6764317" lon="11.1142433"><ele>150.0</ele><time>2026-04-04T08:59:34.013Z</time></trkpt><trkpt lat="43.6762817" lon="11.114115"><ele>152.0</ele><time>2026-04-04T08:59:35.012Z</time></trkpt><trkpt lat="43.6761467" lon="11.1139433"><ele>154.0</ele><time>2026-04-04T08:59:36.014Z</time></trkpt><trkpt lat="43.6760267" lon="11.1137467"><ele>156.0</ele><time>2026-04-04T08:59:37.013Z</time></trkpt><trkpt lat="43.67591" lon="11.1135383"><ele>156.0</ele><time>2026-04-04T08:59:38.013Z</time></trkpt><trkpt lat="43.6758" lon="11.113345"><ele>156.0</ele><time>2026-04-04T08:59:39.012Z</time></trkpt><trkpt lat="43.6756917" lon="11.1131683"><ele>156.0</ele><time>2026-04-04T08:59:40.012Z</time></trkpt><trkpt lat="43.6756233" lon="11.11301"><ele>158.75</ele><time>2026-04-04T08:59:41.012Z</time></trkpt><trkpt lat="43.6756217" lon="11.112855"><ele>161.5</ele><time>2026-04-04T08:59:42.013Z</time></trkpt><trkpt lat="43.6756683" lon="11.1127133"><ele>164.25</ele><time>2026-04-04T08:59:43.012Z</time></trkpt><trkpt lat="43.6757533" lon="11.1126167"><ele>167.0</ele><time>2026-04-04T08:59:44.012Z</time></trkpt><trkpt lat="43.6758717" lon="11.1125883"><ele>167.0</ele><time>2026-04-04T08:59:45.012Z</time></trkpt><trkpt lat="43.676005" lon="11.1126333"><ele>167.0</ele><time>2026-04-04T08:59:46.013Z</time></trkpt><trkpt lat="43.67612" lon="11.112765"><ele>167.0</ele><time>2026-04-04T08:59:47.012Z</time></trkpt><trkpt lat="43.676225" lon="11.11294"><ele>167.0</ele><time>2026-04-04T08:59:48.014Z</time></trkpt><trkpt lat="43.6763383" lon="11.1130917"><ele>167.0</ele><time>2026-04-04T08:59:49.013Z</time></trkpt><trkpt lat="43.6764583" lon="11.1132083"><ele>167.0</ele><time>2026-04-04T08:59:50.013Z</time></trkpt><trkpt lat="43.6765917" lon="11.11327"><ele>167.0</ele><time>2026-04-04T08:59:51.013Z</time></trkpt><trkpt lat="43.6767267" lon="11.1132717"><ele>170.33333333333331</ele><time>2026-04-04T08:59:52.013Z</time></trkpt><trkpt lat="43.676875" lon="11.1132117"><ele>173.66666666666666</ele><time>2026-04-04T08:59:53.014Z</time></trkpt><trkpt lat="43.6770667" lon="11.113105"><ele>177.0</ele><time>2026-04-04T08:59:54.011Z</time></trkpt><trkpt lat="43.67726" lon="11.1130267"><ele>177.0</ele><time>2026-04-04T08:59:55.011Z</time></trkpt><trkpt lat="43.6774517" lon="11.1129817"><ele>177.0</ele><time>2026-04-04T08:59:56.011Z</time></trkpt><trkpt lat="43.67764" lon="11.112965"><ele>177.0</ele><time>2026-04-04T08:59:57.011Z</time></trkpt><trkpt lat="43.6778283" lon="11.1129533"><ele>178.66666666666666</ele><time>2026-04-04T08:59:58.013Z</time></trkpt><trkpt lat="43.67801" lon="11.112975"><ele>180.33333333333331</ele><time>2026-04-04T08:59:59.011Z</time></trkpt><trkpt lat="43.6781783" lon="11.1130317"><ele>182.0</ele><time>2026-04-04T09:00:00.011Z</time></trkpt><trkpt lat="43.67832" lon="11.1131133"><ele>182.0</ele><time>2026-04-04T09:00:01.012Z</time></trkpt><trkpt lat="43.67844" lon="11.1131833"><ele>182.0</ele><time>2026-04-04T09:00:02.012Z</time></trkpt><trkpt lat="43.6785483" lon="11.1132"><ele>182.0</ele><time>2026-04-04T09:00:03.011Z</time></trkpt><trkpt lat="43.678635" lon="11.11314"><ele>182.0</ele><time>2026-04-04T09:00:04.012Z</time></trkpt><trkpt lat="43.6786767" lon="11.1130283"><ele>182.0</ele><time>2026-04-04T09:00:05.012Z</time></trkpt><trkpt lat="43.6786633" lon="11.1128917"><ele>182.0</ele><time>2026-04-04T09:00:06.011Z</time></trkpt><trkpt lat="43.678595" lon="11.11275"><ele>182.0</ele><time>2026-04-04T09:00:07.012Z</time></trkpt><trkpt lat="43.6784833" lon="11.1126183"><ele>182.0</ele><time>2026-04-04T09:00:08.011Z</time></trkpt><trkpt lat="43.6783433" lon="11.1124817"><ele>182.0</ele><time>2026-04-04T09:00:09.012Z</time></trkpt><trkpt lat="43.67819" lon="11.1123467"><ele>183.33333333333331</ele><time>2026-04-04T09:00:10.011Z</time></trkpt><trkpt lat="43.6780433" lon="11.11219"><ele>184.66666666666666</ele><time>2026-04-04T09:00:11.012Z</time></trkpt><trkpt lat="43.6779133" lon="11.11201"><ele>186.0</ele><time>2026-04-04T09:00:12.012Z</time></trkpt><trkpt lat="43.6777883" lon="11.111815"><ele>186.0</ele><time>2026-04-04T09:00:13.013Z</time></trkpt><trkpt lat="43.677655" lon="11.1116267"><ele>186.0</ele><time>2026-04-04T09:00:14.013Z</time></trkpt><trkpt lat="43.677505" lon="11.11146"><ele>186.0</ele><time>2026-04-04T09:00:15.012Z</time></trkpt><trkpt lat="43.6773267" lon="11.11133"><ele>185.33333333333334</ele><time>2026-04-04T09:00:16.01Z</time></trkpt><trkpt lat="43.6771267" lon="11.1112183"><ele>184.66666666666669</ele><time>2026-04-04T09:00:17.01Z</time></trkpt><trkpt lat="43.6769183" lon="11.1110983"><ele>184.0</ele><time>2026-04-04T09:00:18.012Z</time></trkpt><trkpt lat="43.6767183" lon="11.1109533"><ele>186.0</ele><time>2026-04-04T09:00:19.011Z</time></trkpt><trkpt lat="43.6765383" lon="11.1107933"><ele>188.0</ele><time>2026-04-04T09:00:20.011Z</time></trkpt><trkpt lat="43.67637" lon="11.1106167"><ele>190.0</ele><time>2026-04-04T09:00:21.012Z</time></trkpt><trkpt lat="43.676215" lon="11.110435"><ele>192.33333333333334</ele><time>2026-04-04T09:00:22.013Z</time></trkpt><trkpt lat="43.6760733" lon="11.1102567"><ele>194.66666666666669</ele><time>2026-04-04T09:00:23.012Z</time></trkpt><trkpt lat="43.67594" lon="11.1100867"><ele>197.0</ele><time>2026-04-04T09:00:24.013Z</time></trkpt><trkpt lat="43.6758183" lon="11.109935"><ele>196.75</ele><time>2026-04-04T09:00:25.012Z</time></trkpt><trkpt lat="43.67571" lon="11.109795"><ele>196.5</ele><time>2026-04-04T09:00:26.013Z</time></trkpt><trkpt lat="43.67561" lon="11.1096683"><ele>196.25</ele><time>2026-04-04T09:00:27.015Z</time></trkpt><trkpt lat="43.67552" lon="11.1095517"><ele>196.0</ele><time>2026-04-04T09:00:28.012Z</time></trkpt><trkpt lat="43.67543" lon="11.1094567"><ele>196.0</ele><time>2026-04-04T09:00:29.013Z</time></trkpt><trkpt lat="43.6753417" lon="11.1093733"><ele>196.0</ele><time>2026-04-04T09:00:30.012Z</time></trkpt><trkpt lat="43.6752483" lon="11.1093"><ele>196.0</ele><time>2026-04-04T09:00:31.011Z</time></trkpt><trkpt lat="43.675145" lon="11.1092333"><ele>196.0</ele><time>2026-04-04T09:00:32.011Z</time></trkpt><trkpt lat="43.67503" lon="11.1091767"><ele>198.25</ele><time>2026-04-04T09:00:33.013Z</time></trkpt><trkpt lat="43.6749083" lon="11.10912"><ele>200.5</ele><time>2026-04-04T09:00:34.013Z</time></trkpt><trkpt lat="43.6747833" lon="11.1090583"><ele>202.75</ele><time>2026-04-04T09:00:35.011Z</time></trkpt><trkpt lat="43.674655" lon="11.1089917"><ele>205.0</ele><time>2026-04-04T09:00:36.01Z</time></trkpt><trkpt lat="43.6745267" lon="11.1089033"><ele>207.75</ele><time>2026-04-04T09:00:37.013Z</time></trkpt><trkpt lat="43.674405" lon="11.1088033"><ele>210.5</ele><time>2026-04-04T09:00:38.015Z</time></trkpt><trkpt lat="43.6742933" lon="11.1086683"><ele>213.25</ele><time>2026-04-04T09:00:39.014Z</time></trkpt><trkpt lat="43.674195" lon="11.1085067"><ele>216.0</ele><time>2026-04-04T09:00:40.011Z</time></trkpt><trkpt lat="43.6741017" lon="11.10833"><ele>215.33333333333331</ele><time>2026-04-04T09:00:41.014Z</time></trkpt><trkpt lat="43.6740033" lon="11.1081533"><ele>214.66666666666666</ele><time>2026-04-04T09:00:42.011Z</time></trkpt><trkpt lat="43.6739083" lon="11.107975"><ele>214.0</ele><time>2026-04-04T09:00:43.011Z</time></trkpt><trkpt lat="43.6738217" lon="11.1077917"><ele>214.0</ele><time>2026-04-04T09:00:44.011Z</time></trkpt><trkpt lat="43.67374" lon="11.1076183"><ele>214.0</ele><time>2026-04-04T09:00:45.011Z</time></trkpt><trkpt lat="43.6736583" lon="11.1074483"><ele>214.0</ele><time>2026-04-04T09:00:46.014Z</time></trkpt><trkpt lat="43.6735817" lon="11.1072667"><ele>214.0</ele><time>2026-04-04T09:00:47.013Z</time></trkpt><trkpt lat="43.6735017" lon="11.107085"><ele>215.0</ele><time>2026-04-04T09:00:48.012Z</time></trkpt><trkpt lat="43.67342" lon="11.1069067"><ele>216.0</ele><time>2026-04-04T09:00:49.013Z</time></trkpt><trkpt lat="43.6733383" lon="11.10672"><ele>217.0</ele><time>2026-04-04T09:00:50.012Z</time></trkpt><trkpt lat="43.6732633" lon="11.106535"><ele>217.0</ele><time>2026-04-04T09:00:51.013Z</time></trkpt><trkpt lat="43.6731833" lon="11.1063517"><ele>217.0</ele><time>2026-04-04T09:00:52.013Z</time></trkpt><trkpt lat="43.6731017" lon="11.1061667"><ele>217.0</ele><time>2026-04-04T09:00:53.013Z</time></trkpt><trkpt lat="43.67302" lon="11.1059733"><ele>217.0</ele><time>2026-04-04T09:00:54.012Z</time></trkpt><trkpt lat="43.6729433" lon="11.1057783"><ele>217.0</ele><time>2026-04-04T09:00:55.012Z</time></trkpt><trkpt lat="43.6728767" lon="11.1055867"><ele>217.0</ele><time>2026-04-04T09:00:56.012Z</time></trkpt><trkpt lat="43.6728183" lon="11.1053933"><ele>216.25</ele><time>2026-04-04T09:00:57.012Z</time></trkpt><trkpt lat="43.6727667" lon="11.105195"><ele>215.5</ele><time>2026-04-04T09:00:58.009Z</time></trkpt><trkpt lat="43.672725" lon="11.1049967"><ele>214.75</ele><time>2026-04-04T09:00:59.01Z</time></trkpt><trkpt lat="43.6726817" lon="11.1048083"><ele>214.0</ele><time>2026-04-04T09:01:00.013Z</time></trkpt><trkpt lat="43.67264" lon="11.1046417"><ele>214.0</ele><time>2026-04-04T09:01:01.014Z</time></trkpt><trkpt lat="43.6726017" lon="11.1044783"><ele>214.0</ele><time>2026-04-04T09:01:02.013Z</time></trkpt><trkpt lat="43.6725633" lon="11.1043217"><ele>214.0</ele><time>2026-04-04T09:01:03.013Z</time></trkpt><trkpt lat="43.67253" lon="11.10416"><ele>214.0</ele><time>2026-04-04T09:01:04.012Z</time></trkpt><trkpt lat="43.6724967" lon="11.103995"><ele>214.5</ele><time>2026-04-04T09:01:05.012Z</time></trkpt><trkpt lat="43.6724633" lon="11.1038283"><ele>215.0</ele><time>2026-04-04T09:01:06.014Z</time></trkpt><trkpt lat="43.6724317" lon="11.10366"><ele>215.5</ele><time>2026-04-04T09:01:07.012Z</time></trkpt><trkpt lat="43.6723967" lon="11.1034867"><ele>216.0</ele><time>2026-04-04T09:01:08.014Z</time></trkpt><trkpt lat="43.6723533" lon="11.1033067"><ele>216.66666666666669</ele><time>2026-04-04T09:01:09.014Z</time></trkpt><trkpt lat="43.672305" lon="11.1031067"><ele>217.33333333333334</ele><time>2026-04-04T09:01:10.013Z</time></trkpt><trkpt lat="43.67225" lon="11.1029067"><ele>218.0</ele><time>2026-04-04T09:01:11.014Z</time></trkpt><trkpt lat="43.67219" lon="11.10271"><ele>218.0</ele><time>2026-04-04T09:01:12.014Z</time></trkpt><trkpt lat="43.6721267" lon="11.1025133"><ele>218.0</ele><time>2026-04-04T09:01:13.014Z</time></trkpt><trkpt lat="43.67207" lon="11.102315"><ele>218.0</ele><time>2026-04-04T09:01:14.012Z</time></trkpt><trkpt lat="43.672025" lon="11.1021133"><ele>218.0</ele><time>2026-04-04T09:01:15.014Z</time></trkpt><trkpt lat="43.6720017" lon="11.1019033"><ele>218.0</ele><time>2026-04-04T09:01:16.01Z</time></trkpt><trkpt lat="43.6719967" lon="11.1016917"><ele>218.0</ele><time>2026-04-04T09:01:17.012Z</time></trkpt><trkpt lat="43.6720017" lon="11.1014817"><ele>217.33333333333334</ele><time>2026-04-04T09:01:18.012Z</time></trkpt><trkpt lat="43.6720033" lon="11.1012717"><ele>216.66666666666669</ele><time>2026-04-04T09:01:19.012Z</time></trkpt><trkpt lat="43.672" lon="11.1010583"><ele>216.0</ele><time>2026-04-04T09:01:20.011Z</time></trkpt><trkpt lat="43.671975" lon="11.100845"><ele>213.66666666666669</ele><time>2026-04-04T09:01:21.012Z</time></trkpt><trkpt lat="43.6719283" lon="11.100635"><ele>211.33333333333334</ele><time>2026-04-04T09:01:22.012Z</time></trkpt><trkpt lat="43.67186" lon="11.10043"><ele>209.0</ele><time>2026-04-04T09:01:23.013Z</time></trkpt><trkpt lat="43.6717717" lon="11.100235"><ele>209.0</ele><time>2026-04-04T09:01:24.012Z</time></trkpt><trkpt lat="43.67166" lon="11.1000517"><ele>209.0</ele><time>2026-04-04T09:01:25.01Z</time></trkpt><trkpt lat="43.6715233" lon="11.09989"><ele>209.0</ele><time>2026-04-04T09:01:26.01Z</time></trkpt><trkpt lat="43.6713733" lon="11.0997433"><ele>210.66666666666669</ele><time>2026-04-04T09:01:27.012Z</time></trkpt><trkpt lat="43.6712167" lon="11.0996033"><ele>212.33333333333331</ele><time>2026-04-04T09:01:28.012Z</time></trkpt><trkpt lat="43.671065" lon="11.0994533"><ele>214.0</ele><time>2026-04-04T09:01:29.012Z</time></trkpt><trkpt lat="43.670915" lon="11.0993033"><ele>212.66666666666666</ele><time>2026-04-04T09:01:30.012Z</time></trkpt><trkpt lat="43.6707683" lon="11.0991483"><ele>211.33333333333331</ele><time>2026-04-04T09:01:31.011Z</time></trkpt><trkpt lat="43.67064" lon="11.0989783"><ele>210.0</ele><time>2026-04-04T09:01:32.013Z</time></trkpt><trkpt lat="43.6705267" lon="11.0988067"><ele>210.0</ele><time>2026-04-04T09:01:33.012Z</time></trkpt><trkpt lat="43.6704283" lon="11.0986267"><ele>210.0</ele><time>2026-04-04T09:01:34.012Z</time></trkpt><trkpt lat="43.67034" lon="11.0984517"><ele>210.0</ele><time>2026-04-04T09:01:35.012Z</time></trkpt><trkpt lat="43.6702617" lon="11.0982817"><ele>204.75</ele><time>2026-04-04T09:01:36.012Z</time></trkpt><trkpt lat="43.6701933" lon="11.0981167"><ele>199.5</ele><time>2026-04-04T09:01:37.011Z</time></trkpt><trkpt lat="43.6701583" lon="11.097935"><ele>194.25</ele><time>2026-04-04T09:01:38.012Z</time></trkpt><trkpt lat="43.6701617" lon="11.097745"><ele>189.0</ele><time>2026-04-04T09:01:39.013Z</time></trkpt><trkpt lat="43.6702033" lon="11.09755"><ele>187.0</ele><time>2026-04-04T09:01:40.012Z</time></trkpt><trkpt lat="43.6702667" lon="11.0973583"><ele>185.0</ele><time>2026-04-04T09:01:41.012Z</time></trkpt><trkpt lat="43.6703383" lon="11.0971683"><ele>183.0</ele><time>2026-04-04T09:01:42.012Z</time></trkpt><trkpt lat="43.6703983" lon="11.0969733"><ele>188.66666666666669</ele><time>2026-04-04T09:01:43.012Z</time></trkpt><trkpt lat="43.6704417" lon="11.0967667"><ele>194.33333333333334</ele><time>2026-04-04T09:01:44.011Z</time></trkpt><trkpt lat="43.67047" lon="11.0965517"><ele>200.0</ele><time>2026-04-04T09:01:45.012Z</time></trkpt><trkpt lat="43.6704733" lon="11.0963433"><ele>200.0</ele><time>2026-04-04T09:01:46.011Z</time></trkpt><trkpt lat="43.6704633" lon="11.0961417"><ele>200.0</ele><time>2026-04-04T09:01:47.012Z</time></trkpt><trkpt lat="43.6704383" lon="11.0959433"><ele>200.0</ele><time>2026-04-04T09:01:48.012Z</time></trkpt><trkpt lat="43.6703983" lon="11.0957533"><ele>200.0</ele><time>2026-04-04T09:01:49.012Z</time></trkpt><trkpt lat="43.6703417" lon="11.0955767"><ele>199.75</ele><time>2026-04-04T09:01:50.012Z</time></trkpt><trkpt lat="43.67029" lon="11.0954033"><ele>199.5</ele><time>2026-04-04T09:01:51.012Z</time></trkpt><trkpt lat="43.6702567" lon="11.095235"><ele>199.25</ele><time>2026-04-04T09:01:52.012Z</time></trkpt><trkpt lat="43.6702567" lon="11.095065"><ele>199.0</ele><time>2026-04-04T09:01:53.014Z</time></trkpt><trkpt lat="43.6703117" lon="11.094895"><ele>196.33333333333331</ele><time>2026-04-04T09:01:54.012Z</time></trkpt><trkpt lat="43.6703933" lon="11.0947333"><ele>193.66666666666666</ele><time>2026-04-04T09:01:55.012Z</time></trkpt><trkpt lat="43.67049" lon="11.094565"><ele>191.0</ele><time>2026-04-04T09:01:56.012Z</time></trkpt><trkpt lat="43.670585" lon="11.0943533"><ele>186.5</ele><time>2026-04-04T09:01:57.013Z</time></trkpt><trkpt lat="43.6706767" lon="11.0940883"><ele>182.0</ele><time>2026-04-04T09:01:58.013Z</time></trkpt><trkpt lat="43.6707683" lon="11.093785"><ele>182.0</ele><time>2026-04-04T09:01:59.013Z</time></trkpt><trkpt lat="43.67086" lon="11.09348"><ele>182.0</ele><time>2026-04-04T09:02:00.012Z</time></trkpt><trkpt lat="43.6709317" lon="11.0931833"><ele>181.0</ele><time>2026-04-04T09:02:01.013Z</time></trkpt><trkpt lat="43.6709683" lon="11.0928817"><ele>180.0</ele><time>2026-04-04T09:02:02.012Z</time></trkpt><trkpt lat="43.67097" lon="11.092575"><ele>179.0</ele><time>2026-04-04T09:02:03.012Z</time></trkpt><trkpt lat="43.6709317" lon="11.09227"><ele>179.0</ele><time>2026-04-04T09:02:04.011Z</time></trkpt><trkpt lat="43.6708567" lon="11.09197"><ele>179.0</ele><time>2026-04-04T09:02:05.013Z</time></trkpt><trkpt lat="43.6707733" lon="11.0916917"><ele>179.0</ele><time>2026-04-04T09:02:06.012Z</time></trkpt><trkpt lat="43.670685" lon="11.091445"><ele>179.0</ele><time>2026-04-04T09:02:07.013Z</time></trkpt><trkpt lat="43.67059" lon="11.09123"><ele>179.0</ele><time>2026-04-04T09:02:08.012Z</time></trkpt><trkpt lat="43.6704783" lon="11.0910517"><ele>179.0</ele><time>2026-04-04T09:02:09.013Z</time></trkpt><trkpt lat="43.670335" lon="11.0909333"><ele>178.66666666666666</ele><time>2026-04-04T09:02:10.012Z</time></trkpt><trkpt lat="43.67016" lon="11.0908533"><ele>178.33333333333334</ele><time>2026-04-04T09:02:11.013Z</time></trkpt><trkpt lat="43.669985" lon="11.0907783"><ele>178.0</ele><time>2026-04-04T09:02:12.012Z</time></trkpt><trkpt lat="43.6698317" lon="11.09067"><ele>178.0</ele><time>2026-04-04T09:02:13.013Z</time></trkpt><trkpt lat="43.6697017" lon="11.0905267"><ele>178.0</ele><time>2026-04-04T09:02:14.011Z</time></trkpt><trkpt lat="43.6696083" lon="11.0903317"><ele>178.0</ele><time>2026-04-04T09:02:15.012Z</time></trkpt><trkpt lat="43.669515" lon="11.090105"><ele>174.0</ele><time>2026-04-04T09:02:16.011Z</time></trkpt><trkpt lat="43.6694083" lon="11.089875"><ele>170.0</ele><time>2026-04-04T09:02:17.012Z</time></trkpt><trkpt lat="43.6692833" lon="11.0896567"><ele>166.0</ele><time>2026-04-04T09:02:18.012Z</time></trkpt><trkpt lat="43.6691367" lon="11.0894717"><ele>166.0</ele><time>2026-04-04T09:02:19.013Z</time></trkpt><trkpt lat="43.66898" lon="11.089305"><ele>166.0</ele><time>2026-04-04T09:02:20.013Z</time></trkpt><trkpt lat="43.6688183" lon="11.0891483"><ele>166.0</ele><time>2026-04-04T09:02:21.013Z</time></trkpt><trkpt lat="43.66866" lon="11.0889833"><ele>163.66666666666669</ele><time>2026-04-04T09:02:22.012Z</time></trkpt><trkpt lat="43.6685083" lon="11.0888217"><ele>161.33333333333334</ele><time>2026-04-04T09:02:23.012Z</time></trkpt><trkpt lat="43.66837" lon="11.0886517"><ele>159.0</ele><time>2026-04-04T09:02:24.014Z</time></trkpt><trkpt lat="43.668245" lon="11.0884717"><ele>159.0</ele><time>2026-04-04T09:02:25.012Z</time></trkpt><trkpt lat="43.6681283" lon="11.0882733"><ele>159.0</ele><time>2026-04-04T09:02:26.013Z</time></trkpt><trkpt lat="43.668005" lon="11.08808"><ele>159.0</ele><time>2026-04-04T09:02:27.014Z</time></trkpt><trkpt lat="43.6678683" lon="11.08789"><ele>158.33333333333334</ele><time>2026-04-04T09:02:28.01Z</time></trkpt><trkpt lat="43.6677217" lon="11.0877117"><ele>157.66666666666669</ele><time>2026-04-04T09:02:29.012Z</time></trkpt><trkpt lat="43.6675717" lon="11.0875317"><ele>157.0</ele><time>2026-04-04T09:02:30.012Z</time></trkpt><trkpt lat="43.6674183" lon="11.0873533"><ele>157.0</ele><time>2026-04-04T09:02:31.013Z</time></trkpt><trkpt lat="43.667265" lon="11.0871817"><ele>157.0</ele><time>2026-04-04T09:02:32.013Z</time></trkpt><trkpt lat="43.667125" lon="11.08701"><ele>157.0</ele><time>2026-04-04T09:02:33.012Z</time></trkpt><trkpt lat="43.667005" lon="11.0868183"><ele>151.0</ele><time>2026-04-04T09:02:34.011Z</time></trkpt><trkpt lat="43.66691" lon="11.0866017"><ele>145.0</ele><time>2026-04-04T09:02:35.013Z</time></trkpt><trkpt lat="43.6668417" lon="11.0863567"><ele>139.0</ele><time>2026-04-04T09:02:36.01Z</time></trkpt><trkpt lat="43.66678" lon="11.0861033"><ele>139.0</ele><time>2026-04-04T09:02:37.012Z</time></trkpt><trkpt lat="43.6667167" lon="11.08585"><ele>139.0</ele><time>2026-04-04T09:02:38.012Z</time></trkpt><trkpt lat="43.6666467" lon="11.0856117"><ele>139.0</ele><time>2026-04-04T09:02:39.014Z</time></trkpt><trkpt lat="43.6665883" lon="11.0853767"><ele>139.33333333333334</ele><time>2026-04-04T09:02:40.011Z</time></trkpt><trkpt lat="43.66655" lon="11.0851467"><ele>139.66666666666666</ele><time>2026-04-04T09:02:41.011Z</time></trkpt><trkpt lat="43.6665517" lon="11.0849133"><ele>140.0</ele><time>2026-04-04T09:02:42.013Z</time></trkpt><trkpt lat="43.6665933" lon="11.0846867"><ele>137.0</ele><time>2026-04-04T09:02:43.012Z</time></trkpt><trkpt lat="43.6666733" lon="11.0844733"><ele>134.0</ele><time>2026-04-04T09:02:44.014Z</time></trkpt><trkpt lat="43.6667867" lon="11.0842783"><ele>131.0</ele><time>2026-04-04T09:02:45.014Z</time></trkpt><trkpt lat="43.66693" lon="11.0840933"><ele>131.33333333333331</ele><time>2026-04-04T09:02:46.012Z</time></trkpt><trkpt lat="43.66708" lon="11.083905"><ele>131.66666666666666</ele><time>2026-04-04T09:02:47.015Z</time></trkpt><trkpt lat="43.6672333" lon="11.083705"><ele>132.0</ele><time>2026-04-04T09:02:48.013Z</time></trkpt><trkpt lat="43.6673733" lon="11.08351"><ele>132.0</ele><time>2026-04-04T09:02:49.014Z</time></trkpt><trkpt lat="43.6675033" lon="11.0833267"><ele>132.0</ele><time>2026-04-04T09:02:50.014Z</time></trkpt><trkpt lat="43.6676267" lon="11.0831583"><ele>132.0</ele><time>2026-04-04T09:02:51.014Z</time></trkpt><trkpt lat="43.6677383" lon="11.0830067"><ele>131.25</ele><time>2026-04-04T09:02:52.014Z</time></trkpt><trkpt lat="43.6678417" lon="11.0828683"><ele>130.5</ele><time>2026-04-04T09:02:53.014Z</time></trkpt><trkpt lat="43.6679183" lon="11.0827183"><ele>129.75</ele><time>2026-04-04T09:02:54.014Z</time></trkpt><trkpt lat="43.6679467" lon="11.0825633"><ele>129.0</ele><time>2026-04-04T09:02:55.01Z</time></trkpt><trkpt lat="43.6679283" lon="11.08242"><ele>127.25</ele><time>2026-04-04T09:02:56.011Z</time></trkpt><trkpt lat="43.6678733" lon="11.0822967"><ele>125.5</ele><time>2026-04-04T09:02:57.01Z</time></trkpt><trkpt lat="43.6677533" lon="11.0822417"><ele>123.75</ele><time>2026-04-04T09:02:58.012Z</time></trkpt><trkpt lat="43.6676117" lon="11.0822383"><ele>122.0</ele><time>2026-04-04T09:02:59.013Z</time></trkpt><trkpt lat="43.6674417" lon="11.0823017"><ele>122.0</ele><time>2026-04-04T09:03:00.012Z</time></trkpt><trkpt lat="43.66727" lon="11.0823783"><ele>122.0</ele><time>2026-04-04T09:03:01.012Z</time></trkpt><trkpt lat="43.6670967" lon="11.082455"><ele>122.0</ele><time>2026-04-04T09:03:02.012Z</time></trkpt><trkpt lat="43.6669333" lon="11.08254"><ele>119.66666666666666</ele><time>2026-04-04T09:03:03.012Z</time></trkpt><trkpt lat="43.666765" lon="11.0826217"><ele>117.33333333333334</ele><time>2026-04-04T09:03:04.012Z</time></trkpt><trkpt lat="43.6666" lon="11.0827033"><ele>115.0</ele><time>2026-04-04T09:03:05.013Z</time></trkpt><trkpt lat="43.66644" lon="11.08278"><ele>115.0</ele><time>2026-04-04T09:03:06.014Z</time></trkpt><trkpt lat="43.66629" lon="11.08285"><ele>115.0</ele><time>2026-04-04T09:03:07.015Z</time></trkpt><trkpt lat="43.6661467" lon="11.0829167"><ele>115.0</ele><time>2026-04-04T09:03:08.014Z</time></trkpt><trkpt lat="43.666015" lon="11.08299"><ele>115.25</ele><time>2026-04-04T09:03:09.014Z</time></trkpt><trkpt lat="43.6658917" lon="11.08308"><ele>115.5</ele><time>2026-04-04T09:03:10.013Z</time></trkpt><trkpt lat="43.66577" lon="11.0831883"><ele>115.75</ele><time>2026-04-04T09:03:11.013Z</time></trkpt><trkpt lat="43.6656483" lon="11.0833083"><ele>116.0</ele><time>2026-04-04T09:03:12.015Z</time></trkpt><trkpt lat="43.6655317" lon="11.0834317"><ele>116.0</ele><time>2026-04-04T09:03:13.013Z</time></trkpt><trkpt lat="43.6654183" lon="11.0835517"><ele>116.0</ele><time>2026-04-04T09:03:14.013Z</time></trkpt><trkpt lat="43.6653167" lon="11.0836767"><ele>116.0</ele><time>2026-04-04T09:03:15.014Z</time></trkpt><trkpt lat="43.665215" lon="11.083795"><ele>116.0</ele><time>2026-04-04T09:03:16.014Z</time></trkpt><trkpt lat="43.6651217" lon="11.0839133"><ele>113.75</ele><time>2026-04-04T09:03:17.012Z</time></trkpt><trkpt lat="43.665035" lon="11.084025"><ele>111.5</ele><time>2026-04-04T09:03:18.014Z</time></trkpt><trkpt lat="43.6649467" lon="11.084125"><ele>109.25</ele><time>2026-04-04T09:03:19.013Z</time></trkpt><trkpt lat="43.6648583" lon="11.08422"><ele>107.0</ele><time>2026-04-04T09:03:20.013Z</time></trkpt><trkpt lat="43.6647767" lon="11.084315"><ele>106.8</ele><time>2026-04-04T09:03:21.014Z</time></trkpt><trkpt lat="43.6647083" lon="11.0843833"><ele>106.6</ele><time>2026-04-04T09:03:22.014Z</time></trkpt><trkpt lat="43.6646533" lon="11.0844367"><ele>106.39999999999999</ele><time>2026-04-04T09:03:23.012Z</time></trkpt><trkpt lat="43.6645783" lon="11.0844883"><ele>106.19999999999999</ele><time>2026-04-04T09:03:25.013Z</time></trkpt><trkpt lat="43.6644967" lon="11.0845533"><ele>106.0</ele><time>2026-04-04T09:03:29.014Z</time></trkpt><trkpt lat="43.6643717" lon="11.0846317"><ele>104.75</ele><time>2026-04-04T09:03:31.012Z</time></trkpt><trkpt lat="43.66427" lon="11.0846867"><ele>103.5</ele><time>2026-04-04T09:03:32.012Z</time></trkpt><trkpt lat="43.6641517" lon="11.0847483"><ele>102.25</ele><time>2026-04-04T09:03:33.013Z</time></trkpt><trkpt lat="43.6640367" lon="11.084805"><ele>101.0</ele><time>2026-04-04T09:03:34.013Z</time></trkpt><trkpt lat="43.6639183" lon="11.0848417"><ele>101.0</ele><time>2026-04-04T09:03:35.012Z</time></trkpt><trkpt lat="43.6637883" lon="11.08485"><ele>101.0</ele><time>2026-04-04T09:03:36.013Z</time></trkpt><trkpt lat="43.6636483" lon="11.08482"><ele>101.0</ele><time>2026-04-04T09:03:37.013Z</time></trkpt><trkpt lat="43.6635017" lon="11.0847717"><ele>101.0</ele><time>2026-04-04T09:03:38.012Z</time></trkpt><trkpt lat="43.66336" lon="11.0847183"><ele>100.75</ele><time>2026-04-04T09:03:39.014Z</time></trkpt><trkpt lat="43.6632133" lon="11.084675"><ele>100.5</ele><time>2026-04-04T09:03:40.012Z</time></trkpt><trkpt lat="43.6630683" lon="11.0846333"><ele>100.25</ele><time>2026-04-04T09:03:41.012Z</time></trkpt><trkpt lat="43.6629217" lon="11.0845967"><ele>100.0</ele><time>2026-04-04T09:03:42.011Z</time></trkpt><trkpt lat="43.6627683" lon="11.0845683"><ele>100.0</ele><time>2026-04-04T09:03:43.012Z</time></trkpt><trkpt lat="43.6626067" lon="11.0845467"><ele>100.0</ele><time>2026-04-04T09:03:44.012Z</time></trkpt><trkpt lat="43.6624467" lon="11.0845333"><ele>100.0</ele><time>2026-04-04T09:03:45.013Z</time></trkpt><trkpt lat="43.6622867" lon="11.0845283"><ele>100.0</ele><time>2026-04-04T09:03:46.012Z</time></trkpt><trkpt lat="43.6621267" lon="11.084525"><ele>100.0</ele><time>2026-04-04T09:03:47.012Z</time></trkpt><trkpt lat="43.6619683" lon="11.0845217"><ele>100.0</ele><time>2026-04-04T09:03:48.011Z</time></trkpt><trkpt lat="43.6618233" lon="11.0845233"><ele>100.25</ele><time>2026-04-04T09:03:49.013Z</time></trkpt><trkpt lat="43.66169" lon="11.0845317"><ele>100.5</ele><time>2026-04-04T09:03:50.012Z</time></trkpt><trkpt lat="43.66157" lon="11.084535"><ele>100.75</ele><time>2026-04-04T09:03:51.013Z</time></trkpt><trkpt lat="43.6614667" lon="11.0845567"><ele>101.0</ele><time>2026-04-04T09:03:52.013Z</time></trkpt><trkpt lat="43.661375" lon="11.0845667"><ele>101.0</ele><time>2026-04-04T09:03:53.013Z</time></trkpt><trkpt lat="43.6612833" lon="11.0845617"><ele>101.0</ele><time>2026-04-04T09:03:54.012Z</time></trkpt><trkpt lat="43.661195" lon="11.0845317"><ele>101.0</ele><time>2026-04-04T09:03:55.013Z</time></trkpt><trkpt lat="43.6611033" lon="11.084495"><ele>101.0</ele><time>2026-04-04T09:03:56.014Z</time></trkpt><trkpt lat="43.6609933" lon="11.0844633"><ele>101.0</ele><time>2026-04-04T09:03:57.013Z</time></trkpt><trkpt lat="43.6608667" lon="11.0844367"><ele>100.0</ele><time>2026-04-04T09:03:58.012Z</time></trkpt><trkpt lat="43.66073" lon="11.0843967"><ele>99.0</ele><time>2026-04-04T09:03:59.012Z</time></trkpt><trkpt lat="43.6605883" lon="11.0843533"><ele>98.0</ele><time>2026-04-04T09:04:00.012Z</time></trkpt><trkpt lat="43.6604467" lon="11.0843333"><ele>97.0</ele><time>2026-04-04T09:04:01.012Z</time></trkpt><trkpt lat="43.6602933" lon="11.0843317"><ele>97.66666666666667</ele><time>2026-04-04T09:04:02.011Z</time></trkpt><trkpt lat="43.660135" lon="11.0843133"><ele>98.33333333333334</ele><time>2026-04-04T09:04:03.013Z</time></trkpt><trkpt lat="43.6599733" lon="11.08429"><ele>99.0</ele><time>2026-04-04T09:04:04.013Z</time></trkpt><trkpt lat="43.659805" lon="11.084265"><ele>99.0</ele><time>2026-04-04T09:04:05.011Z</time></trkpt><trkpt lat="43.6596367" lon="11.0842317"><ele>99.0</ele><time>2026-04-04T09:04:06.013Z</time></trkpt><trkpt lat="43.659465" lon="11.0841867"><ele>99.0</ele><time>2026-04-04T09:04:07.013Z</time></trkpt><trkpt lat="43.65929" lon="11.084145"><ele>99.33333333333334</ele><time>2026-04-04T09:04:08.012Z</time></trkpt><trkpt lat="43.6591117" lon="11.0841"><ele>99.66666666666667</ele><time>2026-04-04T09:04:09.013Z</time></trkpt><trkpt lat="43.65893" lon="11.08405"><ele>100.0</ele><time>2026-04-04T09:04:10.012Z</time></trkpt><trkpt lat="43.6587467" lon="11.0840033"><ele>100.66666666666667</ele><time>2026-04-04T09:04:11.011Z</time></trkpt><trkpt lat="43.658565" lon="11.0839567"><ele>101.33333333333334</ele><time>2026-04-04T09:04:12.012Z</time></trkpt><trkpt lat="43.65838" lon="11.083915"><ele>102.0</ele><time>2026-04-04T09:04:13.012Z</time></trkpt><trkpt lat="43.6582" lon="11.0838783"><ele>102.0</ele><time>2026-04-04T09:04:14.011Z</time></trkpt><trkpt lat="43.6580233" lon="11.0838417"><ele>102.0</ele><time>2026-04-04T09:04:15.013Z</time></trkpt><trkpt lat="43.6578467" lon="11.0838067"><ele>102.0</ele><time>2026-04-04T09:04:16.013Z</time></trkpt><trkpt lat="43.6576733" lon="11.0837767"><ele>102.66666666666666</ele><time>2026-04-04T09:04:17.012Z</time></trkpt><trkpt lat="43.6575033" lon="11.0837583"><ele>103.33333333333333</ele><time>2026-04-04T09:04:18.012Z</time></trkpt><trkpt lat="43.657335" lon="11.0837567"><ele>104.0</ele><time>2026-04-04T09:04:19.013Z</time></trkpt><trkpt lat="43.6571683" lon="11.08378"><ele>104.0</ele><time>2026-04-04T09:04:20.012Z</time></trkpt><trkpt lat="43.6570017" lon="11.0838217"><ele>104.0</ele><time>2026-04-04T09:04:21.013Z</time></trkpt><trkpt lat="43.6568383" lon="11.083885"><ele>104.0</ele><time>2026-04-04T09:04:22.011Z</time></trkpt><trkpt lat="43.6566733" lon="11.0839583"><ele>104.33333333333333</ele><time>2026-04-04T09:04:23.012Z</time></trkpt><trkpt lat="43.6565067" lon="11.0840417"><ele>104.66666666666666</ele><time>2026-04-04T09:04:24.013Z</time></trkpt><trkpt lat="43.6563433" lon="11.0841333"><ele>105.0</ele><time>2026-04-04T09:04:25.014Z</time></trkpt><trkpt lat="43.656175" lon="11.0842333"><ele>106.33333333333334</ele><time>2026-04-04T09:04:26.012Z</time></trkpt><trkpt lat="43.6560167" lon="11.0843617"><ele>107.66666666666667</ele><time>2026-04-04T09:04:27.013Z</time></trkpt><trkpt lat="43.6558767" lon="11.0845317"><ele>109.0</ele><time>2026-04-04T09:04:28.014Z</time></trkpt><trkpt lat="43.655755" lon="11.0847367"><ele>109.0</ele><time>2026-04-04T09:04:29.013Z</time></trkpt><trkpt lat="43.65565" lon="11.0849733"><ele>109.0</ele><time>2026-04-04T09:04:30.013Z</time></trkpt><trkpt lat="43.6555467" lon="11.0852183"><ele>109.0</ele><time>2026-04-04T09:04:31.011Z</time></trkpt><trkpt lat="43.655425" lon="11.0854533"><ele>112.33333333333334</ele><time>2026-04-04T09:04:32.013Z</time></trkpt><trkpt lat="43.6552783" lon="11.0856717"><ele>115.66666666666666</ele><time>2026-04-04T09:04:33.013Z</time></trkpt><trkpt lat="43.6551167" lon="11.085875"><ele>119.0</ele><time>2026-04-04T09:04:34.013Z</time></trkpt><trkpt lat="43.6549467" lon="11.0860683"><ele>119.0</ele><time>2026-04-04T09:04:35.012Z</time></trkpt><trkpt lat="43.6547617" lon="11.086245"><ele>119.0</ele><time>2026-04-04T09:04:36.013Z</time></trkpt><trkpt lat="43.6545667" lon="11.086405"><ele>122.0</ele><time>2026-04-04T09:04:37.012Z</time></trkpt><trkpt lat="43.6543617" lon="11.0865517"><ele>125.0</ele><time>2026-04-04T09:04:38.013Z</time></trkpt><trkpt lat="43.6541517" lon="11.0866933"><ele>125.0</ele><time>2026-04-04T09:04:39.012Z</time></trkpt><trkpt lat="43.653945" lon="11.0868433"><ele>125.0</ele><time>2026-04-04T09:04:40.012Z</time></trkpt><trkpt lat="43.65374" lon="11.086995"><ele>130.5</ele><time>2026-04-04T09:04:41.012Z</time></trkpt><trkpt lat="43.6535383" lon="11.087145"><ele>136.0</ele><time>2026-04-04T09:04:42.013Z</time></trkpt><trkpt lat="43.6533383" lon="11.0872917"><ele>136.66666666666669</ele><time>2026-04-04T09:04:43.013Z</time></trkpt><trkpt lat="43.6531383" lon="11.0874367"><ele>137.33333333333334</ele><time>2026-04-04T09:04:44.013Z</time></trkpt><trkpt lat="43.652945" lon="11.0875833"><ele>138.0</ele><time>2026-04-04T09:04:45.012Z</time></trkpt><trkpt lat="43.6527583" lon="11.0877217"><ele>138.0</ele><time>2026-04-04T09:04:46.013Z</time></trkpt><trkpt lat="43.65258" lon="11.087835"><ele>138.0</ele><time>2026-04-04T09:04:47.013Z</time></trkpt><trkpt lat="43.65241" lon="11.0879217"><ele>138.0</ele><time>2026-04-04T09:04:48.013Z</time></trkpt><trkpt lat="43.6522567" lon="11.0879883"><ele>138.0</ele><time>2026-04-04T09:04:49.012Z</time></trkpt><trkpt lat="43.652115" lon="11.0880217"><ele>138.0</ele><time>2026-04-04T09:04:50.013Z</time></trkpt><trkpt lat="43.6519983" lon="11.088"><ele>138.0</ele><time>2026-04-04T09:04:51.013Z</time></trkpt><trkpt lat="43.651905" lon="11.0879183"><ele>138.0</ele><time>2026-04-04T09:04:52.013Z</time></trkpt><trkpt lat="43.6518483" lon="11.0878033"><ele>140.5</ele><time>2026-04-04T09:04:53.012Z</time></trkpt><trkpt lat="43.65184" lon="11.08767"><ele>143.0</ele><time>2026-04-04T09:04:54.013Z</time></trkpt><trkpt lat="43.6518767" lon="11.0875367"><ele>145.5</ele><time>2026-04-04T09:04:55.014Z</time></trkpt><trkpt lat="43.65196" lon="11.0874183"><ele>148.0</ele><time>2026-04-04T09:04:56.012Z</time></trkpt><trkpt lat="43.65207" lon="11.0873217"><ele>148.0</ele><time>2026-04-04T09:04:57.013Z</time></trkpt><trkpt lat="43.65219" lon="11.08724"><ele>148.0</ele><time>2026-04-04T09:04:58.013Z</time></trkpt><trkpt lat="43.6523017" lon="11.0871517"><ele>148.0</ele><time>2026-04-04T09:04:59.013Z</time></trkpt><trkpt lat="43.6523883" lon="11.087015"><ele>148.0</ele><time>2026-04-04T09:05:00.012Z</time></trkpt><trkpt lat="43.6524533" lon="11.0868467"><ele>148.0</ele><time>2026-04-04T09:05:01.012Z</time></trkpt><trkpt lat="43.6524767" lon="11.086655"><ele>148.0</ele><time>2026-04-04T09:05:02.012Z</time></trkpt><trkpt lat="43.6524967" lon="11.0864567"><ele>148.0</ele><time>2026-04-04T09:05:03.011Z</time></trkpt><trkpt lat="43.652515" lon="11.0862767"><ele>148.0</ele><time>2026-04-04T09:05:04.012Z</time></trkpt><trkpt lat="43.65255" lon="11.0861217"><ele>148.25</ele><time>2026-04-04T09:05:05.011Z</time></trkpt><trkpt lat="43.6526067" lon="11.0859933"><ele>148.5</ele><time>2026-04-04T09:05:06.011Z</time></trkpt><trkpt lat="43.6526883" lon="11.0858883"><ele>148.75</ele><time>2026-04-04T09:05:07.012Z</time></trkpt><trkpt lat="43.6528033" lon="11.085785"><ele>149.0</ele><time>2026-04-04T09:05:08.012Z</time></trkpt><trkpt lat="43.6529533" lon="11.085675"><ele>150.66666666666666</ele><time>2026-04-04T09:05:09.013Z</time></trkpt><trkpt lat="43.6531083" lon="11.085575"><ele>152.33333333333334</ele><time>2026-04-04T09:05:10.013Z</time></trkpt><trkpt lat="43.65324" lon="11.08548"><ele>154.0</ele><time>2026-04-04T09:05:11.011Z</time></trkpt><trkpt lat="43.653345" lon="11.085355"><ele>154.0</ele><time>2026-04-04T09:05:12.011Z</time></trkpt><trkpt lat="43.6534033" lon="11.0852133"><ele>154.0</ele><time>2026-04-04T09:05:13.013Z</time></trkpt><trkpt lat="43.6534117" lon="11.085035"><ele>154.0</ele><time>2026-04-04T09:05:14.012Z</time></trkpt><trkpt lat="43.6533733" lon="11.0848667"><ele>154.0</ele><time>2026-04-04T09:05:15.012Z</time></trkpt><trkpt lat="43.6533033" lon="11.0847217"><ele>153.0</ele><time>2026-04-04T09:05:16.013Z</time></trkpt><trkpt lat="43.6531983" lon="11.08461"><ele>152.0</ele><time>2026-04-04T09:05:17.014Z</time></trkpt><trkpt lat="43.6530733" lon="11.0845483"><ele>151.0</ele><time>2026-04-04T09:05:18.012Z</time></trkpt><trkpt lat="43.6529283" lon="11.084545"><ele>150.0</ele><time>2026-04-04T09:05:19.013Z</time></trkpt><trkpt lat="43.6527467" lon="11.0846183"><ele>152.66666666666666</ele><time>2026-04-04T09:05:20.013Z</time></trkpt><trkpt lat="43.6525567" lon="11.084715"><ele>155.33333333333331</ele><time>2026-04-04T09:05:21.013Z</time></trkpt><trkpt lat="43.6523633" lon="11.084815"><ele>158.0</ele><time>2026-04-04T09:05:22.012Z</time></trkpt><trkpt lat="43.6521733" lon="11.0849183"><ele>159.0</ele><time>2026-04-04T09:05:23.012Z</time></trkpt><trkpt lat="43.6519983" lon="11.0850683"><ele>160.0</ele><time>2026-04-04T09:05:24.012Z</time></trkpt><trkpt lat="43.651845" lon="11.08524"><ele>161.0</ele><time>2026-04-04T09:05:25.012Z</time></trkpt><trkpt lat="43.6517183" lon="11.0854"><ele>163.0</ele><time>2026-04-04T09:05:26.013Z</time></trkpt><trkpt lat="43.651615" lon="11.0855317"><ele>165.0</ele><time>2026-04-04T09:05:27.012Z</time></trkpt><trkpt lat="43.65153" lon="11.085625"><ele>167.0</ele><time>2026-04-04T09:05:28.012Z</time></trkpt><trkpt lat="43.6514533" lon="11.0856733"><ele>169.0</ele><time>2026-04-04T09:05:29.013Z</time></trkpt><trkpt lat="43.6513733" lon="11.0856767"><ele>171.0</ele><time>2026-04-04T09:05:30.012Z</time></trkpt><trkpt lat="43.6513067" lon="11.0856133"><ele>171.0</ele><time>2026-04-04T09:05:31.014Z</time></trkpt><trkpt lat="43.65129" lon="11.0854767"><ele>171.0</ele><time>2026-04-04T09:05:32.013Z</time></trkpt><trkpt lat="43.6512967" lon="11.0853233"><ele>171.0</ele><time>2026-04-04T09:05:33.013Z</time></trkpt><trkpt lat="43.6513033" lon="11.0851733"><ele>171.0</ele><time>2026-04-04T09:05:34.01Z</time></trkpt><trkpt lat="43.65129" lon="11.08503"><ele>171.0</ele><time>2026-04-04T09:05:35.013Z</time></trkpt><trkpt lat="43.6512367" lon="11.084905"><ele>170.5</ele><time>2026-04-04T09:05:36.013Z</time></trkpt><trkpt lat="43.6511367" lon="11.0848117"><ele>170.0</ele><time>2026-04-04T09:05:37.013Z</time></trkpt><trkpt lat="43.651" lon="11.0847567"><ele>169.5</ele><time>2026-04-04T09:05:38.013Z</time></trkpt><trkpt lat="43.6508467" lon="11.0847267"><ele>169.0</ele><time>2026-04-04T09:05:39.013Z</time></trkpt><trkpt lat="43.65069" lon="11.0847133"><ele>173.0</ele><time>2026-04-04T09:05:40.014Z</time></trkpt><trkpt lat="43.650525" lon="11.0847033"><ele>177.0</ele><time>2026-04-04T09:05:41.015Z</time></trkpt><trkpt lat="43.650355" lon="11.0847083"><ele>181.0</ele><time>2026-04-04T09:05:42.013Z</time></trkpt><trkpt lat="43.6501867" lon="11.08472"><ele>183.66666666666669</ele><time>2026-04-04T09:05:43.013Z</time></trkpt><trkpt lat="43.650025" lon="11.0847367"><ele>186.33333333333334</ele><time>2026-04-04T09:05:44.013Z</time></trkpt><trkpt lat="43.64987" lon="11.0847617"><ele>189.0</ele><time>2026-04-04T09:05:45.015Z</time></trkpt><trkpt lat="43.6497267" lon="11.0848117"><ele>189.0</ele><time>2026-04-04T09:05:46.014Z</time></trkpt><trkpt lat="43.64959" lon="11.0848767"><ele>189.0</ele><time>2026-04-04T09:05:47.014Z</time></trkpt><trkpt lat="43.6494667" lon="11.0849667"><ele>189.0</ele><time>2026-04-04T09:05:48.013Z</time></trkpt><trkpt lat="43.6493667" lon="11.0850883"><ele>189.0</ele><time>2026-04-04T09:05:49.014Z</time></trkpt><trkpt lat="43.6493133" lon="11.0852567"><ele>190.25</ele><time>2026-04-04T09:05:50.014Z</time></trkpt><trkpt lat="43.64927" lon="11.0854267"><ele>191.5</ele><time>2026-04-04T09:05:51.013Z</time></trkpt><trkpt lat="43.6492217" lon="11.0855817"><ele>192.75</ele><time>2026-04-04T09:05:52.013Z</time></trkpt><trkpt lat="43.6491567" lon="11.0857133"><ele>194.0</ele><time>2026-04-04T09:05:53.012Z</time></trkpt><trkpt lat="43.64907" lon="11.0858017"><ele>194.0</ele><time>2026-04-04T09:05:54.013Z</time></trkpt><trkpt lat="43.64896" lon="11.0858383"><ele>194.0</ele><time>2026-04-04T09:05:55.013Z</time></trkpt><trkpt lat="43.6488383" lon="11.08582"><ele>194.0</ele><time>2026-04-04T09:05:56.013Z</time></trkpt><trkpt lat="43.64872" lon="11.08577"><ele>194.0</ele><time>2026-04-04T09:05:57.014Z</time></trkpt><trkpt lat="43.6486167" lon="11.0856983"><ele>195.79999999999998</ele><time>2026-04-04T09:05:58.012Z</time></trkpt><trkpt lat="43.6485283" lon="11.0856"><ele>197.6</ele><time>2026-04-04T09:05:59.012Z</time></trkpt><trkpt lat="43.6484533" lon="11.0854833"><ele>199.4</ele><time>2026-04-04T09:06:00.012Z</time></trkpt><trkpt lat="43.648395" lon="11.08535"><ele>201.2</ele><time>2026-04-04T09:06:01.011Z</time></trkpt><trkpt lat="43.6483517" lon="11.08521"><ele>203.0</ele><time>2026-04-04T09:06:02.011Z</time></trkpt><trkpt lat="43.6483133" lon="11.0850717"><ele>203.0</ele><time>2026-04-04T09:06:03.012Z</time></trkpt><trkpt lat="43.6482767" lon="11.0849483"><ele>203.0</ele><time>2026-04-04T09:06:04.012Z</time></trkpt><trkpt lat="43.6482383" lon="11.0848283"><ele>203.0</ele><time>2026-04-04T09:06:05.012Z</time></trkpt><trkpt lat="43.6481967" lon="11.0846967"><ele>203.0</ele><time>2026-04-04T09:06:06.011Z</time></trkpt><trkpt lat="43.6481483" lon="11.0845567"><ele>203.0</ele><time>2026-04-04T09:06:07.013Z</time></trkpt><trkpt lat="43.6481017" lon="11.084395"><ele>203.0</ele><time>2026-04-04T09:06:08.012Z</time></trkpt><trkpt lat="43.6480483" lon="11.0842233"><ele>203.0</ele><time>2026-04-04T09:06:09.012Z</time></trkpt><trkpt lat="43.6479933" lon="11.08405"><ele>203.0</ele><time>2026-04-04T09:06:10.012Z</time></trkpt><trkpt lat="43.6479367" lon="11.0838667"><ele>203.0</ele><time>2026-04-04T09:06:11.011Z</time></trkpt><trkpt lat="43.6478783" lon="11.0836767"><ele>204.0</ele><time>2026-04-04T09:06:12.012Z</time></trkpt><trkpt lat="43.6478217" lon="11.0834833"><ele>205.0</ele><time>2026-04-04T09:06:13.012Z</time></trkpt><trkpt lat="43.6477633" lon="11.083295"><ele>206.0</ele><time>2026-04-04T09:06:14.013Z</time></trkpt><trkpt lat="43.6477067" lon="11.0831083"><ele>207.0</ele><time>2026-04-04T09:06:15.013Z</time></trkpt><trkpt lat="43.6476517" lon="11.0829217"><ele>208.33333333333331</ele><time>2026-04-04T09:06:16.013Z</time></trkpt><trkpt lat="43.6475967" lon="11.0827317"><ele>209.66666666666666</ele><time>2026-04-04T09:06:17.012Z</time></trkpt><trkpt lat="43.6475433" lon="11.082535"><ele>211.0</ele><time>2026-04-04T09:06:18.012Z</time></trkpt><trkpt lat="43.6474967" lon="11.0823317"><ele>211.66666666666666</ele><time>2026-04-04T09:06:19.011Z</time></trkpt><trkpt lat="43.6474533" lon="11.082115"><ele>212.33333333333331</ele><time>2026-04-04T09:06:20.012Z</time></trkpt><trkpt lat="43.6474067" lon="11.0818967"><ele>213.0</ele><time>2026-04-04T09:06:21.013Z</time></trkpt><trkpt lat="43.647355" lon="11.0816783"><ele>210.0</ele><time>2026-04-04T09:06:22.013Z</time></trkpt><trkpt lat="43.6472883" lon="11.0814617"><ele>207.0</ele><time>2026-04-04T09:06:23.012Z</time></trkpt><trkpt lat="43.6472067" lon="11.0812533"><ele>204.0</ele><time>2026-04-04T09:06:24.011Z</time></trkpt><trkpt lat="43.64711" lon="11.0810617"><ele>204.0</ele><time>2026-04-04T09:06:25.01Z</time></trkpt><trkpt lat="43.6470017" lon="11.080885"><ele>204.0</ele><time>2026-04-04T09:06:26.01Z</time></trkpt><trkpt lat="43.6468783" lon="11.0807233"><ele>204.0</ele><time>2026-04-04T09:06:27.013Z</time></trkpt><trkpt lat="43.64675" lon="11.0805617"><ele>206.66666666666669</ele><time>2026-04-04T09:06:28.013Z</time></trkpt><trkpt lat="43.646615" lon="11.0804017"><ele>209.33333333333334</ele><time>2026-04-04T09:06:29.012Z</time></trkpt><trkpt lat="43.6464867" lon="11.0802283"><ele>212.0</ele><time>2026-04-04T09:06:30.012Z</time></trkpt><trkpt lat="43.6463717" lon="11.0800383"><ele>210.66666666666669</ele><time>2026-04-04T09:06:31.011Z</time></trkpt><trkpt lat="43.6462717" lon="11.0798317"><ele>209.33333333333331</ele><time>2026-04-04T09:06:32.011Z</time></trkpt><trkpt lat="43.6461883" lon="11.0796083"><ele>208.0</ele><time>2026-04-04T09:06:33.013Z</time></trkpt><trkpt lat="43.64612" lon="11.0793817"><ele>213.66666666666666</ele><time>2026-04-04T09:06:34.012Z</time></trkpt><trkpt lat="43.6460717" lon="11.0791633"><ele>219.33333333333331</ele><time>2026-04-04T09:06:35.012Z</time></trkpt><trkpt lat="43.6460367" lon="11.0789517"><ele>225.0</ele><time>2026-04-04T09:06:36.013Z</time></trkpt><trkpt lat="43.6460067" lon="11.0787433"><ele>225.25</ele><time>2026-04-04T09:06:37.013Z</time></trkpt><trkpt lat="43.6459767" lon="11.078545"><ele>225.5</ele><time>2026-04-04T09:06:38.011Z</time></trkpt><trkpt lat="43.6459417" lon="11.07836"><ele>225.75</ele><time>2026-04-04T09:06:39.013Z</time></trkpt><trkpt lat="43.64591" lon="11.0781917"><ele>226.0</ele><time>2026-04-04T09:06:40.012Z</time></trkpt><trkpt lat="43.6458767" lon="11.078025"><ele>226.0</ele><time>2026-04-04T09:06:41.012Z</time></trkpt><trkpt lat="43.6458433" lon="11.0778633"><ele>226.0</ele><time>2026-04-04T09:06:42.012Z</time></trkpt><trkpt lat="43.6458033" lon="11.0777067"><ele>226.0</ele><time>2026-04-04T09:06:43.013Z</time></trkpt><trkpt lat="43.64576" lon="11.0775483"><ele>226.0</ele><time>2026-04-04T09:06:44.01Z</time></trkpt><trkpt lat="43.645715" lon="11.0773917"><ele>226.5</ele><time>2026-04-04T09:06:45.012Z</time></trkpt><trkpt lat="43.6456733" lon="11.077235"><ele>227.0</ele><time>2026-04-04T09:06:46.012Z</time></trkpt><trkpt lat="43.6456333" lon="11.0770833"><ele>227.5</ele><time>2026-04-04T09:06:47.012Z</time></trkpt><trkpt lat="43.6456" lon="11.07693"><ele>228.0</ele><time>2026-04-04T09:06:48.012Z</time></trkpt><trkpt lat="43.64557" lon="11.0767767"><ele>228.0</ele><time>2026-04-04T09:06:49.012Z</time></trkpt><trkpt lat="43.6455417" lon="11.0766267"><ele>228.0</ele><time>2026-04-04T09:06:50.012Z</time></trkpt><trkpt lat="43.6455117" lon="11.0764767"><ele>228.0</ele><time>2026-04-04T09:06:51.015Z</time></trkpt><trkpt lat="43.6454883" lon="11.0763267"><ele>228.0</ele><time>2026-04-04T09:06:52.012Z</time></trkpt><trkpt lat="43.64546" lon="11.0761717"><ele>227.75</ele><time>2026-04-04T09:06:53.013Z</time></trkpt><trkpt lat="43.6454333" lon="11.0760117"><ele>227.5</ele><time>2026-04-04T09:06:54.012Z</time></trkpt><trkpt lat="43.645405" lon="11.07585"><ele>227.25</ele><time>2026-04-04T09:06:55.011Z</time></trkpt><trkpt lat="43.6453767" lon="11.0756883"><ele>227.0</ele><time>2026-04-04T09:06:56.013Z</time></trkpt><trkpt lat="43.64535" lon="11.0755283"><ele>227.39999999999998</ele><time>2026-04-04T09:06:57.013Z</time></trkpt><trkpt lat="43.645325" lon="11.075375"><ele>227.79999999999998</ele><time>2026-04-04T09:06:58.011Z</time></trkpt><trkpt lat="43.6453033" lon="11.075235"><ele>228.2</ele><time>2026-04-04T09:06:59.013Z</time></trkpt><trkpt lat="43.6452867" lon="11.0751117"><ele>228.6</ele><time>2026-04-04T09:07:00.012Z</time></trkpt><trkpt lat="43.6452733" lon="11.075"><ele>229.0</ele><time>2026-04-04T09:07:01.013Z</time></trkpt><trkpt lat="43.6452617" lon="11.0749"><ele>230.49999999999997</ele><time>2026-04-04T09:07:02.013Z</time></trkpt><trkpt lat="43.6452417" lon="11.0747733"><ele>232.0</ele><time>2026-04-04T09:07:04.013Z</time></trkpt><trkpt lat="43.6452333" lon="11.0746867"><ele>233.5</ele><time>2026-04-04T09:07:07.011Z</time></trkpt><trkpt lat="43.6452317" lon="11.0745983"><ele>235.0</ele><time>2026-04-04T09:07:09.012Z</time></trkpt><trkpt lat="43.6452283" lon="11.0744717"><ele>236.49999999999997</ele><time>2026-04-04T09:07:11.013Z</time></trkpt><trkpt lat="43.645215" lon="11.0743583"><ele>238.0</ele><time>2026-04-04T09:07:13.012Z</time></trkpt><trkpt lat="43.6452017" lon="11.0742467"><ele>237.99999999999997</ele><time>2026-04-04T09:07:16.011Z</time></trkpt><trkpt lat="43.645195" lon="11.0741117"><ele>238.0</ele><time>2026-04-04T09:07:19.011Z</time></trkpt><trkpt lat="43.6451817" lon="11.074"><ele>238.0</ele><time>2026-04-04T09:07:21.012Z</time></trkpt><trkpt lat="43.6451733" lon="11.0738967"><ele>238.0</ele><time>2026-04-04T09:07:24.011Z</time></trkpt><trkpt lat="43.645155" lon="11.0737817"><ele>237.99999999999997</ele><time>2026-04-04T09:07:27.012Z</time></trkpt><trkpt lat="43.64515" lon="11.07369"><ele>238.0</ele><time>2026-04-04T09:07:29.012Z</time></trkpt><trkpt lat="43.645145" lon="11.0736017"><ele>237.4</ele><time>2026-04-04T09:07:31.011Z</time></trkpt><trkpt lat="43.645135" lon="11.0734917"><ele>236.8</ele><time>2026-04-04T09:07:33.012Z</time></trkpt><trkpt lat="43.645115" lon="11.0733567"><ele>236.2</ele><time>2026-04-04T09:07:35.013Z</time></trkpt><trkpt lat="43.6450917" lon="11.0731983"><ele>235.6</ele><time>2026-04-04T09:07:37.015Z</time></trkpt><trkpt lat="43.64508" lon="11.0730983"><ele>235.0</ele><time>2026-04-04T09:07:38.015Z</time></trkpt><trkpt lat="43.645065" lon="11.07298"><ele>234.6</ele><time>2026-04-04T09:07:39.014Z</time></trkpt><trkpt lat="43.6450467" lon="11.0728483"><ele>234.2</ele><time>2026-04-04T09:07:40.013Z</time></trkpt><trkpt lat="43.6450267" lon="11.07271"><ele>233.8</ele><time>2026-04-04T09:07:41.014Z</time></trkpt><trkpt lat="43.6450133" lon="11.0725717"><ele>233.4</ele><time>2026-04-04T09:07:42.013Z</time></trkpt><trkpt lat="43.6450033" lon="11.072435"><ele>233.0</ele><time>2026-04-04T09:07:43.014Z</time></trkpt><trkpt lat="43.6449917" lon="11.0723033"><ele>232.8</ele><time>2026-04-04T09:07:44.014Z</time></trkpt><trkpt lat="43.6449733" lon="11.0721783"><ele>232.60000000000002</ele><time>2026-04-04T09:07:45.013Z</time></trkpt><trkpt lat="43.6449533" lon="11.0720533"><ele>232.39999999999998</ele><time>2026-04-04T09:07:46.012Z</time></trkpt><trkpt lat="43.6449283" lon="11.0719283"><ele>232.2</ele><time>2026-04-04T09:07:47.013Z</time></trkpt><trkpt lat="43.6448933" lon="11.0718133"><ele>232.0</ele><time>2026-04-04T09:07:48.012Z</time></trkpt><trkpt lat="43.6448483" lon="11.0717067"><ele>231.83333333333331</ele><time>2026-04-04T09:07:49.012Z</time></trkpt><trkpt lat="43.6448033" lon="11.0716"><ele>231.66666666666666</ele><time>2026-04-04T09:07:50.013Z</time></trkpt><trkpt lat="43.6447567" lon="11.071495"><ele>231.5</ele><time>2026-04-04T09:07:51.013Z</time></trkpt><trkpt lat="43.6447033" lon="11.0713983"><ele>231.33333333333331</ele><time>2026-04-04T09:07:52.013Z</time></trkpt><trkpt lat="43.6446567" lon="11.0713083"><ele>231.16666666666666</ele><time>2026-04-04T09:07:53.011Z</time></trkpt><trkpt lat="43.6446133" lon="11.0712317"><ele>231.0</ele><time>2026-04-04T09:07:54.013Z</time></trkpt><trkpt lat="43.6445717" lon="11.071165"><ele>231.0</ele><time>2026-04-04T09:07:55.012Z</time></trkpt><trkpt lat="43.6445" lon="11.0710383"><ele>231.00000000000003</ele><time>2026-04-04T09:07:57.013Z</time></trkpt><trkpt lat="43.644455" lon="11.0708783"><ele>231.00000000000003</ele><time>2026-04-04T09:07:59.013Z</time></trkpt><trkpt lat="43.64446" lon="11.0707817"><ele>231.0</ele><time>2026-04-04T09:08:00.012Z</time></trkpt><trkpt lat="43.64448" lon="11.0706817"><ele>231.0</ele><time>2026-04-04T09:08:01.013Z</time></trkpt><trkpt lat="43.644505" lon="11.0705817"><ele>230.8</ele><time>2026-04-04T09:08:02.013Z</time></trkpt><trkpt lat="43.6445367" lon="11.0704783"><ele>230.60000000000002</ele><time>2026-04-04T09:08:03.014Z</time></trkpt><trkpt lat="43.6445633" lon="11.0703717"><ele>230.4</ele><time>2026-04-04T09:08:04.012Z</time></trkpt><trkpt lat="43.644595" lon="11.070255"><ele>230.2</ele><time>2026-04-04T09:08:05.013Z</time></trkpt><trkpt lat="43.6446233" lon="11.0701317"><ele>230.0</ele><time>2026-04-04T09:08:06.011Z</time></trkpt><trkpt lat="43.644655" lon="11.0699933"><ele>229.6</ele><time>2026-04-04T09:08:07.015Z</time></trkpt><trkpt lat="43.6446867" lon="11.06985"><ele>229.2</ele><time>2026-04-04T09:08:08.013Z</time></trkpt><trkpt lat="43.644715" lon="11.069705"><ele>228.8</ele><time>2026-04-04T09:08:09.013Z</time></trkpt><trkpt lat="43.644735" lon="11.0695617"><ele>228.4</ele><time>2026-04-04T09:08:10.013Z</time></trkpt><trkpt lat="43.6447567" lon="11.06942"><ele>228.0</ele><time>2026-04-04T09:08:11.014Z</time></trkpt><trkpt lat="43.6447783" lon="11.069285"><ele>228.0</ele><time>2026-04-04T09:08:12.012Z</time></trkpt><trkpt lat="43.6447967" lon="11.0691467"><ele>228.0</ele><time>2026-04-04T09:08:13.014Z</time></trkpt><trkpt lat="43.6448233" lon="11.0690017"><ele>228.0</ele><time>2026-04-04T09:08:14.014Z</time></trkpt><trkpt lat="43.6448467" lon="11.06886"><ele>228.0</ele><time>2026-04-04T09:08:15.013Z</time></trkpt><trkpt lat="43.6448717" lon="11.06873"><ele>228.0</ele><time>2026-04-04T09:08:16.011Z</time></trkpt><trkpt lat="43.644905" lon="11.0686083"><ele>228.16666666666666</ele><time>2026-04-04T09:08:17.013Z</time></trkpt><trkpt lat="43.6449333" lon="11.0684967"><ele>228.33333333333331</ele><time>2026-04-04T09:08:18.013Z</time></trkpt><trkpt lat="43.6449667" lon="11.0683883"><ele>228.5</ele><time>2026-04-04T09:08:19.012Z</time></trkpt><trkpt lat="43.6450033" lon="11.0682783"><ele>228.66666666666666</ele><time>2026-04-04T09:08:20.013Z</time></trkpt><trkpt lat="43.64504" lon="11.0681733"><ele>228.83333333333331</ele><time>2026-04-04T09:08:21.012Z</time></trkpt><trkpt lat="43.64508" lon="11.0680633"><ele>229.0</ele><time>2026-04-04T09:08:22.013Z</time></trkpt><trkpt lat="43.6451267" lon="11.0679533"><ele>229.0</ele><time>2026-04-04T09:08:23.012Z</time></trkpt><trkpt lat="43.6451867" lon="11.0678467"><ele>228.99999999999997</ele><time>2026-04-04T09:08:24.013Z</time></trkpt><trkpt lat="43.64525" lon="11.0677417"><ele>228.99999999999997</ele><time>2026-04-04T09:08:25.014Z</time></trkpt><trkpt lat="43.6453117" lon="11.0676317"><ele>229.0</ele><time>2026-04-04T09:08:26.011Z</time></trkpt><trkpt lat="43.6453683" lon="11.0675233"><ele>229.0</ele><time>2026-04-04T09:08:27.012Z</time></trkpt><trkpt lat="43.6454267" lon="11.0674133"><ele>230.0</ele><time>2026-04-04T09:08:28.013Z</time></trkpt><trkpt lat="43.64549" lon="11.0673067"><ele>230.99999999999997</ele><time>2026-04-04T09:08:29.013Z</time></trkpt><trkpt lat="43.6455467" lon="11.0671983"><ele>231.99999999999997</ele><time>2026-04-04T09:08:30.012Z</time></trkpt><trkpt lat="43.6455983" lon="11.0670967"><ele>233.0</ele><time>2026-04-04T09:08:31.012Z</time></trkpt><trkpt lat="43.6456467" lon="11.0669933"><ele>234.0</ele><time>2026-04-04T09:08:32.013Z</time></trkpt><trkpt lat="43.645695" lon="11.0668883"><ele>234.0</ele><time>2026-04-04T09:08:33.012Z</time></trkpt><trkpt lat="43.64574" lon="11.0667817"><ele>233.99999999999997</ele><time>2026-04-04T09:08:34.012Z</time></trkpt><trkpt lat="43.6457817" lon="11.0666767"><ele>233.99999999999997</ele><time>2026-04-04T09:08:35.012Z</time></trkpt><trkpt lat="43.6458183" lon="11.0665633"><ele>234.0</ele><time>2026-04-04T09:08:36.012Z</time></trkpt><trkpt lat="43.6458433" lon="11.0664367"><ele>234.0</ele><time>2026-04-04T09:08:37.012Z</time></trkpt><trkpt lat="43.6458717" lon="11.0663"><ele>234.0</ele><time>2026-04-04T09:08:38.012Z</time></trkpt><trkpt lat="43.6458983" lon="11.0661533"><ele>233.99999999999997</ele><time>2026-04-04T09:08:39.013Z</time></trkpt><trkpt lat="43.64592" lon="11.066005"><ele>233.99999999999997</ele><time>2026-04-04T09:08:40.011Z</time></trkpt><trkpt lat="43.6459367" lon="11.0658617"><ele>234.0</ele><time>2026-04-04T09:08:41.011Z</time></trkpt><trkpt lat="43.6459433" lon="11.0657167"><ele>234.0</ele><time>2026-04-04T09:08:42.012Z</time></trkpt><trkpt lat="43.6459467" lon="11.06557"><ele>233.79999999999998</ele><time>2026-04-04T09:08:43.012Z</time></trkpt><trkpt lat="43.6459383" lon="11.0654317"><ele>233.59999999999997</ele><time>2026-04-04T09:08:44.011Z</time></trkpt><trkpt lat="43.645935" lon="11.0652933"><ele>233.4</ele><time>2026-04-04T09:08:45.013Z</time></trkpt><trkpt lat="43.64593" lon="11.06515"><ele>233.2</ele><time>2026-04-04T09:08:46.011Z</time></trkpt><trkpt lat="43.6459233" lon="11.06499"><ele>233.0</ele><time>2026-04-04T09:08:47.013Z</time></trkpt><trkpt lat="43.6459117" lon="11.06481"><ele>232.75</ele><time>2026-04-04T09:08:48.011Z</time></trkpt><trkpt lat="43.6459067" lon="11.0646117"><ele>232.5</ele><time>2026-04-04T09:08:49.012Z</time></trkpt><trkpt lat="43.645905" lon="11.0644033"><ele>232.25</ele><time>2026-04-04T09:08:50.012Z</time></trkpt><trkpt lat="43.64591" lon="11.064195"><ele>232.0</ele><time>2026-04-04T09:08:51.013Z</time></trkpt><trkpt lat="43.6459217" lon="11.0639817"><ele>230.66666666666666</ele><time>2026-04-04T09:08:52.012Z</time></trkpt><trkpt lat="43.6459417" lon="11.06377"><ele>229.33333333333331</ele><time>2026-04-04T09:08:53.012Z</time></trkpt><trkpt lat="43.6459667" lon="11.0635617"><ele>228.0</ele><time>2026-04-04T09:08:54.012Z</time></trkpt><trkpt lat="43.6459933" lon="11.063365"><ele>226.75</ele><time>2026-04-04T09:08:55.013Z</time></trkpt><trkpt lat="43.6460167" lon="11.0631833"><ele>225.5</ele><time>2026-04-04T09:08:56.013Z</time></trkpt><trkpt lat="43.6460267" lon="11.06302"><ele>224.25</ele><time>2026-04-04T09:08:57.013Z</time></trkpt><trkpt lat="43.646045" lon="11.0628617"><ele>223.0</ele><time>2026-04-04T09:08:58.012Z</time></trkpt><trkpt lat="43.646065" lon="11.0627067"><ele>223.0</ele><time>2026-04-04T09:08:59.013Z</time></trkpt><trkpt lat="43.6460717" lon="11.0625517"><ele>223.0</ele><time>2026-04-04T09:09:00.012Z</time></trkpt><trkpt lat="43.646065" lon="11.0623967"><ele>223.0</ele><time>2026-04-04T09:09:01.012Z</time></trkpt><trkpt lat="43.6460433" lon="11.0622383"><ele>223.0</ele><time>2026-04-04T09:09:02.013Z</time></trkpt><trkpt lat="43.646005" lon="11.0620767"><ele>224.0</ele><time>2026-04-04T09:09:03.014Z</time></trkpt><trkpt lat="43.6459483" lon="11.0618967"><ele>225.0</ele><time>2026-04-04T09:09:04.012Z</time></trkpt><trkpt lat="43.6458883" lon="11.0617033"><ele>226.0</ele><time>2026-04-04T09:09:05.011Z</time></trkpt><trkpt lat="43.6458333" lon="11.061505"><ele>227.0</ele><time>2026-04-04T09:09:06.012Z</time></trkpt><trkpt lat="43.6457783" lon="11.0613067"><ele>227.25</ele><time>2026-04-04T09:09:07.013Z</time></trkpt><trkpt lat="43.64573" lon="11.0611167"><ele>227.5</ele><time>2026-04-04T09:09:08.013Z</time></trkpt><trkpt lat="43.6456833" lon="11.06094"><ele>227.75</ele><time>2026-04-04T09:09:09.013Z</time></trkpt><trkpt lat="43.6456333" lon="11.0607583"><ele>228.0</ele><time>2026-04-04T09:09:10.013Z</time></trkpt><trkpt lat="43.6455767" lon="11.060575"><ele>227.0</ele><time>2026-04-04T09:09:11.014Z</time></trkpt><trkpt lat="43.645515" lon="11.0603867"><ele>226.0</ele><time>2026-04-04T09:09:12.013Z</time></trkpt><trkpt lat="43.6454517" lon="11.0601917"><ele>225.0</ele><time>2026-04-04T09:09:13.013Z</time></trkpt><trkpt lat="43.645385" lon="11.0599917"><ele>224.66666666666669</ele><time>2026-04-04T09:09:14.014Z</time></trkpt><trkpt lat="43.6453117" lon="11.0597867"><ele>224.33333333333334</ele><time>2026-04-04T09:09:15.013Z</time></trkpt><trkpt lat="43.64523" lon="11.0595783"><ele>224.0</ele><time>2026-04-04T09:09:16.011Z</time></trkpt><trkpt lat="43.6451433" lon="11.0593633"><ele>224.0</ele><time>2026-04-04T09:09:17.013Z</time></trkpt><trkpt lat="43.645055" lon="11.05914"><ele>224.0</ele><time>2026-04-04T09:09:18.012Z</time></trkpt><trkpt lat="43.6449633" lon="11.0589083"><ele>224.0</ele><time>2026-04-04T09:09:19.013Z</time></trkpt><trkpt lat="43.644875" lon="11.0586633"><ele>221.33333333333334</ele><time>2026-04-04T09:09:20.013Z</time></trkpt><trkpt lat="43.6447883" lon="11.058415"><ele>218.66666666666669</ele><time>2026-04-04T09:09:21.013Z</time></trkpt><trkpt lat="43.6447033" lon="11.0581617"><ele>216.0</ele><time>2026-04-04T09:09:22.011Z</time></trkpt><trkpt lat="43.6446267" lon="11.0578967"><ele>215.66666666666669</ele><time>2026-04-04T09:09:23.013Z</time></trkpt><trkpt lat="43.6445517" lon="11.0576283"><ele>215.33333333333334</ele><time>2026-04-04T09:09:24.014Z</time></trkpt><trkpt lat="43.64448" lon="11.0573533"><ele>215.0</ele><time>2026-04-04T09:09:25.013Z</time></trkpt><trkpt lat="43.6444083" lon="11.0570917"><ele>215.0</ele><time>2026-04-04T09:09:26.011Z</time></trkpt><trkpt lat="43.6443433" lon="11.05684"><ele>215.0</ele><time>2026-04-04T09:09:27.013Z</time></trkpt><trkpt lat="43.6442833" lon="11.0566"><ele>215.0</ele><time>2026-04-04T09:09:28.014Z</time></trkpt><trkpt lat="43.6442283" lon="11.05637"><ele>212.66666666666669</ele><time>2026-04-04T09:09:29.013Z</time></trkpt><trkpt lat="43.6441783" lon="11.0561533"><ele>210.33333333333331</ele><time>2026-04-04T09:09:30.012Z</time></trkpt><trkpt lat="43.64413" lon="11.0559517"><ele>208.0</ele><time>2026-04-04T09:09:31.012Z</time></trkpt><trkpt lat="43.6440867" lon="11.05575"><ele>206.33333333333331</ele><time>2026-04-04T09:09:32.013Z</time></trkpt><trkpt lat="43.6440583" lon="11.05553"><ele>204.66666666666669</ele><time>2026-04-04T09:09:33.013Z</time></trkpt><trkpt lat="43.6440533" lon="11.055285"><ele>203.0</ele><time>2026-04-04T09:09:34.013Z</time></trkpt><trkpt lat="43.64407" lon="11.05502"><ele>201.66666666666669</ele><time>2026-04-04T09:09:35.012Z</time></trkpt><trkpt lat="43.6441033" lon="11.05474"><ele>200.33333333333331</ele><time>2026-04-04T09:09:36.012Z</time></trkpt><trkpt lat="43.6441483" lon="11.0544567"><ele>199.0</ele><time>2026-04-04T09:09:37.012Z</time></trkpt><trkpt lat="43.6442033" lon="11.0541733"><ele>199.66666666666666</ele><time>2026-04-04T09:09:38.012Z</time></trkpt><trkpt lat="43.6442367" lon="11.0538883"><ele>200.33333333333331</ele><time>2026-04-04T09:09:39.013Z</time></trkpt><trkpt lat="43.6442517" lon="11.053595"><ele>201.0</ele><time>2026-04-04T09:09:40.012Z</time></trkpt><trkpt lat="43.6442333" lon="11.0533067"><ele>203.33333333333331</ele><time>2026-04-04T09:09:41.013Z</time></trkpt><trkpt lat="43.6441883" lon="11.053025"><ele>205.66666666666666</ele><time>2026-04-04T09:09:42.014Z</time></trkpt><trkpt lat="43.64412" lon="11.0527667"><ele>208.0</ele><time>2026-04-04T09:09:43.01Z</time></trkpt><trkpt lat="43.644065" lon="11.0525183"><ele>208.66666666666666</ele><time>2026-04-04T09:09:44.013Z</time></trkpt><trkpt lat="43.6440217" lon="11.052275"><ele>209.33333333333331</ele><time>2026-04-04T09:09:45.013Z</time></trkpt><trkpt lat="43.6439883" lon="11.05204"><ele>210.0</ele><time>2026-04-04T09:09:46.012Z</time></trkpt><trkpt lat="43.6439633" lon="11.0518133"><ele>210.33333333333331</ele><time>2026-04-04T09:09:47.013Z</time></trkpt><trkpt lat="43.6439483" lon="11.0515983"><ele>210.66666666666666</ele><time>2026-04-04T09:09:48.012Z</time></trkpt><trkpt lat="43.643925" lon="11.0513983"><ele>211.0</ele><time>2026-04-04T09:09:49.012Z</time></trkpt><trkpt lat="43.6438733" lon="11.0512083"><ele>211.0</ele><time>2026-04-04T09:09:50.011Z</time></trkpt><trkpt lat="43.6438033" lon="11.0510367"><ele>211.0</ele><time>2026-04-04T09:09:51.011Z</time></trkpt><trkpt lat="43.6437233" lon="11.0508767"><ele>211.0</ele><time>2026-04-04T09:09:52.013Z</time></trkpt><trkpt lat="43.6436483" lon="11.0507283"><ele>211.0</ele><time>2026-04-04T09:09:53.014Z</time></trkpt><trkpt lat="43.64359" lon="11.0505683"><ele>209.0</ele><time>2026-04-04T09:09:54.012Z</time></trkpt><trkpt lat="43.6435533" lon="11.0503933"><ele>207.0</ele><time>2026-04-04T09:09:55.011Z</time></trkpt><trkpt lat="43.6435333" lon="11.0502083"><ele>205.0</ele><time>2026-04-04T09:09:56.012Z</time></trkpt><trkpt lat="43.6435183" lon="11.0500217"><ele>203.0</ele><time>2026-04-04T09:09:57.013Z</time></trkpt><trkpt lat="43.6435133" lon="11.0498367"><ele>203.0</ele><time>2026-04-04T09:09:58.012Z</time></trkpt><trkpt lat="43.6435117" lon="11.0496617"><ele>203.0</ele><time>2026-04-04T09:09:59.012Z</time></trkpt><trkpt lat="43.64352" lon="11.04949"><ele>203.0</ele><time>2026-04-04T09:10:00.013Z</time></trkpt><trkpt lat="43.6435433" lon="11.0493167"><ele>203.0</ele><time>2026-04-04T09:10:01.011Z</time></trkpt><trkpt lat="43.6435783" lon="11.0491383"><ele>202.25</ele><time>2026-04-04T09:10:02.012Z</time></trkpt><trkpt lat="43.6436183" lon="11.0489633"><ele>201.5</ele><time>2026-04-04T09:10:03.013Z</time></trkpt><trkpt lat="43.6436633" lon="11.0487967"><ele>200.75</ele><time>2026-04-04T09:10:04.013Z</time></trkpt><trkpt lat="43.6437117" lon="11.0486383"><ele>200.0</ele><time>2026-04-04T09:10:05.013Z</time></trkpt><trkpt lat="43.6437617" lon="11.0484817"><ele>200.5</ele><time>2026-04-04T09:10:06.012Z</time></trkpt><trkpt lat="43.6438133" lon="11.048325"><ele>201.0</ele><time>2026-04-04T09:10:07.011Z</time></trkpt><trkpt lat="43.643865" lon="11.048175"><ele>201.5</ele><time>2026-04-04T09:10:08.013Z</time></trkpt><trkpt lat="43.64392" lon="11.0480283"><ele>202.0</ele><time>2026-04-04T09:10:09.013Z</time></trkpt><trkpt lat="43.6439733" lon="11.0478867"><ele>202.0</ele><time>2026-04-04T09:10:10.011Z</time></trkpt><trkpt lat="43.6440283" lon="11.0477467"><ele>202.0</ele><time>2026-04-04T09:10:11.014Z</time></trkpt><trkpt lat="43.64408" lon="11.04761"><ele>202.0</ele><time>2026-04-04T09:10:12.011Z</time></trkpt><trkpt lat="43.6441333" lon="11.0474783"><ele>202.0</ele><time>2026-04-04T09:10:13.011Z</time></trkpt><trkpt lat="43.6441767" lon="11.047345"><ele>202.0</ele><time>2026-04-04T09:10:14.01Z</time></trkpt><trkpt lat="43.6442067" lon="11.04721"><ele>201.0</ele><time>2026-04-04T09:10:15.012Z</time></trkpt><trkpt lat="43.6442383" lon="11.0470667"><ele>200.0</ele><time>2026-04-04T09:10:16.01Z</time></trkpt><trkpt lat="43.644265" lon="11.0469133"><ele>199.0</ele><time>2026-04-04T09:10:17.014Z</time></trkpt><trkpt lat="43.6442833" lon="11.0467567"><ele>198.0</ele><time>2026-04-04T09:10:18.013Z</time></trkpt><trkpt lat="43.6443033" lon="11.046605"><ele>197.0</ele><time>2026-04-04T09:10:19.013Z</time></trkpt><trkpt lat="43.6443217" lon="11.046465"><ele>195.8</ele><time>2026-04-04T09:10:20.012Z</time></trkpt><trkpt lat="43.6443433" lon="11.04633"><ele>194.6</ele><time>2026-04-04T09:10:21.013Z</time></trkpt><trkpt lat="43.6443683" lon="11.046195"><ele>193.4</ele><time>2026-04-04T09:10:22.014Z</time></trkpt><trkpt lat="43.6443983" lon="11.0460517"><ele>192.20000000000002</ele><time>2026-04-04T09:10:23.011Z</time></trkpt><trkpt lat="43.6444367" lon="11.045895"><ele>191.0</ele><time>2026-04-04T09:10:24.013Z</time></trkpt><trkpt lat="43.64449" lon="11.045725"><ele>191.0</ele><time>2026-04-04T09:10:25.012Z</time></trkpt><trkpt lat="43.644555" lon="11.0455433"><ele>191.0</ele><time>2026-04-04T09:10:26.014Z</time></trkpt><trkpt lat="43.644625" lon="11.0453533"><ele>191.0</ele><time>2026-04-04T09:10:27.014Z</time></trkpt><trkpt lat="43.644695" lon="11.04515"><ele>191.33333333333331</ele><time>2026-04-04T09:10:28.014Z</time></trkpt><trkpt lat="43.6447533" lon="11.04492"><ele>191.66666666666666</ele><time>2026-04-04T09:10:29.011Z</time></trkpt><trkpt lat="43.644785" lon="11.0446783"><ele>192.0</ele><time>2026-04-04T09:10:30.012Z</time></trkpt><trkpt lat="43.64481" lon="11.044435"><ele>192.0</ele><time>2026-04-04T09:10:31.012Z</time></trkpt><trkpt lat="43.64484" lon="11.0441917"><ele>192.0</ele><time>2026-04-04T09:10:32.012Z</time></trkpt><trkpt lat="43.6448767" lon="11.043945"><ele>192.0</ele><time>2026-04-04T09:10:33.013Z</time></trkpt><trkpt lat="43.6449083" lon="11.043695"><ele>192.33333333333331</ele><time>2026-04-04T09:10:34.013Z</time></trkpt><trkpt lat="43.6449267" lon="11.0434467"><ele>192.66666666666666</ele><time>2026-04-04T09:10:35.012Z</time></trkpt><trkpt lat="43.644935" lon="11.0432"><ele>193.0</ele><time>2026-04-04T09:10:36.011Z</time></trkpt><trkpt lat="43.64494" lon="11.0429567"><ele>193.0</ele><time>2026-04-04T09:10:37.012Z</time></trkpt><trkpt lat="43.64495" lon="11.0427183"><ele>193.0</ele><time>2026-04-04T09:10:38.012Z</time></trkpt><trkpt lat="43.6449683" lon="11.0424883"><ele>193.0</ele><time>2026-04-04T09:10:39.013Z</time></trkpt><trkpt lat="43.6449917" lon="11.04226"><ele>193.0</ele><time>2026-04-04T09:10:40.012Z</time></trkpt><trkpt lat="43.6450183" lon="11.0420383"><ele>193.0</ele><time>2026-04-04T09:10:41.012Z</time></trkpt><trkpt lat="43.6450367" lon="11.0418233"><ele>193.0</ele><time>2026-04-04T09:10:42.014Z</time></trkpt><trkpt lat="43.6450533" lon="11.0416167"><ele>192.0</ele><time>2026-04-04T09:10:43.012Z</time></trkpt><trkpt lat="43.6450533" lon="11.0414217"><ele>191.0</ele><time>2026-04-04T09:10:44.013Z</time></trkpt><trkpt lat="43.6450267" lon="11.0412417"><ele>190.0</ele><time>2026-04-04T09:10:45.013Z</time></trkpt><trkpt lat="43.64497" lon="11.0410733"><ele>189.0</ele><time>2026-04-04T09:10:46.011Z</time></trkpt><trkpt lat="43.6448733" lon="11.0409167"><ele>187.33333333333334</ele><time>2026-04-04T09:10:47.012Z</time></trkpt><trkpt lat="43.644745" lon="11.0407767"><ele>185.66666666666669</ele><time>2026-04-04T09:10:48.013Z</time></trkpt><trkpt lat="43.6445933" lon="11.0406417"><ele>184.0</ele><time>2026-04-04T09:10:49.014Z</time></trkpt><trkpt lat="43.644435" lon="11.0404967"><ele>184.0</ele><time>2026-04-04T09:10:50.013Z</time></trkpt><trkpt lat="43.6442817" lon="11.040355"><ele>184.0</ele><time>2026-04-04T09:10:51.015Z</time></trkpt><trkpt lat="43.644135" lon="11.0402183"><ele>184.0</ele><time>2026-04-04T09:10:52.012Z</time></trkpt><trkpt lat="43.643995" lon="11.0400833"><ele>183.33333333333334</ele><time>2026-04-04T09:10:53.01Z</time></trkpt><trkpt lat="43.643875" lon="11.039935"><ele>182.66666666666666</ele><time>2026-04-04T09:10:54.01Z</time></trkpt><trkpt lat="43.6437717" lon="11.03977"><ele>182.0</ele><time>2026-04-04T09:10:55.01Z</time></trkpt><trkpt lat="43.6436883" lon="11.0395867"><ele>182.0</ele><time>2026-04-04T09:10:56.01Z</time></trkpt><trkpt lat="43.6436333" lon="11.039395"><ele>182.0</ele><time>2026-04-04T09:10:57.01Z</time></trkpt><trkpt lat="43.643595" lon="11.0392"><ele>182.0</ele><time>2026-04-04T09:10:58.01Z</time></trkpt><trkpt lat="43.6435617" lon="11.0390033"><ele>182.0</ele><time>2026-04-04T09:10:59.01Z</time></trkpt><trkpt lat="43.6435233" lon="11.0388083"><ele>182.33333333333331</ele><time>2026-04-04T09:11:00.01Z</time></trkpt><trkpt lat="43.6434717" lon="11.0386033"><ele>182.66666666666666</ele><time>2026-04-04T09:11:01.01Z</time></trkpt><trkpt lat="43.6433967" lon="11.0383767"><ele>183.0</ele><time>2026-04-04T09:11:02.012Z</time></trkpt><trkpt lat="43.6432983" lon="11.038125"><ele>183.0</ele><time>2026-04-04T09:11:03.012Z</time></trkpt><trkpt lat="43.6431817" lon="11.0378567"><ele>183.0</ele><time>2026-04-04T09:11:04.013Z</time></trkpt><trkpt lat="43.6430533" lon="11.03759"><ele>185.5</ele><time>2026-04-04T09:11:05.012Z</time></trkpt><trkpt lat="43.6429217" lon="11.0373217"><ele>188.0</ele><time>2026-04-04T09:11:06.012Z</time></trkpt><trkpt lat="43.6427917" lon="11.0370533"><ele>188.0</ele><time>2026-04-04T09:11:07.014Z</time></trkpt><trkpt lat="43.6426667" lon="11.0367883"><ele>188.0</ele><time>2026-04-04T09:11:08.013Z</time></trkpt><trkpt lat="43.64255" lon="11.0365267"><ele>188.33333333333331</ele><time>2026-04-04T09:11:09.013Z</time></trkpt><trkpt lat="43.6424383" lon="11.0362717"><ele>188.66666666666666</ele><time>2026-04-04T09:11:10.012Z</time></trkpt><trkpt lat="43.6423267" lon="11.03602"><ele>189.0</ele><time>2026-04-04T09:11:11.013Z</time></trkpt><trkpt lat="43.6422167" lon="11.0357767"><ele>189.0</ele><time>2026-04-04T09:11:12.012Z</time></trkpt><trkpt lat="43.6421067" lon="11.0355433"><ele>189.0</ele><time>2026-04-04T09:11:13.012Z</time></trkpt><trkpt lat="43.6419983" lon="11.0353167"><ele>189.0</ele><time>2026-04-04T09:11:14.014Z</time></trkpt><trkpt lat="43.6418883" lon="11.0350883"><ele>188.33333333333334</ele><time>2026-04-04T09:11:15.011Z</time></trkpt><trkpt lat="43.64178" lon="11.0348717"><ele>187.66666666666669</ele><time>2026-04-04T09:11:16.013Z</time></trkpt><trkpt lat="43.6416733" lon="11.0346517"><ele>187.0</ele><time>2026-04-04T09:11:17.013Z</time></trkpt><trkpt lat="43.6415683" lon="11.0344333"><ele>187.0</ele><time>2026-04-04T09:11:18.013Z</time></trkpt><trkpt lat="43.6414667" lon="11.034215"><ele>187.0</ele><time>2026-04-04T09:11:19.013Z</time></trkpt><trkpt lat="43.6413733" lon="11.03399"><ele>187.0</ele><time>2026-04-04T09:11:20.013Z</time></trkpt><trkpt lat="43.641285" lon="11.0337667"><ele>185.66666666666669</ele><time>2026-04-04T09:11:21.012Z</time></trkpt><trkpt lat="43.6411967" lon="11.0335483"><ele>184.33333333333334</ele><time>2026-04-04T09:11:22.013Z</time></trkpt><trkpt lat="43.6411117" lon="11.0333283"><ele>183.0</ele><time>2026-04-04T09:11:23.014Z</time></trkpt><trkpt lat="43.6410233" lon="11.03311"><ele>182.0</ele><time>2026-04-04T09:11:24.012Z</time></trkpt><trkpt lat="43.64094" lon="11.03289"><ele>181.0</ele><time>2026-04-04T09:11:25.014Z</time></trkpt><trkpt lat="43.640855" lon="11.0326733"><ele>180.0</ele><time>2026-04-04T09:11:26.011Z</time></trkpt><trkpt lat="43.6407717" lon="11.032455"><ele>179.0</ele><time>2026-04-04T09:11:27.013Z</time></trkpt><trkpt lat="43.6406867" lon="11.03224"><ele>178.0</ele><time>2026-04-04T09:11:28.013Z</time></trkpt><trkpt lat="43.6406017" lon="11.0320233"><ele>177.0</ele><time>2026-04-04T09:11:29.013Z</time></trkpt><trkpt lat="43.640515" lon="11.031805"><ele>175.0</ele><time>2026-04-04T09:11:30.013Z</time></trkpt><trkpt lat="43.64043" lon="11.031585"><ele>173.0</ele><time>2026-04-04T09:11:31.013Z</time></trkpt><trkpt lat="43.6403417" lon="11.031365"><ele>171.0</ele><time>2026-04-04T09:11:32.011Z</time></trkpt><trkpt lat="43.640255" lon="11.0311433"><ele>169.33333333333334</ele><time>2026-04-04T09:11:33.013Z</time></trkpt><trkpt lat="43.6401667" lon="11.030925"><ele>167.66666666666669</ele><time>2026-04-04T09:11:34.014Z</time></trkpt><trkpt lat="43.6400767" lon="11.0307067"><ele>166.0</ele><time>2026-04-04T09:11:35.012Z</time></trkpt><trkpt lat="43.6399867" lon="11.0304883"><ele>163.0</ele><time>2026-04-04T09:11:36.013Z</time></trkpt><trkpt lat="43.6398983" lon="11.0302683"><ele>160.0</ele><time>2026-04-04T09:11:37.012Z</time></trkpt><trkpt lat="43.639815" lon="11.0300483"><ele>157.0</ele><time>2026-04-04T09:11:38.012Z</time></trkpt><trkpt lat="43.63973" lon="11.0298317"><ele>155.66666666666669</ele><time>2026-04-04T09:11:39.014Z</time></trkpt><trkpt lat="43.63965" lon="11.0296217"><ele>154.33333333333334</ele><time>2026-04-04T09:11:40.013Z</time></trkpt><trkpt lat="43.6395733" lon="11.0294183"><ele>153.0</ele><time>2026-04-04T09:11:41.013Z</time></trkpt><trkpt lat="43.6395" lon="11.0292183"><ele>153.25</ele><time>2026-04-04T09:11:42.013Z</time></trkpt><trkpt lat="43.6394283" lon="11.02903"><ele>153.5</ele><time>2026-04-04T09:11:43.013Z</time></trkpt><trkpt lat="43.6393617" lon="11.0288483"><ele>153.75</ele><time>2026-04-04T09:11:44.013Z</time></trkpt><trkpt lat="43.6392967" lon="11.0286783"><ele>154.0</ele><time>2026-04-04T09:11:45.013Z</time></trkpt><trkpt lat="43.63924" lon="11.0285117"><ele>154.0</ele><time>2026-04-04T09:11:46.012Z</time></trkpt><trkpt lat="43.6391867" lon="11.028365"><ele>154.0</ele><time>2026-04-04T09:11:47.013Z</time></trkpt><trkpt lat="43.6391433" lon="11.0282267"><ele>154.0</ele><time>2026-04-04T09:11:48.013Z</time></trkpt><trkpt lat="43.6391167" lon="11.0280833"><ele>154.0</ele><time>2026-04-04T09:11:49.011Z</time></trkpt><trkpt lat="43.63911" lon="11.0279417"><ele>154.0</ele><time>2026-04-04T09:11:50.012Z</time></trkpt><trkpt lat="43.639115" lon="11.027805"><ele>153.0</ele><time>2026-04-04T09:11:51.013Z</time></trkpt><trkpt lat="43.639105" lon="11.02769"><ele>152.0</ele><time>2026-04-04T09:11:52.013Z</time></trkpt><trkpt lat="43.6390733" lon="11.0275933"><ele>151.0</ele><time>2026-04-04T09:11:53.012Z</time></trkpt><trkpt lat="43.6390117" lon="11.0275183"><ele>150.0</ele><time>2026-04-04T09:11:54.012Z</time></trkpt><trkpt lat="43.63892" lon="11.02745"><ele>149.0</ele><time>2026-04-04T09:11:55.012Z</time></trkpt><trkpt lat="43.6388117" lon="11.0273367"><ele>148.0</ele><time>2026-04-04T09:11:56.014Z</time></trkpt><trkpt lat="43.6387133" lon="11.0271867"><ele>147.0</ele><time>2026-04-04T09:11:57.013Z</time></trkpt><trkpt lat="43.63862" lon="11.0270167"><ele>146.0</ele><time>2026-04-04T09:11:58.012Z</time></trkpt><trkpt lat="43.638525" lon="11.0268383"><ele>146.0</ele><time>2026-04-04T09:11:59.013Z</time></trkpt><trkpt lat="43.6384283" lon="11.02665"><ele>146.0</ele><time>2026-04-04T09:12:00.012Z</time></trkpt><trkpt lat="43.6383333" lon="11.026455"><ele>146.0</ele><time>2026-04-04T09:12:01.012Z</time></trkpt><trkpt lat="43.6382283" lon="11.0262717"><ele>144.66666666666666</ele><time>2026-04-04T09:12:02.013Z</time></trkpt><trkpt lat="43.63813" lon="11.0260883"><ele>143.33333333333334</ele><time>2026-04-04T09:12:03.013Z</time></trkpt><trkpt lat="43.638035" lon="11.0259"><ele>142.0</ele><time>2026-04-04T09:12:04.013Z</time></trkpt><trkpt lat="43.6379383" lon="11.0257117"><ele>143.0</ele><time>2026-04-04T09:12:05.013Z</time></trkpt><trkpt lat="43.6378433" lon="11.0255233"><ele>144.0</ele><time>2026-04-04T09:12:06.01Z</time></trkpt><trkpt lat="43.63775" lon="11.0253333"><ele>145.0</ele><time>2026-04-04T09:12:07.013Z</time></trkpt><trkpt lat="43.6376567" lon="11.0251483"><ele>145.33333333333334</ele><time>2026-04-04T09:12:08.012Z</time></trkpt><trkpt lat="43.637565" lon="11.02497"><ele>145.66666666666666</ele><time>2026-04-04T09:12:09.013Z</time></trkpt><trkpt lat="43.6374683" lon="11.024795"><ele>146.0</ele><time>2026-04-04T09:12:10.011Z</time></trkpt><trkpt lat="43.637365" lon="11.0246317"><ele>146.0</ele><time>2026-04-04T09:12:11.012Z</time></trkpt><trkpt lat="43.6372433" lon="11.0244917"><ele>146.0</ele><time>2026-04-04T09:12:12.011Z</time></trkpt><trkpt lat="43.6371117" lon="11.0243817"><ele>146.0</ele><time>2026-04-04T09:12:13.013Z</time></trkpt><trkpt lat="43.6369817" lon="11.024295"><ele>145.5</ele><time>2026-04-04T09:12:14.013Z</time></trkpt><trkpt lat="43.6368583" lon="11.0242217"><ele>145.0</ele><time>2026-04-04T09:12:15.012Z</time></trkpt><trkpt lat="43.6367433" lon="11.02416"><ele>144.5</ele><time>2026-04-04T09:12:16.012Z</time></trkpt><trkpt lat="43.63663" lon="11.0240967"><ele>144.0</ele><time>2026-04-04T09:12:17.011Z</time></trkpt><trkpt lat="43.636515" lon="11.0240267"><ele>144.0</ele><time>2026-04-04T09:12:18.012Z</time></trkpt><trkpt lat="43.6364017" lon="11.0239433"><ele>144.0</ele><time>2026-04-04T09:12:19.012Z</time></trkpt><trkpt lat="43.636295" lon="11.0238367"><ele>144.0</ele><time>2026-04-04T09:12:20.013Z</time></trkpt><trkpt lat="43.6361883" lon="11.023725"><ele>144.0</ele><time>2026-04-04T09:12:21.013Z</time></trkpt><trkpt lat="43.6360817" lon="11.0236067"><ele>144.0</ele><time>2026-04-04T09:12:22.013Z</time></trkpt><trkpt lat="43.635975" lon="11.02348"><ele>144.0</ele><time>2026-04-04T09:12:23.012Z</time></trkpt><trkpt lat="43.6358667" lon="11.0233517"><ele>144.0</ele><time>2026-04-04T09:12:24.013Z</time></trkpt><trkpt lat="43.6357617" lon="11.02322"><ele>144.0</ele><time>2026-04-04T09:12:25.012Z</time></trkpt><trkpt lat="43.635665" lon="11.0230717"><ele>144.0</ele><time>2026-04-04T09:12:26.012Z</time></trkpt><trkpt lat="43.6355733" lon="11.0229067"><ele>144.0</ele><time>2026-04-04T09:12:27.013Z</time></trkpt><trkpt lat="43.6354867" lon="11.0227317"><ele>144.0</ele><time>2026-04-04T09:12:28.012Z</time></trkpt><trkpt lat="43.6354" lon="11.0225483"><ele>143.33333333333334</ele><time>2026-04-04T09:12:29.011Z</time></trkpt><trkpt lat="43.63532" lon="11.02236"><ele>142.66666666666669</ele><time>2026-04-04T09:12:30.011Z</time></trkpt><trkpt lat="43.6352483" lon="11.02216"><ele>142.0</ele><time>2026-04-04T09:12:31.013Z</time></trkpt><trkpt lat="43.6351917" lon="11.021955"><ele>144.66666666666669</ele><time>2026-04-04T09:12:32.012Z</time></trkpt><trkpt lat="43.6351583" lon="11.021745"><ele>147.33333333333334</ele><time>2026-04-04T09:12:33.012Z</time></trkpt><trkpt lat="43.6351417" lon="11.021525"><ele>150.0</ele><time>2026-04-04T09:12:34.012Z</time></trkpt><trkpt lat="43.6351317" lon="11.021305"><ele>152.0</ele><time>2026-04-04T09:12:35.011Z</time></trkpt><trkpt lat="43.6351283" lon="11.0210833"><ele>154.0</ele><time>2026-04-04T09:12:36.012Z</time></trkpt><trkpt lat="43.63512" lon="11.020865"><ele>156.0</ele><time>2026-04-04T09:12:37.011Z</time></trkpt><trkpt lat="43.6351117" lon="11.0206483"><ele>157.25</ele><time>2026-04-04T09:12:38.011Z</time></trkpt><trkpt lat="43.6351083" lon="11.0204367"><ele>158.5</ele><time>2026-04-04T09:12:39.012Z</time></trkpt><trkpt lat="43.6351033" lon="11.02023"><ele>159.75</ele><time>2026-04-04T09:12:40.01Z</time></trkpt><trkpt lat="43.6350983" lon="11.0200283"><ele>161.0</ele><time>2026-04-04T09:12:41.013Z</time></trkpt><trkpt lat="43.6350917" lon="11.019835"><ele>161.25</ele><time>2026-04-04T09:12:42.013Z</time></trkpt><trkpt lat="43.6350833" lon="11.019645"><ele>161.5</ele><time>2026-04-04T09:12:43.011Z</time></trkpt><trkpt lat="43.63507" lon="11.0194567"><ele>161.75</ele><time>2026-04-04T09:12:44.012Z</time></trkpt><trkpt lat="43.63506" lon="11.0192667"><ele>162.0</ele><time>2026-04-04T09:12:45.012Z</time></trkpt><trkpt lat="43.6350633" lon="11.0190733"><ele>162.0</ele><time>2026-04-04T09:12:46.012Z</time></trkpt><trkpt lat="43.6350783" lon="11.018885"><ele>162.0</ele><time>2026-04-04T09:12:47.01Z</time></trkpt><trkpt lat="43.6350917" lon="11.01871"><ele>162.0</ele><time>2026-04-04T09:12:48.012Z</time></trkpt><trkpt lat="43.6351083" lon="11.0185433"><ele>162.0</ele><time>2026-04-04T09:12:49.012Z</time></trkpt><trkpt lat="43.6351233" lon="11.0183867"><ele>161.5</ele><time>2026-04-04T09:12:50.012Z</time></trkpt><trkpt lat="43.63514" lon="11.018225"><ele>161.0</ele><time>2026-04-04T09:12:51.012Z</time></trkpt><trkpt lat="43.6351517" lon="11.0180567"><ele>160.5</ele><time>2026-04-04T09:12:52.012Z</time></trkpt><trkpt lat="43.63516" lon="11.017875"><ele>160.0</ele><time>2026-04-04T09:12:53.012Z</time></trkpt><trkpt lat="43.6351567" lon="11.017685"><ele>159.0</ele><time>2026-04-04T09:12:54.011Z</time></trkpt><trkpt lat="43.635165" lon="11.017485"><ele>158.0</ele><time>2026-04-04T09:12:55.012Z</time></trkpt><trkpt lat="43.635195" lon="11.0172733"><ele>157.0</ele><time>2026-04-04T09:12:56.012Z</time></trkpt><trkpt lat="43.63525" lon="11.017065"><ele>157.66666666666669</ele><time>2026-04-04T09:12:57.012Z</time></trkpt><trkpt lat="43.63533" lon="11.0168717"><ele>158.33333333333334</ele><time>2026-04-04T09:12:58.01Z</time></trkpt><trkpt lat="43.6354367" lon="11.01669"><ele>159.0</ele><time>2026-04-04T09:12:59.013Z</time></trkpt><trkpt lat="43.635555" lon="11.01652"><ele>160.33333333333334</ele><time>2026-04-04T09:13:00.012Z</time></trkpt><trkpt lat="43.635685" lon="11.01637"><ele>161.66666666666669</ele><time>2026-04-04T09:13:01.011Z</time></trkpt><trkpt lat="43.6358267" lon="11.0162383"><ele>163.0</ele><time>2026-04-04T09:13:02.012Z</time></trkpt><trkpt lat="43.6359783" lon="11.0161183"><ele>163.0</ele><time>2026-04-04T09:13:03.012Z</time></trkpt><trkpt lat="43.636125" lon="11.015995"><ele>163.0</ele><time>2026-04-04T09:13:04.012Z</time></trkpt><trkpt lat="43.6362683" lon="11.01587"><ele>163.0</ele><time>2026-04-04T09:13:05.012Z</time></trkpt><trkpt lat="43.6363983" lon="11.0157267"><ele>160.0</ele><time>2026-04-04T09:13:06.013Z</time></trkpt><trkpt lat="43.636495" lon="11.015505"><ele>157.0</ele><time>2026-04-04T09:13:07.011Z</time></trkpt><trkpt lat="43.63659" lon="11.0152517"><ele>154.0</ele><time>2026-04-04T09:13:08.013Z</time></trkpt><trkpt lat="43.6366983" lon="11.0150083"><ele>152.33333333333334</ele><time>2026-04-04T09:13:09.012Z</time></trkpt><trkpt lat="43.6368367" lon="11.014805"><ele>150.66666666666666</ele><time>2026-04-04T09:13:10.011Z</time></trkpt><trkpt lat="43.6369967" lon="11.0146467"><ele>149.0</ele><time>2026-04-04T09:13:11.013Z</time></trkpt><trkpt lat="43.6371817" lon="11.01453"><ele>148.66666666666666</ele><time>2026-04-04T09:13:12.013Z</time></trkpt><trkpt lat="43.6373883" lon="11.0144517"><ele>148.33333333333334</ele><time>2026-04-04T09:13:13.011Z</time></trkpt><trkpt lat="43.6376017" lon="11.01439"><ele>148.0</ele><time>2026-04-04T09:13:14.009Z</time></trkpt><trkpt lat="43.63782" lon="11.0143317"><ele>149.66666666666669</ele><time>2026-04-04T09:13:15.012Z</time></trkpt><trkpt lat="43.63803" lon="11.0142583"><ele>151.33333333333334</ele><time>2026-04-04T09:13:16.011Z</time></trkpt><trkpt lat="43.6382267" lon="11.0141617"><ele>153.0</ele><time>2026-04-04T09:13:17.009Z</time></trkpt><trkpt lat="43.638405" lon="11.0140233"><ele>153.0</ele><time>2026-04-04T09:13:18.01Z</time></trkpt><trkpt lat="43.6385633" lon="11.0138433"><ele>153.0</ele><time>2026-04-04T09:13:19.011Z</time></trkpt><trkpt lat="43.6386917" lon="11.0136283"><ele>153.0</ele><time>2026-04-04T09:13:20.01Z</time></trkpt><trkpt lat="43.6387767" lon="11.0133733"><ele>158.0</ele><time>2026-04-04T09:13:21.012Z</time></trkpt><trkpt lat="43.638825" lon="11.0131083"><ele>163.0</ele><time>2026-04-04T09:13:22.011Z</time></trkpt><trkpt lat="43.6388417" lon="11.0128367"><ele>168.0</ele><time>2026-04-04T09:13:23.01Z</time></trkpt><trkpt lat="43.6388317" lon="11.0125567"><ele>167.66666666666666</ele><time>2026-04-04T09:13:24.01Z</time></trkpt><trkpt lat="43.6388233" lon="11.01227"><ele>167.33333333333331</ele><time>2026-04-04T09:13:25.009Z</time></trkpt><trkpt lat="43.6388133" lon="11.011975"><ele>167.0</ele><time>2026-04-04T09:13:26.012Z</time></trkpt><trkpt lat="43.6388067" lon="11.011675"><ele>166.66666666666666</ele><time>2026-04-04T09:13:27.012Z</time></trkpt><trkpt lat="43.6387967" lon="11.01137"><ele>166.33333333333334</ele><time>2026-04-04T09:13:28.012Z</time></trkpt><trkpt lat="43.6387817" lon="11.011065"><ele>166.0</ele><time>2026-04-04T09:13:29.011Z</time></trkpt><trkpt lat="43.6387367" lon="11.010775"><ele>166.0</ele><time>2026-04-04T09:13:30.011Z</time></trkpt><trkpt lat="43.6386683" lon="11.010505"><ele>166.0</ele><time>2026-04-04T09:13:31.012Z</time></trkpt><trkpt lat="43.6385783" lon="11.0102617"><ele>166.0</ele><time>2026-04-04T09:13:32.011Z</time></trkpt><trkpt lat="43.6384633" lon="11.01004"><ele>162.33333333333334</ele><time>2026-04-04T09:13:33.011Z</time></trkpt><trkpt lat="43.6383217" lon="11.0098383"><ele>158.66666666666666</ele><time>2026-04-04T09:13:34.013Z</time></trkpt><trkpt lat="43.63816" lon="11.0096517"><ele>155.0</ele><time>2026-04-04T09:13:35.013Z</time></trkpt><trkpt lat="43.6379917" lon="11.0094733"><ele>155.0</ele><time>2026-04-04T09:13:36.011Z</time></trkpt><trkpt lat="43.6378167" lon="11.0092983"><ele>155.0</ele><time>2026-04-04T09:13:37.011Z</time></trkpt><trkpt lat="43.6376417" lon="11.00911"><ele>155.0</ele><time>2026-04-04T09:13:38.012Z</time></trkpt><trkpt lat="43.63746" lon="11.00892"><ele>147.5</ele><time>2026-04-04T09:13:39.012Z</time></trkpt><trkpt lat="43.63728" lon="11.0087283"><ele>140.0</ele><time>2026-04-04T09:13:40.01Z</time></trkpt><trkpt lat="43.6371" lon="11.0085317"><ele>140.33333333333331</ele><time>2026-04-04T09:13:41.011Z</time></trkpt><trkpt lat="43.636925" lon="11.0083367"><ele>140.66666666666666</ele><time>2026-04-04T09:13:42.014Z</time></trkpt><trkpt lat="43.6367583" lon="11.0081317"><ele>141.0</ele><time>2026-04-04T09:13:43.011Z</time></trkpt><trkpt lat="43.6366" lon="11.0079233"><ele>141.0</ele><time>2026-04-04T09:13:44.011Z</time></trkpt><trkpt lat="43.63645" lon="11.0077067"><ele>141.0</ele><time>2026-04-04T09:13:45.011Z</time></trkpt><trkpt lat="43.6363117" lon="11.0074783"><ele>141.0</ele><time>2026-04-04T09:13:46.012Z</time></trkpt><trkpt lat="43.63618" lon="11.00725"><ele>143.66666666666666</ele><time>2026-04-04T09:13:47.011Z</time></trkpt><trkpt lat="43.636055" lon="11.007025"><ele>146.33333333333331</ele><time>2026-04-04T09:13:48.012Z</time></trkpt><trkpt lat="43.63593" lon="11.0068"><ele>149.0</ele><time>2026-04-04T09:13:49.011Z</time></trkpt><trkpt lat="43.6358033" lon="11.00659"><ele>149.33333333333331</ele><time>2026-04-04T09:13:50.011Z</time></trkpt><trkpt lat="43.6356583" lon="11.0064117"><ele>149.66666666666666</ele><time>2026-04-04T09:13:51.012Z</time></trkpt><trkpt lat="43.6355067" lon="11.00625"><ele>150.0</ele><time>2026-04-04T09:13:52.011Z</time></trkpt><trkpt lat="43.63534" lon="11.0061133"><ele>154.33333333333334</ele><time>2026-04-04T09:13:53.012Z</time></trkpt><trkpt lat="43.635165" lon="11.006005"><ele>158.66666666666669</ele><time>2026-04-04T09:13:54.011Z</time></trkpt><trkpt lat="43.6349833" lon="11.00592"><ele>163.0</ele><time>2026-04-04T09:13:55.011Z</time></trkpt><trkpt lat="43.6348" lon="11.005855"><ele>161.33333333333334</ele><time>2026-04-04T09:13:56.012Z</time></trkpt><trkpt lat="43.63462" lon="11.005815"><ele>159.66666666666666</ele><time>2026-04-04T09:13:57.012Z</time></trkpt><trkpt lat="43.634435" lon="11.0057833"><ele>158.0</ele><time>2026-04-04T09:13:58.012Z</time></trkpt><trkpt lat="43.63425" lon="11.0057267"><ele>162.0</ele><time>2026-04-04T09:13:59.012Z</time></trkpt><trkpt lat="43.6340767" lon="11.00562"><ele>166.0</ele><time>2026-04-04T09:14:00.011Z</time></trkpt><trkpt lat="43.633915" lon="11.0054833"><ele>170.0</ele><time>2026-04-04T09:14:01.012Z</time></trkpt><trkpt lat="43.633775" lon="11.0053083"><ele>170.0</ele><time>2026-04-04T09:14:02.011Z</time></trkpt><trkpt lat="43.63366" lon="11.0050933"><ele>170.0</ele><time>2026-04-04T09:14:03.012Z</time></trkpt><trkpt lat="43.63357" lon="11.0048517"><ele>170.0</ele><time>2026-04-04T09:14:04.013Z</time></trkpt><trkpt lat="43.6335067" lon="11.0046"><ele>168.66666666666666</ele><time>2026-04-04T09:14:05.012Z</time></trkpt><trkpt lat="43.633485" lon="11.0043433"><ele>167.33333333333334</ele><time>2026-04-04T09:14:06.011Z</time></trkpt><trkpt lat="43.633495" lon="11.00408"><ele>166.0</ele><time>2026-04-04T09:14:07.012Z</time></trkpt><trkpt lat="43.6335117" lon="11.0038317"><ele>165.33333333333334</ele><time>2026-04-04T09:14:08.012Z</time></trkpt><trkpt lat="43.633515" lon="11.003585"><ele>164.66666666666666</ele><time>2026-04-04T09:14:09.013Z</time></trkpt><trkpt lat="43.6334983" lon="11.0033367"><ele>164.0</ele><time>2026-04-04T09:14:10.01Z</time></trkpt><trkpt lat="43.6334583" lon="11.0030767"><ele>163.66666666666666</ele><time>2026-04-04T09:14:11.012Z</time></trkpt><trkpt lat="43.6333717" lon="11.0028267"><ele>163.33333333333334</ele><time>2026-04-04T09:14:12.012Z</time></trkpt><trkpt lat="43.6332467" lon="11.0025833"><ele>163.0</ele><time>2026-04-04T09:14:13.012Z</time></trkpt><trkpt lat="43.6330967" lon="11.00234"><ele>164.5</ele><time>2026-04-04T09:14:14.011Z</time></trkpt><trkpt lat="43.6329317" lon="11.0020833"><ele>166.0</ele><time>2026-04-04T09:14:15.013Z</time></trkpt><trkpt lat="43.6327667" lon="11.00181"><ele>160.5</ele><time>2026-04-04T09:14:16.012Z</time></trkpt><trkpt lat="43.6326017" lon="11.0015233"><ele>155.0</ele><time>2026-04-04T09:14:17.01Z</time></trkpt><trkpt lat="43.6324383" lon="11.00123"><ele>155.0</ele><time>2026-04-04T09:14:18.012Z</time></trkpt><trkpt lat="43.6322767" lon="11.00094"><ele>155.0</ele><time>2026-04-04T09:14:19.012Z</time></trkpt><trkpt lat="43.632125" lon="11.00065"><ele>153.0</ele><time>2026-04-04T09:14:20.011Z</time></trkpt><trkpt lat="43.6319783" lon="11.00036"><ele>151.0</ele><time>2026-04-04T09:14:21.012Z</time></trkpt><trkpt lat="43.6318317" lon="11.0000783"><ele>149.0</ele><time>2026-04-04T09:14:22.011Z</time></trkpt><trkpt lat="43.6316883" lon="10.999805"><ele>147.0</ele><time>2026-04-04T09:14:23.012Z</time></trkpt><trkpt lat="43.6315533" lon="10.999545"><ele>147.0</ele><time>2026-04-04T09:14:24.013Z</time></trkpt><trkpt lat="43.6314383" lon="10.9992867"><ele>147.0</ele><time>2026-04-04T09:14:25.011Z</time></trkpt><trkpt lat="43.63134" lon="10.9990283"><ele>147.0</ele><time>2026-04-04T09:14:26.012Z</time></trkpt><trkpt lat="43.63125" lon="10.9987733"><ele>147.66666666666666</ele><time>2026-04-04T09:14:27.011Z</time></trkpt><trkpt lat="43.631165" lon="10.9985133"><ele>148.33333333333331</ele><time>2026-04-04T09:14:28.012Z</time></trkpt><trkpt lat="43.6310783" lon="10.9982533"><ele>149.0</ele><time>2026-04-04T09:14:29.012Z</time></trkpt><trkpt lat="43.630995" lon="10.9979883"><ele>147.33333333333331</ele><time>2026-04-04T09:14:30.011Z</time></trkpt><trkpt lat="43.6309067" lon="10.9977283"><ele>145.66666666666666</ele><time>2026-04-04T09:14:31.013Z</time></trkpt><trkpt lat="43.630815" lon="10.9974683"><ele>144.0</ele><time>2026-04-04T09:14:32.01Z</time></trkpt><trkpt lat="43.6307083" lon="10.9972117"><ele>143.66666666666666</ele><time>2026-04-04T09:14:33.013Z</time></trkpt><trkpt lat="43.6305767" lon="10.99698"><ele>143.33333333333331</ele><time>2026-04-04T09:14:34.011Z</time></trkpt><trkpt lat="43.630425" lon="10.9967717"><ele>143.0</ele><time>2026-04-04T09:14:35.012Z</time></trkpt><trkpt lat="43.6302683" lon="10.9965833"><ele>142.33333333333331</ele><time>2026-04-04T09:14:36.01Z</time></trkpt><trkpt lat="43.6301133" lon="10.996385"><ele>141.66666666666666</ele><time>2026-04-04T09:14:37.012Z</time></trkpt><trkpt lat="43.6299583" lon="10.9961933"><ele>141.0</ele><time>2026-04-04T09:14:38.012Z</time></trkpt><trkpt lat="43.6298" lon="10.9959983"><ele>142.0</ele><time>2026-04-04T09:14:39.013Z</time></trkpt><trkpt lat="43.6296467" lon="10.9958017"><ele>143.0</ele><time>2026-04-04T09:14:40.01Z</time></trkpt><trkpt lat="43.6294933" lon="10.995605"><ele>144.0</ele><time>2026-04-04T09:14:41.012Z</time></trkpt><trkpt lat="43.6293467" lon="10.995395"><ele>144.0</ele><time>2026-04-04T09:14:42.011Z</time></trkpt><trkpt lat="43.6292067" lon="10.9951883"><ele>144.0</ele><time>2026-04-04T09:14:43.012Z</time></trkpt><trkpt lat="43.6290767" lon="10.99497"><ele>144.0</ele><time>2026-04-04T09:14:44.012Z</time></trkpt><trkpt lat="43.628955" lon="10.99474"><ele>144.33333333333334</ele><time>2026-04-04T09:14:45.011Z</time></trkpt><trkpt lat="43.628835" lon="10.9945033"><ele>144.66666666666669</ele><time>2026-04-04T09:14:46.011Z</time></trkpt><trkpt lat="43.6287117" lon="10.994265"><ele>145.0</ele><time>2026-04-04T09:14:47.011Z</time></trkpt><trkpt lat="43.6285967" lon="10.99402"><ele>143.33333333333334</ele><time>2026-04-04T09:14:48.01Z</time></trkpt><trkpt lat="43.6284983" lon="10.9937617"><ele>141.66666666666666</ele><time>2026-04-04T09:14:49.012Z</time></trkpt><trkpt lat="43.6284183" lon="10.9934867"><ele>140.0</ele><time>2026-04-04T09:14:50.011Z</time></trkpt><trkpt lat="43.6283517" lon="10.993205"><ele>140.0</ele><time>2026-04-04T09:14:51.012Z</time></trkpt><trkpt lat="43.628295" lon="10.99292"><ele>140.0</ele><time>2026-04-04T09:14:52.009Z</time></trkpt><trkpt lat="43.6282433" lon="10.9926367"><ele>140.0</ele><time>2026-04-04T09:14:53.012Z</time></trkpt><trkpt lat="43.6281967" lon="10.9923533"><ele>139.33333333333331</ele><time>2026-04-04T09:14:54.011Z</time></trkpt><trkpt lat="43.6281467" lon="10.992065"><ele>138.66666666666666</ele><time>2026-04-04T09:14:55.011Z</time></trkpt><trkpt lat="43.6281" lon="10.9917717"><ele>138.0</ele><time>2026-04-04T09:14:56.011Z</time></trkpt><trkpt lat="43.6280517" lon="10.99151"><ele>137.33333333333334</ele><time>2026-04-04T09:14:57.012Z</time></trkpt><trkpt lat="43.6279933" lon="10.99126"><ele>136.66666666666669</ele><time>2026-04-04T09:14:58.012Z</time></trkpt><trkpt lat="43.6279083" lon="10.9910267"><ele>136.0</ele><time>2026-04-04T09:14:59.012Z</time></trkpt><trkpt lat="43.6277933" lon="10.990815"><ele>134.0</ele><time>2026-04-04T09:15:00.01Z</time></trkpt><trkpt lat="43.6276467" lon="10.9906367"><ele>132.0</ele><time>2026-04-04T09:15:01.012Z</time></trkpt><trkpt lat="43.62748" lon="10.9904883"><ele>130.0</ele><time>2026-04-04T09:15:02.012Z</time></trkpt><trkpt lat="43.62731" lon="10.990355"><ele>130.0</ele><time>2026-04-04T09:15:03.013Z</time></trkpt><trkpt lat="43.6271517" lon="10.9902283"><ele>130.0</ele><time>2026-04-04T09:15:04.012Z</time></trkpt><trkpt lat="43.6269967" lon="10.9901067"><ele>130.0</ele><time>2026-04-04T09:15:05.012Z</time></trkpt><trkpt lat="43.626845" lon="10.9900033"><ele>128.33333333333334</ele><time>2026-04-04T09:15:06.012Z</time></trkpt><trkpt lat="43.6266917" lon="10.9899183"><ele>126.66666666666666</ele><time>2026-04-04T09:15:07.011Z</time></trkpt><trkpt lat="43.6265233" lon="10.98988"><ele>125.0</ele><time>2026-04-04T09:15:08.012Z</time></trkpt><trkpt lat="43.6263417" lon="10.98988"><ele>125.0</ele><time>2026-04-04T09:15:09.014Z</time></trkpt><trkpt lat="43.6261467" lon="10.9898967"><ele>125.0</ele><time>2026-04-04T09:15:10.011Z</time></trkpt><trkpt lat="43.6259383" lon="10.989915"><ele>125.0</ele><time>2026-04-04T09:15:11.014Z</time></trkpt><trkpt lat="43.6257233" lon="10.9899283"><ele>124.0</ele><time>2026-04-04T09:15:12.012Z</time></trkpt><trkpt lat="43.6255033" lon="10.9899383"><ele>123.0</ele><time>2026-04-04T09:15:13.011Z</time></trkpt><trkpt lat="43.6252883" lon="10.989935"><ele>122.0</ele><time>2026-04-04T09:15:14.011Z</time></trkpt><trkpt lat="43.6250833" lon="10.9899017"><ele>122.0</ele><time>2026-04-04T09:15:15.011Z</time></trkpt><trkpt lat="43.6248883" lon="10.9898267"><ele>122.0</ele><time>2026-04-04T09:15:16.012Z</time></trkpt><trkpt lat="43.6246967" lon="10.9897283"><ele>122.0</ele><time>2026-04-04T09:15:17.011Z</time></trkpt><trkpt lat="43.6245117" lon="10.9895917"><ele>119.66666666666666</ele><time>2026-04-04T09:15:18.011Z</time></trkpt><trkpt lat="43.6243367" lon="10.989425"><ele>117.33333333333334</ele><time>2026-04-04T09:15:19.01Z</time></trkpt><trkpt lat="43.62417" lon="10.9892367"><ele>115.0</ele><time>2026-04-04T09:15:20.012Z</time></trkpt><trkpt lat="43.6240133" lon="10.98903"><ele>115.0</ele><time>2026-04-04T09:15:21.014Z</time></trkpt><trkpt lat="43.62386" lon="10.9888183"><ele>115.0</ele><time>2026-04-04T09:15:22.012Z</time></trkpt><trkpt lat="43.623695" lon="10.9886417"><ele>115.0</ele><time>2026-04-04T09:15:23.012Z</time></trkpt><trkpt lat="43.623515" lon="10.988525"><ele>114.66666666666667</ele><time>2026-04-04T09:15:24.011Z</time></trkpt><trkpt lat="43.6233233" lon="10.988455"><ele>114.33333333333334</ele><time>2026-04-04T09:15:25.012Z</time></trkpt><trkpt lat="43.623125" lon="10.988425"><ele>114.0</ele><time>2026-04-04T09:15:26.013Z</time></trkpt><trkpt lat="43.6229233" lon="10.988405"><ele>116.33333333333334</ele><time>2026-04-04T09:15:27.012Z</time></trkpt><trkpt lat="43.62272" lon="10.988395"><ele>118.66666666666667</ele><time>2026-04-04T09:15:28.013Z</time></trkpt><trkpt lat="43.6225133" lon="10.9883733"><ele>121.0</ele><time>2026-04-04T09:15:29.012Z</time></trkpt><trkpt lat="43.622305" lon="10.98835"><ele>120.66666666666667</ele><time>2026-04-04T09:15:30.011Z</time></trkpt><trkpt lat="43.622095" lon="10.9883333"><ele>120.33333333333334</ele><time>2026-04-04T09:15:31.012Z</time></trkpt><trkpt lat="43.6218833" lon="10.9883217"><ele>120.0</ele><time>2026-04-04T09:15:32.012Z</time></trkpt><trkpt lat="43.6216717" lon="10.9883"><ele>120.0</ele><time>2026-04-04T09:15:33.012Z</time></trkpt><trkpt lat="43.62146" lon="10.9882583"><ele>120.0</ele><time>2026-04-04T09:15:34.011Z</time></trkpt><trkpt lat="43.6212533" lon="10.9881767"><ele>120.0</ele><time>2026-04-04T09:15:35.012Z</time></trkpt><trkpt lat="43.6210583" lon="10.98805"><ele>120.66666666666666</ele><time>2026-04-04T09:15:36.01Z</time></trkpt><trkpt lat="43.620875" lon="10.9878817"><ele>121.33333333333333</ele><time>2026-04-04T09:15:37.011Z</time></trkpt><trkpt lat="43.6207083" lon="10.9876717"><ele>122.0</ele><time>2026-04-04T09:15:38.011Z</time></trkpt><trkpt lat="43.6205483" lon="10.98744"><ele>122.0</ele><time>2026-04-04T09:15:39.012Z</time></trkpt><trkpt lat="43.620395" lon="10.987195"><ele>122.0</ele><time>2026-04-04T09:15:40.011Z</time></trkpt><trkpt lat="43.6202383" lon="10.98695"><ele>122.5</ele><time>2026-04-04T09:15:41.012Z</time></trkpt><trkpt lat="43.6200817" lon="10.986705"><ele>123.0</ele><time>2026-04-04T09:15:42.011Z</time></trkpt><trkpt lat="43.6199317" lon="10.9864717"><ele>122.0</ele><time>2026-04-04T09:15:43.011Z</time></trkpt><trkpt lat="43.6197883" lon="10.9862533"><ele>121.0</ele><time>2026-04-04T09:15:44.012Z</time></trkpt><trkpt lat="43.6196533" lon="10.9860583"><ele>120.0</ele><time>2026-04-04T09:15:45.012Z</time></trkpt><trkpt lat="43.6195183" lon="10.98589"><ele>119.5</ele><time>2026-04-04T09:15:46.011Z</time></trkpt><trkpt lat="43.619385" lon="10.9857533"><ele>119.0</ele><time>2026-04-04T09:15:47.01Z</time></trkpt><trkpt lat="43.6192633" lon="10.9856383"><ele>118.5</ele><time>2026-04-04T09:15:48.01Z</time></trkpt><trkpt lat="43.61915" lon="10.9855433"><ele>118.0</ele><time>2026-04-04T09:15:49.011Z</time></trkpt><trkpt lat="43.6190483" lon="10.9854567"><ele>118.00000000000001</ele><time>2026-04-04T09:15:50.012Z</time></trkpt><trkpt lat="43.6189633" lon="10.9853817"><ele>118.0</ele><time>2026-04-04T09:15:51.014Z</time></trkpt><trkpt lat="43.61889" lon="10.98532"><ele>118.0</ele><time>2026-04-04T09:15:52.011Z</time></trkpt><trkpt lat="43.6188283" lon="10.985265"><ele>118.0</ele><time>2026-04-04T09:15:53.012Z</time></trkpt><trkpt lat="43.6187283" lon="10.985185"><ele>118.00000000000001</ele><time>2026-04-04T09:15:55.011Z</time></trkpt><trkpt lat="43.6186633" lon="10.9851433"><ele>118.0</ele><time>2026-04-04T09:15:57.012Z</time></trkpt><trkpt lat="43.61858" lon="10.9850733"><ele>119.0</ele><time>2026-04-04T09:17:02.012Z</time></trkpt><trkpt lat="43.6184983" lon="10.9850083"><ele>120.00000000000001</ele><time>2026-04-04T09:17:03.011Z</time></trkpt><trkpt lat="43.61841" lon="10.9849383"><ele>121.00000000000001</ele><time>2026-04-04T09:17:04.011Z</time></trkpt><trkpt lat="43.618305" lon="10.9848683"><ele>122.0</ele><time>2026-04-04T09:17:05.011Z</time></trkpt><trkpt lat="43.6181867" lon="10.9848067"><ele>123.0</ele><time>2026-04-04T09:17:06.012Z</time></trkpt><trkpt lat="43.6180533" lon="10.98475"><ele>123.0</ele><time>2026-04-04T09:17:07.012Z</time></trkpt><trkpt lat="43.61791" lon="10.9846933"><ele>123.0</ele><time>2026-04-04T09:17:08.013Z</time></trkpt><trkpt lat="43.6177533" lon="10.9846383"><ele>123.0</ele><time>2026-04-04T09:17:09.011Z</time></trkpt><trkpt lat="43.6175883" lon="10.984585"><ele>123.33333333333334</ele><time>2026-04-04T09:17:10.01Z</time></trkpt><trkpt lat="43.617415" lon="10.9845283"><ele>123.66666666666667</ele><time>2026-04-04T09:17:11.012Z</time></trkpt><trkpt lat="43.617235" lon="10.98446"><ele>124.0</ele><time>2026-04-04T09:17:12.011Z</time></trkpt><trkpt lat="43.6170517" lon="10.9843717"><ele>123.0</ele><time>2026-04-04T09:17:13.011Z</time></trkpt><trkpt lat="43.6168683" lon="10.984275"><ele>122.0</ele><time>2026-04-04T09:17:14.012Z</time></trkpt><trkpt lat="43.61669" lon="10.9841667"><ele>121.0</ele><time>2026-04-04T09:17:15.011Z</time></trkpt><trkpt lat="43.6165133" lon="10.9840583"><ele>124.66666666666667</ele><time>2026-04-04T09:17:16.011Z</time></trkpt><trkpt lat="43.6163317" lon="10.98393"><ele>128.33333333333334</ele><time>2026-04-04T09:17:17.012Z</time></trkpt><trkpt lat="43.61615" lon="10.9838017"><ele>132.0</ele><time>2026-04-04T09:17:18.013Z</time></trkpt><trkpt lat="43.6159683" lon="10.983665"><ele>132.0</ele><time>2026-04-04T09:17:19.011Z</time></trkpt><trkpt lat="43.6157917" lon="10.9835217"><ele>132.0</ele><time>2026-04-04T09:17:20.011Z</time></trkpt><trkpt lat="43.615635" lon="10.98336"><ele>132.0</ele><time>2026-04-04T09:17:21.013Z</time></trkpt><trkpt lat="43.6155067" lon="10.9831717"><ele>133.0</ele><time>2026-04-04T09:17:22.013Z</time></trkpt><trkpt lat="43.6153967" lon="10.9829617"><ele>134.0</ele><time>2026-04-04T09:17:23.012Z</time></trkpt><trkpt lat="43.6153067" lon="10.9827233"><ele>135.0</ele><time>2026-04-04T09:17:24.011Z</time></trkpt><trkpt lat="43.61524" lon="10.9824667"><ele>135.33333333333334</ele><time>2026-04-04T09:17:25.012Z</time></trkpt><trkpt lat="43.6152" lon="10.9821967"><ele>135.66666666666669</ele><time>2026-04-04T09:17:26.011Z</time></trkpt><trkpt lat="43.61518" lon="10.9819267"><ele>136.0</ele><time>2026-04-04T09:17:27.011Z</time></trkpt><trkpt lat="43.61517" lon="10.9816617"><ele>135.33333333333334</ele><time>2026-04-04T09:17:28.011Z</time></trkpt><trkpt lat="43.6151433" lon="10.9814117"><ele>134.66666666666666</ele><time>2026-04-04T09:17:29.013Z</time></trkpt><trkpt lat="43.6150933" lon="10.98118"><ele>134.0</ele><time>2026-04-04T09:17:30.011Z</time></trkpt><trkpt lat="43.6150167" lon="10.9809583"><ele>131.66666666666666</ele><time>2026-04-04T09:17:31.011Z</time></trkpt><trkpt lat="43.61492" lon="10.980745"><ele>129.33333333333334</ele><time>2026-04-04T09:17:32.011Z</time></trkpt><trkpt lat="43.6148" lon="10.9805483"><ele>127.0</ele><time>2026-04-04T09:17:33.011Z</time></trkpt><trkpt lat="43.6146617" lon="10.9803633"><ele>127.0</ele><time>2026-04-04T09:17:34.011Z</time></trkpt><trkpt lat="43.6145083" lon="10.9801933"><ele>127.0</ele><time>2026-04-04T09:17:35.011Z</time></trkpt><trkpt lat="43.6143517" lon="10.9800217"><ele>127.0</ele><time>2026-04-04T09:17:36.012Z</time></trkpt><trkpt lat="43.6141917" lon="10.9798433"><ele>124.33333333333334</ele><time>2026-04-04T09:17:37.011Z</time></trkpt><trkpt lat="43.6140317" lon="10.979665"><ele>121.66666666666666</ele><time>2026-04-04T09:17:38.011Z</time></trkpt><trkpt lat="43.6138667" lon="10.9794917"><ele>119.0</ele><time>2026-04-04T09:17:39.012Z</time></trkpt><trkpt lat="43.6137033" lon="10.9793133"><ele>118.66666666666666</ele><time>2026-04-04T09:17:40.012Z</time></trkpt><trkpt lat="43.6135417" lon="10.979135"><ele>118.33333333333334</ele><time>2026-04-04T09:17:41.011Z</time></trkpt><trkpt lat="43.6133883" lon="10.9789483"><ele>118.0</ele><time>2026-04-04T09:17:42.013Z</time></trkpt><trkpt lat="43.613255" lon="10.9787417"><ele>118.0</ele><time>2026-04-04T09:17:43.012Z</time></trkpt><trkpt lat="43.6131483" lon="10.9785233"><ele>118.0</ele><time>2026-04-04T09:17:44.012Z</time></trkpt><trkpt lat="43.6130617" lon="10.9783067"><ele>118.0</ele><time>2026-04-04T09:17:45.013Z</time></trkpt><trkpt lat="43.6129833" lon="10.9780967"><ele>117.0</ele><time>2026-04-04T09:17:46.01Z</time></trkpt><trkpt lat="43.6129067" lon="10.97789"><ele>116.0</ele><time>2026-04-04T09:17:47.012Z</time></trkpt><trkpt lat="43.6128217" lon="10.9776833"><ele>115.0</ele><time>2026-04-04T09:17:48.012Z</time></trkpt><trkpt lat="43.6127367" lon="10.9774767"><ele>117.0</ele><time>2026-04-04T09:17:49.014Z</time></trkpt><trkpt lat="43.6126483" lon="10.97726"><ele>119.0</ele><time>2026-04-04T09:17:50.012Z</time></trkpt><trkpt lat="43.6125533" lon="10.977045"><ele>121.0</ele><time>2026-04-04T09:17:51.012Z</time></trkpt><trkpt lat="43.6124467" lon="10.9768383"><ele>120.33333333333334</ele><time>2026-04-04T09:17:52.012Z</time></trkpt><trkpt lat="43.6123267" lon="10.97663"><ele>119.66666666666666</ele><time>2026-04-04T09:17:53.012Z</time></trkpt><trkpt lat="43.6121917" lon="10.9764283"><ele>119.0</ele><time>2026-04-04T09:17:54.012Z</time></trkpt><trkpt lat="43.6120433" lon="10.97624"><ele>118.33333333333333</ele><time>2026-04-04T09:17:55.011Z</time></trkpt><trkpt lat="43.611885" lon="10.976055"><ele>117.66666666666666</ele><time>2026-04-04T09:17:56.011Z</time></trkpt><trkpt lat="43.611715" lon="10.975895"><ele>117.0</ele><time>2026-04-04T09:17:57.012Z</time></trkpt><trkpt lat="43.611535" lon="10.9757517"><ele>116.0</ele><time>2026-04-04T09:17:58.011Z</time></trkpt><trkpt lat="43.6113483" lon="10.97562"><ele>115.0</ele><time>2026-04-04T09:17:59.012Z</time></trkpt><trkpt lat="43.6111617" lon="10.97549"><ele>114.0</ele><time>2026-04-04T09:18:00.012Z</time></trkpt><trkpt lat="43.61098" lon="10.9753633"><ele>113.33333333333334</ele><time>2026-04-04T09:18:01.013Z</time></trkpt><trkpt lat="43.6108133" lon="10.9752083"><ele>112.66666666666667</ele><time>2026-04-04T09:18:02.012Z</time></trkpt><trkpt lat="43.6106667" lon="10.9750317"><ele>112.0</ele><time>2026-04-04T09:18:03.011Z</time></trkpt><trkpt lat="43.6105383" lon="10.9748483"><ele>112.0</ele><time>2026-04-04T09:18:04.012Z</time></trkpt><trkpt lat="43.6104183" lon="10.9746583"><ele>112.0</ele><time>2026-04-04T09:18:05.014Z</time></trkpt><trkpt lat="43.6102967" lon="10.9744783"><ele>112.0</ele><time>2026-04-04T09:18:06.012Z</time></trkpt><trkpt lat="43.610165" lon="10.9743283"><ele>111.0</ele><time>2026-04-04T09:18:07.01Z</time></trkpt><trkpt lat="43.61003" lon="10.974195"><ele>110.0</ele><time>2026-04-04T09:18:08.014Z</time></trkpt><trkpt lat="43.6098933" lon="10.9740767"><ele>109.0</ele><time>2026-04-04T09:18:09.013Z</time></trkpt><trkpt lat="43.60976" lon="10.9739667"><ele>109.0</ele><time>2026-04-04T09:18:10.012Z</time></trkpt><trkpt lat="43.60963" lon="10.9738683"><ele>109.0</ele><time>2026-04-04T09:18:11.01Z</time></trkpt><trkpt lat="43.6095083" lon="10.973775"><ele>109.0</ele><time>2026-04-04T09:18:12.013Z</time></trkpt><trkpt lat="43.6093983" lon="10.9736883"><ele>109.0</ele><time>2026-04-04T09:18:13.012Z</time></trkpt><trkpt lat="43.6093" lon="10.9736067"><ele>106.6</ele><time>2026-04-04T09:18:14.012Z</time></trkpt><trkpt lat="43.6092183" lon="10.9735283"><ele>104.2</ele><time>2026-04-04T09:18:15.011Z</time></trkpt><trkpt lat="43.6091583" lon="10.9734533"><ele>101.8</ele><time>2026-04-04T09:18:16.011Z</time></trkpt><trkpt lat="43.6091133" lon="10.9733783"><ele>99.39999999999999</ele><time>2026-04-04T09:18:17.011Z</time></trkpt><trkpt lat="43.60905" lon="10.9732483"><ele>97.0</ele><time>2026-04-04T09:18:19.011Z</time></trkpt><trkpt lat="43.60898" lon="10.97316"><ele>97.0</ele><time>2026-04-04T09:18:21.013Z</time></trkpt><trkpt lat="43.60892" lon="10.9731333"><ele>97.0</ele><time>2026-04-04T09:18:22.012Z</time></trkpt><trkpt lat="43.6088133" lon="10.9731117"><ele>97.0</ele><time>2026-04-04T09:18:23.012Z</time></trkpt><trkpt lat="43.6086983" lon="10.9730917"><ele>97.0</ele><time>2026-04-04T09:18:24.011Z</time></trkpt><trkpt lat="43.60858" lon="10.9730583"><ele>97.0</ele><time>2026-04-04T09:18:25.011Z</time></trkpt><trkpt lat="43.608465" lon="10.97302"><ele>96.0</ele><time>2026-04-04T09:18:26.012Z</time></trkpt><trkpt lat="43.6083533" lon="10.9729733"><ele>95.0</ele><time>2026-04-04T09:18:27.01Z</time></trkpt><trkpt lat="43.6082483" lon="10.9729283"><ele>94.0</ele><time>2026-04-04T09:18:28.012Z</time></trkpt><trkpt lat="43.60815" lon="10.9728867"><ele>93.0</ele><time>2026-04-04T09:18:29.012Z</time></trkpt><trkpt lat="43.6080517" lon="10.97285"><ele>92.0</ele><time>2026-04-04T09:18:30.013Z</time></trkpt><trkpt lat="43.6079517" lon="10.9728183"><ele>92.0</ele><time>2026-04-04T09:18:31.014Z</time></trkpt><trkpt lat="43.6078533" lon="10.9728"><ele>92.0</ele><time>2026-04-04T09:18:32.01Z</time></trkpt><trkpt lat="43.607755" lon="10.9728017"><ele>92.0</ele><time>2026-04-04T09:18:33.012Z</time></trkpt><trkpt lat="43.607655" lon="10.9728317"><ele>92.0</ele><time>2026-04-04T09:18:34.012Z</time></trkpt><trkpt lat="43.6075567" lon="10.97289"><ele>92.0</ele><time>2026-04-04T09:18:35.012Z</time></trkpt><trkpt lat="43.60746" lon="10.9729983"><ele>92.0</ele><time>2026-04-04T09:18:36.013Z</time></trkpt><trkpt lat="43.6073733" lon="10.9731483"><ele>92.0</ele><time>2026-04-04T09:18:37.013Z</time></trkpt><trkpt lat="43.607285" lon="10.9733217"><ele>92.0</ele><time>2026-04-04T09:18:38.01Z</time></trkpt><trkpt lat="43.6071833" lon="10.9735067"><ele>89.33333333333334</ele><time>2026-04-04T09:18:39.011Z</time></trkpt><trkpt lat="43.6070733" lon="10.9737217"><ele>86.66666666666667</ele><time>2026-04-04T09:18:40.011Z</time></trkpt><trkpt lat="43.6069667" lon="10.9739517"><ele>84.0</ele><time>2026-04-04T09:18:41.011Z</time></trkpt><trkpt lat="43.6068717" lon="10.9741817"><ele>78.33333333333333</ele><time>2026-04-04T09:18:42.012Z</time></trkpt><trkpt lat="43.606785" lon="10.9744067"><ele>72.66666666666666</ele><time>2026-04-04T09:18:43.011Z</time></trkpt><trkpt lat="43.606715" lon="10.9746317"><ele>67.0</ele><time>2026-04-04T09:18:44.013Z</time></trkpt><trkpt lat="43.6066467" lon="10.9748483"><ele>64.0</ele><time>2026-04-04T09:18:45.013Z</time></trkpt><trkpt lat="43.6065733" lon="10.9750633"><ele>61.0</ele><time>2026-04-04T09:18:46.011Z</time></trkpt><trkpt lat="43.6064883" lon="10.9752733"><ele>58.0</ele><time>2026-04-04T09:18:47.011Z</time></trkpt><trkpt lat="43.6063883" lon="10.97547"><ele>58.0</ele><time>2026-04-04T09:18:48.012Z</time></trkpt><trkpt lat="43.6062683" lon="10.975645"><ele>58.0</ele><time>2026-04-04T09:18:49.011Z</time></trkpt><trkpt lat="43.6061317" lon="10.97579"><ele>58.0</ele><time>2026-04-04T09:18:50.011Z</time></trkpt><trkpt lat="43.6059817" lon="10.9759067"><ele>56.0</ele><time>2026-04-04T09:18:51.013Z</time></trkpt><trkpt lat="43.6058167" lon="10.9759883"><ele>54.0</ele><time>2026-04-04T09:18:52.011Z</time></trkpt><trkpt lat="43.6056383" lon="10.9760317"><ele>52.0</ele><time>2026-04-04T09:18:53.011Z</time></trkpt><trkpt lat="43.6054567" lon="10.9760467"><ele>51.666666666666664</ele><time>2026-04-04T09:18:54.012Z</time></trkpt><trkpt lat="43.60527" lon="10.9760367"><ele>51.33333333333333</ele><time>2026-04-04T09:18:55.012Z</time></trkpt><trkpt lat="43.60508" lon="10.9760067"><ele>51.0</ele><time>2026-04-04T09:18:56.013Z</time></trkpt><trkpt lat="43.604895" lon="10.975965"><ele>51.0</ele><time>2026-04-04T09:18:57.011Z</time></trkpt><trkpt lat="43.60472" lon="10.975925"><ele>51.0</ele><time>2026-04-04T09:18:58.012Z</time></trkpt><trkpt lat="43.6045583" lon="10.9758917"><ele>51.0</ele><time>2026-04-04T09:18:59.012Z</time></trkpt><trkpt lat="43.604405" lon="10.9758583"><ele>51.25</ele><time>2026-04-04T09:19:00.011Z</time></trkpt><trkpt lat="43.6042667" lon="10.975825"><ele>51.5</ele><time>2026-04-04T09:19:01.012Z</time></trkpt><trkpt lat="43.6041417" lon="10.9757933"><ele>51.75</ele><time>2026-04-04T09:19:02.012Z</time></trkpt><trkpt lat="43.6040383" lon="10.97576"><ele>52.0</ele><time>2026-04-04T09:19:03.012Z</time></trkpt><trkpt lat="43.6039517" lon="10.9757283"><ele>51.99999999999999</ele><time>2026-04-04T09:19:04.013Z</time></trkpt><trkpt lat="43.6038817" lon="10.9757067"><ele>52.0</ele><time>2026-04-04T09:19:05.011Z</time></trkpt><trkpt lat="43.6038133" lon="10.975685"><ele>52.0</ele><time>2026-04-04T09:19:06.012Z</time></trkpt><trkpt lat="43.6036983" lon="10.9756467"><ele>52.0</ele><time>2026-04-04T09:19:08.013Z</time></trkpt><trkpt lat="43.603625" lon="10.9756317"><ele>51.99999999999999</ele><time>2026-04-04T09:19:09.012Z</time></trkpt><trkpt lat="43.603535" lon="10.9756083"><ele>52.0</ele><time>2026-04-04T09:19:10.012Z</time></trkpt><trkpt lat="43.603425" lon="10.9755717"><ele>52.0</ele><time>2026-04-04T09:19:11.012Z</time></trkpt><trkpt lat="43.6032983" lon="10.9755317"><ele>52.0</ele><time>2026-04-04T09:19:12.013Z</time></trkpt><trkpt lat="43.603165" lon="10.9754917"><ele>52.0</ele><time>2026-04-04T09:19:13.012Z</time></trkpt><trkpt lat="43.6030217" lon="10.975455"><ele>52.0</ele><time>2026-04-04T09:19:14.011Z</time></trkpt><trkpt lat="43.60287" lon="10.97541"><ele>53.0</ele><time>2026-04-04T09:19:15.014Z</time></trkpt><trkpt lat="43.6027133" lon="10.9753633"><ele>54.0</ele><time>2026-04-04T09:19:16.011Z</time></trkpt><trkpt lat="43.602555" lon="10.9753167"><ele>55.0</ele><time>2026-04-04T09:19:17.011Z</time></trkpt><trkpt lat="43.6023983" lon="10.9752717"><ele>55.0</ele><time>2026-04-04T09:19:18.011Z</time></trkpt><trkpt lat="43.60224" lon="10.97523"><ele>55.0</ele><time>2026-04-04T09:19:19.011Z</time></trkpt><trkpt lat="43.6020767" lon="10.9751867"><ele>55.0</ele><time>2026-04-04T09:19:20.011Z</time></trkpt><trkpt lat="43.6019117" lon="10.9751433"><ele>54.0</ele><time>2026-04-04T09:19:21.013Z</time></trkpt><trkpt lat="43.6017417" lon="10.9750983"><ele>53.0</ele><time>2026-04-04T09:19:22.011Z</time></trkpt><trkpt lat="43.60157" lon="10.9750567"><ele>52.0</ele><time>2026-04-04T09:19:23.011Z</time></trkpt><trkpt lat="43.601395" lon="10.975015"><ele>52.0</ele><time>2026-04-04T09:19:24.012Z</time></trkpt><trkpt lat="43.60122" lon="10.9749717"><ele>52.0</ele><time>2026-04-04T09:19:25.012Z</time></trkpt><trkpt lat="43.6010483" lon="10.97493"><ele>52.0</ele><time>2026-04-04T09:19:26.012Z</time></trkpt><trkpt lat="43.6008783" lon="10.9748917"><ele>52.666666666666664</ele><time>2026-04-04T09:19:27.011Z</time></trkpt><trkpt lat="43.6007067" lon="10.974855"><ele>53.33333333333333</ele><time>2026-04-04T09:19:28.012Z</time></trkpt><trkpt lat="43.600535" lon="10.974825"><ele>54.0</ele><time>2026-04-04T09:19:29.012Z</time></trkpt><trkpt lat="43.6003617" lon="10.9748033"><ele>56.33333333333333</ele><time>2026-04-04T09:19:30.013Z</time></trkpt><trkpt lat="43.6001917" lon="10.9747767"><ele>58.666666666666664</ele><time>2026-04-04T09:19:31.012Z</time></trkpt><trkpt lat="43.6000233" lon="10.9747583"><ele>61.0</ele><time>2026-04-04T09:19:32.011Z</time></trkpt><trkpt lat="43.599865" lon="10.97474"><ele>61.0</ele><time>2026-04-04T09:19:33.013Z</time></trkpt><trkpt lat="43.5997183" lon="10.9747217"><ele>61.0</ele><time>2026-04-04T09:19:34.011Z</time></trkpt><trkpt lat="43.5995817" lon="10.9746983"><ele>61.0</ele><time>2026-04-04T09:19:35.011Z</time></trkpt><trkpt lat="43.599455" lon="10.9746717"><ele>61.0</ele><time>2026-04-04T09:19:36.013Z</time></trkpt><trkpt lat="43.5993417" lon="10.974645"><ele>60.5</ele><time>2026-04-04T09:19:37.011Z</time></trkpt><trkpt lat="43.5992317" lon="10.97462"><ele>60.0</ele><time>2026-04-04T09:19:38.013Z</time></trkpt><trkpt lat="43.5991217" lon="10.9745983"><ele>59.5</ele><time>2026-04-04T09:19:39.013Z</time></trkpt><trkpt lat="43.5990017" lon="10.9745733"><ele>59.0</ele><time>2026-04-04T09:19:40.012Z</time></trkpt><trkpt lat="43.5988717" lon="10.97454"><ele>59.0</ele><time>2026-04-04T09:19:41.011Z</time></trkpt><trkpt lat="43.5987283" lon="10.974495"><ele>59.0</ele><time>2026-04-04T09:19:42.012Z</time></trkpt><trkpt lat="43.5985733" lon="10.9744367"><ele>59.0</ele><time>2026-04-04T09:19:43.013Z</time></trkpt><trkpt lat="43.5984083" lon="10.97435"><ele>59.333333333333336</ele><time>2026-04-04T09:19:44.013Z</time></trkpt><trkpt lat="43.59824" lon="10.9742367"><ele>59.66666666666667</ele><time>2026-04-04T09:19:45.011Z</time></trkpt><trkpt lat="43.598075" lon="10.9741067"><ele>60.0</ele><time>2026-04-04T09:19:46.012Z</time></trkpt><trkpt lat="43.5979133" lon="10.97396"><ele>58.0</ele><time>2026-04-04T09:19:47.011Z</time></trkpt><trkpt lat="43.5977517" lon="10.9737983"><ele>56.0</ele><time>2026-04-04T09:19:48.013Z</time></trkpt><trkpt lat="43.59759" lon="10.9736283"><ele>54.0</ele><time>2026-04-04T09:19:49.01Z</time></trkpt><trkpt lat="43.597425" lon="10.9734533"><ele>53.33333333333333</ele><time>2026-04-04T09:19:50.011Z</time></trkpt><trkpt lat="43.5972617" lon="10.97328"><ele>52.666666666666664</ele><time>2026-04-04T09:19:51.013Z</time></trkpt><trkpt lat="43.5971" lon="10.9731133"><ele>52.0</ele><time>2026-04-04T09:19:52.014Z</time></trkpt><trkpt lat="43.5969417" lon="10.9729517"><ele>51.33333333333333</ele><time>2026-04-04T09:19:53.011Z</time></trkpt><trkpt lat="43.5967833" lon="10.9728"><ele>50.66666666666667</ele><time>2026-04-04T09:19:54.012Z</time></trkpt><trkpt lat="43.5966267" lon="10.9726683"><ele>50.0</ele><time>2026-04-04T09:19:55.012Z</time></trkpt><trkpt lat="43.5964717" lon="10.97256"><ele>50.66666666666667</ele><time>2026-04-04T09:19:56.012Z</time></trkpt><trkpt lat="43.5963117" lon="10.97247"><ele>51.33333333333333</ele><time>2026-04-04T09:19:57.012Z</time></trkpt><trkpt lat="43.5961467" lon="10.9724033"><ele>52.0</ele><time>2026-04-04T09:19:58.011Z</time></trkpt><trkpt lat="43.5959717" lon="10.9723517"><ele>52.0</ele><time>2026-04-04T09:19:59.012Z</time></trkpt><trkpt lat="43.5957917" lon="10.9723117"><ele>52.0</ele><time>2026-04-04T09:20:00.012Z</time></trkpt><trkpt lat="43.5956" lon="10.9722783"><ele>52.0</ele><time>2026-04-04T09:20:01.012Z</time></trkpt><trkpt lat="43.5954" lon="10.9722567"><ele>52.0</ele><time>2026-04-04T09:20:02.013Z</time></trkpt><trkpt lat="43.5951917" lon="10.9722467"><ele>52.0</ele><time>2026-04-04T09:20:03.012Z</time></trkpt><trkpt lat="43.5949817" lon="10.9722433"><ele>52.0</ele><time>2026-04-04T09:20:04.012Z</time></trkpt><trkpt lat="43.59477" lon="10.97224"><ele>52.0</ele><time>2026-04-04T09:20:05.012Z</time></trkpt><trkpt lat="43.5945633" lon="10.972245"><ele>52.0</ele><time>2026-04-04T09:20:06.011Z</time></trkpt><trkpt lat="43.5943633" lon="10.9722467"><ele>52.0</ele><time>2026-04-04T09:20:07.012Z</time></trkpt><trkpt lat="43.594175" lon="10.9722567"><ele>51.666666666666664</ele><time>2026-04-04T09:20:08.011Z</time></trkpt><trkpt lat="43.5939933" lon="10.97227"><ele>51.33333333333333</ele><time>2026-04-04T09:20:09.013Z</time></trkpt><trkpt lat="43.5938283" lon="10.9722817"><ele>51.0</ele><time>2026-04-04T09:20:10.011Z</time></trkpt><trkpt lat="43.5936733" lon="10.9722883"><ele>50.75</ele><time>2026-04-04T09:20:11.011Z</time></trkpt><trkpt lat="43.5935233" lon="10.9722917"><ele>50.5</ele><time>2026-04-04T09:20:12.011Z</time></trkpt><trkpt lat="43.5933933" lon="10.97229"><ele>50.25</ele><time>2026-04-04T09:20:13.012Z</time></trkpt><trkpt lat="43.5932783" lon="10.9722883"><ele>50.0</ele><time>2026-04-04T09:20:14.011Z</time></trkpt><trkpt lat="43.5931817" lon="10.97228"><ele>50.00000000000001</ele><time>2026-04-04T09:20:15.013Z</time></trkpt><trkpt lat="43.5931083" lon="10.9722667"><ele>50.0</ele><time>2026-04-04T09:20:16.011Z</time></trkpt><trkpt lat="43.593025" lon="10.9722433"><ele>50.0</ele><time>2026-04-04T09:20:18.016Z</time></trkpt><trkpt lat="43.5929517" lon="10.972205"><ele>50.0</ele><time>2026-04-04T09:20:20.012Z</time></trkpt><trkpt lat="43.5928867" lon="10.9721617"><ele>50.00000000000001</ele><time>2026-04-04T09:20:21.013Z</time></trkpt><trkpt lat="43.5928183" lon="10.9721317"><ele>50.0</ele><time>2026-04-04T09:20:22.011Z</time></trkpt><trkpt lat="43.5927483" lon="10.9721217"><ele>50.2</ele><time>2026-04-04T09:20:23.011Z</time></trkpt><trkpt lat="43.5926833" lon="10.9721333"><ele>50.4</ele><time>2026-04-04T09:20:24.011Z</time></trkpt><trkpt lat="43.5926217" lon="10.972175"><ele>50.599999999999994</ele><time>2026-04-04T09:20:25.012Z</time></trkpt><trkpt lat="43.5925433" lon="10.97223"><ele>50.8</ele><time>2026-04-04T09:20:26.012Z</time></trkpt><trkpt lat="43.5924483" lon="10.97228"><ele>51.0</ele><time>2026-04-04T09:20:27.011Z</time></trkpt><trkpt lat="43.592315" lon="10.97229"><ele>51.0</ele><time>2026-04-04T09:20:28.012Z</time></trkpt><trkpt lat="43.59217" lon="10.9722867"><ele>51.0</ele><time>2026-04-04T09:20:29.013Z</time></trkpt><trkpt lat="43.5920083" lon="10.972265"><ele>51.0</ele><time>2026-04-04T09:20:30.011Z</time></trkpt><trkpt lat="43.5918317" lon="10.9722367"><ele>50.66666666666667</ele><time>2026-04-04T09:20:31.012Z</time></trkpt><trkpt lat="43.591645" lon="10.972205"><ele>50.333333333333336</ele><time>2026-04-04T09:20:32.012Z</time></trkpt><trkpt lat="43.5914567" lon="10.9721783"><ele>50.0</ele><time>2026-04-04T09:20:33.011Z</time></trkpt><trkpt lat="43.5912617" lon="10.9721483"><ele>50.66666666666667</ele><time>2026-04-04T09:20:34.011Z</time></trkpt><trkpt lat="43.5910633" lon="10.972115"><ele>51.33333333333333</ele><time>2026-04-04T09:20:35.012Z</time></trkpt><trkpt lat="43.5908667" lon="10.972075"><ele>52.0</ele><time>2026-04-04T09:20:36.011Z</time></trkpt><trkpt lat="43.59067" lon="10.972035"><ele>52.0</ele><time>2026-04-04T09:20:37.012Z</time></trkpt><trkpt lat="43.59048" lon="10.9719917"><ele>52.0</ele><time>2026-04-04T09:20:38.011Z</time></trkpt><trkpt lat="43.5903033" lon="10.971945"><ele>52.0</ele><time>2026-04-04T09:20:39.012Z</time></trkpt><trkpt lat="43.5901467" lon="10.971895"><ele>52.0</ele><time>2026-04-04T09:20:40.012Z</time></trkpt><trkpt lat="43.590015" lon="10.9718317"><ele>52.0</ele><time>2026-04-04T09:20:41.013Z</time></trkpt><trkpt lat="43.5899067" lon="10.9717533"><ele>52.0</ele><time>2026-04-04T09:20:42.012Z</time></trkpt><trkpt lat="43.5898183" lon="10.9716483"><ele>52.0</ele><time>2026-04-04T09:20:43.012Z</time></trkpt><trkpt lat="43.5897433" lon="10.9715183"><ele>51.75</ele><time>2026-04-04T09:20:44.013Z</time></trkpt><trkpt lat="43.5896667" lon="10.9714017"><ele>51.5</ele><time>2026-04-04T09:20:45.013Z</time></trkpt><trkpt lat="43.589565" lon="10.9713317"><ele>51.25</ele><time>2026-04-04T09:20:46.012Z</time></trkpt><trkpt lat="43.5894417" lon="10.9713067"><ele>51.0</ele><time>2026-04-04T09:20:47.012Z</time></trkpt><trkpt lat="43.589305" lon="10.9713217"><ele>51.66666666666667</ele><time>2026-04-04T09:20:48.013Z</time></trkpt><trkpt lat="43.58916" lon="10.9713267"><ele>52.333333333333336</ele><time>2026-04-04T09:20:49.013Z</time></trkpt><trkpt lat="43.5890167" lon="10.9712867"><ele>53.0</ele><time>2026-04-04T09:20:50.012Z</time></trkpt><trkpt lat="43.5888717" lon="10.9711917"><ele>53.0</ele><time>2026-04-04T09:20:51.013Z</time></trkpt><trkpt lat="43.5887283" lon="10.971065"><ele>53.0</ele><time>2026-04-04T09:20:52.013Z</time></trkpt><trkpt lat="43.5885867" lon="10.9709183"><ele>53.0</ele><time>2026-04-04T09:20:53.011Z</time></trkpt><trkpt lat="43.5884417" lon="10.970765"><ele>53.333333333333336</ele><time>2026-04-04T09:20:54.012Z</time></trkpt><trkpt lat="43.5882917" lon="10.9706117"><ele>53.66666666666667</ele><time>2026-04-04T09:20:55.011Z</time></trkpt><trkpt lat="43.5881367" lon="10.9704533"><ele>54.0</ele><time>2026-04-04T09:20:56.012Z</time></trkpt><trkpt lat="43.5879817" lon="10.97029"><ele>54.66666666666667</ele><time>2026-04-04T09:20:57.013Z</time></trkpt><trkpt lat="43.58783" lon="10.97012"><ele>55.333333333333336</ele><time>2026-04-04T09:20:58.012Z</time></trkpt><trkpt lat="43.5876783" lon="10.9699533"><ele>56.0</ele><time>2026-04-04T09:20:59.011Z</time></trkpt><trkpt lat="43.58753" lon="10.9697817"><ele>56.66666666666667</ele><time>2026-04-04T09:21:00.012Z</time></trkpt><trkpt lat="43.5873833" lon="10.9696133"><ele>57.33333333333333</ele><time>2026-04-04T09:21:01.013Z</time></trkpt><trkpt lat="43.5872333" lon="10.9694517"><ele>58.0</ele><time>2026-04-04T09:21:02.012Z</time></trkpt><trkpt lat="43.5870883" lon="10.96929"><ele>56.666666666666664</ele><time>2026-04-04T09:21:03.012Z</time></trkpt><trkpt lat="43.58695" lon="10.9691383"><ele>55.33333333333333</ele><time>2026-04-04T09:21:04.013Z</time></trkpt><trkpt lat="43.5868183" lon="10.9689983"><ele>54.0</ele><time>2026-04-04T09:21:05.013Z</time></trkpt><trkpt lat="43.5866983" lon="10.9688667"><ele>54.0</ele><time>2026-04-04T09:21:06.012Z</time></trkpt><trkpt lat="43.5865883" lon="10.9687433"><ele>54.0</ele><time>2026-04-04T09:21:07.013Z</time></trkpt><trkpt lat="43.58649" lon="10.9686417"><ele>54.0</ele><time>2026-04-04T09:21:08.013Z</time></trkpt><trkpt lat="43.5864033" lon="10.96854"><ele>54.0</ele><time>2026-04-04T09:21:09.012Z</time></trkpt><trkpt lat="43.5863367" lon="10.9684383"><ele>54.0</ele><time>2026-04-04T09:21:10.012Z</time></trkpt><trkpt lat="43.5862933" lon="10.9683233"><ele>54.00000000000001</ele><time>2026-04-04T09:21:11.011Z</time></trkpt><trkpt lat="43.5862667" lon="10.9682"><ele>54.00000000000001</ele><time>2026-04-04T09:21:12.012Z</time></trkpt><trkpt lat="43.586275" lon="10.968045"><ele>54.0</ele><time>2026-04-04T09:21:13.011Z</time></trkpt><trkpt lat="43.586305" lon="10.9678667"><ele>54.0</ele><time>2026-04-04T09:21:14.013Z</time></trkpt><trkpt lat="43.5863483" lon="10.96768"><ele>54.33333333333333</ele><time>2026-04-04T09:21:15.012Z</time></trkpt><trkpt lat="43.5864017" lon="10.967485"><ele>54.666666666666664</ele><time>2026-04-04T09:21:16.013Z</time></trkpt><trkpt lat="43.5864617" lon="10.96729"><ele>55.0</ele><time>2026-04-04T09:21:17.013Z</time></trkpt><trkpt lat="43.5865233" lon="10.9670833"><ele>55.0</ele><time>2026-04-04T09:21:18.012Z</time></trkpt><trkpt lat="43.5865817" lon="10.9668783"><ele>55.0</ele><time>2026-04-04T09:21:19.012Z</time></trkpt><trkpt lat="43.5866433" lon="10.9666633"><ele>55.0</ele><time>2026-04-04T09:21:20.012Z</time></trkpt><trkpt lat="43.586705" lon="10.9664333"><ele>55.0</ele><time>2026-04-04T09:21:21.014Z</time></trkpt><trkpt lat="43.5867667" lon="10.9661983"><ele>55.0</ele><time>2026-04-04T09:21:22.012Z</time></trkpt><trkpt lat="43.5868083" lon="10.9659583"><ele>55.0</ele><time>2026-04-04T09:21:23.013Z</time></trkpt><trkpt lat="43.5868317" lon="10.9657083"><ele>55.0</ele><time>2026-04-04T09:21:24.013Z</time></trkpt><trkpt lat="43.5868417" lon="10.9654467"><ele>55.0</ele><time>2026-04-04T09:21:25.014Z</time></trkpt><trkpt lat="43.58683" lon="10.9651867"><ele>55.0</ele><time>2026-04-04T09:21:26.012Z</time></trkpt><trkpt lat="43.5868" lon="10.9649217"><ele>55.33333333333333</ele><time>2026-04-04T09:21:27.013Z</time></trkpt><trkpt lat="43.5867483" lon="10.9646633"><ele>55.66666666666667</ele><time>2026-04-04T09:21:28.013Z</time></trkpt><trkpt lat="43.5866717" lon="10.96441"><ele>56.0</ele><time>2026-04-04T09:21:29.012Z</time></trkpt><trkpt lat="43.5865767" lon="10.9641717"><ele>56.333333333333336</ele><time>2026-04-04T09:21:30.01Z</time></trkpt><trkpt lat="43.5864667" lon="10.96395"><ele>56.66666666666667</ele><time>2026-04-04T09:21:31.011Z</time></trkpt><trkpt lat="43.58635" lon="10.963735"><ele>57.0</ele><time>2026-04-04T09:21:32.011Z</time></trkpt><trkpt lat="43.5862233" lon="10.96352"><ele>57.33333333333333</ele><time>2026-04-04T09:21:33.013Z</time></trkpt><trkpt lat="43.586095" lon="10.963305"><ele>57.666666666666664</ele><time>2026-04-04T09:21:34.012Z</time></trkpt><trkpt lat="43.585965" lon="10.963085"><ele>58.0</ele><time>2026-04-04T09:21:35.012Z</time></trkpt><trkpt lat="43.5858367" lon="10.962865"><ele>58.0</ele><time>2026-04-04T09:21:36.012Z</time></trkpt><trkpt lat="43.58571" lon="10.962655"><ele>58.0</ele><time>2026-04-04T09:21:37.012Z</time></trkpt><trkpt lat="43.585585" lon="10.9624417"><ele>58.0</ele><time>2026-04-04T09:21:38.013Z</time></trkpt><trkpt lat="43.5854567" lon="10.9622267"><ele>58.33333333333333</ele><time>2026-04-04T09:21:39.012Z</time></trkpt><trkpt lat="43.5853233" lon="10.9620133"><ele>58.66666666666667</ele><time>2026-04-04T09:21:40.012Z</time></trkpt><trkpt lat="43.5851783" lon="10.96181"><ele>59.0</ele><time>2026-04-04T09:21:41.013Z</time></trkpt><trkpt lat="43.5850217" lon="10.961635"><ele>59.333333333333336</ele><time>2026-04-04T09:21:42.012Z</time></trkpt><trkpt lat="43.5848583" lon="10.9614717"><ele>59.66666666666667</ele><time>2026-04-04T09:21:43.012Z</time></trkpt><trkpt lat="43.5846883" lon="10.9613083"><ele>60.0</ele><time>2026-04-04T09:21:44.012Z</time></trkpt><trkpt lat="43.5845133" lon="10.9611483"><ele>59.33333333333333</ele><time>2026-04-04T09:21:45.013Z</time></trkpt><trkpt lat="43.5843367" lon="10.9609917"><ele>58.666666666666664</ele><time>2026-04-04T09:21:46.012Z</time></trkpt><trkpt lat="43.5841567" lon="10.9608383"><ele>58.0</ele><time>2026-04-04T09:21:47.013Z</time></trkpt><trkpt lat="43.5839767" lon="10.9606817"><ele>58.666666666666664</ele><time>2026-04-04T09:21:48.011Z</time></trkpt><trkpt lat="43.5837983" lon="10.9605133"><ele>59.33333333333333</ele><time>2026-04-04T09:21:49.011Z</time></trkpt><trkpt lat="43.5836267" lon="10.9603167"><ele>60.0</ele><time>2026-04-04T09:21:50.011Z</time></trkpt><trkpt lat="43.5834667" lon="10.960095"><ele>60.5</ele><time>2026-04-04T09:21:51.012Z</time></trkpt><trkpt lat="43.5833217" lon="10.9598433"><ele>61.0</ele><time>2026-04-04T09:21:52.012Z</time></trkpt><trkpt lat="43.5832017" lon="10.95956"><ele>61.0</ele><time>2026-04-04T09:21:53.011Z</time></trkpt><trkpt lat="43.5831017" lon="10.9592533"><ele>61.0</ele><time>2026-04-04T09:21:54.012Z</time></trkpt><trkpt lat="43.5830133" lon="10.9589483"><ele>61.5</ele><time>2026-04-04T09:21:55.012Z</time></trkpt><trkpt lat="43.5829317" lon="10.9586433"><ele>62.0</ele><time>2026-04-04T09:21:56.011Z</time></trkpt><trkpt lat="43.582845" lon="10.9583417"><ele>62.0</ele><time>2026-04-04T09:21:57.013Z</time></trkpt><trkpt lat="43.5827533" lon="10.9580467"><ele>62.0</ele><time>2026-04-04T09:21:58.012Z</time></trkpt><trkpt lat="43.582665" lon="10.957745"><ele>63.0</ele><time>2026-04-04T09:21:59.011Z</time></trkpt><trkpt lat="43.5825767" lon="10.9574417"><ele>64.0</ele><time>2026-04-04T09:22:00.011Z</time></trkpt><trkpt lat="43.5824883" lon="10.95714"><ele>64.0</ele><time>2026-04-04T09:22:01.012Z</time></trkpt><trkpt lat="43.5824" lon="10.9568383"><ele>64.0</ele><time>2026-04-04T09:22:02.012Z</time></trkpt><trkpt lat="43.58231" lon="10.9565333"><ele>64.0</ele><time>2026-04-04T09:22:03.012Z</time></trkpt><trkpt lat="43.5822233" lon="10.9562333"><ele>64.0</ele><time>2026-04-04T09:22:04.012Z</time></trkpt><trkpt lat="43.5821367" lon="10.955925"><ele>64.0</ele><time>2026-04-04T09:22:05.012Z</time></trkpt><trkpt lat="43.58205" lon="10.95562"><ele>64.0</ele><time>2026-04-04T09:22:06.012Z</time></trkpt><trkpt lat="43.5819633" lon="10.9553067"><ele>64.0</ele><time>2026-04-04T09:22:07.012Z</time></trkpt><trkpt lat="43.581875" lon="10.955"><ele>64.0</ele><time>2026-04-04T09:22:08.011Z</time></trkpt><trkpt lat="43.5817817" lon="10.954705"><ele>64.0</ele><time>2026-04-04T09:22:09.014Z</time></trkpt><trkpt lat="43.581665" lon="10.95443"><ele>64.0</ele><time>2026-04-04T09:22:10.013Z</time></trkpt><trkpt lat="43.5815217" lon="10.9541783"><ele>65.0</ele><time>2026-04-04T09:22:11.013Z</time></trkpt><trkpt lat="43.58135" lon="10.9539683"><ele>66.0</ele><time>2026-04-04T09:22:12.012Z</time></trkpt><trkpt lat="43.5811567" lon="10.9537933"><ele>68.0</ele><time>2026-04-04T09:22:13.011Z</time></trkpt><trkpt lat="43.5809483" lon="10.9536483"><ele>70.0</ele><time>2026-04-04T09:22:14.012Z</time></trkpt><trkpt lat="43.580735" lon="10.953505"><ele>69.5</ele><time>2026-04-04T09:22:15.013Z</time></trkpt><trkpt lat="43.5805183" lon="10.9533533"><ele>69.0</ele><time>2026-04-04T09:22:16.012Z</time></trkpt><trkpt lat="43.580315" lon="10.9531783"><ele>71.0</ele><time>2026-04-04T09:22:17.012Z</time></trkpt><trkpt lat="43.58013" lon="10.952975"><ele>73.0</ele><time>2026-04-04T09:22:18.011Z</time></trkpt><trkpt lat="43.5799667" lon="10.952735"><ele>76.0</ele><time>2026-04-04T09:22:19.012Z</time></trkpt><trkpt lat="43.5798267" lon="10.9524633"><ele>79.0</ele><time>2026-04-04T09:22:20.013Z</time></trkpt><trkpt lat="43.5797017" lon="10.9521783"><ele>79.0</ele><time>2026-04-04T09:22:21.012Z</time></trkpt><trkpt lat="43.57958" lon="10.95189"><ele>79.0</ele><time>2026-04-04T09:22:22.012Z</time></trkpt><trkpt lat="43.5794483" lon="10.9516183"><ele>85.0</ele><time>2026-04-04T09:22:23.012Z</time></trkpt><trkpt lat="43.5793083" lon="10.9513467"><ele>91.0</ele><time>2026-04-04T09:22:24.011Z</time></trkpt><trkpt lat="43.5791483" lon="10.9511267"><ele>91.0</ele><time>2026-04-04T09:22:25.013Z</time></trkpt><trkpt lat="43.5789733" lon="10.9509433"><ele>91.0</ele><time>2026-04-04T09:22:26.012Z</time></trkpt><trkpt lat="43.578785" lon="10.9507917"><ele>91.0</ele><time>2026-04-04T09:22:27.013Z</time></trkpt><trkpt lat="43.57859" lon="10.9506483"><ele>88.66666666666666</ele><time>2026-04-04T09:22:28.011Z</time></trkpt><trkpt lat="43.5783933" lon="10.95051"><ele>86.33333333333333</ele><time>2026-04-04T09:22:29.012Z</time></trkpt><trkpt lat="43.5781983" lon="10.95036"><ele>84.0</ele><time>2026-04-04T09:22:30.012Z</time></trkpt><trkpt lat="43.57801" lon="10.9502033"><ele>82.66666666666667</ele><time>2026-04-04T09:22:31.012Z</time></trkpt><trkpt lat="43.5778383" lon="10.950015"><ele>81.33333333333334</ele><time>2026-04-04T09:22:32.012Z</time></trkpt><trkpt lat="43.5776867" lon="10.9497967"><ele>80.0</ele><time>2026-04-04T09:22:33.013Z</time></trkpt><trkpt lat="43.5775533" lon="10.94955"><ele>80.0</ele><time>2026-04-04T09:22:34.012Z</time></trkpt><trkpt lat="43.5774433" lon="10.9492783"><ele>80.0</ele><time>2026-04-04T09:22:35.011Z</time></trkpt><trkpt lat="43.57735" lon="10.948985"><ele>82.0</ele><time>2026-04-04T09:22:36.011Z</time></trkpt><trkpt lat="43.5772617" lon="10.9486883"><ele>84.0</ele><time>2026-04-04T09:22:37.011Z</time></trkpt><trkpt lat="43.5771667" lon="10.9483933"><ele>85.0</ele><time>2026-04-04T09:22:38.012Z</time></trkpt><trkpt lat="43.5770583" lon="10.948105"><ele>86.0</ele><time>2026-04-04T09:22:39.014Z</time></trkpt><trkpt lat="43.5769367" lon="10.9478317"><ele>84.66666666666667</ele><time>2026-04-04T09:22:40.011Z</time></trkpt><trkpt lat="43.5767983" lon="10.947585"><ele>83.33333333333333</ele><time>2026-04-04T09:22:41.013Z</time></trkpt><trkpt lat="43.5766517" lon="10.9473567"><ele>82.0</ele><time>2026-04-04T09:22:42.012Z</time></trkpt><trkpt lat="43.576495" lon="10.9471483"><ele>82.0</ele><time>2026-04-04T09:22:43.012Z</time></trkpt><trkpt lat="43.57633" lon="10.9469483"><ele>82.0</ele><time>2026-04-04T09:22:44.012Z</time></trkpt><trkpt lat="43.5761533" lon="10.94674"><ele>83.5</ele><time>2026-04-04T09:22:45.012Z</time></trkpt><trkpt lat="43.5759667" lon="10.9465133"><ele>85.0</ele><time>2026-04-04T09:22:46.013Z</time></trkpt><trkpt lat="43.5757817" lon="10.946265"><ele>85.0</ele><time>2026-04-04T09:22:47.012Z</time></trkpt><trkpt lat="43.575605" lon="10.9460267"><ele>85.0</ele><time>2026-04-04T09:22:48.012Z</time></trkpt><trkpt lat="43.5754417" lon="10.9457983"><ele>85.0</ele><time>2026-04-04T09:22:49.014Z</time></trkpt><trkpt lat="43.57528" lon="10.9455917"><ele>85.0</ele><time>2026-04-04T09:22:50.012Z</time></trkpt><trkpt lat="43.575115" lon="10.94539"><ele>85.0</ele><time>2026-04-04T09:22:51.012Z</time></trkpt><trkpt lat="43.5749433" lon="10.9451883"><ele>87.5</ele><time>2026-04-04T09:22:52.014Z</time></trkpt><trkpt lat="43.5747667" lon="10.9450033"><ele>90.0</ele><time>2026-04-04T09:22:53.012Z</time></trkpt><trkpt lat="43.5745783" lon="10.9448217"><ele>88.5</ele><time>2026-04-04T09:22:54.012Z</time></trkpt><trkpt lat="43.5743917" lon="10.9446433"><ele>87.0</ele><time>2026-04-04T09:22:55.012Z</time></trkpt><trkpt lat="43.57422" lon="10.9444367"><ele>89.5</ele><time>2026-04-04T09:22:56.012Z</time></trkpt><trkpt lat="43.574075" lon="10.9441917"><ele>92.0</ele><time>2026-04-04T09:22:57.014Z</time></trkpt><trkpt lat="43.5739617" lon="10.943915"><ele>92.0</ele><time>2026-04-04T09:22:58.014Z</time></trkpt><trkpt lat="43.573885" lon="10.9436183"><ele>92.0</ele><time>2026-04-04T09:22:59.011Z</time></trkpt><trkpt lat="43.573825" lon="10.943325"><ele>92.0</ele><time>2026-04-04T09:23:00.014Z</time></trkpt><trkpt lat="43.5737633" lon="10.9430417"><ele>93.0</ele><time>2026-04-04T09:23:01.012Z</time></trkpt><trkpt lat="43.5736833" lon="10.9427767"><ele>94.0</ele><time>2026-04-04T09:23:02.012Z</time></trkpt><trkpt lat="43.5735867" lon="10.9425317"><ele>95.0</ele><time>2026-04-04T09:23:03.013Z</time></trkpt><trkpt lat="43.5734667" lon="10.942305"><ele>98.0</ele><time>2026-04-04T09:23:04.013Z</time></trkpt><trkpt lat="43.57332" lon="10.9421117"><ele>101.0</ele><time>2026-04-04T09:23:05.014Z</time></trkpt><trkpt lat="43.5731533" lon="10.94195"><ele>104.0</ele><time>2026-04-04T09:23:06.013Z</time></trkpt><trkpt lat="43.5729733" lon="10.94179"><ele>107.33333333333333</ele><time>2026-04-04T09:23:07.013Z</time></trkpt><trkpt lat="43.57279" lon="10.9416217"><ele>110.66666666666666</ele><time>2026-04-04T09:23:08.012Z</time></trkpt><trkpt lat="43.5726067" lon="10.9414533"><ele>114.0</ele><time>2026-04-04T09:23:09.012Z</time></trkpt><trkpt lat="43.5724217" lon="10.94128"><ele>114.0</ele><time>2026-04-04T09:23:10.013Z</time></trkpt><trkpt lat="43.572235" lon="10.9411133"><ele>114.0</ele><time>2026-04-04T09:23:11.011Z</time></trkpt><trkpt lat="43.5720483" lon="10.9409433"><ele>114.0</ele><time>2026-04-04T09:23:12.012Z</time></trkpt><trkpt lat="43.57187" lon="10.9407633"><ele>116.66666666666666</ele><time>2026-04-04T09:23:13.012Z</time></trkpt><trkpt lat="43.5717083" lon="10.9405583"><ele>119.33333333333333</ele><time>2026-04-04T09:23:14.012Z</time></trkpt><trkpt lat="43.5715717" lon="10.940325"><ele>122.0</ele><time>2026-04-04T09:23:15.012Z</time></trkpt><trkpt lat="43.5714617" lon="10.9400617"><ele>126.33333333333333</ele><time>2026-04-04T09:23:16.012Z</time></trkpt><trkpt lat="43.5713767" lon="10.9397833"><ele>130.66666666666666</ele><time>2026-04-04T09:23:17.013Z</time></trkpt><trkpt lat="43.5712933" lon="10.9395167"><ele>135.0</ele><time>2026-04-04T09:23:18.013Z</time></trkpt><trkpt lat="43.5711983" lon="10.9392833"><ele>135.33333333333334</ele><time>2026-04-04T09:23:19.013Z</time></trkpt><trkpt lat="43.5710933" lon="10.9390683"><ele>135.66666666666669</ele><time>2026-04-04T09:23:20.012Z</time></trkpt><trkpt lat="43.5709683" lon="10.938875"><ele>136.0</ele><time>2026-04-04T09:23:21.013Z</time></trkpt><trkpt lat="43.570815" lon="10.9387083"><ele>136.0</ele><time>2026-04-04T09:23:22.011Z</time></trkpt><trkpt lat="43.5706383" lon="10.9385633"><ele>136.0</ele><time>2026-04-04T09:23:23.013Z</time></trkpt><trkpt lat="43.57045" lon="10.9384333"><ele>136.0</ele><time>2026-04-04T09:23:24.013Z</time></trkpt><trkpt lat="43.5702533" lon="10.9383017"><ele>137.33333333333334</ele><time>2026-04-04T09:23:25.012Z</time></trkpt><trkpt lat="43.5700533" lon="10.9381633"><ele>138.66666666666666</ele><time>2026-04-04T09:23:26.012Z</time></trkpt><trkpt lat="43.5698567" lon="10.9380367"><ele>140.0</ele><time>2026-04-04T09:23:27.014Z</time></trkpt><trkpt lat="43.5696567" lon="10.9379083"><ele>142.33333333333331</ele><time>2026-04-04T09:23:28.012Z</time></trkpt><trkpt lat="43.5694567" lon="10.93778"><ele>144.66666666666666</ele><time>2026-04-04T09:23:29.013Z</time></trkpt><trkpt lat="43.5692583" lon="10.9376567"><ele>147.0</ele><time>2026-04-04T09:23:30.013Z</time></trkpt><trkpt lat="43.5690733" lon="10.9375617"><ele>149.33333333333334</ele><time>2026-04-04T09:23:31.013Z</time></trkpt><trkpt lat="43.5688833" lon="10.937495"><ele>151.66666666666669</ele><time>2026-04-04T09:23:32.013Z</time></trkpt><trkpt lat="43.5687" lon="10.93748"><ele>154.0</ele><time>2026-04-04T09:23:33.012Z</time></trkpt><trkpt lat="43.5685117" lon="10.93752"><ele>157.33333333333334</ele><time>2026-04-04T09:23:34.011Z</time></trkpt><trkpt lat="43.568335" lon="10.9376133"><ele>160.66666666666666</ele><time>2026-04-04T09:23:35.014Z</time></trkpt><trkpt lat="43.56817" lon="10.9377533"><ele>164.0</ele><time>2026-04-04T09:23:36.013Z</time></trkpt><trkpt lat="43.568005" lon="10.937925"><ele>167.0</ele><time>2026-04-04T09:23:37.012Z</time></trkpt><trkpt lat="43.5678367" lon="10.9381017"><ele>170.0</ele><time>2026-04-04T09:23:38.013Z</time></trkpt><trkpt lat="43.5676633" lon="10.93826"><ele>173.0</ele><time>2026-04-04T09:23:39.013Z</time></trkpt><trkpt lat="43.567475" lon="10.93839"><ele>173.0</ele><time>2026-04-04T09:23:40.012Z</time></trkpt><trkpt lat="43.567275" lon="10.9384933"><ele>173.0</ele><time>2026-04-04T09:23:41.012Z</time></trkpt><trkpt lat="43.5670617" lon="10.9385617"><ele>173.0</ele><time>2026-04-04T09:23:42.013Z</time></trkpt><trkpt lat="43.5668333" lon="10.9385867"><ele>178.0</ele><time>2026-04-04T09:23:43.012Z</time></trkpt><trkpt lat="43.56661" lon="10.9386017"><ele>183.0</ele><time>2026-04-04T09:23:44.012Z</time></trkpt><trkpt lat="43.5663817" lon="10.938635"><ele>185.0</ele><time>2026-04-04T09:23:45.013Z</time></trkpt><trkpt lat="43.5661567" lon="10.9386917"><ele>187.0</ele><time>2026-04-04T09:23:46.013Z</time></trkpt><trkpt lat="43.56594" lon="10.9387717"><ele>187.0</ele><time>2026-04-04T09:23:47.013Z</time></trkpt><trkpt lat="43.5657233" lon="10.938875"><ele>187.0</ele><time>2026-04-04T09:23:48.011Z</time></trkpt><trkpt lat="43.5655" lon="10.93899"><ele>188.5</ele><time>2026-04-04T09:23:49.013Z</time></trkpt><trkpt lat="43.56527" lon="10.9390933"><ele>190.0</ele><time>2026-04-04T09:23:50.012Z</time></trkpt><trkpt lat="43.5650433" lon="10.93918"><ele>184.5</ele><time>2026-04-04T09:23:51.012Z</time></trkpt><trkpt lat="43.5648117" lon="10.9392567"><ele>179.0</ele><time>2026-04-04T09:23:52.012Z</time></trkpt><trkpt lat="43.5645783" lon="10.9393267"><ele>183.0</ele><time>2026-04-04T09:23:53.013Z</time></trkpt><trkpt lat="43.5643417" lon="10.9393833"><ele>187.0</ele><time>2026-04-04T09:23:54.013Z</time></trkpt><trkpt lat="43.5641017" lon="10.9394233"><ele>187.0</ele><time>2026-04-04T09:23:55.013Z</time></trkpt><trkpt lat="43.5638633" lon="10.9394433"><ele>187.0</ele><time>2026-04-04T09:23:56.014Z</time></trkpt><trkpt lat="43.5636233" lon="10.9394433"><ele>188.0</ele><time>2026-04-04T09:23:57.013Z</time></trkpt><trkpt lat="43.5633833" lon="10.939435"><ele>189.0</ele><time>2026-04-04T09:23:58.012Z</time></trkpt><trkpt lat="43.5631417" lon="10.93942"><ele>189.0</ele><time>2026-04-04T09:23:59.013Z</time></trkpt><trkpt lat="43.5629" lon="10.939415"><ele>189.0</ele><time>2026-04-04T09:24:00.013Z</time></trkpt><trkpt lat="43.5626583" lon="10.93942"><ele>189.0</ele><time>2026-04-04T09:24:01.013Z</time></trkpt><trkpt lat="43.562415" lon="10.9394383"><ele>189.0</ele><time>2026-04-04T09:24:02.012Z</time></trkpt><trkpt lat="43.5621717" lon="10.9394633"><ele>193.0</ele><time>2026-04-04T09:24:03.013Z</time></trkpt><trkpt lat="43.5619317" lon="10.9394933"><ele>197.0</ele><time>2026-04-04T09:24:04.012Z</time></trkpt><trkpt lat="43.5616917" lon="10.939515"><ele>197.0</ele><time>2026-04-04T09:24:05.013Z</time></trkpt><trkpt lat="43.5614533" lon="10.9394983"><ele>197.0</ele><time>2026-04-04T09:24:06.011Z</time></trkpt><trkpt lat="43.561215" lon="10.93945"><ele>201.5</ele><time>2026-04-04T09:24:07.013Z</time></trkpt><trkpt lat="43.5609833" lon="10.939375"><ele>206.0</ele><time>2026-04-04T09:24:08.011Z</time></trkpt><trkpt lat="43.5607567" lon="10.9392733"><ele>209.5</ele><time>2026-04-04T09:24:09.013Z</time></trkpt><trkpt lat="43.5605317" lon="10.9391633"><ele>213.0</ele><time>2026-04-04T09:24:10.013Z</time></trkpt><trkpt lat="43.5603083" lon="10.93907"><ele>213.5</ele><time>2026-04-04T09:24:11.012Z</time></trkpt><trkpt lat="43.5600817" lon="10.938985"><ele>214.0</ele><time>2026-04-04T09:24:12.012Z</time></trkpt><trkpt lat="43.5598533" lon="10.9389183"><ele>214.0</ele><time>2026-04-04T09:24:13.013Z</time></trkpt><trkpt lat="43.5596217" lon="10.9388683"><ele>214.0</ele><time>2026-04-04T09:24:14.012Z</time></trkpt><trkpt lat="43.5593883" lon="10.93886"><ele>217.5</ele><time>2026-04-04T09:24:15.012Z</time></trkpt><trkpt lat="43.5591583" lon="10.9388733"><ele>221.0</ele><time>2026-04-04T09:24:16.011Z</time></trkpt><trkpt lat="43.5589283" lon="10.9388817"><ele>223.5</ele><time>2026-04-04T09:24:17.011Z</time></trkpt><trkpt lat="43.5587" lon="10.9388867"><ele>226.0</ele><time>2026-04-04T09:24:18.012Z</time></trkpt><trkpt lat="43.5584733" lon="10.938895"><ele>226.0</ele><time>2026-04-04T09:24:19.012Z</time></trkpt><trkpt lat="43.55825" lon="10.9389067"><ele>226.0</ele><time>2026-04-04T09:24:20.012Z</time></trkpt><trkpt lat="43.5580283" lon="10.9389"><ele>226.0</ele><time>2026-04-04T09:24:21.012Z</time></trkpt><trkpt lat="43.557815" lon="10.9388667"><ele>226.66666666666666</ele><time>2026-04-04T09:24:22.011Z</time></trkpt><trkpt lat="43.5576067" lon="10.9387767"><ele>227.33333333333331</ele><time>2026-04-04T09:24:23.012Z</time></trkpt><trkpt lat="43.5574067" lon="10.938655"><ele>228.0</ele><time>2026-04-04T09:24:24.011Z</time></trkpt><trkpt lat="43.5572217" lon="10.93849"><ele>228.66666666666669</ele><time>2026-04-04T09:24:25.013Z</time></trkpt><trkpt lat="43.5570483" lon="10.9382933"><ele>229.33333333333334</ele><time>2026-04-04T09:24:26.012Z</time></trkpt><trkpt lat="43.5568983" lon="10.9380633"><ele>230.0</ele><time>2026-04-04T09:24:27.013Z</time></trkpt><trkpt lat="43.5567733" lon="10.9378083"><ele>230.5</ele><time>2026-04-04T09:24:28.01Z</time></trkpt><trkpt lat="43.55668" lon="10.9375233"><ele>231.0</ele><time>2026-04-04T09:24:29.012Z</time></trkpt><trkpt lat="43.556615" lon="10.9372217"><ele>231.0</ele><time>2026-04-04T09:24:30.012Z</time></trkpt><trkpt lat="43.5565767" lon="10.93691"><ele>231.0</ele><time>2026-04-04T09:24:31.013Z</time></trkpt><trkpt lat="43.5565517" lon="10.9365883"><ele>231.0</ele><time>2026-04-04T09:24:32.012Z</time></trkpt><trkpt lat="43.556515" lon="10.9362683"><ele>231.0</ele><time>2026-04-04T09:24:33.012Z</time></trkpt><trkpt lat="43.5564483" lon="10.93596"><ele>232.0</ele><time>2026-04-04T09:24:34.013Z</time></trkpt><trkpt lat="43.5563467" lon="10.93567"><ele>233.0</ele><time>2026-04-04T09:24:35.012Z</time></trkpt><trkpt lat="43.5562233" lon="10.9354133"><ele>235.33333333333334</ele><time>2026-04-04T09:24:36.011Z</time></trkpt><trkpt lat="43.55606" lon="10.9352133"><ele>237.66666666666669</ele><time>2026-04-04T09:24:37.013Z</time></trkpt><trkpt lat="43.555875" lon="10.9350533"><ele>240.0</ele><time>2026-04-04T09:24:38.012Z</time></trkpt><trkpt lat="43.55567" lon="10.9349283"><ele>240.5</ele><time>2026-04-04T09:24:39.013Z</time></trkpt><trkpt lat="43.5554483" lon="10.934845"><ele>241.0</ele><time>2026-04-04T09:24:40.013Z</time></trkpt><trkpt lat="43.5552167" lon="10.9348"><ele>240.0</ele><time>2026-04-04T09:24:41.013Z</time></trkpt><trkpt lat="43.554975" lon="10.9347833"><ele>239.0</ele><time>2026-04-04T09:24:42.012Z</time></trkpt><trkpt lat="43.5547317" lon="10.9347767"><ele>239.0</ele><time>2026-04-04T09:24:43.014Z</time></trkpt><trkpt lat="43.5544867" lon="10.9347733"><ele>239.0</ele><time>2026-04-04T09:24:44.013Z</time></trkpt><trkpt lat="43.55424" lon="10.9347717"><ele>239.0</ele><time>2026-04-04T09:24:45.013Z</time></trkpt><trkpt lat="43.553995" lon="10.9347667"><ele>239.0</ele><time>2026-04-04T09:24:46.013Z</time></trkpt><trkpt lat="43.553755" lon="10.934755"><ele>239.5</ele><time>2026-04-04T09:24:47.012Z</time></trkpt><trkpt lat="43.55352" lon="10.934735"><ele>240.0</ele><time>2026-04-04T09:24:48.012Z</time></trkpt><trkpt lat="43.5532933" lon="10.9346683"><ele>240.0</ele><time>2026-04-04T09:24:49.013Z</time></trkpt><trkpt lat="43.5530733" lon="10.93457"><ele>240.0</ele><time>2026-04-04T09:24:50.013Z</time></trkpt><trkpt lat="43.5528633" lon="10.9344333"><ele>243.0</ele><time>2026-04-04T09:24:51.013Z</time></trkpt><trkpt lat="43.5526633" lon="10.9342683"><ele>246.0</ele><time>2026-04-04T09:24:52.012Z</time></trkpt><trkpt lat="43.5524767" lon="10.9340667"><ele>247.0</ele><time>2026-04-04T09:24:53.011Z</time></trkpt><trkpt lat="43.5523167" lon="10.9338267"><ele>248.0</ele><time>2026-04-04T09:24:54.012Z</time></trkpt><trkpt lat="43.5521833" lon="10.9335583"><ele>248.66666666666669</ele><time>2026-04-04T09:24:55.013Z</time></trkpt><trkpt lat="43.5520767" lon="10.9332833"><ele>249.33333333333331</ele><time>2026-04-04T09:24:56.014Z</time></trkpt><trkpt lat="43.5519883" lon="10.933015"><ele>250.0</ele><time>2026-04-04T09:24:57.012Z</time></trkpt><trkpt lat="43.5518983" lon="10.9327483"><ele>250.66666666666666</ele><time>2026-04-04T09:24:58.012Z</time></trkpt><trkpt lat="43.5518067" lon="10.9324867"><ele>251.33333333333331</ele><time>2026-04-04T09:24:59.012Z</time></trkpt><trkpt lat="43.5516917" lon="10.9322417"><ele>252.0</ele><time>2026-04-04T09:25:00.012Z</time></trkpt><trkpt lat="43.5515617" lon="10.9320167"><ele>252.0</ele><time>2026-04-04T09:25:01.012Z</time></trkpt><trkpt lat="43.5514133" lon="10.9318167"><ele>252.0</ele><time>2026-04-04T09:25:02.012Z</time></trkpt><trkpt lat="43.5512467" lon="10.93165"><ele>252.0</ele><time>2026-04-04T09:25:03.013Z</time></trkpt><trkpt lat="43.5510683" lon="10.9314983"><ele>255.33333333333331</ele><time>2026-04-04T09:25:04.013Z</time></trkpt><trkpt lat="43.55088" lon="10.93137"><ele>258.66666666666663</ele><time>2026-04-04T09:25:05.013Z</time></trkpt><trkpt lat="43.55069" lon="10.9312583"><ele>262.0</ele><time>2026-04-04T09:25:06.012Z</time></trkpt><trkpt lat="43.5504983" lon="10.931165"><ele>262.0</ele><time>2026-04-04T09:25:07.012Z</time></trkpt><trkpt lat="43.55031" lon="10.931075"><ele>262.0</ele><time>2026-04-04T09:25:08.012Z</time></trkpt><trkpt lat="43.5501217" lon="10.9309717"><ele>262.0</ele><time>2026-04-04T09:25:09.012Z</time></trkpt><trkpt lat="43.54993" lon="10.9308683"><ele>264.0</ele><time>2026-04-04T09:25:10.012Z</time></trkpt><trkpt lat="43.549735" lon="10.9307617"><ele>266.0</ele><time>2026-04-04T09:25:11.013Z</time></trkpt><trkpt lat="43.54954" lon="10.9306383"><ele>268.0</ele><time>2026-04-04T09:25:12.013Z</time></trkpt><trkpt lat="43.5493533" lon="10.9304917"><ele>268.3333333333333</ele><time>2026-04-04T09:25:13.012Z</time></trkpt><trkpt lat="43.5491717" lon="10.9303167"><ele>268.6666666666667</ele><time>2026-04-04T09:25:14.012Z</time></trkpt><trkpt lat="43.548995" lon="10.9301267"><ele>269.0</ele><time>2026-04-04T09:25:15.013Z</time></trkpt><trkpt lat="43.5488283" lon="10.929915"><ele>273.0</ele><time>2026-04-04T09:25:16.013Z</time></trkpt><trkpt lat="43.5486717" lon="10.929695"><ele>277.0</ele><time>2026-04-04T09:25:17.012Z</time></trkpt><trkpt lat="43.5485133" lon="10.92948"><ele>281.0</ele><time>2026-04-04T09:25:18.013Z</time></trkpt><trkpt lat="43.5483417" lon="10.92928"><ele>287.0</ele><time>2026-04-04T09:25:19.013Z</time></trkpt><trkpt lat="43.548155" lon="10.9291"><ele>293.0</ele><time>2026-04-04T09:25:20.013Z</time></trkpt><trkpt lat="43.547955" lon="10.9289667"><ele>294.0</ele><time>2026-04-04T09:25:21.013Z</time></trkpt><trkpt lat="43.5477467" lon="10.9288767"><ele>295.0</ele><time>2026-04-04T09:25:22.012Z</time></trkpt><trkpt lat="43.54753" lon="10.9288233"><ele>296.0</ele><time>2026-04-04T09:25:23.01Z</time></trkpt><trkpt lat="43.5473117" lon="10.9288117"><ele>296.0</ele><time>2026-04-04T09:25:24.013Z</time></trkpt><trkpt lat="43.5470917" lon="10.9288083"><ele>296.0</ele><time>2026-04-04T09:25:25.012Z</time></trkpt><trkpt lat="43.5468717" lon="10.9288033"><ele>296.0</ele><time>2026-04-04T09:25:26.012Z</time></trkpt><trkpt lat="43.5466533" lon="10.9288067"><ele>298.0</ele><time>2026-04-04T09:25:27.014Z</time></trkpt><trkpt lat="43.5464367" lon="10.9288"><ele>300.0</ele><time>2026-04-04T09:25:28.012Z</time></trkpt><trkpt lat="43.5462183" lon="10.9287933"><ele>302.0</ele><time>2026-04-04T09:25:29.012Z</time></trkpt><trkpt lat="43.5459983" lon="10.928785"><ele>304.6666666666667</ele><time>2026-04-04T09:25:30.012Z</time></trkpt><trkpt lat="43.54578" lon="10.9287767"><ele>307.3333333333333</ele><time>2026-04-04T09:25:31.012Z</time></trkpt><trkpt lat="43.5455617" lon="10.9287683"><ele>310.0</ele><time>2026-04-04T09:25:32.014Z</time></trkpt><trkpt lat="43.54534" lon="10.92875"><ele>311.3333333333333</ele><time>2026-04-04T09:25:33.012Z</time></trkpt><trkpt lat="43.5451183" lon="10.92871"><ele>312.6666666666667</ele><time>2026-04-04T09:25:34.012Z</time></trkpt><trkpt lat="43.5448983" lon="10.9286483"><ele>314.0</ele><time>2026-04-04T09:25:35.012Z</time></trkpt><trkpt lat="43.5446767" lon="10.9285733"><ele>317.0</ele><time>2026-04-04T09:25:36.011Z</time></trkpt><trkpt lat="43.5444617" lon="10.9284717"><ele>320.0</ele><time>2026-04-04T09:25:37.012Z</time></trkpt><trkpt lat="43.54425" lon="10.928355"><ele>324.5</ele><time>2026-04-04T09:25:38.013Z</time></trkpt><trkpt lat="43.54404" lon="10.9282383"><ele>329.0</ele><time>2026-04-04T09:25:39.012Z</time></trkpt><trkpt lat="43.5438333" lon="10.9281083"><ele>331.0</ele><time>2026-04-04T09:25:40.012Z</time></trkpt><trkpt lat="43.5436317" lon="10.9279733"><ele>333.0</ele><time>2026-04-04T09:25:41.012Z</time></trkpt><trkpt lat="43.5434317" lon="10.927835"><ele>335.0</ele><time>2026-04-04T09:25:42.013Z</time></trkpt><trkpt lat="43.5432383" lon="10.9277017"><ele>335.0</ele><time>2026-04-04T09:25:43.012Z</time></trkpt><trkpt lat="43.5430517" lon="10.9275767"><ele>335.0</ele><time>2026-04-04T09:25:44.013Z</time></trkpt><trkpt lat="43.5428817" lon="10.92747"><ele>335.0</ele><time>2026-04-04T09:25:45.013Z</time></trkpt><trkpt lat="43.54272" lon="10.9273833"><ele>337.33333333333337</ele><time>2026-04-04T09:25:46.013Z</time></trkpt><trkpt lat="43.5425583" lon="10.927325"><ele>339.6666666666667</ele><time>2026-04-04T09:25:47.012Z</time></trkpt><trkpt lat="43.54239" lon="10.9272917"><ele>342.0</ele><time>2026-04-04T09:25:48.013Z</time></trkpt><trkpt lat="43.5422183" lon="10.92728"><ele>344.3333333333333</ele><time>2026-04-04T09:25:49.012Z</time></trkpt><trkpt lat="43.542045" lon="10.9272733"><ele>346.66666666666663</ele><time>2026-04-04T09:25:50.012Z</time></trkpt><trkpt lat="43.5418733" lon="10.9272733"><ele>349.0</ele><time>2026-04-04T09:25:51.013Z</time></trkpt><trkpt lat="43.5417067" lon="10.9272783"><ele>349.0</ele><time>2026-04-04T09:25:52.014Z</time></trkpt><trkpt lat="43.5415417" lon="10.92728"><ele>349.0</ele><time>2026-04-04T09:25:53.013Z</time></trkpt><trkpt lat="43.54138" lon="10.92728"><ele>349.0</ele><time>2026-04-04T09:25:54.013Z</time></trkpt><trkpt lat="43.5412183" lon="10.92728"><ele>351.66666666666663</ele><time>2026-04-04T09:25:55.013Z</time></trkpt><trkpt lat="43.541065" lon="10.9272767"><ele>354.3333333333333</ele><time>2026-04-04T09:25:56.011Z</time></trkpt><trkpt lat="43.5409017" lon="10.927275"><ele>357.0</ele><time>2026-04-04T09:25:57.014Z</time></trkpt><trkpt lat="43.5407383" lon="10.9272533"><ele>357.0</ele><time>2026-04-04T09:25:58.011Z</time></trkpt><trkpt lat="43.5405717" lon="10.9272017"><ele>357.0</ele><time>2026-04-04T09:25:59.012Z</time></trkpt><trkpt lat="43.540415" lon="10.9271033"><ele>357.0</ele><time>2026-04-04T09:26:00.013Z</time></trkpt><trkpt lat="43.5402517" lon="10.9269967"><ele>359.3333333333333</ele><time>2026-04-04T09:26:01.011Z</time></trkpt><trkpt lat="43.54009" lon="10.92688"><ele>361.66666666666663</ele><time>2026-04-04T09:26:02.012Z</time></trkpt><trkpt lat="43.5399233" lon="10.9267683"><ele>364.0</ele><time>2026-04-04T09:26:03.014Z</time></trkpt><trkpt lat="43.53975" lon="10.926645"><ele>364.3333333333333</ele><time>2026-04-04T09:26:04.014Z</time></trkpt><trkpt lat="43.5395917" lon="10.9265133"><ele>364.6666666666667</ele><time>2026-04-04T09:26:05.014Z</time></trkpt><trkpt lat="43.539445" lon="10.92639"><ele>365.0</ele><time>2026-04-04T09:26:06.013Z</time></trkpt><trkpt lat="43.5393" lon="10.9262717"><ele>369.33333333333337</ele><time>2026-04-04T09:26:07.011Z</time></trkpt><trkpt lat="43.5391567" lon="10.92616"><ele>373.6666666666667</ele><time>2026-04-04T09:26:08.014Z</time></trkpt><trkpt lat="43.5390117" lon="10.9260517"><ele>378.0</ele><time>2026-04-04T09:26:09.013Z</time></trkpt><trkpt lat="43.538865" lon="10.9259417"><ele>379.3333333333333</ele><time>2026-04-04T09:26:10.013Z</time></trkpt><trkpt lat="43.538715" lon="10.9258367"><ele>380.66666666666663</ele><time>2026-04-04T09:26:11.013Z</time></trkpt><trkpt lat="43.5385717" lon="10.9257367"><ele>382.0</ele><time>2026-04-04T09:26:12.014Z</time></trkpt><trkpt lat="43.538435" lon="10.92563"><ele>382.0</ele><time>2026-04-04T09:26:13.013Z</time></trkpt><trkpt lat="43.5382917" lon="10.925505"><ele>382.0</ele><time>2026-04-04T09:26:14.012Z</time></trkpt><trkpt lat="43.5381367" lon="10.92536"><ele>382.0</ele><time>2026-04-04T09:26:15.013Z</time></trkpt><trkpt lat="43.5379583" lon="10.9252083"><ele>386.5</ele><time>2026-04-04T09:26:16.014Z</time></trkpt><trkpt lat="43.5377467" lon="10.925055"><ele>391.0</ele><time>2026-04-04T09:26:17.012Z</time></trkpt><trkpt lat="43.5375283" lon="10.9248767"><ele>391.0</ele><time>2026-04-04T09:26:18.012Z</time></trkpt><trkpt lat="43.537315" lon="10.9246833"><ele>391.0</ele><time>2026-04-04T09:26:19.012Z</time></trkpt><trkpt lat="43.5371083" lon="10.9244967"><ele>393.0</ele><time>2026-04-04T09:26:20.013Z</time></trkpt><trkpt lat="43.53691" lon="10.9243283"><ele>395.0</ele><time>2026-04-04T09:26:21.013Z</time></trkpt><trkpt lat="43.536715" lon="10.924175"><ele>396.0</ele><time>2026-04-04T09:26:22.013Z</time></trkpt><trkpt lat="43.5365133" lon="10.9240467"><ele>397.0</ele><time>2026-04-04T09:26:23.012Z</time></trkpt><trkpt lat="43.536305" lon="10.9239467"><ele>398.0</ele><time>2026-04-04T09:26:24.012Z</time></trkpt><trkpt lat="43.5360883" lon="10.92388"><ele>401.0</ele><time>2026-04-04T09:26:25.012Z</time></trkpt><trkpt lat="43.5358683" lon="10.9238433"><ele>404.0</ele><time>2026-04-04T09:26:26.012Z</time></trkpt><trkpt lat="43.535645" lon="10.923855"><ele>407.0</ele><time>2026-04-04T09:26:27.013Z</time></trkpt><trkpt lat="43.5354133" lon="10.9238817"><ele>409.0</ele><time>2026-04-04T09:26:28.012Z</time></trkpt><trkpt lat="43.5351917" lon="10.9239167"><ele>411.0</ele><time>2026-04-04T09:26:29.013Z</time></trkpt><trkpt lat="43.53498" lon="10.9239367"><ele>413.0</ele><time>2026-04-04T09:26:30.013Z</time></trkpt><trkpt lat="43.53478" lon="10.9239517"><ele>413.0</ele><time>2026-04-04T09:26:31.012Z</time></trkpt><trkpt lat="43.5345867" lon="10.92396"><ele>413.0</ele><time>2026-04-04T09:26:32.012Z</time></trkpt><trkpt lat="43.5343967" lon="10.923975"><ele>413.0</ele><time>2026-04-04T09:26:33.013Z</time></trkpt><trkpt lat="43.5342033" lon="10.9239917"><ele>415.3333333333333</ele><time>2026-04-04T09:26:34.013Z</time></trkpt><trkpt lat="43.5340033" lon="10.9240117"><ele>417.66666666666663</ele><time>2026-04-04T09:26:35.012Z</time></trkpt><trkpt lat="43.5337983" lon="10.9240383"><ele>420.0</ele><time>2026-04-04T09:26:36.012Z</time></trkpt><trkpt lat="43.5335917" lon="10.9240667"><ele>423.0</ele><time>2026-04-04T09:26:37.013Z</time></trkpt><trkpt lat="43.5333867" lon="10.9240933"><ele>426.0</ele><time>2026-04-04T09:26:38.012Z</time></trkpt><trkpt lat="43.53319" lon="10.924115"><ele>429.0</ele><time>2026-04-04T09:26:39.012Z</time></trkpt><trkpt lat="43.5330033" lon="10.9241233"><ele>432.0</ele><time>2026-04-04T09:26:40.012Z</time></trkpt><trkpt lat="43.5328267" lon="10.9240983"><ele>435.0</ele><time>2026-04-04T09:26:41.012Z</time></trkpt><trkpt lat="43.532655" lon="10.92405"><ele>438.0</ele><time>2026-04-04T09:26:42.013Z</time></trkpt><trkpt lat="43.5324883" lon="10.923995"><ele>438.0</ele><time>2026-04-04T09:26:43.012Z</time></trkpt><trkpt lat="43.5323317" lon="10.9239717"><ele>438.0</ele><time>2026-04-04T09:26:44.014Z</time></trkpt><trkpt lat="43.532175" lon="10.9239933"><ele>438.0</ele><time>2026-04-04T09:26:45.013Z</time></trkpt><trkpt lat="43.5320367" lon="10.924075"><ele>438.25</ele><time>2026-04-04T09:26:46.013Z</time></trkpt><trkpt lat="43.53193" lon="10.9242067"><ele>438.5</ele><time>2026-04-04T09:26:47.013Z</time></trkpt><trkpt lat="43.53182" lon="10.92432"><ele>438.75</ele><time>2026-04-04T09:26:48.012Z</time></trkpt><trkpt lat="43.5317033" lon="10.9243867"><ele>439.0</ele><time>2026-04-04T09:26:49.013Z</time></trkpt><trkpt lat="43.53158" lon="10.9243983"><ele>439.0</ele><time>2026-04-04T09:26:50.013Z</time></trkpt><trkpt lat="43.5314617" lon="10.92436"><ele>439.0</ele><time>2026-04-04T09:26:51.013Z</time></trkpt><trkpt lat="43.5313317" lon="10.9243267"><ele>439.0</ele><time>2026-04-04T09:26:52.012Z</time></trkpt><trkpt lat="43.5311967" lon="10.9243367"><ele>439.0</ele><time>2026-04-04T09:26:53.012Z</time></trkpt><trkpt lat="43.53106" lon="10.9243983"><ele>442.75</ele><time>2026-04-04T09:26:54.014Z</time></trkpt><trkpt lat="43.5309383" lon="10.9244867"><ele>446.5</ele><time>2026-04-04T09:26:55.013Z</time></trkpt><trkpt lat="43.5308417" lon="10.9246067"><ele>450.25</ele><time>2026-04-04T09:26:56.013Z</time></trkpt><trkpt lat="43.5307717" lon="10.9247467"><ele>454.0</ele><time>2026-04-04T09:26:57.013Z</time></trkpt><trkpt lat="43.5307417" lon="10.924905"><ele>454.25</ele><time>2026-04-04T09:26:58.013Z</time></trkpt><trkpt lat="43.5307567" lon="10.9250733"><ele>454.5</ele><time>2026-04-04T09:26:59.012Z</time></trkpt><trkpt lat="43.5307817" lon="10.9252683"><ele>454.75</ele><time>2026-04-04T09:27:00.013Z</time></trkpt><trkpt lat="43.53081" lon="10.92549"><ele>455.0</ele><time>2026-04-04T09:27:01.011Z</time></trkpt><trkpt lat="43.5307817" lon="10.92572"><ele>454.3333333333333</ele><time>2026-04-04T09:27:02.013Z</time></trkpt><trkpt lat="43.5307467" lon="10.9259517"><ele>453.66666666666663</ele><time>2026-04-04T09:27:03.012Z</time></trkpt><trkpt lat="43.5307317" lon="10.9261833"><ele>453.0</ele><time>2026-04-04T09:27:04.013Z</time></trkpt><trkpt lat="43.5307217" lon="10.9264333"><ele>453.0</ele><time>2026-04-04T09:27:05.013Z</time></trkpt><trkpt lat="43.5307117" lon="10.9266917"><ele>453.0</ele><time>2026-04-04T09:27:06.013Z</time></trkpt><trkpt lat="43.5307117" lon="10.926945"><ele>453.0</ele><time>2026-04-04T09:27:07.014Z</time></trkpt><trkpt lat="43.5307117" lon="10.9271833"><ele>451.0</ele><time>2026-04-04T09:27:08.014Z</time></trkpt><trkpt lat="43.5306883" lon="10.92742"><ele>449.0</ele><time>2026-04-04T09:27:09.013Z</time></trkpt><trkpt lat="43.53064" lon="10.9276533"><ele>447.0</ele><time>2026-04-04T09:27:10.013Z</time></trkpt><trkpt lat="43.5305667" lon="10.92787"><ele>445.66666666666663</ele><time>2026-04-04T09:27:11.012Z</time></trkpt><trkpt lat="43.5304917" lon="10.92808"><ele>444.3333333333333</ele><time>2026-04-04T09:27:12.012Z</time></trkpt><trkpt lat="43.5304183" lon="10.9282767"><ele>443.0</ele><time>2026-04-04T09:27:13.013Z</time></trkpt><trkpt lat="43.5303517" lon="10.9284633"><ele>441.75</ele><time>2026-04-04T09:27:14.012Z</time></trkpt><trkpt lat="43.53029" lon="10.928625"><ele>440.5</ele><time>2026-04-04T09:27:15.012Z</time></trkpt><trkpt lat="43.5302167" lon="10.928765"><ele>439.25</ele><time>2026-04-04T09:27:16.013Z</time></trkpt><trkpt lat="43.5301317" lon="10.9288767"><ele>438.0</ele><time>2026-04-04T09:27:17.011Z</time></trkpt><trkpt lat="43.5300433" lon="10.928955"><ele>438.0</ele><time>2026-04-04T09:27:18.013Z</time></trkpt><trkpt lat="43.5299667" lon="10.929015"><ele>437.99999999999994</ele><time>2026-04-04T09:27:19.014Z</time></trkpt><trkpt lat="43.5298983" lon="10.9290567"><ele>437.99999999999994</ele><time>2026-04-04T09:27:20.013Z</time></trkpt><trkpt lat="43.5297967" lon="10.9291117"><ele>438.0</ele><time>2026-04-04T09:27:22.013Z</time></trkpt><trkpt lat="43.529705" lon="10.929145"><ele>438.0</ele><time>2026-04-04T09:27:24.011Z</time></trkpt><trkpt lat="43.5295817" lon="10.929135"><ele>436.75</ele><time>2026-04-04T09:27:26.013Z</time></trkpt><trkpt lat="43.529495" lon="10.9290917"><ele>435.5</ele><time>2026-04-04T09:27:27.012Z</time></trkpt><trkpt lat="43.5293833" lon="10.9290033"><ele>434.25</ele><time>2026-04-04T09:27:28.014Z</time></trkpt><trkpt lat="43.5292617" lon="10.928905"><ele>433.0</ele><time>2026-04-04T09:27:29.013Z</time></trkpt><trkpt lat="43.52913" lon="10.928805"><ele>433.0</ele><time>2026-04-04T09:27:30.012Z</time></trkpt><trkpt lat="43.5289867" lon="10.9287133"><ele>433.0</ele><time>2026-04-04T09:27:31.014Z</time></trkpt><trkpt lat="43.5288383" lon="10.9286267"><ele>433.0</ele><time>2026-04-04T09:27:32.013Z</time></trkpt><trkpt lat="43.5286733" lon="10.928565"><ele>432.25</ele><time>2026-04-04T09:27:33.011Z</time></trkpt><trkpt lat="43.5285133" lon="10.92853"><ele>431.5</ele><time>2026-04-04T09:27:34.012Z</time></trkpt><trkpt lat="43.528365" lon="10.9285167"><ele>430.75</ele><time>2026-04-04T09:27:35.013Z</time></trkpt><trkpt lat="43.5282283" lon="10.92852"><ele>430.0</ele><time>2026-04-04T09:27:36.012Z</time></trkpt><trkpt lat="43.5280883" lon="10.928535"><ele>430.0</ele><time>2026-04-04T09:27:37.012Z</time></trkpt><trkpt lat="43.5279333" lon="10.9285567"><ele>430.0</ele><time>2026-04-04T09:27:38.012Z</time></trkpt><trkpt lat="43.5277533" lon="10.9285567"><ele>430.0</ele><time>2026-04-04T09:27:39.013Z</time></trkpt><trkpt lat="43.527555" lon="10.9285667"><ele>429.6666666666667</ele><time>2026-04-04T09:27:40.012Z</time></trkpt><trkpt lat="43.52734" lon="10.92858"><ele>429.33333333333337</ele><time>2026-04-04T09:27:41.013Z</time></trkpt><trkpt lat="43.5271183" lon="10.92862"><ele>429.0</ele><time>2026-04-04T09:27:42.012Z</time></trkpt><trkpt lat="43.526895" lon="10.92865"><ele>428.66666666666663</ele><time>2026-04-04T09:27:43.013Z</time></trkpt><trkpt lat="43.5266833" lon="10.9286833"><ele>428.3333333333333</ele><time>2026-04-04T09:27:44.013Z</time></trkpt><trkpt lat="43.526485" lon="10.9287083"><ele>428.0</ele><time>2026-04-04T09:27:45.014Z</time></trkpt><trkpt lat="43.5262933" lon="10.92874"><ele>427.3333333333333</ele><time>2026-04-04T09:27:46.011Z</time></trkpt><trkpt lat="43.5260967" lon="10.92877"><ele>426.66666666666663</ele><time>2026-04-04T09:27:47.013Z</time></trkpt><trkpt lat="43.5258967" lon="10.9288"><ele>426.0</ele><time>2026-04-04T09:27:48.013Z</time></trkpt><trkpt lat="43.525695" lon="10.9288267"><ele>426.0</ele><time>2026-04-04T09:27:49.011Z</time></trkpt><trkpt lat="43.5254867" lon="10.92886"><ele>426.0</ele><time>2026-04-04T09:27:50.013Z</time></trkpt><trkpt lat="43.5252783" lon="10.92889"><ele>426.0</ele><time>2026-04-04T09:27:51.012Z</time></trkpt><trkpt lat="43.52507" lon="10.9289083"><ele>424.33333333333337</ele><time>2026-04-04T09:27:52.012Z</time></trkpt><trkpt lat="43.52486" lon="10.9289083"><ele>422.6666666666667</ele><time>2026-04-04T09:27:53.013Z</time></trkpt><trkpt lat="43.524645" lon="10.9288917"><ele>421.0</ele><time>2026-04-04T09:27:54.012Z</time></trkpt><trkpt lat="43.5244367" lon="10.9288517"><ele>421.0</ele><time>2026-04-04T09:27:55.013Z</time></trkpt><trkpt lat="43.5242467" lon="10.9288067"><ele>421.0</ele><time>2026-04-04T09:27:56.013Z</time></trkpt><trkpt lat="43.52407" lon="10.92877"><ele>421.0</ele><time>2026-04-04T09:27:57.014Z</time></trkpt><trkpt lat="43.5238867" lon="10.92873"><ele>421.6666666666667</ele><time>2026-04-04T09:27:58.013Z</time></trkpt><trkpt lat="43.5236917" lon="10.9286767"><ele>422.33333333333337</ele><time>2026-04-04T09:27:59.013Z</time></trkpt><trkpt lat="43.5234883" lon="10.9286083"><ele>423.0</ele><time>2026-04-04T09:28:00.012Z</time></trkpt><trkpt lat="43.523275" lon="10.928535"><ele>423.0</ele><time>2026-04-04T09:28:01.011Z</time></trkpt><trkpt lat="43.5230533" lon="10.9284267"><ele>423.0</ele><time>2026-04-04T09:28:02.013Z</time></trkpt><trkpt lat="43.52283" lon="10.9283"><ele>427.5</ele><time>2026-04-04T09:28:03.013Z</time></trkpt><trkpt lat="43.522605" lon="10.92817"><ele>432.0</ele><time>2026-04-04T09:28:04.011Z</time></trkpt><trkpt lat="43.52237" lon="10.928045"><ele>432.0</ele><time>2026-04-04T09:28:05.011Z</time></trkpt><trkpt lat="43.5221417" lon="10.9279333"><ele>432.0</ele><time>2026-04-04T09:28:06.011Z</time></trkpt><trkpt lat="43.5219217" lon="10.9278467"><ele>431.33333333333337</ele><time>2026-04-04T09:28:07.012Z</time></trkpt><trkpt lat="43.5217083" lon="10.9277767"><ele>430.6666666666667</ele><time>2026-04-04T09:28:08.012Z</time></trkpt><trkpt lat="43.521495" lon="10.9277117"><ele>430.0</ele><time>2026-04-04T09:28:09.012Z</time></trkpt><trkpt lat="43.521285" lon="10.9276533"><ele>431.6666666666667</ele><time>2026-04-04T09:28:10.012Z</time></trkpt><trkpt lat="43.5210733" lon="10.927595"><ele>433.33333333333337</ele><time>2026-04-04T09:28:11.012Z</time></trkpt><trkpt lat="43.520865" lon="10.92754"><ele>435.0</ele><time>2026-04-04T09:28:12.012Z</time></trkpt><trkpt lat="43.52066" lon="10.927485"><ele>435.66666666666663</ele><time>2026-04-04T09:28:13.014Z</time></trkpt><trkpt lat="43.52046" lon="10.9274283"><ele>436.3333333333333</ele><time>2026-04-04T09:28:14.013Z</time></trkpt><trkpt lat="43.5202633" lon="10.9273767"><ele>437.0</ele><time>2026-04-04T09:28:15.012Z</time></trkpt><trkpt lat="43.5200667" lon="10.9273233"><ele>438.0</ele><time>2026-04-04T09:28:16.013Z</time></trkpt><trkpt lat="43.519865" lon="10.9272733"><ele>439.0</ele><time>2026-04-04T09:28:17.012Z</time></trkpt><trkpt lat="43.5196617" lon="10.9272267"><ele>440.0</ele><time>2026-04-04T09:28:18.013Z</time></trkpt><trkpt lat="43.5194567" lon="10.92718"><ele>440.3333333333333</ele><time>2026-04-04T09:28:19.014Z</time></trkpt><trkpt lat="43.5192467" lon="10.9271417"><ele>440.66666666666663</ele><time>2026-04-04T09:28:20.012Z</time></trkpt><trkpt lat="43.5190267" lon="10.927115"><ele>441.0</ele><time>2026-04-04T09:28:21.012Z</time></trkpt><trkpt lat="43.5187983" lon="10.9270967"><ele>440.0</ele><time>2026-04-04T09:28:22.011Z</time></trkpt><trkpt lat="43.5185633" lon="10.9270783"><ele>439.0</ele><time>2026-04-04T09:28:23.013Z</time></trkpt><trkpt lat="43.5183217" lon="10.9270617"><ele>439.0</ele><time>2026-04-04T09:28:24.012Z</time></trkpt><trkpt lat="43.51808" lon="10.9270467"><ele>439.0</ele><time>2026-04-04T09:28:25.012Z</time></trkpt><trkpt lat="43.5178333" lon="10.927025"><ele>438.5</ele><time>2026-04-04T09:28:26.011Z</time></trkpt><trkpt lat="43.5175867" lon="10.927"><ele>438.0</ele><time>2026-04-04T09:28:27.011Z</time></trkpt><trkpt lat="43.5173417" lon="10.92697"><ele>438.0</ele><time>2026-04-04T09:28:28.011Z</time></trkpt><trkpt lat="43.5171" lon="10.9269467"><ele>438.0</ele><time>2026-04-04T09:28:29.01Z</time></trkpt><trkpt lat="43.5168683" lon="10.9269317"><ele>439.0</ele><time>2026-04-04T09:28:30.012Z</time></trkpt><trkpt lat="43.5166483" lon="10.9269217"><ele>440.0</ele><time>2026-04-04T09:28:31.012Z</time></trkpt><trkpt lat="43.5164467" lon="10.9269067"><ele>441.0</ele><time>2026-04-04T09:28:32.013Z</time></trkpt><trkpt lat="43.5162717" lon="10.9269117"><ele>445.0</ele><time>2026-04-04T09:28:33.011Z</time></trkpt><trkpt lat="43.5161133" lon="10.92697"><ele>449.0</ele><time>2026-04-04T09:28:34.012Z</time></trkpt><trkpt lat="43.51598" lon="10.9270833"><ele>453.0</ele><time>2026-04-04T09:28:35.012Z</time></trkpt><trkpt lat="43.5158767" lon="10.9272583"><ele>453.0</ele><time>2026-04-04T09:28:36.011Z</time></trkpt><trkpt lat="43.5157717" lon="10.9274733"><ele>453.0</ele><time>2026-04-04T09:28:37.011Z</time></trkpt><trkpt lat="43.5156667" lon="10.9277"><ele>453.0</ele><time>2026-04-04T09:28:38.01Z</time></trkpt><trkpt lat="43.5155083" lon="10.9279067"><ele>458.0</ele><time>2026-04-04T09:28:39.012Z</time></trkpt><trkpt lat="43.5153217" lon="10.9280967"><ele>463.0</ele><time>2026-04-04T09:28:40.012Z</time></trkpt><trkpt lat="43.515135" lon="10.9282717"><ele>463.6666666666667</ele><time>2026-04-04T09:28:41.012Z</time></trkpt><trkpt lat="43.51496" lon="10.9284267"><ele>464.33333333333337</ele><time>2026-04-04T09:28:42.011Z</time></trkpt><trkpt lat="43.51477" lon="10.9285333"><ele>465.0</ele><time>2026-04-04T09:28:43.012Z</time></trkpt><trkpt lat="43.514575" lon="10.9285933"><ele>468.66666666666663</ele><time>2026-04-04T09:28:44.013Z</time></trkpt><trkpt lat="43.5143883" lon="10.9286183"><ele>472.3333333333333</ele><time>2026-04-04T09:28:45.013Z</time></trkpt><trkpt lat="43.514215" lon="10.92866"><ele>476.0</ele><time>2026-04-04T09:28:46.013Z</time></trkpt><trkpt lat="43.51404" lon="10.928735"><ele>476.0</ele><time>2026-04-04T09:28:47.011Z</time></trkpt><trkpt lat="43.5138717" lon="10.9288667"><ele>476.0</ele><time>2026-04-04T09:28:48.012Z</time></trkpt><trkpt lat="43.51371" lon="10.9290383"><ele>476.0</ele><time>2026-04-04T09:28:49.012Z</time></trkpt><trkpt lat="43.513565" lon="10.9292433"><ele>477.66666666666663</ele><time>2026-04-04T09:28:50.01Z</time></trkpt><trkpt lat="43.513435" lon="10.929475"><ele>479.33333333333337</ele><time>2026-04-04T09:28:51.012Z</time></trkpt><trkpt lat="43.51333" lon="10.9297033"><ele>481.0</ele><time>2026-04-04T09:28:52.011Z</time></trkpt><trkpt lat="43.5132183" lon="10.929905"><ele>481.33333333333337</ele><time>2026-04-04T09:28:53.012Z</time></trkpt><trkpt lat="43.513075" lon="10.9300583"><ele>481.66666666666663</ele><time>2026-04-04T09:28:54.012Z</time></trkpt><trkpt lat="43.5129083" lon="10.93016"><ele>482.0</ele><time>2026-04-04T09:28:55.011Z</time></trkpt><trkpt lat="43.5127217" lon="10.93021"><ele>482.66666666666663</ele><time>2026-04-04T09:28:56.011Z</time></trkpt><trkpt lat="43.5125183" lon="10.9302117"><ele>483.33333333333337</ele><time>2026-04-04T09:28:57.011Z</time></trkpt><trkpt lat="43.5123033" lon="10.930175"><ele>484.0</ele><time>2026-04-04T09:28:58.011Z</time></trkpt><trkpt lat="43.5120783" lon="10.93012"><ele>485.0</ele><time>2026-04-04T09:28:59.013Z</time></trkpt><trkpt lat="43.5118417" lon="10.9300533"><ele>486.0</ele><time>2026-04-04T09:29:00.012Z</time></trkpt><trkpt lat="43.5116117" lon="10.92996"><ele>486.0</ele><time>2026-04-04T09:29:01.01Z</time></trkpt><trkpt lat="43.51139" lon="10.9298383"><ele>486.0</ele><time>2026-04-04T09:29:02.013Z</time></trkpt><trkpt lat="43.5111733" lon="10.9296933"><ele>489.5</ele><time>2026-04-04T09:29:03.012Z</time></trkpt><trkpt lat="43.5109667" lon="10.929545"><ele>493.0</ele><time>2026-04-04T09:29:04.012Z</time></trkpt><trkpt lat="43.510765" lon="10.9294033"><ele>493.0</ele><time>2026-04-04T09:29:05.011Z</time></trkpt><trkpt lat="43.510575" lon="10.9292717"><ele>493.0</ele><time>2026-04-04T09:29:06.009Z</time></trkpt><trkpt lat="43.510395" lon="10.9291533"><ele>493.0</ele><time>2026-04-04T09:29:07.012Z</time></trkpt><trkpt lat="43.5102183" lon="10.9290417"><ele>492.33333333333337</ele><time>2026-04-04T09:29:08.011Z</time></trkpt><trkpt lat="43.51004" lon="10.9289383"><ele>491.66666666666663</ele><time>2026-04-04T09:29:09.012Z</time></trkpt><trkpt lat="43.5098517" lon="10.9288367"><ele>491.0</ele><time>2026-04-04T09:29:10.011Z</time></trkpt><trkpt lat="43.5096567" lon="10.9287433"><ele>488.66666666666663</ele><time>2026-04-04T09:29:11.013Z</time></trkpt><trkpt lat="43.509455" lon="10.92866"><ele>486.33333333333337</ele><time>2026-04-04T09:29:12.012Z</time></trkpt><trkpt lat="43.5092467" lon="10.9286"><ele>484.0</ele><time>2026-04-04T09:29:13.011Z</time></trkpt><trkpt lat="43.5090367" lon="10.9285767"><ele>484.0</ele><time>2026-04-04T09:29:14.012Z</time></trkpt><trkpt lat="43.508825" lon="10.9285833"><ele>484.0</ele><time>2026-04-04T09:29:15.012Z</time></trkpt><trkpt lat="43.508615" lon="10.928605"><ele>484.0</ele><time>2026-04-04T09:29:16.012Z</time></trkpt><trkpt lat="43.5084167" lon="10.928625"><ele>486.0</ele><time>2026-04-04T09:29:17.012Z</time></trkpt><trkpt lat="43.5082233" lon="10.9286417"><ele>488.0</ele><time>2026-04-04T09:29:18.012Z</time></trkpt><trkpt lat="43.508035" lon="10.9286517"><ele>490.0</ele><time>2026-04-04T09:29:19.012Z</time></trkpt><trkpt lat="43.5078567" lon="10.92866"><ele>491.33333333333337</ele><time>2026-04-04T09:29:20.012Z</time></trkpt><trkpt lat="43.5076817" lon="10.928675"><ele>492.66666666666663</ele><time>2026-04-04T09:29:21.013Z</time></trkpt><trkpt lat="43.5075083" lon="10.9286933"><ele>494.0</ele><time>2026-04-04T09:29:22.011Z</time></trkpt><trkpt lat="43.5073317" lon="10.928705"><ele>494.0</ele><time>2026-04-04T09:29:23.012Z</time></trkpt><trkpt lat="43.5071667" lon="10.9287383"><ele>494.0</ele><time>2026-04-04T09:29:24.012Z</time></trkpt><trkpt lat="43.5070083" lon="10.9287767"><ele>494.0</ele><time>2026-04-04T09:29:25.012Z</time></trkpt><trkpt lat="43.5068583" lon="10.92882"><ele>496.0</ele><time>2026-04-04T09:29:26.012Z</time></trkpt><trkpt lat="43.50673" lon="10.9288717"><ele>498.0</ele><time>2026-04-04T09:29:27.011Z</time></trkpt><trkpt lat="43.506625" lon="10.9289517"><ele>500.0</ele><time>2026-04-04T09:29:28.012Z</time></trkpt><trkpt lat="43.50654" lon="10.9290533"><ele>502.0</ele><time>2026-04-04T09:29:29.011Z</time></trkpt><trkpt lat="43.5064783" lon="10.9291733"><ele>502.20000000000005</ele><time>2026-04-04T09:29:30.013Z</time></trkpt><trkpt lat="43.50643" lon="10.9293017"><ele>502.40000000000003</ele><time>2026-04-04T09:29:31.013Z</time></trkpt><trkpt lat="43.5063767" lon="10.9294233"><ele>502.59999999999997</ele><time>2026-04-04T09:29:32.012Z</time></trkpt><trkpt lat="43.5062983" lon="10.9295217"><ele>502.79999999999995</ele><time>2026-04-04T09:29:33.012Z</time></trkpt><trkpt lat="43.5062017" lon="10.9295867"><ele>503.0</ele><time>2026-04-04T09:29:34.011Z</time></trkpt><trkpt lat="43.5060983" lon="10.92963"><ele>503.0</ele><time>2026-04-04T09:29:35.01Z</time></trkpt><trkpt lat="43.5059633" lon="10.9296367"><ele>503.0</ele><time>2026-04-04T09:29:36.011Z</time></trkpt><trkpt lat="43.5058017" lon="10.9296317"><ele>503.0</ele><time>2026-04-04T09:29:37.011Z</time></trkpt><trkpt lat="43.505615" lon="10.929615"><ele>503.0</ele><time>2026-04-04T09:29:38.013Z</time></trkpt><trkpt lat="43.505425" lon="10.9295917"><ele>503.0</ele><time>2026-04-04T09:29:39.012Z</time></trkpt><trkpt lat="43.5052383" lon="10.9295817"><ele>503.0</ele><time>2026-04-04T09:29:40.011Z</time></trkpt><trkpt lat="43.5050633" lon="10.9295683"><ele>506.0</ele><time>2026-04-04T09:29:41.013Z</time></trkpt><trkpt lat="43.5048933" lon="10.9295467"><ele>509.0</ele><time>2026-04-04T09:29:42.012Z</time></trkpt><trkpt lat="43.5047367" lon="10.92952"><ele>512.0</ele><time>2026-04-04T09:29:43.012Z</time></trkpt><trkpt lat="43.5045783" lon="10.929485"><ele>514.5</ele><time>2026-04-04T09:29:44.013Z</time></trkpt><trkpt lat="43.5044317" lon="10.929445"><ele>517.0</ele><time>2026-04-04T09:29:45.012Z</time></trkpt><trkpt lat="43.5042883" lon="10.929405"><ele>519.5</ele><time>2026-04-04T09:29:46.012Z</time></trkpt><trkpt lat="43.5041467" lon="10.9293567"><ele>522.0</ele><time>2026-04-04T09:29:47.012Z</time></trkpt><trkpt lat="43.5039967" lon="10.9293133"><ele>522.0</ele><time>2026-04-04T09:29:48.012Z</time></trkpt><trkpt lat="43.50383" lon="10.92926"><ele>522.0</ele><time>2026-04-04T09:29:49.013Z</time></trkpt><trkpt lat="43.5036433" lon="10.929195"><ele>522.0</ele><time>2026-04-04T09:29:50.012Z</time></trkpt><trkpt lat="43.50345" lon="10.929115"><ele>521.0</ele><time>2026-04-04T09:29:51.013Z</time></trkpt><trkpt lat="43.503245" lon="10.92903"><ele>520.0</ele><time>2026-04-04T09:29:52.012Z</time></trkpt><trkpt lat="43.50304" lon="10.9289433"><ele>519.0</ele><time>2026-04-04T09:29:53.012Z</time></trkpt><trkpt lat="43.50282" lon="10.928855"><ele>517.0</ele><time>2026-04-04T09:29:54.011Z</time></trkpt><trkpt lat="43.5025983" lon="10.9287733"><ele>515.0</ele><time>2026-04-04T09:29:55.012Z</time></trkpt><trkpt lat="43.502375" lon="10.92869"><ele>515.0</ele><time>2026-04-04T09:29:56.012Z</time></trkpt><trkpt lat="43.502145" lon="10.9286033"><ele>515.0</ele><time>2026-04-04T09:29:57.012Z</time></trkpt><trkpt lat="43.5019167" lon="10.92851"><ele>514.5</ele><time>2026-04-04T09:29:58.012Z</time></trkpt><trkpt lat="43.5016867" lon="10.9284067"><ele>514.0</ele><time>2026-04-04T09:29:59.011Z</time></trkpt><trkpt lat="43.5014567" lon="10.9283167"><ele>512.0</ele><time>2026-04-04T09:30:00.013Z</time></trkpt><trkpt lat="43.5012233" lon="10.9282283"><ele>510.0</ele><time>2026-04-04T09:30:01.012Z</time></trkpt><trkpt lat="43.5009833" lon="10.9281433"><ele>510.0</ele><time>2026-04-04T09:30:02.012Z</time></trkpt><trkpt lat="43.500745" lon="10.928055"><ele>510.0</ele><time>2026-04-04T09:30:03.013Z</time></trkpt><trkpt lat="43.5005133" lon="10.9279783"><ele>509.5</ele><time>2026-04-04T09:30:04.012Z</time></trkpt><trkpt lat="43.5002783" lon="10.9279033"><ele>509.0</ele><time>2026-04-04T09:30:05.012Z</time></trkpt><trkpt lat="43.500035" lon="10.9278367"><ele>509.0</ele><time>2026-04-04T09:30:06.013Z</time></trkpt><trkpt lat="43.4997917" lon="10.92778"><ele>509.0</ele><time>2026-04-04T09:30:07.013Z</time></trkpt><trkpt lat="43.4995517" lon="10.9277217"><ele>509.0</ele><time>2026-04-04T09:30:08.013Z</time></trkpt><trkpt lat="43.49931" lon="10.9276633"><ele>509.0</ele><time>2026-04-04T09:30:09.013Z</time></trkpt><trkpt lat="43.4990717" lon="10.9275983"><ele>511.5</ele><time>2026-04-04T09:30:10.012Z</time></trkpt><trkpt lat="43.4988333" lon="10.927535"><ele>514.0</ele><time>2026-04-04T09:30:11.013Z</time></trkpt><trkpt lat="43.4986017" lon="10.927455"><ele>514.0</ele><time>2026-04-04T09:30:12.012Z</time></trkpt><trkpt lat="43.498385" lon="10.9273817"><ele>514.0</ele><time>2026-04-04T09:30:13.011Z</time></trkpt><trkpt lat="43.498175" lon="10.9273167"><ele>514.0</ele><time>2026-04-04T09:30:14.01Z</time></trkpt><trkpt lat="43.49797" lon="10.9272567"><ele>512.6666666666667</ele><time>2026-04-04T09:30:15.013Z</time></trkpt><trkpt lat="43.4977567" lon="10.927205"><ele>511.33333333333337</ele><time>2026-04-04T09:30:16.012Z</time></trkpt><trkpt lat="43.4975383" lon="10.9271633"><ele>510.0</ele><time>2026-04-04T09:30:17.013Z</time></trkpt><trkpt lat="43.49732" lon="10.9271283"><ele>510.0</ele><time>2026-04-04T09:30:18.012Z</time></trkpt><trkpt lat="43.4971117" lon="10.9271133"><ele>510.0</ele><time>2026-04-04T09:30:19.012Z</time></trkpt><trkpt lat="43.4969133" lon="10.927085"><ele>510.0</ele><time>2026-04-04T09:30:20.012Z</time></trkpt><trkpt lat="43.4967333" lon="10.9270483"><ele>510.33333333333337</ele><time>2026-04-04T09:30:21.012Z</time></trkpt><trkpt lat="43.496575" lon="10.9269917"><ele>510.6666666666667</ele><time>2026-04-04T09:30:22.011Z</time></trkpt><trkpt lat="43.4964367" lon="10.9269"><ele>511.0</ele><time>2026-04-04T09:30:23.013Z</time></trkpt><trkpt lat="43.49631" lon="10.92677"><ele>509.0</ele><time>2026-04-04T09:30:24.014Z</time></trkpt><trkpt lat="43.4961983" lon="10.9265983"><ele>507.0</ele><time>2026-04-04T09:30:25.012Z</time></trkpt><trkpt lat="43.496095" lon="10.9264183"><ele>505.0</ele><time>2026-04-04T09:30:26.012Z</time></trkpt><trkpt lat="43.4959933" lon="10.9262583"><ele>505.0</ele><time>2026-04-04T09:30:27.012Z</time></trkpt><trkpt lat="43.495885" lon="10.9261333"><ele>505.0</ele><time>2026-04-04T09:30:28.012Z</time></trkpt><trkpt lat="43.49576" lon="10.9260767"><ele>505.0</ele><time>2026-04-04T09:30:29.012Z</time></trkpt><trkpt lat="43.4956233" lon="10.926085"><ele>505.0</ele><time>2026-04-04T09:30:30.011Z</time></trkpt><trkpt lat="43.4954783" lon="10.9261183"><ele>502.75</ele><time>2026-04-04T09:30:31.011Z</time></trkpt><trkpt lat="43.4953583" lon="10.9261367"><ele>500.5</ele><time>2026-04-04T09:30:32.012Z</time></trkpt><trkpt lat="43.4952233" lon="10.9261283"><ele>498.25</ele><time>2026-04-04T09:30:33.014Z</time></trkpt><trkpt lat="43.4950867" lon="10.9260967"><ele>496.0</ele><time>2026-04-04T09:30:34.012Z</time></trkpt><trkpt lat="43.4949517" lon="10.92608"><ele>496.0</ele><time>2026-04-04T09:30:35.012Z</time></trkpt><trkpt lat="43.4948067" lon="10.9261167"><ele>496.0</ele><time>2026-04-04T09:30:36.012Z</time></trkpt><trkpt lat="43.4946517" lon="10.9261933"><ele>496.0</ele><time>2026-04-04T09:30:37.012Z</time></trkpt><trkpt lat="43.4945083" lon="10.9262967"><ele>496.6666666666667</ele><time>2026-04-04T09:30:38.012Z</time></trkpt><trkpt lat="43.49437" lon="10.9263983"><ele>497.33333333333337</ele><time>2026-04-04T09:30:39.013Z</time></trkpt><trkpt lat="43.49423" lon="10.9264967"><ele>498.0</ele><time>2026-04-04T09:30:40.013Z</time></trkpt><trkpt lat="43.4940883" lon="10.9265983"><ele>498.0</ele><time>2026-04-04T09:30:41.012Z</time></trkpt><trkpt lat="43.4939433" lon="10.9267067"><ele>498.0</ele><time>2026-04-04T09:30:42.012Z</time></trkpt><trkpt lat="43.493805" lon="10.9268183"><ele>498.0</ele><time>2026-04-04T09:30:43.012Z</time></trkpt><trkpt lat="43.49368" lon="10.9269383"><ele>498.0</ele><time>2026-04-04T09:30:44.012Z</time></trkpt><trkpt lat="43.49357" lon="10.9270783"><ele>498.0</ele><time>2026-04-04T09:30:45.013Z</time></trkpt><trkpt lat="43.4934633" lon="10.9272333"><ele>498.0</ele><time>2026-04-04T09:30:46.01Z</time></trkpt><trkpt lat="43.49336" lon="10.92739"><ele>498.0</ele><time>2026-04-04T09:30:47.011Z</time></trkpt><trkpt lat="43.4932583" lon="10.9275417"><ele>498.0</ele><time>2026-04-04T09:30:48.011Z</time></trkpt><trkpt lat="43.4931533" lon="10.9276933"><ele>498.0</ele><time>2026-04-04T09:30:49.012Z</time></trkpt><trkpt lat="43.493045" lon="10.9278517"><ele>497.0</ele><time>2026-04-04T09:30:50.011Z</time></trkpt><trkpt lat="43.49294" lon="10.9280033"><ele>496.0</ele><time>2026-04-04T09:30:51.013Z</time></trkpt><trkpt lat="43.4928383" lon="10.9281533"><ele>495.0</ele><time>2026-04-04T09:30:52.012Z</time></trkpt><trkpt lat="43.49274" lon="10.9283"><ele>494.0</ele><time>2026-04-04T09:30:53.012Z</time></trkpt><trkpt lat="43.49264" lon="10.9284367"><ele>491.5</ele><time>2026-04-04T09:30:54.011Z</time></trkpt><trkpt lat="43.49254" lon="10.9285567"><ele>489.0</ele><time>2026-04-04T09:30:55.012Z</time></trkpt><trkpt lat="43.49244" lon="10.9286567"><ele>486.5</ele><time>2026-04-04T09:30:56.011Z</time></trkpt><trkpt lat="43.4923283" lon="10.9287283"><ele>484.0</ele><time>2026-04-04T09:30:57.012Z</time></trkpt><trkpt lat="43.492215" lon="10.928775"><ele>484.5</ele><time>2026-04-04T09:30:58.011Z</time></trkpt><trkpt lat="43.4920867" lon="10.9287917"><ele>485.0</ele><time>2026-04-04T09:30:59.012Z</time></trkpt><trkpt lat="43.4919517" lon="10.928775"><ele>485.5</ele><time>2026-04-04T09:31:00.013Z</time></trkpt><trkpt lat="43.491815" lon="10.92873"><ele>486.0</ele><time>2026-04-04T09:31:01.011Z</time></trkpt><trkpt lat="43.4916833" lon="10.9286583"><ele>486.0</ele><time>2026-04-04T09:31:02.012Z</time></trkpt><trkpt lat="43.4915583" lon="10.9285817"><ele>486.0</ele><time>2026-04-04T09:31:03.012Z</time></trkpt><trkpt lat="43.4914367" lon="10.9285167"><ele>486.0</ele><time>2026-04-04T09:31:04.013Z</time></trkpt><trkpt lat="43.4913117" lon="10.9284983"><ele>486.0</ele><time>2026-04-04T09:31:05.012Z</time></trkpt><trkpt lat="43.4911883" lon="10.9285517"><ele>483.25</ele><time>2026-04-04T09:31:06.012Z</time></trkpt><trkpt lat="43.4910717" lon="10.92865"><ele>480.5</ele><time>2026-04-04T09:31:07.012Z</time></trkpt><trkpt lat="43.4909733" lon="10.9287917"><ele>477.75</ele><time>2026-04-04T09:31:08.012Z</time></trkpt><trkpt lat="43.490895" lon="10.9289517"><ele>475.0</ele><time>2026-04-04T09:31:09.013Z</time></trkpt><trkpt lat="43.490835" lon="10.9291233"><ele>476.25</ele><time>2026-04-04T09:31:10.014Z</time></trkpt><trkpt lat="43.49077" lon="10.929295"><ele>477.5</ele><time>2026-04-04T09:31:11.012Z</time></trkpt><trkpt lat="43.4907033" lon="10.9294667"><ele>478.75</ele><time>2026-04-04T09:31:12.013Z</time></trkpt><trkpt lat="43.4906283" lon="10.9296417"><ele>480.0</ele><time>2026-04-04T09:31:13.011Z</time></trkpt><trkpt lat="43.49055" lon="10.92981"><ele>480.0</ele><time>2026-04-04T09:31:14.014Z</time></trkpt><trkpt lat="43.490475" lon="10.92998"><ele>480.0</ele><time>2026-04-04T09:31:15.013Z</time></trkpt><trkpt lat="43.4904" lon="10.930145"><ele>480.0</ele><time>2026-04-04T09:31:16.012Z</time></trkpt><trkpt lat="43.4903333" lon="10.9303"><ele>480.0</ele><time>2026-04-04T09:31:17.011Z</time></trkpt><trkpt lat="43.4902717" lon="10.9304567"><ele>476.4</ele><time>2026-04-04T09:31:18.012Z</time></trkpt><trkpt lat="43.49022" lon="10.9306067"><ele>472.8</ele><time>2026-04-04T09:31:19.011Z</time></trkpt><trkpt lat="43.4901733" lon="10.9307533"><ele>469.20000000000005</ele><time>2026-04-04T09:31:20.012Z</time></trkpt><trkpt lat="43.4901583" lon="10.930905"><ele>465.6</ele><time>2026-04-04T09:31:21.012Z</time></trkpt><trkpt lat="43.4901483" lon="10.9310383"><ele>462.0</ele><time>2026-04-04T09:31:22.013Z</time></trkpt><trkpt lat="43.4901367" lon="10.9311917"><ele>461.8</ele><time>2026-04-04T09:31:23.011Z</time></trkpt><trkpt lat="43.4901383" lon="10.9313317"><ele>461.6</ele><time>2026-04-04T09:31:24.012Z</time></trkpt><trkpt lat="43.4901567" lon="10.9314517"><ele>461.40000000000003</ele><time>2026-04-04T09:31:25.014Z</time></trkpt><trkpt lat="43.4901567" lon="10.931585"><ele>461.20000000000005</ele><time>2026-04-04T09:31:26.012Z</time></trkpt><trkpt lat="43.490155" lon="10.93172"><ele>461.0</ele><time>2026-04-04T09:31:27.012Z</time></trkpt><trkpt lat="43.49015" lon="10.93186"><ele>460.49999999999994</ele><time>2026-04-04T09:31:28.012Z</time></trkpt><trkpt lat="43.4901467" lon="10.9319933"><ele>460.0</ele><time>2026-04-04T09:31:29.012Z</time></trkpt><trkpt lat="43.490145" lon="10.93212"><ele>459.5</ele><time>2026-04-04T09:31:30.011Z</time></trkpt><trkpt lat="43.4901367" lon="10.9322383"><ele>459.0</ele><time>2026-04-04T09:31:31.012Z</time></trkpt><trkpt lat="43.4901183" lon="10.932345"><ele>458.49999999999994</ele><time>2026-04-04T09:31:32.012Z</time></trkpt><trkpt lat="43.49008" lon="10.9324333"><ele>458.0</ele><time>2026-04-04T09:31:33.012Z</time></trkpt><trkpt lat="43.49001" lon="10.9324833"><ele>458.0</ele><time>2026-04-04T09:31:34.011Z</time></trkpt><trkpt lat="43.4899167" lon="10.9324567"><ele>458.0</ele><time>2026-04-04T09:31:35.011Z</time></trkpt><trkpt lat="43.4898333" lon="10.93237"><ele>458.0</ele><time>2026-04-04T09:31:36.013Z</time></trkpt><trkpt lat="43.4897767" lon="10.932225"><ele>458.0</ele><time>2026-04-04T09:31:37.013Z</time></trkpt><trkpt lat="43.4897467" lon="10.93202"><ele>458.0</ele><time>2026-04-04T09:31:38.012Z</time></trkpt><trkpt lat="43.4897267" lon="10.931775"><ele>458.0</ele><time>2026-04-04T09:31:39.011Z</time></trkpt><trkpt lat="43.4897033" lon="10.9315217"><ele>458.0</ele><time>2026-04-04T09:31:40.012Z</time></trkpt><trkpt lat="43.4896767" lon="10.93126"><ele>459.0</ele><time>2026-04-04T09:31:41.012Z</time></trkpt><trkpt lat="43.4896483" lon="10.93099"><ele>460.0</ele><time>2026-04-04T09:31:42.011Z</time></trkpt><trkpt lat="43.4896183" lon="10.9307117"><ele>461.0</ele><time>2026-04-04T09:31:43.012Z</time></trkpt><trkpt lat="43.489575" lon="10.9304183"><ele>449.5</ele><time>2026-04-04T09:31:44.011Z</time></trkpt><trkpt lat="43.4895033" lon="10.93012"><ele>438.0</ele><time>2026-04-04T09:31:45.012Z</time></trkpt><trkpt lat="43.489415" lon="10.9298183"><ele>437.66666666666663</ele><time>2026-04-04T09:31:46.011Z</time></trkpt><trkpt lat="43.4893333" lon="10.929525"><ele>437.3333333333333</ele><time>2026-04-04T09:31:47.012Z</time></trkpt><trkpt lat="43.489265" lon="10.92924"><ele>437.0</ele><time>2026-04-04T09:31:48.01Z</time></trkpt><trkpt lat="43.4892217" lon="10.9289617"><ele>436.66666666666663</ele><time>2026-04-04T09:31:49.011Z</time></trkpt><trkpt lat="43.4892183" lon="10.9286817"><ele>436.33333333333337</ele><time>2026-04-04T09:31:50.01Z</time></trkpt><trkpt lat="43.489235" lon="10.9284033"><ele>436.0</ele><time>2026-04-04T09:31:51.013Z</time></trkpt><trkpt lat="43.4892567" lon="10.928115"><ele>435.33333333333337</ele><time>2026-04-04T09:31:52.012Z</time></trkpt><trkpt lat="43.4892733" lon="10.9278233"><ele>434.66666666666663</ele><time>2026-04-04T09:31:53.011Z</time></trkpt><trkpt lat="43.4892933" lon="10.9275283"><ele>434.0</ele><time>2026-04-04T09:31:54.012Z</time></trkpt><trkpt lat="43.4893167" lon="10.9272317"><ele>433.0</ele><time>2026-04-04T09:31:55.012Z</time></trkpt><trkpt lat="43.4893483" lon="10.9269267"><ele>432.0</ele><time>2026-04-04T09:31:56.011Z</time></trkpt><trkpt lat="43.4893883" lon="10.9266167"><ele>428.5</ele><time>2026-04-04T09:31:57.012Z</time></trkpt><trkpt lat="43.4894333" lon="10.9263017"><ele>425.0</ele><time>2026-04-04T09:31:58.011Z</time></trkpt><trkpt lat="43.489475" lon="10.925985"><ele>421.0</ele><time>2026-04-04T09:31:59.013Z</time></trkpt><trkpt lat="43.48952" lon="10.9256683"><ele>417.0</ele><time>2026-04-04T09:32:00.012Z</time></trkpt><trkpt lat="43.4895667" lon="10.9253533"><ele>421.0</ele><time>2026-04-04T09:32:01.011Z</time></trkpt><trkpt lat="43.489615" lon="10.9250433"><ele>425.0</ele><time>2026-04-04T09:32:02.012Z</time></trkpt><trkpt lat="43.489665" lon="10.92474"><ele>425.0</ele><time>2026-04-04T09:32:03.013Z</time></trkpt><trkpt lat="43.48971" lon="10.9244533"><ele>425.0</ele><time>2026-04-04T09:32:04.013Z</time></trkpt><trkpt lat="43.4897533" lon="10.924185"><ele>425.0</ele><time>2026-04-04T09:32:05.011Z</time></trkpt><trkpt lat="43.48979" lon="10.9239283"><ele>425.0</ele><time>2026-04-04T09:32:06.013Z</time></trkpt><trkpt lat="43.4898233" lon="10.9236867"><ele>425.0</ele><time>2026-04-04T09:32:07.014Z</time></trkpt><trkpt lat="43.489855" lon="10.92346"><ele>425.0</ele><time>2026-04-04T09:32:08.013Z</time></trkpt><trkpt lat="43.489865" lon="10.92325"><ele>425.0</ele><time>2026-04-04T09:32:09.013Z</time></trkpt><trkpt lat="43.4898333" lon="10.9230667"><ele>425.0</ele><time>2026-04-04T09:32:10.012Z</time></trkpt><trkpt lat="43.4897867" lon="10.9229133"><ele>425.0</ele><time>2026-04-04T09:32:11.012Z</time></trkpt><trkpt lat="43.489715" lon="10.9227733"><ele>425.0</ele><time>2026-04-04T09:32:12.012Z</time></trkpt><trkpt lat="43.4895883" lon="10.9226683"><ele>422.0</ele><time>2026-04-04T09:32:13.012Z</time></trkpt><trkpt lat="43.4894383" lon="10.922575"><ele>419.0</ele><time>2026-04-04T09:32:14.014Z</time></trkpt><trkpt lat="43.4892867" lon="10.9224617"><ele>416.0</ele><time>2026-04-04T09:32:15.013Z</time></trkpt><trkpt lat="43.4891383" lon="10.922325"><ele>416.0</ele><time>2026-04-04T09:32:16.012Z</time></trkpt><trkpt lat="43.4890083" lon="10.9221533"><ele>416.0</ele><time>2026-04-04T09:32:17.011Z</time></trkpt><trkpt lat="43.48889" lon="10.9219567"><ele>416.0</ele><time>2026-04-04T09:32:18.012Z</time></trkpt><trkpt lat="43.4887683" lon="10.921735"><ele>412.0</ele><time>2026-04-04T09:32:19.01Z</time></trkpt><trkpt lat="43.4886317" lon="10.9215183"><ele>408.0</ele><time>2026-04-04T09:32:20.011Z</time></trkpt><trkpt lat="43.4884833" lon="10.9213067"><ele>404.0</ele><time>2026-04-04T09:32:21.012Z</time></trkpt><trkpt lat="43.4883183" lon="10.921105"><ele>401.66666666666663</ele><time>2026-04-04T09:32:22.01Z</time></trkpt><trkpt lat="43.4881567" lon="10.920895"><ele>399.33333333333337</ele><time>2026-04-04T09:32:23.012Z</time></trkpt><trkpt lat="43.4879933" lon="10.9206867"><ele>397.0</ele><time>2026-04-04T09:32:24.012Z</time></trkpt><trkpt lat="43.48783" lon="10.9204783"><ele>397.0</ele><time>2026-04-04T09:32:25.013Z</time></trkpt><trkpt lat="43.4876633" lon="10.920265"><ele>397.0</ele><time>2026-04-04T09:32:26.011Z</time></trkpt><trkpt lat="43.4874967" lon="10.9200583"><ele>395.0</ele><time>2026-04-04T09:32:27.012Z</time></trkpt><trkpt lat="43.4873317" lon="10.9198533"><ele>393.0</ele><time>2026-04-04T09:32:28.012Z</time></trkpt><trkpt lat="43.4871683" lon="10.91965"><ele>391.0</ele><time>2026-04-04T09:32:29.012Z</time></trkpt><trkpt lat="43.487005" lon="10.9194383"><ele>391.0</ele><time>2026-04-04T09:32:30.012Z</time></trkpt><trkpt lat="43.486845" lon="10.919235"><ele>391.0</ele><time>2026-04-04T09:32:31.01Z</time></trkpt><trkpt lat="43.4866833" lon="10.9190283"><ele>391.0</ele><time>2026-04-04T09:32:32.012Z</time></trkpt><trkpt lat="43.4865283" lon="10.9188267"><ele>391.0</ele><time>2026-04-04T09:32:33.013Z</time></trkpt><trkpt lat="43.4863783" lon="10.918625"><ele>391.0</ele><time>2026-04-04T09:32:34.012Z</time></trkpt><trkpt lat="43.4862283" lon="10.9184333"><ele>391.0</ele><time>2026-04-04T09:32:35.012Z</time></trkpt><trkpt lat="43.4860783" lon="10.9182467"><ele>391.0</ele><time>2026-04-04T09:32:36.012Z</time></trkpt><trkpt lat="43.4859483" lon="10.918035"><ele>391.0</ele><time>2026-04-04T09:32:37.011Z</time></trkpt><trkpt lat="43.4858367" lon="10.9177983"><ele>391.0</ele><time>2026-04-04T09:32:38.012Z</time></trkpt><trkpt lat="43.4857333" lon="10.9175533"><ele>393.6666666666667</ele><time>2026-04-04T09:32:39.011Z</time></trkpt><trkpt lat="43.4856433" lon="10.917285"><ele>396.33333333333337</ele><time>2026-04-04T09:32:40.013Z</time></trkpt><trkpt lat="43.485555" lon="10.9170133"><ele>399.0</ele><time>2026-04-04T09:32:41.013Z</time></trkpt><trkpt lat="43.4854567" lon="10.9167467"><ele>393.6666666666667</ele><time>2026-04-04T09:32:42.012Z</time></trkpt><trkpt lat="43.48536" lon="10.916475"><ele>388.33333333333337</ele><time>2026-04-04T09:32:43.012Z</time></trkpt><trkpt lat="43.4852683" lon="10.91619"><ele>383.0</ele><time>2026-04-04T09:32:44.012Z</time></trkpt><trkpt lat="43.4851733" lon="10.9159083"><ele>385.33333333333337</ele><time>2026-04-04T09:32:45.013Z</time></trkpt><trkpt lat="43.4850767" lon="10.9156283"><ele>387.6666666666667</ele><time>2026-04-04T09:32:46.012Z</time></trkpt><trkpt lat="43.4849767" lon="10.9153583"><ele>390.0</ele><time>2026-04-04T09:32:47.012Z</time></trkpt><trkpt lat="43.4848817" lon="10.9150817"><ele>392.33333333333337</ele><time>2026-04-04T09:32:48.011Z</time></trkpt><trkpt lat="43.4847983" lon="10.914805"><ele>394.6666666666667</ele><time>2026-04-04T09:32:49.013Z</time></trkpt><trkpt lat="43.4847317" lon="10.91452"><ele>397.0</ele><time>2026-04-04T09:32:50.011Z</time></trkpt><trkpt lat="43.4846683" lon="10.9142283"><ele>390.0</ele><time>2026-04-04T09:32:51.011Z</time></trkpt><trkpt lat="43.4845867" lon="10.9139467"><ele>383.0</ele><time>2026-04-04T09:32:52.011Z</time></trkpt><trkpt lat="43.4844883" lon="10.9136883"><ele>376.0</ele><time>2026-04-04T09:32:53.011Z</time></trkpt><trkpt lat="43.4843783" lon="10.9134483"><ele>377.66666666666663</ele><time>2026-04-04T09:32:54.012Z</time></trkpt><trkpt lat="43.4842683" lon="10.9132283"><ele>379.3333333333333</ele><time>2026-04-04T09:32:55.011Z</time></trkpt><trkpt lat="43.4841583" lon="10.9130317"><ele>381.0</ele><time>2026-04-04T09:32:56.011Z</time></trkpt><trkpt lat="43.4840583" lon="10.9128567"><ele>381.0</ele><time>2026-04-04T09:32:57.012Z</time></trkpt><trkpt lat="43.4839733" lon="10.912685"><ele>381.0</ele><time>2026-04-04T09:32:58.012Z</time></trkpt><trkpt lat="43.4839267" lon="10.912505"><ele>381.0</ele><time>2026-04-04T09:32:59.012Z</time></trkpt><trkpt lat="43.4839317" lon="10.9123267"><ele>381.0</ele><time>2026-04-04T09:33:00.012Z</time></trkpt><trkpt lat="43.4839683" lon="10.9121633"><ele>380.0</ele><time>2026-04-04T09:33:01.013Z</time></trkpt><trkpt lat="43.4840417" lon="10.912015"><ele>379.0</ele><time>2026-04-04T09:33:02.013Z</time></trkpt><trkpt lat="43.48414" lon="10.9118417"><ele>378.0</ele><time>2026-04-04T09:33:03.011Z</time></trkpt><trkpt lat="43.4842483" lon="10.9116517"><ele>378.0</ele><time>2026-04-04T09:33:04.011Z</time></trkpt><trkpt lat="43.4843617" lon="10.9114517"><ele>378.0</ele><time>2026-04-04T09:33:05.012Z</time></trkpt><trkpt lat="43.484475" lon="10.9112517"><ele>378.0</ele><time>2026-04-04T09:33:06.012Z</time></trkpt><trkpt lat="43.4845817" lon="10.9110567"><ele>377.6666666666667</ele><time>2026-04-04T09:33:07.011Z</time></trkpt><trkpt lat="43.4846933" lon="10.9108817"><ele>377.33333333333337</ele><time>2026-04-04T09:33:08.011Z</time></trkpt><trkpt lat="43.4848383" lon="10.9107317"><ele>377.0</ele><time>2026-04-04T09:33:09.013Z</time></trkpt><trkpt lat="43.4850017" lon="10.9106217"><ele>377.0</ele><time>2026-04-04T09:33:10.013Z</time></trkpt><trkpt lat="43.48518" lon="10.910555"><ele>377.0</ele><time>2026-04-04T09:33:11.012Z</time></trkpt><trkpt lat="43.4853667" lon="10.9105217"><ele>377.0</ele><time>2026-04-04T09:33:12.013Z</time></trkpt><trkpt lat="43.4855633" lon="10.910495"><ele>378.33333333333337</ele><time>2026-04-04T09:33:13.012Z</time></trkpt><trkpt lat="43.4857633" lon="10.9104683"><ele>379.6666666666667</ele><time>2026-04-04T09:33:14.013Z</time></trkpt><trkpt lat="43.48596" lon="10.910445"><ele>381.0</ele><time>2026-04-04T09:33:15.011Z</time></trkpt><trkpt lat="43.4861533" lon="10.9104317"><ele>378.3333333333333</ele><time>2026-04-04T09:33:16.011Z</time></trkpt><trkpt lat="43.4863417" lon="10.9104283"><ele>375.66666666666663</ele><time>2026-04-04T09:33:17.011Z</time></trkpt><trkpt lat="43.48652" lon="10.910425"><ele>373.0</ele><time>2026-04-04T09:33:18.011Z</time></trkpt><trkpt lat="43.4866867" lon="10.9104083"><ele>373.0</ele><time>2026-04-04T09:33:19.012Z</time></trkpt><trkpt lat="43.48684" lon="10.9103567"><ele>373.0</ele><time>2026-04-04T09:33:20.012Z</time></trkpt><trkpt lat="43.4869833" lon="10.9102383"><ele>373.0</ele><time>2026-04-04T09:33:21.013Z</time></trkpt><trkpt lat="43.487125" lon="10.9100933"><ele>374.3333333333333</ele><time>2026-04-04T09:33:22.012Z</time></trkpt><trkpt lat="43.48726" lon="10.9099333"><ele>375.6666666666667</ele><time>2026-04-04T09:33:23.012Z</time></trkpt><trkpt lat="43.4873783" lon="10.90974"><ele>377.0</ele><time>2026-04-04T09:33:24.011Z</time></trkpt><trkpt lat="43.4874767" lon="10.90952"><ele>377.0</ele><time>2026-04-04T09:33:25.012Z</time></trkpt><trkpt lat="43.4875717" lon="10.90929"><ele>377.0</ele><time>2026-04-04T09:33:26.011Z</time></trkpt><trkpt lat="43.4876383" lon="10.9090467"><ele>377.0</ele><time>2026-04-04T09:33:27.011Z</time></trkpt><trkpt lat="43.4877033" lon="10.908785"><ele>371.0</ele><time>2026-04-04T09:33:28.011Z</time></trkpt><trkpt lat="43.48775" lon="10.9085133"><ele>365.0</ele><time>2026-04-04T09:33:29.013Z</time></trkpt><trkpt lat="43.4877967" lon="10.9082483"><ele>359.0</ele><time>2026-04-04T09:33:30.013Z</time></trkpt><trkpt lat="43.4878333" lon="10.908"><ele>358.0</ele><time>2026-04-04T09:33:31.012Z</time></trkpt><trkpt lat="43.4878733" lon="10.9077583"><ele>357.0</ele><time>2026-04-04T09:33:32.012Z</time></trkpt><trkpt lat="43.487905" lon="10.9075167"><ele>356.0</ele><time>2026-04-04T09:33:33.013Z</time></trkpt><trkpt lat="43.4879267" lon="10.9072617"><ele>355.0</ele><time>2026-04-04T09:33:34.011Z</time></trkpt><trkpt lat="43.48792" lon="10.9069717"><ele>354.0</ele><time>2026-04-04T09:33:35.012Z</time></trkpt><trkpt lat="43.487905" lon="10.90664"><ele>353.5</ele><time>2026-04-04T09:33:36.013Z</time></trkpt><trkpt lat="43.4878783" lon="10.9062867"><ele>353.0</ele><time>2026-04-04T09:33:37.012Z</time></trkpt><trkpt lat="43.48786" lon="10.9059233"><ele>352.5</ele><time>2026-04-04T09:33:38.013Z</time></trkpt><trkpt lat="43.4878433" lon="10.9055533"><ele>352.0</ele><time>2026-04-04T09:33:39.012Z</time></trkpt><trkpt lat="43.4878133" lon="10.9052017"><ele>351.0</ele><time>2026-04-04T09:33:40.012Z</time></trkpt><trkpt lat="43.4877883" lon="10.9048667"><ele>350.0</ele><time>2026-04-04T09:33:41.012Z</time></trkpt><trkpt lat="43.487775" lon="10.9045433"><ele>350.33333333333337</ele><time>2026-04-04T09:33:42.012Z</time></trkpt><trkpt lat="43.48777" lon="10.9042283"><ele>350.6666666666667</ele><time>2026-04-04T09:33:43.013Z</time></trkpt><trkpt lat="43.4877867" lon="10.9039267"><ele>351.0</ele><time>2026-04-04T09:33:44.012Z</time></trkpt><trkpt lat="43.48781" lon="10.9036333"><ele>351.0</ele><time>2026-04-04T09:33:45.012Z</time></trkpt><trkpt lat="43.4878317" lon="10.9033583"><ele>351.0</ele><time>2026-04-04T09:33:46.011Z</time></trkpt><trkpt lat="43.48781" lon="10.9031183"><ele>351.0</ele><time>2026-04-04T09:33:47.013Z</time></trkpt><trkpt lat="43.4877483" lon="10.9028817"><ele>351.0</ele><time>2026-04-04T09:33:48.014Z</time></trkpt><trkpt lat="43.4876617" lon="10.9026633"><ele>351.0</ele><time>2026-04-04T09:33:49.013Z</time></trkpt><trkpt lat="43.4875783" lon="10.9024533"><ele>351.0</ele><time>2026-04-04T09:33:50.012Z</time></trkpt><trkpt lat="43.4875183" lon="10.9022233"><ele>351.0</ele><time>2026-04-04T09:33:51.012Z</time></trkpt><trkpt lat="43.4874967" lon="10.90196"><ele>351.0</ele><time>2026-04-04T09:33:52.012Z</time></trkpt><trkpt lat="43.4874883" lon="10.90168"><ele>351.0</ele><time>2026-04-04T09:33:53.011Z</time></trkpt><trkpt lat="43.48748" lon="10.9014033"><ele>351.0</ele><time>2026-04-04T09:33:54.012Z</time></trkpt><trkpt lat="43.4874717" lon="10.9011433"><ele>351.0</ele><time>2026-04-04T09:33:55.012Z</time></trkpt><trkpt lat="43.4874983" lon="10.9009133"><ele>351.0</ele><time>2026-04-04T09:33:56.012Z</time></trkpt><trkpt lat="43.487565" lon="10.900715"><ele>351.0</ele><time>2026-04-04T09:33:57.013Z</time></trkpt><trkpt lat="43.4876567" lon="10.9005433"><ele>351.0</ele><time>2026-04-04T09:33:58.012Z</time></trkpt><trkpt lat="43.4877367" lon="10.9003767"><ele>351.0</ele><time>2026-04-04T09:33:59.012Z</time></trkpt><trkpt lat="43.4877817" lon="10.9001867"><ele>351.0</ele><time>2026-04-04T09:34:00.013Z</time></trkpt><trkpt lat="43.4877667" lon="10.8999883"><ele>349.0</ele><time>2026-04-04T09:34:01.012Z</time></trkpt><trkpt lat="43.4877" lon="10.8997733"><ele>347.0</ele><time>2026-04-04T09:34:02.011Z</time></trkpt><trkpt lat="43.4876233" lon="10.899565"><ele>345.0</ele><time>2026-04-04T09:34:03.013Z</time></trkpt><trkpt lat="43.4875733" lon="10.899345"><ele>345.6666666666667</ele><time>2026-04-04T09:34:04.012Z</time></trkpt><trkpt lat="43.4875583" lon="10.8990983"><ele>346.33333333333337</ele><time>2026-04-04T09:34:05.013Z</time></trkpt><trkpt lat="43.4875783" lon="10.8988383"><ele>347.0</ele><time>2026-04-04T09:34:06.012Z</time></trkpt><trkpt lat="43.4876117" lon="10.8985667"><ele>345.6666666666667</ele><time>2026-04-04T09:34:07.013Z</time></trkpt><trkpt lat="43.487655" lon="10.8982917"><ele>344.3333333333333</ele><time>2026-04-04T09:34:08.013Z</time></trkpt><trkpt lat="43.48771" lon="10.898025"><ele>343.0</ele><time>2026-04-04T09:34:09.014Z</time></trkpt><trkpt lat="43.4877533" lon="10.8977667"><ele>340.3333333333333</ele><time>2026-04-04T09:34:10.013Z</time></trkpt><trkpt lat="43.4877833" lon="10.89751"><ele>337.6666666666667</ele><time>2026-04-04T09:34:11.012Z</time></trkpt><trkpt lat="43.48778" lon="10.8972433"><ele>335.0</ele><time>2026-04-04T09:34:12.012Z</time></trkpt><trkpt lat="43.4877517" lon="10.8969717"><ele>334.0</ele><time>2026-04-04T09:34:13.011Z</time></trkpt><trkpt lat="43.48769" lon="10.8967067"><ele>333.0</ele><time>2026-04-04T09:34:14.011Z</time></trkpt><trkpt lat="43.4876433" lon="10.8964433"><ele>332.0</ele><time>2026-04-04T09:34:15.013Z</time></trkpt><trkpt lat="43.4876283" lon="10.8961567"><ele>331.33333333333337</ele><time>2026-04-04T09:34:16.011Z</time></trkpt><trkpt lat="43.4876233" lon="10.8958717"><ele>330.6666666666667</ele><time>2026-04-04T09:34:17.012Z</time></trkpt><trkpt lat="43.4876283" lon="10.8955983"><ele>330.0</ele><time>2026-04-04T09:34:18.012Z</time></trkpt><trkpt lat="43.48761" lon="10.8953517"><ele>330.0</ele><time>2026-04-04T09:34:19.013Z</time></trkpt><trkpt lat="43.487555" lon="10.8951417"><ele>330.0</ele><time>2026-04-04T09:34:20.013Z</time></trkpt><trkpt lat="43.4874617" lon="10.8949583"><ele>330.0</ele><time>2026-04-04T09:34:21.012Z</time></trkpt><trkpt lat="43.4873167" lon="10.8948217"><ele>330.6666666666667</ele><time>2026-04-04T09:34:22.01Z</time></trkpt><trkpt lat="43.4871317" lon="10.894705"><ele>331.33333333333337</ele><time>2026-04-04T09:34:23.012Z</time></trkpt><trkpt lat="43.4869317" lon="10.8945883"><ele>332.0</ele><time>2026-04-04T09:34:24.012Z</time></trkpt><trkpt lat="43.4867283" lon="10.8944717"><ele>330.0</ele><time>2026-04-04T09:34:25.012Z</time></trkpt><trkpt lat="43.4865317" lon="10.894355"><ele>328.0</ele><time>2026-04-04T09:34:26.012Z</time></trkpt><trkpt lat="43.4863483" lon="10.8942467"><ele>326.0</ele><time>2026-04-04T09:34:27.011Z</time></trkpt><trkpt lat="43.48618" lon="10.894135"><ele>321.0</ele><time>2026-04-04T09:34:28.012Z</time></trkpt><trkpt lat="43.4860283" lon="10.89402"><ele>316.0</ele><time>2026-04-04T09:34:29.011Z</time></trkpt><trkpt lat="43.4859067" lon="10.8938583"><ele>311.0</ele><time>2026-04-04T09:34:30.01Z</time></trkpt><trkpt lat="43.4858417" lon="10.8936583"><ele>311.0</ele><time>2026-04-04T09:34:31.012Z</time></trkpt><trkpt lat="43.4858033" lon="10.893425"><ele>311.0</ele><time>2026-04-04T09:34:32.012Z</time></trkpt><trkpt lat="43.4857767" lon="10.8931633"><ele>311.0</ele><time>2026-04-04T09:34:33.012Z</time></trkpt><trkpt lat="43.485725" lon="10.8929033"><ele>310.6666666666667</ele><time>2026-04-04T09:34:34.011Z</time></trkpt><trkpt lat="43.4856483" lon="10.8926333"><ele>310.3333333333333</ele><time>2026-04-04T09:34:35.012Z</time></trkpt><trkpt lat="43.4855533" lon="10.892355"><ele>310.0</ele><time>2026-04-04T09:34:36.011Z</time></trkpt><trkpt lat="43.4854533" lon="10.8920717"><ele>305.5</ele><time>2026-04-04T09:34:37.012Z</time></trkpt><trkpt lat="43.4853567" lon="10.89178"><ele>301.0</ele><time>2026-04-04T09:34:38.011Z</time></trkpt><trkpt lat="43.4852583" lon="10.891485"><ele>300.5</ele><time>2026-04-04T09:34:39.013Z</time></trkpt><trkpt lat="43.4851583" lon="10.8911933"><ele>300.0</ele><time>2026-04-04T09:34:40.012Z</time></trkpt><trkpt lat="43.48506" lon="10.8909083"><ele>300.6666666666667</ele><time>2026-04-04T09:34:41.011Z</time></trkpt><trkpt lat="43.4849633" lon="10.8906283"><ele>301.33333333333337</ele><time>2026-04-04T09:34:42.012Z</time></trkpt><trkpt lat="43.484865" lon="10.8903617"><ele>302.0</ele><time>2026-04-04T09:34:43.011Z</time></trkpt><trkpt lat="43.4847617" lon="10.8901283"><ele>303.0</ele><time>2026-04-04T09:34:44.011Z</time></trkpt><trkpt lat="43.4846383" lon="10.8899167"><ele>304.0</ele><time>2026-04-04T09:34:45.012Z</time></trkpt><trkpt lat="43.4845017" lon="10.8897383"><ele>305.0</ele><time>2026-04-04T09:34:46.011Z</time></trkpt><trkpt lat="43.4843583" lon="10.8895767"><ele>305.0</ele><time>2026-04-04T09:34:47.013Z</time></trkpt><trkpt lat="43.4842317" lon="10.8894133"><ele>305.0</ele><time>2026-04-04T09:34:48.013Z</time></trkpt><trkpt lat="43.4841267" lon="10.88923"><ele>305.0</ele><time>2026-04-04T09:34:49.013Z</time></trkpt><trkpt lat="43.4840517" lon="10.8890133"><ele>302.33333333333337</ele><time>2026-04-04T09:34:50.012Z</time></trkpt><trkpt lat="43.4839883" lon="10.8887867"><ele>299.6666666666667</ele><time>2026-04-04T09:34:51.011Z</time></trkpt><trkpt lat="43.48393" lon="10.8885717"><ele>297.0</ele><time>2026-04-04T09:34:52.013Z</time></trkpt><trkpt lat="43.483845" lon="10.8883817"><ele>299.6666666666667</ele><time>2026-04-04T09:34:53.012Z</time></trkpt><trkpt lat="43.4837417" lon="10.8882117"><ele>302.33333333333337</ele><time>2026-04-04T09:34:54.013Z</time></trkpt><trkpt lat="43.4836183" lon="10.8880817"><ele>305.0</ele><time>2026-04-04T09:34:55.014Z</time></trkpt><trkpt lat="43.4835" lon="10.88797"><ele>305.0</ele><time>2026-04-04T09:34:56.012Z</time></trkpt><trkpt lat="43.4834217" lon="10.8878567"><ele>305.0</ele><time>2026-04-04T09:34:57.013Z</time></trkpt><trkpt lat="43.4834017" lon="10.8877267"><ele>305.0</ele><time>2026-04-04T09:34:58.013Z</time></trkpt><trkpt lat="43.4834233" lon="10.8876"><ele>305.0</ele><time>2026-04-04T09:34:59.012Z</time></trkpt><trkpt lat="43.4835033" lon="10.887475"><ele>305.0</ele><time>2026-04-04T09:35:00.013Z</time></trkpt><trkpt lat="43.4836183" lon="10.8873433"><ele>303.6666666666667</ele><time>2026-04-04T09:35:01.012Z</time></trkpt><trkpt lat="43.4837517" lon="10.8871933"><ele>302.3333333333333</ele><time>2026-04-04T09:35:02.012Z</time></trkpt><trkpt lat="43.48389" lon="10.8870183"><ele>301.0</ele><time>2026-04-04T09:35:03.012Z</time></trkpt><trkpt lat="43.4840267" lon="10.8868217"><ele>298.3333333333333</ele><time>2026-04-04T09:35:04.013Z</time></trkpt><trkpt lat="43.4841617" lon="10.8866067"><ele>295.6666666666667</ele><time>2026-04-04T09:35:05.012Z</time></trkpt><trkpt lat="43.4842883" lon="10.8863917"><ele>293.0</ele><time>2026-04-04T09:35:06.011Z</time></trkpt><trkpt lat="43.4844" lon="10.886185"><ele>293.0</ele><time>2026-04-04T09:35:07.011Z</time></trkpt><trkpt lat="43.4844833" lon="10.88599"><ele>293.0</ele><time>2026-04-04T09:35:08.013Z</time></trkpt><trkpt lat="43.484525" lon="10.8857883"><ele>293.0</ele><time>2026-04-04T09:35:09.011Z</time></trkpt><trkpt lat="43.48453" lon="10.8855667"><ele>293.6666666666667</ele><time>2026-04-04T09:35:10.011Z</time></trkpt><trkpt lat="43.4844983" lon="10.8853367"><ele>294.3333333333333</ele><time>2026-04-04T09:35:11.01Z</time></trkpt><trkpt lat="43.484455" lon="10.8851017"><ele>295.0</ele><time>2026-04-04T09:35:12.013Z</time></trkpt><trkpt lat="43.4844117" lon="10.88486"><ele>293.66666666666663</ele><time>2026-04-04T09:35:13.012Z</time></trkpt><trkpt lat="43.48436" lon="10.88461"><ele>292.3333333333333</ele><time>2026-04-04T09:35:14.012Z</time></trkpt><trkpt lat="43.4843167" lon="10.884355"><ele>291.0</ele><time>2026-04-04T09:35:15.012Z</time></trkpt><trkpt lat="43.4842767" lon="10.8841217"><ele>289.6666666666667</ele><time>2026-04-04T09:35:16.011Z</time></trkpt><trkpt lat="43.4842333" lon="10.8839117"><ele>288.33333333333337</ele><time>2026-04-04T09:35:17.012Z</time></trkpt><trkpt lat="43.4841733" lon="10.8837183"><ele>287.0</ele><time>2026-04-04T09:35:18.013Z</time></trkpt><trkpt lat="43.4840767" lon="10.8835333"><ele>287.33333333333337</ele><time>2026-04-04T09:35:19.012Z</time></trkpt><trkpt lat="43.4839533" lon="10.883355"><ele>287.6666666666667</ele><time>2026-04-04T09:35:20.012Z</time></trkpt><trkpt lat="43.4838367" lon="10.8831533"><ele>288.0</ele><time>2026-04-04T09:35:21.012Z</time></trkpt><trkpt lat="43.4837433" lon="10.8829233"><ele>288.0</ele><time>2026-04-04T09:35:22.011Z</time></trkpt><trkpt lat="43.483675" lon="10.8826833"><ele>288.0</ele><time>2026-04-04T09:35:23.013Z</time></trkpt><trkpt lat="43.483625" lon="10.88245"><ele>288.0</ele><time>2026-04-04T09:35:24.012Z</time></trkpt><trkpt lat="43.4835767" lon="10.882235"><ele>285.3333333333333</ele><time>2026-04-04T09:35:25.013Z</time></trkpt><trkpt lat="43.4835067" lon="10.8820417"><ele>282.66666666666663</ele><time>2026-04-04T09:35:26.01Z</time></trkpt><trkpt lat="43.4834083" lon="10.8818767"><ele>280.0</ele><time>2026-04-04T09:35:27.012Z</time></trkpt><trkpt lat="43.4832717" lon="10.8817633"><ele>276.66666666666663</ele><time>2026-04-04T09:35:28.011Z</time></trkpt><trkpt lat="43.4831133" lon="10.8816967"><ele>273.3333333333333</ele><time>2026-04-04T09:35:29.012Z</time></trkpt><trkpt lat="43.482945" lon="10.881665"><ele>270.0</ele><time>2026-04-04T09:35:30.011Z</time></trkpt><trkpt lat="43.4827667" lon="10.8816833"><ele>269.0</ele><time>2026-04-04T09:35:31.011Z</time></trkpt><trkpt lat="43.48259" lon="10.8817583"><ele>268.0</ele><time>2026-04-04T09:35:32.014Z</time></trkpt><trkpt lat="43.4824167" lon="10.8818883"><ele>267.0</ele><time>2026-04-04T09:35:33.013Z</time></trkpt><trkpt lat="43.4822583" lon="10.88205"><ele>268.6666666666667</ele><time>2026-04-04T09:35:34.012Z</time></trkpt><trkpt lat="43.4821083" lon="10.8822083"><ele>270.33333333333337</ele><time>2026-04-04T09:35:35.012Z</time></trkpt><trkpt lat="43.481975" lon="10.8823483"><ele>272.0</ele><time>2026-04-04T09:35:36.012Z</time></trkpt><trkpt lat="43.4818533" lon="10.8824583"><ele>272.0</ele><time>2026-04-04T09:35:37.013Z</time></trkpt><trkpt lat="43.4817383" lon="10.8825183"><ele>272.0</ele><time>2026-04-04T09:35:38.012Z</time></trkpt><trkpt lat="43.4816233" lon="10.8825217"><ele>272.0</ele><time>2026-04-04T09:35:39.013Z</time></trkpt><trkpt lat="43.4815233" lon="10.882455"><ele>272.0</ele><time>2026-04-04T09:35:40.013Z</time></trkpt><trkpt lat="43.4814517" lon="10.882345"><ele>272.0</ele><time>2026-04-04T09:35:41.012Z</time></trkpt><trkpt lat="43.4814067" lon="10.882185"><ele>272.0</ele><time>2026-04-04T09:35:42.011Z</time></trkpt><trkpt lat="43.481375" lon="10.881985"><ele>272.0</ele><time>2026-04-04T09:35:43.012Z</time></trkpt><trkpt lat="43.4813417" lon="10.8817583"><ele>272.0</ele><time>2026-04-04T09:35:44.01Z</time></trkpt><trkpt lat="43.4813017" lon="10.8815167"><ele>270.6666666666667</ele><time>2026-04-04T09:35:45.012Z</time></trkpt><trkpt lat="43.4812483" lon="10.8812783"><ele>269.3333333333333</ele><time>2026-04-04T09:35:46.013Z</time></trkpt><trkpt lat="43.4811733" lon="10.8810317"><ele>268.0</ele><time>2026-04-04T09:35:47.012Z</time></trkpt><trkpt lat="43.4810767" lon="10.8807833"><ele>268.0</ele><time>2026-04-04T09:35:48.012Z</time></trkpt><trkpt lat="43.48097" lon="10.8805333"><ele>268.0</ele><time>2026-04-04T09:35:49.012Z</time></trkpt><trkpt lat="43.480865" lon="10.8802883"><ele>268.0</ele><time>2026-04-04T09:35:50.011Z</time></trkpt><trkpt lat="43.480755" lon="10.8800467"><ele>269.0</ele><time>2026-04-04T09:35:51.012Z</time></trkpt><trkpt lat="43.48064" lon="10.879795"><ele>270.0</ele><time>2026-04-04T09:35:52.012Z</time></trkpt><trkpt lat="43.48053" lon="10.8795483"><ele>271.0</ele><time>2026-04-04T09:35:53.011Z</time></trkpt><trkpt lat="43.4804217" lon="10.8793033"><ele>267.66666666666663</ele><time>2026-04-04T09:35:54.011Z</time></trkpt><trkpt lat="43.480315" lon="10.8790567"><ele>264.3333333333333</ele><time>2026-04-04T09:35:55.011Z</time></trkpt><trkpt lat="43.4802083" lon="10.8788117"><ele>261.0</ele><time>2026-04-04T09:35:56.012Z</time></trkpt><trkpt lat="43.4800983" lon="10.87859"><ele>258.0</ele><time>2026-04-04T09:35:57.014Z</time></trkpt><trkpt lat="43.4799817" lon="10.8783583"><ele>255.0</ele><time>2026-04-04T09:35:58.014Z</time></trkpt><trkpt lat="43.4798667" lon="10.8781133"><ele>252.0</ele><time>2026-04-04T09:35:59.011Z</time></trkpt><trkpt lat="43.47975" lon="10.87787"><ele>252.0</ele><time>2026-04-04T09:36:00.014Z</time></trkpt><trkpt lat="43.4796367" lon="10.877625"><ele>252.0</ele><time>2026-04-04T09:36:01.014Z</time></trkpt><trkpt lat="43.479525" lon="10.877385"><ele>252.0</ele><time>2026-04-04T09:36:02.012Z</time></trkpt><trkpt lat="43.4794267" lon="10.8771333"><ele>252.0</ele><time>2026-04-04T09:36:03.014Z</time></trkpt><trkpt lat="43.4793533" lon="10.8768717"><ele>252.0</ele><time>2026-04-04T09:36:04.012Z</time></trkpt><trkpt lat="43.4793067" lon="10.8766017"><ele>252.0</ele><time>2026-04-04T09:36:05.012Z</time></trkpt><trkpt lat="43.47928" lon="10.876325"><ele>252.0</ele><time>2026-04-04T09:36:06.012Z</time></trkpt><trkpt lat="43.47926" lon="10.876065"><ele>252.0</ele><time>2026-04-04T09:36:07.013Z</time></trkpt><trkpt lat="43.4792317" lon="10.8758217"><ele>252.0</ele><time>2026-04-04T09:36:08.012Z</time></trkpt><trkpt lat="43.4791767" lon="10.8756083"><ele>251.0</ele><time>2026-04-04T09:36:09.012Z</time></trkpt><trkpt lat="43.47908" lon="10.8754267"><ele>250.0</ele><time>2026-04-04T09:36:10.012Z</time></trkpt><trkpt lat="43.478945" lon="10.8752833"><ele>249.0</ele><time>2026-04-04T09:36:11.013Z</time></trkpt><trkpt lat="43.478785" lon="10.875165"><ele>247.0</ele><time>2026-04-04T09:36:12.012Z</time></trkpt><trkpt lat="43.4786117" lon="10.8750467"><ele>245.0</ele><time>2026-04-04T09:36:13.013Z</time></trkpt><trkpt lat="43.4784217" lon="10.87494"><ele>243.0</ele><time>2026-04-04T09:36:14.012Z</time></trkpt><trkpt lat="43.4782317" lon="10.8748233"><ele>243.0</ele><time>2026-04-04T09:36:15.012Z</time></trkpt><trkpt lat="43.4780433" lon="10.874705"><ele>243.0</ele><time>2026-04-04T09:36:16.012Z</time></trkpt><trkpt lat="43.4778567" lon="10.87458"><ele>243.0</ele><time>2026-04-04T09:36:17.012Z</time></trkpt><trkpt lat="43.477665" lon="10.8744533"><ele>242.33333333333331</ele><time>2026-04-04T09:36:18.012Z</time></trkpt><trkpt lat="43.4774783" lon="10.8743167"><ele>241.66666666666666</ele><time>2026-04-04T09:36:19.012Z</time></trkpt><trkpt lat="43.4773" lon="10.8741633"><ele>241.0</ele><time>2026-04-04T09:36:20.01Z</time></trkpt><trkpt lat="43.4771183" lon="10.8739933"><ele>237.66666666666666</ele><time>2026-04-04T09:36:21.014Z</time></trkpt><trkpt lat="43.4769417" lon="10.8738183"><ele>234.33333333333331</ele><time>2026-04-04T09:36:22.012Z</time></trkpt><trkpt lat="43.476765" lon="10.8736367"><ele>231.0</ele><time>2026-04-04T09:36:23.012Z</time></trkpt><trkpt lat="43.4765867" lon="10.8734567"><ele>229.33333333333331</ele><time>2026-04-04T09:36:24.012Z</time></trkpt><trkpt lat="43.4764067" lon="10.8732783"><ele>227.66666666666666</ele><time>2026-04-04T09:36:25.011Z</time></trkpt><trkpt lat="43.476225" lon="10.873095"><ele>226.0</ele><time>2026-04-04T09:36:26.014Z</time></trkpt><trkpt lat="43.476045" lon="10.8729117"><ele>224.33333333333331</ele><time>2026-04-04T09:36:27.013Z</time></trkpt><trkpt lat="43.475875" lon="10.8727233"><ele>222.66666666666669</ele><time>2026-04-04T09:36:28.012Z</time></trkpt><trkpt lat="43.475725" lon="10.8725"><ele>221.0</ele><time>2026-04-04T09:36:29.014Z</time></trkpt><trkpt lat="43.4756" lon="10.872245"><ele>221.0</ele><time>2026-04-04T09:36:30.013Z</time></trkpt><trkpt lat="43.4754883" lon="10.8719767"><ele>221.0</ele><time>2026-04-04T09:36:31.012Z</time></trkpt><trkpt lat="43.475385" lon="10.8717033"><ele>221.0</ele><time>2026-04-04T09:36:32.013Z</time></trkpt><trkpt lat="43.4752967" lon="10.8714117"><ele>219.5</ele><time>2026-04-04T09:36:33.013Z</time></trkpt><trkpt lat="43.4752267" lon="10.8711117"><ele>218.0</ele><time>2026-04-04T09:36:34.013Z</time></trkpt><trkpt lat="43.4751683" lon="10.8708083"><ele>218.0</ele><time>2026-04-04T09:36:35.011Z</time></trkpt><trkpt lat="43.4751183" lon="10.8705033"><ele>218.0</ele><time>2026-04-04T09:36:36.012Z</time></trkpt><trkpt lat="43.4750683" lon="10.8702"><ele>218.33333333333334</ele><time>2026-04-04T09:36:37.012Z</time></trkpt><trkpt lat="43.4750133" lon="10.8698983"><ele>218.66666666666669</ele><time>2026-04-04T09:36:38.012Z</time></trkpt><trkpt lat="43.4749617" lon="10.8696"><ele>219.0</ele><time>2026-04-04T09:36:39.013Z</time></trkpt><trkpt lat="43.4749133" lon="10.8693067"><ele>219.0</ele><time>2026-04-04T09:36:40.012Z</time></trkpt><trkpt lat="43.47487" lon="10.869015"><ele>219.0</ele><time>2026-04-04T09:36:41.013Z</time></trkpt><trkpt lat="43.4748217" lon="10.86873"><ele>219.0</ele><time>2026-04-04T09:36:42.012Z</time></trkpt><trkpt lat="43.47476" lon="10.8684633"><ele>217.66666666666669</ele><time>2026-04-04T09:36:43.013Z</time></trkpt><trkpt lat="43.4746733" lon="10.8682183"><ele>216.33333333333334</ele><time>2026-04-04T09:36:44.012Z</time></trkpt><trkpt lat="43.4745633" lon="10.867985"><ele>215.0</ele><time>2026-04-04T09:36:45.012Z</time></trkpt><trkpt lat="43.4744383" lon="10.867755"><ele>214.33333333333334</ele><time>2026-04-04T09:36:46.012Z</time></trkpt><trkpt lat="43.474305" lon="10.8675267"><ele>213.66666666666669</ele><time>2026-04-04T09:36:47.013Z</time></trkpt><trkpt lat="43.4741717" lon="10.8673033"><ele>213.0</ele><time>2026-04-04T09:36:48.013Z</time></trkpt><trkpt lat="43.4740383" lon="10.86708"><ele>213.0</ele><time>2026-04-04T09:36:49.012Z</time></trkpt><trkpt lat="43.4739033" lon="10.86685"><ele>213.0</ele><time>2026-04-04T09:36:50.011Z</time></trkpt><trkpt lat="43.4737683" lon="10.8666183"><ele>213.0</ele><time>2026-04-04T09:36:51.012Z</time></trkpt><trkpt lat="43.47363" lon="10.866395"><ele>212.33333333333331</ele><time>2026-04-04T09:36:52.012Z</time></trkpt><trkpt lat="43.4734917" lon="10.8661767"><ele>211.66666666666666</ele><time>2026-04-04T09:36:53.011Z</time></trkpt><trkpt lat="43.4733567" lon="10.8659433"><ele>211.0</ele><time>2026-04-04T09:36:54.012Z</time></trkpt><trkpt lat="43.47322" lon="10.865715"><ele>211.0</ele><time>2026-04-04T09:36:55.012Z</time></trkpt><trkpt lat="43.4730783" lon="10.86549"><ele>211.0</ele><time>2026-04-04T09:36:56.012Z</time></trkpt><trkpt lat="43.47294" lon="10.8652567"><ele>211.0</ele><time>2026-04-04T09:36:57.011Z</time></trkpt><trkpt lat="43.4728067" lon="10.8650283"><ele>211.0</ele><time>2026-04-04T09:36:58.012Z</time></trkpt><trkpt lat="43.472675" lon="10.8648"><ele>211.0</ele><time>2026-04-04T09:36:59.012Z</time></trkpt><trkpt lat="43.4725417" lon="10.8645783"><ele>211.0</ele><time>2026-04-04T09:37:00.011Z</time></trkpt><trkpt lat="43.4724133" lon="10.8643617"><ele>209.66666666666666</ele><time>2026-04-04T09:37:01.011Z</time></trkpt><trkpt lat="43.4722917" lon="10.8641467"><ele>208.33333333333331</ele><time>2026-04-04T09:37:02.012Z</time></trkpt><trkpt lat="43.4721783" lon="10.8639133"><ele>207.0</ele><time>2026-04-04T09:37:03.012Z</time></trkpt><trkpt lat="43.47211" lon="10.8636583"><ele>206.33333333333331</ele><time>2026-04-04T09:37:04.012Z</time></trkpt><trkpt lat="43.4720783" lon="10.8633833"><ele>205.66666666666666</ele><time>2026-04-04T09:37:05.011Z</time></trkpt><trkpt lat="43.472075" lon="10.8630967"><ele>205.0</ele><time>2026-04-04T09:37:06.012Z</time></trkpt><trkpt lat="43.4720867" lon="10.8628017"><ele>205.66666666666666</ele><time>2026-04-04T09:37:07.012Z</time></trkpt><trkpt lat="43.4721033" lon="10.8625033"><ele>206.33333333333331</ele><time>2026-04-04T09:37:08.012Z</time></trkpt><trkpt lat="43.4721167" lon="10.8622033"><ele>207.0</ele><time>2026-04-04T09:37:09.012Z</time></trkpt><trkpt lat="43.4721283" lon="10.861905"><ele>206.0</ele><time>2026-04-04T09:37:10.012Z</time></trkpt><trkpt lat="43.4721283" lon="10.8616133"><ele>205.0</ele><time>2026-04-04T09:37:11.013Z</time></trkpt><trkpt lat="43.4721083" lon="10.8613267"><ele>204.0</ele><time>2026-04-04T09:37:12.012Z</time></trkpt><trkpt lat="43.47206" lon="10.8610383"><ele>206.0</ele><time>2026-04-04T09:37:13.011Z</time></trkpt><trkpt lat="43.471985" lon="10.860755"><ele>208.0</ele><time>2026-04-04T09:37:14.013Z</time></trkpt><trkpt lat="43.4718867" lon="10.8604783"><ele>210.0</ele><time>2026-04-04T09:37:15.013Z</time></trkpt><trkpt lat="43.4717817" lon="10.8602"><ele>208.5</ele><time>2026-04-04T09:37:16.013Z</time></trkpt><trkpt lat="43.471685" lon="10.859915"><ele>207.0</ele><time>2026-04-04T09:37:17.011Z</time></trkpt><trkpt lat="43.4716033" lon="10.8596167"><ele>207.0</ele><time>2026-04-04T09:37:18.013Z</time></trkpt><trkpt lat="43.4715283" lon="10.859315"><ele>207.0</ele><time>2026-04-04T09:37:19.012Z</time></trkpt><trkpt lat="43.47146" lon="10.8590067"><ele>205.5</ele><time>2026-04-04T09:37:20.014Z</time></trkpt><trkpt lat="43.47139" lon="10.8586983"><ele>204.0</ele><time>2026-04-04T09:37:21.012Z</time></trkpt><trkpt lat="43.47132" lon="10.8583917"><ele>202.0</ele><time>2026-04-04T09:37:22.011Z</time></trkpt><trkpt lat="43.47125" lon="10.8580833"><ele>200.0</ele><time>2026-04-04T09:37:23.012Z</time></trkpt><trkpt lat="43.471185" lon="10.8577767"><ele>201.0</ele><time>2026-04-04T09:37:24.012Z</time></trkpt><trkpt lat="43.4711283" lon="10.8574717"><ele>202.0</ele><time>2026-04-04T09:37:25.014Z</time></trkpt><trkpt lat="43.4711033" lon="10.8571683"><ele>202.0</ele><time>2026-04-04T09:37:26.011Z</time></trkpt><trkpt lat="43.4711083" lon="10.85686"><ele>202.0</ele><time>2026-04-04T09:37:27.013Z</time></trkpt><trkpt lat="43.471135" lon="10.8565667"><ele>202.0</ele><time>2026-04-04T09:37:28.013Z</time></trkpt><trkpt lat="43.4711617" lon="10.8562933"><ele>204.0</ele><time>2026-04-04T09:37:29.013Z</time></trkpt><trkpt lat="43.47118" lon="10.85603"><ele>206.0</ele><time>2026-04-04T09:37:30.012Z</time></trkpt><trkpt lat="43.4711783" lon="10.8557683"><ele>208.0</ele><time>2026-04-04T09:37:31.013Z</time></trkpt><trkpt lat="43.4711567" lon="10.855505"><ele>208.66666666666666</ele><time>2026-04-04T09:37:32.013Z</time></trkpt><trkpt lat="43.47112" lon="10.8552367"><ele>209.33333333333331</ele><time>2026-04-04T09:37:33.012Z</time></trkpt><trkpt lat="43.4710733" lon="10.854965"><ele>210.0</ele><time>2026-04-04T09:37:34.012Z</time></trkpt><trkpt lat="43.4710217" lon="10.8546983"><ele>210.0</ele><time>2026-04-04T09:37:35.013Z</time></trkpt><trkpt lat="43.4709733" lon="10.854435"><ele>210.0</ele><time>2026-04-04T09:37:36.012Z</time></trkpt><trkpt lat="43.4709467" lon="10.854165"><ele>210.0</ele><time>2026-04-04T09:37:37.011Z</time></trkpt><trkpt lat="43.47095" lon="10.8538883"><ele>207.66666666666669</ele><time>2026-04-04T09:37:38.011Z</time></trkpt><trkpt lat="43.4709867" lon="10.8536117"><ele>205.33333333333334</ele><time>2026-04-04T09:37:39.014Z</time></trkpt><trkpt lat="43.4710483" lon="10.8533283"><ele>203.0</ele><time>2026-04-04T09:37:40.012Z</time></trkpt><trkpt lat="43.4711133" lon="10.8530417"><ele>200.5</ele><time>2026-04-04T09:37:41.011Z</time></trkpt><trkpt lat="43.471175" lon="10.8527433"><ele>198.0</ele><time>2026-04-04T09:37:42.012Z</time></trkpt><trkpt lat="43.4712367" lon="10.8524433"><ele>197.0</ele><time>2026-04-04T09:37:43.012Z</time></trkpt><trkpt lat="43.4712767" lon="10.85214"><ele>196.0</ele><time>2026-04-04T09:37:44.012Z</time></trkpt><trkpt lat="43.4712767" lon="10.8518367"><ele>195.0</ele><time>2026-04-04T09:37:45.013Z</time></trkpt><trkpt lat="43.4712467" lon="10.8515317"><ele>192.5</ele><time>2026-04-04T09:37:46.013Z</time></trkpt><trkpt lat="43.4711933" lon="10.8512267"><ele>190.0</ele><time>2026-04-04T09:37:47.011Z</time></trkpt><trkpt lat="43.4711167" lon="10.85093"><ele>190.0</ele><time>2026-04-04T09:37:48.012Z</time></trkpt><trkpt lat="43.471045" lon="10.8506283"><ele>190.0</ele><time>2026-04-04T09:37:49.011Z</time></trkpt><trkpt lat="43.470975" lon="10.8503333"><ele>192.5</ele><time>2026-04-04T09:37:50.011Z</time></trkpt><trkpt lat="43.4709067" lon="10.8500367"><ele>195.0</ele><time>2026-04-04T09:37:51.011Z</time></trkpt><trkpt lat="43.4708367" lon="10.84974"><ele>195.0</ele><time>2026-04-04T09:37:52.012Z</time></trkpt><trkpt lat="43.4707667" lon="10.84944"><ele>195.0</ele><time>2026-04-04T09:37:53.012Z</time></trkpt><trkpt lat="43.4706917" lon="10.8491417"><ele>198.5</ele><time>2026-04-04T09:37:54.012Z</time></trkpt><trkpt lat="43.47061" lon="10.84885"><ele>202.0</ele><time>2026-04-04T09:37:55.012Z</time></trkpt><trkpt lat="43.47053" lon="10.8485533"><ele>203.0</ele><time>2026-04-04T09:37:56.013Z</time></trkpt><trkpt lat="43.47045" lon="10.8482667"><ele>204.0</ele><time>2026-04-04T09:37:57.012Z</time></trkpt><trkpt lat="43.4703683" lon="10.8479817"><ele>205.0</ele><time>2026-04-04T09:37:58.012Z</time></trkpt><trkpt lat="43.4702833" lon="10.847705"><ele>200.0</ele><time>2026-04-04T09:37:59.012Z</time></trkpt><trkpt lat="43.4701883" lon="10.8474317"><ele>195.0</ele><time>2026-04-04T09:38:00.011Z</time></trkpt><trkpt lat="43.4700783" lon="10.8471733"><ele>190.0</ele><time>2026-04-04T09:38:01.012Z</time></trkpt><trkpt lat="43.46996" lon="10.846925"><ele>192.66666666666669</ele><time>2026-04-04T09:38:02.011Z</time></trkpt><trkpt lat="43.4698333" lon="10.8466817"><ele>195.33333333333334</ele><time>2026-04-04T09:38:03.013Z</time></trkpt><trkpt lat="43.4697067" lon="10.8464583"><ele>198.0</ele><time>2026-04-04T09:38:04.011Z</time></trkpt><trkpt lat="43.4695933" lon="10.8462467"><ele>192.66666666666666</ele><time>2026-04-04T09:38:05.012Z</time></trkpt><trkpt lat="43.4695083" lon="10.8460333"><ele>187.33333333333331</ele><time>2026-04-04T09:38:06.012Z</time></trkpt><trkpt lat="43.46946" lon="10.8458033"><ele>182.0</ele><time>2026-04-04T09:38:07.011Z</time></trkpt><trkpt lat="43.46946" lon="10.84555"><ele>182.0</ele><time>2026-04-04T09:38:08.013Z</time></trkpt><trkpt lat="43.46948" lon="10.845285"><ele>182.0</ele><time>2026-04-04T09:38:09.012Z</time></trkpt><trkpt lat="43.469505" lon="10.8450033"><ele>182.0</ele><time>2026-04-04T09:38:10.012Z</time></trkpt><trkpt lat="43.469515" lon="10.8447117"><ele>182.0</ele><time>2026-04-04T09:38:11.012Z</time></trkpt><trkpt lat="43.469525" lon="10.8444133"><ele>182.0</ele><time>2026-04-04T09:38:12.013Z</time></trkpt><trkpt lat="43.46952" lon="10.84412"><ele>182.0</ele><time>2026-04-04T09:38:13.013Z</time></trkpt><trkpt lat="43.4694883" lon="10.843835"><ele>182.0</ele><time>2026-04-04T09:38:14.011Z</time></trkpt><trkpt lat="43.4694383" lon="10.843565"><ele>182.0</ele><time>2026-04-04T09:38:15.014Z</time></trkpt><trkpt lat="43.4693783" lon="10.8433083"><ele>182.0</ele><time>2026-04-04T09:38:16.012Z</time></trkpt><trkpt lat="43.46931" lon="10.8430833"><ele>185.0</ele><time>2026-04-04T09:38:17.011Z</time></trkpt><trkpt lat="43.4692433" lon="10.8428667"><ele>188.0</ele><time>2026-04-04T09:38:18.012Z</time></trkpt><trkpt lat="43.4691883" lon="10.8426583"><ele>191.0</ele><time>2026-04-04T09:38:19.013Z</time></trkpt><trkpt lat="43.46914" lon="10.842455"><ele>191.33333333333331</ele><time>2026-04-04T09:38:20.011Z</time></trkpt><trkpt lat="43.4691083" lon="10.8422517"><ele>191.66666666666666</ele><time>2026-04-04T09:38:21.013Z</time></trkpt><trkpt lat="43.469105" lon="10.8420483"><ele>192.0</ele><time>2026-04-04T09:38:22.012Z</time></trkpt><trkpt lat="43.4691383" lon="10.841845"><ele>192.33333333333331</ele><time>2026-04-04T09:38:23.013Z</time></trkpt><trkpt lat="43.4692" lon="10.8416433"><ele>192.66666666666666</ele><time>2026-04-04T09:38:24.012Z</time></trkpt><trkpt lat="43.4692817" lon="10.841445"><ele>193.0</ele><time>2026-04-04T09:38:25.012Z</time></trkpt><trkpt lat="43.4693467" lon="10.8412517"><ele>193.0</ele><time>2026-04-04T09:38:26.012Z</time></trkpt><trkpt lat="43.4693883" lon="10.841055"><ele>193.0</ele><time>2026-04-04T09:38:27.013Z</time></trkpt><trkpt lat="43.4693883" lon="10.8408467"><ele>193.0</ele><time>2026-04-04T09:38:28.013Z</time></trkpt><trkpt lat="43.4693467" lon="10.8406167"><ele>192.33333333333331</ele><time>2026-04-04T09:38:29.012Z</time></trkpt><trkpt lat="43.46928" lon="10.8403733"><ele>191.66666666666666</ele><time>2026-04-04T09:38:30.013Z</time></trkpt><trkpt lat="43.4692017" lon="10.8401283"><ele>191.0</ele><time>2026-04-04T09:38:31.013Z</time></trkpt><trkpt lat="43.4691167" lon="10.839875"><ele>191.0</ele><time>2026-04-04T09:38:32.012Z</time></trkpt><trkpt lat="43.4690367" lon="10.8396067"><ele>191.0</ele><time>2026-04-04T09:38:33.013Z</time></trkpt><trkpt lat="43.4689567" lon="10.83933"><ele>191.0</ele><time>2026-04-04T09:38:34.01Z</time></trkpt><trkpt lat="43.4688733" lon="10.83905"><ele>192.0</ele><time>2026-04-04T09:38:35.011Z</time></trkpt><trkpt lat="43.4687917" lon="10.8387783"><ele>193.0</ele><time>2026-04-04T09:38:36.012Z</time></trkpt><trkpt lat="43.4687083" lon="10.8385117"><ele>194.0</ele><time>2026-04-04T09:38:37.011Z</time></trkpt><trkpt lat="43.4686233" lon="10.838265"><ele>194.0</ele><time>2026-04-04T09:38:38.012Z</time></trkpt><trkpt lat="43.4685333" lon="10.838035"><ele>194.0</ele><time>2026-04-04T09:38:39.013Z</time></trkpt><trkpt lat="43.468425" lon="10.8378233"><ele>194.0</ele><time>2026-04-04T09:38:40.012Z</time></trkpt><trkpt lat="43.4683" lon="10.8376183"><ele>192.0</ele><time>2026-04-04T09:38:41.011Z</time></trkpt><trkpt lat="43.4681667" lon="10.8374333"><ele>190.0</ele><time>2026-04-04T09:38:42.013Z</time></trkpt><trkpt lat="43.4680233" lon="10.8372733"><ele>188.0</ele><time>2026-04-04T09:38:43.013Z</time></trkpt><trkpt lat="43.4678767" lon="10.83713"><ele>188.0</ele><time>2026-04-04T09:38:44.013Z</time></trkpt><trkpt lat="43.4677133" lon="10.8370167"><ele>188.0</ele><time>2026-04-04T09:38:45.012Z</time></trkpt><trkpt lat="43.4675383" lon="10.83692"><ele>188.0</ele><time>2026-04-04T09:38:46.012Z</time></trkpt><trkpt lat="43.4673467" lon="10.8368433"><ele>184.66666666666666</ele><time>2026-04-04T09:38:47.012Z</time></trkpt><trkpt lat="43.4671483" lon="10.8367617"><ele>181.33333333333334</ele><time>2026-04-04T09:38:48.013Z</time></trkpt><trkpt lat="43.4669483" lon="10.8366567"><ele>178.0</ele><time>2026-04-04T09:38:49.011Z</time></trkpt><trkpt lat="43.4667567" lon="10.8365317"><ele>178.0</ele><time>2026-04-04T09:38:50.013Z</time></trkpt><trkpt lat="43.4665717" lon="10.836385"><ele>178.0</ele><time>2026-04-04T09:38:51.013Z</time></trkpt><trkpt lat="43.4664" lon="10.836215"><ele>178.0</ele><time>2026-04-04T09:38:52.012Z</time></trkpt><trkpt lat="43.4662333" lon="10.83603"><ele>177.0</ele><time>2026-04-04T09:38:53.012Z</time></trkpt><trkpt lat="43.466085" lon="10.8358083"><ele>176.0</ele><time>2026-04-04T09:38:54.011Z</time></trkpt><trkpt lat="43.46595" lon="10.8355667"><ele>175.0</ele><time>2026-04-04T09:38:55.012Z</time></trkpt><trkpt lat="43.4658217" lon="10.8353167"><ele>171.0</ele><time>2026-04-04T09:38:56.012Z</time></trkpt><trkpt lat="43.4656967" lon="10.835065"><ele>167.0</ele><time>2026-04-04T09:38:57.013Z</time></trkpt><trkpt lat="43.4655683" lon="10.8348017"><ele>165.5</ele><time>2026-04-04T09:38:58.012Z</time></trkpt><trkpt lat="43.4654383" lon="10.8345433"><ele>164.0</ele><time>2026-04-04T09:38:59.012Z</time></trkpt><trkpt lat="43.4653117" lon="10.8342783"><ele>163.66666666666666</ele><time>2026-04-04T09:39:00.011Z</time></trkpt><trkpt lat="43.4651917" lon="10.834015"><ele>163.33333333333334</ele><time>2026-04-04T09:39:01.012Z</time></trkpt><trkpt lat="43.4650733" lon="10.8337583"><ele>163.0</ele><time>2026-04-04T09:39:02.012Z</time></trkpt><trkpt lat="43.4649633" lon="10.833515"><ele>162.0</ele><time>2026-04-04T09:39:03.012Z</time></trkpt><trkpt lat="43.4648517" lon="10.8332833"><ele>161.0</ele><time>2026-04-04T09:39:04.012Z</time></trkpt><trkpt lat="43.4647317" lon="10.83307"><ele>160.0</ele><time>2026-04-04T09:39:05.012Z</time></trkpt><trkpt lat="43.4645933" lon="10.8328817"><ele>159.0</ele><time>2026-04-04T09:39:06.012Z</time></trkpt><trkpt lat="43.46443" lon="10.8327217"><ele>158.0</ele><time>2026-04-04T09:39:07.012Z</time></trkpt><trkpt lat="43.4642483" lon="10.8325867"><ele>157.0</ele><time>2026-04-04T09:39:08.013Z</time></trkpt><trkpt lat="43.4640533" lon="10.8324783"><ele>157.0</ele><time>2026-04-04T09:39:09.013Z</time></trkpt><trkpt lat="43.4638483" lon="10.8324067"><ele>157.0</ele><time>2026-04-04T09:39:10.013Z</time></trkpt><trkpt lat="43.4636333" lon="10.8323533"><ele>157.0</ele><time>2026-04-04T09:39:11.013Z</time></trkpt><trkpt lat="43.463415" lon="10.832305"><ele>152.5</ele><time>2026-04-04T09:39:12.013Z</time></trkpt><trkpt lat="43.4631933" lon="10.8322483"><ele>148.0</ele><time>2026-04-04T09:39:13.011Z</time></trkpt><trkpt lat="43.462965" lon="10.832195"><ele>141.0</ele><time>2026-04-04T09:39:14.012Z</time></trkpt><trkpt lat="43.4627333" lon="10.832125"><ele>134.0</ele><time>2026-04-04T09:39:15.013Z</time></trkpt><trkpt lat="43.4625017" lon="10.832035"><ele>134.0</ele><time>2026-04-04T09:39:16.013Z</time></trkpt><trkpt lat="43.4622733" lon="10.8319367"><ele>134.0</ele><time>2026-04-04T09:39:17.011Z</time></trkpt><trkpt lat="43.462045" lon="10.8318333"><ele>133.0</ele><time>2026-04-04T09:39:18.012Z</time></trkpt><trkpt lat="43.461815" lon="10.8317317"><ele>132.0</ele><time>2026-04-04T09:39:19.012Z</time></trkpt><trkpt lat="43.4615817" lon="10.8316283"><ele>132.0</ele><time>2026-04-04T09:39:20.013Z</time></trkpt><trkpt lat="43.46135" lon="10.8315267"><ele>132.0</ele><time>2026-04-04T09:39:21.012Z</time></trkpt><trkpt lat="43.4611183" lon="10.8314233"><ele>132.0</ele><time>2026-04-04T09:39:22.013Z</time></trkpt><trkpt lat="43.460885" lon="10.8313217"><ele>132.0</ele><time>2026-04-04T09:39:23.013Z</time></trkpt><trkpt lat="43.4606533" lon="10.8312183"><ele>131.5</ele><time>2026-04-04T09:39:24.012Z</time></trkpt><trkpt lat="43.4604233" lon="10.8311167"><ele>131.0</ele><time>2026-04-04T09:39:25.013Z</time></trkpt><trkpt lat="43.4601933" lon="10.831015"><ele>125.0</ele><time>2026-04-04T09:39:26.013Z</time></trkpt><trkpt lat="43.459965" lon="10.8309133"><ele>119.0</ele><time>2026-04-04T09:39:27.013Z</time></trkpt><trkpt lat="43.4597417" lon="10.830815"><ele>115.0</ele><time>2026-04-04T09:39:28.012Z</time></trkpt><trkpt lat="43.45952" lon="10.8307233"><ele>111.0</ele><time>2026-04-04T09:39:29.013Z</time></trkpt><trkpt lat="43.45931" lon="10.8306267"><ele>111.0</ele><time>2026-04-04T09:39:30.012Z</time></trkpt><trkpt lat="43.4591" lon="10.8305383"><ele>111.0</ele><time>2026-04-04T09:39:31.013Z</time></trkpt><trkpt lat="43.4588867" lon="10.830445"><ele>111.0</ele><time>2026-04-04T09:39:32.012Z</time></trkpt><trkpt lat="43.4586733" lon="10.830355"><ele>107.66666666666666</ele><time>2026-04-04T09:39:33.014Z</time></trkpt><trkpt lat="43.4584583" lon="10.8302633"><ele>104.33333333333333</ele><time>2026-04-04T09:39:34.013Z</time></trkpt><trkpt lat="43.4582467" lon="10.8301733"><ele>101.0</ele><time>2026-04-04T09:39:35.013Z</time></trkpt><trkpt lat="43.458035" lon="10.8300883"><ele>101.0</ele><time>2026-04-04T09:39:36.013Z</time></trkpt><trkpt lat="43.457825" lon="10.829995"><ele>101.0</ele><time>2026-04-04T09:39:37.013Z</time></trkpt><trkpt lat="43.457625" lon="10.82991"><ele>101.0</ele><time>2026-04-04T09:39:38.012Z</time></trkpt><trkpt lat="43.45744" lon="10.8298383"><ele>101.0</ele><time>2026-04-04T09:39:39.013Z</time></trkpt><trkpt lat="43.4572733" lon="10.8297833"><ele>101.0</ele><time>2026-04-04T09:39:40.014Z</time></trkpt><trkpt lat="43.45712" lon="10.829745"><ele>101.0</ele><time>2026-04-04T09:39:41.013Z</time></trkpt><trkpt lat="43.45698" lon="10.8297217"><ele>100.66666666666666</ele><time>2026-04-04T09:39:42.013Z</time></trkpt><trkpt lat="43.4568383" lon="10.829715"><ele>100.33333333333334</ele><time>2026-04-04T09:39:43.012Z</time></trkpt><trkpt lat="43.4566817" lon="10.8297183"><ele>100.0</ele><time>2026-04-04T09:39:44.012Z</time></trkpt><trkpt lat="43.4565167" lon="10.8297533"><ele>100.0</ele><time>2026-04-04T09:39:45.012Z</time></trkpt><trkpt lat="43.4563483" lon="10.8298"><ele>100.0</ele><time>2026-04-04T09:39:46.012Z</time></trkpt><trkpt lat="43.45617" lon="10.82986"><ele>100.0</ele><time>2026-04-04T09:39:47.012Z</time></trkpt><trkpt lat="43.4559933" lon="10.829935"><ele>100.66666666666667</ele><time>2026-04-04T09:39:48.013Z</time></trkpt><trkpt lat="43.45582" lon="10.830005"><ele>101.33333333333334</ele><time>2026-04-04T09:39:49.01Z</time></trkpt><trkpt lat="43.4556483" lon="10.8300817"><ele>102.0</ele><time>2026-04-04T09:39:50.013Z</time></trkpt><trkpt lat="43.4554867" lon="10.8301517"><ele>102.0</ele><time>2026-04-04T09:39:51.013Z</time></trkpt><trkpt lat="43.4553317" lon="10.8302183"><ele>102.0</ele><time>2026-04-04T09:39:52.013Z</time></trkpt><trkpt lat="43.45518" lon="10.83028"><ele>102.0</ele><time>2026-04-04T09:39:53.013Z</time></trkpt><trkpt lat="43.45503" lon="10.830345"><ele>102.0</ele><time>2026-04-04T09:39:54.013Z</time></trkpt><trkpt lat="43.454885" lon="10.8303967"><ele>102.0</ele><time>2026-04-04T09:39:55.013Z</time></trkpt><trkpt lat="43.4547467" lon="10.83044"><ele>102.0</ele><time>2026-04-04T09:39:56.012Z</time></trkpt><trkpt lat="43.4546117" lon="10.8304667"><ele>102.0</ele><time>2026-04-04T09:39:57.012Z</time></trkpt><trkpt lat="43.4544833" lon="10.8304833"><ele>102.39999999999999</ele><time>2026-04-04T09:39:58.012Z</time></trkpt><trkpt lat="43.4543633" lon="10.8304717"><ele>102.8</ele><time>2026-04-04T09:39:59.013Z</time></trkpt><trkpt lat="43.4542667" lon="10.8304033"><ele>103.2</ele><time>2026-04-04T09:40:00.012Z</time></trkpt><trkpt lat="43.4541967" lon="10.8302967"><ele>103.6</ele><time>2026-04-04T09:40:01.012Z</time></trkpt><trkpt lat="43.45415" lon="10.8301583"><ele>104.0</ele><time>2026-04-04T09:40:02.012Z</time></trkpt><trkpt lat="43.4541233" lon="10.829975"><ele>104.33333333333333</ele><time>2026-04-04T09:40:03.013Z</time></trkpt><trkpt lat="43.4541117" lon="10.8297483"><ele>104.66666666666666</ele><time>2026-04-04T09:40:04.013Z</time></trkpt><trkpt lat="43.454105" lon="10.8294917"><ele>105.0</ele><time>2026-04-04T09:40:05.01Z</time></trkpt><trkpt lat="43.454095" lon="10.82923"><ele>105.0</ele><time>2026-04-04T09:40:06.013Z</time></trkpt><trkpt lat="43.4540817" lon="10.8289833"><ele>105.0</ele><time>2026-04-04T09:40:07.012Z</time></trkpt><trkpt lat="43.4540867" lon="10.8287433"><ele>105.0</ele><time>2026-04-04T09:40:08.012Z</time></trkpt><trkpt lat="43.45411" lon="10.8285133"><ele>105.33333333333334</ele><time>2026-04-04T09:40:09.01Z</time></trkpt><trkpt lat="43.4541567" lon="10.828285"><ele>105.66666666666667</ele><time>2026-04-04T09:40:10.012Z</time></trkpt><trkpt lat="43.4542033" lon="10.8280617"><ele>106.0</ele><time>2026-04-04T09:40:11.01Z</time></trkpt><trkpt lat="43.45424" lon="10.827835"><ele>106.33333333333334</ele><time>2026-04-04T09:40:12.011Z</time></trkpt><trkpt lat="43.454245" lon="10.8275933"><ele>106.66666666666666</ele><time>2026-04-04T09:40:13.01Z</time></trkpt><trkpt lat="43.4542317" lon="10.8273417"><ele>107.0</ele><time>2026-04-04T09:40:14.014Z</time></trkpt><trkpt lat="43.4542017" lon="10.82709"><ele>107.0</ele><time>2026-04-04T09:40:15.01Z</time></trkpt><trkpt lat="43.4541717" lon="10.82683"><ele>107.0</ele><time>2026-04-04T09:40:16.01Z</time></trkpt><trkpt lat="43.45414" lon="10.8265683"><ele>107.0</ele><time>2026-04-04T09:40:17.011Z</time></trkpt><trkpt lat="43.45411" lon="10.8263017"><ele>106.33333333333333</ele><time>2026-04-04T09:40:18.011Z</time></trkpt><trkpt lat="43.4540767" lon="10.8260267"><ele>105.66666666666666</ele><time>2026-04-04T09:40:19.012Z</time></trkpt><trkpt lat="43.454035" lon="10.825745"><ele>105.0</ele><time>2026-04-04T09:40:20.011Z</time></trkpt><trkpt lat="43.4539917" lon="10.8254467"><ele>103.0</ele><time>2026-04-04T09:40:21.012Z</time></trkpt><trkpt lat="43.4539483" lon="10.8251283"><ele>101.0</ele><time>2026-04-04T09:40:22.012Z</time></trkpt><trkpt lat="43.4539067" lon="10.8248033"><ele>101.0</ele><time>2026-04-04T09:40:23.012Z</time></trkpt><trkpt lat="43.4538617" lon="10.82447"><ele>101.0</ele><time>2026-04-04T09:40:24.012Z</time></trkpt><trkpt lat="43.45382" lon="10.82413"><ele>113.5</ele><time>2026-04-04T09:40:25.012Z</time></trkpt><trkpt lat="43.453775" lon="10.8237917"><ele>126.0</ele><time>2026-04-04T09:40:26.013Z</time></trkpt><trkpt lat="43.4537267" lon="10.8234567"><ele>126.0</ele><time>2026-04-04T09:40:27.012Z</time></trkpt><trkpt lat="43.4536617" lon="10.8231283"><ele>126.0</ele><time>2026-04-04T09:40:28.011Z</time></trkpt><trkpt lat="43.453585" lon="10.8227983"><ele>120.5</ele><time>2026-04-04T09:40:29.011Z</time></trkpt><trkpt lat="43.45351" lon="10.8224667"><ele>115.0</ele><time>2026-04-04T09:40:30.011Z</time></trkpt><trkpt lat="43.4534283" lon="10.82214"><ele>115.0</ele><time>2026-04-04T09:40:31.011Z</time></trkpt><trkpt lat="43.4533483" lon="10.8218183"><ele>115.0</ele><time>2026-04-04T09:40:32.013Z</time></trkpt><trkpt lat="43.4532683" lon="10.8215"><ele>110.5</ele><time>2026-04-04T09:40:33.013Z</time></trkpt><trkpt lat="43.4531883" lon="10.8211767"><ele>106.0</ele><time>2026-04-04T09:40:34.012Z</time></trkpt><trkpt lat="43.4531017" lon="10.8208533"><ele>104.5</ele><time>2026-04-04T09:40:35.012Z</time></trkpt><trkpt lat="43.4530183" lon="10.8205283"><ele>103.0</ele><time>2026-04-04T09:40:36.014Z</time></trkpt><trkpt lat="43.452935" lon="10.8201983"><ele>114.5</ele><time>2026-04-04T09:40:37.012Z</time></trkpt><trkpt lat="43.45284" lon="10.8198783"><ele>126.0</ele><time>2026-04-04T09:40:38.013Z</time></trkpt><trkpt lat="43.4527417" lon="10.8195617"><ele>120.0</ele><time>2026-04-04T09:40:39.013Z</time></trkpt><trkpt lat="43.4526483" lon="10.8192517"><ele>114.0</ele><time>2026-04-04T09:40:40.013Z</time></trkpt><trkpt lat="43.45257" lon="10.81893"><ele>114.0</ele><time>2026-04-04T09:40:41.013Z</time></trkpt><trkpt lat="43.452505" lon="10.8185967"><ele>114.0</ele><time>2026-04-04T09:40:42.011Z</time></trkpt><trkpt lat="43.4524467" lon="10.8182583"><ele>110.5</ele><time>2026-04-04T09:40:43.012Z</time></trkpt><trkpt lat="43.45239" lon="10.8179167"><ele>107.0</ele><time>2026-04-04T09:40:44.013Z</time></trkpt><trkpt lat="43.452325" lon="10.81757"><ele>104.0</ele><time>2026-04-04T09:40:45.013Z</time></trkpt><trkpt lat="43.4522483" lon="10.81722"><ele>101.0</ele><time>2026-04-04T09:40:46.012Z</time></trkpt><trkpt lat="43.4521617" lon="10.8168717"><ele>105.0</ele><time>2026-04-04T09:40:47.013Z</time></trkpt><trkpt lat="43.4520683" lon="10.8165283"><ele>109.0</ele><time>2026-04-04T09:40:48.013Z</time></trkpt><trkpt lat="43.4519733" lon="10.8161767"><ele>103.5</ele><time>2026-04-04T09:40:49.012Z</time></trkpt><trkpt lat="43.4518783" lon="10.8158283"><ele>98.0</ele><time>2026-04-04T09:40:50.012Z</time></trkpt><trkpt lat="43.4517867" lon="10.8154867"><ele>98.0</ele><time>2026-04-04T09:40:51.013Z</time></trkpt><trkpt lat="43.451695" lon="10.8151633"><ele>98.0</ele><time>2026-04-04T09:40:52.013Z</time></trkpt><trkpt lat="43.4516083" lon="10.8148467"><ele>99.5</ele><time>2026-04-04T09:40:53.011Z</time></trkpt><trkpt lat="43.45153" lon="10.81453"><ele>101.0</ele><time>2026-04-04T09:40:54.012Z</time></trkpt><trkpt lat="43.4514683" lon="10.8142017"><ele>101.0</ele><time>2026-04-04T09:40:55.013Z</time></trkpt><trkpt lat="43.4514233" lon="10.81387"><ele>101.0</ele><time>2026-04-04T09:40:56.014Z</time></trkpt><trkpt lat="43.451395" lon="10.8135333"><ele>100.5</ele><time>2026-04-04T09:40:57.014Z</time></trkpt><trkpt lat="43.45138" lon="10.813195"><ele>100.0</ele><time>2026-04-04T09:40:58.012Z</time></trkpt><trkpt lat="43.45137" lon="10.8128617"><ele>98.5</ele><time>2026-04-04T09:40:59.013Z</time></trkpt><trkpt lat="43.4513567" lon="10.8125383"><ele>97.0</ele><time>2026-04-04T09:41:00.013Z</time></trkpt><trkpt lat="43.4513367" lon="10.8122217"><ele>97.0</ele><time>2026-04-04T09:41:01.011Z</time></trkpt><trkpt lat="43.4512983" lon="10.811905"><ele>97.0</ele><time>2026-04-04T09:41:02.013Z</time></trkpt><trkpt lat="43.451235" lon="10.8115933"><ele>100.0</ele><time>2026-04-04T09:41:03.014Z</time></trkpt><trkpt lat="43.45116" lon="10.811285"><ele>103.0</ele><time>2026-04-04T09:41:04.012Z</time></trkpt><trkpt lat="43.451085" lon="10.8109733"><ele>103.0</ele><time>2026-04-04T09:41:05.013Z</time></trkpt><trkpt lat="43.4510083" lon="10.810655"><ele>103.0</ele><time>2026-04-04T09:41:06.012Z</time></trkpt><trkpt lat="43.45094" lon="10.81033"><ele>100.0</ele><time>2026-04-04T09:41:07.012Z</time></trkpt><trkpt lat="43.4508933" lon="10.809995"><ele>97.0</ele><time>2026-04-04T09:41:08.013Z</time></trkpt><trkpt lat="43.4508567" lon="10.8096567"><ele>96.5</ele><time>2026-04-04T09:41:09.013Z</time></trkpt><trkpt lat="43.450825" lon="10.809315"><ele>96.0</ele><time>2026-04-04T09:41:10.013Z</time></trkpt><trkpt lat="43.4507933" lon="10.80898"><ele>96.0</ele><time>2026-04-04T09:41:11.012Z</time></trkpt><trkpt lat="43.4507683" lon="10.8086533"><ele>96.0</ele><time>2026-04-04T09:41:12.013Z</time></trkpt><trkpt lat="43.4507417" lon="10.80834"><ele>95.66666666666667</ele><time>2026-04-04T09:41:13.011Z</time></trkpt><trkpt lat="43.4507133" lon="10.8080333"><ele>95.33333333333334</ele><time>2026-04-04T09:41:14.012Z</time></trkpt><trkpt lat="43.4506983" lon="10.8077283"><ele>95.0</ele><time>2026-04-04T09:41:15.013Z</time></trkpt><trkpt lat="43.4507033" lon="10.8074117"><ele>95.0</ele><time>2026-04-04T09:41:16.011Z</time></trkpt><trkpt lat="43.450725" lon="10.80708"><ele>95.0</ele><time>2026-04-04T09:41:17.013Z</time></trkpt><trkpt lat="43.450745" lon="10.8067367"><ele>94.5</ele><time>2026-04-04T09:41:18.011Z</time></trkpt><trkpt lat="43.4507733" lon="10.80639"><ele>94.0</ele><time>2026-04-04T09:41:19.012Z</time></trkpt><trkpt lat="43.450815" lon="10.8060417"><ele>95.0</ele><time>2026-04-04T09:41:20.013Z</time></trkpt><trkpt lat="43.45088" lon="10.8056983"><ele>96.0</ele><time>2026-04-04T09:41:21.012Z</time></trkpt><trkpt lat="43.450955" lon="10.8053633"><ele>96.5</ele><time>2026-04-04T09:41:22.014Z</time></trkpt><trkpt lat="43.451035" lon="10.80503"><ele>97.0</ele><time>2026-04-04T09:41:23.013Z</time></trkpt><trkpt lat="43.4511167" lon="10.8047"><ele>97.0</ele><time>2026-04-04T09:41:24.014Z</time></trkpt><trkpt lat="43.451195" lon="10.8043717"><ele>97.0</ele><time>2026-04-04T09:41:25.013Z</time></trkpt><trkpt lat="43.4512717" lon="10.8040433"><ele>96.0</ele><time>2026-04-04T09:41:26.014Z</time></trkpt><trkpt lat="43.451335" lon="10.8037167"><ele>95.0</ele><time>2026-04-04T09:41:27.013Z</time></trkpt><trkpt lat="43.4513733" lon="10.80339"><ele>95.0</ele><time>2026-04-04T09:41:28.013Z</time></trkpt><trkpt lat="43.4513983" lon="10.8030683"><ele>95.0</ele><time>2026-04-04T09:41:29.014Z</time></trkpt><trkpt lat="43.451425" lon="10.802755"><ele>94.0</ele><time>2026-04-04T09:41:30.013Z</time></trkpt><trkpt lat="43.4514683" lon="10.8024483"><ele>93.0</ele><time>2026-04-04T09:41:31.012Z</time></trkpt><trkpt lat="43.4515333" lon="10.8021417"><ele>93.0</ele><time>2026-04-04T09:41:32.013Z</time></trkpt><trkpt lat="43.4516117" lon="10.801835"><ele>93.0</ele><time>2026-04-04T09:41:33.012Z</time></trkpt><trkpt lat="43.45169" lon="10.801525"><ele>92.5</ele><time>2026-04-04T09:41:34.012Z</time></trkpt><trkpt lat="43.4517767" lon="10.80121"><ele>92.0</ele><time>2026-04-04T09:41:35.013Z</time></trkpt><trkpt lat="43.4518633" lon="10.8008867"><ele>92.0</ele><time>2026-04-04T09:41:36.013Z</time></trkpt><trkpt lat="43.45195" lon="10.80056"><ele>92.0</ele><time>2026-04-04T09:41:37.011Z</time></trkpt><trkpt lat="43.4520383" lon="10.800235"><ele>91.5</ele><time>2026-04-04T09:41:38.013Z</time></trkpt><trkpt lat="43.4521233" lon="10.7999117"><ele>91.0</ele><time>2026-04-04T09:41:39.014Z</time></trkpt><trkpt lat="43.4522083" lon="10.7995883"><ele>90.0</ele><time>2026-04-04T09:41:40.013Z</time></trkpt><trkpt lat="43.4522917" lon="10.7992667"><ele>89.0</ele><time>2026-04-04T09:41:41.012Z</time></trkpt><trkpt lat="43.4523767" lon="10.798945"><ele>89.0</ele><time>2026-04-04T09:41:42.012Z</time></trkpt><trkpt lat="43.4524617" lon="10.7986233"><ele>89.0</ele><time>2026-04-04T09:41:43.013Z</time></trkpt><trkpt lat="43.4525467" lon="10.7983017"><ele>89.0</ele><time>2026-04-04T09:41:44.013Z</time></trkpt><trkpt lat="43.4526317" lon="10.79798"><ele>89.0</ele><time>2026-04-04T09:41:45.013Z</time></trkpt><trkpt lat="43.45271" lon="10.79766"><ele>89.0</ele><time>2026-04-04T09:41:46.011Z</time></trkpt><trkpt lat="43.45279" lon="10.79734"><ele>89.0</ele><time>2026-04-04T09:41:47.012Z</time></trkpt><trkpt lat="43.45287" lon="10.79702"><ele>89.5</ele><time>2026-04-04T09:41:48.012Z</time></trkpt><trkpt lat="43.4529467" lon="10.7966967"><ele>90.0</ele><time>2026-04-04T09:41:49.014Z</time></trkpt><trkpt lat="43.4530317" lon="10.7963833"><ele>90.0</ele><time>2026-04-04T09:41:50.013Z</time></trkpt><trkpt lat="43.4531083" lon="10.7960783"><ele>90.0</ele><time>2026-04-04T09:41:51.011Z</time></trkpt><trkpt lat="43.4531833" lon="10.7957867"><ele>89.33333333333333</ele><time>2026-04-04T09:41:52.013Z</time></trkpt><trkpt lat="43.453255" lon="10.795515"><ele>88.66666666666666</ele><time>2026-04-04T09:41:53.013Z</time></trkpt><trkpt lat="43.4533233" lon="10.7952517"><ele>88.0</ele><time>2026-04-04T09:41:54.013Z</time></trkpt><trkpt lat="43.4533917" lon="10.7949933"><ele>87.33333333333333</ele><time>2026-04-04T09:41:55.013Z</time></trkpt><trkpt lat="43.4534417" lon="10.79473"><ele>86.66666666666667</ele><time>2026-04-04T09:41:56.013Z</time></trkpt><trkpt lat="43.4534667" lon="10.794465"><ele>86.0</ele><time>2026-04-04T09:41:57.013Z</time></trkpt><trkpt lat="43.4534633" lon="10.7942017"><ele>86.0</ele><time>2026-04-04T09:41:58.013Z</time></trkpt><trkpt lat="43.4534433" lon="10.7939417"><ele>86.0</ele><time>2026-04-04T09:41:59.012Z</time></trkpt><trkpt lat="43.4534067" lon="10.793685"><ele>86.0</ele><time>2026-04-04T09:42:00.012Z</time></trkpt><trkpt lat="43.4533667" lon="10.7934283"><ele>86.0</ele><time>2026-04-04T09:42:01.012Z</time></trkpt><trkpt lat="43.4533283" lon="10.79318"><ele>86.0</ele><time>2026-04-04T09:42:02.013Z</time></trkpt><trkpt lat="43.453295" lon="10.7929433"><ele>86.0</ele><time>2026-04-04T09:42:03.013Z</time></trkpt><trkpt lat="43.4532617" lon="10.7927117"><ele>86.0</ele><time>2026-04-04T09:42:04.013Z</time></trkpt><trkpt lat="43.4532283" lon="10.792475"><ele>86.0</ele><time>2026-04-04T09:42:05.012Z</time></trkpt><trkpt lat="43.4531933" lon="10.7922367"><ele>86.0</ele><time>2026-04-04T09:42:06.013Z</time></trkpt><trkpt lat="43.45316" lon="10.7919983"><ele>86.33333333333334</ele><time>2026-04-04T09:42:07.012Z</time></trkpt><trkpt lat="43.4531317" lon="10.7917567"><ele>86.66666666666667</ele><time>2026-04-04T09:42:08.013Z</time></trkpt><trkpt lat="43.453115" lon="10.7915183"><ele>87.0</ele><time>2026-04-04T09:42:09.013Z</time></trkpt><trkpt lat="43.4531117" lon="10.7912933"><ele>87.0</ele><time>2026-04-04T09:42:10.013Z</time></trkpt><trkpt lat="43.4531183" lon="10.7910683"><ele>87.0</ele><time>2026-04-04T09:42:11.012Z</time></trkpt><trkpt lat="43.453135" lon="10.7908467"><ele>87.0</ele><time>2026-04-04T09:42:12.013Z</time></trkpt><trkpt lat="43.4531583" lon="10.7906233"><ele>87.33333333333333</ele><time>2026-04-04T09:42:13.013Z</time></trkpt><trkpt lat="43.4531983" lon="10.7903933"><ele>87.66666666666666</ele><time>2026-04-04T09:42:14.013Z</time></trkpt><trkpt lat="43.4532567" lon="10.7901633"><ele>88.0</ele><time>2026-04-04T09:42:15.012Z</time></trkpt><trkpt lat="43.4533283" lon="10.789925"><ele>87.33333333333333</ele><time>2026-04-04T09:42:16.013Z</time></trkpt><trkpt lat="43.4534133" lon="10.789665"><ele>86.66666666666667</ele><time>2026-04-04T09:42:17.012Z</time></trkpt><trkpt lat="43.4535083" lon="10.789385"><ele>86.0</ele><time>2026-04-04T09:42:18.014Z</time></trkpt><trkpt lat="43.4536117" lon="10.78909"><ele>85.5</ele><time>2026-04-04T09:42:19.012Z</time></trkpt><trkpt lat="43.4537217" lon="10.7887833"><ele>85.0</ele><time>2026-04-04T09:42:20.012Z</time></trkpt><trkpt lat="43.453835" lon="10.7884733"><ele>84.5</ele><time>2026-04-04T09:42:21.013Z</time></trkpt><trkpt lat="43.45395" lon="10.7881633"><ele>84.0</ele><time>2026-04-04T09:42:22.012Z</time></trkpt><trkpt lat="43.4540667" lon="10.78785"><ele>84.5</ele><time>2026-04-04T09:42:23.013Z</time></trkpt><trkpt lat="43.4541917" lon="10.78754"><ele>85.0</ele><time>2026-04-04T09:42:24.013Z</time></trkpt><trkpt lat="43.4542967" lon="10.787235"><ele>85.0</ele><time>2026-04-04T09:42:25.012Z</time></trkpt><trkpt lat="43.454405" lon="10.7869317"><ele>85.0</ele><time>2026-04-04T09:42:26.013Z</time></trkpt><trkpt lat="43.454515" lon="10.7866383"><ele>85.5</ele><time>2026-04-04T09:42:27.013Z</time></trkpt><trkpt lat="43.45462" lon="10.7863533"><ele>86.0</ele><time>2026-04-04T09:42:28.013Z</time></trkpt><trkpt lat="43.4547317" lon="10.7860833"><ele>85.5</ele><time>2026-04-04T09:42:29.012Z</time></trkpt><trkpt lat="43.45485" lon="10.7858167"><ele>85.0</ele><time>2026-04-04T09:42:30.013Z</time></trkpt><trkpt lat="43.4549717" lon="10.785555"><ele>85.0</ele><time>2026-04-04T09:42:31.012Z</time></trkpt><trkpt lat="43.455095" lon="10.7852917"><ele>85.0</ele><time>2026-04-04T09:42:32.013Z</time></trkpt><trkpt lat="43.4552233" lon="10.7850333"><ele>85.0</ele><time>2026-04-04T09:42:33.013Z</time></trkpt><trkpt lat="43.4553433" lon="10.7847733"><ele>85.0</ele><time>2026-04-04T09:42:34.013Z</time></trkpt><trkpt lat="43.4554667" lon="10.7845217"><ele>85.0</ele><time>2026-04-04T09:42:35.013Z</time></trkpt><trkpt lat="43.4556083" lon="10.7842917"><ele>85.0</ele><time>2026-04-04T09:42:36.013Z</time></trkpt><trkpt lat="43.4557683" lon="10.7840933"><ele>85.0</ele><time>2026-04-04T09:42:37.012Z</time></trkpt><trkpt lat="43.4559433" lon="10.7839133"><ele>85.0</ele><time>2026-04-04T09:42:38.012Z</time></trkpt><trkpt lat="43.4561183" lon="10.7837417"><ele>84.0</ele><time>2026-04-04T09:42:39.013Z</time></trkpt><trkpt lat="43.4562917" lon="10.7835633"><ele>83.0</ele><time>2026-04-04T09:42:40.012Z</time></trkpt><trkpt lat="43.456455" lon="10.7833867"><ele>82.0</ele><time>2026-04-04T09:42:41.013Z</time></trkpt><trkpt lat="43.4566183" lon="10.7832183"><ele>82.0</ele><time>2026-04-04T09:42:42.014Z</time></trkpt><trkpt lat="43.45678" lon="10.7830567"><ele>82.0</ele><time>2026-04-04T09:42:43.013Z</time></trkpt><trkpt lat="43.4569367" lon="10.782895"><ele>82.0</ele><time>2026-04-04T09:42:44.013Z</time></trkpt><trkpt lat="43.457085" lon="10.7827417"><ele>82.33333333333333</ele><time>2026-04-04T09:42:45.012Z</time></trkpt><trkpt lat="43.4572217" lon="10.7825933"><ele>82.66666666666667</ele><time>2026-04-04T09:42:46.013Z</time></trkpt><trkpt lat="43.4573517" lon="10.7824533"><ele>83.0</ele><time>2026-04-04T09:42:47.012Z</time></trkpt><trkpt lat="43.4574783" lon="10.7823183"><ele>83.0</ele><time>2026-04-04T09:42:48.013Z</time></trkpt><trkpt lat="43.4575983" lon="10.7821933"><ele>83.0</ele><time>2026-04-04T09:42:49.012Z</time></trkpt><trkpt lat="43.4577217" lon="10.7820617"><ele>83.0</ele><time>2026-04-04T09:42:50.012Z</time></trkpt><trkpt lat="43.4578517" lon="10.7819283"><ele>83.0</ele><time>2026-04-04T09:42:51.012Z</time></trkpt><trkpt lat="43.4579883" lon="10.7817883"><ele>83.0</ele><time>2026-04-04T09:42:52.013Z</time></trkpt><trkpt lat="43.45814" lon="10.7816317"><ele>83.0</ele><time>2026-04-04T09:42:53.01Z</time></trkpt><trkpt lat="43.458295" lon="10.7814567"><ele>83.0</ele><time>2026-04-04T09:42:54.013Z</time></trkpt><trkpt lat="43.4584667" lon="10.78127"><ele>83.0</ele><time>2026-04-04T09:42:55.014Z</time></trkpt><trkpt lat="43.4586517" lon="10.7810783"><ele>82.5</ele><time>2026-04-04T09:42:56.012Z</time></trkpt><trkpt lat="43.4588417" lon="10.7808767"><ele>82.0</ele><time>2026-04-04T09:42:57.013Z</time></trkpt><trkpt lat="43.4590367" lon="10.78067"><ele>82.0</ele><time>2026-04-04T09:42:58.012Z</time></trkpt><trkpt lat="43.4592433" lon="10.780455"><ele>82.0</ele><time>2026-04-04T09:42:59.012Z</time></trkpt><trkpt lat="43.4594567" lon="10.7802267"><ele>83.0</ele><time>2026-04-04T09:43:00.014Z</time></trkpt><trkpt lat="43.459685" lon="10.7799867"><ele>84.0</ele><time>2026-04-04T09:43:01.012Z</time></trkpt><trkpt lat="43.4599167" lon="10.7797467"><ele>84.0</ele><time>2026-04-04T09:43:02.012Z</time></trkpt><trkpt lat="43.46014" lon="10.7795117"><ele>84.0</ele><time>2026-04-04T09:43:03.012Z</time></trkpt><trkpt lat="43.4603567" lon="10.7792883"><ele>84.5</ele><time>2026-04-04T09:43:04.013Z</time></trkpt><trkpt lat="43.460565" lon="10.7790783"><ele>85.0</ele><time>2026-04-04T09:43:05.013Z</time></trkpt><trkpt lat="43.46076" lon="10.7788783"><ele>85.0</ele><time>2026-04-04T09:43:06.013Z</time></trkpt><trkpt lat="43.4609417" lon="10.7786883"><ele>85.0</ele><time>2026-04-04T09:43:07.013Z</time></trkpt><trkpt lat="43.4611217" lon="10.7784983"><ele>84.0</ele><time>2026-04-04T09:43:08.013Z</time></trkpt><trkpt lat="43.4613067" lon="10.7783117"><ele>83.0</ele><time>2026-04-04T09:43:09.011Z</time></trkpt><trkpt lat="43.4615" lon="10.7781317"><ele>83.0</ele><time>2026-04-04T09:43:10.012Z</time></trkpt><trkpt lat="43.4617033" lon="10.7779617"><ele>83.0</ele><time>2026-04-04T09:43:11.011Z</time></trkpt><trkpt lat="43.461915" lon="10.7777867"><ele>83.0</ele><time>2026-04-04T09:43:12.011Z</time></trkpt><trkpt lat="43.4621367" lon="10.7776017"><ele>83.0</ele><time>2026-04-04T09:43:13.009Z</time></trkpt><trkpt lat="43.4623533" lon="10.7774333"><ele>83.0</ele><time>2026-04-04T09:43:14.012Z</time></trkpt><trkpt lat="43.4625517" lon="10.7772817"><ele>83.0</ele><time>2026-04-04T09:43:15.011Z</time></trkpt><trkpt lat="43.4627417" lon="10.777135"><ele>83.0</ele><time>2026-04-04T09:43:16.011Z</time></trkpt><trkpt lat="43.4629317" lon="10.77699"><ele>82.33333333333334</ele><time>2026-04-04T09:43:17.012Z</time></trkpt><trkpt lat="43.463115" lon="10.7768467"><ele>81.66666666666667</ele><time>2026-04-04T09:43:18.011Z</time></trkpt><trkpt lat="43.4632967" lon="10.7767017"><ele>81.0</ele><time>2026-04-04T09:43:19.011Z</time></trkpt><trkpt lat="43.4634833" lon="10.7765533"><ele>81.0</ele><time>2026-04-04T09:43:20.013Z</time></trkpt><trkpt lat="43.46367" lon="10.776405"><ele>81.0</ele><time>2026-04-04T09:43:21.012Z</time></trkpt><trkpt lat="43.4638533" lon="10.77626"><ele>81.0</ele><time>2026-04-04T09:43:22.011Z</time></trkpt><trkpt lat="43.464045" lon="10.7761117"><ele>81.66666666666667</ele><time>2026-04-04T09:43:23.011Z</time></trkpt><trkpt lat="43.4642317" lon="10.77596"><ele>82.33333333333334</ele><time>2026-04-04T09:43:24.012Z</time></trkpt><trkpt lat="43.4644167" lon="10.7758017"><ele>83.0</ele><time>2026-04-04T09:43:25.011Z</time></trkpt><trkpt lat="43.4646033" lon="10.775645"><ele>81.0</ele><time>2026-04-04T09:43:26.014Z</time></trkpt><trkpt lat="43.4647967" lon="10.7754817"><ele>79.0</ele><time>2026-04-04T09:43:27.012Z</time></trkpt><trkpt lat="43.464995" lon="10.77532"><ele>80.5</ele><time>2026-04-04T09:43:28.011Z</time></trkpt><trkpt lat="43.4651933" lon="10.77516"><ele>82.0</ele><time>2026-04-04T09:43:29.012Z</time></trkpt><trkpt lat="43.465405" lon="10.775005"><ele>80.0</ele><time>2026-04-04T09:43:30.012Z</time></trkpt><trkpt lat="43.4656167" lon="10.7748633"><ele>78.0</ele><time>2026-04-04T09:43:31.013Z</time></trkpt><trkpt lat="43.4658283" lon="10.7747217"><ele>78.0</ele><time>2026-04-04T09:43:32.012Z</time></trkpt><trkpt lat="43.4660467" lon="10.7746167"><ele>78.0</ele><time>2026-04-04T09:43:33.01Z</time></trkpt><trkpt lat="43.4662767" lon="10.77454"><ele>77.5</ele><time>2026-04-04T09:43:34.011Z</time></trkpt><trkpt lat="43.4665083" lon="10.7744733"><ele>77.0</ele><time>2026-04-04T09:43:35.012Z</time></trkpt><trkpt lat="43.466735" lon="10.7744"><ele>79.0</ele><time>2026-04-04T09:43:36.013Z</time></trkpt><trkpt lat="43.4669567" lon="10.7743317"><ele>81.0</ele><time>2026-04-04T09:43:37.011Z</time></trkpt><trkpt lat="43.4671717" lon="10.7742667"><ele>83.0</ele><time>2026-04-04T09:43:38.013Z</time></trkpt><trkpt lat="43.4673833" lon="10.7741967"><ele>83.0</ele><time>2026-04-04T09:43:39.012Z</time></trkpt><trkpt lat="43.467585" lon="10.7741017"><ele>83.0</ele><time>2026-04-04T09:43:40.011Z</time></trkpt><trkpt lat="43.4677733" lon="10.7739817"><ele>83.0</ele><time>2026-04-04T09:43:41.012Z</time></trkpt><trkpt lat="43.46796" lon="10.773835"><ele>84.0</ele><time>2026-04-04T09:43:42.011Z</time></trkpt><trkpt lat="43.4681317" lon="10.7736583"><ele>85.0</ele><time>2026-04-04T09:43:43.012Z</time></trkpt><trkpt lat="43.4683083" lon="10.7734767"><ele>86.0</ele><time>2026-04-04T09:43:44.011Z</time></trkpt><trkpt lat="43.4684983" lon="10.7733"><ele>86.0</ele><time>2026-04-04T09:43:45.012Z</time></trkpt><trkpt lat="43.468675" lon="10.77311"><ele>86.0</ele><time>2026-04-04T09:43:46.011Z</time></trkpt><trkpt lat="43.4688483" lon="10.772915"><ele>86.0</ele><time>2026-04-04T09:43:47.011Z</time></trkpt><trkpt lat="43.4690317" lon="10.7727233"><ele>84.0</ele><time>2026-04-04T09:43:48.012Z</time></trkpt><trkpt lat="43.4692117" lon="10.77253"><ele>82.0</ele><time>2026-04-04T09:43:49.012Z</time></trkpt><trkpt lat="43.4693983" lon="10.77234"><ele>82.0</ele><time>2026-04-04T09:43:50.011Z</time></trkpt><trkpt lat="43.46958" lon="10.7721433"><ele>82.0</ele><time>2026-04-04T09:43:51.012Z</time></trkpt><trkpt lat="43.46976" lon="10.7719417"><ele>82.5</ele><time>2026-04-04T09:43:52.011Z</time></trkpt><trkpt lat="43.4699367" lon="10.7717333"><ele>83.0</ele><time>2026-04-04T09:43:53.012Z</time></trkpt><trkpt lat="43.4701133" lon="10.7715183"><ele>83.0</ele><time>2026-04-04T09:43:54.014Z</time></trkpt><trkpt lat="43.4702933" lon="10.7713017"><ele>83.0</ele><time>2026-04-04T09:43:55.012Z</time></trkpt><trkpt lat="43.4704783" lon="10.771095"><ele>81.0</ele><time>2026-04-04T09:43:56.011Z</time></trkpt><trkpt lat="43.4706583" lon="10.7708817"><ele>79.0</ele><time>2026-04-04T09:43:57.014Z</time></trkpt><trkpt lat="43.4708233" lon="10.7706633"><ele>79.0</ele><time>2026-04-04T09:43:58.01Z</time></trkpt><trkpt lat="43.4709917" lon="10.7704267"><ele>79.0</ele><time>2026-04-04T09:43:59.011Z</time></trkpt><trkpt lat="43.4711517" lon="10.7701883"><ele>77.66666666666666</ele><time>2026-04-04T09:44:00.011Z</time></trkpt><trkpt lat="43.4712967" lon="10.769945"><ele>76.33333333333333</ele><time>2026-04-04T09:44:01.012Z</time></trkpt><trkpt lat="43.4714283" lon="10.769715"><ele>75.0</ele><time>2026-04-04T09:44:02.011Z</time></trkpt><trkpt lat="43.4715417" lon="10.769495"><ele>77.0</ele><time>2026-04-04T09:44:03.011Z</time></trkpt><trkpt lat="43.4716467" lon="10.769275"><ele>79.0</ele><time>2026-04-04T09:44:04.01Z</time></trkpt><trkpt lat="43.4717333" lon="10.7690467"><ele>81.0</ele><time>2026-04-04T09:44:05.012Z</time></trkpt><trkpt lat="43.4718083" lon="10.76881"><ele>81.0</ele><time>2026-04-04T09:44:06.011Z</time></trkpt><trkpt lat="43.4718717" lon="10.7685733"><ele>81.0</ele><time>2026-04-04T09:44:07.011Z</time></trkpt><trkpt lat="43.47194" lon="10.7683383"><ele>81.0</ele><time>2026-04-04T09:44:08.012Z</time></trkpt><trkpt lat="43.472" lon="10.76811"><ele>80.0</ele><time>2026-04-04T09:44:09.011Z</time></trkpt><trkpt lat="43.4720633" lon="10.7678833"><ele>79.0</ele><time>2026-04-04T09:44:10.01Z</time></trkpt><trkpt lat="43.4721233" lon="10.767655"><ele>78.0</ele><time>2026-04-04T09:44:11.013Z</time></trkpt><trkpt lat="43.4721817" lon="10.7674233"><ele>77.33333333333333</ele><time>2026-04-04T09:44:12.011Z</time></trkpt><trkpt lat="43.472245" lon="10.7671867"><ele>76.66666666666666</ele><time>2026-04-04T09:44:13.013Z</time></trkpt><trkpt lat="43.47231" lon="10.7669483"><ele>76.0</ele><time>2026-04-04T09:44:14.011Z</time></trkpt><trkpt lat="43.472375" lon="10.7667083"><ele>76.0</ele><time>2026-04-04T09:44:15.012Z</time></trkpt><trkpt lat="43.4724367" lon="10.76647"><ele>76.0</ele><time>2026-04-04T09:44:16.012Z</time></trkpt><trkpt lat="43.4725017" lon="10.7662317"><ele>76.0</ele><time>2026-04-04T09:44:17.012Z</time></trkpt><trkpt lat="43.4725667" lon="10.766"><ele>76.66666666666666</ele><time>2026-04-04T09:44:18.011Z</time></trkpt><trkpt lat="43.472635" lon="10.7657683"><ele>77.33333333333333</ele><time>2026-04-04T09:44:19.012Z</time></trkpt><trkpt lat="43.4727017" lon="10.7655417"><ele>78.0</ele><time>2026-04-04T09:44:20.012Z</time></trkpt><trkpt lat="43.47276" lon="10.7653133"><ele>78.33333333333333</ele><time>2026-04-04T09:44:21.011Z</time></trkpt><trkpt lat="43.472815" lon="10.7650817"><ele>78.66666666666666</ele><time>2026-04-04T09:44:22.01Z</time></trkpt><trkpt lat="43.4728617" lon="10.7648483"><ele>79.0</ele><time>2026-04-04T09:44:23.012Z</time></trkpt><trkpt lat="43.472895" lon="10.7646267"><ele>79.0</ele><time>2026-04-04T09:44:24.012Z</time></trkpt><trkpt lat="43.4729133" lon="10.7644217"><ele>79.0</ele><time>2026-04-04T09:44:25.011Z</time></trkpt><trkpt lat="43.4729233" lon="10.7642283"><ele>79.0</ele><time>2026-04-04T09:44:26.011Z</time></trkpt><trkpt lat="43.4729333" lon="10.7640533"><ele>79.0</ele><time>2026-04-04T09:44:27.012Z</time></trkpt><trkpt lat="43.4729433" lon="10.76391"><ele>79.0</ele><time>2026-04-04T09:44:28.012Z</time></trkpt><trkpt lat="43.472955" lon="10.763785"><ele>79.0</ele><time>2026-04-04T09:44:29.012Z</time></trkpt><trkpt lat="43.4729633" lon="10.7636767"><ele>79.0</ele><time>2026-04-04T09:44:30.011Z</time></trkpt><trkpt lat="43.4729717" lon="10.7635867"><ele>79.0</ele><time>2026-04-04T09:44:31.012Z</time></trkpt><trkpt lat="43.4730033" lon="10.7634417"><ele>79.0</ele><time>2026-04-04T09:44:33.013Z</time></trkpt><trkpt lat="43.4730683" lon="10.7633583"><ele>79.0</ele><time>2026-04-04T09:44:35.012Z</time></trkpt><trkpt lat="43.4732083" lon="10.7633267"><ele>79.75</ele><time>2026-04-04T09:44:37.013Z</time></trkpt><trkpt lat="43.473315" lon="10.763335"><ele>80.5</ele><time>2026-04-04T09:44:38.013Z</time></trkpt><trkpt lat="43.4734617" lon="10.7633783"><ele>81.25</ele><time>2026-04-04T09:44:39.011Z</time></trkpt><trkpt lat="43.473615" lon="10.7634083"><ele>82.0</ele><time>2026-04-04T09:44:40.013Z</time></trkpt><trkpt lat="43.4737783" lon="10.763435"><ele>82.0</ele><time>2026-04-04T09:44:41.012Z</time></trkpt><trkpt lat="43.4739633" lon="10.7634667"><ele>82.0</ele><time>2026-04-04T09:44:42.012Z</time></trkpt><trkpt lat="43.474155" lon="10.7634883"><ele>82.0</ele><time>2026-04-04T09:44:43.012Z</time></trkpt><trkpt lat="43.474345" lon="10.7635"><ele>82.0</ele><time>2026-04-04T09:44:44.011Z</time></trkpt><trkpt lat="43.4745433" lon="10.76349"><ele>82.0</ele><time>2026-04-04T09:44:45.012Z</time></trkpt><trkpt lat="43.4747567" lon="10.76346"><ele>82.0</ele><time>2026-04-04T09:44:46.013Z</time></trkpt><trkpt lat="43.4749767" lon="10.7634183"><ele>82.5</ele><time>2026-04-04T09:44:47.012Z</time></trkpt><trkpt lat="43.4752" lon="10.763365"><ele>83.0</ele><time>2026-04-04T09:44:48.014Z</time></trkpt><trkpt lat="43.4754283" lon="10.76331"><ele>82.66666666666667</ele><time>2026-04-04T09:44:49.011Z</time></trkpt><trkpt lat="43.475645" lon="10.7632533"><ele>82.33333333333333</ele><time>2026-04-04T09:44:50.011Z</time></trkpt><trkpt lat="43.4758483" lon="10.7631967"><ele>82.0</ele><time>2026-04-04T09:44:51.012Z</time></trkpt><trkpt lat="43.4760367" lon="10.7631483"><ele>82.0</ele><time>2026-04-04T09:44:52.012Z</time></trkpt><trkpt lat="43.4762033" lon="10.7630983"><ele>82.0</ele><time>2026-04-04T09:44:53.011Z</time></trkpt><trkpt lat="43.4763417" lon="10.7630133"><ele>82.0</ele><time>2026-04-04T09:44:54.012Z</time></trkpt><trkpt lat="43.4764633" lon="10.76288"><ele>80.66666666666666</ele><time>2026-04-04T09:44:55.012Z</time></trkpt><trkpt lat="43.4765717" lon="10.7627017"><ele>79.33333333333333</ele><time>2026-04-04T09:44:56.012Z</time></trkpt><trkpt lat="43.47664" lon="10.7624633"><ele>78.0</ele><time>2026-04-04T09:44:57.013Z</time></trkpt><trkpt lat="43.4766467" lon="10.7621783"><ele>77.66666666666667</ele><time>2026-04-04T09:44:58.012Z</time></trkpt><trkpt lat="43.47665" lon="10.7618767"><ele>77.33333333333334</ele><time>2026-04-04T09:44:59.012Z</time></trkpt><trkpt lat="43.4766517" lon="10.7615633"><ele>77.0</ele><time>2026-04-04T09:45:00.012Z</time></trkpt><trkpt lat="43.47668" lon="10.7612667"><ele>77.33333333333334</ele><time>2026-04-04T09:45:01.012Z</time></trkpt><trkpt lat="43.4767333" lon="10.7609733"><ele>77.66666666666667</ele><time>2026-04-04T09:45:02.012Z</time></trkpt><trkpt lat="43.4768083" lon="10.7606783"><ele>78.0</ele><time>2026-04-04T09:45:03.013Z</time></trkpt><trkpt lat="43.4768933" lon="10.7603867"><ele>79.0</ele><time>2026-04-04T09:45:04.013Z</time></trkpt><trkpt lat="43.4769833" lon="10.7600983"><ele>80.0</ele><time>2026-04-04T09:45:05.012Z</time></trkpt><trkpt lat="43.4770717" lon="10.7598167"><ele>76.66666666666667</ele><time>2026-04-04T09:45:06.012Z</time></trkpt><trkpt lat="43.47716" lon="10.75953"><ele>73.33333333333333</ele><time>2026-04-04T09:45:07.011Z</time></trkpt><trkpt lat="43.4772467" lon="10.7592533"><ele>70.0</ele><time>2026-04-04T09:45:08.012Z</time></trkpt><trkpt lat="43.477335" lon="10.75898"><ele>70.0</ele><time>2026-04-04T09:45:09.011Z</time></trkpt><trkpt lat="43.4774217" lon="10.758705"><ele>70.0</ele><time>2026-04-04T09:45:10.011Z</time></trkpt><trkpt lat="43.477495" lon="10.75843"><ele>70.0</ele><time>2026-04-04T09:45:11.012Z</time></trkpt><trkpt lat="43.4775733" lon="10.7581433"><ele>71.5</ele><time>2026-04-04T09:45:12.011Z</time></trkpt><trkpt lat="43.47766" lon="10.75783"><ele>73.0</ele><time>2026-04-04T09:45:13.014Z</time></trkpt><trkpt lat="43.4777583" lon="10.7575017"><ele>72.5</ele><time>2026-04-04T09:45:14.012Z</time></trkpt><trkpt lat="43.47786" lon="10.757185"><ele>72.0</ele><time>2026-04-04T09:45:15.012Z</time></trkpt><trkpt lat="43.4779683" lon="10.756875"><ele>73.0</ele><time>2026-04-04T09:45:16.011Z</time></trkpt><trkpt lat="43.47808" lon="10.7565833"><ele>74.0</ele><time>2026-04-04T09:45:17.011Z</time></trkpt><trkpt lat="43.4782117" lon="10.7563167"><ele>74.0</ele><time>2026-04-04T09:45:18.011Z</time></trkpt><trkpt lat="43.4783633" lon="10.756065"><ele>74.0</ele><time>2026-04-04T09:45:19.012Z</time></trkpt><trkpt lat="43.47853" lon="10.7558167"><ele>74.5</ele><time>2026-04-04T09:45:20.012Z</time></trkpt><trkpt lat="43.4787033" lon="10.755575"><ele>75.0</ele><time>2026-04-04T09:45:21.011Z</time></trkpt><trkpt lat="43.4788783" lon="10.7553217"><ele>75.0</ele><time>2026-04-04T09:45:22.011Z</time></trkpt><trkpt lat="43.479055" lon="10.7550617"><ele>75.0</ele><time>2026-04-04T09:45:23.011Z</time></trkpt><trkpt lat="43.479235" lon="10.7548067"><ele>75.0</ele><time>2026-04-04T09:45:24.011Z</time></trkpt><trkpt lat="43.4794133" lon="10.7545517"><ele>75.0</ele><time>2026-04-04T09:45:25.013Z</time></trkpt><trkpt lat="43.479595" lon="10.75429"><ele>74.0</ele><time>2026-04-04T09:45:26.012Z</time></trkpt><trkpt lat="43.4797633" lon="10.7540233"><ele>73.0</ele><time>2026-04-04T09:45:27.012Z</time></trkpt><trkpt lat="43.479935" lon="10.7537483"><ele>76.0</ele><time>2026-04-04T09:45:28.012Z</time></trkpt><trkpt lat="43.4800917" lon="10.7534783"><ele>79.0</ele><time>2026-04-04T09:45:29.012Z</time></trkpt><trkpt lat="43.480245" lon="10.7532067"><ele>79.0</ele><time>2026-04-04T09:45:30.011Z</time></trkpt><trkpt lat="43.4803917" lon="10.7529317"><ele>79.0</ele><time>2026-04-04T09:45:31.012Z</time></trkpt><trkpt lat="43.480535" lon="10.752655"><ele>76.0</ele><time>2026-04-04T09:45:32.012Z</time></trkpt><trkpt lat="43.4806683" lon="10.7523933"><ele>73.0</ele><time>2026-04-04T09:45:33.012Z</time></trkpt><trkpt lat="43.480805" lon="10.7521417"><ele>73.0</ele><time>2026-04-04T09:45:34.012Z</time></trkpt><trkpt lat="43.4809633" lon="10.7519067"><ele>73.0</ele><time>2026-04-04T09:45:35.011Z</time></trkpt><trkpt lat="43.4811383" lon="10.7516817"><ele>70.5</ele><time>2026-04-04T09:45:36.013Z</time></trkpt><trkpt lat="43.48132" lon="10.75146"><ele>68.0</ele><time>2026-04-04T09:45:37.012Z</time></trkpt><trkpt lat="43.481505" lon="10.7512333"><ele>71.0</ele><time>2026-04-04T09:45:38.011Z</time></trkpt><trkpt lat="43.481695" lon="10.751005"><ele>74.0</ele><time>2026-04-04T09:45:39.012Z</time></trkpt><trkpt lat="43.4818833" lon="10.750775"><ele>74.0</ele><time>2026-04-04T09:45:40.012Z</time></trkpt><trkpt lat="43.4820717" lon="10.75054"><ele>74.0</ele><time>2026-04-04T09:45:41.012Z</time></trkpt><trkpt lat="43.482265" lon="10.7503017"><ele>73.5</ele><time>2026-04-04T09:45:42.011Z</time></trkpt><trkpt lat="43.4824583" lon="10.7500683"><ele>73.0</ele><time>2026-04-04T09:45:43.011Z</time></trkpt><trkpt lat="43.48265" lon="10.749835"><ele>73.0</ele><time>2026-04-04T09:45:44.012Z</time></trkpt><trkpt lat="43.482845" lon="10.7496017"><ele>73.0</ele><time>2026-04-04T09:45:45.012Z</time></trkpt><trkpt lat="43.4830383" lon="10.74938"><ele>72.5</ele><time>2026-04-04T09:45:46.011Z</time></trkpt><trkpt lat="43.4832333" lon="10.7491683"><ele>72.0</ele><time>2026-04-04T09:45:47.013Z</time></trkpt><trkpt lat="43.48343" lon="10.74897"><ele>72.0</ele><time>2026-04-04T09:45:48.012Z</time></trkpt><trkpt lat="43.483635" lon="10.7487917"><ele>72.0</ele><time>2026-04-04T09:45:49.013Z</time></trkpt><trkpt lat="43.4838433" lon="10.7486283"><ele>72.0</ele><time>2026-04-04T09:45:50.011Z</time></trkpt><trkpt lat="43.4840567" lon="10.748485"><ele>72.0</ele><time>2026-04-04T09:45:51.013Z</time></trkpt><trkpt lat="43.484275" lon="10.7483683"><ele>72.0</ele><time>2026-04-04T09:45:52.012Z</time></trkpt><trkpt lat="43.484485" lon="10.7482467"><ele>72.0</ele><time>2026-04-04T09:45:53.012Z</time></trkpt><trkpt lat="43.4846817" lon="10.7481017"><ele>73.0</ele><time>2026-04-04T09:45:54.011Z</time></trkpt><trkpt lat="43.484865" lon="10.74792"><ele>74.0</ele><time>2026-04-04T09:45:55.012Z</time></trkpt><trkpt lat="43.4850383" lon="10.7477067"><ele>74.0</ele><time>2026-04-04T09:45:56.012Z</time></trkpt><trkpt lat="43.4852" lon="10.747455"><ele>74.0</ele><time>2026-04-04T09:45:57.013Z</time></trkpt><trkpt lat="43.4853467" lon="10.747185"><ele>71.0</ele><time>2026-04-04T09:45:58.012Z</time></trkpt><trkpt lat="43.4854983" lon="10.7469083"><ele>68.0</ele><time>2026-04-04T09:45:59.011Z</time></trkpt><trkpt lat="43.485665" lon="10.7466483"><ele>68.0</ele><time>2026-04-04T09:46:00.012Z</time></trkpt><trkpt lat="43.485855" lon="10.7464117"><ele>68.0</ele><time>2026-04-04T09:46:01.015Z</time></trkpt><trkpt lat="43.4860567" lon="10.7462"><ele>68.0</ele><time>2026-04-04T09:46:02.013Z</time></trkpt><trkpt lat="43.4862717" lon="10.746015"><ele>68.0</ele><time>2026-04-04T09:46:03.013Z</time></trkpt><trkpt lat="43.4864933" lon="10.745835"><ele>68.0</ele><time>2026-04-04T09:46:04.012Z</time></trkpt><trkpt lat="43.4867133" lon="10.7456383"><ele>68.0</ele><time>2026-04-04T09:46:05.013Z</time></trkpt><trkpt lat="43.4869217" lon="10.7454267"><ele>69.0</ele><time>2026-04-04T09:46:06.013Z</time></trkpt><trkpt lat="43.4871167" lon="10.7452033"><ele>70.0</ele><time>2026-04-04T09:46:07.012Z</time></trkpt><trkpt lat="43.4872917" lon="10.7449617"><ele>70.0</ele><time>2026-04-04T09:46:08.012Z</time></trkpt><trkpt lat="43.4874467" lon="10.74469"><ele>70.0</ele><time>2026-04-04T09:46:09.012Z</time></trkpt><trkpt lat="43.4875917" lon="10.7444017"><ele>72.5</ele><time>2026-04-04T09:46:10.012Z</time></trkpt><trkpt lat="43.4877333" lon="10.744095"><ele>75.0</ele><time>2026-04-04T09:46:11.011Z</time></trkpt><trkpt lat="43.4878767" lon="10.743785"><ele>73.0</ele><time>2026-04-04T09:46:12.011Z</time></trkpt><trkpt lat="43.4880367" lon="10.7434917"><ele>71.0</ele><time>2026-04-04T09:46:13.012Z</time></trkpt><trkpt lat="43.4882133" lon="10.7432217"><ele>71.0</ele><time>2026-04-04T09:46:14.011Z</time></trkpt><trkpt lat="43.4883983" lon="10.742965"><ele>71.0</ele><time>2026-04-04T09:46:15.013Z</time></trkpt><trkpt lat="43.488595" lon="10.742735"><ele>70.5</ele><time>2026-04-04T09:46:16.012Z</time></trkpt><trkpt lat="43.488805" lon="10.7425233"><ele>70.0</ele><time>2026-04-04T09:46:17.012Z</time></trkpt><trkpt lat="43.4890267" lon="10.7423317"><ele>70.0</ele><time>2026-04-04T09:46:18.012Z</time></trkpt><trkpt lat="43.4892567" lon="10.7421683"><ele>70.0</ele><time>2026-04-04T09:46:19.01Z</time></trkpt><trkpt lat="43.4894917" lon="10.7420183"><ele>71.0</ele><time>2026-04-04T09:46:20.012Z</time></trkpt><trkpt lat="43.489725" lon="10.7418683"><ele>72.0</ele><time>2026-04-04T09:46:21.012Z</time></trkpt><trkpt lat="43.4899567" lon="10.7417117"><ele>72.0</ele><time>2026-04-04T09:46:22.011Z</time></trkpt><trkpt lat="43.4901783" lon="10.7415433"><ele>72.0</ele><time>2026-04-04T09:46:23.012Z</time></trkpt><trkpt lat="43.4903917" lon="10.7413533"><ele>71.0</ele><time>2026-04-04T09:46:24.013Z</time></trkpt><trkpt lat="43.4905917" lon="10.7411433"><ele>70.0</ele><time>2026-04-04T09:46:25.014Z</time></trkpt><trkpt lat="43.4907867" lon="10.7409167"><ele>70.0</ele><time>2026-04-04T09:46:26.012Z</time></trkpt><trkpt lat="43.4909667" lon="10.74067"><ele>70.0</ele><time>2026-04-04T09:46:27.013Z</time></trkpt><trkpt lat="43.49113" lon="10.740405"><ele>69.0</ele><time>2026-04-04T09:46:28.012Z</time></trkpt><trkpt lat="43.4912833" lon="10.7401233"><ele>68.0</ele><time>2026-04-04T09:46:29.012Z</time></trkpt><trkpt lat="43.4914317" lon="10.7398267"><ele>68.0</ele><time>2026-04-04T09:46:30.012Z</time></trkpt><trkpt lat="43.4915767" lon="10.7395217"><ele>68.0</ele><time>2026-04-04T09:46:31.012Z</time></trkpt><trkpt lat="43.49172" lon="10.7392183"><ele>69.0</ele><time>2026-04-04T09:46:32.011Z</time></trkpt><trkpt lat="43.49186" lon="10.738915"><ele>70.0</ele><time>2026-04-04T09:46:33.012Z</time></trkpt><trkpt lat="43.4920067" lon="10.7386083"><ele>69.5</ele><time>2026-04-04T09:46:34.011Z</time></trkpt><trkpt lat="43.4921617" lon="10.73832"><ele>69.0</ele><time>2026-04-04T09:46:35.012Z</time></trkpt><trkpt lat="43.492335" lon="10.7380533"><ele>69.0</ele><time>2026-04-04T09:46:36.013Z</time></trkpt><trkpt lat="43.492515" lon="10.7378033"><ele>69.0</ele><time>2026-04-04T09:46:37.011Z</time></trkpt><trkpt lat="43.4927" lon="10.7375667"><ele>69.0</ele><time>2026-04-04T09:46:38.012Z</time></trkpt><trkpt lat="43.4929017" lon="10.7373483"><ele>69.0</ele><time>2026-04-04T09:46:39.013Z</time></trkpt><trkpt lat="43.4931017" lon="10.7371467"><ele>69.0</ele><time>2026-04-04T09:46:40.012Z</time></trkpt><trkpt lat="43.4933067" lon="10.7369533"><ele>69.0</ele><time>2026-04-04T09:46:41.012Z</time></trkpt><trkpt lat="43.4935067" lon="10.73676"><ele>69.0</ele><time>2026-04-04T09:46:42.014Z</time></trkpt><trkpt lat="43.4937133" lon="10.736575"><ele>69.0</ele><time>2026-04-04T09:46:43.011Z</time></trkpt><trkpt lat="43.4939233" lon="10.7363983"><ele>69.5</ele><time>2026-04-04T09:46:44.012Z</time></trkpt><trkpt lat="43.4941417" lon="10.7362367"><ele>70.0</ele><time>2026-04-04T09:46:45.013Z</time></trkpt><trkpt lat="43.4943717" lon="10.7361017"><ele>70.5</ele><time>2026-04-04T09:46:46.012Z</time></trkpt><trkpt lat="43.494605" lon="10.7359833"><ele>71.0</ele><time>2026-04-04T09:46:47.012Z</time></trkpt><trkpt lat="43.4948433" lon="10.735875"><ele>71.0</ele><time>2026-04-04T09:46:48.012Z</time></trkpt><trkpt lat="43.4950833" lon="10.7357733"><ele>71.0</ele><time>2026-04-04T09:46:49.013Z</time></trkpt><trkpt lat="43.495325" lon="10.73567"><ele>69.5</ele><time>2026-04-04T09:46:50.013Z</time></trkpt><trkpt lat="43.4955667" lon="10.7355533"><ele>68.0</ele><time>2026-04-04T09:46:51.012Z</time></trkpt><trkpt lat="43.4958033" lon="10.7354183"><ele>68.0</ele><time>2026-04-04T09:46:52.013Z</time></trkpt><trkpt lat="43.4960317" lon="10.735265"><ele>68.0</ele><time>2026-04-04T09:46:53.012Z</time></trkpt><trkpt lat="43.49625" lon="10.7350833"><ele>67.5</ele><time>2026-04-04T09:46:54.012Z</time></trkpt><trkpt lat="43.49646" lon="10.7348833"><ele>67.0</ele><time>2026-04-04T09:46:55.013Z</time></trkpt><trkpt lat="43.4966667" lon="10.7346717"><ele>67.0</ele><time>2026-04-04T09:46:56.012Z</time></trkpt><trkpt lat="43.4968717" lon="10.734455"><ele>67.0</ele><time>2026-04-04T09:46:57.013Z</time></trkpt><trkpt lat="43.49708" lon="10.7342533"><ele>66.5</ele><time>2026-04-04T09:46:58.013Z</time></trkpt><trkpt lat="43.497295" lon="10.73406"><ele>66.0</ele><time>2026-04-04T09:46:59.012Z</time></trkpt><trkpt lat="43.4975133" lon="10.7338817"><ele>66.0</ele><time>2026-04-04T09:47:00.012Z</time></trkpt><trkpt lat="43.49774" lon="10.7337317"><ele>66.0</ele><time>2026-04-04T09:47:01.012Z</time></trkpt><trkpt lat="43.4979717" lon="10.7336"><ele>68.0</ele><time>2026-04-04T09:47:02.012Z</time></trkpt><trkpt lat="43.4982083" lon="10.7334833"><ele>70.0</ele><time>2026-04-04T09:47:03.013Z</time></trkpt><trkpt lat="43.498445" lon="10.733365"><ele>70.0</ele><time>2026-04-04T09:47:04.011Z</time></trkpt><trkpt lat="43.4986817" lon="10.7332467"><ele>70.0</ele><time>2026-04-04T09:47:05.012Z</time></trkpt><trkpt lat="43.4989167" lon="10.7331317"><ele>69.0</ele><time>2026-04-04T09:47:06.011Z</time></trkpt><trkpt lat="43.4991433" lon="10.7330183"><ele>68.0</ele><time>2026-04-04T09:47:07.012Z</time></trkpt><trkpt lat="43.4993533" lon="10.7329083"><ele>68.0</ele><time>2026-04-04T09:47:08.011Z</time></trkpt><trkpt lat="43.4995483" lon="10.7327933"><ele>68.0</ele><time>2026-04-04T09:47:09.012Z</time></trkpt><trkpt lat="43.499725" lon="10.73266"><ele>68.0</ele><time>2026-04-04T09:47:10.012Z</time></trkpt><trkpt lat="43.4998783" lon="10.7325"><ele>67.66666666666667</ele><time>2026-04-04T09:47:11.012Z</time></trkpt><trkpt lat="43.5000083" lon="10.7323083"><ele>67.33333333333333</ele><time>2026-04-04T09:47:12.012Z</time></trkpt><trkpt lat="43.5001017" lon="10.7320867"><ele>67.0</ele><time>2026-04-04T09:47:13.013Z</time></trkpt><trkpt lat="43.5001733" lon="10.731845"><ele>67.0</ele><time>2026-04-04T09:47:14.01Z</time></trkpt><trkpt lat="43.500225" lon="10.7315933"><ele>67.0</ele><time>2026-04-04T09:47:15.013Z</time></trkpt><trkpt lat="43.50025" lon="10.731335"><ele>67.0</ele><time>2026-04-04T09:47:16.012Z</time></trkpt><trkpt lat="43.500255" lon="10.73108"><ele>67.0</ele><time>2026-04-04T09:47:17.013Z</time></trkpt><trkpt lat="43.5002517" lon="10.7308167"><ele>67.0</ele><time>2026-04-04T09:47:18.011Z</time></trkpt><trkpt lat="43.5002433" lon="10.730555"><ele>67.0</ele><time>2026-04-04T09:47:19.013Z</time></trkpt><trkpt lat="43.5002283" lon="10.7303"><ele>68.0</ele><time>2026-04-04T09:47:20.012Z</time></trkpt><trkpt lat="43.5002083" lon="10.7300667"><ele>69.0</ele><time>2026-04-04T09:47:21.013Z</time></trkpt><trkpt lat="43.500185" lon="10.72985"><ele>70.0</ele><time>2026-04-04T09:47:22.011Z</time></trkpt><trkpt lat="43.5001617" lon="10.7296433"><ele>70.0</ele><time>2026-04-04T09:47:23.012Z</time></trkpt><trkpt lat="43.5001333" lon="10.729445"><ele>70.0</ele><time>2026-04-04T09:47:24.012Z</time></trkpt><trkpt lat="43.5000933" lon="10.72925"><ele>70.0</ele><time>2026-04-04T09:47:25.012Z</time></trkpt><trkpt lat="43.50005" lon="10.7290517"><ele>70.0</ele><time>2026-04-04T09:47:26.011Z</time></trkpt><trkpt lat="43.5000017" lon="10.7288583"><ele>70.0</ele><time>2026-04-04T09:47:27.013Z</time></trkpt><trkpt lat="43.4999433" lon="10.7286817"><ele>70.0</ele><time>2026-04-04T09:47:28.012Z</time></trkpt><trkpt lat="43.49989" lon="10.7285083"><ele>70.0</ele><time>2026-04-04T09:47:29.013Z</time></trkpt><trkpt lat="43.4998383" lon="10.7283467"><ele>70.0</ele><time>2026-04-04T09:47:30.013Z</time></trkpt><trkpt lat="43.49979" lon="10.7281917"><ele>71.75</ele><time>2026-04-04T09:47:31.013Z</time></trkpt><trkpt lat="43.4997433" lon="10.7280383"><ele>73.5</ele><time>2026-04-04T09:47:32.013Z</time></trkpt><trkpt lat="43.4996967" lon="10.7278867"><ele>75.25</ele><time>2026-04-04T09:47:33.013Z</time></trkpt><trkpt lat="43.499645" lon="10.7277417"><ele>77.0</ele><time>2026-04-04T09:47:34.013Z</time></trkpt><trkpt lat="43.4995917" lon="10.7275967"><ele>75.5</ele><time>2026-04-04T09:47:35.012Z</time></trkpt><trkpt lat="43.4995367" lon="10.7274533"><ele>74.0</ele><time>2026-04-04T09:47:36.014Z</time></trkpt><trkpt lat="43.4994767" lon="10.7273167"><ele>72.5</ele><time>2026-04-04T09:47:37.012Z</time></trkpt><trkpt lat="43.499415" lon="10.7271733"><ele>71.0</ele><time>2026-04-04T09:47:38.012Z</time></trkpt><trkpt lat="43.4993467" lon="10.7270267"><ele>71.5</ele><time>2026-04-04T09:47:39.012Z</time></trkpt><trkpt lat="43.4992817" lon="10.7268733"><ele>72.0</ele><time>2026-04-04T09:47:40.013Z</time></trkpt><trkpt lat="43.499215" lon="10.7267133"><ele>72.5</ele><time>2026-04-04T09:47:41.013Z</time></trkpt><trkpt lat="43.499155" lon="10.7265483"><ele>73.0</ele><time>2026-04-04T09:47:42.012Z</time></trkpt><trkpt lat="43.4990917" lon="10.7263817"><ele>73.0</ele><time>2026-04-04T09:47:43.013Z</time></trkpt><trkpt lat="43.49902" lon="10.72622"><ele>73.0</ele><time>2026-04-04T09:47:44.012Z</time></trkpt><trkpt lat="43.4989467" lon="10.7260567"><ele>73.0</ele><time>2026-04-04T09:47:45.013Z</time></trkpt><trkpt lat="43.4988717" lon="10.725885"><ele>73.0</ele><time>2026-04-04T09:47:46.012Z</time></trkpt><trkpt lat="43.4987917" lon="10.72571"><ele>73.66666666666666</ele><time>2026-04-04T09:47:47.012Z</time></trkpt><trkpt lat="43.4987133" lon="10.7255233"><ele>74.33333333333333</ele><time>2026-04-04T09:47:48.013Z</time></trkpt><trkpt lat="43.4986383" lon="10.7253367"><ele>75.0</ele><time>2026-04-04T09:47:49.011Z</time></trkpt><trkpt lat="43.498575" lon="10.7251533"><ele>75.33333333333333</ele><time>2026-04-04T09:47:50.012Z</time></trkpt><trkpt lat="43.4985317" lon="10.72496"><ele>75.66666666666666</ele><time>2026-04-04T09:47:51.013Z</time></trkpt><trkpt lat="43.4985117" lon="10.7247517"><ele>76.0</ele><time>2026-04-04T09:47:52.011Z</time></trkpt><trkpt lat="43.49851" lon="10.724525"><ele>75.0</ele><time>2026-04-04T09:47:53.012Z</time></trkpt><trkpt lat="43.498515" lon="10.72429"><ele>74.0</ele><time>2026-04-04T09:47:54.012Z</time></trkpt><trkpt lat="43.4985383" lon="10.72405"><ele>73.0</ele><time>2026-04-04T09:47:55.012Z</time></trkpt><trkpt lat="43.4985833" lon="10.7238067"><ele>71.33333333333333</ele><time>2026-04-04T09:47:56.012Z</time></trkpt><trkpt lat="43.498635" lon="10.7235567"><ele>69.66666666666667</ele><time>2026-04-04T09:47:57.012Z</time></trkpt><trkpt lat="43.4986883" lon="10.7233183"><ele>68.0</ele><time>2026-04-04T09:47:58.012Z</time></trkpt><trkpt lat="43.4987317" lon="10.72309"><ele>68.0</ele><time>2026-04-04T09:47:59.011Z</time></trkpt><trkpt lat="43.4987767" lon="10.72286"><ele>68.0</ele><time>2026-04-04T09:48:00.012Z</time></trkpt><trkpt lat="43.4988183" lon="10.7226267"><ele>68.0</ele><time>2026-04-04T09:48:01.012Z</time></trkpt><trkpt lat="43.4988617" lon="10.7223983"><ele>68.0</ele><time>2026-04-04T09:48:02.012Z</time></trkpt><trkpt lat="43.4989" lon="10.7221883"><ele>68.0</ele><time>2026-04-04T09:48:03.012Z</time></trkpt><trkpt lat="43.4989383" lon="10.722005"><ele>68.0</ele><time>2026-04-04T09:48:04.013Z</time></trkpt><trkpt lat="43.4989767" lon="10.72185"><ele>68.0</ele><time>2026-04-04T09:48:05.012Z</time></trkpt><trkpt lat="43.4990233" lon="10.7217283"><ele>68.33333333333334</ele><time>2026-04-04T09:48:06.012Z</time></trkpt><trkpt lat="43.4990817" lon="10.7216383"><ele>68.66666666666667</ele><time>2026-04-04T09:48:07.012Z</time></trkpt><trkpt lat="43.4991433" lon="10.7215633"><ele>69.0</ele><time>2026-04-04T09:48:08.012Z</time></trkpt><trkpt lat="43.4992017" lon="10.721495"><ele>69.33333333333333</ele><time>2026-04-04T09:48:09.014Z</time></trkpt><trkpt lat="43.4992333" lon="10.721415"><ele>69.66666666666666</ele><time>2026-04-04T09:48:10.011Z</time></trkpt><trkpt lat="43.4991883" lon="10.7212933"><ele>70.0</ele><time>2026-04-04T09:48:11.012Z</time></trkpt><trkpt lat="43.499135" lon="10.7211767"><ele>68.66666666666666</ele><time>2026-04-04T09:48:12.012Z</time></trkpt><trkpt lat="43.49906" lon="10.7210267"><ele>67.33333333333333</ele><time>2026-04-04T09:48:13.012Z</time></trkpt><trkpt lat="43.4990033" lon="10.72083"><ele>66.0</ele><time>2026-04-04T09:48:14.011Z</time></trkpt><trkpt lat="43.4989583" lon="10.720595"><ele>66.0</ele><time>2026-04-04T09:48:15.012Z</time></trkpt><trkpt lat="43.498925" lon="10.7203183"><ele>66.0</ele><time>2026-04-04T09:48:16.012Z</time></trkpt><trkpt lat="43.4989" lon="10.7200183"><ele>66.0</ele><time>2026-04-04T09:48:17.012Z</time></trkpt><trkpt lat="43.4988783" lon="10.7197033"><ele>66.5</ele><time>2026-04-04T09:48:18.014Z</time></trkpt><trkpt lat="43.498855" lon="10.71938"><ele>67.0</ele><time>2026-04-04T09:48:19.012Z</time></trkpt><trkpt lat="43.4988333" lon="10.7190617"><ele>67.0</ele><time>2026-04-04T09:48:20.012Z</time></trkpt><trkpt lat="43.498815" lon="10.7187533"><ele>67.0</ele><time>2026-04-04T09:48:21.013Z</time></trkpt><trkpt lat="43.49879" lon="10.7184517"><ele>67.0</ele><time>2026-04-04T09:48:22.012Z</time></trkpt><trkpt lat="43.498745" lon="10.7181583"><ele>68.5</ele><time>2026-04-04T09:48:23.012Z</time></trkpt><trkpt lat="43.4986783" lon="10.717865"><ele>70.0</ele><time>2026-04-04T09:48:24.013Z</time></trkpt><trkpt lat="43.4985717" lon="10.7175867"><ele>71.5</ele><time>2026-04-04T09:48:25.013Z</time></trkpt><trkpt lat="43.498435" lon="10.7173217"><ele>73.0</ele><time>2026-04-04T09:48:26.012Z</time></trkpt><trkpt lat="43.4982733" lon="10.7170833"><ele>77.5</ele><time>2026-04-04T09:48:27.012Z</time></trkpt><trkpt lat="43.4981017" lon="10.7168467"><ele>82.0</ele><time>2026-04-04T09:48:28.012Z</time></trkpt><trkpt lat="43.49793" lon="10.716625"><ele>78.0</ele><time>2026-04-04T09:48:29.012Z</time></trkpt><trkpt lat="43.4977517" lon="10.7164133"><ele>74.0</ele><time>2026-04-04T09:48:30.012Z</time></trkpt><trkpt lat="43.4975683" lon="10.7162017"><ele>80.5</ele><time>2026-04-04T09:48:31.012Z</time></trkpt><trkpt lat="43.4973733" lon="10.7159983"><ele>87.0</ele><time>2026-04-04T09:48:32.012Z</time></trkpt><trkpt lat="43.497165" lon="10.7158417"><ele>82.0</ele><time>2026-04-04T09:48:33.012Z</time></trkpt><trkpt lat="43.4969567" lon="10.7156683"><ele>77.0</ele><time>2026-04-04T09:48:34.012Z</time></trkpt><trkpt lat="43.4967517" lon="10.715495"><ele>77.0</ele><time>2026-04-04T09:48:35.012Z</time></trkpt><trkpt lat="43.49655" lon="10.715335"><ele>77.0</ele><time>2026-04-04T09:48:36.01Z</time></trkpt><trkpt lat="43.4963567" lon="10.7151917"><ele>76.0</ele><time>2026-04-04T09:48:37.012Z</time></trkpt><trkpt lat="43.4961733" lon="10.7150483"><ele>75.0</ele><time>2026-04-04T09:48:38.013Z</time></trkpt><trkpt lat="43.495995" lon="10.7149133"><ele>74.0</ele><time>2026-04-04T09:48:39.011Z</time></trkpt><trkpt lat="43.4958167" lon="10.7147817"><ele>74.0</ele><time>2026-04-04T09:48:40.012Z</time></trkpt><trkpt lat="43.495635" lon="10.714665"><ele>74.0</ele><time>2026-04-04T09:48:41.01Z</time></trkpt><trkpt lat="43.4954417" lon="10.7145583"><ele>74.0</ele><time>2026-04-04T09:48:42.011Z</time></trkpt><trkpt lat="43.495235" lon="10.7144767"><ele>76.5</ele><time>2026-04-04T09:48:43.011Z</time></trkpt><trkpt lat="43.49502" lon="10.7144033"><ele>79.0</ele><time>2026-04-04T09:48:44.012Z</time></trkpt><trkpt lat="43.494795" lon="10.7143317"><ele>78.0</ele><time>2026-04-04T09:48:45.012Z</time></trkpt><trkpt lat="43.4945717" lon="10.71426"><ele>77.0</ele><time>2026-04-04T09:48:46.012Z</time></trkpt><trkpt lat="43.49436" lon="10.7141983"><ele>76.0</ele><time>2026-04-04T09:48:47.012Z</time></trkpt><trkpt lat="43.4941533" lon="10.7141217"><ele>76.0</ele><time>2026-04-04T09:48:48.012Z</time></trkpt><trkpt lat="43.4939567" lon="10.714025"><ele>76.0</ele><time>2026-04-04T09:48:49.013Z</time></trkpt><trkpt lat="43.4937617" lon="10.7139067"><ele>76.0</ele><time>2026-04-04T09:48:50.012Z</time></trkpt><trkpt lat="43.4935733" lon="10.7137567"><ele>74.5</ele><time>2026-04-04T09:48:51.012Z</time></trkpt><trkpt lat="43.4933883" lon="10.713585"><ele>73.0</ele><time>2026-04-04T09:48:52.012Z</time></trkpt><trkpt lat="43.493195" lon="10.713395"><ele>73.5</ele><time>2026-04-04T09:48:53.012Z</time></trkpt><trkpt lat="43.4930033" lon="10.7131933"><ele>74.0</ele><time>2026-04-04T09:48:54.013Z</time></trkpt><trkpt lat="43.49282" lon="10.713005"><ele>74.0</ele><time>2026-04-04T09:48:55.011Z</time></trkpt><trkpt lat="43.4926517" lon="10.71283"><ele>74.0</ele><time>2026-04-04T09:48:56.012Z</time></trkpt><trkpt lat="43.49249" lon="10.712645"><ele>74.0</ele><time>2026-04-04T09:48:57.012Z</time></trkpt><trkpt lat="43.4923383" lon="10.7124367"><ele>75.5</ele><time>2026-04-04T09:48:58.012Z</time></trkpt><trkpt lat="43.492195" lon="10.7122017"><ele>77.0</ele><time>2026-04-04T09:48:59.012Z</time></trkpt><trkpt lat="43.4920617" lon="10.7119433"><ele>77.5</ele><time>2026-04-04T09:49:00.012Z</time></trkpt><trkpt lat="43.49193" lon="10.7116667"><ele>78.0</ele><time>2026-04-04T09:49:01.012Z</time></trkpt><trkpt lat="43.4917933" lon="10.7113867"><ele>78.0</ele><time>2026-04-04T09:49:02.012Z</time></trkpt><trkpt lat="43.4916533" lon="10.7111033"><ele>78.0</ele><time>2026-04-04T09:49:03.012Z</time></trkpt><trkpt lat="43.4915133" lon="10.7108217"><ele>78.5</ele><time>2026-04-04T09:49:04.012Z</time></trkpt><trkpt lat="43.4913683" lon="10.710545"><ele>79.0</ele><time>2026-04-04T09:49:05.011Z</time></trkpt><trkpt lat="43.4912033" lon="10.7102867"><ele>79.5</ele><time>2026-04-04T09:49:06.013Z</time></trkpt><trkpt lat="43.4910167" lon="10.7100517"><ele>80.0</ele><time>2026-04-04T09:49:07.012Z</time></trkpt><trkpt lat="43.4908083" lon="10.7098417"><ele>80.0</ele><time>2026-04-04T09:49:08.012Z</time></trkpt><trkpt lat="43.490585" lon="10.70964"><ele>80.0</ele><time>2026-04-04T09:49:09.012Z</time></trkpt><trkpt lat="43.490355" lon="10.7094583"><ele>81.5</ele><time>2026-04-04T09:49:10.012Z</time></trkpt><trkpt lat="43.4901183" lon="10.7093"><ele>83.0</ele><time>2026-04-04T09:49:11.012Z</time></trkpt><trkpt lat="43.4898783" lon="10.7091567"><ele>83.0</ele><time>2026-04-04T09:49:12.013Z</time></trkpt><trkpt lat="43.4896417" lon="10.70902"><ele>83.0</ele><time>2026-04-04T09:49:13.009Z</time></trkpt><trkpt lat="43.4894117" lon="10.7088883"><ele>82.5</ele><time>2026-04-04T09:49:14.012Z</time></trkpt><trkpt lat="43.489195" lon="10.70876"><ele>82.0</ele><time>2026-04-04T09:49:15.012Z</time></trkpt><trkpt lat="43.4889867" lon="10.7086417"><ele>82.66666666666666</ele><time>2026-04-04T09:49:16.012Z</time></trkpt><trkpt lat="43.4887883" lon="10.7085433"><ele>83.33333333333333</ele><time>2026-04-04T09:49:17.011Z</time></trkpt><trkpt lat="43.4885917" lon="10.70846"><ele>84.0</ele><time>2026-04-04T09:49:18.011Z</time></trkpt><trkpt lat="43.4883817" lon="10.70841"><ele>84.0</ele><time>2026-04-04T09:49:19.011Z</time></trkpt><trkpt lat="43.4881583" lon="10.7083867"><ele>84.0</ele><time>2026-04-04T09:49:20.012Z</time></trkpt><trkpt lat="43.4879317" lon="10.70838"><ele>85.5</ele><time>2026-04-04T09:49:21.013Z</time></trkpt><trkpt lat="43.4877017" lon="10.7083767"><ele>87.0</ele><time>2026-04-04T09:49:22.012Z</time></trkpt><trkpt lat="43.48747" lon="10.70838"><ele>87.0</ele><time>2026-04-04T09:49:23.012Z</time></trkpt><trkpt lat="43.4872517" lon="10.70838"><ele>87.0</ele><time>2026-04-04T09:49:24.012Z</time></trkpt><trkpt lat="43.4870483" lon="10.7083817"><ele>87.0</ele><time>2026-04-04T09:49:25.012Z</time></trkpt><trkpt lat="43.4868567" lon="10.7083683"><ele>86.33333333333333</ele><time>2026-04-04T09:49:26.011Z</time></trkpt><trkpt lat="43.48667" lon="10.708325"><ele>85.66666666666666</ele><time>2026-04-04T09:49:27.011Z</time></trkpt><trkpt lat="43.486485" lon="10.7082433"><ele>85.0</ele><time>2026-04-04T09:49:28.012Z</time></trkpt><trkpt lat="43.4862967" lon="10.7081283"><ele>84.33333333333333</ele><time>2026-04-04T09:49:29.011Z</time></trkpt><trkpt lat="43.4861033" lon="10.7079967"><ele>83.66666666666667</ele><time>2026-04-04T09:49:30.012Z</time></trkpt><trkpt lat="43.4859133" lon="10.707845"><ele>83.0</ele><time>2026-04-04T09:49:31.012Z</time></trkpt><trkpt lat="43.4857167" lon="10.70769"><ele>85.0</ele><time>2026-04-04T09:49:32.012Z</time></trkpt><trkpt lat="43.4855117" lon="10.70753"><ele>87.0</ele><time>2026-04-04T09:49:33.014Z</time></trkpt><trkpt lat="43.4853" lon="10.7073717"><ele>87.0</ele><time>2026-04-04T09:49:34.012Z</time></trkpt><trkpt lat="43.4850833" lon="10.7072083"><ele>87.0</ele><time>2026-04-04T09:49:35.012Z</time></trkpt><trkpt lat="43.48487" lon="10.7070417"><ele>87.0</ele><time>2026-04-04T09:49:36.012Z</time></trkpt><trkpt lat="43.48466" lon="10.7068783"><ele>87.0</ele><time>2026-04-04T09:49:37.012Z</time></trkpt><trkpt lat="43.4844517" lon="10.7067183"><ele>87.0</ele><time>2026-04-04T09:49:38.012Z</time></trkpt><trkpt lat="43.484245" lon="10.70656"><ele>87.0</ele><time>2026-04-04T09:49:39.012Z</time></trkpt><trkpt lat="43.4840417" lon="10.7064033"><ele>87.0</ele><time>2026-04-04T09:49:40.012Z</time></trkpt><trkpt lat="43.483835" lon="10.7062517"><ele>87.0</ele><time>2026-04-04T09:49:41.013Z</time></trkpt><trkpt lat="43.4836267" lon="10.7061"><ele>89.5</ele><time>2026-04-04T09:49:42.011Z</time></trkpt><trkpt lat="43.4834267" lon="10.7059533"><ele>92.0</ele><time>2026-04-04T09:49:43.012Z</time></trkpt><trkpt lat="43.4832333" lon="10.7057967"><ele>92.0</ele><time>2026-04-04T09:49:44.012Z</time></trkpt><trkpt lat="43.4830467" lon="10.7056217"><ele>92.0</ele><time>2026-04-04T09:49:45.012Z</time></trkpt><trkpt lat="43.4828717" lon="10.7054383"><ele>92.0</ele><time>2026-04-04T09:49:46.011Z</time></trkpt><trkpt lat="43.4827033" lon="10.7052317"><ele>91.5</ele><time>2026-04-04T09:49:47.01Z</time></trkpt><trkpt lat="43.4825383" lon="10.7050117"><ele>91.0</ele><time>2026-04-04T09:49:48.011Z</time></trkpt><trkpt lat="43.4823683" lon="10.7047867"><ele>91.0</ele><time>2026-04-04T09:49:49.011Z</time></trkpt><trkpt lat="43.4821967" lon="10.7045683"><ele>91.0</ele><time>2026-04-04T09:49:50.012Z</time></trkpt><trkpt lat="43.4820233" lon="10.70434"><ele>90.5</ele><time>2026-04-04T09:49:51.012Z</time></trkpt><trkpt lat="43.4818483" lon="10.7041133"><ele>90.0</ele><time>2026-04-04T09:49:52.012Z</time></trkpt><trkpt lat="43.48167" lon="10.7038817"><ele>90.0</ele><time>2026-04-04T09:49:53.013Z</time></trkpt><trkpt lat="43.48149" lon="10.70365"><ele>90.0</ele><time>2026-04-04T09:49:54.013Z</time></trkpt><trkpt lat="43.4813083" lon="10.70342"><ele>89.0</ele><time>2026-04-04T09:49:55.013Z</time></trkpt><trkpt lat="43.4811283" lon="10.7031933"><ele>88.0</ele><time>2026-04-04T09:49:56.012Z</time></trkpt><trkpt lat="43.4809483" lon="10.7029717"><ele>89.0</ele><time>2026-04-04T09:49:57.012Z</time></trkpt><trkpt lat="43.4807717" lon="10.7027433"><ele>90.0</ele><time>2026-04-04T09:49:58.011Z</time></trkpt><trkpt lat="43.4805983" lon="10.7025267"><ele>90.0</ele><time>2026-04-04T09:49:59.013Z</time></trkpt><trkpt lat="43.4804267" lon="10.70231"><ele>90.0</ele><time>2026-04-04T09:50:00.014Z</time></trkpt><trkpt lat="43.4802567" lon="10.7020867"><ele>91.0</ele><time>2026-04-04T09:50:01.012Z</time></trkpt><trkpt lat="43.4800867" lon="10.7018667"><ele>92.0</ele><time>2026-04-04T09:50:02.012Z</time></trkpt><trkpt lat="43.47992" lon="10.7016467"><ele>92.0</ele><time>2026-04-04T09:50:03.012Z</time></trkpt><trkpt lat="43.4797517" lon="10.70143"><ele>92.0</ele><time>2026-04-04T09:50:04.012Z</time></trkpt><trkpt lat="43.4795833" lon="10.7012167"><ele>92.5</ele><time>2026-04-04T09:50:05.012Z</time></trkpt><trkpt lat="43.4794133" lon="10.7010017"><ele>93.0</ele><time>2026-04-04T09:50:06.012Z</time></trkpt><trkpt lat="43.4792417" lon="10.70078"><ele>93.0</ele><time>2026-04-04T09:50:07.012Z</time></trkpt><trkpt lat="43.47907" lon="10.7005633"><ele>93.0</ele><time>2026-04-04T09:50:08.012Z</time></trkpt><trkpt lat="43.4788967" lon="10.7003417"><ele>94.5</ele><time>2026-04-04T09:50:09.013Z</time></trkpt><trkpt lat="43.4787233" lon="10.7001233"><ele>96.0</ele><time>2026-04-04T09:50:10.011Z</time></trkpt><trkpt lat="43.4785483" lon="10.6998983"><ele>96.0</ele><time>2026-04-04T09:50:11.011Z</time></trkpt><trkpt lat="43.4783683" lon="10.6996717"><ele>96.0</ele><time>2026-04-04T09:50:12.012Z</time></trkpt><trkpt lat="43.4781867" lon="10.6994467"><ele>96.5</ele><time>2026-04-04T09:50:13.012Z</time></trkpt><trkpt lat="43.4780017" lon="10.69922"><ele>97.0</ele><time>2026-04-04T09:50:14.012Z</time></trkpt><trkpt lat="43.4778167" lon="10.6989983"><ele>96.5</ele><time>2026-04-04T09:50:15.012Z</time></trkpt><trkpt lat="43.477635" lon="10.69878"><ele>96.0</ele><time>2026-04-04T09:50:16.012Z</time></trkpt><trkpt lat="43.4774567" lon="10.6985533"><ele>96.0</ele><time>2026-04-04T09:50:17.012Z</time></trkpt><trkpt lat="43.47728" lon="10.698325"><ele>96.0</ele><time>2026-04-04T09:50:18.012Z</time></trkpt><trkpt lat="43.4771017" lon="10.6980917"><ele>96.5</ele><time>2026-04-04T09:50:19.012Z</time></trkpt><trkpt lat="43.4769233" lon="10.6978583"><ele>97.0</ele><time>2026-04-04T09:50:20.012Z</time></trkpt><trkpt lat="43.4767417" lon="10.6976217"><ele>98.5</ele><time>2026-04-04T09:50:21.013Z</time></trkpt><trkpt lat="43.4765617" lon="10.6973833"><ele>100.0</ele><time>2026-04-04T09:50:22.012Z</time></trkpt><trkpt lat="43.476385" lon="10.6971483"><ele>101.0</ele><time>2026-04-04T09:50:23.012Z</time></trkpt><trkpt lat="43.476215" lon="10.6969033"><ele>102.0</ele><time>2026-04-04T09:50:24.012Z</time></trkpt><trkpt lat="43.476055" lon="10.6966433"><ele>102.0</ele><time>2026-04-04T09:50:25.012Z</time></trkpt><trkpt lat="43.4759017" lon="10.69637"><ele>102.0</ele><time>2026-04-04T09:50:26.011Z</time></trkpt><trkpt lat="43.47575" lon="10.6960983"><ele>104.0</ele><time>2026-04-04T09:50:27.012Z</time></trkpt><trkpt lat="43.4756" lon="10.6958217"><ele>106.0</ele><time>2026-04-04T09:50:28.013Z</time></trkpt><trkpt lat="43.475445" lon="10.6955483"><ele>105.0</ele><time>2026-04-04T09:50:29.012Z</time></trkpt><trkpt lat="43.47529" lon="10.6952783"><ele>104.0</ele><time>2026-04-04T09:50:30.012Z</time></trkpt><trkpt lat="43.47514" lon="10.6950033"><ele>104.0</ele><time>2026-04-04T09:50:31.012Z</time></trkpt><trkpt lat="43.474995" lon="10.694725"><ele>104.0</ele><time>2026-04-04T09:50:32.012Z</time></trkpt><trkpt lat="43.474855" lon="10.69444"><ele>107.5</ele><time>2026-04-04T09:50:33.011Z</time></trkpt><trkpt lat="43.4747267" lon="10.6941417"><ele>111.0</ele><time>2026-04-04T09:50:34.011Z</time></trkpt><trkpt lat="43.4746083" lon="10.693835"><ele>108.5</ele><time>2026-04-04T09:50:35.011Z</time></trkpt><trkpt lat="43.4744933" lon="10.6935167"><ele>106.0</ele><time>2026-04-04T09:50:36.012Z</time></trkpt><trkpt lat="43.4743783" lon="10.6931967"><ele>106.0</ele><time>2026-04-04T09:50:37.012Z</time></trkpt><trkpt lat="43.4742617" lon="10.6928733"><ele>106.0</ele><time>2026-04-04T09:50:38.012Z</time></trkpt><trkpt lat="43.4741417" lon="10.6925567"><ele>107.5</ele><time>2026-04-04T09:50:39.012Z</time></trkpt><trkpt lat="43.4740217" lon="10.692235"><ele>109.0</ele><time>2026-04-04T09:50:40.012Z</time></trkpt><trkpt lat="43.4739017" lon="10.6919167"><ele>108.5</ele><time>2026-04-04T09:50:41.012Z</time></trkpt><trkpt lat="43.4737833" lon="10.6916"><ele>108.0</ele><time>2026-04-04T09:50:42.011Z</time></trkpt><trkpt lat="43.4736617" lon="10.691285"><ele>108.0</ele><time>2026-04-04T09:50:43.012Z</time></trkpt><trkpt lat="43.47354" lon="10.69097"><ele>108.0</ele><time>2026-04-04T09:50:44.013Z</time></trkpt><trkpt lat="43.4734183" lon="10.6906567"><ele>108.0</ele><time>2026-04-04T09:50:45.013Z</time></trkpt><trkpt lat="43.4733017" lon="10.6903417"><ele>108.0</ele><time>2026-04-04T09:50:46.013Z</time></trkpt><trkpt lat="43.47318" lon="10.6900317"><ele>108.0</ele><time>2026-04-04T09:50:47.012Z</time></trkpt><trkpt lat="43.4730617" lon="10.68972"><ele>108.0</ele><time>2026-04-04T09:50:48.012Z</time></trkpt><trkpt lat="43.4729383" lon="10.6894117"><ele>108.0</ele><time>2026-04-04T09:50:49.012Z</time></trkpt><trkpt lat="43.4728183" lon="10.6891017"><ele>108.0</ele><time>2026-04-04T09:50:50.012Z</time></trkpt><trkpt lat="43.4726933" lon="10.6887933"><ele>109.0</ele><time>2026-04-04T09:50:51.013Z</time></trkpt><trkpt lat="43.4725667" lon="10.6884917"><ele>110.0</ele><time>2026-04-04T09:50:52.012Z</time></trkpt><trkpt lat="43.4724333" lon="10.6881967"><ele>110.0</ele><time>2026-04-04T09:50:53.012Z</time></trkpt><trkpt lat="43.4723" lon="10.6879017"><ele>110.0</ele><time>2026-04-04T09:50:54.011Z</time></trkpt><trkpt lat="43.4721633" lon="10.6876133"><ele>110.5</ele><time>2026-04-04T09:50:55.01Z</time></trkpt><trkpt lat="43.4720267" lon="10.68733"><ele>111.0</ele><time>2026-04-04T09:50:56.013Z</time></trkpt><trkpt lat="43.4718867" lon="10.68706"><ele>112.0</ele><time>2026-04-04T09:50:57.012Z</time></trkpt><trkpt lat="43.4717417" lon="10.6867983"><ele>113.0</ele><time>2026-04-04T09:50:58.011Z</time></trkpt><trkpt lat="43.4715867" lon="10.686565"><ele>113.0</ele><time>2026-04-04T09:50:59.013Z</time></trkpt><trkpt lat="43.47142" lon="10.6863517"><ele>113.0</ele><time>2026-04-04T09:51:00.011Z</time></trkpt><trkpt lat="43.471235" lon="10.686175"><ele>113.5</ele><time>2026-04-04T09:51:01.011Z</time></trkpt><trkpt lat="43.47104" lon="10.6860217"><ele>114.0</ele><time>2026-04-04T09:51:02.013Z</time></trkpt><trkpt lat="43.4708317" lon="10.685885"><ele>114.0</ele><time>2026-04-04T09:51:03.013Z</time></trkpt><trkpt lat="43.4706183" lon="10.6857517"><ele>114.0</ele><time>2026-04-04T09:51:04.012Z</time></trkpt><trkpt lat="43.4703983" lon="10.6856217"><ele>113.5</ele><time>2026-04-04T09:51:05.011Z</time></trkpt><trkpt lat="43.4701817" lon="10.68549"><ele>113.0</ele><time>2026-04-04T09:51:06.012Z</time></trkpt><trkpt lat="43.469975" lon="10.6853417"><ele>115.0</ele><time>2026-04-04T09:51:07.013Z</time></trkpt><trkpt lat="43.4697783" lon="10.6851783"><ele>117.0</ele><time>2026-04-04T09:51:08.013Z</time></trkpt><trkpt lat="43.46959" lon="10.6850117"><ele>117.0</ele><time>2026-04-04T09:51:09.013Z</time></trkpt><trkpt lat="43.4694133" lon="10.6848533"><ele>117.0</ele><time>2026-04-04T09:51:10.011Z</time></trkpt><trkpt lat="43.469245" lon="10.6847183"><ele>117.0</ele><time>2026-04-04T09:51:11.01Z</time></trkpt><trkpt lat="43.4690833" lon="10.6845783"><ele>117.0</ele><time>2026-04-04T09:51:12.01Z</time></trkpt><trkpt lat="43.4689367" lon="10.68443"><ele>117.0</ele><time>2026-04-04T09:51:13.01Z</time></trkpt><trkpt lat="43.4688167" lon="10.68426"><ele>117.0</ele><time>2026-04-04T09:51:14.012Z</time></trkpt><trkpt lat="43.4687283" lon="10.6840567"><ele>117.0</ele><time>2026-04-04T09:51:15.013Z</time></trkpt><trkpt lat="43.4686867" lon="10.6838567"><ele>117.0</ele><time>2026-04-04T09:51:16.012Z</time></trkpt><trkpt lat="43.468685" lon="10.683645"><ele>117.0</ele><time>2026-04-04T09:51:17.011Z</time></trkpt><trkpt lat="43.468705" lon="10.6834217"><ele>118.0</ele><time>2026-04-04T09:51:18.011Z</time></trkpt><trkpt lat="43.46874" lon="10.6831783"><ele>119.0</ele><time>2026-04-04T09:51:19.013Z</time></trkpt><trkpt lat="43.4687683" lon="10.68293"><ele>120.0</ele><time>2026-04-04T09:51:20.013Z</time></trkpt><trkpt lat="43.468765" lon="10.68269"><ele>120.66666666666666</ele><time>2026-04-04T09:51:21.012Z</time></trkpt><trkpt lat="43.46873" lon="10.6824467"><ele>121.33333333333333</ele><time>2026-04-04T09:51:22.011Z</time></trkpt><trkpt lat="43.4686467" lon="10.682215"><ele>122.0</ele><time>2026-04-04T09:51:23.014Z</time></trkpt><trkpt lat="43.4685167" lon="10.681995"><ele>123.33333333333333</ele><time>2026-04-04T09:51:24.012Z</time></trkpt><trkpt lat="43.4683683" lon="10.681775"><ele>124.66666666666666</ele><time>2026-04-04T09:51:25.012Z</time></trkpt><trkpt lat="43.4682217" lon="10.6815367"><ele>126.0</ele><time>2026-04-04T09:51:26.013Z</time></trkpt><trkpt lat="43.4680733" lon="10.6813033"><ele>122.5</ele><time>2026-04-04T09:51:27.013Z</time></trkpt><trkpt lat="43.4679267" lon="10.6810517"><ele>119.0</ele><time>2026-04-04T09:51:28.011Z</time></trkpt><trkpt lat="43.467775" lon="10.6808"><ele>119.0</ele><time>2026-04-04T09:51:29.012Z</time></trkpt><trkpt lat="43.4676233" lon="10.68055"><ele>119.0</ele><time>2026-04-04T09:51:30.014Z</time></trkpt><trkpt lat="43.467475" lon="10.6803017"><ele>120.0</ele><time>2026-04-04T09:51:31.012Z</time></trkpt><trkpt lat="43.4673267" lon="10.6800517"><ele>121.0</ele><time>2026-04-04T09:51:32.012Z</time></trkpt><trkpt lat="43.4671783" lon="10.6798067"><ele>121.0</ele><time>2026-04-04T09:51:33.012Z</time></trkpt><trkpt lat="43.4670317" lon="10.6795667"><ele>121.0</ele><time>2026-04-04T09:51:34.012Z</time></trkpt><trkpt lat="43.46689" lon="10.6793233"><ele>121.0</ele><time>2026-04-04T09:51:35.012Z</time></trkpt><trkpt lat="43.4667533" lon="10.6790733"><ele>121.0</ele><time>2026-04-04T09:51:36.011Z</time></trkpt><trkpt lat="43.4666233" lon="10.6788133"><ele>125.0</ele><time>2026-04-04T09:51:37.012Z</time></trkpt><trkpt lat="43.4665033" lon="10.678545"><ele>129.0</ele><time>2026-04-04T09:51:38.012Z</time></trkpt><trkpt lat="43.4663917" lon="10.6782717"><ele>129.0</ele><time>2026-04-04T09:51:39.011Z</time></trkpt><trkpt lat="43.4662833" lon="10.677985"><ele>129.0</ele><time>2026-04-04T09:51:40.012Z</time></trkpt><trkpt lat="43.4661767" lon="10.6777033"><ele>127.0</ele><time>2026-04-04T09:51:41.012Z</time></trkpt><trkpt lat="43.466065" lon="10.6774217"><ele>125.0</ele><time>2026-04-04T09:51:42.012Z</time></trkpt><trkpt lat="43.4659567" lon="10.6771383"><ele>126.5</ele><time>2026-04-04T09:51:43.011Z</time></trkpt><trkpt lat="43.46585" lon="10.6768583"><ele>128.0</ele><time>2026-04-04T09:51:44.012Z</time></trkpt><trkpt lat="43.4657433" lon="10.67658"><ele>128.0</ele><time>2026-04-04T09:51:45.014Z</time></trkpt><trkpt lat="43.4656383" lon="10.6762983"><ele>128.0</ele><time>2026-04-04T09:51:46.012Z</time></trkpt><trkpt lat="43.4655317" lon="10.6760267"><ele>127.33333333333333</ele><time>2026-04-04T09:51:47.012Z</time></trkpt><trkpt lat="43.4654267" lon="10.675755"><ele>126.66666666666666</ele><time>2026-04-04T09:51:48.011Z</time></trkpt><trkpt lat="43.46532" lon="10.6754867"><ele>126.0</ele><time>2026-04-04T09:51:49.012Z</time></trkpt><trkpt lat="43.4651983" lon="10.6752317"><ele>126.0</ele><time>2026-04-04T09:51:50.013Z</time></trkpt><trkpt lat="43.4650617" lon="10.6749967"><ele>126.0</ele><time>2026-04-04T09:51:51.013Z</time></trkpt><trkpt lat="43.4649083" lon="10.6747817"><ele>126.0</ele><time>2026-04-04T09:51:52.012Z</time></trkpt><trkpt lat="43.4647433" lon="10.6745817"><ele>126.66666666666666</ele><time>2026-04-04T09:51:53.012Z</time></trkpt><trkpt lat="43.46457" lon="10.6743917"><ele>127.33333333333333</ele><time>2026-04-04T09:51:54.013Z</time></trkpt><trkpt lat="43.4643817" lon="10.6742233"><ele>128.0</ele><time>2026-04-04T09:51:55.012Z</time></trkpt><trkpt lat="43.4641833" lon="10.6740733"><ele>128.0</ele><time>2026-04-04T09:51:56.013Z</time></trkpt><trkpt lat="43.4639833" lon="10.6739217"><ele>128.0</ele><time>2026-04-04T09:51:57.011Z</time></trkpt><trkpt lat="43.46378" lon="10.6737733"><ele>132.0</ele><time>2026-04-04T09:51:58.011Z</time></trkpt><trkpt lat="43.463365" lon="10.673495"><ele>132.0</ele><time>2026-04-04T09:52:00.01Z</time></trkpt><trkpt lat="43.463155" lon="10.6733467"><ele>132.0</ele><time>2026-04-04T09:52:01.009Z</time></trkpt><trkpt lat="43.4629467" lon="10.6732117"><ele>131.33333333333334</ele><time>2026-04-04T09:52:02.011Z</time></trkpt><trkpt lat="43.4627433" lon="10.67309"><ele>130.66666666666669</ele><time>2026-04-04T09:52:03.01Z</time></trkpt><trkpt lat="43.46254" lon="10.67295"><ele>130.0</ele><time>2026-04-04T09:52:04.009Z</time></trkpt><trkpt lat="43.462335" lon="10.6727983"><ele>130.5</ele><time>2026-04-04T09:52:05.013Z</time></trkpt><trkpt lat="43.4621317" lon="10.6726467"><ele>131.0</ele><time>2026-04-04T09:52:06.009Z</time></trkpt><trkpt lat="43.4619217" lon="10.67249"><ele>131.0</ele><time>2026-04-04T09:52:07.01Z</time></trkpt><trkpt lat="43.4617133" lon="10.672335"><ele>131.0</ele><time>2026-04-04T09:52:08.009Z</time></trkpt><trkpt lat="43.4615" lon="10.6721717"><ele>131.0</ele><time>2026-04-04T09:52:09.01Z</time></trkpt><trkpt lat="43.461285" lon="10.6720117"><ele>131.0</ele><time>2026-04-04T09:52:10.01Z</time></trkpt><trkpt lat="43.46107" lon="10.6718517"><ele>131.5</ele><time>2026-04-04T09:52:11.01Z</time></trkpt><trkpt lat="43.460855" lon="10.6716933"><ele>132.0</ele><time>2026-04-04T09:52:12.01Z</time></trkpt><trkpt lat="43.460635" lon="10.6715417"><ele>132.5</ele><time>2026-04-04T09:52:13.01Z</time></trkpt><trkpt lat="43.460415" lon="10.6713933"><ele>133.0</ele><time>2026-04-04T09:52:14.01Z</time></trkpt><trkpt lat="43.4601983" lon="10.6712433"><ele>135.0</ele><time>2026-04-04T09:52:15.011Z</time></trkpt><trkpt lat="43.4599833" lon="10.6710883"><ele>137.0</ele><time>2026-04-04T09:52:16.009Z</time></trkpt><trkpt lat="43.45977" lon="10.67093"><ele>136.0</ele><time>2026-04-04T09:52:17.009Z</time></trkpt><trkpt lat="43.4595617" lon="10.6707767"><ele>135.0</ele><time>2026-04-04T09:52:18.01Z</time></trkpt><trkpt lat="43.45935" lon="10.6706217"><ele>135.0</ele><time>2026-04-04T09:52:19.009Z</time></trkpt><trkpt lat="43.4591383" lon="10.6704667"><ele>135.0</ele><time>2026-04-04T09:52:20.01Z</time></trkpt><trkpt lat="43.4589283" lon="10.6703067"><ele>137.0</ele><time>2026-04-04T09:52:21.011Z</time></trkpt><trkpt lat="43.458715" lon="10.6701567"><ele>139.0</ele><time>2026-04-04T09:52:22.01Z</time></trkpt><trkpt lat="43.4585017" lon="10.6700067"><ele>139.0</ele><time>2026-04-04T09:52:23.012Z</time></trkpt><trkpt lat="43.45829" lon="10.6698567"><ele>139.0</ele><time>2026-04-04T09:52:24.011Z</time></trkpt><trkpt lat="43.45808" lon="10.6697017"><ele>138.5</ele><time>2026-04-04T09:52:25.01Z</time></trkpt><trkpt lat="43.457875" lon="10.6695517"><ele>138.0</ele><time>2026-04-04T09:52:26.011Z</time></trkpt><trkpt lat="43.45768" lon="10.6694083"><ele>138.66666666666666</ele><time>2026-04-04T09:52:27.011Z</time></trkpt><trkpt lat="43.4574983" lon="10.6692767"><ele>139.33333333333331</ele><time>2026-04-04T09:52:28.01Z</time></trkpt><trkpt lat="43.4573233" lon="10.6691533"><ele>140.0</ele><time>2026-04-04T09:52:29.011Z</time></trkpt><trkpt lat="43.457165" lon="10.6690367"><ele>140.25</ele><time>2026-04-04T09:52:30.011Z</time></trkpt><trkpt lat="43.4570233" lon="10.66893"><ele>140.5</ele><time>2026-04-04T09:52:31.01Z</time></trkpt><trkpt lat="43.456905" lon="10.66881"><ele>140.75</ele><time>2026-04-04T09:52:32.011Z</time></trkpt><trkpt lat="43.456805" lon="10.6686733"><ele>141.0</ele><time>2026-04-04T09:52:33.011Z</time></trkpt><trkpt lat="43.4567217" lon="10.668515"><ele>141.33333333333334</ele><time>2026-04-04T09:52:34.011Z</time></trkpt><trkpt lat="43.4566583" lon="10.6683317"><ele>141.66666666666669</ele><time>2026-04-04T09:52:35.011Z</time></trkpt><trkpt lat="43.4566083" lon="10.6681083"><ele>142.0</ele><time>2026-04-04T09:52:36.01Z</time></trkpt><trkpt lat="43.4565633" lon="10.66786"><ele>142.33333333333334</ele><time>2026-04-04T09:52:37.01Z</time></trkpt><trkpt lat="43.4565217" lon="10.6675867"><ele>142.66666666666666</ele><time>2026-04-04T09:52:38.011Z</time></trkpt><trkpt lat="43.4564717" lon="10.6673017"><ele>143.0</ele><time>2026-04-04T09:52:39.011Z</time></trkpt><trkpt lat="43.4564167" lon="10.667005"><ele>144.5</ele><time>2026-04-04T09:52:40.01Z</time></trkpt><trkpt lat="43.4563583" lon="10.6667"><ele>146.0</ele><time>2026-04-04T09:52:41.011Z</time></trkpt><trkpt lat="43.4563017" lon="10.6663933"><ele>146.33333333333331</ele><time>2026-04-04T09:52:42.011Z</time></trkpt><trkpt lat="43.4562433" lon="10.6661117"><ele>146.66666666666666</ele><time>2026-04-04T09:52:43.011Z</time></trkpt><trkpt lat="43.4561883" lon="10.6658333"><ele>147.0</ele><time>2026-04-04T09:52:44.011Z</time></trkpt><trkpt lat="43.4561417" lon="10.6655633"><ele>147.0</ele><time>2026-04-04T09:52:45.01Z</time></trkpt><trkpt lat="43.4561133" lon="10.665305"><ele>147.0</ele><time>2026-04-04T09:52:46.01Z</time></trkpt><trkpt lat="43.4561083" lon="10.66504"><ele>147.0</ele><time>2026-04-04T09:52:47.011Z</time></trkpt><trkpt lat="43.4561283" lon="10.6647717"><ele>147.0</ele><time>2026-04-04T09:52:48.013Z</time></trkpt><trkpt lat="43.4561733" lon="10.664495"><ele>147.0</ele><time>2026-04-04T09:52:49.011Z</time></trkpt><trkpt lat="43.45624" lon="10.6642117"><ele>147.0</ele><time>2026-04-04T09:52:50.011Z</time></trkpt><trkpt lat="43.4563167" lon="10.6639167"><ele>152.0</ele><time>2026-04-04T09:52:51.011Z</time></trkpt><trkpt lat="43.4563917" lon="10.6636133"><ele>157.0</ele><time>2026-04-04T09:52:52.011Z</time></trkpt><trkpt lat="43.456455" lon="10.6633"><ele>157.0</ele><time>2026-04-04T09:52:53.012Z</time></trkpt><trkpt lat="43.4565" lon="10.6629717"><ele>157.0</ele><time>2026-04-04T09:52:54.011Z</time></trkpt><trkpt lat="43.4565233" lon="10.662635"><ele>160.5</ele><time>2026-04-04T09:52:55.011Z</time></trkpt><trkpt lat="43.45654" lon="10.66229"><ele>164.0</ele><time>2026-04-04T09:52:56.011Z</time></trkpt><trkpt lat="43.4565533" lon="10.6619517"><ele>165.5</ele><time>2026-04-04T09:52:57.011Z</time></trkpt><trkpt lat="43.4565617" lon="10.66162"><ele>167.0</ele><time>2026-04-04T09:52:58.011Z</time></trkpt><trkpt lat="43.45658" lon="10.6612833"><ele>165.5</ele><time>2026-04-04T09:52:59.014Z</time></trkpt><trkpt lat="43.45659" lon="10.6609433"><ele>164.0</ele><time>2026-04-04T09:53:00.011Z</time></trkpt><trkpt lat="43.4566083" lon="10.6606033"><ele>163.5</ele><time>2026-04-04T09:53:01.01Z</time></trkpt><trkpt lat="43.4566217" lon="10.6602683"><ele>163.0</ele><time>2026-04-04T09:53:02.011Z</time></trkpt><trkpt lat="43.4566317" lon="10.6599317"><ele>163.0</ele><time>2026-04-04T09:53:03.012Z</time></trkpt><trkpt lat="43.4566467" lon="10.6595917"><ele>163.0</ele><time>2026-04-04T09:53:04.012Z</time></trkpt><trkpt lat="43.4566633" lon="10.6592517"><ele>163.0</ele><time>2026-04-04T09:53:05.012Z</time></trkpt><trkpt lat="43.4566783" lon="10.658915"><ele>163.0</ele><time>2026-04-04T09:53:06.012Z</time></trkpt><trkpt lat="43.4567017" lon="10.6585783"><ele>163.0</ele><time>2026-04-04T09:53:07.012Z</time></trkpt><trkpt lat="43.456735" lon="10.6582483"><ele>163.0</ele><time>2026-04-04T09:53:08.012Z</time></trkpt><trkpt lat="43.456775" lon="10.657935"><ele>163.0</ele><time>2026-04-04T09:53:09.012Z</time></trkpt><trkpt lat="43.4568217" lon="10.65765"><ele>163.0</ele><time>2026-04-04T09:53:10.012Z</time></trkpt><trkpt lat="43.456865" lon="10.6573983"><ele>163.0</ele><time>2026-04-04T09:53:11.012Z</time></trkpt><trkpt lat="43.4569017" lon="10.6571733"><ele>163.0</ele><time>2026-04-04T09:53:12.012Z</time></trkpt><trkpt lat="43.4569183" lon="10.6569667"><ele>163.0</ele><time>2026-04-04T09:53:13.011Z</time></trkpt><trkpt lat="43.4569067" lon="10.6567767"><ele>163.0</ele><time>2026-04-04T09:53:14.014Z</time></trkpt><trkpt lat="43.456865" lon="10.6566017"><ele>163.0</ele><time>2026-04-04T09:53:15.013Z</time></trkpt><trkpt lat="43.4567917" lon="10.6564483"><ele>163.33333333333334</ele><time>2026-04-04T09:53:16.013Z</time></trkpt><trkpt lat="43.4566833" lon="10.6563183"><ele>163.66666666666666</ele><time>2026-04-04T09:53:17.014Z</time></trkpt><trkpt lat="43.4565333" lon="10.6562233"><ele>164.0</ele><time>2026-04-04T09:53:18.012Z</time></trkpt><trkpt lat="43.45636" lon="10.6561233"><ele>165.0</ele><time>2026-04-04T09:53:19.012Z</time></trkpt><trkpt lat="43.4561933" lon="10.6560067"><ele>166.0</ele><time>2026-04-04T09:53:20.013Z</time></trkpt><trkpt lat="43.4560483" lon="10.6558633"><ele>167.0</ele><time>2026-04-04T09:53:21.014Z</time></trkpt><trkpt lat="43.455925" lon="10.6556983"><ele>167.0</ele><time>2026-04-04T09:53:22.012Z</time></trkpt><trkpt lat="43.4558217" lon="10.6555033"><ele>167.0</ele><time>2026-04-04T09:53:23.013Z</time></trkpt><trkpt lat="43.4557483" lon="10.65527"><ele>167.0</ele><time>2026-04-04T09:53:24.013Z</time></trkpt><trkpt lat="43.455705" lon="10.6550067"><ele>168.33333333333331</ele><time>2026-04-04T09:53:25.013Z</time></trkpt><trkpt lat="43.4556717" lon="10.65473"><ele>169.66666666666666</ele><time>2026-04-04T09:53:26.011Z</time></trkpt><trkpt lat="43.4556433" lon="10.654465"><ele>171.0</ele><time>2026-04-04T09:53:27.013Z</time></trkpt><trkpt lat="43.4555983" lon="10.654225"><ele>171.33333333333334</ele><time>2026-04-04T09:53:28.013Z</time></trkpt><trkpt lat="43.4555267" lon="10.65401"><ele>171.66666666666669</ele><time>2026-04-04T09:53:29.012Z</time></trkpt><trkpt lat="43.45542" lon="10.6538283"><ele>172.0</ele><time>2026-04-04T09:53:30.012Z</time></trkpt><trkpt lat="43.455315" lon="10.6536667"><ele>174.5</ele><time>2026-04-04T09:53:31.012Z</time></trkpt><trkpt lat="43.4552483" lon="10.6534983"><ele>177.0</ele><time>2026-04-04T09:53:32.014Z</time></trkpt><trkpt lat="43.4552283" lon="10.65331"><ele>179.5</ele><time>2026-04-04T09:53:33.012Z</time></trkpt><trkpt lat="43.4552317" lon="10.6531"><ele>182.0</ele><time>2026-04-04T09:53:34.012Z</time></trkpt><trkpt lat="43.45523" lon="10.652885"><ele>185.33333333333331</ele><time>2026-04-04T09:53:35.013Z</time></trkpt><trkpt lat="43.4552017" lon="10.652675"><ele>188.66666666666666</ele><time>2026-04-04T09:53:36.013Z</time></trkpt><trkpt lat="43.4551433" lon="10.65248"><ele>192.0</ele><time>2026-04-04T09:53:37.012Z</time></trkpt><trkpt lat="43.4550383" lon="10.6523167"><ele>192.0</ele><time>2026-04-04T09:53:38.011Z</time></trkpt><trkpt lat="43.45489" lon="10.65218"><ele>192.0</ele><time>2026-04-04T09:53:39.013Z</time></trkpt><trkpt lat="43.4547383" lon="10.6520383"><ele>192.0</ele><time>2026-04-04T09:53:40.012Z</time></trkpt><trkpt lat="43.4545867" lon="10.651875"><ele>191.33333333333334</ele><time>2026-04-04T09:53:41.012Z</time></trkpt><trkpt lat="43.4544383" lon="10.651685"><ele>190.66666666666669</ele><time>2026-04-04T09:53:42.012Z</time></trkpt><trkpt lat="43.4542967" lon="10.6514667"><ele>190.0</ele><time>2026-04-04T09:53:43.013Z</time></trkpt><trkpt lat="43.4541583" lon="10.651245"><ele>190.33333333333334</ele><time>2026-04-04T09:53:44.013Z</time></trkpt><trkpt lat="43.4540217" lon="10.651015"><ele>190.66666666666666</ele><time>2026-04-04T09:53:45.012Z</time></trkpt><trkpt lat="43.453895" lon="10.6507833"><ele>191.0</ele><time>2026-04-04T09:53:46.012Z</time></trkpt><trkpt lat="43.45378" lon="10.6505717"><ele>191.0</ele><time>2026-04-04T09:53:47.012Z</time></trkpt><trkpt lat="43.4536783" lon="10.6503817"><ele>191.0</ele><time>2026-04-04T09:53:48.012Z</time></trkpt><trkpt lat="43.4535867" lon="10.6501967"><ele>191.0</ele><time>2026-04-04T09:53:49.014Z</time></trkpt><trkpt lat="43.45352" lon="10.6499933"><ele>192.33333333333331</ele><time>2026-04-04T09:53:50.014Z</time></trkpt><trkpt lat="43.453485" lon="10.6497633"><ele>193.66666666666666</ele><time>2026-04-04T09:53:51.015Z</time></trkpt><trkpt lat="43.4534733" lon="10.6495133"><ele>195.0</ele><time>2026-04-04T09:53:52.012Z</time></trkpt><trkpt lat="43.4534683" lon="10.6492483"><ele>197.0</ele><time>2026-04-04T09:53:53.015Z</time></trkpt><trkpt lat="43.4534533" lon="10.6489733"><ele>199.0</ele><time>2026-04-04T09:53:54.013Z</time></trkpt><trkpt lat="43.4534083" lon="10.6487033"><ele>201.0</ele><time>2026-04-04T09:53:55.014Z</time></trkpt><trkpt lat="43.45334" lon="10.6484417"><ele>203.66666666666669</ele><time>2026-04-04T09:53:56.012Z</time></trkpt><trkpt lat="43.453245" lon="10.6481983"><ele>206.33333333333334</ele><time>2026-04-04T09:53:57.012Z</time></trkpt><trkpt lat="43.4531317" lon="10.647965"><ele>209.0</ele><time>2026-04-04T09:53:58.012Z</time></trkpt><trkpt lat="43.4530017" lon="10.6477367"><ele>206.66666666666669</ele><time>2026-04-04T09:53:59.012Z</time></trkpt><trkpt lat="43.4528667" lon="10.6474967"><ele>204.33333333333331</ele><time>2026-04-04T09:54:00.012Z</time></trkpt><trkpt lat="43.4527417" lon="10.647265"><ele>202.0</ele><time>2026-04-04T09:54:01.012Z</time></trkpt><trkpt lat="43.4526283" lon="10.6470483"><ele>205.33333333333331</ele><time>2026-04-04T09:54:02.012Z</time></trkpt><trkpt lat="43.4525283" lon="10.6468533"><ele>208.66666666666669</ele><time>2026-04-04T09:54:03.013Z</time></trkpt><trkpt lat="43.45245" lon="10.646665"><ele>212.0</ele><time>2026-04-04T09:54:04.011Z</time></trkpt><trkpt lat="43.4524083" lon="10.646485"><ele>212.0</ele><time>2026-04-04T09:54:05.013Z</time></trkpt><trkpt lat="43.452405" lon="10.646295"><ele>212.0</ele><time>2026-04-04T09:54:06.013Z</time></trkpt><trkpt lat="43.452415" lon="10.6460883"><ele>212.0</ele><time>2026-04-04T09:54:07.013Z</time></trkpt><trkpt lat="43.4524167" lon="10.6458667"><ele>212.0</ele><time>2026-04-04T09:54:08.012Z</time></trkpt><trkpt lat="43.4523867" lon="10.6456483"><ele>213.39999999999998</ele><time>2026-04-04T09:54:09.014Z</time></trkpt><trkpt lat="43.452325" lon="10.6454817"><ele>214.79999999999998</ele><time>2026-04-04T09:54:10.012Z</time></trkpt><trkpt lat="43.4522783" lon="10.6453367"><ele>216.2</ele><time>2026-04-04T09:54:11.012Z</time></trkpt><trkpt lat="43.452275" lon="10.6452083"><ele>217.6</ele><time>2026-04-04T09:54:12.012Z</time></trkpt><trkpt lat="43.4522983" lon="10.6450983"><ele>219.0</ele><time>2026-04-04T09:54:13.013Z</time></trkpt><trkpt lat="43.4523483" lon="10.645015"><ele>219.0</ele><time>2026-04-04T09:54:14.012Z</time></trkpt><trkpt lat="43.4524167" lon="10.6449833"><ele>218.99999999999997</ele><time>2026-04-04T09:54:15.012Z</time></trkpt><trkpt lat="43.4525133" lon="10.6450983"><ele>218.99999999999997</ele><time>2026-04-04T09:54:16.012Z</time></trkpt><trkpt lat="43.4525767" lon="10.64524"><ele>219.0</ele><time>2026-04-04T09:54:17.014Z</time></trkpt><trkpt lat="43.4526283" lon="10.6453917"><ele>219.0</ele><time>2026-04-04T09:54:18.011Z</time></trkpt><trkpt lat="43.4526883" lon="10.6455317"><ele>219.0</ele><time>2026-04-04T09:54:19.012Z</time></trkpt><trkpt lat="43.4527667" lon="10.6456417"><ele>218.99999999999997</ele><time>2026-04-04T09:54:20.014Z</time></trkpt><trkpt lat="43.4528567" lon="10.64571"><ele>218.99999999999997</ele><time>2026-04-04T09:54:21.014Z</time></trkpt><trkpt lat="43.4529433" lon="10.645745"><ele>219.0</ele><time>2026-04-04T09:54:22.014Z</time></trkpt><trkpt lat="43.45304" lon="10.6457"><ele>219.0</ele><time>2026-04-04T09:54:23.012Z</time></trkpt><trkpt lat="43.45312" lon="10.645615"><ele>224.0</ele><time>2026-04-04T09:54:24.012Z</time></trkpt><trkpt lat="43.4531767" lon="10.64549"><ele>229.0</ele><time>2026-04-04T09:54:25.012Z</time></trkpt><trkpt lat="43.4532017" lon="10.6453483"><ele>234.0</ele><time>2026-04-04T09:54:26.012Z</time></trkpt><trkpt lat="43.453125" lon="10.6451617"><ele>239.0</ele><time>2026-04-04T09:54:27.012Z</time></trkpt><trkpt lat="43.4530067" lon="10.64496"><ele>239.25</ele><time>2026-04-04T09:54:28.012Z</time></trkpt><trkpt lat="43.452915" lon="10.644765"><ele>239.5</ele><time>2026-04-04T09:54:29.012Z</time></trkpt><trkpt lat="43.4528383" lon="10.64459"><ele>239.75</ele><time>2026-04-04T09:54:30.012Z</time></trkpt><trkpt lat="43.4528133" lon="10.6444183"><ele>240.0</ele><time>2026-04-04T09:54:31.012Z</time></trkpt><trkpt lat="43.4528467" lon="10.6442533"><ele>240.0</ele><time>2026-04-04T09:54:32.012Z</time></trkpt><trkpt lat="43.4529183" lon="10.644085"><ele>240.0</ele><time>2026-04-04T09:54:33.013Z</time></trkpt><trkpt lat="43.453" lon="10.643915"><ele>240.0</ele><time>2026-04-04T09:54:34.012Z</time></trkpt><trkpt lat="43.4530683" lon="10.643745"><ele>240.0</ele><time>2026-04-04T09:54:35.013Z</time></trkpt><trkpt lat="43.4531383" lon="10.6436"><ele>245.4</ele><time>2026-04-04T09:54:36.013Z</time></trkpt><trkpt lat="43.4532167" lon="10.6434967"><ele>250.8</ele><time>2026-04-04T09:54:37.012Z</time></trkpt><trkpt lat="43.4533017" lon="10.6434533"><ele>256.2</ele><time>2026-04-04T09:54:38.013Z</time></trkpt><trkpt lat="43.453395" lon="10.6434533"><ele>261.6</ele><time>2026-04-04T09:54:39.013Z</time></trkpt><trkpt lat="43.4534533" lon="10.643535"><ele>267.0</ele><time>2026-04-04T09:54:40.011Z</time></trkpt><trkpt lat="43.4534833" lon="10.6436433"><ele>267.0</ele><time>2026-04-04T09:54:41.012Z</time></trkpt><trkpt lat="43.4534767" lon="10.6437917"><ele>267.0</ele><time>2026-04-04T09:54:42.011Z</time></trkpt><trkpt lat="43.45346" lon="10.64395"><ele>267.0</ele><time>2026-04-04T09:54:43.011Z</time></trkpt><trkpt lat="43.4534383" lon="10.6441167"><ele>267.0</ele><time>2026-04-04T09:54:44.012Z</time></trkpt><trkpt lat="43.4534333" lon="10.6442583"><ele>267.0</ele><time>2026-04-04T09:54:45.013Z</time></trkpt><trkpt lat="43.4534383" lon="10.64439"><ele>267.0</ele><time>2026-04-04T09:54:46.012Z</time></trkpt><trkpt lat="43.4534617" lon="10.64452"><ele>267.0</ele><time>2026-04-04T09:54:47.012Z</time></trkpt><trkpt lat="43.453515" lon="10.6446133"><ele>267.0</ele><time>2026-04-04T09:54:48.012Z</time></trkpt><trkpt lat="43.4536017" lon="10.6446517"><ele>267.0</ele><time>2026-04-04T09:54:49.012Z</time></trkpt><trkpt lat="43.45378" lon="10.64462"><ele>269.6666666666667</ele><time>2026-04-04T09:54:50.014Z</time></trkpt><trkpt lat="43.4539317" lon="10.6446317"><ele>272.33333333333337</ele><time>2026-04-04T09:54:51.014Z</time></trkpt><trkpt lat="43.45412" lon="10.644645"><ele>275.0</ele><time>2026-04-04T09:54:52.012Z</time></trkpt><trkpt lat="43.45429" lon="10.644685"><ele>275.0</ele><time>2026-04-04T09:54:53.013Z</time></trkpt><trkpt lat="43.4544533" lon="10.644735"><ele>275.0</ele><time>2026-04-04T09:54:54.012Z</time></trkpt><trkpt lat="43.4545867" lon="10.6447783"><ele>275.0</ele><time>2026-04-04T09:54:55.012Z</time></trkpt><trkpt lat="43.4546867" lon="10.644795"><ele>275.0</ele><time>2026-04-04T09:54:56.012Z</time></trkpt><trkpt lat="43.4547767" lon="10.6447817"><ele>277.75</ele><time>2026-04-04T09:54:57.013Z</time></trkpt><trkpt lat="43.454855" lon="10.644755"><ele>280.5</ele><time>2026-04-04T09:54:58.013Z</time></trkpt><trkpt lat="43.4549217" lon="10.644685"><ele>283.25</ele><time>2026-04-04T09:54:59.014Z</time></trkpt><trkpt lat="43.4549133" lon="10.6444917"><ele>286.0</ele><time>2026-04-04T09:55:00.012Z</time></trkpt><trkpt lat="43.4549" lon="10.644265"><ele>287.0</ele><time>2026-04-04T09:55:01.014Z</time></trkpt><trkpt lat="43.4548817" lon="10.6440217"><ele>288.0</ele><time>2026-04-04T09:55:02.012Z</time></trkpt><trkpt lat="43.4548783" lon="10.64377"><ele>289.0</ele><time>2026-04-04T09:55:03.012Z</time></trkpt><trkpt lat="43.4548683" lon="10.6435167"><ele>290.66666666666663</ele><time>2026-04-04T09:55:04.012Z</time></trkpt><trkpt lat="43.4548583" lon="10.643265"><ele>292.3333333333333</ele><time>2026-04-04T09:55:05.012Z</time></trkpt><trkpt lat="43.4548383" lon="10.6430117"><ele>294.0</ele><time>2026-04-04T09:55:06.012Z</time></trkpt><trkpt lat="43.45482" lon="10.6427517"><ele>296.3333333333333</ele><time>2026-04-04T09:55:07.013Z</time></trkpt><trkpt lat="43.4547933" lon="10.6424883"><ele>298.66666666666663</ele><time>2026-04-04T09:55:08.011Z</time></trkpt><trkpt lat="43.4547667" lon="10.64222"><ele>301.0</ele><time>2026-04-04T09:55:09.012Z</time></trkpt><trkpt lat="43.4547417" lon="10.6419467"><ele>303.66666666666663</ele><time>2026-04-04T09:55:10.013Z</time></trkpt><trkpt lat="43.4547167" lon="10.6416783"><ele>306.3333333333333</ele><time>2026-04-04T09:55:11.012Z</time></trkpt><trkpt lat="43.4546917" lon="10.6414133"><ele>309.0</ele><time>2026-04-04T09:55:12.012Z</time></trkpt><trkpt lat="43.454665" lon="10.6411517"><ele>308.6666666666667</ele><time>2026-04-04T09:55:13.012Z</time></trkpt><trkpt lat="43.4546417" lon="10.6408917"><ele>308.33333333333337</ele><time>2026-04-04T09:55:14.012Z</time></trkpt><trkpt lat="43.45462" lon="10.6406417"><ele>308.0</ele><time>2026-04-04T09:55:15.013Z</time></trkpt><trkpt lat="43.4546017" lon="10.64039"><ele>310.33333333333337</ele><time>2026-04-04T09:55:16.012Z</time></trkpt><trkpt lat="43.454585" lon="10.6401433"><ele>312.6666666666667</ele><time>2026-04-04T09:55:17.012Z</time></trkpt><trkpt lat="43.45456" lon="10.6399017"><ele>315.0</ele><time>2026-04-04T09:55:18.012Z</time></trkpt><trkpt lat="43.45452" lon="10.6396567"><ele>320.6666666666667</ele><time>2026-04-04T09:55:19.012Z</time></trkpt><trkpt lat="43.4544667" lon="10.6394183"><ele>326.33333333333337</ele><time>2026-04-04T09:55:20.012Z</time></trkpt><trkpt lat="43.4544017" lon="10.6391833"><ele>332.0</ele><time>2026-04-04T09:55:21.013Z</time></trkpt><trkpt lat="43.4543383" lon="10.6389433"><ele>332.0</ele><time>2026-04-04T09:55:22.013Z</time></trkpt><trkpt lat="43.45428" lon="10.6387133"><ele>332.0</ele><time>2026-04-04T09:55:23.013Z</time></trkpt><trkpt lat="43.4542483" lon="10.6384833"><ele>332.0</ele><time>2026-04-04T09:55:24.012Z</time></trkpt><trkpt lat="43.4542467" lon="10.6382483"><ele>335.33333333333337</ele><time>2026-04-04T09:55:25.012Z</time></trkpt><trkpt lat="43.45426" lon="10.6380117"><ele>338.6666666666667</ele><time>2026-04-04T09:55:26.013Z</time></trkpt><trkpt lat="43.4542817" lon="10.6377683"><ele>342.0</ele><time>2026-04-04T09:55:27.012Z</time></trkpt><trkpt lat="43.4543117" lon="10.6375183"><ele>345.0</ele><time>2026-04-04T09:55:28.014Z</time></trkpt><trkpt lat="43.4543417" lon="10.6372633"><ele>348.0</ele><time>2026-04-04T09:55:29.013Z</time></trkpt><trkpt lat="43.45437" lon="10.637005"><ele>351.0</ele><time>2026-04-04T09:55:30.013Z</time></trkpt><trkpt lat="43.4543933" lon="10.636745"><ele>351.6666666666667</ele><time>2026-04-04T09:55:31.012Z</time></trkpt><trkpt lat="43.454425" lon="10.6364817"><ele>352.33333333333337</ele><time>2026-04-04T09:55:32.012Z</time></trkpt><trkpt lat="43.4544517" lon="10.6362167"><ele>353.0</ele><time>2026-04-04T09:55:33.013Z</time></trkpt><trkpt lat="43.454475" lon="10.6359467"><ele>353.33333333333337</ele><time>2026-04-04T09:55:34.013Z</time></trkpt><trkpt lat="43.45449" lon="10.6356783"><ele>353.6666666666667</ele><time>2026-04-04T09:55:35.013Z</time></trkpt><trkpt lat="43.454495" lon="10.6354117"><ele>354.0</ele><time>2026-04-04T09:55:36.012Z</time></trkpt><trkpt lat="43.4545" lon="10.63514"><ele>354.6666666666667</ele><time>2026-04-04T09:55:37.012Z</time></trkpt><trkpt lat="43.454495" lon="10.6348767"><ele>355.33333333333337</ele><time>2026-04-04T09:55:38.012Z</time></trkpt><trkpt lat="43.45447" lon="10.6346167"><ele>356.0</ele><time>2026-04-04T09:55:39.015Z</time></trkpt><trkpt lat="43.45442" lon="10.6343633"><ele>357.33333333333337</ele><time>2026-04-04T09:55:40.013Z</time></trkpt><trkpt lat="43.4543483" lon="10.634125"><ele>358.6666666666667</ele><time>2026-04-04T09:55:41.013Z</time></trkpt><trkpt lat="43.4542633" lon="10.6338833"><ele>360.0</ele><time>2026-04-04T09:55:42.013Z</time></trkpt><trkpt lat="43.4541683" lon="10.6336367"><ele>361.0</ele><time>2026-04-04T09:55:43.012Z</time></trkpt><trkpt lat="43.4540717" lon="10.633395"><ele>362.0</ele><time>2026-04-04T09:55:44.013Z</time></trkpt><trkpt lat="43.45398" lon="10.633145"><ele>363.0</ele><time>2026-04-04T09:55:45.012Z</time></trkpt><trkpt lat="43.45389" lon="10.6328917"><ele>365.0</ele><time>2026-04-04T09:55:46.014Z</time></trkpt><trkpt lat="43.453805" lon="10.632635"><ele>367.0</ele><time>2026-04-04T09:55:47.013Z</time></trkpt><trkpt lat="43.453735" lon="10.6323767"><ele>369.0</ele><time>2026-04-04T09:55:48.014Z</time></trkpt><trkpt lat="43.4536933" lon="10.6321217"><ele>366.0</ele><time>2026-04-04T09:55:49.011Z</time></trkpt><trkpt lat="43.4536867" lon="10.6318633"><ele>363.0</ele><time>2026-04-04T09:55:50.012Z</time></trkpt><trkpt lat="43.453705" lon="10.6315983"><ele>360.0</ele><time>2026-04-04T09:55:51.012Z</time></trkpt><trkpt lat="43.45373" lon="10.63132"><ele>361.6666666666667</ele><time>2026-04-04T09:55:52.013Z</time></trkpt><trkpt lat="43.4537617" lon="10.6310417"><ele>363.33333333333337</ele><time>2026-04-04T09:55:53.011Z</time></trkpt><trkpt lat="43.45378" lon="10.630775"><ele>365.0</ele><time>2026-04-04T09:55:54.012Z</time></trkpt><trkpt lat="43.4537767" lon="10.6305067"><ele>369.0</ele><time>2026-04-04T09:55:55.012Z</time></trkpt><trkpt lat="43.4537433" lon="10.63024"><ele>373.0</ele><time>2026-04-04T09:55:56.011Z</time></trkpt><trkpt lat="43.4536983" lon="10.6299667"><ele>377.0</ele><time>2026-04-04T09:55:57.012Z</time></trkpt><trkpt lat="43.4536467" lon="10.62968"><ele>380.0</ele><time>2026-04-04T09:55:58.015Z</time></trkpt><trkpt lat="43.4536017" lon="10.629395"><ele>383.0</ele><time>2026-04-04T09:55:59.015Z</time></trkpt><trkpt lat="43.4535583" lon="10.6291067"><ele>386.0</ele><time>2026-04-04T09:56:00.013Z</time></trkpt><trkpt lat="43.4535067" lon="10.6288233"><ele>388.0</ele><time>2026-04-04T09:56:01.015Z</time></trkpt><trkpt lat="43.4534533" lon="10.62855"><ele>390.0</ele><time>2026-04-04T09:56:02.012Z</time></trkpt><trkpt lat="43.4533983" lon="10.6282867"><ele>392.0</ele><time>2026-04-04T09:56:03.013Z</time></trkpt><trkpt lat="43.45335" lon="10.6280183"><ele>393.0</ele><time>2026-04-04T09:56:04.012Z</time></trkpt><trkpt lat="43.453295" lon="10.6277567"><ele>394.0</ele><time>2026-04-04T09:56:05.013Z</time></trkpt><trkpt lat="43.4532417" lon="10.6275067"><ele>395.0</ele><time>2026-04-04T09:56:06.013Z</time></trkpt><trkpt lat="43.4531917" lon="10.62728"><ele>395.0</ele><time>2026-04-04T09:56:07.012Z</time></trkpt><trkpt lat="43.453135" lon="10.6270733"><ele>395.0</ele><time>2026-04-04T09:56:08.012Z</time></trkpt><trkpt lat="43.4530517" lon="10.6269083"><ele>395.0</ele><time>2026-04-04T09:56:09.012Z</time></trkpt><trkpt lat="43.45295" lon="10.6267467"><ele>399.3333333333333</ele><time>2026-04-04T09:56:10.012Z</time></trkpt><trkpt lat="43.45282" lon="10.6266"><ele>403.66666666666663</ele><time>2026-04-04T09:56:11.011Z</time></trkpt><trkpt lat="43.4526667" lon="10.62647"><ele>408.0</ele><time>2026-04-04T09:56:12.012Z</time></trkpt><trkpt lat="43.452505" lon="10.626355"><ele>408.0</ele><time>2026-04-04T09:56:13.012Z</time></trkpt><trkpt lat="43.4523433" lon="10.6262083"><ele>408.0</ele><time>2026-04-04T09:56:14.012Z</time></trkpt><trkpt lat="43.4521933" lon="10.6260217"><ele>408.0</ele><time>2026-04-04T09:56:15.012Z</time></trkpt><trkpt lat="43.45205" lon="10.6258233"><ele>410.0</ele><time>2026-04-04T09:56:16.012Z</time></trkpt><trkpt lat="43.4519" lon="10.6256483"><ele>412.0</ele><time>2026-04-04T09:56:17.013Z</time></trkpt><trkpt lat="43.4517583" lon="10.6254933"><ele>414.0</ele><time>2026-04-04T09:56:18.011Z</time></trkpt><trkpt lat="43.4516133" lon="10.6253683"><ele>416.66666666666663</ele><time>2026-04-04T09:56:19.012Z</time></trkpt><trkpt lat="43.45147" lon="10.6252933"><ele>419.3333333333333</ele><time>2026-04-04T09:56:20.012Z</time></trkpt><trkpt lat="43.4513267" lon="10.6252267"><ele>422.0</ele><time>2026-04-04T09:56:21.013Z</time></trkpt><trkpt lat="43.451175" lon="10.625165"><ele>422.0</ele><time>2026-04-04T09:56:22.012Z</time></trkpt><trkpt lat="43.451035" lon="10.6250633"><ele>422.0</ele><time>2026-04-04T09:56:23.01Z</time></trkpt><trkpt lat="43.4509" lon="10.6249467"><ele>422.0</ele><time>2026-04-04T09:56:24.012Z</time></trkpt><trkpt lat="43.4507683" lon="10.6248333"><ele>422.0</ele><time>2026-04-04T09:56:25.012Z</time></trkpt><trkpt lat="43.45064" lon="10.624745"><ele>422.0</ele><time>2026-04-04T09:56:26.012Z</time></trkpt><trkpt lat="43.4505017" lon="10.624665"><ele>422.0</ele><time>2026-04-04T09:56:27.012Z</time></trkpt><trkpt lat="43.450355" lon="10.6246167"><ele>422.0</ele><time>2026-04-04T09:56:28.012Z</time></trkpt><trkpt lat="43.45022" lon="10.62458"><ele>424.25</ele><time>2026-04-04T09:56:29.011Z</time></trkpt><trkpt lat="43.4501033" lon="10.6245167"><ele>426.5</ele><time>2026-04-04T09:56:30.011Z</time></trkpt><trkpt lat="43.4500067" lon="10.624425"><ele>428.75</ele><time>2026-04-04T09:56:31.012Z</time></trkpt><trkpt lat="43.449915" lon="10.624325"><ele>431.0</ele><time>2026-04-04T09:56:32.01Z</time></trkpt><trkpt lat="43.44981" lon="10.6242383"><ele>431.0</ele><time>2026-04-04T09:56:33.012Z</time></trkpt><trkpt lat="43.4496883" lon="10.624185"><ele>431.0</ele><time>2026-04-04T09:56:34.011Z</time></trkpt><trkpt lat="43.449565" lon="10.6241483"><ele>431.0</ele><time>2026-04-04T09:56:35.011Z</time></trkpt><trkpt lat="43.4494533" lon="10.6241167"><ele>431.0</ele><time>2026-04-04T09:56:36.012Z</time></trkpt><trkpt lat="43.4493483" lon="10.6241033"><ele>429.0</ele><time>2026-04-04T09:56:37.012Z</time></trkpt><trkpt lat="43.449245" lon="10.624135"><ele>427.0</ele><time>2026-04-04T09:56:38.013Z</time></trkpt><trkpt lat="43.449145" lon="10.6242233"><ele>425.0</ele><time>2026-04-04T09:56:39.013Z</time></trkpt><trkpt lat="43.4490517" lon="10.624275"><ele>423.0</ele><time>2026-04-04T09:56:40.012Z</time></trkpt><trkpt lat="43.4489617" lon="10.6243133"><ele>421.0</ele><time>2026-04-04T09:56:41.012Z</time></trkpt><trkpt lat="43.448885" lon="10.6242817"><ele>421.0</ele><time>2026-04-04T09:56:42.012Z</time></trkpt><trkpt lat="43.4488067" lon="10.6242233"><ele>421.0</ele><time>2026-04-04T09:56:43.012Z</time></trkpt><trkpt lat="43.448735" lon="10.6241233"><ele>421.0</ele><time>2026-04-04T09:56:44.012Z</time></trkpt><trkpt lat="43.4486633" lon="10.6240017"><ele>421.0</ele><time>2026-04-04T09:56:45.012Z</time></trkpt><trkpt lat="43.4485917" lon="10.6239083"><ele>421.0</ele><time>2026-04-04T09:56:46.011Z</time></trkpt><trkpt lat="43.448515" lon="10.6238483"><ele>419.5</ele><time>2026-04-04T09:56:47.012Z</time></trkpt><trkpt lat="43.4484283" lon="10.6238117"><ele>418.0</ele><time>2026-04-04T09:56:48.012Z</time></trkpt><trkpt lat="43.448295" lon="10.62384"><ele>416.5</ele><time>2026-04-04T09:56:49.013Z</time></trkpt><trkpt lat="43.4481567" lon="10.623845"><ele>415.0</ele><time>2026-04-04T09:56:50.012Z</time></trkpt><trkpt lat="43.4480083" lon="10.623835"><ele>415.2</ele><time>2026-04-04T09:56:51.012Z</time></trkpt><trkpt lat="43.4478917" lon="10.6237983"><ele>415.4</ele><time>2026-04-04T09:56:52.012Z</time></trkpt><trkpt lat="43.4478017" lon="10.6237033"><ele>415.6</ele><time>2026-04-04T09:56:53.01Z</time></trkpt><trkpt lat="43.4477467" lon="10.6235883"><ele>415.8</ele><time>2026-04-04T09:56:54.011Z</time></trkpt><trkpt lat="43.4477117" lon="10.6234867"><ele>416.0</ele><time>2026-04-04T09:56:55.011Z</time></trkpt><trkpt lat="43.4477" lon="10.623385"><ele>415.99999999999994</ele><time>2026-04-04T09:56:56.012Z</time></trkpt><trkpt lat="43.4477017" lon="10.623265"><ele>416.0</ele><time>2026-04-04T09:56:57.013Z</time></trkpt><trkpt lat="43.4477033" lon="10.623155"><ele>416.0</ele><time>2026-04-04T09:56:58.011Z</time></trkpt><trkpt lat="43.4476883" lon="10.6230617"><ele>416.0</ele><time>2026-04-04T09:56:59.013Z</time></trkpt><trkpt lat="43.4476267" lon="10.6229483"><ele>415.99999999999994</ele><time>2026-04-04T09:57:01.011Z</time></trkpt><trkpt lat="43.4475633" lon="10.6229767"><ele>416.0</ele><time>2026-04-04T09:57:02.013Z</time></trkpt><trkpt lat="43.4474733" lon="10.623025"><ele>416.0</ele><time>2026-04-04T09:57:03.013Z</time></trkpt><trkpt lat="43.44737" lon="10.6230383"><ele>416.0</ele><time>2026-04-04T09:57:04.014Z</time></trkpt><trkpt lat="43.4472017" lon="10.6230783"><ele>416.0</ele><time>2026-04-04T09:57:05.013Z</time></trkpt><trkpt lat="43.44706" lon="10.6230683"><ele>416.0</ele><time>2026-04-04T09:57:06.012Z</time></trkpt><trkpt lat="43.446945" lon="10.6230267"><ele>414.0</ele><time>2026-04-04T09:57:07.011Z</time></trkpt><trkpt lat="43.446855" lon="10.6228967"><ele>412.0</ele><time>2026-04-04T09:57:08.012Z</time></trkpt><trkpt lat="43.44681" lon="10.6227467"><ele>410.0</ele><time>2026-04-04T09:57:09.013Z</time></trkpt><trkpt lat="43.4467833" lon="10.622595"><ele>408.0</ele><time>2026-04-04T09:57:10.012Z</time></trkpt><trkpt lat="43.44678" lon="10.6224317"><ele>408.0</ele><time>2026-04-04T09:57:11.012Z</time></trkpt><trkpt lat="43.446765" lon="10.6222817"><ele>408.0</ele><time>2026-04-04T09:57:12.013Z</time></trkpt><trkpt lat="43.4467283" lon="10.622135"><ele>408.0</ele><time>2026-04-04T09:57:13.012Z</time></trkpt><trkpt lat="43.4466733" lon="10.621985"><ele>408.0</ele><time>2026-04-04T09:57:14.01Z</time></trkpt><trkpt lat="43.4465933" lon="10.62183"><ele>407.25</ele><time>2026-04-04T09:57:15.009Z</time></trkpt><trkpt lat="43.4465217" lon="10.6216817"><ele>406.5</ele><time>2026-04-04T09:57:16.01Z</time></trkpt><trkpt lat="43.44644" lon="10.6215517"><ele>405.75</ele><time>2026-04-04T09:57:17.01Z</time></trkpt><trkpt lat="43.4463533" lon="10.621425"><ele>405.0</ele><time>2026-04-04T09:57:18.009Z</time></trkpt><trkpt lat="43.4462267" lon="10.6213083"><ele>405.0</ele><time>2026-04-04T09:57:19.009Z</time></trkpt><trkpt lat="43.44611" lon="10.621165"><ele>405.0</ele><time>2026-04-04T09:57:20.01Z</time></trkpt><trkpt lat="43.446015" lon="10.621005"><ele>405.0</ele><time>2026-04-04T09:57:21.011Z</time></trkpt><trkpt lat="43.4459267" lon="10.6208117"><ele>407.0</ele><time>2026-04-04T09:57:22.009Z</time></trkpt><trkpt lat="43.4458583" lon="10.620655"><ele>409.0</ele><time>2026-04-04T09:57:23.011Z</time></trkpt><trkpt lat="43.4458117" lon="10.62047"><ele>411.0</ele><time>2026-04-04T09:57:24.011Z</time></trkpt><trkpt lat="43.4457917" lon="10.6203017"><ele>413.0</ele><time>2026-04-04T09:57:25.01Z</time></trkpt><trkpt lat="43.4457867" lon="10.6201383"><ele>415.5</ele><time>2026-04-04T09:57:26.012Z</time></trkpt><trkpt lat="43.4457783" lon="10.6200033"><ele>418.0</ele><time>2026-04-04T09:57:27.011Z</time></trkpt><trkpt lat="43.4457733" lon="10.619885"><ele>420.5</ele><time>2026-04-04T09:57:28.01Z</time></trkpt><trkpt lat="43.4457517" lon="10.6198033"><ele>423.0</ele><time>2026-04-04T09:57:29.011Z</time></trkpt><trkpt lat="43.4456783" lon="10.6201217"><ele>423.0</ele><time>2026-04-04T09:57:33.013Z</time></trkpt><trkpt lat="43.4456383" lon="10.6202883"><ele>423.0</ele><time>2026-04-04T09:57:34.011Z</time></trkpt><trkpt lat="43.4456" lon="10.6204583"><ele>423.0</ele><time>2026-04-04T09:57:35.012Z</time></trkpt><trkpt lat="43.4455767" lon="10.62064"><ele>423.0</ele><time>2026-04-04T09:57:36.012Z</time></trkpt><trkpt lat="43.445565" lon="10.6208383"><ele>419.66666666666663</ele><time>2026-04-04T09:57:37.012Z</time></trkpt><trkpt lat="43.4455583" lon="10.6210467"><ele>416.3333333333333</ele><time>2026-04-04T09:57:38.012Z</time></trkpt><trkpt lat="43.445555" lon="10.6212633"><ele>413.0</ele><time>2026-04-04T09:57:39.012Z</time></trkpt><trkpt lat="43.4455467" lon="10.621485"><ele>410.3333333333333</ele><time>2026-04-04T09:57:40.012Z</time></trkpt><trkpt lat="43.44554" lon="10.621715"><ele>407.66666666666663</ele><time>2026-04-04T09:57:41.011Z</time></trkpt><trkpt lat="43.4455417" lon="10.6219517"><ele>405.0</ele><time>2026-04-04T09:57:42.012Z</time></trkpt><trkpt lat="43.4455467" lon="10.6221917"><ele>402.33333333333337</ele><time>2026-04-04T09:57:43.011Z</time></trkpt><trkpt lat="43.4455317" lon="10.6224317"><ele>399.6666666666667</ele><time>2026-04-04T09:57:44.012Z</time></trkpt><trkpt lat="43.4455167" lon="10.6226633"><ele>397.0</ele><time>2026-04-04T09:57:45.012Z</time></trkpt><trkpt lat="43.445525" lon="10.62288"><ele>394.75</ele><time>2026-04-04T09:57:46.011Z</time></trkpt><trkpt lat="43.4455433" lon="10.623085"><ele>392.5</ele><time>2026-04-04T09:57:47.013Z</time></trkpt><trkpt lat="43.4455667" lon="10.623265"><ele>390.25</ele><time>2026-04-04T09:57:48.013Z</time></trkpt><trkpt lat="43.4455833" lon="10.6234233"><ele>388.0</ele><time>2026-04-04T09:57:49.012Z</time></trkpt><trkpt lat="43.4455533" lon="10.6235583"><ele>386.0</ele><time>2026-04-04T09:57:50.011Z</time></trkpt><trkpt lat="43.4455283" lon="10.6236733"><ele>384.0</ele><time>2026-04-04T09:57:51.012Z</time></trkpt><trkpt lat="43.445475" lon="10.6237683"><ele>382.0</ele><time>2026-04-04T09:57:52.012Z</time></trkpt><trkpt lat="43.4453683" lon="10.6238083"><ele>380.0</ele><time>2026-04-04T09:57:53.013Z</time></trkpt><trkpt lat="43.4452533" lon="10.6238433"><ele>378.0</ele><time>2026-04-04T09:57:54.012Z</time></trkpt><trkpt lat="43.4451383" lon="10.6238733"><ele>382.79999999999995</ele><time>2026-04-04T09:57:55.011Z</time></trkpt><trkpt lat="43.4450233" lon="10.62393"><ele>387.6</ele><time>2026-04-04T09:57:56.012Z</time></trkpt><trkpt lat="43.444935" lon="10.623995"><ele>392.4</ele><time>2026-04-04T09:57:57.013Z</time></trkpt><trkpt lat="43.44489" lon="10.6241017"><ele>397.20000000000005</ele><time>2026-04-04T09:57:58.012Z</time></trkpt><trkpt lat="43.4448633" lon="10.6242483"><ele>402.0</ele><time>2026-04-04T09:57:59.012Z</time></trkpt><trkpt lat="43.4448433" lon="10.6244417"><ele>399.33333333333337</ele><time>2026-04-04T09:58:00.012Z</time></trkpt><trkpt lat="43.4448117" lon="10.62465"><ele>396.6666666666667</ele><time>2026-04-04T09:58:01.012Z</time></trkpt><trkpt lat="43.44478" lon="10.6248617"><ele>394.0</ele><time>2026-04-04T09:58:02.011Z</time></trkpt><trkpt lat="43.4447517" lon="10.6250567"><ele>394.0</ele><time>2026-04-04T09:58:03.012Z</time></trkpt><trkpt lat="43.444725" lon="10.62522"><ele>394.0</ele><time>2026-04-04T09:58:04.012Z</time></trkpt><trkpt lat="43.4446767" lon="10.6253617"><ele>394.0</ele><time>2026-04-04T09:58:05.012Z</time></trkpt><trkpt lat="43.4446083" lon="10.6254883"><ele>394.0</ele><time>2026-04-04T09:58:06.013Z</time></trkpt><trkpt lat="43.44451" lon="10.6255933"><ele>394.25</ele><time>2026-04-04T09:58:07.012Z</time></trkpt><trkpt lat="43.444395" lon="10.625675"><ele>394.5</ele><time>2026-04-04T09:58:08.012Z</time></trkpt><trkpt lat="43.4442683" lon="10.625735"><ele>394.75</ele><time>2026-04-04T09:58:09.013Z</time></trkpt><trkpt lat="43.4441317" lon="10.62576"><ele>395.0</ele><time>2026-04-04T09:58:10.012Z</time></trkpt><trkpt lat="43.4439883" lon="10.6257567"><ele>395.0</ele><time>2026-04-04T09:58:11.012Z</time></trkpt><trkpt lat="43.4438417" lon="10.6257433"><ele>395.0</ele><time>2026-04-04T09:58:12.012Z</time></trkpt><trkpt lat="43.4436983" lon="10.6257333"><ele>395.0</ele><time>2026-04-04T09:58:13.013Z</time></trkpt><trkpt lat="43.443545" lon="10.6256867"><ele>395.0</ele><time>2026-04-04T09:58:14.013Z</time></trkpt><trkpt lat="43.4433967" lon="10.625605"><ele>394.3333333333333</ele><time>2026-04-04T09:58:15.014Z</time></trkpt><trkpt lat="43.44325" lon="10.6255183"><ele>393.66666666666663</ele><time>2026-04-04T09:58:16.012Z</time></trkpt><trkpt lat="43.443105" lon="10.6254317"><ele>393.0</ele><time>2026-04-04T09:58:17.013Z</time></trkpt><trkpt lat="43.4429583" lon="10.6253667"><ele>392.0</ele><time>2026-04-04T09:58:18.01Z</time></trkpt><trkpt lat="43.442815" lon="10.6253183"><ele>391.0</ele><time>2026-04-04T09:58:19.011Z</time></trkpt><trkpt lat="43.4426883" lon="10.6252817"><ele>390.0</ele><time>2026-04-04T09:58:20.012Z</time></trkpt><trkpt lat="43.4425767" lon="10.6252183"><ele>389.0</ele><time>2026-04-04T09:58:21.014Z</time></trkpt><trkpt lat="43.4424867" lon="10.625125"><ele>393.66666666666663</ele><time>2026-04-04T09:58:22.01Z</time></trkpt><trkpt lat="43.442395" lon="10.6249817"><ele>398.33333333333337</ele><time>2026-04-04T09:58:23.014Z</time></trkpt><trkpt lat="43.442295" lon="10.6248017"><ele>403.0</ele><time>2026-04-04T09:58:24.013Z</time></trkpt><trkpt lat="43.44219" lon="10.62461"><ele>403.0</ele><time>2026-04-04T09:58:25.011Z</time></trkpt><trkpt lat="43.442085" lon="10.6244383"><ele>403.0</ele><time>2026-04-04T09:58:26.011Z</time></trkpt><trkpt lat="43.4419867" lon="10.6242667"><ele>403.0</ele><time>2026-04-04T09:58:27.011Z</time></trkpt><trkpt lat="43.4418883" lon="10.6240917"><ele>403.0</ele><time>2026-04-04T09:58:28.012Z</time></trkpt><trkpt lat="43.4417767" lon="10.6239267"><ele>403.0</ele><time>2026-04-04T09:58:29.013Z</time></trkpt><trkpt lat="43.4416417" lon="10.6237967"><ele>403.0</ele><time>2026-04-04T09:58:30.013Z</time></trkpt><trkpt lat="43.4414867" lon="10.623695"><ele>406.6666666666667</ele><time>2026-04-04T09:58:31.012Z</time></trkpt><trkpt lat="43.4413183" lon="10.6236233"><ele>410.33333333333337</ele><time>2026-04-04T09:58:32.012Z</time></trkpt><trkpt lat="43.4411483" lon="10.623605"><ele>414.0</ele><time>2026-04-04T09:58:33.012Z</time></trkpt><trkpt lat="43.4409967" lon="10.6236217"><ele>414.0</ele><time>2026-04-04T09:58:34.011Z</time></trkpt><trkpt lat="43.4408567" lon="10.6236483"><ele>414.0</ele><time>2026-04-04T09:58:35.012Z</time></trkpt><trkpt lat="43.4407317" lon="10.62365"><ele>414.0</ele><time>2026-04-04T09:58:36.011Z</time></trkpt><trkpt lat="43.4406233" lon="10.62361"><ele>414.0</ele><time>2026-04-04T09:58:37.012Z</time></trkpt><trkpt lat="43.4405283" lon="10.6235217"><ele>410.75</ele><time>2026-04-04T09:58:38.011Z</time></trkpt><trkpt lat="43.4404467" lon="10.6233867"><ele>407.5</ele><time>2026-04-04T09:58:39.012Z</time></trkpt><trkpt lat="43.44037" lon="10.6232317"><ele>404.25</ele><time>2026-04-04T09:58:40.011Z</time></trkpt><trkpt lat="43.4403083" lon="10.62307"><ele>401.0</ele><time>2026-04-04T09:58:41.012Z</time></trkpt><trkpt lat="43.4402667" lon="10.62291"><ele>403.4</ele><time>2026-04-04T09:58:42.01Z</time></trkpt><trkpt lat="43.4402467" lon="10.6227517"><ele>405.8</ele><time>2026-04-04T09:58:43.012Z</time></trkpt><trkpt lat="43.4402367" lon="10.62261"><ele>408.2</ele><time>2026-04-04T09:58:44.013Z</time></trkpt><trkpt lat="43.4402283" lon="10.6224833"><ele>410.59999999999997</ele><time>2026-04-04T09:58:45.012Z</time></trkpt><trkpt lat="43.4402217" lon="10.6223783"><ele>413.0</ele><time>2026-04-04T09:58:46.012Z</time></trkpt><trkpt lat="43.44021" lon="10.62228"><ele>412.99999999999994</ele><time>2026-04-04T09:58:47.01Z</time></trkpt><trkpt lat="43.44019" lon="10.6221967"><ele>413.0</ele><time>2026-04-04T09:58:48.011Z</time></trkpt><trkpt lat="43.4401217" lon="10.6221533"><ele>413.0</ele><time>2026-04-04T09:58:49.012Z</time></trkpt><trkpt lat="43.4400533" lon="10.6221183"><ele>413.0</ele><time>2026-04-04T09:58:50.011Z</time></trkpt><trkpt lat="43.4399583" lon="10.6221083"><ele>412.99999999999994</ele><time>2026-04-04T09:58:51.011Z</time></trkpt><trkpt lat="43.4398483" lon="10.6221017"><ele>413.0</ele><time>2026-04-04T09:58:52.011Z</time></trkpt><trkpt lat="43.4397233" lon="10.6220933"><ele>411.5</ele><time>2026-04-04T09:58:53.012Z</time></trkpt><trkpt lat="43.4395967" lon="10.622055"><ele>410.0</ele><time>2026-04-04T09:58:54.011Z</time></trkpt><trkpt lat="43.4394767" lon="10.622"><ele>408.5</ele><time>2026-04-04T09:58:55.013Z</time></trkpt><trkpt lat="43.4393617" lon="10.6219267"><ele>407.0</ele><time>2026-04-04T09:58:56.013Z</time></trkpt><trkpt lat="43.4392467" lon="10.621855"><ele>410.0</ele><time>2026-04-04T09:58:57.013Z</time></trkpt><trkpt lat="43.4391367" lon="10.6217967"><ele>413.0</ele><time>2026-04-04T09:58:58.013Z</time></trkpt><trkpt lat="43.4390317" lon="10.6217567"><ele>416.0</ele><time>2026-04-04T09:58:59.012Z</time></trkpt><trkpt lat="43.4389317" lon="10.6216833"><ele>419.0</ele><time>2026-04-04T09:59:00.011Z</time></trkpt><trkpt lat="43.4388267" lon="10.6215983"><ele>417.25</ele><time>2026-04-04T09:59:01.015Z</time></trkpt><trkpt lat="43.438725" lon="10.621515"><ele>415.5</ele><time>2026-04-04T09:59:02.012Z</time></trkpt><trkpt lat="43.4386417" lon="10.62141"><ele>413.75</ele><time>2026-04-04T09:59:03.012Z</time></trkpt><trkpt lat="43.4385717" lon="10.6212967"><ele>412.0</ele><time>2026-04-04T09:59:04.012Z</time></trkpt><trkpt lat="43.4385217" lon="10.6211583"><ele>413.8</ele><time>2026-04-04T09:59:05.012Z</time></trkpt><trkpt lat="43.4384917" lon="10.6210217"><ele>415.6</ele><time>2026-04-04T09:59:06.013Z</time></trkpt><trkpt lat="43.4384783" lon="10.6208883"><ele>417.40000000000003</ele><time>2026-04-04T09:59:07.012Z</time></trkpt><trkpt lat="43.4384717" lon="10.62076"><ele>419.20000000000005</ele><time>2026-04-04T09:59:08.012Z</time></trkpt><trkpt lat="43.4384617" lon="10.6206367"><ele>421.0</ele><time>2026-04-04T09:59:09.012Z</time></trkpt><trkpt lat="43.438455" lon="10.6205033"><ele>421.0</ele><time>2026-04-04T09:59:10.012Z</time></trkpt><trkpt lat="43.438445" lon="10.620365"><ele>421.0</ele><time>2026-04-04T09:59:11.012Z</time></trkpt><trkpt lat="43.4384433" lon="10.620225"><ele>421.0</ele><time>2026-04-04T09:59:12.013Z</time></trkpt><trkpt lat="43.4384317" lon="10.6200917"><ele>421.0</ele><time>2026-04-04T09:59:13.012Z</time></trkpt><trkpt lat="43.4384233" lon="10.619955"><ele>421.0</ele><time>2026-04-04T09:59:14.013Z</time></trkpt><trkpt lat="43.438405" lon="10.6198367"><ele>422.50000000000006</ele><time>2026-04-04T09:59:15.013Z</time></trkpt><trkpt lat="43.4383867" lon="10.6197317"><ele>424.0</ele><time>2026-04-04T09:59:16.012Z</time></trkpt><trkpt lat="43.4383467" lon="10.61964"><ele>425.5</ele><time>2026-04-04T09:59:17.012Z</time></trkpt><trkpt lat="43.4382983" lon="10.6195667"><ele>427.0</ele><time>2026-04-04T09:59:18.012Z</time></trkpt><trkpt lat="43.438225" lon="10.6195283"><ele>428.50000000000006</ele><time>2026-04-04T09:59:19.012Z</time></trkpt><trkpt lat="43.4381233" lon="10.619555"><ele>430.0</ele><time>2026-04-04T09:59:20.013Z</time></trkpt><trkpt lat="43.4379967" lon="10.61962"><ele>430.0</ele><time>2026-04-04T09:59:21.012Z</time></trkpt><trkpt lat="43.437905" lon="10.61968"><ele>430.0</ele><time>2026-04-04T09:59:22.013Z</time></trkpt><trkpt lat="43.4378167" lon="10.6197517"><ele>430.0</ele><time>2026-04-04T09:59:23.013Z</time></trkpt><trkpt lat="43.43773" lon="10.61983"><ele>430.0</ele><time>2026-04-04T09:59:24.012Z</time></trkpt><trkpt lat="43.4376417" lon="10.6199067"><ele>430.0</ele><time>2026-04-04T09:59:25.013Z</time></trkpt><trkpt lat="43.4375483" lon="10.6199567"><ele>430.0</ele><time>2026-04-04T09:59:26.011Z</time></trkpt><trkpt lat="43.4374467" lon="10.619975"><ele>430.0</ele><time>2026-04-04T09:59:27.013Z</time></trkpt><trkpt lat="43.43735" lon="10.619975"><ele>430.0</ele><time>2026-04-04T09:59:28.013Z</time></trkpt><trkpt lat="43.43726" lon="10.6199617"><ele>430.0</ele><time>2026-04-04T09:59:29.012Z</time></trkpt><trkpt lat="43.437175" lon="10.6199533"><ele>430.0</ele><time>2026-04-04T09:59:30.013Z</time></trkpt><trkpt lat="43.43709" lon="10.61996"><ele>431.2</ele><time>2026-04-04T09:59:31.013Z</time></trkpt><trkpt lat="43.437005" lon="10.619995"><ele>432.4</ele><time>2026-04-04T09:59:32.013Z</time></trkpt><trkpt lat="43.4369183" lon="10.620055"><ele>433.6</ele><time>2026-04-04T09:59:33.014Z</time></trkpt><trkpt lat="43.4368483" lon="10.62014"><ele>434.8</ele><time>2026-04-04T09:59:34.012Z</time></trkpt><trkpt lat="43.4368133" lon="10.62026"><ele>436.0</ele><time>2026-04-04T09:59:35.012Z</time></trkpt><trkpt lat="43.4368017" lon="10.6203817"><ele>436.00000000000006</ele><time>2026-04-04T09:59:36.013Z</time></trkpt><trkpt lat="43.4367733" lon="10.6204983"><ele>436.0</ele><time>2026-04-04T09:59:37.011Z</time></trkpt><trkpt lat="43.4367517" lon="10.6206117"><ele>436.0</ele><time>2026-04-04T09:59:38.013Z</time></trkpt><trkpt lat="43.43672" lon="10.6207183"><ele>436.0</ele><time>2026-04-04T09:59:39.013Z</time></trkpt><trkpt lat="43.43669" lon="10.6208283"><ele>436.00000000000006</ele><time>2026-04-04T09:59:40.013Z</time></trkpt><trkpt lat="43.43666" lon="10.6209333"><ele>436.0</ele><time>2026-04-04T09:59:41.012Z</time></trkpt><trkpt lat="43.4366033" lon="10.6210283"><ele>436.00000000000006</ele><time>2026-04-04T09:59:42.013Z</time></trkpt><trkpt lat="43.4365317" lon="10.6211"><ele>436.0</ele><time>2026-04-04T09:59:43.013Z</time></trkpt><trkpt lat="43.4364583" lon="10.6211433"><ele>436.0</ele><time>2026-04-04T09:59:44.014Z</time></trkpt><trkpt lat="43.4363883" lon="10.62117"><ele>436.0</ele><time>2026-04-04T09:59:45.013Z</time></trkpt><trkpt lat="43.4363167" lon="10.6211817"><ele>436.00000000000006</ele><time>2026-04-04T09:59:46.012Z</time></trkpt><trkpt lat="43.4362417" lon="10.6211683"><ele>436.0</ele><time>2026-04-04T09:59:47.012Z</time></trkpt><trkpt lat="43.43616" lon="10.6211217"><ele>437.0</ele><time>2026-04-04T09:59:48.013Z</time></trkpt><trkpt lat="43.4360983" lon="10.6210317"><ele>438.0</ele><time>2026-04-04T09:59:49.013Z</time></trkpt><trkpt lat="43.4360517" lon="10.6209233"><ele>439.0</ele><time>2026-04-04T09:59:50.012Z</time></trkpt><trkpt lat="43.43602" lon="10.62079"><ele>440.0</ele><time>2026-04-04T09:59:51.012Z</time></trkpt><trkpt lat="43.4359867" lon="10.62066"><ele>441.0</ele><time>2026-04-04T09:59:52.012Z</time></trkpt><trkpt lat="43.43595" lon="10.6205267"><ele>441.0</ele><time>2026-04-04T09:59:53.012Z</time></trkpt><trkpt lat="43.435905" lon="10.6204017"><ele>441.0</ele><time>2026-04-04T09:59:54.013Z</time></trkpt><trkpt lat="43.4358467" lon="10.6202833"><ele>441.0</ele><time>2026-04-04T09:59:55.011Z</time></trkpt><trkpt lat="43.435775" lon="10.6201783"><ele>441.0</ele><time>2026-04-04T09:59:56.011Z</time></trkpt><trkpt lat="43.4356817" lon="10.620105"><ele>441.0</ele><time>2026-04-04T09:59:57.012Z</time></trkpt><trkpt lat="43.4355683" lon="10.620065"><ele>442.8</ele><time>2026-04-04T09:59:58.012Z</time></trkpt><trkpt lat="43.43546" lon="10.6200383"><ele>444.6</ele><time>2026-04-04T09:59:59.012Z</time></trkpt><trkpt lat="43.4353533" lon="10.6200267"><ele>446.4</ele><time>2026-04-04T10:00:00.012Z</time></trkpt><trkpt lat="43.43525" lon="10.62002"><ele>448.2</ele><time>2026-04-04T10:00:01.011Z</time></trkpt><trkpt lat="43.4351533" lon="10.6200083"><ele>450.0</ele><time>2026-04-04T10:00:02.012Z</time></trkpt><trkpt lat="43.4350583" lon="10.6199933"><ele>450.0</ele><time>2026-04-04T10:00:03.012Z</time></trkpt><trkpt lat="43.4349817" lon="10.6199267"><ele>450.0</ele><time>2026-04-04T10:00:04.011Z</time></trkpt><trkpt lat="43.4349283" lon="10.6198217"><ele>450.0</ele><time>2026-04-04T10:00:05.013Z</time></trkpt><trkpt lat="43.4349067" lon="10.6196867"><ele>450.0</ele><time>2026-04-04T10:00:06.011Z</time></trkpt><trkpt lat="43.4349133" lon="10.619505"><ele>450.0</ele><time>2026-04-04T10:00:07.012Z</time></trkpt><trkpt lat="43.43494" lon="10.6192933"><ele>451.0</ele><time>2026-04-04T10:00:08.012Z</time></trkpt><trkpt lat="43.43497" lon="10.6190883"><ele>452.0</ele><time>2026-04-04T10:00:09.012Z</time></trkpt><trkpt lat="43.434975" lon="10.6189"><ele>453.0</ele><time>2026-04-04T10:00:10.013Z</time></trkpt><trkpt lat="43.4349467" lon="10.6187033"><ele>454.0</ele><time>2026-04-04T10:00:11.012Z</time></trkpt><trkpt lat="43.4348783" lon="10.618515"><ele>455.5</ele><time>2026-04-04T10:00:12.012Z</time></trkpt><trkpt lat="43.434795" lon="10.618345"><ele>457.0</ele><time>2026-04-04T10:00:13.013Z</time></trkpt><trkpt lat="43.4347267" lon="10.618165"><ele>458.5</ele><time>2026-04-04T10:00:14.011Z</time></trkpt><trkpt lat="43.4346767" lon="10.6179967"><ele>460.0</ele><time>2026-04-04T10:00:15.013Z</time></trkpt><trkpt lat="43.4346533" lon="10.617835"><ele>461.5</ele><time>2026-04-04T10:00:16.012Z</time></trkpt><trkpt lat="43.4346617" lon="10.6176633"><ele>463.0</ele><time>2026-04-04T10:00:17.009Z</time></trkpt><trkpt lat="43.4346917" lon="10.6174783"><ele>464.5</ele><time>2026-04-04T10:00:18.01Z</time></trkpt><trkpt lat="43.4347267" lon="10.617285"><ele>466.0</ele><time>2026-04-04T10:00:19.012Z</time></trkpt><trkpt lat="43.434755" lon="10.6170867"><ele>467.5</ele><time>2026-04-04T10:00:20.011Z</time></trkpt><trkpt lat="43.4347733" lon="10.6168967"><ele>469.0</ele><time>2026-04-04T10:00:21.011Z</time></trkpt><trkpt lat="43.4347583" lon="10.61671"><ele>470.5</ele><time>2026-04-04T10:00:22.012Z</time></trkpt><trkpt lat="43.43472" lon="10.616535"><ele>472.0</ele><time>2026-04-04T10:00:23.013Z</time></trkpt><trkpt lat="43.4346683" lon="10.6163533"><ele>469.75</ele><time>2026-04-04T10:00:24.013Z</time></trkpt><trkpt lat="43.434595" lon="10.6161783"><ele>467.5</ele><time>2026-04-04T10:00:25.014Z</time></trkpt><trkpt lat="43.43453" lon="10.615995"><ele>465.25</ele><time>2026-04-04T10:00:26.011Z</time></trkpt><trkpt lat="43.4344667" lon="10.6158133"><ele>463.0</ele><time>2026-04-04T10:00:27.014Z</time></trkpt><trkpt lat="43.4343833" lon="10.6156383"><ele>463.0</ele><time>2026-04-04T10:00:28.014Z</time></trkpt><trkpt lat="43.4342867" lon="10.6154667"><ele>463.0</ele><time>2026-04-04T10:00:29.013Z</time></trkpt><trkpt lat="43.434175" lon="10.61531"><ele>463.0</ele><time>2026-04-04T10:00:30.015Z</time></trkpt><trkpt lat="43.4340683" lon="10.6151567"><ele>467.25</ele><time>2026-04-04T10:00:31.014Z</time></trkpt><trkpt lat="43.433985" lon="10.61499"><ele>471.5</ele><time>2026-04-04T10:00:32.013Z</time></trkpt><trkpt lat="43.4339233" lon="10.6148267"><ele>475.75</ele><time>2026-04-04T10:00:33.012Z</time></trkpt><trkpt lat="43.43389" lon="10.6146433"><ele>480.0</ele><time>2026-04-04T10:00:34.012Z</time></trkpt><trkpt lat="43.433885" lon="10.6144567"><ele>480.6</ele><time>2026-04-04T10:00:35.014Z</time></trkpt><trkpt lat="43.4338833" lon="10.6142867"><ele>481.2</ele><time>2026-04-04T10:00:36.014Z</time></trkpt><trkpt lat="43.4338767" lon="10.6141317"><ele>481.79999999999995</ele><time>2026-04-04T10:00:37.011Z</time></trkpt><trkpt lat="43.4338483" lon="10.6139917"><ele>482.4</ele><time>2026-04-04T10:00:38.011Z</time></trkpt><trkpt lat="43.4338017" lon="10.6138883"><ele>483.0</ele><time>2026-04-04T10:00:39.013Z</time></trkpt><trkpt lat="43.4337267" lon="10.613845"><ele>483.0</ele><time>2026-04-04T10:00:40.012Z</time></trkpt><trkpt lat="43.4336533" lon="10.6138233"><ele>482.99999999999994</ele><time>2026-04-04T10:00:41.013Z</time></trkpt><trkpt lat="43.4335633" lon="10.6139433"><ele>482.99999999999994</ele><time>2026-04-04T10:00:42.013Z</time></trkpt><trkpt lat="43.4334917" lon="10.6140833"><ele>483.0</ele><time>2026-04-04T10:00:43.011Z</time></trkpt><trkpt lat="43.43344" lon="10.6142367"><ele>483.0</ele><time>2026-04-04T10:00:44.013Z</time></trkpt><trkpt lat="43.4333883" lon="10.6143783"><ele>480.0</ele><time>2026-04-04T10:00:45.013Z</time></trkpt><trkpt lat="43.4333133" lon="10.614505"><ele>477.0</ele><time>2026-04-04T10:00:46.011Z</time></trkpt><trkpt lat="43.43324" lon="10.6145917"><ele>474.0</ele><time>2026-04-04T10:00:47.011Z</time></trkpt><trkpt lat="43.4331483" lon="10.6146267"><ele>471.0</ele><time>2026-04-04T10:00:48.011Z</time></trkpt><trkpt lat="43.4330367" lon="10.6145033"><ele>471.66666666666663</ele><time>2026-04-04T10:00:49.013Z</time></trkpt><trkpt lat="43.43294" lon="10.614355"><ele>472.3333333333333</ele><time>2026-04-04T10:00:50.012Z</time></trkpt><trkpt lat="43.4328517" lon="10.6141783"><ele>473.0</ele><time>2026-04-04T10:00:51.012Z</time></trkpt><trkpt lat="43.4327883" lon="10.6139833"><ele>473.0</ele><time>2026-04-04T10:00:52.012Z</time></trkpt><trkpt lat="43.4327533" lon="10.6137717"><ele>473.0</ele><time>2026-04-04T10:00:53.012Z</time></trkpt><trkpt lat="43.432735" lon="10.6135633"><ele>473.0</ele><time>2026-04-04T10:00:54.012Z</time></trkpt><trkpt lat="43.4327183" lon="10.61336"><ele>475.66666666666663</ele><time>2026-04-04T10:00:55.012Z</time></trkpt><trkpt lat="43.4326767" lon="10.6131467"><ele>478.33333333333337</ele><time>2026-04-04T10:00:56.013Z</time></trkpt><trkpt lat="43.4326067" lon="10.6129333"><ele>481.0</ele><time>2026-04-04T10:00:57.012Z</time></trkpt><trkpt lat="43.4325117" lon="10.6127233"><ele>484.33333333333337</ele><time>2026-04-04T10:00:58.011Z</time></trkpt><trkpt lat="43.43241" lon="10.6125117"><ele>487.66666666666663</ele><time>2026-04-04T10:00:59.012Z</time></trkpt><trkpt lat="43.43232" lon="10.612315"><ele>491.0</ele><time>2026-04-04T10:01:00.012Z</time></trkpt><trkpt lat="43.4322433" lon="10.61212"><ele>493.3333333333333</ele><time>2026-04-04T10:01:01.011Z</time></trkpt><trkpt lat="43.4321883" lon="10.611905"><ele>495.66666666666663</ele><time>2026-04-04T10:01:02.011Z</time></trkpt><trkpt lat="43.4321483" lon="10.6116883"><ele>498.0</ele><time>2026-04-04T10:01:03.012Z</time></trkpt><trkpt lat="43.4321183" lon="10.6114667"><ele>493.0</ele><time>2026-04-04T10:01:04.011Z</time></trkpt><trkpt lat="43.4320983" lon="10.6112417"><ele>488.0</ele><time>2026-04-04T10:01:05.013Z</time></trkpt><trkpt lat="43.4320933" lon="10.6110167"><ele>483.0</ele><time>2026-04-04T10:01:06.012Z</time></trkpt><trkpt lat="43.432095" lon="10.6108017"><ele>483.0</ele><time>2026-04-04T10:01:07.014Z</time></trkpt><trkpt lat="43.4320967" lon="10.6105983"><ele>483.0</ele><time>2026-04-04T10:01:08.011Z</time></trkpt><trkpt lat="43.4320767" lon="10.6104067"><ele>483.0</ele><time>2026-04-04T10:01:09.011Z</time></trkpt><trkpt lat="43.43203" lon="10.610245"><ele>483.0</ele><time>2026-04-04T10:01:10.012Z</time></trkpt><trkpt lat="43.4319567" lon="10.610095"><ele>485.0</ele><time>2026-04-04T10:01:11.013Z</time></trkpt><trkpt lat="43.4318933" lon="10.6099467"><ele>487.0</ele><time>2026-04-04T10:01:12.013Z</time></trkpt><trkpt lat="43.431855" lon="10.6097833"><ele>489.0</ele><time>2026-04-04T10:01:13.013Z</time></trkpt><trkpt lat="43.4318433" lon="10.6095983"><ele>491.0</ele><time>2026-04-04T10:01:14.012Z</time></trkpt><trkpt lat="43.4318367" lon="10.6094033"><ele>493.25</ele><time>2026-04-04T10:01:15.013Z</time></trkpt><trkpt lat="43.4318383" lon="10.6092167"><ele>495.5</ele><time>2026-04-04T10:01:16.013Z</time></trkpt><trkpt lat="43.431815" lon="10.60905"><ele>497.75</ele><time>2026-04-04T10:01:17.013Z</time></trkpt><trkpt lat="43.4317767" lon="10.6089083"><ele>500.0</ele><time>2026-04-04T10:01:18.013Z</time></trkpt><trkpt lat="43.4316833" lon="10.6088267"><ele>500.0</ele><time>2026-04-04T10:01:19.014Z</time></trkpt><trkpt lat="43.4315633" lon="10.60878"><ele>500.0</ele><time>2026-04-04T10:01:20.014Z</time></trkpt><trkpt lat="43.4314133" lon="10.6087567"><ele>500.0</ele><time>2026-04-04T10:01:21.014Z</time></trkpt><trkpt lat="43.43124" lon="10.6087417"><ele>500.0</ele><time>2026-04-04T10:01:22.012Z</time></trkpt><trkpt lat="43.4310717" lon="10.6087083"><ele>499.66666666666663</ele><time>2026-04-04T10:01:23.013Z</time></trkpt><trkpt lat="43.4309017" lon="10.6086833"><ele>499.33333333333337</ele><time>2026-04-04T10:01:24.014Z</time></trkpt><trkpt lat="43.4307317" lon="10.608645"><ele>499.0</ele><time>2026-04-04T10:01:25.014Z</time></trkpt><trkpt lat="43.430565" lon="10.6086017"><ele>499.33333333333337</ele><time>2026-04-04T10:01:26.013Z</time></trkpt><trkpt lat="43.4304033" lon="10.608555"><ele>499.66666666666663</ele><time>2026-04-04T10:01:27.013Z</time></trkpt><trkpt lat="43.43025" lon="10.6085283"><ele>500.0</ele><time>2026-04-04T10:01:28.013Z</time></trkpt><trkpt lat="43.4301117" lon="10.6085083"><ele>500.0</ele><time>2026-04-04T10:01:29.013Z</time></trkpt><trkpt lat="43.4299667" lon="10.608465"><ele>500.0</ele><time>2026-04-04T10:01:30.012Z</time></trkpt><trkpt lat="43.4298167" lon="10.6084"><ele>500.0</ele><time>2026-04-04T10:01:31.013Z</time></trkpt><trkpt lat="43.429675" lon="10.6083"><ele>500.0</ele><time>2026-04-04T10:01:32.014Z</time></trkpt><trkpt lat="43.4295483" lon="10.60817"><ele>500.0</ele><time>2026-04-04T10:01:33.014Z</time></trkpt><trkpt lat="43.4294317" lon="10.6080433"><ele>500.0</ele><time>2026-04-04T10:01:34.013Z</time></trkpt><trkpt lat="43.429325" lon="10.6079233"><ele>500.0</ele><time>2026-04-04T10:01:35.012Z</time></trkpt><trkpt lat="43.429205" lon="10.6078183"><ele>500.0</ele><time>2026-04-04T10:01:36.013Z</time></trkpt><trkpt lat="43.429065" lon="10.607705"><ele>500.0</ele><time>2026-04-04T10:01:37.011Z</time></trkpt><trkpt lat="43.4289233" lon="10.6076133"><ele>500.0</ele><time>2026-04-04T10:01:38.011Z</time></trkpt><trkpt lat="43.4287667" lon="10.607515"><ele>503.0</ele><time>2026-04-04T10:01:39.013Z</time></trkpt><trkpt lat="43.42859" lon="10.6074017"><ele>506.0</ele><time>2026-04-04T10:01:40.012Z</time></trkpt><trkpt lat="43.4284383" lon="10.6072667"><ele>509.0</ele><time>2026-04-04T10:01:41.012Z</time></trkpt><trkpt lat="43.4282833" lon="10.6071433"><ele>509.0</ele><time>2026-04-04T10:01:42.012Z</time></trkpt><trkpt lat="43.4281267" lon="10.6070333"><ele>509.0</ele><time>2026-04-04T10:01:43.013Z</time></trkpt><trkpt lat="43.4279733" lon="10.6069517"><ele>509.0</ele><time>2026-04-04T10:01:44.012Z</time></trkpt><trkpt lat="43.42782" lon="10.6068783"><ele>506.0</ele><time>2026-04-04T10:01:45.013Z</time></trkpt><trkpt lat="43.4276833" lon="10.6068"><ele>503.0</ele><time>2026-04-04T10:01:46.012Z</time></trkpt><trkpt lat="43.4275517" lon="10.6067167"><ele>500.0</ele><time>2026-04-04T10:01:47.013Z</time></trkpt><trkpt lat="43.4274133" lon="10.60665"><ele>497.0</ele><time>2026-04-04T10:01:48.013Z</time></trkpt><trkpt lat="43.4272667" lon="10.6066167"><ele>496.66666666666663</ele><time>2026-04-04T10:01:49.012Z</time></trkpt><trkpt lat="43.42711" lon="10.606605"><ele>496.33333333333337</ele><time>2026-04-04T10:01:50.013Z</time></trkpt><trkpt lat="43.4269483" lon="10.6066133"><ele>496.0</ele><time>2026-04-04T10:01:51.013Z</time></trkpt><trkpt lat="43.42678" lon="10.6066317"><ele>496.0</ele><time>2026-04-04T10:01:52.013Z</time></trkpt><trkpt lat="43.42661" lon="10.6066683"><ele>496.0</ele><time>2026-04-04T10:01:53.012Z</time></trkpt><trkpt lat="43.4264417" lon="10.6067133"><ele>496.0</ele><time>2026-04-04T10:01:54.013Z</time></trkpt><trkpt lat="43.4262683" lon="10.6067383"><ele>495.25</ele><time>2026-04-04T10:01:55.013Z</time></trkpt><trkpt lat="43.4261133" lon="10.6067483"><ele>494.5</ele><time>2026-04-04T10:01:56.012Z</time></trkpt><trkpt lat="43.4259717" lon="10.6067417"><ele>493.75</ele><time>2026-04-04T10:01:57.013Z</time></trkpt><trkpt lat="43.4258417" lon="10.6067417"><ele>493.0</ele><time>2026-04-04T10:01:58.013Z</time></trkpt><trkpt lat="43.42572" lon="10.606785"><ele>493.0</ele><time>2026-04-04T10:01:59.012Z</time></trkpt><trkpt lat="43.4256133" lon="10.6068633"><ele>493.0</ele><time>2026-04-04T10:02:00.012Z</time></trkpt><trkpt lat="43.4255117" lon="10.606955"><ele>493.0</ele><time>2026-04-04T10:02:01.013Z</time></trkpt><trkpt lat="43.4253917" lon="10.607045"><ele>493.0</ele><time>2026-04-04T10:02:02.013Z</time></trkpt><trkpt lat="43.4252533" lon="10.6071183"><ele>495.33333333333337</ele><time>2026-04-04T10:02:03.012Z</time></trkpt><trkpt lat="43.4250983" lon="10.6071667"><ele>497.66666666666663</ele><time>2026-04-04T10:02:04.012Z</time></trkpt><trkpt lat="43.4249333" lon="10.6072033"><ele>500.0</ele><time>2026-04-04T10:02:05.013Z</time></trkpt><trkpt lat="43.4247667" lon="10.6072333"><ele>498.66666666666663</ele><time>2026-04-04T10:02:06.012Z</time></trkpt><trkpt lat="43.4246033" lon="10.6072717"><ele>497.33333333333337</ele><time>2026-04-04T10:02:07.013Z</time></trkpt><trkpt lat="43.4244533" lon="10.6073217"><ele>496.0</ele><time>2026-04-04T10:02:08.012Z</time></trkpt><trkpt lat="43.4243167" lon="10.6073633"><ele>496.0</ele><time>2026-04-04T10:02:09.012Z</time></trkpt><trkpt lat="43.4241733" lon="10.607385"><ele>496.0</ele><time>2026-04-04T10:02:10.011Z</time></trkpt><trkpt lat="43.424025" lon="10.6073667"><ele>496.0</ele><time>2026-04-04T10:02:11.013Z</time></trkpt><trkpt lat="43.4238767" lon="10.6073067"><ele>496.0</ele><time>2026-04-04T10:02:12.013Z</time></trkpt><trkpt lat="43.4237167" lon="10.607235"><ele>496.33333333333337</ele><time>2026-04-04T10:02:13.012Z</time></trkpt><trkpt lat="43.4235567" lon="10.60712"><ele>496.66666666666663</ele><time>2026-04-04T10:02:14.012Z</time></trkpt><trkpt lat="43.423395" lon="10.607"><ele>497.0</ele><time>2026-04-04T10:02:15.014Z</time></trkpt><trkpt lat="43.4232283" lon="10.6068867"><ele>497.0</ele><time>2026-04-04T10:02:16.013Z</time></trkpt><trkpt lat="43.4230633" lon="10.60676"><ele>497.0</ele><time>2026-04-04T10:02:17.014Z</time></trkpt><trkpt lat="43.422895" lon="10.6066333"><ele>497.0</ele><time>2026-04-04T10:02:18.013Z</time></trkpt><trkpt lat="43.4227233" lon="10.606495"><ele>496.3333333333333</ele><time>2026-04-04T10:02:19.012Z</time></trkpt><trkpt lat="43.4225517" lon="10.606365"><ele>495.66666666666663</ele><time>2026-04-04T10:02:20.015Z</time></trkpt><trkpt lat="43.42238" lon="10.606235"><ele>495.0</ele><time>2026-04-04T10:02:21.013Z</time></trkpt><trkpt lat="43.422215" lon="10.6061133"><ele>498.0</ele><time>2026-04-04T10:02:22.012Z</time></trkpt><trkpt lat="43.422055" lon="10.6059933"><ele>501.0</ele><time>2026-04-04T10:02:23.014Z</time></trkpt><trkpt lat="43.4218933" lon="10.60588"><ele>504.0</ele><time>2026-04-04T10:02:24.013Z</time></trkpt><trkpt lat="43.4217267" lon="10.6057817"><ele>504.0</ele><time>2026-04-04T10:02:25.013Z</time></trkpt><trkpt lat="43.421555" lon="10.6056983"><ele>504.0</ele><time>2026-04-04T10:02:26.013Z</time></trkpt><trkpt lat="43.4213867" lon="10.60563"><ele>504.0</ele><time>2026-04-04T10:02:27.012Z</time></trkpt><trkpt lat="43.4212233" lon="10.605555"><ele>505.33333333333337</ele><time>2026-04-04T10:02:28.014Z</time></trkpt><trkpt lat="43.4210667" lon="10.6054583"><ele>506.6666666666667</ele><time>2026-04-04T10:02:29.013Z</time></trkpt><trkpt lat="43.4209267" lon="10.6053183"><ele>508.0</ele><time>2026-04-04T10:02:30.013Z</time></trkpt><trkpt lat="43.420805" lon="10.60515"><ele>508.33333333333337</ele><time>2026-04-04T10:02:31.013Z</time></trkpt><trkpt lat="43.4206983" lon="10.6049583"><ele>508.66666666666663</ele><time>2026-04-04T10:02:32.012Z</time></trkpt><trkpt lat="43.42061" lon="10.6047367"><ele>509.0</ele><time>2026-04-04T10:02:33.012Z</time></trkpt><trkpt lat="43.420545" lon="10.6045017"><ele>508.5</ele><time>2026-04-04T10:02:34.013Z</time></trkpt><trkpt lat="43.420505" lon="10.604275"><ele>508.0</ele><time>2026-04-04T10:02:35.013Z</time></trkpt><trkpt lat="43.4204717" lon="10.6040817"><ele>507.5</ele><time>2026-04-04T10:02:36.012Z</time></trkpt><trkpt lat="43.4204283" lon="10.6039083"><ele>507.0</ele><time>2026-04-04T10:02:37.013Z</time></trkpt><trkpt lat="43.4203483" lon="10.60377"><ele>509.5</ele><time>2026-04-04T10:02:38.013Z</time></trkpt><trkpt lat="43.42024" lon="10.6036567"><ele>512.0</ele><time>2026-04-04T10:02:39.013Z</time></trkpt><trkpt lat="43.420115" lon="10.6035417"><ele>514.5</ele><time>2026-04-04T10:02:40.013Z</time></trkpt><trkpt lat="43.420005" lon="10.6033967"><ele>517.0</ele><time>2026-04-04T10:02:41.013Z</time></trkpt><trkpt lat="43.4199183" lon="10.603215"><ele>517.0</ele><time>2026-04-04T10:02:42.012Z</time></trkpt><trkpt lat="43.41987" lon="10.6029983"><ele>517.0</ele><time>2026-04-04T10:02:43.013Z</time></trkpt><trkpt lat="43.4198333" lon="10.602775"><ele>517.0</ele><time>2026-04-04T10:02:44.014Z</time></trkpt><trkpt lat="43.4198167" lon="10.6025583"><ele>516.25</ele><time>2026-04-04T10:02:45.013Z</time></trkpt><trkpt lat="43.41983" lon="10.6023617"><ele>515.5</ele><time>2026-04-04T10:02:46.012Z</time></trkpt><trkpt lat="43.4198817" lon="10.602195"><ele>514.75</ele><time>2026-04-04T10:02:47.013Z</time></trkpt><trkpt lat="43.41997" lon="10.60206"><ele>514.0</ele><time>2026-04-04T10:02:48.011Z</time></trkpt><trkpt lat="43.4200767" lon="10.6019317"><ele>514.0</ele><time>2026-04-04T10:02:49.012Z</time></trkpt><trkpt lat="43.4201883" lon="10.6017883"><ele>514.0</ele><time>2026-04-04T10:02:50.013Z</time></trkpt><trkpt lat="43.4202933" lon="10.601635"><ele>514.0</ele><time>2026-04-04T10:02:51.013Z</time></trkpt><trkpt lat="43.42038" lon="10.601465"><ele>514.0</ele><time>2026-04-04T10:02:52.013Z</time></trkpt><trkpt lat="43.4204567" lon="10.601285"><ele>514.0</ele><time>2026-04-04T10:02:53.013Z</time></trkpt><trkpt lat="43.4205017" lon="10.60109"><ele>514.0</ele><time>2026-04-04T10:02:54.013Z</time></trkpt><trkpt lat="43.4205333" lon="10.60088"><ele>508.0</ele><time>2026-04-04T10:02:55.012Z</time></trkpt><trkpt lat="43.4205483" lon="10.6006667"><ele>502.0</ele><time>2026-04-04T10:02:56.013Z</time></trkpt><trkpt lat="43.4205367" lon="10.60045"><ele>496.0</ele><time>2026-04-04T10:02:57.011Z</time></trkpt><trkpt lat="43.4204883" lon="10.60023"><ele>501.33333333333337</ele><time>2026-04-04T10:02:58.012Z</time></trkpt><trkpt lat="43.4204233" lon="10.60001"><ele>506.66666666666663</ele><time>2026-04-04T10:02:59.011Z</time></trkpt><trkpt lat="43.42037" lon="10.59977"><ele>512.0</ele><time>2026-04-04T10:03:00.013Z</time></trkpt><trkpt lat="43.4203383" lon="10.59953"><ele>510.3333333333333</ele><time>2026-04-04T10:03:01.013Z</time></trkpt><trkpt lat="43.42032" lon="10.5992967"><ele>508.66666666666663</ele><time>2026-04-04T10:03:02.013Z</time></trkpt><trkpt lat="43.42029" lon="10.5990767"><ele>507.0</ele><time>2026-04-04T10:03:03.014Z</time></trkpt><trkpt lat="43.4202417" lon="10.598865"><ele>507.0</ele><time>2026-04-04T10:03:04.013Z</time></trkpt><trkpt lat="43.42018" lon="10.5986783"><ele>507.0</ele><time>2026-04-04T10:03:05.013Z</time></trkpt><trkpt lat="43.420115" lon="10.59851"><ele>507.0</ele><time>2026-04-04T10:03:06.013Z</time></trkpt><trkpt lat="43.420075" lon="10.59834"><ele>507.0</ele><time>2026-04-04T10:03:07.013Z</time></trkpt><trkpt lat="43.42007" lon="10.598155"><ele>505.66666666666663</ele><time>2026-04-04T10:03:08.013Z</time></trkpt><trkpt lat="43.4200983" lon="10.5979567"><ele>504.3333333333333</ele><time>2026-04-04T10:03:09.013Z</time></trkpt><trkpt lat="43.4201367" lon="10.5977483"><ele>503.0</ele><time>2026-04-04T10:03:10.013Z</time></trkpt><trkpt lat="43.4201867" lon="10.59751"><ele>502.0</ele><time>2026-04-04T10:03:11.014Z</time></trkpt><trkpt lat="43.4202333" lon="10.5972617"><ele>501.0</ele><time>2026-04-04T10:03:12.014Z</time></trkpt><trkpt lat="43.4202783" lon="10.597015"><ele>500.0</ele><time>2026-04-04T10:03:13.013Z</time></trkpt><trkpt lat="43.4203267" lon="10.5967783"><ele>498.3333333333333</ele><time>2026-04-04T10:03:14.013Z</time></trkpt><trkpt lat="43.420375" lon="10.5965583"><ele>496.66666666666663</ele><time>2026-04-04T10:03:15.013Z</time></trkpt><trkpt lat="43.4204233" lon="10.5963517"><ele>495.0</ele><time>2026-04-04T10:03:16.013Z</time></trkpt><trkpt lat="43.42046" lon="10.5961683"><ele>493.0</ele><time>2026-04-04T10:03:17.013Z</time></trkpt><trkpt lat="43.420475" lon="10.5960067"><ele>491.0</ele><time>2026-04-04T10:03:18.011Z</time></trkpt><trkpt lat="43.4204683" lon="10.5958483"><ele>489.0</ele><time>2026-04-04T10:03:19.013Z</time></trkpt><trkpt lat="43.4204217" lon="10.5956933"><ele>487.0</ele><time>2026-04-04T10:03:20.012Z</time></trkpt><trkpt lat="43.4203533" lon="10.5955533"><ele>487.0</ele><time>2026-04-04T10:03:21.013Z</time></trkpt><trkpt lat="43.4202817" lon="10.595435"><ele>487.00000000000006</ele><time>2026-04-04T10:03:22.013Z</time></trkpt><trkpt lat="43.4202333" lon="10.59531"><ele>487.00000000000006</ele><time>2026-04-04T10:03:23.012Z</time></trkpt><trkpt lat="43.4202167" lon="10.5951683"><ele>487.0</ele><time>2026-04-04T10:03:24.014Z</time></trkpt><trkpt lat="43.4202417" lon="10.5950167"><ele>487.0</ele><time>2026-04-04T10:03:25.013Z</time></trkpt><trkpt lat="43.4203017" lon="10.5948667"><ele>486.33333333333337</ele><time>2026-04-04T10:03:26.013Z</time></trkpt><trkpt lat="43.4204117" lon="10.59474"><ele>485.66666666666663</ele><time>2026-04-04T10:03:27.013Z</time></trkpt><trkpt lat="43.4205433" lon="10.5946467"><ele>485.0</ele><time>2026-04-04T10:03:28.013Z</time></trkpt><trkpt lat="43.4206933" lon="10.5945733"><ele>483.3333333333333</ele><time>2026-04-04T10:03:29.013Z</time></trkpt><trkpt lat="43.420845" lon="10.59449"><ele>481.66666666666663</ele><time>2026-04-04T10:03:30.013Z</time></trkpt><trkpt lat="43.4209917" lon="10.5944133"><ele>480.0</ele><time>2026-04-04T10:03:31.013Z</time></trkpt><trkpt lat="43.4211267" lon="10.5943283"><ele>480.0</ele><time>2026-04-04T10:03:32.013Z</time></trkpt><trkpt lat="43.42123" lon="10.594235"><ele>480.0</ele><time>2026-04-04T10:03:33.013Z</time></trkpt><trkpt lat="43.42132" lon="10.594115"><ele>480.0</ele><time>2026-04-04T10:03:34.013Z</time></trkpt><trkpt lat="43.4213733" lon="10.593955"><ele>480.0</ele><time>2026-04-04T10:03:35.013Z</time></trkpt><trkpt lat="43.4213917" lon="10.5937767"><ele>478.5</ele><time>2026-04-04T10:03:36.013Z</time></trkpt><trkpt lat="43.4213967" lon="10.5935917"><ele>477.0</ele><time>2026-04-04T10:03:37.014Z</time></trkpt><trkpt lat="43.4213817" lon="10.5934217"><ele>475.5</ele><time>2026-04-04T10:03:38.013Z</time></trkpt><trkpt lat="43.42136" lon="10.5932833"><ele>474.0</ele><time>2026-04-04T10:03:39.013Z</time></trkpt><trkpt lat="43.4213033" lon="10.5931517"><ele>474.0</ele><time>2026-04-04T10:03:40.013Z</time></trkpt><trkpt lat="43.4212083" lon="10.593045"><ele>474.0</ele><time>2026-04-04T10:03:41.014Z</time></trkpt><trkpt lat="43.4210867" lon="10.5929483"><ele>474.0</ele><time>2026-04-04T10:03:42.013Z</time></trkpt><trkpt lat="43.42095" lon="10.592865"><ele>474.0</ele><time>2026-04-04T10:03:43.013Z</time></trkpt><trkpt lat="43.4208133" lon="10.5927867"><ele>473.0</ele><time>2026-04-04T10:03:44.013Z</time></trkpt><trkpt lat="43.4206733" lon="10.5927167"><ele>472.0</ele><time>2026-04-04T10:03:45.013Z</time></trkpt><trkpt lat="43.4205367" lon="10.59265"><ele>471.0</ele><time>2026-04-04T10:03:46.013Z</time></trkpt><trkpt lat="43.4203967" lon="10.5925933"><ele>470.0</ele><time>2026-04-04T10:03:47.013Z</time></trkpt><trkpt lat="43.4202567" lon="10.59254"><ele>470.0</ele><time>2026-04-04T10:03:48.013Z</time></trkpt><trkpt lat="43.42013" lon="10.5924817"><ele>470.0</ele><time>2026-04-04T10:03:49.013Z</time></trkpt><trkpt lat="43.4200067" lon="10.5923833"><ele>470.0</ele><time>2026-04-04T10:03:50.013Z</time></trkpt><trkpt lat="43.41989" lon="10.5922583"><ele>470.0</ele><time>2026-04-04T10:03:51.013Z</time></trkpt><trkpt lat="43.419795" lon="10.5920983"><ele>467.0</ele><time>2026-04-04T10:03:52.013Z</time></trkpt><trkpt lat="43.41973" lon="10.5919"><ele>464.0</ele><time>2026-04-04T10:03:53.013Z</time></trkpt><trkpt lat="43.4196883" lon="10.5916767"><ele>461.0</ele><time>2026-04-04T10:03:54.013Z</time></trkpt><trkpt lat="43.41966" lon="10.5914517"><ele>461.75</ele><time>2026-04-04T10:03:55.013Z</time></trkpt><trkpt lat="43.4196383" lon="10.5912333"><ele>462.5</ele><time>2026-04-04T10:03:56.013Z</time></trkpt><trkpt lat="43.4196083" lon="10.5910367"><ele>463.25</ele><time>2026-04-04T10:03:57.011Z</time></trkpt><trkpt lat="43.41957" lon="10.5908633"><ele>464.0</ele><time>2026-04-04T10:03:58.014Z</time></trkpt><trkpt lat="43.4195183" lon="10.59072"><ele>464.0</ele><time>2026-04-04T10:03:59.011Z</time></trkpt><trkpt lat="43.41944" lon="10.5906033"><ele>464.0</ele><time>2026-04-04T10:04:00.013Z</time></trkpt><trkpt lat="43.419325" lon="10.5905217"><ele>464.0</ele><time>2026-04-04T10:04:01.013Z</time></trkpt><trkpt lat="43.41921" lon="10.5904317"><ele>464.0</ele><time>2026-04-04T10:04:02.013Z</time></trkpt><trkpt lat="43.41912" lon="10.5903017"><ele>462.5</ele><time>2026-04-04T10:04:03.014Z</time></trkpt><trkpt lat="43.4190567" lon="10.59014"><ele>461.0</ele><time>2026-04-04T10:04:04.013Z</time></trkpt><trkpt lat="43.419005" lon="10.589975"><ele>459.5</ele><time>2026-04-04T10:04:05.011Z</time></trkpt><trkpt lat="43.4190167" lon="10.5898133"><ele>458.0</ele><time>2026-04-04T10:04:06.014Z</time></trkpt><trkpt lat="43.41906" lon="10.589665"><ele>458.0</ele><time>2026-04-04T10:04:07.011Z</time></trkpt><trkpt lat="43.4191317" lon="10.5895383"><ele>458.0</ele><time>2026-04-04T10:04:08.013Z</time></trkpt><trkpt lat="43.419225" lon="10.5894333"><ele>458.0</ele><time>2026-04-04T10:04:09.013Z</time></trkpt><trkpt lat="43.4193283" lon="10.589335"><ele>458.0</ele><time>2026-04-04T10:04:10.011Z</time></trkpt><trkpt lat="43.419425" lon="10.5892317"><ele>458.5</ele><time>2026-04-04T10:04:11.01Z</time></trkpt><trkpt lat="43.4195217" lon="10.5891033"><ele>459.0</ele><time>2026-04-04T10:04:12.014Z</time></trkpt><trkpt lat="43.4195833" lon="10.5889367"><ele>459.5</ele><time>2026-04-04T10:04:13.011Z</time></trkpt><trkpt lat="43.4196167" lon="10.58873"><ele>460.0</ele><time>2026-04-04T10:04:14.013Z</time></trkpt><trkpt lat="43.4196683" lon="10.5885333"><ele>455.0</ele><time>2026-04-04T10:04:15.013Z</time></trkpt><trkpt lat="43.41973" lon="10.5883483"><ele>450.0</ele><time>2026-04-04T10:04:16.013Z</time></trkpt><trkpt lat="43.4198017" lon="10.58818"><ele>445.0</ele><time>2026-04-04T10:04:17.013Z</time></trkpt><trkpt lat="43.419875" lon="10.5880283"><ele>440.0</ele><time>2026-04-04T10:04:18.013Z</time></trkpt><trkpt lat="43.4199283" lon="10.5878533"><ele>440.75</ele><time>2026-04-04T10:04:19.014Z</time></trkpt><trkpt lat="43.4199517" lon="10.5876717"><ele>441.5</ele><time>2026-04-04T10:04:20.012Z</time></trkpt><trkpt lat="43.419965" lon="10.5874883"><ele>442.25</ele><time>2026-04-04T10:04:21.011Z</time></trkpt><trkpt lat="43.4199967" lon="10.58732"><ele>443.0</ele><time>2026-04-04T10:04:22.011Z</time></trkpt><trkpt lat="43.4200617" lon="10.5871617"><ele>443.0</ele><time>2026-04-04T10:04:23.014Z</time></trkpt><trkpt lat="43.420155" lon="10.587025"><ele>443.0</ele><time>2026-04-04T10:04:24.013Z</time></trkpt><trkpt lat="43.4202633" lon="10.586905"><ele>443.0</ele><time>2026-04-04T10:04:25.013Z</time></trkpt><trkpt lat="43.4203867" lon="10.586805"><ele>443.0</ele><time>2026-04-04T10:04:26.012Z</time></trkpt><trkpt lat="43.4205183" lon="10.5867117"><ele>439.5</ele><time>2026-04-04T10:04:27.013Z</time></trkpt><trkpt lat="43.42065" lon="10.5866233"><ele>436.0</ele><time>2026-04-04T10:04:28.014Z</time></trkpt><trkpt lat="43.4207683" lon="10.5865217"><ele>432.5</ele><time>2026-04-04T10:04:29.012Z</time></trkpt><trkpt lat="43.42087" lon="10.5864117"><ele>429.0</ele><time>2026-04-04T10:04:30.013Z</time></trkpt><trkpt lat="43.4209483" lon="10.5862867"><ele>429.0</ele><time>2026-04-04T10:04:31.014Z</time></trkpt><trkpt lat="43.4209867" lon="10.5861517"><ele>429.0</ele><time>2026-04-04T10:04:32.014Z</time></trkpt><trkpt lat="43.4209883" lon="10.586005"><ele>429.0</ele><time>2026-04-04T10:04:33.013Z</time></trkpt><trkpt lat="43.4209667" lon="10.5858617"><ele>429.0</ele><time>2026-04-04T10:04:34.013Z</time></trkpt><trkpt lat="43.42092" lon="10.58572"><ele>429.0</ele><time>2026-04-04T10:04:35.013Z</time></trkpt><trkpt lat="43.420835" lon="10.5855883"><ele>429.0</ele><time>2026-04-04T10:04:36.012Z</time></trkpt><trkpt lat="43.420735" lon="10.5854317"><ele>429.0</ele><time>2026-04-04T10:04:37.012Z</time></trkpt><trkpt lat="43.4206233" lon="10.5852833"><ele>429.0</ele><time>2026-04-04T10:04:38.011Z</time></trkpt><trkpt lat="43.4205167" lon="10.5851417"><ele>431.0</ele><time>2026-04-04T10:04:39.011Z</time></trkpt><trkpt lat="43.420425" lon="10.585025"><ele>433.0</ele><time>2026-04-04T10:04:40.014Z</time></trkpt><trkpt lat="43.4203567" lon="10.584905"><ele>435.0</ele><time>2026-04-04T10:04:41.012Z</time></trkpt><trkpt lat="43.4203083" lon="10.5847917"><ele>437.0</ele><time>2026-04-04T10:04:42.012Z</time></trkpt><trkpt lat="43.4203083" lon="10.5846567"><ele>439.0</ele><time>2026-04-04T10:04:43.013Z</time></trkpt><trkpt lat="43.420345" lon="10.5845083"><ele>439.0</ele><time>2026-04-04T10:04:44.012Z</time></trkpt><trkpt lat="43.4204067" lon="10.5843667"><ele>439.0</ele><time>2026-04-04T10:04:45.014Z</time></trkpt><trkpt lat="43.42048" lon="10.584235"><ele>439.0</ele><time>2026-04-04T10:04:46.012Z</time></trkpt><trkpt lat="43.4205583" lon="10.5841167"><ele>439.0</ele><time>2026-04-04T10:04:47.012Z</time></trkpt><trkpt lat="43.4206233" lon="10.5839833"><ele>432.75</ele><time>2026-04-04T10:04:48.012Z</time></trkpt><trkpt lat="43.420675" lon="10.5838383"><ele>426.5</ele><time>2026-04-04T10:04:49.012Z</time></trkpt><trkpt lat="43.420675" lon="10.5836683"><ele>420.25</ele><time>2026-04-04T10:04:50.011Z</time></trkpt><trkpt lat="43.4206617" lon="10.5834817"><ele>414.0</ele><time>2026-04-04T10:04:51.012Z</time></trkpt><trkpt lat="43.4206633" lon="10.583295"><ele>414.25</ele><time>2026-04-04T10:04:52.012Z</time></trkpt><trkpt lat="43.42071" lon="10.583105"><ele>414.5</ele><time>2026-04-04T10:04:53.011Z</time></trkpt><trkpt lat="43.42078" lon="10.58294"><ele>414.75</ele><time>2026-04-04T10:04:54.012Z</time></trkpt><trkpt lat="43.4208667" lon="10.5827833"><ele>415.0</ele><time>2026-04-04T10:04:55.011Z</time></trkpt><trkpt lat="43.4209567" lon="10.5826117"><ele>415.0</ele><time>2026-04-04T10:04:56.012Z</time></trkpt><trkpt lat="43.421045" lon="10.5824317"><ele>415.0</ele><time>2026-04-04T10:04:57.013Z</time></trkpt><trkpt lat="43.4211483" lon="10.582265"><ele>415.0</ele><time>2026-04-04T10:04:58.011Z</time></trkpt><trkpt lat="43.4212617" lon="10.58211"><ele>410.0</ele><time>2026-04-04T10:04:59.011Z</time></trkpt><trkpt lat="43.4213783" lon="10.5819483"><ele>405.0</ele><time>2026-04-04T10:05:00.012Z</time></trkpt><trkpt lat="43.4215033" lon="10.581795"><ele>400.0</ele><time>2026-04-04T10:05:01.013Z</time></trkpt><trkpt lat="43.421625" lon="10.5816483"><ele>400.0</ele><time>2026-04-04T10:05:02.011Z</time></trkpt><trkpt lat="43.4217467" lon="10.58151"><ele>400.0</ele><time>2026-04-04T10:05:03.013Z</time></trkpt><trkpt lat="43.42186" lon="10.5813817"><ele>400.0</ele><time>2026-04-04T10:05:04.013Z</time></trkpt><trkpt lat="43.42196" lon="10.5812517"><ele>400.0</ele><time>2026-04-04T10:05:05.012Z</time></trkpt><trkpt lat="43.42204" lon="10.5810967"><ele>400.5</ele><time>2026-04-04T10:05:06.012Z</time></trkpt><trkpt lat="43.4220967" lon="10.58092"><ele>401.0</ele><time>2026-04-04T10:05:07.012Z</time></trkpt><trkpt lat="43.4221267" lon="10.5807333"><ele>401.5</ele><time>2026-04-04T10:05:08.013Z</time></trkpt><trkpt lat="43.4221167" lon="10.5805467"><ele>402.0</ele><time>2026-04-04T10:05:09.012Z</time></trkpt><trkpt lat="43.42209" lon="10.5803667"><ele>400.25</ele><time>2026-04-04T10:05:10.012Z</time></trkpt><trkpt lat="43.422035" lon="10.5801917"><ele>398.5</ele><time>2026-04-04T10:05:11.012Z</time></trkpt><trkpt lat="43.4219533" lon="10.5800283"><ele>396.75</ele><time>2026-04-04T10:05:12.011Z</time></trkpt><trkpt lat="43.4218717" lon="10.5798733"><ele>395.0</ele><time>2026-04-04T10:05:13.012Z</time></trkpt><trkpt lat="43.42179" lon="10.5797283"><ele>395.0</ele><time>2026-04-04T10:05:14.012Z</time></trkpt><trkpt lat="43.4216817" lon="10.5796117"><ele>395.0</ele><time>2026-04-04T10:05:15.011Z</time></trkpt><trkpt lat="43.4215617" lon="10.579505"><ele>395.0</ele><time>2026-04-04T10:05:16.011Z</time></trkpt><trkpt lat="43.4214433" lon="10.5793833"><ele>395.0</ele><time>2026-04-04T10:05:17.013Z</time></trkpt><trkpt lat="43.4213283" lon="10.57928"><ele>393.25</ele><time>2026-04-04T10:05:18.012Z</time></trkpt><trkpt lat="43.4212233" lon="10.5791867"><ele>391.5</ele><time>2026-04-04T10:05:19.012Z</time></trkpt><trkpt lat="43.4210967" lon="10.5791217"><ele>389.75</ele><time>2026-04-04T10:05:20.013Z</time></trkpt><trkpt lat="43.4209717" lon="10.57907"><ele>388.0</ele><time>2026-04-04T10:05:21.011Z</time></trkpt><trkpt lat="43.4208467" lon="10.5790433"><ele>388.0</ele><time>2026-04-04T10:05:22.013Z</time></trkpt><trkpt lat="43.4207233" lon="10.578995"><ele>388.0</ele><time>2026-04-04T10:05:23.011Z</time></trkpt><trkpt lat="43.42061" lon="10.5788967"><ele>388.0</ele><time>2026-04-04T10:05:24.012Z</time></trkpt><trkpt lat="43.420525" lon="10.5787533"><ele>388.0</ele><time>2026-04-04T10:05:25.011Z</time></trkpt><trkpt lat="43.4204633" lon="10.5785733"><ele>386.25</ele><time>2026-04-04T10:05:26.011Z</time></trkpt><trkpt lat="43.4204133" lon="10.57838"><ele>384.5</ele><time>2026-04-04T10:05:27.012Z</time></trkpt><trkpt lat="43.4203717" lon="10.578185"><ele>382.75</ele><time>2026-04-04T10:05:28.011Z</time></trkpt><trkpt lat="43.4203433" lon="10.5779833"><ele>381.0</ele><time>2026-04-04T10:05:29.012Z</time></trkpt><trkpt lat="43.4203283" lon="10.5777883"><ele>381.0</ele><time>2026-04-04T10:05:30.012Z</time></trkpt><trkpt lat="43.4203133" lon="10.5776117"><ele>381.0</ele><time>2026-04-04T10:05:31.012Z</time></trkpt><trkpt lat="43.4202867" lon="10.57745"><ele>381.0</ele><time>2026-04-04T10:05:32.012Z</time></trkpt><trkpt lat="43.4202433" lon="10.577295"><ele>381.0</ele><time>2026-04-04T10:05:33.012Z</time></trkpt><trkpt lat="43.4201633" lon="10.5771583"><ele>378.75</ele><time>2026-04-04T10:05:34.012Z</time></trkpt><trkpt lat="43.420065" lon="10.577015"><ele>376.5</ele><time>2026-04-04T10:05:35.011Z</time></trkpt><trkpt lat="43.4199767" lon="10.5768683"><ele>374.25</ele><time>2026-04-04T10:05:36.011Z</time></trkpt><trkpt lat="43.4199283" lon="10.5766983"><ele>372.0</ele><time>2026-04-04T10:05:37.012Z</time></trkpt><trkpt lat="43.419915" lon="10.5765183"><ele>372.0</ele><time>2026-04-04T10:05:38.012Z</time></trkpt><trkpt lat="43.4199267" lon="10.57634"><ele>372.0</ele><time>2026-04-04T10:05:39.013Z</time></trkpt><trkpt lat="43.4199483" lon="10.5761633"><ele>372.0</ele><time>2026-04-04T10:05:40.012Z</time></trkpt><trkpt lat="43.419965" lon="10.5759883"><ele>372.0</ele><time>2026-04-04T10:05:41.012Z</time></trkpt><trkpt lat="43.4199867" lon="10.5758233"><ele>370.75</ele><time>2026-04-04T10:05:42.012Z</time></trkpt><trkpt lat="43.4200067" lon="10.575665"><ele>369.5</ele><time>2026-04-04T10:05:43.012Z</time></trkpt><trkpt lat="43.420025" lon="10.5755083"><ele>368.25</ele><time>2026-04-04T10:05:44.011Z</time></trkpt><trkpt lat="43.4200417" lon="10.5753533"><ele>367.0</ele><time>2026-04-04T10:05:45.012Z</time></trkpt><trkpt lat="43.420065" lon="10.575195"><ele>366.20000000000005</ele><time>2026-04-04T10:05:46.011Z</time></trkpt><trkpt lat="43.4200667" lon="10.57504"><ele>365.4</ele><time>2026-04-04T10:05:47.013Z</time></trkpt><trkpt lat="43.4200483" lon="10.5748883"><ele>364.6</ele><time>2026-04-04T10:05:48.012Z</time></trkpt><trkpt lat="43.4200183" lon="10.5747417"><ele>363.79999999999995</ele><time>2026-04-04T10:05:49.012Z</time></trkpt><trkpt lat="43.4199883" lon="10.5745933"><ele>363.0</ele><time>2026-04-04T10:05:50.011Z</time></trkpt><trkpt lat="43.4199517" lon="10.57445"><ele>361.75</ele><time>2026-04-04T10:05:51.013Z</time></trkpt><trkpt lat="43.4199033" lon="10.5743117"><ele>360.5</ele><time>2026-04-04T10:05:52.013Z</time></trkpt><trkpt lat="43.4198483" lon="10.5741733"><ele>359.25</ele><time>2026-04-04T10:05:53.013Z</time></trkpt><trkpt lat="43.419785" lon="10.5740383"><ele>358.0</ele><time>2026-04-04T10:05:54.012Z</time></trkpt><trkpt lat="43.4197083" lon="10.573925"><ele>357.25</ele><time>2026-04-04T10:05:55.011Z</time></trkpt><trkpt lat="43.4196217" lon="10.573815"><ele>356.5</ele><time>2026-04-04T10:05:56.012Z</time></trkpt><trkpt lat="43.4195317" lon="10.573705"><ele>355.75</ele><time>2026-04-04T10:05:57.013Z</time></trkpt><trkpt lat="43.4194367" lon="10.5736033"><ele>355.0</ele><time>2026-04-04T10:05:58.012Z</time></trkpt><trkpt lat="43.4193383" lon="10.5735117"><ele>355.0</ele><time>2026-04-04T10:05:59.012Z</time></trkpt><trkpt lat="43.4192317" lon="10.5734367"><ele>355.0</ele><time>2026-04-04T10:06:00.012Z</time></trkpt><trkpt lat="43.4191217" lon="10.5733817"><ele>355.0</ele><time>2026-04-04T10:06:01.013Z</time></trkpt><trkpt lat="43.4190117" lon="10.5733317"><ele>355.0</ele><time>2026-04-04T10:06:02.011Z</time></trkpt><trkpt lat="43.4189033" lon="10.5732817"><ele>357.25</ele><time>2026-04-04T10:06:03.012Z</time></trkpt><trkpt lat="43.4187983" lon="10.5732217"><ele>359.5</ele><time>2026-04-04T10:06:04.011Z</time></trkpt><trkpt lat="43.4187033" lon="10.5731367"><ele>361.75</ele><time>2026-04-04T10:06:05.011Z</time></trkpt><trkpt lat="43.41862" lon="10.5730317"><ele>364.0</ele><time>2026-04-04T10:06:06.013Z</time></trkpt><trkpt lat="43.4185467" lon="10.572915"><ele>362.6</ele><time>2026-04-04T10:06:07.012Z</time></trkpt><trkpt lat="43.4184833" lon="10.5727917"><ele>361.2</ele><time>2026-04-04T10:06:08.013Z</time></trkpt><trkpt lat="43.4184133" lon="10.5726733"><ele>359.8</ele><time>2026-04-04T10:06:09.013Z</time></trkpt><trkpt lat="43.4183333" lon="10.57257"><ele>358.40000000000003</ele><time>2026-04-04T10:06:10.012Z</time></trkpt><trkpt lat="43.4182467" lon="10.5724867"><ele>357.0</ele><time>2026-04-04T10:06:11.011Z</time></trkpt><trkpt lat="43.4181567" lon="10.5724067"><ele>357.0</ele><time>2026-04-04T10:06:12.012Z</time></trkpt><trkpt lat="43.4180617" lon="10.57234"><ele>357.0</ele><time>2026-04-04T10:06:13.012Z</time></trkpt><trkpt lat="43.4179633" lon="10.5722767"><ele>357.0</ele><time>2026-04-04T10:06:14.011Z</time></trkpt><trkpt lat="43.41786" lon="10.5722217"><ele>357.0</ele><time>2026-04-04T10:06:15.011Z</time></trkpt><trkpt lat="43.4177567" lon="10.5721633"><ele>357.0</ele><time>2026-04-04T10:06:16.013Z</time></trkpt><trkpt lat="43.41765" lon="10.5720967"><ele>357.75</ele><time>2026-04-04T10:06:17.012Z</time></trkpt><trkpt lat="43.4175467" lon="10.5720433"><ele>358.5</ele><time>2026-04-04T10:06:18.012Z</time></trkpt><trkpt lat="43.4174333" lon="10.57201"><ele>359.25</ele><time>2026-04-04T10:06:19.013Z</time></trkpt><trkpt lat="43.417315" lon="10.5719917"><ele>360.0</ele><time>2026-04-04T10:06:20.012Z</time></trkpt><trkpt lat="43.4171933" lon="10.5719867"><ele>359.25</ele><time>2026-04-04T10:06:21.013Z</time></trkpt><trkpt lat="43.41707" lon="10.5720033"><ele>358.5</ele><time>2026-04-04T10:06:22.012Z</time></trkpt><trkpt lat="43.416945" lon="10.5720083"><ele>357.75</ele><time>2026-04-04T10:06:23.012Z</time></trkpt><trkpt lat="43.41682" lon="10.5720217"><ele>357.0</ele><time>2026-04-04T10:06:24.013Z</time></trkpt><trkpt lat="43.4167017" lon="10.5720483"><ele>357.0</ele><time>2026-04-04T10:06:25.013Z</time></trkpt><trkpt lat="43.4165933" lon="10.572085"><ele>357.0</ele><time>2026-04-04T10:06:26.013Z</time></trkpt><trkpt lat="43.4164917" lon="10.572125"><ele>357.0</ele><time>2026-04-04T10:06:27.014Z</time></trkpt><trkpt lat="43.4164033" lon="10.5721617"><ele>357.0</ele><time>2026-04-04T10:06:28.012Z</time></trkpt><trkpt lat="43.4163183" lon="10.57219"><ele>357.0</ele><time>2026-04-04T10:06:29.011Z</time></trkpt><trkpt lat="43.4162483" lon="10.5722017"><ele>355.0</ele><time>2026-04-04T10:06:30.012Z</time></trkpt><trkpt lat="43.4161783" lon="10.5721983"><ele>353.0</ele><time>2026-04-04T10:06:31.013Z</time></trkpt><trkpt lat="43.416105" lon="10.57219"><ele>351.0</ele><time>2026-04-04T10:06:32.013Z</time></trkpt><trkpt lat="43.4160167" lon="10.572295"><ele>349.0</ele><time>2026-04-04T10:06:34.014Z</time></trkpt><trkpt lat="43.4159867" lon="10.5724017"><ele>347.0</ele><time>2026-04-04T10:06:35.014Z</time></trkpt><trkpt lat="43.4159617" lon="10.572545"><ele>347.0</ele><time>2026-04-04T10:06:36.013Z</time></trkpt><trkpt lat="43.4159067" lon="10.572705"><ele>347.0</ele><time>2026-04-04T10:06:37.013Z</time></trkpt><trkpt lat="43.41587" lon="10.572875"><ele>347.0</ele><time>2026-04-04T10:06:38.012Z</time></trkpt><trkpt lat="43.4158333" lon="10.5730533"><ele>347.0</ele><time>2026-04-04T10:06:39.014Z</time></trkpt><trkpt lat="43.415795" lon="10.573235"><ele>348.5</ele><time>2026-04-04T10:06:40.013Z</time></trkpt><trkpt lat="43.4157583" lon="10.573415"><ele>350.0</ele><time>2026-04-04T10:06:41.013Z</time></trkpt><trkpt lat="43.4157183" lon="10.5735933"><ele>351.5</ele><time>2026-04-04T10:06:42.013Z</time></trkpt><trkpt lat="43.4156783" lon="10.5737583"><ele>353.0</ele><time>2026-04-04T10:06:43.012Z</time></trkpt><trkpt lat="43.4156183" lon="10.5739067"><ele>353.75</ele><time>2026-04-04T10:06:44.012Z</time></trkpt><trkpt lat="43.4155483" lon="10.574045"><ele>354.5</ele><time>2026-04-04T10:06:45.013Z</time></trkpt><trkpt lat="43.41547" lon="10.5741683"><ele>355.25</ele><time>2026-04-04T10:06:46.012Z</time></trkpt><trkpt lat="43.415375" lon="10.5742817"><ele>356.0</ele><time>2026-04-04T10:06:47.012Z</time></trkpt><trkpt lat="43.4152783" lon="10.57438"><ele>356.0</ele><time>2026-04-04T10:06:48.014Z</time></trkpt><trkpt lat="43.4151933" lon="10.5744717"><ele>356.0</ele><time>2026-04-04T10:06:49.013Z</time></trkpt><trkpt lat="43.4151017" lon="10.5745633"><ele>356.0</ele><time>2026-04-04T10:06:50.014Z</time></trkpt><trkpt lat="43.4150183" lon="10.5746783"><ele>356.0</ele><time>2026-04-04T10:06:51.013Z</time></trkpt><trkpt lat="43.4149567" lon="10.574815"><ele>358.0</ele><time>2026-04-04T10:06:52.014Z</time></trkpt><trkpt lat="43.4149" lon="10.5749667"><ele>360.0</ele><time>2026-04-04T10:06:53.014Z</time></trkpt><trkpt lat="43.4148417" lon="10.5751267"><ele>362.0</ele><time>2026-04-04T10:06:54.012Z</time></trkpt><trkpt lat="43.4147683" lon="10.5752783"><ele>364.0</ele><time>2026-04-04T10:06:55.013Z</time></trkpt><trkpt lat="43.4146783" lon="10.57541"><ele>365.75</ele><time>2026-04-04T10:06:56.015Z</time></trkpt><trkpt lat="43.4145683" lon="10.5755117"><ele>367.5</ele><time>2026-04-04T10:06:57.012Z</time></trkpt><trkpt lat="43.4144583" lon="10.5755933"><ele>369.25</ele><time>2026-04-04T10:06:58.014Z</time></trkpt><trkpt lat="43.414335" lon="10.5756617"><ele>371.0</ele><time>2026-04-04T10:06:59.012Z</time></trkpt><trkpt lat="43.4142283" lon="10.575735"><ele>371.0</ele><time>2026-04-04T10:07:00.013Z</time></trkpt><trkpt lat="43.4141217" lon="10.5758083"><ele>371.0</ele><time>2026-04-04T10:07:01.013Z</time></trkpt><trkpt lat="43.4140217" lon="10.57589"><ele>371.0</ele><time>2026-04-04T10:07:02.014Z</time></trkpt><trkpt lat="43.413935" lon="10.5759867"><ele>371.0</ele><time>2026-04-04T10:07:03.013Z</time></trkpt><trkpt lat="43.4138533" lon="10.5760867"><ele>371.20000000000005</ele><time>2026-04-04T10:07:04.013Z</time></trkpt><trkpt lat="43.4137733" lon="10.5761767"><ele>371.40000000000003</ele><time>2026-04-04T10:07:05.014Z</time></trkpt><trkpt lat="43.413685" lon="10.576255"><ele>371.6</ele><time>2026-04-04T10:07:06.013Z</time></trkpt><trkpt lat="43.413595" lon="10.5763233"><ele>371.8</ele><time>2026-04-04T10:07:07.014Z</time></trkpt><trkpt lat="43.4135" lon="10.5763883"><ele>372.0</ele><time>2026-04-04T10:07:08.013Z</time></trkpt><trkpt lat="43.4134067" lon="10.5764533"><ele>372.0</ele><time>2026-04-04T10:07:09.013Z</time></trkpt><trkpt lat="43.4133233" lon="10.5765117"><ele>372.0</ele><time>2026-04-04T10:07:10.012Z</time></trkpt><trkpt lat="43.4132417" lon="10.5765617"><ele>372.0</ele><time>2026-04-04T10:07:11.013Z</time></trkpt><trkpt lat="43.413165" lon="10.5765933"><ele>372.0</ele><time>2026-04-04T10:07:12.015Z</time></trkpt><trkpt lat="43.413085" lon="10.57661"><ele>372.0</ele><time>2026-04-04T10:07:13.013Z</time></trkpt><trkpt lat="43.413005" lon="10.5766167"><ele>372.0</ele><time>2026-04-04T10:07:14.012Z</time></trkpt><trkpt lat="43.4129283" lon="10.57662"><ele>372.3333333333333</ele><time>2026-04-04T10:07:15.012Z</time></trkpt><trkpt lat="43.4128517" lon="10.576625"><ele>372.6666666666667</ele><time>2026-04-04T10:07:16.014Z</time></trkpt><trkpt lat="43.4127867" lon="10.576645"><ele>373.0</ele><time>2026-04-04T10:07:17.013Z</time></trkpt><trkpt lat="43.412695" lon="10.5766817"><ele>373.33333333333337</ele><time>2026-04-04T10:07:19.013Z</time></trkpt><trkpt lat="43.4126217" lon="10.5767067"><ele>373.6666666666667</ele><time>2026-04-04T10:07:22.013Z</time></trkpt><trkpt lat="43.41255" lon="10.5767467"><ele>374.0</ele><time>2026-04-04T10:07:24.012Z</time></trkpt><trkpt lat="43.4124333" lon="10.5768067"><ele>374.0</ele><time>2026-04-04T10:07:26.013Z</time></trkpt><trkpt lat="43.4123283" lon="10.57687"><ele>374.0</ele><time>2026-04-04T10:07:28.013Z</time></trkpt><trkpt lat="43.4122833" lon="10.576935"><ele>374.0</ele><time>2026-04-04T10:07:29.012Z</time></trkpt><trkpt lat="43.4122117" lon="10.5770517"><ele>374.0</ele><time>2026-04-04T10:07:31.013Z</time></trkpt><trkpt lat="43.4121583" lon="10.5771733"><ele>374.0</ele><time>2026-04-04T10:07:33.014Z</time></trkpt><trkpt lat="43.4120883" lon="10.57731"><ele>373.7142857142857</ele><time>2026-04-04T10:07:35.012Z</time></trkpt><trkpt lat="43.4120433" lon="10.5773833"><ele>373.42857142857144</ele><time>2026-04-04T10:07:36.013Z</time></trkpt><trkpt lat="43.4119933" lon="10.5774583"><ele>373.14285714285717</ele><time>2026-04-04T10:07:37.013Z</time></trkpt><trkpt lat="43.4119467" lon="10.5775333"><ele>372.8571428571429</ele><time>2026-04-04T10:07:38.015Z</time></trkpt><trkpt lat="43.4119017" lon="10.5776083"><ele>372.57142857142856</ele><time>2026-04-04T10:07:39.013Z</time></trkpt><trkpt lat="43.4118567" lon="10.5776867"><ele>372.28571428571433</ele><time>2026-04-04T10:07:40.013Z</time></trkpt><trkpt lat="43.41181" lon="10.5777717"><ele>372.0</ele><time>2026-04-04T10:07:41.013Z</time></trkpt><trkpt lat="43.411755" lon="10.5778633"><ele>373.40000000000003</ele><time>2026-04-04T10:07:42.012Z</time></trkpt><trkpt lat="43.4117017" lon="10.5779683"><ele>374.8</ele><time>2026-04-04T10:07:43.014Z</time></trkpt><trkpt lat="43.4116567" lon="10.57809"><ele>376.2</ele><time>2026-04-04T10:07:44.012Z</time></trkpt><trkpt lat="43.4116167" lon="10.57821"><ele>377.6</ele><time>2026-04-04T10:07:45.013Z</time></trkpt><trkpt lat="43.4115733" lon="10.5783267"><ele>379.0</ele><time>2026-04-04T10:07:46.013Z</time></trkpt><trkpt lat="43.4115267" lon="10.57843"><ele>379.0</ele><time>2026-04-04T10:07:47.013Z</time></trkpt><trkpt lat="43.411475" lon="10.5785267"><ele>379.0</ele><time>2026-04-04T10:07:48.013Z</time></trkpt><trkpt lat="43.4114183" lon="10.5786083"><ele>379.0</ele><time>2026-04-04T10:07:49.013Z</time></trkpt><trkpt lat="43.4113583" lon="10.5786733"><ele>379.0</ele><time>2026-04-04T10:07:50.013Z</time></trkpt><trkpt lat="43.41129" lon="10.5787317"><ele>379.0</ele><time>2026-04-04T10:07:51.014Z</time></trkpt><trkpt lat="43.4112133" lon="10.57878"><ele>379.0</ele><time>2026-04-04T10:07:52.012Z</time></trkpt><trkpt lat="43.41113" lon="10.5788217"><ele>379.79999999999995</ele><time>2026-04-04T10:07:53.012Z</time></trkpt><trkpt lat="43.4110333" lon="10.5788383"><ele>380.59999999999997</ele><time>2026-04-04T10:07:54.014Z</time></trkpt><trkpt lat="43.4109383" lon="10.5788417"><ele>381.4</ele><time>2026-04-04T10:07:55.014Z</time></trkpt><trkpt lat="43.410845" lon="10.5788167"><ele>382.2</ele><time>2026-04-04T10:07:56.012Z</time></trkpt><trkpt lat="43.4107483" lon="10.5787733"><ele>383.0</ele><time>2026-04-04T10:07:57.012Z</time></trkpt><trkpt lat="43.4106567" lon="10.5787283"><ele>382.0</ele><time>2026-04-04T10:07:58.013Z</time></trkpt><trkpt lat="43.41057" lon="10.57868"><ele>381.0</ele><time>2026-04-04T10:07:59.011Z</time></trkpt><trkpt lat="43.4104783" lon="10.57864"><ele>380.0</ele><time>2026-04-04T10:08:00.013Z</time></trkpt><trkpt lat="43.4103833" lon="10.57861"><ele>379.0</ele><time>2026-04-04T10:08:01.013Z</time></trkpt><trkpt lat="43.4102867" lon="10.578595"><ele>378.0</ele><time>2026-04-04T10:08:02.013Z</time></trkpt><trkpt lat="43.4101867" lon="10.5785867"><ele>378.0</ele><time>2026-04-04T10:08:03.013Z</time></trkpt><trkpt lat="43.4100917" lon="10.5785783"><ele>378.0</ele><time>2026-04-04T10:08:04.014Z</time></trkpt><trkpt lat="43.4099883" lon="10.5785817"><ele>378.0</ele><time>2026-04-04T10:08:05.013Z</time></trkpt><trkpt lat="43.409885" lon="10.5785867"><ele>378.0</ele><time>2026-04-04T10:08:06.014Z</time></trkpt><trkpt lat="43.40978" lon="10.5785883"><ele>378.0</ele><time>2026-04-04T10:08:07.014Z</time></trkpt><trkpt lat="43.4096767" lon="10.57859"><ele>378.79999999999995</ele><time>2026-04-04T10:08:08.014Z</time></trkpt><trkpt lat="43.4095683" lon="10.578595"><ele>379.6</ele><time>2026-04-04T10:08:09.013Z</time></trkpt><trkpt lat="43.40946" lon="10.5785883"><ele>380.4</ele><time>2026-04-04T10:08:10.011Z</time></trkpt><trkpt lat="43.4093617" lon="10.578585"><ele>381.20000000000005</ele><time>2026-04-04T10:08:11.012Z</time></trkpt><trkpt lat="43.4092717" lon="10.5785833"><ele>382.0</ele><time>2026-04-04T10:08:12.013Z</time></trkpt><trkpt lat="43.4091917" lon="10.578575"><ele>382.0</ele><time>2026-04-04T10:08:13.012Z</time></trkpt><trkpt lat="43.4091233" lon="10.5785683"><ele>382.0</ele><time>2026-04-04T10:08:14.011Z</time></trkpt><trkpt lat="43.4090517" lon="10.57856"><ele>382.0</ele><time>2026-04-04T10:08:15.013Z</time></trkpt><trkpt lat="43.4089817" lon="10.5785483"><ele>382.0</ele><time>2026-04-04T10:08:16.012Z</time></trkpt><trkpt lat="43.4089183" lon="10.5785383"><ele>382.0</ele><time>2026-04-04T10:08:17.012Z</time></trkpt><trkpt lat="43.408875" lon="10.578435"><ele>382.0</ele><time>2026-04-04T10:08:19.01Z</time></trkpt><trkpt lat="43.4088617" lon="10.5782233"><ele>382.0</ele><time>2026-04-04T10:08:21.012Z</time></trkpt><trkpt lat="43.4088633" lon="10.5780567"><ele>382.0</ele><time>2026-04-04T10:08:22.01Z</time></trkpt><trkpt lat="43.4088633" lon="10.5779"><ele>382.0</ele><time>2026-04-04T10:08:23.012Z</time></trkpt><trkpt lat="43.4088633" lon="10.577745"><ele>382.0</ele><time>2026-04-04T10:08:24.011Z</time></trkpt><trkpt lat="43.408865" lon="10.5775983"><ele>380.66666666666663</ele><time>2026-04-04T10:08:25.013Z</time></trkpt><trkpt lat="43.408865" lon="10.5774683"><ele>379.3333333333333</ele><time>2026-04-04T10:08:26.011Z</time></trkpt><trkpt lat="43.4088867" lon="10.5773533"><ele>378.0</ele><time>2026-04-04T10:08:27.012Z</time></trkpt><trkpt lat="43.4089167" lon="10.5772683"><ele>376.6666666666667</ele><time>2026-04-04T10:08:28.012Z</time></trkpt><trkpt lat="43.40898" lon="10.57723"><ele>375.33333333333337</ele><time>2026-04-04T10:08:29.011Z</time></trkpt><trkpt lat="43.4090917" lon="10.577235"><ele>374.0</ele><time>2026-04-04T10:08:30.012Z</time></trkpt><trkpt lat="43.409215" lon="10.5772367"><ele>374.0</ele><time>2026-04-04T10:08:31.011Z</time></trkpt><trkpt lat="43.40934" lon="10.5772383"><ele>374.0</ele><time>2026-04-04T10:08:32.012Z</time></trkpt><trkpt lat="43.4094667" lon="10.5772417"><ele>374.0</ele><time>2026-04-04T10:08:33.013Z</time></trkpt><trkpt lat="43.409585" lon="10.5772517"><ele>374.0</ele><time>2026-04-04T10:08:34.013Z</time></trkpt><trkpt lat="43.4097" lon="10.5772567"><ele>373.0</ele><time>2026-04-04T10:08:35.012Z</time></trkpt><trkpt lat="43.4098183" lon="10.5772583"><ele>372.0</ele><time>2026-04-04T10:08:36.012Z</time></trkpt><trkpt lat="43.40994" lon="10.5772583"><ele>371.0</ele><time>2026-04-04T10:08:37.011Z</time></trkpt><trkpt lat="43.4100633" lon="10.5772583"><ele>370.0</ele><time>2026-04-04T10:08:38.013Z</time></trkpt><trkpt lat="43.410185" lon="10.577255"><ele>370.0</ele><time>2026-04-04T10:08:39.013Z</time></trkpt><trkpt lat="43.4103067" lon="10.57725"><ele>370.0</ele><time>2026-04-04T10:08:40.013Z</time></trkpt><trkpt lat="43.4104233" lon="10.5772467"><ele>370.0</ele><time>2026-04-04T10:08:41.013Z</time></trkpt><trkpt lat="43.4105367" lon="10.57723"><ele>370.0</ele><time>2026-04-04T10:08:42.012Z</time></trkpt><trkpt lat="43.4106433" lon="10.5771933"><ele>368.6</ele><time>2026-04-04T10:08:43.012Z</time></trkpt><trkpt lat="43.41074" lon="10.5771433"><ele>367.2</ele><time>2026-04-04T10:08:44.011Z</time></trkpt><trkpt lat="43.4108233" lon="10.5770667"><ele>365.79999999999995</ele><time>2026-04-04T10:08:45.012Z</time></trkpt><trkpt lat="43.4108817" lon="10.576965"><ele>364.4</ele><time>2026-04-04T10:08:46.012Z</time></trkpt><trkpt lat="43.4109167" lon="10.57683"><ele>363.0</ele><time>2026-04-04T10:08:47.012Z</time></trkpt><trkpt lat="43.4109433" lon="10.5766717"><ele>361.75</ele><time>2026-04-04T10:08:48.013Z</time></trkpt><trkpt lat="43.4109767" lon="10.5764917"><ele>360.5</ele><time>2026-04-04T10:08:49.012Z</time></trkpt><trkpt lat="43.41101" lon="10.5763067"><ele>359.25</ele><time>2026-04-04T10:08:50.012Z</time></trkpt><trkpt lat="43.411045" lon="10.5761183"><ele>358.0</ele><time>2026-04-04T10:08:51.012Z</time></trkpt><trkpt lat="43.4110783" lon="10.575925"><ele>356.25</ele><time>2026-04-04T10:08:52.012Z</time></trkpt><trkpt lat="43.4111117" lon="10.57574"><ele>354.5</ele><time>2026-04-04T10:08:53.011Z</time></trkpt><trkpt lat="43.4111417" lon="10.5755583"><ele>352.75</ele><time>2026-04-04T10:08:54.013Z</time></trkpt><trkpt lat="43.4111717" lon="10.57539"><ele>351.0</ele><time>2026-04-04T10:08:55.013Z</time></trkpt><trkpt lat="43.4111983" lon="10.57523"><ele>348.75</ele><time>2026-04-04T10:08:56.013Z</time></trkpt><trkpt lat="43.4112267" lon="10.5750683"><ele>346.5</ele><time>2026-04-04T10:08:57.012Z</time></trkpt><trkpt lat="43.4112517" lon="10.5749067"><ele>344.25</ele><time>2026-04-04T10:08:58.012Z</time></trkpt><trkpt lat="43.411275" lon="10.5747417"><ele>342.0</ele><time>2026-04-04T10:08:59.011Z</time></trkpt><trkpt lat="43.4113083" lon="10.5745783"><ele>340.75</ele><time>2026-04-04T10:09:00.012Z</time></trkpt><trkpt lat="43.41136" lon="10.5744317"><ele>339.5</ele><time>2026-04-04T10:09:01.011Z</time></trkpt><trkpt lat="43.4114383" lon="10.5743133"><ele>338.25</ele><time>2026-04-04T10:09:02.012Z</time></trkpt><trkpt lat="43.411545" lon="10.57422"><ele>337.0</ele><time>2026-04-04T10:09:03.012Z</time></trkpt><trkpt lat="43.4116533" lon="10.5741333"><ele>337.0</ele><time>2026-04-04T10:09:04.012Z</time></trkpt><trkpt lat="43.411765" lon="10.574025"><ele>337.0</ele><time>2026-04-04T10:09:05.013Z</time></trkpt><trkpt lat="43.411865" lon="10.573885"><ele>337.0</ele><time>2026-04-04T10:09:06.011Z</time></trkpt><trkpt lat="43.4119533" lon="10.5737267"><ele>337.0</ele><time>2026-04-04T10:09:07.012Z</time></trkpt><trkpt lat="43.4120433" lon="10.5735683"><ele>335.0</ele><time>2026-04-04T10:09:08.014Z</time></trkpt><trkpt lat="43.41214" lon="10.5734183"><ele>333.0</ele><time>2026-04-04T10:09:09.012Z</time></trkpt><trkpt lat="43.412235" lon="10.5732817"><ele>331.0</ele><time>2026-04-04T10:09:10.012Z</time></trkpt><trkpt lat="43.4123483" lon="10.573175"><ele>329.0</ele><time>2026-04-04T10:09:11.011Z</time></trkpt><trkpt lat="43.4124733" lon="10.573095"><ele>329.0</ele><time>2026-04-04T10:09:12.013Z</time></trkpt><trkpt lat="43.4126033" lon="10.573045"><ele>329.0</ele><time>2026-04-04T10:09:13.012Z</time></trkpt><trkpt lat="43.4127283" lon="10.5730167"><ele>329.0</ele><time>2026-04-04T10:09:14.012Z</time></trkpt><trkpt lat="43.412835" lon="10.572965"><ele>329.0</ele><time>2026-04-04T10:09:15.012Z</time></trkpt><trkpt lat="43.4129083" lon="10.5728633"><ele>325.25</ele><time>2026-04-04T10:09:16.012Z</time></trkpt><trkpt lat="43.4129617" lon="10.5727183"><ele>321.5</ele><time>2026-04-04T10:09:17.012Z</time></trkpt><trkpt lat="43.412985" lon="10.57254"><ele>317.75</ele><time>2026-04-04T10:09:18.012Z</time></trkpt><trkpt lat="43.41298" lon="10.5723383"><ele>314.0</ele><time>2026-04-04T10:09:19.011Z</time></trkpt><trkpt lat="43.4129817" lon="10.57213"><ele>313.25</ele><time>2026-04-04T10:09:20.012Z</time></trkpt><trkpt lat="43.4129917" lon="10.57193"><ele>312.5</ele><time>2026-04-04T10:09:21.013Z</time></trkpt><trkpt lat="43.4130017" lon="10.57174"><ele>311.75</ele><time>2026-04-04T10:09:22.013Z</time></trkpt><trkpt lat="43.41302" lon="10.57156"><ele>311.0</ele><time>2026-04-04T10:09:23.013Z</time></trkpt><trkpt lat="43.4130567" lon="10.5713867"><ele>311.0</ele><time>2026-04-04T10:09:24.012Z</time></trkpt><trkpt lat="43.4131233" lon="10.5712217"><ele>311.0</ele><time>2026-04-04T10:09:25.012Z</time></trkpt><trkpt lat="43.413205" lon="10.5710667"><ele>311.0</ele><time>2026-04-04T10:09:26.011Z</time></trkpt><trkpt lat="43.4132933" lon="10.5709117"><ele>311.0</ele><time>2026-04-04T10:09:27.011Z</time></trkpt><trkpt lat="43.4133883" lon="10.5707567"><ele>309.0</ele><time>2026-04-04T10:09:28.012Z</time></trkpt><trkpt lat="43.41349" lon="10.5706117"><ele>307.0</ele><time>2026-04-04T10:09:29.012Z</time></trkpt><trkpt lat="43.41361" lon="10.570485"><ele>305.0</ele><time>2026-04-04T10:09:30.012Z</time></trkpt><trkpt lat="43.4137383" lon="10.5703783"><ele>303.0</ele><time>2026-04-04T10:09:31.012Z</time></trkpt><trkpt lat="43.4138783" lon="10.570285"><ele>301.3333333333333</ele><time>2026-04-04T10:09:32.012Z</time></trkpt><trkpt lat="43.414025" lon="10.5702033"><ele>299.66666666666663</ele><time>2026-04-04T10:09:33.013Z</time></trkpt><trkpt lat="43.4141817" lon="10.570135"><ele>298.0</ele><time>2026-04-04T10:09:34.011Z</time></trkpt><trkpt lat="43.4143267" lon="10.570075"><ele>298.0</ele><time>2026-04-04T10:09:35.012Z</time></trkpt><trkpt lat="43.4144467" lon="10.570015"><ele>298.0</ele><time>2026-04-04T10:09:36.011Z</time></trkpt><trkpt lat="43.41454" lon="10.5699133"><ele>298.0</ele><time>2026-04-04T10:09:37.013Z</time></trkpt><trkpt lat="43.4145983" lon="10.5697733"><ele>298.0</ele><time>2026-04-04T10:09:38.012Z</time></trkpt><trkpt lat="43.4146067" lon="10.56961"><ele>295.0</ele><time>2026-04-04T10:09:39.013Z</time></trkpt><trkpt lat="43.41457" lon="10.5694283"><ele>292.0</ele><time>2026-04-04T10:09:40.011Z</time></trkpt><trkpt lat="43.4145033" lon="10.5692333"><ele>289.0</ele><time>2026-04-04T10:09:41.012Z</time></trkpt><trkpt lat="43.41442" lon="10.5690233"><ele>289.0</ele><time>2026-04-04T10:09:42.013Z</time></trkpt><trkpt lat="43.414335" lon="10.5688167"><ele>289.0</ele><time>2026-04-04T10:09:43.013Z</time></trkpt><trkpt lat="43.4142467" lon="10.5686133"><ele>289.0</ele><time>2026-04-04T10:09:44.011Z</time></trkpt><trkpt lat="43.4141717" lon="10.5684067"><ele>288.0</ele><time>2026-04-04T10:09:45.012Z</time></trkpt><trkpt lat="43.41412" lon="10.5681933"><ele>287.0</ele><time>2026-04-04T10:09:46.012Z</time></trkpt><trkpt lat="43.4141" lon="10.5679683"><ele>286.0</ele><time>2026-04-04T10:09:47.013Z</time></trkpt><trkpt lat="43.4140967" lon="10.5677333"><ele>285.66666666666663</ele><time>2026-04-04T10:09:48.012Z</time></trkpt><trkpt lat="43.4140917" lon="10.5674917"><ele>285.3333333333333</ele><time>2026-04-04T10:09:49.012Z</time></trkpt><trkpt lat="43.4140767" lon="10.56725"><ele>285.0</ele><time>2026-04-04T10:09:50.012Z</time></trkpt><trkpt lat="43.4140667" lon="10.56702"><ele>284.0</ele><time>2026-04-04T10:09:51.012Z</time></trkpt><trkpt lat="43.4140783" lon="10.5668067"><ele>283.0</ele><time>2026-04-04T10:09:52.012Z</time></trkpt><trkpt lat="43.41412" lon="10.5666"><ele>282.0</ele><time>2026-04-04T10:09:53.012Z</time></trkpt><trkpt lat="43.41419" lon="10.56639"><ele>279.3333333333333</ele><time>2026-04-04T10:09:54.012Z</time></trkpt><trkpt lat="43.4142667" lon="10.5661783"><ele>276.66666666666663</ele><time>2026-04-04T10:09:55.011Z</time></trkpt><trkpt lat="43.4143533" lon="10.5659567"><ele>274.0</ele><time>2026-04-04T10:09:56.012Z</time></trkpt><trkpt lat="43.4144383" lon="10.5657317"><ele>274.0</ele><time>2026-04-04T10:09:57.012Z</time></trkpt><trkpt lat="43.4145433" lon="10.565505"><ele>274.0</ele><time>2026-04-04T10:09:58.012Z</time></trkpt><trkpt lat="43.4146683" lon="10.5652933"><ele>274.0</ele><time>2026-04-04T10:09:59.011Z</time></trkpt><trkpt lat="43.4148017" lon="10.5650967"><ele>274.66666666666663</ele><time>2026-04-04T10:10:00.012Z</time></trkpt><trkpt lat="43.41492" lon="10.5649133"><ele>275.3333333333333</ele><time>2026-04-04T10:10:01.012Z</time></trkpt><trkpt lat="43.415015" lon="10.56472"><ele>276.0</ele><time>2026-04-04T10:10:02.013Z</time></trkpt><trkpt lat="43.41508" lon="10.5645033"><ele>273.6666666666667</ele><time>2026-04-04T10:10:03.013Z</time></trkpt><trkpt lat="43.4151133" lon="10.564265"><ele>271.33333333333337</ele><time>2026-04-04T10:10:04.012Z</time></trkpt><trkpt lat="43.4151067" lon="10.5640217"><ele>269.0</ele><time>2026-04-04T10:10:05.012Z</time></trkpt><trkpt lat="43.41506" lon="10.5637767"><ele>268.33333333333337</ele><time>2026-04-04T10:10:06.013Z</time></trkpt><trkpt lat="43.4149883" lon="10.5635317"><ele>267.6666666666667</ele><time>2026-04-04T10:10:07.012Z</time></trkpt><trkpt lat="43.4149033" lon="10.5633067"><ele>267.0</ele><time>2026-04-04T10:10:08.013Z</time></trkpt><trkpt lat="43.4148167" lon="10.5630983"><ele>267.0</ele><time>2026-04-04T10:10:09.012Z</time></trkpt><trkpt lat="43.4147133" lon="10.5629133"><ele>267.0</ele><time>2026-04-04T10:10:10.011Z</time></trkpt><trkpt lat="43.4145967" lon="10.5627533"><ele>267.0</ele><time>2026-04-04T10:10:11.011Z</time></trkpt><trkpt lat="43.4144583" lon="10.5626283"><ele>264.5</ele><time>2026-04-04T10:10:12.013Z</time></trkpt><trkpt lat="43.4143283" lon="10.5625117"><ele>262.0</ele><time>2026-04-04T10:10:13.012Z</time></trkpt><trkpt lat="43.4142133" lon="10.5623817"><ele>259.5</ele><time>2026-04-04T10:10:14.011Z</time></trkpt><trkpt lat="43.41413" lon="10.5622183"><ele>257.0</ele><time>2026-04-04T10:10:15.013Z</time></trkpt><trkpt lat="43.4140817" lon="10.5620283"><ele>256.0</ele><time>2026-04-04T10:10:16.013Z</time></trkpt><trkpt lat="43.4140633" lon="10.5618033"><ele>255.0</ele><time>2026-04-04T10:10:17.011Z</time></trkpt><trkpt lat="43.4140617" lon="10.561555"><ele>254.0</ele><time>2026-04-04T10:10:18.011Z</time></trkpt><trkpt lat="43.4140517" lon="10.5612867"><ele>252.66666666666669</ele><time>2026-04-04T10:10:19.012Z</time></trkpt><trkpt lat="43.4140383" lon="10.5610117"><ele>251.33333333333331</ele><time>2026-04-04T10:10:20.012Z</time></trkpt><trkpt lat="43.4140283" lon="10.5607467"><ele>250.0</ele><time>2026-04-04T10:10:21.014Z</time></trkpt><trkpt lat="43.414015" lon="10.5605"><ele>248.66666666666666</ele><time>2026-04-04T10:10:22.012Z</time></trkpt><trkpt lat="43.414005" lon="10.560265"><ele>247.33333333333331</ele><time>2026-04-04T10:10:23.012Z</time></trkpt><trkpt lat="43.41401" lon="10.5600367"><ele>246.0</ele><time>2026-04-04T10:10:24.013Z</time></trkpt><trkpt lat="43.4140433" lon="10.5598217"><ele>246.0</ele><time>2026-04-04T10:10:25.011Z</time></trkpt><trkpt lat="43.414105" lon="10.5596217"><ele>246.0</ele><time>2026-04-04T10:10:26.012Z</time></trkpt><trkpt lat="43.41419" lon="10.5594267"><ele>246.0</ele><time>2026-04-04T10:10:27.013Z</time></trkpt><trkpt lat="43.4142867" lon="10.55923"><ele>241.66666666666669</ele><time>2026-04-04T10:10:28.012Z</time></trkpt><trkpt lat="43.4143783" lon="10.5590183"><ele>237.33333333333334</ele><time>2026-04-04T10:10:29.011Z</time></trkpt><trkpt lat="43.4144517" lon="10.55879"><ele>233.0</ele><time>2026-04-04T10:10:30.013Z</time></trkpt><trkpt lat="43.414505" lon="10.5585617"><ele>231.0</ele><time>2026-04-04T10:10:31.012Z</time></trkpt><trkpt lat="43.4145417" lon="10.55835"><ele>229.0</ele><time>2026-04-04T10:10:32.012Z</time></trkpt><trkpt lat="43.41456" lon="10.5581667"><ele>227.0</ele><time>2026-04-04T10:10:33.013Z</time></trkpt><trkpt lat="43.4145767" lon="10.558015"><ele>225.0</ele><time>2026-04-04T10:10:34.012Z</time></trkpt><trkpt lat="43.4146217" lon="10.5579083"><ele>224.8</ele><time>2026-04-04T10:10:35.013Z</time></trkpt><trkpt lat="43.4146867" lon="10.5578467"><ele>224.6</ele><time>2026-04-04T10:10:36.013Z</time></trkpt><trkpt lat="43.4147733" lon="10.5578583"><ele>224.39999999999998</ele><time>2026-04-04T10:10:37.01Z</time></trkpt><trkpt lat="43.4148567" lon="10.5579283"><ele>224.2</ele><time>2026-04-04T10:10:38.01Z</time></trkpt><trkpt lat="43.4149583" lon="10.5580267"><ele>224.0</ele><time>2026-04-04T10:10:39.013Z</time></trkpt><trkpt lat="43.4150767" lon="10.5580983"><ele>226.33333333333334</ele><time>2026-04-04T10:10:40.012Z</time></trkpt><trkpt lat="43.41522" lon="10.55811"><ele>228.66666666666669</ele><time>2026-04-04T10:10:41.012Z</time></trkpt><trkpt lat="43.41536" lon="10.558025"><ele>231.0</ele><time>2026-04-04T10:10:42.014Z</time></trkpt><trkpt lat="43.4154917" lon="10.55787"><ele>228.66666666666669</ele><time>2026-04-04T10:10:43.012Z</time></trkpt><trkpt lat="43.4156083" lon="10.557675"><ele>226.33333333333334</ele><time>2026-04-04T10:10:44.017Z</time></trkpt><trkpt lat="43.4157117" lon="10.5574583"><ele>224.0</ele><time>2026-04-04T10:10:45.012Z</time></trkpt><trkpt lat="43.4157967" lon="10.5572467"><ele>224.0</ele><time>2026-04-04T10:10:46.013Z</time></trkpt><trkpt lat="43.41586" lon="10.5570383"><ele>224.0</ele><time>2026-04-04T10:10:47.011Z</time></trkpt><trkpt lat="43.4158817" lon="10.556835"><ele>224.0</ele><time>2026-04-04T10:10:48.013Z</time></trkpt><trkpt lat="43.41586" lon="10.5566233"><ele>223.66666666666669</ele><time>2026-04-04T10:10:49.013Z</time></trkpt><trkpt lat="43.4158067" lon="10.5564133"><ele>223.33333333333331</ele><time>2026-04-04T10:10:50.012Z</time></trkpt><trkpt lat="43.4157483" lon="10.5561833"><ele>223.0</ele><time>2026-04-04T10:10:51.012Z</time></trkpt><trkpt lat="43.4157" lon="10.5559367"><ele>223.0</ele><time>2026-04-04T10:10:52.014Z</time></trkpt><trkpt lat="43.4156517" lon="10.5556683"><ele>223.0</ele><time>2026-04-04T10:10:53.012Z</time></trkpt><trkpt lat="43.41559" lon="10.555395"><ele>223.0</ele><time>2026-04-04T10:10:54.013Z</time></trkpt><trkpt lat="43.4155033" lon="10.5551283"><ele>217.33333333333331</ele><time>2026-04-04T10:10:55.012Z</time></trkpt><trkpt lat="43.4153967" lon="10.5548717"><ele>211.66666666666669</ele><time>2026-04-04T10:10:56.012Z</time></trkpt><trkpt lat="43.4152867" lon="10.5546217"><ele>206.0</ele><time>2026-04-04T10:10:57.011Z</time></trkpt><trkpt lat="43.41519" lon="10.5543767"><ele>206.0</ele><time>2026-04-04T10:10:58.012Z</time></trkpt><trkpt lat="43.415105" lon="10.554125"><ele>206.0</ele><time>2026-04-04T10:10:59.011Z</time></trkpt><trkpt lat="43.415025" lon="10.5538817"><ele>206.0</ele><time>2026-04-04T10:11:00.012Z</time></trkpt><trkpt lat="43.4149467" lon="10.5536567"><ele>207.66666666666669</ele><time>2026-04-04T10:11:01.012Z</time></trkpt><trkpt lat="43.4148833" lon="10.553435"><ele>209.33333333333331</ele><time>2026-04-04T10:11:02.013Z</time></trkpt><trkpt lat="43.4148467" lon="10.5531883"><ele>211.0</ele><time>2026-04-04T10:11:03.012Z</time></trkpt><trkpt lat="43.4148417" lon="10.5529283"><ele>210.66666666666666</ele><time>2026-04-04T10:11:04.012Z</time></trkpt><trkpt lat="43.4148383" lon="10.5526567"><ele>210.33333333333331</ele><time>2026-04-04T10:11:05.012Z</time></trkpt><trkpt lat="43.41482" lon="10.55238"><ele>210.0</ele><time>2026-04-04T10:11:06.013Z</time></trkpt><trkpt lat="43.4147883" lon="10.5520833"><ele>209.0</ele><time>2026-04-04T10:11:07.011Z</time></trkpt><trkpt lat="43.414735" lon="10.5517933"><ele>208.0</ele><time>2026-04-04T10:11:08.012Z</time></trkpt><trkpt lat="43.4146817" lon="10.5515033"><ele>207.0</ele><time>2026-04-04T10:11:09.012Z</time></trkpt><trkpt lat="43.41463" lon="10.5512067"><ele>196.0</ele><time>2026-04-04T10:11:10.012Z</time></trkpt><trkpt lat="43.4145767" lon="10.5509067"><ele>185.0</ele><time>2026-04-04T10:11:11.012Z</time></trkpt><trkpt lat="43.4145167" lon="10.5506"><ele>186.0</ele><time>2026-04-04T10:11:12.012Z</time></trkpt><trkpt lat="43.4144583" lon="10.550295"><ele>187.0</ele><time>2026-04-04T10:11:13.013Z</time></trkpt><trkpt lat="43.4143983" lon="10.5499917"><ele>187.0</ele><time>2026-04-04T10:11:14.012Z</time></trkpt><trkpt lat="43.4143417" lon="10.54968"><ele>187.0</ele><time>2026-04-04T10:11:15.013Z</time></trkpt><trkpt lat="43.41429" lon="10.549365"><ele>185.5</ele><time>2026-04-04T10:11:16.011Z</time></trkpt><trkpt lat="43.4142317" lon="10.549055"><ele>184.0</ele><time>2026-04-04T10:11:17.011Z</time></trkpt><trkpt lat="43.4141717" lon="10.5487467"><ele>184.5</ele><time>2026-04-04T10:11:18.012Z</time></trkpt><trkpt lat="43.414115" lon="10.5484433"><ele>185.0</ele><time>2026-04-04T10:11:19.012Z</time></trkpt><trkpt lat="43.4140617" lon="10.54814"><ele>187.0</ele><time>2026-04-04T10:11:20.013Z</time></trkpt><trkpt lat="43.4140067" lon="10.54784"><ele>189.0</ele><time>2026-04-04T10:11:21.014Z</time></trkpt><trkpt lat="43.4139517" lon="10.5475367"><ele>189.0</ele><time>2026-04-04T10:11:22.013Z</time></trkpt><trkpt lat="43.413895" lon="10.547235"><ele>189.0</ele><time>2026-04-04T10:11:23.012Z</time></trkpt><trkpt lat="43.4138383" lon="10.546935"><ele>177.0</ele><time>2026-04-04T10:11:24.013Z</time></trkpt><trkpt lat="43.4137767" lon="10.5466367"><ele>165.0</ele><time>2026-04-04T10:11:25.013Z</time></trkpt><trkpt lat="43.4137167" lon="10.5463367"><ele>167.5</ele><time>2026-04-04T10:11:26.013Z</time></trkpt><trkpt lat="43.4136583" lon="10.5460367"><ele>170.0</ele><time>2026-04-04T10:11:27.013Z</time></trkpt><trkpt lat="43.41361" lon="10.545735"><ele>170.0</ele><time>2026-04-04T10:11:28.012Z</time></trkpt><trkpt lat="43.41357" lon="10.54544"><ele>170.0</ele><time>2026-04-04T10:11:29.011Z</time></trkpt><trkpt lat="43.4135417" lon="10.5451667"><ele>170.0</ele><time>2026-04-04T10:11:30.012Z</time></trkpt><trkpt lat="43.413525" lon="10.544915"><ele>170.66666666666666</ele><time>2026-04-04T10:11:31.013Z</time></trkpt><trkpt lat="43.4135167" lon="10.544675"><ele>171.33333333333334</ele><time>2026-04-04T10:11:32.012Z</time></trkpt><trkpt lat="43.41351" lon="10.5444483"><ele>172.0</ele><time>2026-04-04T10:11:33.014Z</time></trkpt><trkpt lat="43.413495" lon="10.5442333"><ele>172.66666666666669</ele><time>2026-04-04T10:11:34.011Z</time></trkpt><trkpt lat="43.4134467" lon="10.5440383"><ele>173.33333333333334</ele><time>2026-04-04T10:11:35.012Z</time></trkpt><trkpt lat="43.4133633" lon="10.5438633"><ele>174.0</ele><time>2026-04-04T10:11:36.012Z</time></trkpt><trkpt lat="43.4132483" lon="10.5437267"><ele>175.0</ele><time>2026-04-04T10:11:37.012Z</time></trkpt><trkpt lat="43.4131333" lon="10.5436117"><ele>176.0</ele><time>2026-04-04T10:11:38.012Z</time></trkpt><trkpt lat="43.4130333" lon="10.5435083"><ele>177.0</ele><time>2026-04-04T10:11:39.013Z</time></trkpt><trkpt lat="43.4129533" lon="10.5433983"><ele>178.0</ele><time>2026-04-04T10:11:40.012Z</time></trkpt><trkpt lat="43.4129017" lon="10.543275"><ele>174.25</ele><time>2026-04-04T10:11:41.012Z</time></trkpt><trkpt lat="43.4128883" lon="10.5431283"><ele>170.5</ele><time>2026-04-04T10:11:42.014Z</time></trkpt><trkpt lat="43.412905" lon="10.54295"><ele>166.75</ele><time>2026-04-04T10:11:43.013Z</time></trkpt><trkpt lat="43.4129383" lon="10.5427417"><ele>163.0</ele><time>2026-04-04T10:11:44.01Z</time></trkpt><trkpt lat="43.412965" lon="10.5425133"><ele>162.66666666666669</ele><time>2026-04-04T10:11:45.011Z</time></trkpt><trkpt lat="43.4129767" lon="10.5422717"><ele>162.33333333333334</ele><time>2026-04-04T10:11:46.011Z</time></trkpt><trkpt lat="43.4129583" lon="10.5420217"><ele>162.0</ele><time>2026-04-04T10:11:47.012Z</time></trkpt><trkpt lat="43.4129033" lon="10.5417633"><ele>162.0</ele><time>2026-04-04T10:11:48.013Z</time></trkpt><trkpt lat="43.41283" lon="10.541495"><ele>162.0</ele><time>2026-04-04T10:11:49.012Z</time></trkpt><trkpt lat="43.41275" lon="10.5412317"><ele>162.0</ele><time>2026-04-04T10:11:50.012Z</time></trkpt><trkpt lat="43.412675" lon="10.54098"><ele>163.0</ele><time>2026-04-04T10:11:51.014Z</time></trkpt><trkpt lat="43.412605" lon="10.5407533"><ele>164.0</ele><time>2026-04-04T10:11:52.012Z</time></trkpt><trkpt lat="43.412535" lon="10.5405367"><ele>165.0</ele><time>2026-04-04T10:11:53.012Z</time></trkpt><trkpt lat="43.4124633" lon="10.5403217"><ele>165.0</ele><time>2026-04-04T10:11:54.012Z</time></trkpt><trkpt lat="43.4123933" lon="10.5401017"><ele>165.0</ele><time>2026-04-04T10:11:55.013Z</time></trkpt><trkpt lat="43.4123183" lon="10.5398833"><ele>165.0</ele><time>2026-04-04T10:11:56.012Z</time></trkpt><trkpt lat="43.4122517" lon="10.5396567"><ele>164.0</ele><time>2026-04-04T10:11:57.012Z</time></trkpt><trkpt lat="43.4121867" lon="10.53943"><ele>163.0</ele><time>2026-04-04T10:11:58.012Z</time></trkpt><trkpt lat="43.41212" lon="10.5392033"><ele>162.0</ele><time>2026-04-04T10:11:59.014Z</time></trkpt><trkpt lat="43.4120483" lon="10.5389867"><ele>162.0</ele><time>2026-04-04T10:12:00.012Z</time></trkpt><trkpt lat="43.4119783" lon="10.5387667"><ele>162.0</ele><time>2026-04-04T10:12:01.013Z</time></trkpt><trkpt lat="43.41191" lon="10.5385317"><ele>162.0</ele><time>2026-04-04T10:12:02.01Z</time></trkpt><trkpt lat="43.4118417" lon="10.5382983"><ele>161.0</ele><time>2026-04-04T10:12:03.013Z</time></trkpt><trkpt lat="43.41177" lon="10.538065"><ele>160.0</ele><time>2026-04-04T10:12:04.011Z</time></trkpt><trkpt lat="43.4116933" lon="10.537835"><ele>159.0</ele><time>2026-04-04T10:12:05.012Z</time></trkpt><trkpt lat="43.4116183" lon="10.537595"><ele>158.0</ele><time>2026-04-04T10:12:06.011Z</time></trkpt><trkpt lat="43.4115467" lon="10.53736"><ele>157.0</ele><time>2026-04-04T10:12:07.012Z</time></trkpt><trkpt lat="43.4114733" lon="10.53712"><ele>156.0</ele><time>2026-04-04T10:12:08.012Z</time></trkpt><trkpt lat="43.41139" lon="10.5368783"><ele>152.33333333333334</ele><time>2026-04-04T10:12:09.012Z</time></trkpt><trkpt lat="43.4112983" lon="10.53663"><ele>148.66666666666669</ele><time>2026-04-04T10:12:10.013Z</time></trkpt><trkpt lat="43.4111983" lon="10.5363933"><ele>145.0</ele><time>2026-04-04T10:12:11.011Z</time></trkpt><trkpt lat="43.4110933" lon="10.5361517"><ele>145.0</ele><time>2026-04-04T10:12:12.011Z</time></trkpt><trkpt lat="43.41099" lon="10.5359183"><ele>145.0</ele><time>2026-04-04T10:12:13.01Z</time></trkpt><trkpt lat="43.4108883" lon="10.535675"><ele>145.0</ele><time>2026-04-04T10:12:14.014Z</time></trkpt><trkpt lat="43.4107883" lon="10.5354333"><ele>146.0</ele><time>2026-04-04T10:12:15.012Z</time></trkpt><trkpt lat="43.4106833" lon="10.535195"><ele>147.0</ele><time>2026-04-04T10:12:16.012Z</time></trkpt><trkpt lat="43.4105733" lon="10.5349617"><ele>148.0</ele><time>2026-04-04T10:12:17.012Z</time></trkpt><trkpt lat="43.4104583" lon="10.5347233"><ele>144.66666666666669</ele><time>2026-04-04T10:12:18.012Z</time></trkpt><trkpt lat="43.4103417" lon="10.534485"><ele>141.33333333333334</ele><time>2026-04-04T10:12:19.013Z</time></trkpt><trkpt lat="43.4102217" lon="10.5342483"><ele>138.0</ele><time>2026-04-04T10:12:20.012Z</time></trkpt><trkpt lat="43.4101033" lon="10.5340183"><ele>138.0</ele><time>2026-04-04T10:12:21.012Z</time></trkpt><trkpt lat="43.4099883" lon="10.5337983"><ele>138.0</ele><time>2026-04-04T10:12:22.012Z</time></trkpt><trkpt lat="43.40988" lon="10.5335833"><ele>138.0</ele><time>2026-04-04T10:12:23.012Z</time></trkpt><trkpt lat="43.409775" lon="10.5333817"><ele>138.33333333333334</ele><time>2026-04-04T10:12:24.012Z</time></trkpt><trkpt lat="43.40968" lon="10.533185"><ele>138.66666666666669</ele><time>2026-04-04T10:12:25.011Z</time></trkpt><trkpt lat="43.4096033" lon="10.5329833"><ele>139.0</ele><time>2026-04-04T10:12:26.012Z</time></trkpt><trkpt lat="43.40955" lon="10.532765"><ele>134.33333333333334</ele><time>2026-04-04T10:12:27.011Z</time></trkpt><trkpt lat="43.4095167" lon="10.53253"><ele>129.66666666666666</ele><time>2026-04-04T10:12:28.013Z</time></trkpt><trkpt lat="43.4094967" lon="10.5322767"><ele>125.0</ele><time>2026-04-04T10:12:29.014Z</time></trkpt><trkpt lat="43.409475" lon="10.5320167"><ele>123.33333333333333</ele><time>2026-04-04T10:12:30.013Z</time></trkpt><trkpt lat="43.4094417" lon="10.5317417"><ele>121.66666666666666</ele><time>2026-04-04T10:12:31.012Z</time></trkpt><trkpt lat="43.409395" lon="10.5314683"><ele>120.0</ele><time>2026-04-04T10:12:32.012Z</time></trkpt><trkpt lat="43.4093367" lon="10.531195"><ele>119.66666666666666</ele><time>2026-04-04T10:12:33.012Z</time></trkpt><trkpt lat="43.4092683" lon="10.5309233"><ele>119.33333333333333</ele><time>2026-04-04T10:12:34.012Z</time></trkpt><trkpt lat="43.4091967" lon="10.5306433"><ele>119.0</ele><time>2026-04-04T10:12:35.012Z</time></trkpt><trkpt lat="43.4091267" lon="10.5303633"><ele>117.33333333333333</ele><time>2026-04-04T10:12:36.012Z</time></trkpt><trkpt lat="43.4090533" lon="10.5300867"><ele>115.66666666666666</ele><time>2026-04-04T10:12:37.011Z</time></trkpt><trkpt lat="43.4089833" lon="10.5298067"><ele>114.0</ele><time>2026-04-04T10:12:38.011Z</time></trkpt><trkpt lat="43.408915" lon="10.52953"><ele>115.0</ele><time>2026-04-04T10:12:39.013Z</time></trkpt><trkpt lat="43.4088433" lon="10.529265"><ele>116.0</ele><time>2026-04-04T10:12:40.012Z</time></trkpt><trkpt lat="43.4087733" lon="10.5290117"><ele>117.0</ele><time>2026-04-04T10:12:41.01Z</time></trkpt><trkpt lat="43.4087083" lon="10.5287717"><ele>114.33333333333334</ele><time>2026-04-04T10:12:42.012Z</time></trkpt><trkpt lat="43.40865" lon="10.52854"><ele>111.66666666666667</ele><time>2026-04-04T10:12:43.012Z</time></trkpt><trkpt lat="43.40861" lon="10.5283117"><ele>109.0</ele><time>2026-04-04T10:12:44.014Z</time></trkpt><trkpt lat="43.408595" lon="10.528105"><ele>109.0</ele><time>2026-04-04T10:12:45.011Z</time></trkpt><trkpt lat="43.4086033" lon="10.5279183"><ele>109.0</ele><time>2026-04-04T10:12:46.013Z</time></trkpt><trkpt lat="43.40865" lon="10.5277483"><ele>109.0</ele><time>2026-04-04T10:12:47.013Z</time></trkpt><trkpt lat="43.4087267" lon="10.527585"><ele>109.0</ele><time>2026-04-04T10:12:48.012Z</time></trkpt><trkpt lat="43.4088133" lon="10.5274083"><ele>104.33333333333334</ele><time>2026-04-04T10:12:49.011Z</time></trkpt><trkpt lat="43.4088967" lon="10.5272017"><ele>99.66666666666667</ele><time>2026-04-04T10:12:50.012Z</time></trkpt><trkpt lat="43.4089667" lon="10.5269667"><ele>95.0</ele><time>2026-04-04T10:12:51.012Z</time></trkpt><trkpt lat="43.40903" lon="10.52672"><ele>93.66666666666667</ele><time>2026-04-04T10:12:52.012Z</time></trkpt><trkpt lat="43.4090733" lon="10.5264633"><ele>92.33333333333333</ele><time>2026-04-04T10:12:53.012Z</time></trkpt><trkpt lat="43.4091133" lon="10.52621"><ele>91.0</ele><time>2026-04-04T10:12:54.011Z</time></trkpt><trkpt lat="43.409155" lon="10.525965"><ele>90.0</ele><time>2026-04-04T10:12:55.012Z</time></trkpt><trkpt lat="43.409195" lon="10.5257333"><ele>89.0</ele><time>2026-04-04T10:12:56.012Z</time></trkpt><trkpt lat="43.4092167" lon="10.5255033"><ele>88.0</ele><time>2026-04-04T10:12:57.011Z</time></trkpt><trkpt lat="43.40921" lon="10.5252817"><ele>87.0</ele><time>2026-04-04T10:12:58.012Z</time></trkpt><trkpt lat="43.409185" lon="10.52505"><ele>86.0</ele><time>2026-04-04T10:12:59.012Z</time></trkpt><trkpt lat="43.40914" lon="10.52481"><ele>85.0</ele><time>2026-04-04T10:13:00.011Z</time></trkpt><trkpt lat="43.409085" lon="10.524555"><ele>83.33333333333333</ele><time>2026-04-04T10:13:01.013Z</time></trkpt><trkpt lat="43.4090233" lon="10.5242933"><ele>81.66666666666667</ele><time>2026-04-04T10:13:02.012Z</time></trkpt><trkpt lat="43.4089583" lon="10.52402"><ele>80.0</ele><time>2026-04-04T10:13:03.012Z</time></trkpt><trkpt lat="43.4088883" lon="10.5237467"><ele>78.0</ele><time>2026-04-04T10:13:04.012Z</time></trkpt><trkpt lat="43.4088" lon="10.5234783"><ele>76.0</ele><time>2026-04-04T10:13:05.011Z</time></trkpt><trkpt lat="43.4086917" lon="10.5232233"><ele>74.0</ele><time>2026-04-04T10:13:06.012Z</time></trkpt><trkpt lat="43.4085617" lon="10.522995"><ele>74.33333333333334</ele><time>2026-04-04T10:13:07.012Z</time></trkpt><trkpt lat="43.4084283" lon="10.522765"><ele>74.66666666666667</ele><time>2026-04-04T10:13:08.013Z</time></trkpt><trkpt lat="43.408295" lon="10.5225383"><ele>75.0</ele><time>2026-04-04T10:13:09.011Z</time></trkpt><trkpt lat="43.4081683" lon="10.5223033"><ele>75.0</ele><time>2026-04-04T10:13:10.012Z</time></trkpt><trkpt lat="43.4080483" lon="10.52207"><ele>75.0</ele><time>2026-04-04T10:13:11.011Z</time></trkpt><trkpt lat="43.40793" lon="10.52183"><ele>75.0</ele><time>2026-04-04T10:13:12.011Z</time></trkpt><trkpt lat="43.407815" lon="10.5215767"><ele>72.5</ele><time>2026-04-04T10:13:13.013Z</time></trkpt><trkpt lat="43.4076983" lon="10.521315"><ele>70.0</ele><time>2026-04-04T10:13:14.011Z</time></trkpt><trkpt lat="43.407575" lon="10.5210467"><ele>68.0</ele><time>2026-04-04T10:13:15.012Z</time></trkpt><trkpt lat="43.4074533" lon="10.5207733"><ele>66.0</ele><time>2026-04-04T10:13:16.011Z</time></trkpt><trkpt lat="43.40733" lon="10.52049"><ele>63.0</ele><time>2026-04-04T10:13:17.012Z</time></trkpt><trkpt lat="43.407215" lon="10.5202033"><ele>60.0</ele><time>2026-04-04T10:13:18.01Z</time></trkpt><trkpt lat="43.4071083" lon="10.519915"><ele>58.0</ele><time>2026-04-04T10:13:19.012Z</time></trkpt><trkpt lat="43.4070033" lon="10.5196267"><ele>56.0</ele><time>2026-04-04T10:13:20.013Z</time></trkpt><trkpt lat="43.4069017" lon="10.5193317"><ele>55.5</ele><time>2026-04-04T10:13:21.011Z</time></trkpt><trkpt lat="43.4067983" lon="10.519045"><ele>55.0</ele><time>2026-04-04T10:13:22.013Z</time></trkpt><trkpt lat="43.4067" lon="10.5187567"><ele>55.0</ele><time>2026-04-04T10:13:23.012Z</time></trkpt><trkpt lat="43.4066017" lon="10.5184717"><ele>55.0</ele><time>2026-04-04T10:13:24.014Z</time></trkpt><trkpt lat="43.4065033" lon="10.518195"><ele>55.0</ele><time>2026-04-04T10:13:25.013Z</time></trkpt><trkpt lat="43.4064083" lon="10.5179167"><ele>55.0</ele><time>2026-04-04T10:13:26.011Z</time></trkpt><trkpt lat="43.406315" lon="10.5176467"><ele>55.0</ele><time>2026-04-04T10:13:27.012Z</time></trkpt><trkpt lat="43.4062217" lon="10.5173867"><ele>53.33333333333333</ele><time>2026-04-04T10:13:28.012Z</time></trkpt><trkpt lat="43.406125" lon="10.5171383"><ele>51.66666666666667</ele><time>2026-04-04T10:13:29.011Z</time></trkpt><trkpt lat="43.406015" lon="10.5169017"><ele>50.0</ele><time>2026-04-04T10:13:30.012Z</time></trkpt><trkpt lat="43.4058767" lon="10.51669"><ele>49.66666666666667</ele><time>2026-04-04T10:13:31.012Z</time></trkpt><trkpt lat="43.4057233" lon="10.5164983"><ele>49.33333333333333</ele><time>2026-04-04T10:13:32.011Z</time></trkpt><trkpt lat="43.4055617" lon="10.5163117"><ele>49.0</ele><time>2026-04-04T10:13:33.012Z</time></trkpt><trkpt lat="43.4054017" lon="10.5161333"><ele>48.0</ele><time>2026-04-04T10:13:34.012Z</time></trkpt><trkpt lat="43.4052467" lon="10.5159567"><ele>47.0</ele><time>2026-04-04T10:13:35.012Z</time></trkpt><trkpt lat="43.4050967" lon="10.5157933"><ele>46.0</ele><time>2026-04-04T10:13:36.011Z</time></trkpt><trkpt lat="43.4049533" lon="10.515645"><ele>46.0</ele><time>2026-04-04T10:13:37.011Z</time></trkpt><trkpt lat="43.4048283" lon="10.5154883"><ele>46.0</ele><time>2026-04-04T10:13:38.012Z</time></trkpt><trkpt lat="43.40472" lon="10.5153217"><ele>46.0</ele><time>2026-04-04T10:13:39.013Z</time></trkpt><trkpt lat="43.4046283" lon="10.5151317"><ele>43.66666666666667</ele><time>2026-04-04T10:13:40.013Z</time></trkpt><trkpt lat="43.4045617" lon="10.51491"><ele>41.333333333333336</ele><time>2026-04-04T10:13:41.013Z</time></trkpt><trkpt lat="43.4045117" lon="10.5146567"><ele>39.0</ele><time>2026-04-04T10:13:42.013Z</time></trkpt><trkpt lat="43.4044733" lon="10.514385"><ele>38.333333333333336</ele><time>2026-04-04T10:13:43.013Z</time></trkpt><trkpt lat="43.4044233" lon="10.5141083"><ele>37.66666666666667</ele><time>2026-04-04T10:13:44.012Z</time></trkpt><trkpt lat="43.4043617" lon="10.5138267"><ele>37.0</ele><time>2026-04-04T10:13:45.011Z</time></trkpt><trkpt lat="43.4042833" lon="10.5135483"><ele>36.333333333333336</ele><time>2026-04-04T10:13:46.013Z</time></trkpt><trkpt lat="43.4041883" lon="10.513285"><ele>35.666666666666664</ele><time>2026-04-04T10:13:47.013Z</time></trkpt><trkpt lat="43.40408" lon="10.5130317"><ele>35.0</ele><time>2026-04-04T10:13:48.012Z</time></trkpt><trkpt lat="43.40396" lon="10.5127833"><ele>33.666666666666664</ele><time>2026-04-04T10:13:49.014Z</time></trkpt><trkpt lat="43.403825" lon="10.5125467"><ele>32.333333333333336</ele><time>2026-04-04T10:13:50.011Z</time></trkpt><trkpt lat="43.403685" lon="10.5123133"><ele>31.0</ele><time>2026-04-04T10:13:51.013Z</time></trkpt><trkpt lat="43.4035467" lon="10.51208"><ele>30.333333333333336</ele><time>2026-04-04T10:13:52.013Z</time></trkpt><trkpt lat="43.4034067" lon="10.511845"><ele>29.666666666666664</ele><time>2026-04-04T10:13:53.011Z</time></trkpt><trkpt lat="43.4032633" lon="10.5116183"><ele>29.0</ele><time>2026-04-04T10:13:54.012Z</time></trkpt><trkpt lat="43.4031233" lon="10.5113983"><ele>29.666666666666664</ele><time>2026-04-04T10:13:55.01Z</time></trkpt><trkpt lat="43.40298" lon="10.5111817"><ele>30.333333333333336</ele><time>2026-04-04T10:13:56.012Z</time></trkpt><trkpt lat="43.40284" lon="10.5109583"><ele>31.0</ele><time>2026-04-04T10:13:57.012Z</time></trkpt><trkpt lat="43.4027017" lon="10.5107317"><ele>31.0</ele><time>2026-04-04T10:13:58.012Z</time></trkpt><trkpt lat="43.402565" lon="10.5105"><ele>31.0</ele><time>2026-04-04T10:13:59.01Z</time></trkpt><trkpt lat="43.4024183" lon="10.51027"><ele>31.0</ele><time>2026-04-04T10:14:00.012Z</time></trkpt><trkpt lat="43.40227" lon="10.5100433"><ele>30.333333333333336</ele><time>2026-04-04T10:14:01.012Z</time></trkpt><trkpt lat="43.40212" lon="10.5098183"><ele>29.666666666666664</ele><time>2026-04-04T10:14:02.011Z</time></trkpt><trkpt lat="43.4019767" lon="10.5095817"><ele>29.0</ele><time>2026-04-04T10:14:03.014Z</time></trkpt><trkpt lat="43.4018467" lon="10.5093367"><ele>29.0</ele><time>2026-04-04T10:14:04.012Z</time></trkpt><trkpt lat="43.4017333" lon="10.509075"><ele>29.0</ele><time>2026-04-04T10:14:05.009Z</time></trkpt><trkpt lat="43.4016333" lon="10.508795"><ele>29.0</ele><time>2026-04-04T10:14:06.012Z</time></trkpt><trkpt lat="43.4015467" lon="10.5085083"><ele>28.666666666666664</ele><time>2026-04-04T10:14:07.011Z</time></trkpt><trkpt lat="43.4014633" lon="10.5082217"><ele>28.333333333333336</ele><time>2026-04-04T10:14:08.012Z</time></trkpt><trkpt lat="43.401385" lon="10.507935"><ele>28.0</ele><time>2026-04-04T10:14:09.012Z</time></trkpt><trkpt lat="43.4013017" lon="10.5076633"><ele>28.0</ele><time>2026-04-04T10:14:10.012Z</time></trkpt><trkpt lat="43.401225" lon="10.5074"><ele>28.0</ele><time>2026-04-04T10:14:11.012Z</time></trkpt><trkpt lat="43.4011517" lon="10.507145"><ele>28.0</ele><time>2026-04-04T10:14:12.01Z</time></trkpt><trkpt lat="43.4010767" lon="10.5068933"><ele>28.0</ele><time>2026-04-04T10:14:13.011Z</time></trkpt><trkpt lat="43.4010033" lon="10.506645"><ele>28.0</ele><time>2026-04-04T10:14:14.011Z</time></trkpt><trkpt lat="43.4009317" lon="10.5064"><ele>28.0</ele><time>2026-04-04T10:14:15.01Z</time></trkpt><trkpt lat="43.4008633" lon="10.5061567"><ele>28.0</ele><time>2026-04-04T10:14:16.01Z</time></trkpt><trkpt lat="43.4007967" lon="10.505915"><ele>28.0</ele><time>2026-04-04T10:14:17.011Z</time></trkpt><trkpt lat="43.4007267" lon="10.505675"><ele>28.0</ele><time>2026-04-04T10:14:18.011Z</time></trkpt><trkpt lat="43.400655" lon="10.5054417"><ele>28.666666666666668</ele><time>2026-04-04T10:14:19.012Z</time></trkpt><trkpt lat="43.40059" lon="10.5052167"><ele>29.333333333333336</ele><time>2026-04-04T10:14:20.011Z</time></trkpt><trkpt lat="43.4005283" lon="10.505"><ele>30.0</ele><time>2026-04-04T10:14:21.012Z</time></trkpt><trkpt lat="43.4004683" lon="10.50478"><ele>28.0</ele><time>2026-04-04T10:14:22.011Z</time></trkpt><trkpt lat="43.4004067" lon="10.5045617"><ele>26.0</ele><time>2026-04-04T10:14:23.012Z</time></trkpt><trkpt lat="43.4003467" lon="10.5043517"><ele>24.0</ele><time>2026-04-04T10:14:24.011Z</time></trkpt><trkpt lat="43.40029" lon="10.5041517"><ele>24.0</ele><time>2026-04-04T10:14:25.01Z</time></trkpt><trkpt lat="43.400235" lon="10.5039617"><ele>24.0</ele><time>2026-04-04T10:14:26.01Z</time></trkpt><trkpt lat="43.400185" lon="10.5037833"><ele>24.0</ele><time>2026-04-04T10:14:27.011Z</time></trkpt><trkpt lat="43.4001367" lon="10.503615"><ele>24.0</ele><time>2026-04-04T10:14:28.011Z</time></trkpt><trkpt lat="43.4000917" lon="10.50346"><ele>24.2</ele><time>2026-04-04T10:14:29.012Z</time></trkpt><trkpt lat="43.4000467" lon="10.50332"><ele>24.4</ele><time>2026-04-04T10:14:30.012Z</time></trkpt><trkpt lat="43.400005" lon="10.50319"><ele>24.6</ele><time>2026-04-04T10:14:31.01Z</time></trkpt><trkpt lat="43.3999617" lon="10.5030633"><ele>24.8</ele><time>2026-04-04T10:14:32.012Z</time></trkpt><trkpt lat="43.399915" lon="10.5029317"><ele>25.0</ele><time>2026-04-04T10:14:33.012Z</time></trkpt><trkpt lat="43.3998617" lon="10.5027967"><ele>25.25</ele><time>2026-04-04T10:14:34.01Z</time></trkpt><trkpt lat="43.3998" lon="10.5026583"><ele>25.5</ele><time>2026-04-04T10:14:35.009Z</time></trkpt><trkpt lat="43.39973" lon="10.502505"><ele>25.75</ele><time>2026-04-04T10:14:36.01Z</time></trkpt><trkpt lat="43.399655" lon="10.5023367"><ele>26.0</ele><time>2026-04-04T10:14:37.01Z</time></trkpt><trkpt lat="43.3995767" lon="10.5021517"><ele>25.333333333333332</ele><time>2026-04-04T10:14:38.011Z</time></trkpt><trkpt lat="43.399495" lon="10.5019633"><ele>24.666666666666664</ele><time>2026-04-04T10:14:39.01Z</time></trkpt><trkpt lat="43.399405" lon="10.501765"><ele>24.0</ele><time>2026-04-04T10:14:40.01Z</time></trkpt><trkpt lat="43.3993067" lon="10.5015717"><ele>24.0</ele><time>2026-04-04T10:14:41.012Z</time></trkpt><trkpt lat="43.39921" lon="10.5013733"><ele>24.0</ele><time>2026-04-04T10:14:42.011Z</time></trkpt><trkpt lat="43.3991217" lon="10.5011667"><ele>24.0</ele><time>2026-04-04T10:14:43.009Z</time></trkpt><trkpt lat="43.3990367" lon="10.5009567"><ele>24.666666666666664</ele><time>2026-04-04T10:14:44.011Z</time></trkpt><trkpt lat="43.3989583" lon="10.5007417"><ele>25.333333333333332</ele><time>2026-04-04T10:14:45.011Z</time></trkpt><trkpt lat="43.3988917" lon="10.5005133"><ele>26.0</ele><time>2026-04-04T10:14:46.011Z</time></trkpt><trkpt lat="43.3988333" lon="10.50028"><ele>23.666666666666664</ele><time>2026-04-04T10:14:47.01Z</time></trkpt><trkpt lat="43.3987867" lon="10.5000367"><ele>21.333333333333332</ele><time>2026-04-04T10:14:48.012Z</time></trkpt><trkpt lat="43.3987417" lon="10.4997917"><ele>19.0</ele><time>2026-04-04T10:14:49.009Z</time></trkpt><trkpt lat="43.3987033" lon="10.4995483"><ele>19.0</ele><time>2026-04-04T10:14:50.012Z</time></trkpt><trkpt lat="43.3986683" lon="10.4993233"><ele>19.0</ele><time>2026-04-04T10:14:51.012Z</time></trkpt><trkpt lat="43.3986333" lon="10.4991133"><ele>19.0</ele><time>2026-04-04T10:14:52.01Z</time></trkpt><trkpt lat="43.3986017" lon="10.49892"><ele>19.75</ele><time>2026-04-04T10:14:53.012Z</time></trkpt><trkpt lat="43.3985767" lon="10.498745"><ele>20.5</ele><time>2026-04-04T10:14:54.011Z</time></trkpt><trkpt lat="43.3985517" lon="10.49858"><ele>21.25</ele><time>2026-04-04T10:14:55.01Z</time></trkpt><trkpt lat="43.3985167" lon="10.4984217"><ele>22.0</ele><time>2026-04-04T10:14:56.012Z</time></trkpt><trkpt lat="43.398485" lon="10.498255"><ele>22.0</ele><time>2026-04-04T10:14:57.011Z</time></trkpt><trkpt lat="43.398455" lon="10.498075"><ele>22.0</ele><time>2026-04-04T10:14:58.011Z</time></trkpt><trkpt lat="43.3984217" lon="10.49789"><ele>22.0</ele><time>2026-04-04T10:14:59.011Z</time></trkpt><trkpt lat="43.3983933" lon="10.49771"><ele>22.0</ele><time>2026-04-04T10:15:00.013Z</time></trkpt><trkpt lat="43.3983667" lon="10.49755"><ele>21.75</ele><time>2026-04-04T10:15:01.012Z</time></trkpt><trkpt lat="43.3983417" lon="10.4974"><ele>21.5</ele><time>2026-04-04T10:15:02.012Z</time></trkpt><trkpt lat="43.398315" lon="10.497245"><ele>21.25</ele><time>2026-04-04T10:15:03.011Z</time></trkpt><trkpt lat="43.3982817" lon="10.4970867"><ele>21.0</ele><time>2026-04-04T10:15:04.012Z</time></trkpt><trkpt lat="43.3982517" lon="10.496925"><ele>21.0</ele><time>2026-04-04T10:15:05.011Z</time></trkpt><trkpt lat="43.398225" lon="10.4967733"><ele>21.0</ele><time>2026-04-04T10:15:06.012Z</time></trkpt><trkpt lat="43.3982033" lon="10.4966367"><ele>21.0</ele><time>2026-04-04T10:15:07.012Z</time></trkpt><trkpt lat="43.3981867" lon="10.496515"><ele>21.0</ele><time>2026-04-04T10:15:08.011Z</time></trkpt><trkpt lat="43.39817" lon="10.4964133"><ele>21.0</ele><time>2026-04-04T10:15:09.012Z</time></trkpt><trkpt lat="43.3981567" lon="10.4963267"><ele>21.0</ele><time>2026-04-04T10:15:10.011Z</time></trkpt><trkpt lat="43.3981667" lon="10.496215"><ele>20.5</ele><time>2026-04-04T10:15:12.013Z</time></trkpt><trkpt lat="43.3982217" lon="10.496145"><ele>20.0</ele><time>2026-04-04T10:15:14.01Z</time></trkpt><trkpt lat="43.3982833" lon="10.4961133"><ele>19.5</ele><time>2026-04-04T10:15:15.01Z</time></trkpt><trkpt lat="43.39836" lon="10.4960933"><ele>19.0</ele><time>2026-04-04T10:15:16.01Z</time></trkpt><trkpt lat="43.39845" lon="10.4960717"><ele>18.5</ele><time>2026-04-04T10:15:17.012Z</time></trkpt><trkpt lat="43.39855" lon="10.4960467"><ele>18.0</ele><time>2026-04-04T10:15:18.011Z</time></trkpt><trkpt lat="43.3986667" lon="10.4960067"><ele>18.0</ele><time>2026-04-04T10:15:19.013Z</time></trkpt><trkpt lat="43.3987867" lon="10.49595"><ele>18.0</ele><time>2026-04-04T10:15:20.012Z</time></trkpt><trkpt lat="43.3989117" lon="10.4958817"><ele>18.0</ele><time>2026-04-04T10:15:21.012Z</time></trkpt><trkpt lat="43.39904" lon="10.4958"><ele>18.0</ele><time>2026-04-04T10:15:22.013Z</time></trkpt><trkpt lat="43.39917" lon="10.4957083"><ele>18.666666666666668</ele><time>2026-04-04T10:15:23.012Z</time></trkpt><trkpt lat="43.3992983" lon="10.4955983"><ele>19.333333333333336</ele><time>2026-04-04T10:15:24.012Z</time></trkpt><trkpt lat="43.3994267" lon="10.4954817"><ele>20.0</ele><time>2026-04-04T10:15:25.012Z</time></trkpt><trkpt lat="43.3995533" lon="10.49536"><ele>19.666666666666668</ele><time>2026-04-04T10:15:26.013Z</time></trkpt><trkpt lat="43.3996733" lon="10.4952183"><ele>19.333333333333332</ele><time>2026-04-04T10:15:27.012Z</time></trkpt><trkpt lat="43.3997967" lon="10.495065"><ele>19.0</ele><time>2026-04-04T10:15:28.012Z</time></trkpt><trkpt lat="43.39992" lon="10.494905"><ele>19.0</ele><time>2026-04-04T10:15:29.013Z</time></trkpt><trkpt lat="43.4000333" lon="10.4947417"><ele>19.0</ele><time>2026-04-04T10:15:30.012Z</time></trkpt><trkpt lat="43.4001433" lon="10.4945783"><ele>19.0</ele><time>2026-04-04T10:15:31.013Z</time></trkpt><trkpt lat="43.40025" lon="10.4944233"><ele>19.0</ele><time>2026-04-04T10:15:32.012Z</time></trkpt><trkpt lat="43.4003467" lon="10.49428"><ele>19.0</ele><time>2026-04-04T10:15:33.011Z</time></trkpt><trkpt lat="43.4004433" lon="10.4941383"><ele>19.0</ele><time>2026-04-04T10:15:34.011Z</time></trkpt><trkpt lat="43.4005467" lon="10.4939933"><ele>19.0</ele><time>2026-04-04T10:15:35.011Z</time></trkpt><trkpt lat="43.4006533" lon="10.4938383"><ele>18.333333333333332</ele><time>2026-04-04T10:15:36.013Z</time></trkpt><trkpt lat="43.4007683" lon="10.4936717"><ele>17.666666666666668</ele><time>2026-04-04T10:15:37.011Z</time></trkpt><trkpt lat="43.400885" lon="10.4934933"><ele>17.0</ele><time>2026-04-04T10:15:38.01Z</time></trkpt><trkpt lat="43.4010133" lon="10.493305"><ele>17.0</ele><time>2026-04-04T10:15:39.013Z</time></trkpt><trkpt lat="43.401145" lon="10.4931133"><ele>17.0</ele><time>2026-04-04T10:15:40.011Z</time></trkpt><trkpt lat="43.4012767" lon="10.4929183"><ele>17.0</ele><time>2026-04-04T10:15:41.012Z</time></trkpt><trkpt lat="43.4014083" lon="10.4927133"><ele>17.666666666666668</ele><time>2026-04-04T10:15:42.012Z</time></trkpt><trkpt lat="43.4015433" lon="10.4925067"><ele>18.333333333333332</ele><time>2026-04-04T10:15:43.011Z</time></trkpt><trkpt lat="43.4016733" lon="10.4922967"><ele>19.0</ele><time>2026-04-04T10:15:44.011Z</time></trkpt><trkpt lat="43.4018083" lon="10.4920883"><ele>19.0</ele><time>2026-04-04T10:15:45.011Z</time></trkpt><trkpt lat="43.4019383" lon="10.4918767"><ele>19.0</ele><time>2026-04-04T10:15:46.01Z</time></trkpt><trkpt lat="43.4020717" lon="10.4916683"><ele>19.0</ele><time>2026-04-04T10:15:47.01Z</time></trkpt><trkpt lat="43.4022083" lon="10.49146"><ele>19.666666666666664</ele><time>2026-04-04T10:15:48.013Z</time></trkpt><trkpt lat="43.4023483" lon="10.491255"><ele>20.333333333333332</ele><time>2026-04-04T10:15:49.012Z</time></trkpt><trkpt lat="43.4024833" lon="10.4910483"><ele>21.0</ele><time>2026-04-04T10:15:50.011Z</time></trkpt><trkpt lat="43.4026217" lon="10.49085"><ele>21.0</ele><time>2026-04-04T10:15:51.013Z</time></trkpt><trkpt lat="43.4027717" lon="10.4906767"><ele>21.0</ele><time>2026-04-04T10:15:52.012Z</time></trkpt><trkpt lat="43.402935" lon="10.4905317"><ele>21.0</ele><time>2026-04-04T10:15:53.012Z</time></trkpt><trkpt lat="43.4031083" lon="10.49042"><ele>21.666666666666668</ele><time>2026-04-04T10:15:54.01Z</time></trkpt><trkpt lat="43.40329" lon="10.4903417"><ele>22.333333333333336</ele><time>2026-04-04T10:15:55.01Z</time></trkpt><trkpt lat="43.403485" lon="10.4902933"><ele>23.0</ele><time>2026-04-04T10:15:56.012Z</time></trkpt><trkpt lat="43.4036867" lon="10.4902567"><ele>23.0</ele><time>2026-04-04T10:15:57.012Z</time></trkpt><trkpt lat="43.4038917" lon="10.4902267"><ele>23.0</ele><time>2026-04-04T10:15:58.011Z</time></trkpt><trkpt lat="43.404095" lon="10.4901983"><ele>23.0</ele><time>2026-04-04T10:15:59.011Z</time></trkpt><trkpt lat="43.4043" lon="10.4901717"><ele>23.0</ele><time>2026-04-04T10:16:00.012Z</time></trkpt><trkpt lat="43.4045033" lon="10.4901633"><ele>23.0</ele><time>2026-04-04T10:16:01.012Z</time></trkpt><trkpt lat="43.4047017" lon="10.49018"><ele>23.0</ele><time>2026-04-04T10:16:02.014Z</time></trkpt><trkpt lat="43.4048967" lon="10.4901983"><ele>23.666666666666668</ele><time>2026-04-04T10:16:03.013Z</time></trkpt><trkpt lat="43.4050883" lon="10.4902467"><ele>24.333333333333336</ele><time>2026-04-04T10:16:04.012Z</time></trkpt><trkpt lat="43.4052733" lon="10.4903217"><ele>25.0</ele><time>2026-04-04T10:16:05.01Z</time></trkpt><trkpt lat="43.4054567" lon="10.4903917"><ele>26.333333333333336</ele><time>2026-04-04T10:16:06.011Z</time></trkpt><trkpt lat="43.40563" lon="10.4904633"><ele>27.666666666666664</ele><time>2026-04-04T10:16:07.012Z</time></trkpt><trkpt lat="43.4057983" lon="10.49054"><ele>29.0</ele><time>2026-04-04T10:16:08.011Z</time></trkpt><trkpt lat="43.405965" lon="10.49062"><ele>29.0</ele><time>2026-04-04T10:16:09.011Z</time></trkpt><trkpt lat="43.4061333" lon="10.49071"><ele>29.0</ele><time>2026-04-04T10:16:10.013Z</time></trkpt><trkpt lat="43.40629" lon="10.4908"><ele>29.0</ele><time>2026-04-04T10:16:11.012Z</time></trkpt><trkpt lat="43.4064383" lon="10.490875"><ele>28.0</ele><time>2026-04-04T10:16:12.011Z</time></trkpt><trkpt lat="43.40657" lon="10.4909417"><ele>27.0</ele><time>2026-04-04T10:16:13.011Z</time></trkpt><trkpt lat="43.4066817" lon="10.491"><ele>26.0</ele><time>2026-04-04T10:16:14.011Z</time></trkpt><trkpt lat="43.406775" lon="10.4910317"><ele>25.0</ele><time>2026-04-04T10:16:15.012Z</time></trkpt><trkpt lat="43.40686" lon="10.4910417"><ele>24.0</ele><time>2026-04-04T10:16:16.012Z</time></trkpt><trkpt lat="43.406955" lon="10.4909217"><ele>24.0</ele><time>2026-04-04T10:16:18.012Z</time></trkpt><trkpt lat="43.4069883" lon="10.4908417"><ele>24.0</ele><time>2026-04-04T10:16:19.012Z</time></trkpt><trkpt lat="43.40701" lon="10.49074"><ele>24.0</ele><time>2026-04-04T10:16:20.01Z</time></trkpt><trkpt lat="43.407005" lon="10.4905633"><ele>24.0</ele><time>2026-04-04T10:16:21.012Z</time></trkpt><trkpt lat="43.4069633" lon="10.490345"><ele>24.0</ele><time>2026-04-04T10:16:22.012Z</time></trkpt><trkpt lat="43.4068983" lon="10.4901283"><ele>26.666666666666664</ele><time>2026-04-04T10:16:23.012Z</time></trkpt><trkpt lat="43.40682" lon="10.4899317"><ele>29.333333333333332</ele><time>2026-04-04T10:16:24.012Z</time></trkpt><trkpt lat="43.4067233" lon="10.4897467"><ele>32.0</ele><time>2026-04-04T10:16:25.01Z</time></trkpt><trkpt lat="43.4066" lon="10.4896033"><ele>32.25</ele><time>2026-04-04T10:16:26.012Z</time></trkpt><trkpt lat="43.4064667" lon="10.4894983"><ele>32.5</ele><time>2026-04-04T10:16:27.012Z</time></trkpt><trkpt lat="43.4063383" lon="10.4893983"><ele>32.75</ele><time>2026-04-04T10:16:28.011Z</time></trkpt><trkpt lat="43.4062133" lon="10.48931"><ele>33.0</ele><time>2026-04-04T10:16:29.012Z</time></trkpt><trkpt lat="43.4060933" lon="10.4892233"><ele>33.0</ele><time>2026-04-04T10:16:30.012Z</time></trkpt><trkpt lat="43.4059667" lon="10.4891633"><ele>33.0</ele><time>2026-04-04T10:16:31.012Z</time></trkpt><trkpt lat="43.405835" lon="10.4891117"><ele>33.0</ele><time>2026-04-04T10:16:32.012Z</time></trkpt><trkpt lat="43.4056967" lon="10.48906"><ele>33.0</ele><time>2026-04-04T10:16:33.013Z</time></trkpt><trkpt lat="43.4055533" lon="10.4890183"><ele>32.25</ele><time>2026-04-04T10:16:34.012Z</time></trkpt><trkpt lat="43.4054133" lon="10.488975"><ele>31.5</ele><time>2026-04-04T10:16:35.011Z</time></trkpt><trkpt lat="43.4052667" lon="10.48894"><ele>30.75</ele><time>2026-04-04T10:16:36.012Z</time></trkpt><trkpt lat="43.4051217" lon="10.488925"><ele>30.0</ele><time>2026-04-04T10:16:37.012Z</time></trkpt><trkpt lat="43.4049767" lon="10.4889167"><ele>30.0</ele><time>2026-04-04T10:16:38.012Z</time></trkpt><trkpt lat="43.40484" lon="10.4889117"><ele>30.0</ele><time>2026-04-04T10:16:39.012Z</time></trkpt><trkpt lat="43.4047083" lon="10.4889167"><ele>30.0</ele><time>2026-04-04T10:16:40.01Z</time></trkpt><trkpt lat="43.404575" lon="10.488935"><ele>30.0</ele><time>2026-04-04T10:16:41.011Z</time></trkpt><trkpt lat="43.4044417" lon="10.4889483"><ele>31.25</ele><time>2026-04-04T10:16:42.012Z</time></trkpt><trkpt lat="43.40431" lon="10.4889583"><ele>32.5</ele><time>2026-04-04T10:16:43.012Z</time></trkpt><trkpt lat="43.404175" lon="10.48896"><ele>33.75</ele><time>2026-04-04T10:16:44.01Z</time></trkpt><trkpt lat="43.404045" lon="10.4889583"><ele>35.0</ele><time>2026-04-04T10:16:45.011Z</time></trkpt><trkpt lat="43.403925" lon="10.488955"><ele>34.6</ele><time>2026-04-04T10:16:46.011Z</time></trkpt><trkpt lat="43.4038133" lon="10.4889567"><ele>34.2</ele><time>2026-04-04T10:16:47.01Z</time></trkpt><trkpt lat="43.4037083" lon="10.4889533"><ele>33.8</ele><time>2026-04-04T10:16:48.011Z</time></trkpt><trkpt lat="43.4036017" lon="10.4889333"><ele>33.4</ele><time>2026-04-04T10:16:49.011Z</time></trkpt><trkpt lat="43.4034933" lon="10.4889017"><ele>33.0</ele><time>2026-04-04T10:16:50.012Z</time></trkpt><trkpt lat="43.4033983" lon="10.48885"><ele>33.0</ele><time>2026-04-04T10:16:51.011Z</time></trkpt><trkpt lat="43.40331" lon="10.4887883"><ele>33.0</ele><time>2026-04-04T10:16:52.013Z</time></trkpt><trkpt lat="43.4032217" lon="10.4887133"><ele>33.0</ele><time>2026-04-04T10:16:53.012Z</time></trkpt><trkpt lat="43.40313" lon="10.4886383"><ele>33.0</ele><time>2026-04-04T10:16:54.011Z</time></trkpt><trkpt lat="43.403025" lon="10.4885783"><ele>33.0</ele><time>2026-04-04T10:16:55.01Z</time></trkpt><trkpt lat="43.4029083" lon="10.488545"><ele>39.0</ele><time>2026-04-04T10:16:56.011Z</time></trkpt><trkpt lat="43.4027867" lon="10.48853"><ele>45.0</ele><time>2026-04-04T10:16:57.011Z</time></trkpt><trkpt lat="43.4026683" lon="10.4885283"><ele>51.0</ele><time>2026-04-04T10:16:58.013Z</time></trkpt><trkpt lat="43.40255" lon="10.4885483"><ele>57.0</ele><time>2026-04-04T10:16:59.011Z</time></trkpt><trkpt lat="43.40243" lon="10.488575"><ele>57.0</ele><time>2026-04-04T10:17:00.012Z</time></trkpt><trkpt lat="43.4023133" lon="10.4886483"><ele>57.0</ele><time>2026-04-04T10:17:01.011Z</time></trkpt><trkpt lat="43.402195" lon="10.488745"><ele>57.0</ele><time>2026-04-04T10:17:02.011Z</time></trkpt><trkpt lat="43.40211" lon="10.48886"><ele>57.0</ele><time>2026-04-04T10:17:03.012Z</time></trkpt><trkpt lat="43.402025" lon="10.4889983"><ele>58.0</ele><time>2026-04-04T10:17:04.012Z</time></trkpt><trkpt lat="43.401945" lon="10.4891483"><ele>59.0</ele><time>2026-04-04T10:17:05.01Z</time></trkpt><trkpt lat="43.4018567" lon="10.489285"><ele>60.0</ele><time>2026-04-04T10:17:06.012Z</time></trkpt><trkpt lat="43.4017567" lon="10.4894033"><ele>61.0</ele><time>2026-04-04T10:17:07.011Z</time></trkpt><trkpt lat="43.401645" lon="10.4895183"><ele>58.75</ele><time>2026-04-04T10:17:08.012Z</time></trkpt><trkpt lat="43.4015383" lon="10.4896267"><ele>56.5</ele><time>2026-04-04T10:17:09.011Z</time></trkpt><trkpt lat="43.4014233" lon="10.48973"><ele>54.25</ele><time>2026-04-04T10:17:10.011Z</time></trkpt><trkpt lat="43.4012933" lon="10.4898167"><ele>52.0</ele><time>2026-04-04T10:17:11.012Z</time></trkpt><trkpt lat="43.4011483" lon="10.4898733"><ele>52.0</ele><time>2026-04-04T10:17:12.011Z</time></trkpt><trkpt lat="43.4009967" lon="10.4899167"><ele>52.0</ele><time>2026-04-04T10:17:13.011Z</time></trkpt><trkpt lat="43.40084" lon="10.48995"><ele>52.0</ele><time>2026-04-04T10:17:14.011Z</time></trkpt><trkpt lat="43.4006883" lon="10.4899733"><ele>52.0</ele><time>2026-04-04T10:17:15.011Z</time></trkpt><trkpt lat="43.400525" lon="10.4900083"><ele>52.0</ele><time>2026-04-04T10:17:16.012Z</time></trkpt><trkpt lat="43.4003667" lon="10.4900217"><ele>52.0</ele><time>2026-04-04T10:17:17.011Z</time></trkpt><trkpt lat="43.4002217" lon="10.4900017"><ele>50.666666666666664</ele><time>2026-04-04T10:17:18.012Z</time></trkpt><trkpt lat="43.4000917" lon="10.4899467"><ele>49.33333333333333</ele><time>2026-04-04T10:17:19.012Z</time></trkpt><trkpt lat="43.3999633" lon="10.4898467"><ele>48.0</ele><time>2026-04-04T10:17:20.012Z</time></trkpt><trkpt lat="43.3998233" lon="10.4897083"><ele>50.5</ele><time>2026-04-04T10:17:21.012Z</time></trkpt><trkpt lat="43.3996583" lon="10.4895333"><ele>53.0</ele><time>2026-04-04T10:17:22.012Z</time></trkpt><trkpt lat="43.3994667" lon="10.4893017"><ele>53.0</ele><time>2026-04-04T10:17:23.012Z</time></trkpt><trkpt lat="43.3992667" lon="10.4890517"><ele>53.0</ele><time>2026-04-04T10:17:24.012Z</time></trkpt><trkpt lat="43.399075" lon="10.4888233"><ele>53.66666666666667</ele><time>2026-04-04T10:17:25.011Z</time></trkpt><trkpt lat="43.3989" lon="10.4886183"><ele>54.33333333333333</ele><time>2026-04-04T10:17:26.012Z</time></trkpt><trkpt lat="43.39875" lon="10.4884233"><ele>55.0</ele><time>2026-04-04T10:17:27.012Z</time></trkpt><trkpt lat="43.3986367" lon="10.48823"><ele>53.666666666666664</ele><time>2026-04-04T10:17:28.011Z</time></trkpt><trkpt lat="43.3985667" lon="10.488025"><ele>52.33333333333333</ele><time>2026-04-04T10:17:29.012Z</time></trkpt><trkpt lat="43.3985367" lon="10.487805"><ele>51.0</ele><time>2026-04-04T10:17:30.012Z</time></trkpt><trkpt lat="43.398545" lon="10.4875867"><ele>50.33333333333333</ele><time>2026-04-04T10:17:31.011Z</time></trkpt><trkpt lat="43.3985883" lon="10.48737"><ele>49.666666666666664</ele><time>2026-04-04T10:17:32.009Z</time></trkpt><trkpt lat="43.3986617" lon="10.4871617"><ele>49.0</ele><time>2026-04-04T10:17:33.011Z</time></trkpt><trkpt lat="43.3987633" lon="10.48695"><ele>53.33333333333333</ele><time>2026-04-04T10:17:34.01Z</time></trkpt><trkpt lat="43.398885" lon="10.4867533"><ele>57.66666666666667</ele><time>2026-04-04T10:17:35.011Z</time></trkpt><trkpt lat="43.3990167" lon="10.48657"><ele>62.0</ele><time>2026-04-04T10:17:36.011Z</time></trkpt><trkpt lat="43.399175" lon="10.4864117"><ele>61.333333333333336</ele><time>2026-04-04T10:17:37.011Z</time></trkpt><trkpt lat="43.3993267" lon="10.48626"><ele>60.66666666666667</ele><time>2026-04-04T10:17:38.012Z</time></trkpt><trkpt lat="43.3994717" lon="10.48609"><ele>60.0</ele><time>2026-04-04T10:17:39.012Z</time></trkpt><trkpt lat="43.3996" lon="10.485905"><ele>65.0</ele><time>2026-04-04T10:17:40.012Z</time></trkpt><trkpt lat="43.3996967" lon="10.4857017"><ele>70.0</ele><time>2026-04-04T10:17:41.011Z</time></trkpt><trkpt lat="43.39977" lon="10.4854833"><ele>75.0</ele><time>2026-04-04T10:17:42.011Z</time></trkpt><trkpt lat="43.3998233" lon="10.4852617"><ele>75.0</ele><time>2026-04-04T10:17:43.012Z</time></trkpt><trkpt lat="43.3998817" lon="10.4850383"><ele>75.0</ele><time>2026-04-04T10:17:44.01Z</time></trkpt><trkpt lat="43.3999317" lon="10.4848183"><ele>75.0</ele><time>2026-04-04T10:17:45.011Z</time></trkpt><trkpt lat="43.3999833" lon="10.4846133"><ele>74.5</ele><time>2026-04-04T10:17:46.012Z</time></trkpt><trkpt lat="43.4000267" lon="10.4844317"><ele>74.0</ele><time>2026-04-04T10:17:47.012Z</time></trkpt><trkpt lat="43.4000817" lon="10.4842683"><ele>73.5</ele><time>2026-04-04T10:17:48.011Z</time></trkpt><trkpt lat="43.4001483" lon="10.484115"><ele>73.0</ele><time>2026-04-04T10:17:49.012Z</time></trkpt><trkpt lat="43.4002117" lon="10.48396"><ele>73.0</ele><time>2026-04-04T10:17:50.01Z</time></trkpt><trkpt lat="43.400275" lon="10.4838083"><ele>73.0</ele><time>2026-04-04T10:17:51.012Z</time></trkpt><trkpt lat="43.4003383" lon="10.4836483"><ele>73.0</ele><time>2026-04-04T10:17:52.013Z</time></trkpt><trkpt lat="43.4004033" lon="10.4834833"><ele>73.0</ele><time>2026-04-04T10:17:53.011Z</time></trkpt><trkpt lat="43.4004783" lon="10.4832833"><ele>75.66666666666666</ele><time>2026-04-04T10:17:54.011Z</time></trkpt><trkpt lat="43.4005417" lon="10.4830383"><ele>78.33333333333333</ele><time>2026-04-04T10:17:55.012Z</time></trkpt><trkpt lat="43.4005933" lon="10.4827467"><ele>81.0</ele><time>2026-04-04T10:17:56.011Z</time></trkpt><trkpt lat="43.4006583" lon="10.4824433"><ele>81.0</ele><time>2026-04-04T10:17:57.013Z</time></trkpt><trkpt lat="43.40073" lon="10.4821517"><ele>81.0</ele><time>2026-04-04T10:17:58.011Z</time></trkpt><trkpt lat="43.4007933" lon="10.4818683"><ele>81.0</ele><time>2026-04-04T10:17:59.012Z</time></trkpt><trkpt lat="43.4008517" lon="10.4815867"><ele>81.0</ele><time>2026-04-04T10:18:00.013Z</time></trkpt><trkpt lat="43.4009083" lon="10.4813083"><ele>81.0</ele><time>2026-04-04T10:18:01.011Z</time></trkpt><trkpt lat="43.4009617" lon="10.4810367"><ele>81.0</ele><time>2026-04-04T10:18:02.012Z</time></trkpt><trkpt lat="43.4010117" lon="10.4807717"><ele>81.0</ele><time>2026-04-04T10:18:03.012Z</time></trkpt><trkpt lat="43.4010633" lon="10.4805117"><ele>81.0</ele><time>2026-04-04T10:18:04.011Z</time></trkpt><trkpt lat="43.4011117" lon="10.480255"><ele>81.0</ele><time>2026-04-04T10:18:05.011Z</time></trkpt><trkpt lat="43.401165" lon="10.480005"><ele>80.66666666666667</ele><time>2026-04-04T10:18:06.011Z</time></trkpt><trkpt lat="43.4012117" lon="10.4797633"><ele>80.33333333333334</ele><time>2026-04-04T10:18:07.011Z</time></trkpt><trkpt lat="43.4012583" lon="10.4795317"><ele>80.0</ele><time>2026-04-04T10:18:08.012Z</time></trkpt><trkpt lat="43.4013033" lon="10.479305"><ele>81.0</ele><time>2026-04-04T10:18:09.011Z</time></trkpt><trkpt lat="43.4013483" lon="10.47909"><ele>82.0</ele><time>2026-04-04T10:18:10.01Z</time></trkpt><trkpt lat="43.401395" lon="10.4788917"><ele>83.0</ele><time>2026-04-04T10:18:11.012Z</time></trkpt><trkpt lat="43.40145" lon="10.4787117"><ele>83.0</ele><time>2026-04-04T10:18:12.011Z</time></trkpt><trkpt lat="43.4015217" lon="10.47856"><ele>83.0</ele><time>2026-04-04T10:18:13.011Z</time></trkpt><trkpt lat="43.401615" lon="10.4784417"><ele>83.0</ele><time>2026-04-04T10:18:14.01Z</time></trkpt><trkpt lat="43.4017333" lon="10.47835"><ele>83.0</ele><time>2026-04-04T10:18:15.012Z</time></trkpt><trkpt lat="43.4018733" lon="10.4782817"><ele>83.0</ele><time>2026-04-04T10:18:16.011Z</time></trkpt><trkpt lat="43.402025" lon="10.4782333"><ele>83.0</ele><time>2026-04-04T10:18:17.012Z</time></trkpt><trkpt lat="43.402175" lon="10.4782083"><ele>83.0</ele><time>2026-04-04T10:18:18.011Z</time></trkpt><trkpt lat="43.4023017" lon="10.47819"><ele>83.0</ele><time>2026-04-04T10:18:19.012Z</time></trkpt><trkpt lat="43.402425" lon="10.4782183"><ele>85.60000000000001</ele><time>2026-04-04T10:18:20.012Z</time></trkpt><trkpt lat="43.4025367" lon="10.4782533"><ele>88.2</ele><time>2026-04-04T10:18:21.012Z</time></trkpt><trkpt lat="43.4026267" lon="10.4782733"><ele>90.8</ele><time>2026-04-04T10:18:22.012Z</time></trkpt><trkpt lat="43.4027033" lon="10.4782467"><ele>93.4</ele><time>2026-04-04T10:18:23.01Z</time></trkpt><trkpt lat="43.402765" lon="10.478185"><ele>96.0</ele><time>2026-04-04T10:18:24.009Z</time></trkpt><trkpt lat="43.4027767" lon="10.4780567"><ele>96.0</ele><time>2026-04-04T10:18:25.011Z</time></trkpt><trkpt lat="43.4027783" lon="10.477935"><ele>96.0</ele><time>2026-04-04T10:18:26.011Z</time></trkpt><trkpt lat="43.402775" lon="10.4778267"><ele>96.0</ele><time>2026-04-04T10:18:27.012Z</time></trkpt><trkpt lat="43.4027617" lon="10.4777333"><ele>96.0</ele><time>2026-04-04T10:18:28.012Z</time></trkpt><trkpt lat="43.4026967" lon="10.4776633"><ele>96.0</ele><time>2026-04-04T10:18:29.013Z</time></trkpt><trkpt lat="43.40259" lon="10.4776"><ele>96.0</ele><time>2026-04-04T10:18:30.011Z</time></trkpt><trkpt lat="43.40246" lon="10.4775467"><ele>96.0</ele><time>2026-04-04T10:18:31.01Z</time></trkpt><trkpt lat="43.4023183" lon="10.4775083"><ele>96.0</ele><time>2026-04-04T10:18:32.009Z</time></trkpt><trkpt lat="43.402185" lon="10.4774733"><ele>96.0</ele><time>2026-04-04T10:18:33.012Z</time></trkpt><trkpt lat="43.4020583" lon="10.4774433"><ele>96.0</ele><time>2026-04-04T10:18:34.013Z</time></trkpt><trkpt lat="43.401945" lon="10.477415"><ele>94.6</ele><time>2026-04-04T10:18:35.011Z</time></trkpt><trkpt lat="43.4018383" lon="10.4773933"><ele>93.19999999999999</ele><time>2026-04-04T10:18:36.011Z</time></trkpt><trkpt lat="43.401735" lon="10.4773767"><ele>91.80000000000001</ele><time>2026-04-04T10:18:37.011Z</time></trkpt><trkpt lat="43.4016333" lon="10.4773583"><ele>90.4</ele><time>2026-04-04T10:18:38.012Z</time></trkpt><trkpt lat="43.4015333" lon="10.4773433"><ele>89.0</ele><time>2026-04-04T10:18:39.011Z</time></trkpt><trkpt lat="43.4014333" lon="10.4773183"><ele>89.0</ele><time>2026-04-04T10:18:40.011Z</time></trkpt><trkpt lat="43.4013333" lon="10.4772733"><ele>89.0</ele><time>2026-04-04T10:18:41.011Z</time></trkpt><trkpt lat="43.4012317" lon="10.4771883"><ele>89.0</ele><time>2026-04-04T10:18:42.013Z</time></trkpt><trkpt lat="43.4011367" lon="10.4770883"><ele>89.0</ele><time>2026-04-04T10:18:43.011Z</time></trkpt><trkpt lat="43.4010533" lon="10.4769667"><ele>89.0</ele><time>2026-04-04T10:18:44.012Z</time></trkpt><trkpt lat="43.4009933" lon="10.47681"><ele>89.0</ele><time>2026-04-04T10:18:45.011Z</time></trkpt><trkpt lat="43.400955" lon="10.4766417"><ele>89.0</ele><time>2026-04-04T10:18:46.011Z</time></trkpt><trkpt lat="43.4009483" lon="10.47647"><ele>89.0</ele><time>2026-04-04T10:18:47.011Z</time></trkpt><trkpt lat="43.4009617" lon="10.476315"><ele>89.4</ele><time>2026-04-04T10:18:48.012Z</time></trkpt><trkpt lat="43.4009867" lon="10.4761733"><ele>89.80000000000001</ele><time>2026-04-04T10:18:49.012Z</time></trkpt><trkpt lat="43.4010217" lon="10.4760383"><ele>90.19999999999999</ele><time>2026-04-04T10:18:50.012Z</time></trkpt><trkpt lat="43.401065" lon="10.475915"><ele>90.6</ele><time>2026-04-04T10:18:51.012Z</time></trkpt><trkpt lat="43.4011083" lon="10.475805"><ele>91.0</ele><time>2026-04-04T10:18:52.013Z</time></trkpt><trkpt lat="43.4011417" lon="10.4757117"><ele>91.0</ele><time>2026-04-04T10:18:53.012Z</time></trkpt><trkpt lat="43.4011733" lon="10.4756283"><ele>91.0</ele><time>2026-04-04T10:18:54.011Z</time></trkpt><trkpt lat="43.4012067" lon="10.4755483"><ele>91.0</ele><time>2026-04-04T10:18:55.012Z</time></trkpt><trkpt lat="43.4012683" lon="10.475415"><ele>91.0</ele><time>2026-04-04T10:18:57.012Z</time></trkpt><trkpt lat="43.40122" lon="10.4754783"><ele>91.0</ele><time>2026-04-04T10:19:10.011Z</time></trkpt><trkpt lat="43.4011717" lon="10.475615"><ele>91.0</ele><time>2026-04-04T10:19:12.011Z</time></trkpt><trkpt lat="43.4011367" lon="10.4757017"><ele>91.0</ele><time>2026-04-04T10:19:14.012Z</time></trkpt><trkpt lat="43.4011067" lon="10.4758117"><ele>91.0</ele><time>2026-04-04T10:19:26.011Z</time></trkpt><trkpt lat="43.4010517" lon="10.4758617"><ele>91.0</ele><time>2026-04-04T10:19:31.012Z</time></trkpt><trkpt lat="43.401015" lon="10.4757667"><ele>91.0</ele><time>2026-04-04T10:19:33.011Z</time></trkpt><trkpt lat="43.4010067" lon="10.475665"><ele>91.0</ele><time>2026-04-04T10:19:34.011Z</time></trkpt><trkpt lat="43.4010083" lon="10.4755317"><ele>91.0</ele><time>2026-04-04T10:19:35.012Z</time></trkpt><trkpt lat="43.4010217" lon="10.4753733"><ele>90.25</ele><time>2026-04-04T10:19:36.012Z</time></trkpt><trkpt lat="43.401035" lon="10.4751983"><ele>89.5</ele><time>2026-04-04T10:19:37.013Z</time></trkpt><trkpt lat="43.40105" lon="10.4750083"><ele>88.75</ele><time>2026-04-04T10:19:38.012Z</time></trkpt><trkpt lat="43.4010667" lon="10.4748"><ele>88.0</ele><time>2026-04-04T10:19:39.013Z</time></trkpt><trkpt lat="43.4010833" lon="10.4745767"><ele>86.66666666666666</ele><time>2026-04-04T10:19:40.011Z</time></trkpt><trkpt lat="43.4010983" lon="10.47435"><ele>85.33333333333333</ele><time>2026-04-04T10:19:41.012Z</time></trkpt><trkpt lat="43.4011133" lon="10.474125"><ele>84.0</ele><time>2026-04-04T10:19:42.012Z</time></trkpt><trkpt lat="43.4011267" lon="10.4739"><ele>83.0</ele><time>2026-04-04T10:19:43.011Z</time></trkpt><trkpt lat="43.4011333" lon="10.4736767"><ele>82.0</ele><time>2026-04-04T10:19:44.012Z</time></trkpt><trkpt lat="43.4011317" lon="10.473455"><ele>81.0</ele><time>2026-04-04T10:19:45.013Z</time></trkpt><trkpt lat="43.4011233" lon="10.4732333"><ele>81.0</ele><time>2026-04-04T10:19:46.012Z</time></trkpt><trkpt lat="43.401115" lon="10.473015"><ele>81.0</ele><time>2026-04-04T10:19:47.01Z</time></trkpt><trkpt lat="43.4011067" lon="10.4728033"><ele>81.0</ele><time>2026-04-04T10:19:48.011Z</time></trkpt><trkpt lat="43.4011017" lon="10.4726017"><ele>80.75</ele><time>2026-04-04T10:19:49.012Z</time></trkpt><trkpt lat="43.4010967" lon="10.4724083"><ele>80.5</ele><time>2026-04-04T10:19:50.012Z</time></trkpt><trkpt lat="43.40109" lon="10.472225"><ele>80.25</ele><time>2026-04-04T10:19:51.012Z</time></trkpt><trkpt lat="43.4010867" lon="10.47204"><ele>80.0</ele><time>2026-04-04T10:19:52.011Z</time></trkpt><trkpt lat="43.40108" lon="10.471865"><ele>79.6</ele><time>2026-04-04T10:19:53.012Z</time></trkpt><trkpt lat="43.40108" lon="10.4717017"><ele>79.2</ele><time>2026-04-04T10:19:54.013Z</time></trkpt><trkpt lat="43.401085" lon="10.4715567"><ele>78.8</ele><time>2026-04-04T10:19:55.012Z</time></trkpt><trkpt lat="43.4011067" lon="10.471415"><ele>78.4</ele><time>2026-04-04T10:19:56.012Z</time></trkpt><trkpt lat="43.4011517" lon="10.4712633"><ele>78.0</ele><time>2026-04-04T10:19:57.012Z</time></trkpt><trkpt lat="43.4012133" lon="10.47111"><ele>78.0</ele><time>2026-04-04T10:19:58.012Z</time></trkpt><trkpt lat="43.4012783" lon="10.47097"><ele>78.0</ele><time>2026-04-04T10:19:59.011Z</time></trkpt><trkpt lat="43.40134" lon="10.4708467"><ele>78.0</ele><time>2026-04-04T10:20:00.012Z</time></trkpt><trkpt lat="43.4013917" lon="10.470765"><ele>78.0</ele><time>2026-04-04T10:20:01.012Z</time></trkpt><trkpt lat="43.4014433" lon="10.4706967"><ele>78.0</ele><time>2026-04-04T10:20:02.013Z</time></trkpt><trkpt lat="43.4014833" lon="10.4706283"><ele>78.0</ele><time>2026-04-04T10:20:03.011Z</time></trkpt><trkpt lat="43.4015167" lon="10.4705483"><ele>78.5</ele><time>2026-04-04T10:20:04.01Z</time></trkpt><trkpt lat="43.4015267" lon="10.47044"><ele>79.0</ele><time>2026-04-04T10:20:05.012Z</time></trkpt><trkpt lat="43.40149" lon="10.4702567"><ele>79.5</ele><time>2026-04-04T10:20:06.012Z</time></trkpt><trkpt lat="43.401455" lon="10.47006"><ele>80.0</ele><time>2026-04-04T10:20:07.012Z</time></trkpt><trkpt lat="43.4014267" lon="10.469845"><ele>80.0</ele><time>2026-04-04T10:20:08.011Z</time></trkpt><trkpt lat="43.4014117" lon="10.4696183"><ele>80.0</ele><time>2026-04-04T10:20:09.012Z</time></trkpt><trkpt lat="43.4013933" lon="10.46939"><ele>80.0</ele><time>2026-04-04T10:20:10.012Z</time></trkpt><trkpt lat="43.40138" lon="10.46917"><ele>79.5</ele><time>2026-04-04T10:20:11.012Z</time></trkpt><trkpt lat="43.4013817" lon="10.4689667"><ele>79.0</ele><time>2026-04-04T10:20:12.012Z</time></trkpt><trkpt lat="43.4013983" lon="10.4687683"><ele>78.5</ele><time>2026-04-04T10:20:13.012Z</time></trkpt><trkpt lat="43.401435" lon="10.4685733"><ele>78.0</ele><time>2026-04-04T10:20:14.012Z</time></trkpt><trkpt lat="43.40149" lon="10.4683833"><ele>77.0</ele><time>2026-04-04T10:20:15.012Z</time></trkpt><trkpt lat="43.4015733" lon="10.4682133"><ele>76.0</ele><time>2026-04-04T10:20:16.012Z</time></trkpt><trkpt lat="43.401685" lon="10.4680683"><ele>75.0</ele><time>2026-04-04T10:20:17.012Z</time></trkpt><trkpt lat="43.4018133" lon="10.4679367"><ele>74.33333333333333</ele><time>2026-04-04T10:20:18.011Z</time></trkpt><trkpt lat="43.40195" lon="10.467815"><ele>73.66666666666666</ele><time>2026-04-04T10:20:19.011Z</time></trkpt><trkpt lat="43.402095" lon="10.467695"><ele>73.0</ele><time>2026-04-04T10:20:20.011Z</time></trkpt><trkpt lat="43.40223" lon="10.467575"><ele>73.0</ele><time>2026-04-04T10:20:21.012Z</time></trkpt><trkpt lat="43.40236" lon="10.4674583"><ele>73.0</ele><time>2026-04-04T10:20:22.012Z</time></trkpt><trkpt lat="43.40248" lon="10.467355"><ele>73.0</ele><time>2026-04-04T10:20:23.01Z</time></trkpt><trkpt lat="43.40259" lon="10.4672483"><ele>73.0</ele><time>2026-04-04T10:20:24.012Z</time></trkpt><trkpt lat="43.4026817" lon="10.4671183"><ele>72.5</ele><time>2026-04-04T10:20:25.013Z</time></trkpt><trkpt lat="43.4027467" lon="10.4669633"><ele>72.0</ele><time>2026-04-04T10:20:26.011Z</time></trkpt><trkpt lat="43.40279" lon="10.4667983"><ele>71.5</ele><time>2026-04-04T10:20:27.012Z</time></trkpt><trkpt lat="43.4028067" lon="10.4666283"><ele>71.0</ele><time>2026-04-04T10:20:28.011Z</time></trkpt><trkpt lat="43.4027867" lon="10.46644"><ele>72.0</ele><time>2026-04-04T10:20:29.012Z</time></trkpt><trkpt lat="43.4027683" lon="10.4662567"><ele>73.0</ele><time>2026-04-04T10:20:30.012Z</time></trkpt><trkpt lat="43.4027417" lon="10.4660717"><ele>74.0</ele><time>2026-04-04T10:20:31.012Z</time></trkpt><trkpt lat="43.4027167" lon="10.4658867"><ele>75.0</ele><time>2026-04-04T10:20:32.012Z</time></trkpt><trkpt lat="43.402695" lon="10.4657167"><ele>75.0</ele><time>2026-04-04T10:20:33.012Z</time></trkpt><trkpt lat="43.4026667" lon="10.465555"><ele>75.0</ele><time>2026-04-04T10:20:34.012Z</time></trkpt><trkpt lat="43.40266" lon="10.4653817"><ele>75.0</ele><time>2026-04-04T10:20:35.012Z</time></trkpt><trkpt lat="43.4026633" lon="10.4652017"><ele>75.0</ele><time>2026-04-04T10:20:36.013Z</time></trkpt><trkpt lat="43.4026783" lon="10.4650183"><ele>74.75</ele><time>2026-04-04T10:20:37.012Z</time></trkpt><trkpt lat="43.4027" lon="10.4648367"><ele>74.5</ele><time>2026-04-04T10:20:38.012Z</time></trkpt><trkpt lat="43.4027317" lon="10.46465"><ele>74.25</ele><time>2026-04-04T10:20:39.013Z</time></trkpt><trkpt lat="43.4027583" lon="10.46447"><ele>74.0</ele><time>2026-04-04T10:20:40.012Z</time></trkpt><trkpt lat="43.40278" lon="10.4642933"><ele>73.5</ele><time>2026-04-04T10:20:41.011Z</time></trkpt><trkpt lat="43.4028" lon="10.4641267"><ele>73.0</ele><time>2026-04-04T10:20:42.012Z</time></trkpt><trkpt lat="43.402805" lon="10.46396"><ele>72.5</ele><time>2026-04-04T10:20:43.01Z</time></trkpt><trkpt lat="43.402805" lon="10.4637917"><ele>72.0</ele><time>2026-04-04T10:20:44.013Z</time></trkpt><trkpt lat="43.40279" lon="10.4636383"><ele>71.5</ele><time>2026-04-04T10:20:45.013Z</time></trkpt><trkpt lat="43.4027717" lon="10.4634783"><ele>71.0</ele><time>2026-04-04T10:20:46.013Z</time></trkpt><trkpt lat="43.4027383" lon="10.4633117"><ele>70.5</ele><time>2026-04-04T10:20:47.012Z</time></trkpt><trkpt lat="43.4027067" lon="10.463135"><ele>70.0</ele><time>2026-04-04T10:20:48.013Z</time></trkpt><trkpt lat="43.402665" lon="10.4629567"><ele>69.75</ele><time>2026-04-04T10:20:49.012Z</time></trkpt><trkpt lat="43.4026217" lon="10.46278"><ele>69.5</ele><time>2026-04-04T10:20:50.012Z</time></trkpt><trkpt lat="43.4025733" lon="10.46261"><ele>69.25</ele><time>2026-04-04T10:20:51.013Z</time></trkpt><trkpt lat="43.4025133" lon="10.462445"><ele>69.0</ele><time>2026-04-04T10:20:52.012Z</time></trkpt><trkpt lat="43.4024433" lon="10.4622783"><ele>69.0</ele><time>2026-04-04T10:20:53.011Z</time></trkpt><trkpt lat="43.4023633" lon="10.4621183"><ele>69.0</ele><time>2026-04-04T10:20:54.012Z</time></trkpt><trkpt lat="43.4022833" lon="10.4619467"><ele>69.0</ele><time>2026-04-04T10:20:55.011Z</time></trkpt><trkpt lat="43.4021933" lon="10.4617883"><ele>69.0</ele><time>2026-04-04T10:20:56.012Z</time></trkpt><trkpt lat="43.4020983" lon="10.46163"><ele>68.0</ele><time>2026-04-04T10:20:57.012Z</time></trkpt><trkpt lat="43.4020017" lon="10.46147"><ele>67.0</ele><time>2026-04-04T10:20:58.011Z</time></trkpt><trkpt lat="43.4019017" lon="10.4613"><ele>66.0</ele><time>2026-04-04T10:20:59.013Z</time></trkpt><trkpt lat="43.4017967" lon="10.4611333"><ele>66.0</ele><time>2026-04-04T10:21:00.012Z</time></trkpt><trkpt lat="43.40169" lon="10.4609783"><ele>66.0</ele><time>2026-04-04T10:21:01.012Z</time></trkpt><trkpt lat="43.4015883" lon="10.46082"><ele>66.0</ele><time>2026-04-04T10:21:02.011Z</time></trkpt><trkpt lat="43.4015" lon="10.4606567"><ele>66.0</ele><time>2026-04-04T10:21:03.011Z</time></trkpt><trkpt lat="43.40141" lon="10.460495"><ele>66.0</ele><time>2026-04-04T10:21:04.011Z</time></trkpt><trkpt lat="43.4013133" lon="10.4603183"><ele>66.0</ele><time>2026-04-04T10:21:05.012Z</time></trkpt><trkpt lat="43.4012133" lon="10.46015"><ele>64.0</ele><time>2026-04-04T10:21:06.012Z</time></trkpt><trkpt lat="43.4011117" lon="10.459965"><ele>62.0</ele><time>2026-04-04T10:21:07.013Z</time></trkpt><trkpt lat="43.4010033" lon="10.459755"><ele>60.0</ele><time>2026-04-04T10:21:08.012Z</time></trkpt><trkpt lat="43.4008817" lon="10.4595417"><ele>58.66666666666667</ele><time>2026-04-04T10:21:09.012Z</time></trkpt><trkpt lat="43.4007467" lon="10.4593283"><ele>57.333333333333336</ele><time>2026-04-04T10:21:10.012Z</time></trkpt><trkpt lat="43.400605" lon="10.4591033"><ele>56.0</ele><time>2026-04-04T10:21:11.012Z</time></trkpt><trkpt lat="43.400455" lon="10.4588717"><ele>54.0</ele><time>2026-04-04T10:21:12.011Z</time></trkpt><trkpt lat="43.4002967" lon="10.4586367"><ele>52.0</ele><time>2026-04-04T10:21:13.012Z</time></trkpt><trkpt lat="43.4001317" lon="10.4584033"><ele>52.0</ele><time>2026-04-04T10:21:14.011Z</time></trkpt><trkpt lat="43.399975" lon="10.458165"><ele>52.0</ele><time>2026-04-04T10:21:15.012Z</time></trkpt><trkpt lat="43.39982" lon="10.4579317"><ele>51.666666666666664</ele><time>2026-04-04T10:21:16.012Z</time></trkpt><trkpt lat="43.3996783" lon="10.4577133"><ele>51.33333333333333</ele><time>2026-04-04T10:21:17.013Z</time></trkpt><trkpt lat="43.3995383" lon="10.45751"><ele>51.0</ele><time>2026-04-04T10:21:18.013Z</time></trkpt><trkpt lat="43.3994033" lon="10.4573183"><ele>51.0</ele><time>2026-04-04T10:21:19.014Z</time></trkpt><trkpt lat="43.3992683" lon="10.45713"><ele>51.0</ele><time>2026-04-04T10:21:20.013Z</time></trkpt><trkpt lat="43.399135" lon="10.4569433"><ele>51.0</ele><time>2026-04-04T10:21:21.013Z</time></trkpt><trkpt lat="43.3990033" lon="10.4567617"><ele>50.66666666666667</ele><time>2026-04-04T10:21:22.011Z</time></trkpt><trkpt lat="43.3988767" lon="10.4565833"><ele>50.333333333333336</ele><time>2026-04-04T10:21:23.013Z</time></trkpt><trkpt lat="43.398755" lon="10.456405"><ele>50.0</ele><time>2026-04-04T10:21:24.012Z</time></trkpt><trkpt lat="43.3986383" lon="10.4562267"><ele>49.333333333333336</ele><time>2026-04-04T10:21:25.012Z</time></trkpt><trkpt lat="43.398525" lon="10.4560617"><ele>48.66666666666667</ele><time>2026-04-04T10:21:26.011Z</time></trkpt><trkpt lat="43.39842" lon="10.4559033"><ele>48.0</ele><time>2026-04-04T10:21:27.012Z</time></trkpt><trkpt lat="43.398315" lon="10.455745"><ele>48.0</ele><time>2026-04-04T10:21:28.012Z</time></trkpt><trkpt lat="43.3982167" lon="10.4555933"><ele>48.0</ele><time>2026-04-04T10:21:29.012Z</time></trkpt><trkpt lat="43.3981167" lon="10.45546"><ele>48.0</ele><time>2026-04-04T10:21:30.012Z</time></trkpt><trkpt lat="43.3980283" lon="10.4553417"><ele>48.0</ele><time>2026-04-04T10:21:31.012Z</time></trkpt><trkpt lat="43.397935" lon="10.4552317"><ele>46.75</ele><time>2026-04-04T10:21:32.013Z</time></trkpt><trkpt lat="43.397845" lon="10.45512"><ele>45.5</ele><time>2026-04-04T10:21:33.013Z</time></trkpt><trkpt lat="43.3977617" lon="10.4549967"><ele>44.25</ele><time>2026-04-04T10:21:34.012Z</time></trkpt><trkpt lat="43.3976783" lon="10.454885"><ele>43.0</ele><time>2026-04-04T10:21:35.011Z</time></trkpt><trkpt lat="43.3976017" lon="10.4547783"><ele>43.0</ele><time>2026-04-04T10:21:36.012Z</time></trkpt><trkpt lat="43.3975283" lon="10.4546683"><ele>43.0</ele><time>2026-04-04T10:21:37.013Z</time></trkpt><trkpt lat="43.39745" lon="10.45456"><ele>43.0</ele><time>2026-04-04T10:21:38.01Z</time></trkpt><trkpt lat="43.39737" lon="10.4544483"><ele>43.0</ele><time>2026-04-04T10:21:39.012Z</time></trkpt><trkpt lat="43.3972917" lon="10.45434"><ele>43.0</ele><time>2026-04-04T10:21:40.012Z</time></trkpt><trkpt lat="43.3972217" lon="10.4542317"><ele>42.4</ele><time>2026-04-04T10:21:41.013Z</time></trkpt><trkpt lat="43.3971533" lon="10.45414"><ele>41.8</ele><time>2026-04-04T10:21:42.013Z</time></trkpt><trkpt lat="43.3970817" lon="10.4540383"><ele>41.2</ele><time>2026-04-04T10:21:43.011Z</time></trkpt><trkpt lat="43.397015" lon="10.4539283"><ele>40.6</ele><time>2026-04-04T10:21:44.013Z</time></trkpt><trkpt lat="43.3969533" lon="10.4538333"><ele>40.0</ele><time>2026-04-04T10:21:45.012Z</time></trkpt><trkpt lat="43.396905" lon="10.4537383"><ele>39.833333333333336</ele><time>2026-04-04T10:21:46.012Z</time></trkpt><trkpt lat="43.3968833" lon="10.4536283"><ele>39.66666666666667</ele><time>2026-04-04T10:21:47.013Z</time></trkpt><trkpt lat="43.3968767" lon="10.4535033"><ele>39.5</ele><time>2026-04-04T10:21:48.014Z</time></trkpt><trkpt lat="43.3968617" lon="10.4533967"><ele>39.333333333333336</ele><time>2026-04-04T10:21:49.012Z</time></trkpt><trkpt lat="43.3968383" lon="10.4532883"><ele>39.166666666666664</ele><time>2026-04-04T10:21:50.011Z</time></trkpt><trkpt lat="43.396775" lon="10.4531983"><ele>39.0</ele><time>2026-04-04T10:21:51.012Z</time></trkpt><trkpt lat="43.3967117" lon="10.45311"><ele>39.0</ele><time>2026-04-04T10:21:52.013Z</time></trkpt><trkpt lat="43.3966517" lon="10.45304"><ele>39.0</ele><time>2026-04-04T10:21:53.011Z</time></trkpt><trkpt lat="43.396595" lon="10.4529833"><ele>39.0</ele><time>2026-04-04T10:21:54.012Z</time></trkpt><trkpt lat="43.3965117" lon="10.4529233"><ele>39.0</ele><time>2026-04-04T10:21:56.013Z</time></trkpt><trkpt lat="43.39642" lon="10.452875"><ele>39.0</ele><time>2026-04-04T10:21:59.012Z</time></trkpt><trkpt lat="43.396345" lon="10.4527467"><ele>38.333333333333336</ele><time>2026-04-04T10:22:01.011Z</time></trkpt><trkpt lat="43.3963083" lon="10.45265"><ele>37.666666666666664</ele><time>2026-04-04T10:22:02.012Z</time></trkpt><trkpt lat="43.39627" lon="10.4525517"><ele>37.0</ele><time>2026-04-04T10:22:03.01Z</time></trkpt><trkpt lat="43.39623" lon="10.45246"><ele>36.33333333333333</ele><time>2026-04-04T10:22:04.011Z</time></trkpt><trkpt lat="43.396185" lon="10.452385"><ele>35.666666666666664</ele><time>2026-04-04T10:22:05.012Z</time></trkpt><trkpt lat="43.396125" lon="10.4523167"><ele>35.0</ele><time>2026-04-04T10:22:06.011Z</time></trkpt><trkpt lat="43.39605" lon="10.4522417"><ele>35.0</ele><time>2026-04-04T10:22:07.013Z</time></trkpt><trkpt lat="43.3959817" lon="10.4521367"><ele>35.0</ele><time>2026-04-04T10:22:08.011Z</time></trkpt><trkpt lat="43.395925" lon="10.4520067"><ele>35.0</ele><time>2026-04-04T10:22:09.013Z</time></trkpt><trkpt lat="43.39588" lon="10.4518617"><ele>35.0</ele><time>2026-04-04T10:22:10.011Z</time></trkpt><trkpt lat="43.3958483" lon="10.451715"><ele>35.0</ele><time>2026-04-04T10:22:11.012Z</time></trkpt><trkpt lat="43.3958283" lon="10.4515617"><ele>35.0</ele><time>2026-04-04T10:22:12.012Z</time></trkpt><trkpt lat="43.3958167" lon="10.451415"><ele>35.0</ele><time>2026-04-04T10:22:13.013Z</time></trkpt><trkpt lat="43.3958" lon="10.451285"><ele>35.0</ele><time>2026-04-04T10:22:14.012Z</time></trkpt><trkpt lat="43.3957867" lon="10.4511583"><ele>35.0</ele><time>2026-04-04T10:22:15.012Z</time></trkpt><trkpt lat="43.3957733" lon="10.4510367"><ele>35.0</ele><time>2026-04-04T10:22:16.013Z</time></trkpt><trkpt lat="43.3957583" lon="10.4509233"><ele>35.0</ele><time>2026-04-04T10:22:17.012Z</time></trkpt><trkpt lat="43.3957483" lon="10.450815"><ele>35.0</ele><time>2026-04-04T10:22:18.011Z</time></trkpt><trkpt lat="43.3957417" lon="10.450725"><ele>35.0</ele><time>2026-04-04T10:22:19.011Z</time></trkpt><trkpt lat="43.3957367" lon="10.4505883"><ele>35.0</ele><time>2026-04-04T10:22:21.012Z</time></trkpt><trkpt lat="43.3957267" lon="10.4504817"><ele>35.0</ele><time>2026-04-04T10:22:23.012Z</time></trkpt><trkpt lat="43.3957067" lon="10.450365"><ele>35.0</ele><time>2026-04-04T10:22:25.011Z</time></trkpt><trkpt lat="43.395685" lon="10.4501983"><ele>34.83333333333333</ele><time>2026-04-04T10:22:27.011Z</time></trkpt><trkpt lat="43.3956717" lon="10.4500933"><ele>34.666666666666664</ele><time>2026-04-04T10:22:28.012Z</time></trkpt><trkpt lat="43.39566" lon="10.4499917"><ele>34.5</ele><time>2026-04-04T10:22:29.013Z</time></trkpt><trkpt lat="43.3956433" lon="10.4498983"><ele>34.333333333333336</ele><time>2026-04-04T10:22:30.012Z</time></trkpt><trkpt lat="43.3956283" lon="10.4497917"><ele>34.16666666666667</ele><time>2026-04-04T10:22:31.012Z</time></trkpt><trkpt lat="43.3956117" lon="10.4496833"><ele>34.0</ele><time>2026-04-04T10:22:32.012Z</time></trkpt><trkpt lat="43.3956017" lon="10.4495783"><ele>33.66666666666667</ele><time>2026-04-04T10:22:33.011Z</time></trkpt><trkpt lat="43.3955917" lon="10.44948"><ele>33.333333333333336</ele><time>2026-04-04T10:22:34.013Z</time></trkpt><trkpt lat="43.395575" lon="10.4493333"><ele>33.0</ele><time>2026-04-04T10:22:36.012Z</time></trkpt><trkpt lat="43.3955517" lon="10.449225"><ele>32.666666666666664</ele><time>2026-04-04T10:22:38.011Z</time></trkpt><trkpt lat="43.395545" lon="10.4491333"><ele>32.33333333333333</ele><time>2026-04-04T10:22:40.01Z</time></trkpt><trkpt lat="43.3955283" lon="10.4490433"><ele>32.0</ele><time>2026-04-04T10:22:58.012Z</time></trkpt><trkpt lat="43.3954833" lon="10.4488717"><ele>31.25</ele><time>2026-04-04T10:23:00.014Z</time></trkpt><trkpt lat="43.39544" lon="10.4487383"><ele>30.5</ele><time>2026-04-04T10:23:01.01Z</time></trkpt><trkpt lat="43.395385" lon="10.44861"><ele>29.75</ele><time>2026-04-04T10:23:02.012Z</time></trkpt><trkpt lat="43.3953117" lon="10.448455"><ele>29.0</ele><time>2026-04-04T10:23:03.012Z</time></trkpt><trkpt lat="43.3952467" lon="10.44831"><ele>29.0</ele><time>2026-04-04T10:23:04.011Z</time></trkpt><trkpt lat="43.3951883" lon="10.4481667"><ele>29.0</ele><time>2026-04-04T10:23:05.011Z</time></trkpt><trkpt lat="43.3951317" lon="10.4480233"><ele>29.0</ele><time>2026-04-04T10:23:06.013Z</time></trkpt><trkpt lat="43.39508" lon="10.4478733"><ele>29.0</ele><time>2026-04-04T10:23:07.011Z</time></trkpt><trkpt lat="43.3950317" lon="10.4477133"><ele>29.0</ele><time>2026-04-04T10:23:08.013Z</time></trkpt><trkpt lat="43.39498" lon="10.447565"><ele>29.0</ele><time>2026-04-04T10:23:09.012Z</time></trkpt><trkpt lat="43.3949233" lon="10.4474183"><ele>29.0</ele><time>2026-04-04T10:23:10.013Z</time></trkpt><trkpt lat="43.3948633" lon="10.4472683"><ele>29.0</ele><time>2026-04-04T10:23:11.013Z</time></trkpt><trkpt lat="43.3948067" lon="10.4471167"><ele>29.0</ele><time>2026-04-04T10:23:12.013Z</time></trkpt><trkpt lat="43.39475" lon="10.44696"><ele>29.0</ele><time>2026-04-04T10:23:13.012Z</time></trkpt><trkpt lat="43.3946867" lon="10.446805"><ele>29.0</ele><time>2026-04-04T10:23:14.012Z</time></trkpt><trkpt lat="43.3946217" lon="10.446645"><ele>29.0</ele><time>2026-04-04T10:23:15.012Z</time></trkpt><trkpt lat="43.394555" lon="10.4464767"><ele>29.0</ele><time>2026-04-04T10:23:16.013Z</time></trkpt><trkpt lat="43.3944833" lon="10.4463117"><ele>29.0</ele><time>2026-04-04T10:23:17.013Z</time></trkpt><trkpt lat="43.3944083" lon="10.4461467"><ele>29.0</ele><time>2026-04-04T10:23:18.013Z</time></trkpt><trkpt lat="43.3943367" lon="10.4459767"><ele>29.0</ele><time>2026-04-04T10:23:19.013Z</time></trkpt><trkpt lat="43.3942633" lon="10.4458033"><ele>29.0</ele><time>2026-04-04T10:23:20.012Z</time></trkpt><trkpt lat="43.3941867" lon="10.4456317"><ele>29.0</ele><time>2026-04-04T10:23:21.013Z</time></trkpt><trkpt lat="43.3941067" lon="10.445455"><ele>29.0</ele><time>2026-04-04T10:23:22.011Z</time></trkpt><trkpt lat="43.3940233" lon="10.4452833"><ele>29.0</ele><time>2026-04-04T10:23:23.011Z</time></trkpt><trkpt lat="43.3939317" lon="10.44511"><ele>27.666666666666664</ele><time>2026-04-04T10:23:24.013Z</time></trkpt><trkpt lat="43.3938367" lon="10.44494"><ele>26.333333333333336</ele><time>2026-04-04T10:23:25.013Z</time></trkpt><trkpt lat="43.3937417" lon="10.444785"><ele>25.0</ele><time>2026-04-04T10:23:26.012Z</time></trkpt><trkpt lat="43.3936433" lon="10.4446183"><ele>25.0</ele><time>2026-04-04T10:23:27.012Z</time></trkpt><trkpt lat="43.393545" lon="10.4444583"><ele>25.0</ele><time>2026-04-04T10:23:28.013Z</time></trkpt><trkpt lat="43.3934433" lon="10.4443"><ele>25.0</ele><time>2026-04-04T10:23:29.012Z</time></trkpt><trkpt lat="43.3933467" lon="10.4441317"><ele>25.0</ele><time>2026-04-04T10:23:30.012Z</time></trkpt><trkpt lat="43.3932517" lon="10.4439567"><ele>25.0</ele><time>2026-04-04T10:23:31.013Z</time></trkpt><trkpt lat="43.39315" lon="10.4437817"><ele>25.0</ele><time>2026-04-04T10:23:32.012Z</time></trkpt><trkpt lat="43.3930567" lon="10.4436033"><ele>23.0</ele><time>2026-04-04T10:23:33.013Z</time></trkpt><trkpt lat="43.3929667" lon="10.443415"><ele>21.0</ele><time>2026-04-04T10:23:34.013Z</time></trkpt><trkpt lat="43.39288" lon="10.4432183"><ele>19.0</ele><time>2026-04-04T10:23:35.013Z</time></trkpt><trkpt lat="43.3927983" lon="10.4430267"><ele>19.333333333333332</ele><time>2026-04-04T10:23:36.011Z</time></trkpt><trkpt lat="43.3927233" lon="10.4428317"><ele>19.666666666666668</ele><time>2026-04-04T10:23:37.011Z</time></trkpt><trkpt lat="43.3926467" lon="10.4426567"><ele>20.0</ele><time>2026-04-04T10:23:38.014Z</time></trkpt><trkpt lat="43.3925717" lon="10.44248"><ele>20.0</ele><time>2026-04-04T10:23:39.013Z</time></trkpt><trkpt lat="43.3925017" lon="10.4423083"><ele>20.0</ele><time>2026-04-04T10:23:40.011Z</time></trkpt><trkpt lat="43.39243" lon="10.442145"><ele>20.0</ele><time>2026-04-04T10:23:41.011Z</time></trkpt><trkpt lat="43.3923633" lon="10.441995"><ele>20.0</ele><time>2026-04-04T10:23:42.012Z</time></trkpt><trkpt lat="43.3922983" lon="10.44185"><ele>20.5</ele><time>2026-04-04T10:23:43.012Z</time></trkpt><trkpt lat="43.3922383" lon="10.441705"><ele>21.0</ele><time>2026-04-04T10:23:44.013Z</time></trkpt><trkpt lat="43.3921783" lon="10.4415733"><ele>21.5</ele><time>2026-04-04T10:23:45.012Z</time></trkpt><trkpt lat="43.39212" lon="10.4414367"><ele>22.0</ele><time>2026-04-04T10:23:46.013Z</time></trkpt><trkpt lat="43.3920583" lon="10.4413033"><ele>21.0</ele><time>2026-04-04T10:23:47.012Z</time></trkpt><trkpt lat="43.3919967" lon="10.4411667"><ele>20.0</ele><time>2026-04-04T10:23:48.012Z</time></trkpt><trkpt lat="43.391935" lon="10.4410333"><ele>19.0</ele><time>2026-04-04T10:23:49.013Z</time></trkpt><trkpt lat="43.3918783" lon="10.4409133"><ele>18.0</ele><time>2026-04-04T10:23:50.013Z</time></trkpt><trkpt lat="43.3918233" lon="10.4408"><ele>17.0</ele><time>2026-04-04T10:23:51.012Z</time></trkpt><trkpt lat="43.3917783" lon="10.4406983"><ele>17.0</ele><time>2026-04-04T10:23:52.012Z</time></trkpt><trkpt lat="43.3917267" lon="10.44061"><ele>17.0</ele><time>2026-04-04T10:23:53.013Z</time></trkpt><trkpt lat="43.39168" lon="10.44053"><ele>17.0</ele><time>2026-04-04T10:23:54.013Z</time></trkpt><trkpt lat="43.3916417" lon="10.44045"><ele>17.0</ele><time>2026-04-04T10:23:55.013Z</time></trkpt><trkpt lat="43.3916067" lon="10.4403767"><ele>17.0</ele><time>2026-04-04T10:23:56.013Z</time></trkpt><trkpt lat="43.3915467" lon="10.440255"><ele>17.0</ele><time>2026-04-04T10:23:58.012Z</time></trkpt><trkpt lat="43.391505" lon="10.4401783"><ele>17.166666666666668</ele><time>2026-04-04T10:24:00.011Z</time></trkpt><trkpt lat="43.3914883" lon="10.4400617"><ele>17.333333333333336</ele><time>2026-04-04T10:24:04.012Z</time></trkpt><trkpt lat="43.3914717" lon="10.4399683"><ele>17.5</ele><time>2026-04-04T10:24:06.014Z</time></trkpt><trkpt lat="43.391495" lon="10.439855"><ele>17.666666666666668</ele><time>2026-04-04T10:24:08.011Z</time></trkpt><trkpt lat="43.39154" lon="10.4397917"><ele>17.833333333333332</ele><time>2026-04-04T10:24:09.012Z</time></trkpt><trkpt lat="43.3915983" lon="10.43973"><ele>18.0</ele><time>2026-04-04T10:24:10.012Z</time></trkpt><trkpt lat="43.391665" lon="10.4396617"><ele>17.6</ele><time>2026-04-04T10:24:11.011Z</time></trkpt><trkpt lat="43.3917417" lon="10.439585"><ele>17.200000000000003</ele><time>2026-04-04T10:24:12.013Z</time></trkpt><trkpt lat="43.3918417" lon="10.4395033"><ele>16.8</ele><time>2026-04-04T10:24:13.012Z</time></trkpt><trkpt lat="43.3919433" lon="10.4394217"><ele>16.400000000000002</ele><time>2026-04-04T10:24:14.012Z</time></trkpt><trkpt lat="43.3920417" lon="10.43934"><ele>16.0</ele><time>2026-04-04T10:24:15.013Z</time></trkpt><trkpt lat="43.3921483" lon="10.439265"><ele>16.2</ele><time>2026-04-04T10:24:16.013Z</time></trkpt><trkpt lat="43.39225" lon="10.439185"><ele>16.400000000000002</ele><time>2026-04-04T10:24:17.011Z</time></trkpt><trkpt lat="43.3923517" lon="10.439105"><ele>16.6</ele><time>2026-04-04T10:24:18.012Z</time></trkpt><trkpt lat="43.3924417" lon="10.4390317"><ele>16.8</ele><time>2026-04-04T10:24:19.012Z</time></trkpt><trkpt lat="43.39254" lon="10.4389633"><ele>17.0</ele><time>2026-04-04T10:24:20.012Z</time></trkpt><trkpt lat="43.392625" lon="10.438905"><ele>17.0</ele><time>2026-04-04T10:24:21.012Z</time></trkpt><trkpt lat="43.392715" lon="10.4388317"><ele>17.0</ele><time>2026-04-04T10:24:22.014Z</time></trkpt><trkpt lat="43.39281" lon="10.438755"><ele>17.0</ele><time>2026-04-04T10:24:23.01Z</time></trkpt><trkpt lat="43.3929067" lon="10.438665"><ele>17.0</ele><time>2026-04-04T10:24:24.013Z</time></trkpt><trkpt lat="43.3930183" lon="10.4385717"><ele>17.25</ele><time>2026-04-04T10:24:25.013Z</time></trkpt><trkpt lat="43.3931483" lon="10.4384767"><ele>17.5</ele><time>2026-04-04T10:24:26.011Z</time></trkpt><trkpt lat="43.3932833" lon="10.438385"><ele>17.75</ele><time>2026-04-04T10:24:27.012Z</time></trkpt><trkpt lat="43.393415" lon="10.4382867"><ele>18.0</ele><time>2026-04-04T10:24:28.011Z</time></trkpt><trkpt lat="43.3935467" lon="10.438175"><ele>18.0</ele><time>2026-04-04T10:24:29.013Z</time></trkpt><trkpt lat="43.393675" lon="10.438065"><ele>18.0</ele><time>2026-04-04T10:24:30.013Z</time></trkpt><trkpt lat="43.3938033" lon="10.43796"><ele>18.0</ele><time>2026-04-04T10:24:31.014Z</time></trkpt><trkpt lat="43.393925" lon="10.437855"><ele>18.0</ele><time>2026-04-04T10:24:32.013Z</time></trkpt><trkpt lat="43.394045" lon="10.4377467"><ele>18.25</ele><time>2026-04-04T10:24:33.013Z</time></trkpt><trkpt lat="43.3941733" lon="10.4376367"><ele>18.5</ele><time>2026-04-04T10:24:34.013Z</time></trkpt><trkpt lat="43.3943033" lon="10.4375317"><ele>18.75</ele><time>2026-04-04T10:24:35.013Z</time></trkpt><trkpt lat="43.3944317" lon="10.437435"><ele>19.0</ele><time>2026-04-04T10:24:36.014Z</time></trkpt><trkpt lat="43.3945533" lon="10.4373333"><ele>18.75</ele><time>2026-04-04T10:24:37.012Z</time></trkpt><trkpt lat="43.394675" lon="10.43724"><ele>18.5</ele><time>2026-04-04T10:24:38.013Z</time></trkpt><trkpt lat="43.3947933" lon="10.43713"><ele>18.25</ele><time>2026-04-04T10:24:39.013Z</time></trkpt><trkpt lat="43.3949117" lon="10.4370333"><ele>18.0</ele><time>2026-04-04T10:24:40.013Z</time></trkpt><trkpt lat="43.3950267" lon="10.4369517"><ele>17.75</ele><time>2026-04-04T10:24:41.013Z</time></trkpt><trkpt lat="43.3951383" lon="10.4368883"><ele>17.5</ele><time>2026-04-04T10:24:42.013Z</time></trkpt><trkpt lat="43.3952383" lon="10.4368217"><ele>17.25</ele><time>2026-04-04T10:24:43.015Z</time></trkpt><trkpt lat="43.395335" lon="10.4367483"><ele>17.0</ele><time>2026-04-04T10:24:44.013Z</time></trkpt><trkpt lat="43.3954433" lon="10.436675"><ele>17.25</ele><time>2026-04-04T10:24:45.013Z</time></trkpt><trkpt lat="43.395555" lon="10.4365933"><ele>17.5</ele><time>2026-04-04T10:24:46.013Z</time></trkpt><trkpt lat="43.3956683" lon="10.436505"><ele>17.75</ele><time>2026-04-04T10:24:47.013Z</time></trkpt><trkpt lat="43.395785" lon="10.4364117"><ele>18.0</ele><time>2026-04-04T10:24:48.012Z</time></trkpt><trkpt lat="43.3959033" lon="10.4363117"><ele>17.75</ele><time>2026-04-04T10:24:49.013Z</time></trkpt><trkpt lat="43.3960217" lon="10.4362067"><ele>17.5</ele><time>2026-04-04T10:24:50.012Z</time></trkpt><trkpt lat="43.3961417" lon="10.4361083"><ele>17.25</ele><time>2026-04-04T10:24:51.014Z</time></trkpt><trkpt lat="43.396265" lon="10.436015"><ele>17.0</ele><time>2026-04-04T10:24:52.013Z</time></trkpt><trkpt lat="43.3963833" lon="10.435925"><ele>17.0</ele><time>2026-04-04T10:24:53.012Z</time></trkpt><trkpt lat="43.3965" lon="10.43583"><ele>17.0</ele><time>2026-04-04T10:24:54.013Z</time></trkpt><trkpt lat="43.396615" lon="10.43574"><ele>17.0</ele><time>2026-04-04T10:24:55.012Z</time></trkpt><trkpt lat="43.396725" lon="10.435655"><ele>17.0</ele><time>2026-04-04T10:24:56.014Z</time></trkpt><trkpt lat="43.3968267" lon="10.4355683"><ele>17.0</ele><time>2026-04-04T10:24:57.012Z</time></trkpt><trkpt lat="43.3969233" lon="10.4355"><ele>17.0</ele><time>2026-04-04T10:24:58.012Z</time></trkpt><trkpt lat="43.3970083" lon="10.43544"><ele>17.0</ele><time>2026-04-04T10:24:59.011Z</time></trkpt><trkpt lat="43.397095" lon="10.435405"><ele>17.0</ele><time>2026-04-04T10:25:00.013Z</time></trkpt><trkpt lat="43.39719" lon="10.435395"><ele>17.0</ele><time>2026-04-04T10:25:01.013Z</time></trkpt><trkpt lat="43.3972817" lon="10.435395"><ele>16.8</ele><time>2026-04-04T10:25:02.011Z</time></trkpt><trkpt lat="43.3973683" lon="10.43538"><ele>16.6</ele><time>2026-04-04T10:25:03.013Z</time></trkpt><trkpt lat="43.39744" lon="10.4353317"><ele>16.400000000000002</ele><time>2026-04-04T10:25:04.012Z</time></trkpt><trkpt lat="43.3974983" lon="10.4352717"><ele>16.2</ele><time>2026-04-04T10:25:05.013Z</time></trkpt><trkpt lat="43.3974817" lon="10.4351317"><ele>16.0</ele><time>2026-04-04T10:25:06.012Z</time></trkpt><trkpt lat="43.3974333" lon="10.4349983"><ele>16.0</ele><time>2026-04-04T10:25:07.013Z</time></trkpt><trkpt lat="43.3973617" lon="10.4348733"><ele>16.0</ele><time>2026-04-04T10:25:08.013Z</time></trkpt><trkpt lat="43.39728" lon="10.4347317"><ele>16.0</ele><time>2026-04-04T10:25:09.013Z</time></trkpt><trkpt lat="43.3972033" lon="10.4345467"><ele>16.0</ele><time>2026-04-04T10:25:10.011Z</time></trkpt><trkpt lat="43.397135" lon="10.4343433"><ele>14.666666666666666</ele><time>2026-04-04T10:25:11.01Z</time></trkpt><trkpt lat="43.397075" lon="10.434135"><ele>13.333333333333332</ele><time>2026-04-04T10:25:12.011Z</time></trkpt><trkpt lat="43.3970267" lon="10.4339283"><ele>12.0</ele><time>2026-04-04T10:25:13.013Z</time></trkpt><trkpt lat="43.396985" lon="10.4337233"><ele>12.0</ele><time>2026-04-04T10:25:14.012Z</time></trkpt><trkpt lat="43.39695" lon="10.4335283"><ele>12.0</ele><time>2026-04-04T10:25:15.011Z</time></trkpt><trkpt lat="43.3969117" lon="10.4333383"><ele>12.0</ele><time>2026-04-04T10:25:16.011Z</time></trkpt><trkpt lat="43.3968717" lon="10.4331567"><ele>12.0</ele><time>2026-04-04T10:25:17.012Z</time></trkpt><trkpt lat="43.3968317" lon="10.4329783"><ele>12.0</ele><time>2026-04-04T10:25:18.012Z</time></trkpt><trkpt lat="43.3967917" lon="10.4328083"><ele>12.0</ele><time>2026-04-04T10:25:19.012Z</time></trkpt><trkpt lat="43.3967517" lon="10.4326417"><ele>12.0</ele><time>2026-04-04T10:25:20.012Z</time></trkpt><trkpt lat="43.3967117" lon="10.4324767"><ele>12.0</ele><time>2026-04-04T10:25:21.012Z</time></trkpt><trkpt lat="43.3966717" lon="10.4323133"><ele>12.0</ele><time>2026-04-04T10:25:22.012Z</time></trkpt><trkpt lat="43.3966317" lon="10.4321467"><ele>12.0</ele><time>2026-04-04T10:25:23.012Z</time></trkpt><trkpt lat="43.3965917" lon="10.4319733"><ele>12.0</ele><time>2026-04-04T10:25:24.012Z</time></trkpt><trkpt lat="43.3965517" lon="10.4317983"><ele>12.0</ele><time>2026-04-04T10:25:25.012Z</time></trkpt><trkpt lat="43.3965117" lon="10.4316267"><ele>12.0</ele><time>2026-04-04T10:25:26.012Z</time></trkpt><trkpt lat="43.3964733" lon="10.4314533"><ele>12.0</ele><time>2026-04-04T10:25:27.012Z</time></trkpt><trkpt lat="43.3964333" lon="10.4312833"><ele>12.0</ele><time>2026-04-04T10:25:28.01Z</time></trkpt><trkpt lat="43.3963967" lon="10.4311167"><ele>12.0</ele><time>2026-04-04T10:25:29.01Z</time></trkpt><trkpt lat="43.39636" lon="10.4309583"><ele>11.2</ele><time>2026-04-04T10:25:30.011Z</time></trkpt><trkpt lat="43.3963283" lon="10.4308067"><ele>10.399999999999999</ele><time>2026-04-04T10:25:31.012Z</time></trkpt><trkpt lat="43.3962983" lon="10.430665"><ele>9.600000000000001</ele><time>2026-04-04T10:25:32.012Z</time></trkpt><trkpt lat="43.396265" lon="10.430525"><ele>8.8</ele><time>2026-04-04T10:25:33.011Z</time></trkpt><trkpt lat="43.3962333" lon="10.4303833"><ele>8.0</ele><time>2026-04-04T10:25:34.012Z</time></trkpt><trkpt lat="43.3961983" lon="10.4302417"><ele>8.0</ele><time>2026-04-04T10:25:35.013Z</time></trkpt><trkpt lat="43.396165" lon="10.4300967"><ele>8.0</ele><time>2026-04-04T10:25:36.011Z</time></trkpt><trkpt lat="43.39613" lon="10.4299633"><ele>8.0</ele><time>2026-04-04T10:25:37.011Z</time></trkpt><trkpt lat="43.3961017" lon="10.429835"><ele>8.0</ele><time>2026-04-04T10:25:38.012Z</time></trkpt><trkpt lat="43.3960733" lon="10.429715"><ele>8.0</ele><time>2026-04-04T10:25:39.011Z</time></trkpt><trkpt lat="43.39605" lon="10.4296"><ele>7.999999999999999</ele><time>2026-04-04T10:25:40.012Z</time></trkpt><trkpt lat="43.3960417" lon="10.4294883"><ele>8.0</ele><time>2026-04-04T10:25:41.011Z</time></trkpt><trkpt lat="43.3960483" lon="10.4293767"><ele>8.0</ele><time>2026-04-04T10:25:42.012Z</time></trkpt><trkpt lat="43.3960617" lon="10.4292733"><ele>8.0</ele><time>2026-04-04T10:25:43.013Z</time></trkpt><trkpt lat="43.3960717" lon="10.429175"><ele>7.999999999999999</ele><time>2026-04-04T10:25:44.013Z</time></trkpt><trkpt lat="43.3960667" lon="10.429085"><ele>8.0</ele><time>2026-04-04T10:25:45.013Z</time></trkpt><trkpt lat="43.396" lon="10.4289867"><ele>7.999999999999999</ele><time>2026-04-04T10:25:47.012Z</time></trkpt><trkpt lat="43.3958917" lon="10.4289933"><ele>8.0</ele><time>2026-04-04T10:25:49.011Z</time></trkpt><trkpt lat="43.3958233" lon="10.4290317"><ele>8.0</ele><time>2026-04-04T10:25:50.012Z</time></trkpt><trkpt lat="43.395745" lon="10.4290633"><ele>8.0</ele><time>2026-04-04T10:25:51.011Z</time></trkpt><trkpt lat="43.39566" lon="10.429075"><ele>7.999999999999999</ele><time>2026-04-04T10:25:52.011Z</time></trkpt><trkpt lat="43.39557" lon="10.4290833"><ele>8.0</ele><time>2026-04-04T10:25:53.012Z</time></trkpt><trkpt lat="43.3954767" lon="10.4290733"><ele>7.800000000000001</ele><time>2026-04-04T10:25:54.012Z</time></trkpt><trkpt lat="43.39538" lon="10.42907"><ele>7.6000000000000005</ele><time>2026-04-04T10:25:55.012Z</time></trkpt><trkpt lat="43.3952867" lon="10.4290817"><ele>7.3999999999999995</ele><time>2026-04-04T10:25:56.012Z</time></trkpt><trkpt lat="43.3951967" lon="10.4291067"><ele>7.199999999999999</ele><time>2026-04-04T10:25:57.012Z</time></trkpt><trkpt lat="43.395115" lon="10.42914"><ele>7.0</ele><time>2026-04-04T10:25:58.012Z</time></trkpt><trkpt lat="43.3950417" lon="10.429195"><ele>7.000000000000001</ele><time>2026-04-04T10:25:59.01Z</time></trkpt><trkpt lat="43.3949617" lon="10.4292483"><ele>7.0</ele><time>2026-04-04T10:26:00.012Z</time></trkpt><trkpt lat="43.3948883" lon="10.4293033"><ele>7.0</ele><time>2026-04-04T10:26:01.012Z</time></trkpt><trkpt lat="43.3948183" lon="10.4293467"><ele>7.0</ele><time>2026-04-04T10:26:02.012Z</time></trkpt><trkpt lat="43.394755" lon="10.4293683"><ele>7.000000000000001</ele><time>2026-04-04T10:26:03.013Z</time></trkpt><trkpt lat="43.3946917" lon="10.4293717"><ele>7.0</ele><time>2026-04-04T10:26:04.012Z</time></trkpt><trkpt lat="43.3945817" lon="10.4293733"><ele>7.166666666666667</ele><time>2026-04-04T10:26:06.012Z</time></trkpt><trkpt lat="43.394505" lon="10.4294417"><ele>7.333333333333334</ele><time>2026-04-04T10:26:08.011Z</time></trkpt><trkpt lat="43.394455" lon="10.4295883"><ele>7.5</ele><time>2026-04-04T10:26:10.011Z</time></trkpt><trkpt lat="43.39442" lon="10.4296633"><ele>7.666666666666666</ele><time>2026-04-04T10:26:11.012Z</time></trkpt><trkpt lat="43.3943783" lon="10.4297333"><ele>7.833333333333333</ele><time>2026-04-04T10:26:12.012Z</time></trkpt><trkpt lat="43.3943317" lon="10.4297967"><ele>8.0</ele><time>2026-04-04T10:26:13.011Z</time></trkpt><trkpt lat="43.39427" lon="10.429845"><ele>7.999999999999999</ele><time>2026-04-04T10:26:14.011Z</time></trkpt><trkpt lat="43.3942033" lon="10.4298933"><ele>8.0</ele><time>2026-04-04T10:26:15.013Z</time></trkpt><trkpt lat="43.39414" lon="10.4299533"><ele>8.0</ele><time>2026-04-04T10:26:16.012Z</time></trkpt><trkpt lat="43.3940667" lon="10.43001"><ele>8.0</ele><time>2026-04-04T10:26:17.013Z</time></trkpt><trkpt lat="43.39399" lon="10.430065"><ele>7.999999999999999</ele><time>2026-04-04T10:26:18.011Z</time></trkpt><trkpt lat="43.3939167" lon="10.4301283"><ele>8.0</ele><time>2026-04-04T10:26:19.012Z</time></trkpt><trkpt lat="43.3938483" lon="10.4301867"><ele>8.333333333333332</ele><time>2026-04-04T10:26:20.012Z</time></trkpt><trkpt lat="43.3937883" lon="10.4302483"><ele>8.666666666666666</ele><time>2026-04-04T10:26:21.012Z</time></trkpt><trkpt lat="43.39372" lon="10.4303"><ele>9.0</ele><time>2026-04-04T10:26:22.01Z</time></trkpt><trkpt lat="43.3936517" lon="10.4303417"><ele>9.333333333333334</ele><time>2026-04-04T10:26:23.011Z</time></trkpt><trkpt lat="43.3935933" lon="10.4303867"><ele>9.666666666666668</ele><time>2026-04-04T10:26:24.012Z</time></trkpt><trkpt lat="43.393495" lon="10.4304733"><ele>10.0</ele><time>2026-04-04T10:26:26.012Z</time></trkpt><trkpt lat="43.3934083" lon="10.4305483"><ele>10.0</ele><time>2026-04-04T10:26:28.011Z</time></trkpt><trkpt lat="43.3933417" lon="10.43059"><ele>10.0</ele><time>2026-04-04T10:26:30.01Z</time></trkpt><trkpt lat="43.3932733" lon="10.430625"><ele>10.0</ele><time>2026-04-04T10:26:32.011Z</time></trkpt><trkpt lat="43.3932033" lon="10.430675"><ele>10.0</ele><time>2026-04-04T10:26:34.011Z</time></trkpt><trkpt lat="43.393125" lon="10.4307317"><ele>10.0</ele><time>2026-04-04T10:26:36.01Z</time></trkpt><trkpt lat="43.3930133" lon="10.4308033"><ele>10.0</ele><time>2026-04-04T10:26:38.011Z</time></trkpt><trkpt lat="43.3929167" lon="10.4309"><ele>10.0</ele><time>2026-04-04T10:26:40.012Z</time></trkpt><trkpt lat="43.3928683" lon="10.4309567"><ele>10.0</ele><time>2026-04-04T10:26:41.013Z</time></trkpt><trkpt lat="43.3928083" lon="10.4310017"><ele>10.0</ele><time>2026-04-04T10:26:42.012Z</time></trkpt><trkpt lat="43.3927483" lon="10.431045"><ele>10.0</ele><time>2026-04-04T10:26:43.011Z</time></trkpt><trkpt lat="43.3926933" lon="10.4310917"><ele>10.0</ele><time>2026-04-04T10:26:44.01Z</time></trkpt><trkpt lat="43.3926383" lon="10.4311367"><ele>10.0</ele><time>2026-04-04T10:26:45.011Z</time></trkpt><trkpt lat="43.3925783" lon="10.43118"><ele>10.0</ele><time>2026-04-04T10:26:46.011Z</time></trkpt><trkpt lat="43.3925233" lon="10.431225"><ele>10.0</ele><time>2026-04-04T10:26:47.012Z</time></trkpt><trkpt lat="43.3924283" lon="10.431295"><ele>10.0</ele><time>2026-04-04T10:26:49.012Z</time></trkpt><trkpt lat="43.3923533" lon="10.4313483"><ele>10.0</ele><time>2026-04-04T10:26:51.012Z</time></trkpt><trkpt lat="43.3922933" lon="10.431395"><ele>10.0</ele><time>2026-04-04T10:26:53.011Z</time></trkpt><trkpt lat="43.3922383" lon="10.4314717"><ele>10.0</ele><time>2026-04-04T10:26:57.012Z</time></trkpt><trkpt lat="43.3921833" lon="10.4315217"><ele>10.0</ele><time>2026-04-04T10:27:01.012Z</time></trkpt><trkpt lat="43.3921267" lon="10.43157"><ele>10.0</ele><time>2026-04-04T10:27:03.011Z</time></trkpt><trkpt lat="43.39205" lon="10.4316433"><ele>10.0</ele><time>2026-04-04T10:27:05.011Z</time></trkpt><trkpt lat="43.3919783" lon="10.4316967"><ele>10.0</ele><time>2026-04-04T10:27:07.011Z</time></trkpt><trkpt lat="43.3919117" lon="10.4317483"><ele>10.0</ele><time>2026-04-04T10:27:09.012Z</time></trkpt><trkpt lat="43.3918383" lon="10.431805"><ele>10.0</ele><time>2026-04-04T10:27:11.012Z</time></trkpt><trkpt lat="43.3917417" lon="10.4318783"><ele>10.0</ele><time>2026-04-04T10:27:13.011Z</time></trkpt><trkpt lat="43.3916733" lon="10.4319383"><ele>10.0</ele><time>2026-04-04T10:27:15.011Z</time></trkpt><trkpt lat="43.3915667" lon="10.4320167"><ele>10.0</ele><time>2026-04-04T10:28:38.01Z</time></trkpt><trkpt lat="43.39144" lon="10.4320583"><ele>10.0</ele><time>2026-04-04T10:32:39.011Z</time></trkpt><trkpt lat="43.3915133" lon="10.432015"><ele>10.0</ele><time>2026-04-04T10:34:04.011Z</time></trkpt><trkpt lat="43.3916267" lon="10.43195"><ele>10.0</ele><time>2026-04-04T10:34:16.011Z</time></trkpt><trkpt lat="43.3916817" lon="10.432025"><ele>10.0</ele><time>2026-04-04T10:35:07.011Z</time></trkpt><trkpt lat="43.3915883" lon="10.4321017"><ele>10.0</ele><time>2026-04-04T10:35:52.012Z</time></trkpt><trkpt lat="43.3914967" lon="10.4320383"><ele>10.0</ele><time>2026-04-04T10:36:25.012Z</time></trkpt><trkpt lat="43.3915" lon="10.431835"><ele>10.0</ele><time>2026-04-04T10:36:28.012Z</time></trkpt><trkpt lat="43.3915533" lon="10.43169"><ele>10.0</ele><time>2026-04-04T10:36:31.011Z</time></trkpt><trkpt lat="43.391615" lon="10.4318167"><ele>10.0</ele><time>2026-04-04T10:36:38.012Z</time></trkpt><trkpt lat="43.3915717" lon="10.4319483"><ele>10.0</ele><time>2026-04-04T10:39:23.01Z</time></trkpt><trkpt lat="43.3915883" lon="10.4318383"><ele>10.0</ele><time>2026-04-04T10:39:58.011Z</time></trkpt><trkpt lat="43.3916117" lon="10.43164"><ele>10.0</ele><time>2026-04-04T10:40:09.012Z</time></trkpt><trkpt lat="43.39167" lon="10.4317683"><ele>10.0</ele><time>2026-04-04T10:40:24.011Z</time></trkpt><trkpt lat="43.391695" lon="10.4318517"><ele>10.0</ele><time>2026-04-04T10:40:27.012Z</time></trkpt><trkpt lat="43.3917017" lon="10.43198"><ele>10.0</ele><time>2026-04-04T10:40:45.011Z</time></trkpt><trkpt lat="43.39179" lon="10.431945"><ele>10.0</ele><time>2026-04-04T10:41:40.011Z</time></trkpt><trkpt lat="43.391865" lon="10.43203"><ele>10.0</ele><time>2026-04-04T10:41:42.012Z</time></trkpt><trkpt lat="43.3917467" lon="10.4320083"><ele>10.0</ele><time>2026-04-04T10:41:54.012Z</time></trkpt><trkpt lat="43.391725" lon="10.43191"><ele>10.0</ele><time>2026-04-04T10:42:22.011Z</time></trkpt><trkpt lat="43.39169" lon="10.4318333"><ele>10.0</ele><time>2026-04-04T10:42:25.012Z</time></trkpt><trkpt lat="43.3916267" lon="10.43175"><ele>10.0</ele><time>2026-04-04T10:42:27.012Z</time></trkpt><trkpt lat="43.3916083" lon="10.4318583"><ele>10.0</ele><time>2026-04-04T10:42:31.013Z</time></trkpt><trkpt lat="43.3916617" lon="10.4317733"><ele>10.0</ele><time>2026-04-04T10:43:20.012Z</time></trkpt><trkpt lat="43.3916167" lon="10.4318483"><ele>10.0</ele><time>2026-04-04T10:43:40.012Z</time></trkpt><trkpt lat="43.391825" lon="10.4318883"><ele>10.0</ele><time>2026-04-04T10:46:35.206Z</time></trkpt><trkpt lat="43.39176" lon="10.4319333"><ele>10.0</ele><time>2026-04-04T10:46:37.012Z</time></trkpt><trkpt lat="43.3917383" lon="10.4320417"><ele>10.0</ele><time>2026-04-04T10:46:41.011Z</time></trkpt><trkpt lat="43.39168" lon="10.4320033"><ele>10.0</ele><time>2026-04-04T10:47:00.011Z</time></trkpt></trkseg><trkseg><trkpt lat="43.3914521" lon="10.4320284"><ele>10.0</ele><time>2026-04-04T12:58:48.056Z</time></trkpt><trkpt lat="43.3913885" lon="10.4320155"><ele>10.0</ele><time>2026-04-04T12:58:59.122Z</time></trkpt><trkpt lat="43.3913315" lon="10.4319765"><ele>10.0</ele><time>2026-04-04T12:59:09.062Z</time></trkpt><trkpt lat="43.3914127" lon="10.4319751"><ele>10.0</ele><time>2026-04-04T12:59:36.11Z</time></trkpt><trkpt lat="43.3914703" lon="10.4320235"><ele>10.0</ele><time>2026-04-04T13:00:03.056Z</time></trkpt><trkpt lat="43.3913133" lon="10.4322517"><ele>10.0</ele><time>2026-04-04T13:00:45.01Z</time></trkpt><trkpt lat="43.3912533" lon="10.4323067"><ele>10.0</ele><time>2026-04-04T13:00:46.011Z</time></trkpt><trkpt lat="43.3911883" lon="10.4323533"><ele>10.0</ele><time>2026-04-04T13:00:47.01Z</time></trkpt><trkpt lat="43.3911283" lon="10.4323917"><ele>10.0</ele><time>2026-04-04T13:00:48.011Z</time></trkpt><trkpt lat="43.39106" lon="10.4324433"><ele>10.0</ele><time>2026-04-04T13:00:49.013Z</time></trkpt><trkpt lat="43.3909817" lon="10.432495"><ele>10.0</ele><time>2026-04-04T13:00:50.012Z</time></trkpt><trkpt lat="43.3909183" lon="10.43254"><ele>10.0</ele><time>2026-04-04T13:00:51.012Z</time></trkpt><trkpt lat="43.3908517" lon="10.43259"><ele>10.0</ele><time>2026-04-04T13:00:52.01Z</time></trkpt><trkpt lat="43.3907833" lon="10.4326433"><ele>10.0</ele><time>2026-04-04T13:00:53.01Z</time></trkpt><trkpt lat="43.3907233" lon="10.4326933"><ele>10.0</ele><time>2026-04-04T13:00:54.011Z</time></trkpt><trkpt lat="43.3906317" lon="10.4327783"><ele>10.0</ele><time>2026-04-04T13:00:56.011Z</time></trkpt><trkpt lat="43.3906683" lon="10.4329167"><ele>10.0</ele><time>2026-04-04T13:00:58.01Z</time></trkpt><trkpt lat="43.3907483" lon="10.4330583"><ele>10.0</ele><time>2026-04-04T13:01:00.012Z</time></trkpt><trkpt lat="43.390795" lon="10.433135"><ele>10.0</ele><time>2026-04-04T13:01:01.011Z</time></trkpt><trkpt lat="43.3908433" lon="10.433215"><ele>10.0</ele><time>2026-04-04T13:01:02.013Z</time></trkpt><trkpt lat="43.3908867" lon="10.433295"><ele>10.0</ele><time>2026-04-04T13:01:03.013Z</time></trkpt><trkpt lat="43.3909183" lon="10.43338"><ele>10.0</ele><time>2026-04-04T13:01:04.011Z</time></trkpt><trkpt lat="43.3909583" lon="10.433455"><ele>10.0</ele><time>2026-04-04T13:01:05.013Z</time></trkpt><trkpt lat="43.3910317" lon="10.4336"><ele>10.0</ele><time>2026-04-04T13:01:07.013Z</time></trkpt><trkpt lat="43.3911" lon="10.4337383"><ele>10.0</ele><time>2026-04-04T13:01:09.013Z</time></trkpt><trkpt lat="43.3911567" lon="10.4338833"><ele>10.0</ele><time>2026-04-04T13:01:11.011Z</time></trkpt><trkpt lat="43.3911917" lon="10.4339583"><ele>10.0</ele><time>2026-04-04T13:01:12.011Z</time></trkpt><trkpt lat="43.39123" lon="10.4340333"><ele>10.0</ele><time>2026-04-04T13:01:13.011Z</time></trkpt><trkpt lat="43.3912667" lon="10.4341117"><ele>10.0</ele><time>2026-04-04T13:01:14.011Z</time></trkpt><trkpt lat="43.3913083" lon="10.4341933"><ele>10.333333333333334</ele><time>2026-04-04T13:01:15.013Z</time></trkpt><trkpt lat="43.3913483" lon="10.4342767"><ele>10.666666666666668</ele><time>2026-04-04T13:01:16.012Z</time></trkpt><trkpt lat="43.391385" lon="10.4343683"><ele>11.0</ele><time>2026-04-04T13:01:17.011Z</time></trkpt><trkpt lat="43.3914233" lon="10.4344683"><ele>11.333333333333334</ele><time>2026-04-04T13:01:18.012Z</time></trkpt><trkpt lat="43.391465" lon="10.4345617"><ele>11.666666666666666</ele><time>2026-04-04T13:01:19.01Z</time></trkpt><trkpt lat="43.3915" lon="10.434645"><ele>12.0</ele><time>2026-04-04T13:01:20.011Z</time></trkpt><trkpt lat="43.391555" lon="10.4347617"><ele>12.0</ele><time>2026-04-04T13:01:22.013Z</time></trkpt><trkpt lat="43.3915883" lon="10.4348367"><ele>12.0</ele><time>2026-04-04T13:01:25.012Z</time></trkpt><trkpt lat="43.3916617" lon="10.4348417"><ele>12.0</ele><time>2026-04-04T13:01:30.011Z</time></trkpt><trkpt lat="43.391715" lon="10.434785"><ele>12.0</ele><time>2026-04-04T13:01:31.011Z</time></trkpt><trkpt lat="43.3917933" lon="10.4347217"><ele>12.0</ele><time>2026-04-04T13:01:32.011Z</time></trkpt><trkpt lat="43.391875" lon="10.4346467"><ele>12.0</ele><time>2026-04-04T13:01:33.014Z</time></trkpt><trkpt lat="43.3919533" lon="10.434575"><ele>12.0</ele><time>2026-04-04T13:01:34.011Z</time></trkpt><trkpt lat="43.392025" lon="10.43451"><ele>12.0</ele><time>2026-04-04T13:01:35.01Z</time></trkpt><trkpt lat="43.3921083" lon="10.434445"><ele>12.0</ele><time>2026-04-04T13:01:36.013Z</time></trkpt><trkpt lat="43.392195" lon="10.4343767"><ele>12.0</ele><time>2026-04-04T13:01:37.011Z</time></trkpt><trkpt lat="43.3922783" lon="10.4343133"><ele>12.0</ele><time>2026-04-04T13:01:38.012Z</time></trkpt><trkpt lat="43.3923533" lon="10.434245"><ele>12.0</ele><time>2026-04-04T13:01:39.013Z</time></trkpt><trkpt lat="43.39243" lon="10.4341817"><ele>12.0</ele><time>2026-04-04T13:01:40.011Z</time></trkpt><trkpt lat="43.3925183" lon="10.434115"><ele>12.0</ele><time>2026-04-04T13:01:41.012Z</time></trkpt><trkpt lat="43.3926017" lon="10.434055"><ele>12.0</ele><time>2026-04-04T13:01:42.011Z</time></trkpt><trkpt lat="43.3926783" lon="10.4339933"><ele>12.0</ele><time>2026-04-04T13:01:43.011Z</time></trkpt><trkpt lat="43.3927567" lon="10.4339367"><ele>12.0</ele><time>2026-04-04T13:01:44.011Z</time></trkpt><trkpt lat="43.3928217" lon="10.433875"><ele>12.0</ele><time>2026-04-04T13:01:45.012Z</time></trkpt><trkpt lat="43.3929" lon="10.4338167"><ele>12.0</ele><time>2026-04-04T13:01:46.011Z</time></trkpt><trkpt lat="43.3929717" lon="10.433755"><ele>12.0</ele><time>2026-04-04T13:01:47.011Z</time></trkpt><trkpt lat="43.3930533" lon="10.4336933"><ele>12.0</ele><time>2026-04-04T13:01:48.012Z</time></trkpt><trkpt lat="43.39313" lon="10.4336367"><ele>12.0</ele><time>2026-04-04T13:01:49.011Z</time></trkpt><trkpt lat="43.3932" lon="10.43358"><ele>12.333333333333334</ele><time>2026-04-04T13:01:50.012Z</time></trkpt><trkpt lat="43.3932683" lon="10.4335183"><ele>12.666666666666668</ele><time>2026-04-04T13:01:51.012Z</time></trkpt><trkpt lat="43.39334" lon="10.4334583"><ele>13.0</ele><time>2026-04-04T13:01:52.011Z</time></trkpt><trkpt lat="43.3934133" lon="10.4334"><ele>13.333333333333334</ele><time>2026-04-04T13:01:53.012Z</time></trkpt><trkpt lat="43.393495" lon="10.43334"><ele>13.666666666666668</ele><time>2026-04-04T13:01:54.012Z</time></trkpt><trkpt lat="43.39357" lon="10.433275"><ele>14.0</ele><time>2026-04-04T13:01:55.012Z</time></trkpt><trkpt lat="43.3936417" lon="10.433205"><ele>14.000000000000002</ele><time>2026-04-04T13:01:56.012Z</time></trkpt><trkpt lat="43.393715" lon="10.4331417"><ele>14.0</ele><time>2026-04-04T13:01:57.01Z</time></trkpt><trkpt lat="43.3937883" lon="10.433085"><ele>14.0</ele><time>2026-04-04T13:01:58.011Z</time></trkpt><trkpt lat="43.39386" lon="10.433025"><ele>14.0</ele><time>2026-04-04T13:01:59.011Z</time></trkpt><trkpt lat="43.3939283" lon="10.432965"><ele>14.000000000000002</ele><time>2026-04-04T13:02:00.011Z</time></trkpt><trkpt lat="43.3940017" lon="10.432915"><ele>14.0</ele><time>2026-04-04T13:02:01.011Z</time></trkpt><trkpt lat="43.3940717" lon="10.43286"><ele>13.6</ele><time>2026-04-04T13:02:02.011Z</time></trkpt><trkpt lat="43.39415" lon="10.4328067"><ele>13.2</ele><time>2026-04-04T13:02:03.011Z</time></trkpt><trkpt lat="43.3942333" lon="10.4327467"><ele>12.799999999999999</ele><time>2026-04-04T13:02:04.011Z</time></trkpt><trkpt lat="43.39432" lon="10.4326833"><ele>12.399999999999999</ele><time>2026-04-04T13:02:05.011Z</time></trkpt><trkpt lat="43.3944083" lon="10.4326183"><ele>12.0</ele><time>2026-04-04T13:02:06.011Z</time></trkpt><trkpt lat="43.3944933" lon="10.4325533"><ele>12.0</ele><time>2026-04-04T13:02:07.013Z</time></trkpt><trkpt lat="43.39458" lon="10.432485"><ele>12.0</ele><time>2026-04-04T13:02:08.011Z</time></trkpt><trkpt lat="43.3946667" lon="10.4324167"><ele>12.0</ele><time>2026-04-04T13:02:09.012Z</time></trkpt><trkpt lat="43.3947517" lon="10.432345"><ele>12.0</ele><time>2026-04-04T13:02:10.013Z</time></trkpt><trkpt lat="43.3948333" lon="10.4322767"><ele>12.0</ele><time>2026-04-04T13:02:11.013Z</time></trkpt><trkpt lat="43.394915" lon="10.43221"><ele>12.0</ele><time>2026-04-04T13:02:12.011Z</time></trkpt><trkpt lat="43.394995" lon="10.4321483"><ele>12.0</ele><time>2026-04-04T13:02:13.012Z</time></trkpt><trkpt lat="43.3950783" lon="10.4320933"><ele>12.0</ele><time>2026-04-04T13:02:14.011Z</time></trkpt><trkpt lat="43.3951567" lon="10.4320367"><ele>12.0</ele><time>2026-04-04T13:02:15.011Z</time></trkpt><trkpt lat="43.3952367" lon="10.4319817"><ele>12.0</ele><time>2026-04-04T13:02:16.011Z</time></trkpt><trkpt lat="43.39532" lon="10.4319283"><ele>11.8</ele><time>2026-04-04T13:02:17.011Z</time></trkpt><trkpt lat="43.3954033" lon="10.431875"><ele>11.6</ele><time>2026-04-04T13:02:18.013Z</time></trkpt><trkpt lat="43.395485" lon="10.4318183"><ele>11.4</ele><time>2026-04-04T13:02:19.011Z</time></trkpt><trkpt lat="43.3955717" lon="10.4317617"><ele>11.200000000000001</ele><time>2026-04-04T13:02:20.012Z</time></trkpt><trkpt lat="43.3956567" lon="10.4316967"><ele>11.0</ele><time>2026-04-04T13:02:21.011Z</time></trkpt><trkpt lat="43.39574" lon="10.43163"><ele>10.8</ele><time>2026-04-04T13:02:22.012Z</time></trkpt><trkpt lat="43.3958233" lon="10.4315633"><ele>10.600000000000001</ele><time>2026-04-04T13:02:23.01Z</time></trkpt><trkpt lat="43.3959083" lon="10.4315"><ele>10.4</ele><time>2026-04-04T13:02:24.011Z</time></trkpt><trkpt lat="43.3959933" lon="10.4314333"><ele>10.2</ele><time>2026-04-04T13:02:25.011Z</time></trkpt><trkpt lat="43.3960783" lon="10.4313683"><ele>10.0</ele><time>2026-04-04T13:02:26.011Z</time></trkpt><trkpt lat="43.396165" lon="10.4313067"><ele>10.0</ele><time>2026-04-04T13:02:27.013Z</time></trkpt><trkpt lat="43.3962533" lon="10.4312383"><ele>10.0</ele><time>2026-04-04T13:02:28.01Z</time></trkpt><trkpt lat="43.3963383" lon="10.4311583"><ele>10.0</ele><time>2026-04-04T13:02:29.011Z</time></trkpt><trkpt lat="43.3964117" lon="10.4310667"><ele>10.0</ele><time>2026-04-04T13:02:30.011Z</time></trkpt><trkpt lat="43.3964933" lon="10.4309833"><ele>10.0</ele><time>2026-04-04T13:02:31.016Z</time></trkpt><trkpt lat="43.39658" lon="10.4309117"><ele>10.0</ele><time>2026-04-04T13:02:32.011Z</time></trkpt><trkpt lat="43.3966617" lon="10.4308317"><ele>10.0</ele><time>2026-04-04T13:02:33.012Z</time></trkpt><trkpt lat="43.39675" lon="10.430755"><ele>10.0</ele><time>2026-04-04T13:02:34.012Z</time></trkpt><trkpt lat="43.3968367" lon="10.4306683"><ele>10.0</ele><time>2026-04-04T13:02:35.011Z</time></trkpt><trkpt lat="43.3969267" lon="10.4305867"><ele>10.0</ele><time>2026-04-04T13:02:36.012Z</time></trkpt><trkpt lat="43.3970133" lon="10.4304967"><ele>9.8</ele><time>2026-04-04T13:02:37.011Z</time></trkpt><trkpt lat="43.397095" lon="10.430405"><ele>9.6</ele><time>2026-04-04T13:02:38.01Z</time></trkpt><trkpt lat="43.3971667" lon="10.4303183"><ele>9.4</ele><time>2026-04-04T13:02:39.011Z</time></trkpt><trkpt lat="43.397235" lon="10.4302333"><ele>9.2</ele><time>2026-04-04T13:02:40.011Z</time></trkpt><trkpt lat="43.3973017" lon="10.4301517"><ele>9.0</ele><time>2026-04-04T13:02:41.012Z</time></trkpt><trkpt lat="43.3973767" lon="10.4300617"><ele>9.2</ele><time>2026-04-04T13:02:42.011Z</time></trkpt><trkpt lat="43.3974567" lon="10.4299683"><ele>9.4</ele><time>2026-04-04T13:02:43.011Z</time></trkpt><trkpt lat="43.397535" lon="10.42987"><ele>9.6</ele><time>2026-04-04T13:02:44.01Z</time></trkpt><trkpt lat="43.3976167" lon="10.4297733"><ele>9.8</ele><time>2026-04-04T13:02:45.011Z</time></trkpt><trkpt lat="43.3976917" lon="10.429675"><ele>10.0</ele><time>2026-04-04T13:02:46.011Z</time></trkpt><trkpt lat="43.397765" lon="10.429575"><ele>10.0</ele><time>2026-04-04T13:02:47.01Z</time></trkpt><trkpt lat="43.39784" lon="10.4294817"><ele>10.0</ele><time>2026-04-04T13:02:48.011Z</time></trkpt><trkpt lat="43.3979117" lon="10.429385"><ele>10.0</ele><time>2026-04-04T13:02:49.012Z</time></trkpt><trkpt lat="43.3979867" lon="10.4292867"><ele>10.0</ele><time>2026-04-04T13:02:50.011Z</time></trkpt><trkpt lat="43.3980667" lon="10.42918"><ele>10.0</ele><time>2026-04-04T13:02:51.011Z</time></trkpt><trkpt lat="43.3981483" lon="10.4290717"><ele>10.2</ele><time>2026-04-04T13:02:52.011Z</time></trkpt><trkpt lat="43.3982333" lon="10.428965"><ele>10.4</ele><time>2026-04-04T13:02:53.011Z</time></trkpt><trkpt lat="43.39831" lon="10.4288583"><ele>10.600000000000001</ele><time>2026-04-04T13:02:54.011Z</time></trkpt><trkpt lat="43.3983833" lon="10.4287533"><ele>10.8</ele><time>2026-04-04T13:02:55.011Z</time></trkpt><trkpt lat="43.3984617" lon="10.4286567"><ele>11.0</ele><time>2026-04-04T13:02:56.011Z</time></trkpt><trkpt lat="43.398535" lon="10.4285583"><ele>10.200000000000001</ele><time>2026-04-04T13:02:57.01Z</time></trkpt><trkpt lat="43.3986083" lon="10.4284633"><ele>9.4</ele><time>2026-04-04T13:02:58.011Z</time></trkpt><trkpt lat="43.3986817" lon="10.4283717"><ele>8.6</ele><time>2026-04-04T13:02:59.011Z</time></trkpt><trkpt lat="43.398755" lon="10.4282717"><ele>7.8</ele><time>2026-04-04T13:03:00.013Z</time></trkpt><trkpt lat="43.3988283" lon="10.4281667"><ele>7.0</ele><time>2026-04-04T13:03:01.011Z</time></trkpt><trkpt lat="43.398905" lon="10.4280617"><ele>7.199999999999999</ele><time>2026-04-04T13:03:02.011Z</time></trkpt><trkpt lat="43.3989817" lon="10.42796"><ele>7.3999999999999995</ele><time>2026-04-04T13:03:03.011Z</time></trkpt><trkpt lat="43.399055" lon="10.42786"><ele>7.6000000000000005</ele><time>2026-04-04T13:03:04.012Z</time></trkpt><trkpt lat="43.399125" lon="10.4277633"><ele>7.800000000000001</ele><time>2026-04-04T13:03:05.01Z</time></trkpt><trkpt lat="43.3992" lon="10.427675"><ele>8.0</ele><time>2026-04-04T13:03:06.011Z</time></trkpt><trkpt lat="43.3992717" lon="10.4275883"><ele>7.999999999999999</ele><time>2026-04-04T13:03:07.012Z</time></trkpt><trkpt lat="43.399335" lon="10.4275033"><ele>8.0</ele><time>2026-04-04T13:03:08.012Z</time></trkpt><trkpt lat="43.3993983" lon="10.4274133"><ele>8.0</ele><time>2026-04-04T13:03:09.011Z</time></trkpt><trkpt lat="43.3994633" lon="10.42733"><ele>8.0</ele><time>2026-04-04T13:03:10.011Z</time></trkpt><trkpt lat="43.3995333" lon="10.4272533"><ele>7.999999999999999</ele><time>2026-04-04T13:03:11.011Z</time></trkpt><trkpt lat="43.3995967" lon="10.4271683"><ele>8.0</ele><time>2026-04-04T13:03:12.011Z</time></trkpt><trkpt lat="43.3996583" lon="10.4270783"><ele>8.166666666666666</ele><time>2026-04-04T13:03:13.011Z</time></trkpt><trkpt lat="43.39971" lon="10.4269817"><ele>8.333333333333332</ele><time>2026-04-04T13:03:14.011Z</time></trkpt><trkpt lat="43.3997667" lon="10.42689"><ele>8.5</ele><time>2026-04-04T13:03:15.011Z</time></trkpt><trkpt lat="43.3998283" lon="10.4268067"><ele>8.666666666666666</ele><time>2026-04-04T13:03:16.011Z</time></trkpt><trkpt lat="43.3998917" lon="10.4267217"><ele>8.833333333333334</ele><time>2026-04-04T13:03:17.011Z</time></trkpt><trkpt lat="43.3999533" lon="10.426635"><ele>9.0</ele><time>2026-04-04T13:03:18.011Z</time></trkpt><trkpt lat="43.400015" lon="10.42655"><ele>9.0</ele><time>2026-04-04T13:03:19.01Z</time></trkpt><trkpt lat="43.4000767" lon="10.4264683"><ele>9.0</ele><time>2026-04-04T13:03:20.01Z</time></trkpt><trkpt lat="43.400135" lon="10.4263883"><ele>9.0</ele><time>2026-04-04T13:03:21.011Z</time></trkpt><trkpt lat="43.4001883" lon="10.4263083"><ele>9.0</ele><time>2026-04-04T13:03:22.012Z</time></trkpt><trkpt lat="43.400245" lon="10.4262267"><ele>9.0</ele><time>2026-04-04T13:03:23.011Z</time></trkpt><trkpt lat="43.4003067" lon="10.42614"><ele>9.0</ele><time>2026-04-04T13:03:24.014Z</time></trkpt><trkpt lat="43.4003783" lon="10.4260567"><ele>9.2</ele><time>2026-04-04T13:03:25.011Z</time></trkpt><trkpt lat="43.4004517" lon="10.4259717"><ele>9.4</ele><time>2026-04-04T13:03:26.011Z</time></trkpt><trkpt lat="43.4005133" lon="10.42588"><ele>9.6</ele><time>2026-04-04T13:03:27.012Z</time></trkpt><trkpt lat="43.4005817" lon="10.425785"><ele>9.8</ele><time>2026-04-04T13:03:28.011Z</time></trkpt><trkpt lat="43.400645" lon="10.4256917"><ele>10.0</ele><time>2026-04-04T13:03:29.013Z</time></trkpt><trkpt lat="43.4007117" lon="10.4255983"><ele>10.0</ele><time>2026-04-04T13:03:30.012Z</time></trkpt><trkpt lat="43.40078" lon="10.42551"><ele>10.0</ele><time>2026-04-04T13:03:31.011Z</time></trkpt><trkpt lat="43.4008433" lon="10.425425"><ele>10.0</ele><time>2026-04-04T13:03:32.011Z</time></trkpt><trkpt lat="43.4009083" lon="10.4253317"><ele>10.0</ele><time>2026-04-04T13:03:33.012Z</time></trkpt><trkpt lat="43.4009817" lon="10.4252283"><ele>10.0</ele><time>2026-04-04T13:03:34.011Z</time></trkpt><trkpt lat="43.4010617" lon="10.4251267"><ele>10.0</ele><time>2026-04-04T13:03:35.012Z</time></trkpt><trkpt lat="43.40115" lon="10.425025"><ele>10.0</ele><time>2026-04-04T13:03:36.011Z</time></trkpt><trkpt lat="43.4012333" lon="10.4249267"><ele>10.0</ele><time>2026-04-04T13:03:37.012Z</time></trkpt><trkpt lat="43.4013117" lon="10.4248233"><ele>10.0</ele><time>2026-04-04T13:03:38.011Z</time></trkpt><trkpt lat="43.4013933" lon="10.424725"><ele>10.0</ele><time>2026-04-04T13:03:39.011Z</time></trkpt><trkpt lat="43.4014683" lon="10.4246233"><ele>10.8</ele><time>2026-04-04T13:03:40.011Z</time></trkpt><trkpt lat="43.4015483" lon="10.42453"><ele>11.6</ele><time>2026-04-04T13:03:41.011Z</time></trkpt><trkpt lat="43.4016267" lon="10.4244333"><ele>12.399999999999999</ele><time>2026-04-04T13:03:42.011Z</time></trkpt><trkpt lat="43.4016983" lon="10.4243417"><ele>13.2</ele><time>2026-04-04T13:03:43.013Z</time></trkpt><trkpt lat="43.40177" lon="10.4242467"><ele>14.0</ele><time>2026-04-04T13:03:44.011Z</time></trkpt><trkpt lat="43.401845" lon="10.424155"><ele>14.0</ele><time>2026-04-04T13:03:45.013Z</time></trkpt><trkpt lat="43.4019217" lon="10.4240683"><ele>13.999999999999998</ele><time>2026-04-04T13:03:46.011Z</time></trkpt><trkpt lat="43.4019967" lon="10.4239817"><ele>13.999999999999998</ele><time>2026-04-04T13:03:47.011Z</time></trkpt><trkpt lat="43.402075" lon="10.4238883"><ele>14.0</ele><time>2026-04-04T13:03:48.012Z</time></trkpt><trkpt lat="43.40215" lon="10.423785"><ele>14.0</ele><time>2026-04-04T13:03:49.011Z</time></trkpt><trkpt lat="43.402225" lon="10.423685"><ele>14.399999999999999</ele><time>2026-04-04T13:03:50.012Z</time></trkpt><trkpt lat="43.4023" lon="10.4235867"><ele>14.799999999999999</ele><time>2026-04-04T13:03:51.011Z</time></trkpt><trkpt lat="43.4023733" lon="10.42349"><ele>15.200000000000001</ele><time>2026-04-04T13:03:52.011Z</time></trkpt><trkpt lat="43.4024417" lon="10.4234"><ele>15.600000000000001</ele><time>2026-04-04T13:03:53.011Z</time></trkpt><trkpt lat="43.4025083" lon="10.423305"><ele>16.0</ele><time>2026-04-04T13:03:54.012Z</time></trkpt><trkpt lat="43.4025783" lon="10.4232217"><ele>15.999999999999998</ele><time>2026-04-04T13:03:55.011Z</time></trkpt><trkpt lat="43.40264" lon="10.4231383"><ele>16.0</ele><time>2026-04-04T13:03:56.012Z</time></trkpt><trkpt lat="43.4027" lon="10.423055"><ele>16.0</ele><time>2026-04-04T13:03:57.012Z</time></trkpt><trkpt lat="43.4027717" lon="10.422985"><ele>16.0</ele><time>2026-04-04T13:03:58.012Z</time></trkpt><trkpt lat="43.4028333" lon="10.4229167"><ele>15.999999999999998</ele><time>2026-04-04T13:03:59.011Z</time></trkpt><trkpt lat="43.4028933" lon="10.422835"><ele>16.0</ele><time>2026-04-04T13:04:00.012Z</time></trkpt><trkpt lat="43.4029533" lon="10.4227533"><ele>16.5</ele><time>2026-04-04T13:04:01.012Z</time></trkpt><trkpt lat="43.4030133" lon="10.4226833"><ele>17.0</ele><time>2026-04-04T13:04:02.012Z</time></trkpt><trkpt lat="43.4030717" lon="10.4226017"><ele>17.5</ele><time>2026-04-04T13:04:03.013Z</time></trkpt><trkpt lat="43.4031283" lon="10.422515"><ele>18.0</ele><time>2026-04-04T13:04:04.011Z</time></trkpt><trkpt lat="43.4031917" lon="10.4224283"><ele>18.5</ele><time>2026-04-04T13:04:05.013Z</time></trkpt><trkpt lat="43.4032583" lon="10.422335"><ele>19.0</ele><time>2026-04-04T13:04:06.013Z</time></trkpt><trkpt lat="43.40333" lon="10.422245"><ele>19.0</ele><time>2026-04-04T13:04:07.013Z</time></trkpt><trkpt lat="43.4034" lon="10.4221433"><ele>19.0</ele><time>2026-04-04T13:04:08.012Z</time></trkpt><trkpt lat="43.40347" lon="10.42204"><ele>19.0</ele><time>2026-04-04T13:04:09.012Z</time></trkpt><trkpt lat="43.4035533" lon="10.42194"><ele>19.0</ele><time>2026-04-04T13:04:10.012Z</time></trkpt><trkpt lat="43.4036317" lon="10.4218333"><ele>19.0</ele><time>2026-04-04T13:04:11.011Z</time></trkpt><trkpt lat="43.40371" lon="10.4217317"><ele>19.0</ele><time>2026-04-04T13:04:12.012Z</time></trkpt><trkpt lat="43.4037917" lon="10.421625"><ele>19.0</ele><time>2026-04-04T13:04:13.011Z</time></trkpt><trkpt lat="43.4038717" lon="10.421525"><ele>19.0</ele><time>2026-04-04T13:04:14.012Z</time></trkpt><trkpt lat="43.40395" lon="10.42142"><ele>19.0</ele><time>2026-04-04T13:04:15.011Z</time></trkpt><trkpt lat="43.4040217" lon="10.4213117"><ele>19.0</ele><time>2026-04-04T13:04:16.011Z</time></trkpt><trkpt lat="43.4040917" lon="10.4211983"><ele>18.0</ele><time>2026-04-04T13:04:17.011Z</time></trkpt><trkpt lat="43.4041467" lon="10.4210717"><ele>17.0</ele><time>2026-04-04T13:04:18.011Z</time></trkpt><trkpt lat="43.4041967" lon="10.4209433"><ele>15.999999999999998</ele><time>2026-04-04T13:04:19.011Z</time></trkpt><trkpt lat="43.4042333" lon="10.42081"><ele>15.0</ele><time>2026-04-04T13:04:20.011Z</time></trkpt><trkpt lat="43.404255" lon="10.4206767"><ele>14.0</ele><time>2026-04-04T13:04:21.012Z</time></trkpt><trkpt lat="43.4042683" lon="10.4205467"><ele>14.166666666666668</ele><time>2026-04-04T13:04:22.011Z</time></trkpt><trkpt lat="43.40428" lon="10.4204267"><ele>14.333333333333334</ele><time>2026-04-04T13:04:23.011Z</time></trkpt><trkpt lat="43.4042883" lon="10.42032"><ele>14.5</ele><time>2026-04-04T13:04:24.012Z</time></trkpt><trkpt lat="43.4043017" lon="10.42021"><ele>14.666666666666668</ele><time>2026-04-04T13:04:25.013Z</time></trkpt><trkpt lat="43.4043083" lon="10.420105"><ele>14.833333333333334</ele><time>2026-04-04T13:04:26.012Z</time></trkpt><trkpt lat="43.404315" lon="10.420015"><ele>15.0</ele><time>2026-04-04T13:04:27.013Z</time></trkpt><trkpt lat="43.404325" lon="10.4199267"><ele>15.0</ele><time>2026-04-04T13:04:28.012Z</time></trkpt><trkpt lat="43.40433" lon="10.4198333"><ele>15.0</ele><time>2026-04-04T13:04:29.013Z</time></trkpt><trkpt lat="43.4043367" lon="10.419735"><ele>15.0</ele><time>2026-04-04T13:04:30.012Z</time></trkpt><trkpt lat="43.4043417" lon="10.4196383"><ele>15.0</ele><time>2026-04-04T13:04:31.012Z</time></trkpt><trkpt lat="43.4043517" lon="10.419535"><ele>15.0</ele><time>2026-04-04T13:04:32.013Z</time></trkpt><trkpt lat="43.4043667" lon="10.4194267"><ele>15.0</ele><time>2026-04-04T13:04:33.012Z</time></trkpt><trkpt lat="43.4043833" lon="10.4193183"><ele>15.0</ele><time>2026-04-04T13:04:34.014Z</time></trkpt><trkpt lat="43.4043983" lon="10.419205"><ele>15.0</ele><time>2026-04-04T13:04:35.011Z</time></trkpt><trkpt lat="43.40442" lon="10.419095"><ele>15.0</ele><time>2026-04-04T13:04:36.012Z</time></trkpt><trkpt lat="43.4044383" lon="10.4189867"><ele>15.0</ele><time>2026-04-04T13:04:37.012Z</time></trkpt><trkpt lat="43.40445" lon="10.418875"><ele>15.0</ele><time>2026-04-04T13:04:38.013Z</time></trkpt><trkpt lat="43.40446" lon="10.4187567"><ele>15.0</ele><time>2026-04-04T13:04:39.012Z</time></trkpt><trkpt lat="43.40447" lon="10.4186367"><ele>15.0</ele><time>2026-04-04T13:04:40.012Z</time></trkpt><trkpt lat="43.4044717" lon="10.4185067"><ele>15.333333333333334</ele><time>2026-04-04T13:04:41.013Z</time></trkpt><trkpt lat="43.40448" lon="10.41839"><ele>15.666666666666668</ele><time>2026-04-04T13:04:42.012Z</time></trkpt><trkpt lat="43.40449" lon="10.4182733"><ele>16.0</ele><time>2026-04-04T13:04:43.013Z</time></trkpt><trkpt lat="43.4045" lon="10.418155"><ele>16.333333333333336</ele><time>2026-04-04T13:04:44.012Z</time></trkpt><trkpt lat="43.404515" lon="10.4180267"><ele>16.666666666666668</ele><time>2026-04-04T13:04:45.012Z</time></trkpt><trkpt lat="43.4045267" lon="10.417895"><ele>17.0</ele><time>2026-04-04T13:04:46.012Z</time></trkpt><trkpt lat="43.404535" lon="10.4177583"><ele>17.25</ele><time>2026-04-04T13:04:47.013Z</time></trkpt><trkpt lat="43.4045433" lon="10.4176167"><ele>17.5</ele><time>2026-04-04T13:04:48.012Z</time></trkpt><trkpt lat="43.4045683" lon="10.4174667"><ele>17.75</ele><time>2026-04-04T13:04:49.012Z</time></trkpt><trkpt lat="43.4045917" lon="10.41731"><ele>18.0</ele><time>2026-04-04T13:04:50.013Z</time></trkpt><trkpt lat="43.40461" lon="10.4171467"><ele>18.25</ele><time>2026-04-04T13:04:51.013Z</time></trkpt><trkpt lat="43.4046333" lon="10.41699"><ele>18.5</ele><time>2026-04-04T13:04:52.012Z</time></trkpt><trkpt lat="43.40465" lon="10.4168283"><ele>18.75</ele><time>2026-04-04T13:04:53.012Z</time></trkpt><trkpt lat="43.4046633" lon="10.4166633"><ele>19.0</ele><time>2026-04-04T13:04:54.013Z</time></trkpt><trkpt lat="43.404675" lon="10.4164967"><ele>19.0</ele><time>2026-04-04T13:04:55.012Z</time></trkpt><trkpt lat="43.404665" lon="10.41633"><ele>19.0</ele><time>2026-04-04T13:04:56.011Z</time></trkpt><trkpt lat="43.4045967" lon="10.4159983"><ele>19.0</ele><time>2026-04-04T13:04:58.011Z</time></trkpt><trkpt lat="43.4045533" lon="10.41583"><ele>18.5</ele><time>2026-04-04T13:04:59.011Z</time></trkpt><trkpt lat="43.4045133" lon="10.41566"><ele>18.0</ele><time>2026-04-04T13:05:00.01Z</time></trkpt><trkpt lat="43.4044767" lon="10.4154867"><ele>17.5</ele><time>2026-04-04T13:05:01.011Z</time></trkpt><trkpt lat="43.4044433" lon="10.41531"><ele>17.0</ele><time>2026-04-04T13:05:02.013Z</time></trkpt><trkpt lat="43.4044183" lon="10.4151333"><ele>17.0</ele><time>2026-04-04T13:05:03.013Z</time></trkpt><trkpt lat="43.4044" lon="10.414955"><ele>17.0</ele><time>2026-04-04T13:05:04.014Z</time></trkpt><trkpt lat="43.4043883" lon="10.414785"><ele>17.0</ele><time>2026-04-04T13:05:05.011Z</time></trkpt><trkpt lat="43.4043817" lon="10.41462"><ele>17.0</ele><time>2026-04-04T13:05:06.01Z</time></trkpt><trkpt lat="43.40437" lon="10.4144633"><ele>17.25</ele><time>2026-04-04T13:05:07.01Z</time></trkpt><trkpt lat="43.40436" lon="10.4143067"><ele>17.5</ele><time>2026-04-04T13:05:08.012Z</time></trkpt><trkpt lat="43.4043583" lon="10.4141483"><ele>17.75</ele><time>2026-04-04T13:05:09.011Z</time></trkpt><trkpt lat="43.404365" lon="10.4139883"><ele>18.0</ele><time>2026-04-04T13:05:10.011Z</time></trkpt><trkpt lat="43.4043733" lon="10.4138217"><ele>18.0</ele><time>2026-04-04T13:05:11.01Z</time></trkpt><trkpt lat="43.404385" lon="10.4136483"><ele>18.0</ele><time>2026-04-04T13:05:12.011Z</time></trkpt><trkpt lat="43.4044133" lon="10.413475"><ele>18.0</ele><time>2026-04-04T13:05:13.011Z</time></trkpt><trkpt lat="43.4044483" lon="10.4133033"><ele>18.0</ele><time>2026-04-04T13:05:14.011Z</time></trkpt><trkpt lat="43.4044767" lon="10.4131183"><ele>18.5</ele><time>2026-04-04T13:05:15.012Z</time></trkpt><trkpt lat="43.40451" lon="10.4129383"><ele>19.0</ele><time>2026-04-04T13:05:16.012Z</time></trkpt><trkpt lat="43.40454" lon="10.4127483"><ele>19.5</ele><time>2026-04-04T13:05:17.011Z</time></trkpt><trkpt lat="43.4045767" lon="10.4125583"><ele>20.0</ele><time>2026-04-04T13:05:18.011Z</time></trkpt><trkpt lat="43.4046133" lon="10.4123683"><ele>20.0</ele><time>2026-04-04T13:05:19.011Z</time></trkpt><trkpt lat="43.4046467" lon="10.41217"><ele>20.0</ele><time>2026-04-04T13:05:20.011Z</time></trkpt><trkpt lat="43.4046867" lon="10.41197"><ele>20.0</ele><time>2026-04-04T13:05:21.011Z</time></trkpt><trkpt lat="43.4047283" lon="10.4117783"><ele>20.0</ele><time>2026-04-04T13:05:22.013Z</time></trkpt><trkpt lat="43.4047783" lon="10.4115917"><ele>22.25</ele><time>2026-04-04T13:05:23.01Z</time></trkpt><trkpt lat="43.4048333" lon="10.4114167"><ele>24.5</ele><time>2026-04-04T13:05:24.013Z</time></trkpt><trkpt lat="43.4048867" lon="10.411245"><ele>26.75</ele><time>2026-04-04T13:05:25.011Z</time></trkpt><trkpt lat="43.404945" lon="10.4110833"><ele>29.0</ele><time>2026-04-04T13:05:26.011Z</time></trkpt><trkpt lat="43.405005" lon="10.4109317"><ele>29.25</ele><time>2026-04-04T13:05:27.011Z</time></trkpt><trkpt lat="43.40507" lon="10.410785"><ele>29.5</ele><time>2026-04-04T13:05:28.011Z</time></trkpt><trkpt lat="43.4051367" lon="10.4106383"><ele>29.75</ele><time>2026-04-04T13:05:29.01Z</time></trkpt><trkpt lat="43.4052017" lon="10.4104933"><ele>30.0</ele><time>2026-04-04T13:05:30.011Z</time></trkpt><trkpt lat="43.4052833" lon="10.4103617"><ele>30.25</ele><time>2026-04-04T13:05:31.011Z</time></trkpt><trkpt lat="43.4053717" lon="10.4102567"><ele>30.5</ele><time>2026-04-04T13:05:32.012Z</time></trkpt><trkpt lat="43.40546" lon="10.410155"><ele>30.75</ele><time>2026-04-04T13:05:33.011Z</time></trkpt><trkpt lat="43.4055433" lon="10.41005"><ele>31.0</ele><time>2026-04-04T13:05:34.01Z</time></trkpt><trkpt lat="43.405625" lon="10.4099533"><ele>31.25</ele><time>2026-04-04T13:05:35.011Z</time></trkpt><trkpt lat="43.4057033" lon="10.40984"><ele>31.5</ele><time>2026-04-04T13:05:36.012Z</time></trkpt><trkpt lat="43.4057817" lon="10.4097367"><ele>31.75</ele><time>2026-04-04T13:05:37.011Z</time></trkpt><trkpt lat="43.4058633" lon="10.40963"><ele>32.0</ele><time>2026-04-04T13:05:38.012Z</time></trkpt><trkpt lat="43.4059383" lon="10.409505"><ele>31.0</ele><time>2026-04-04T13:05:39.012Z</time></trkpt><trkpt lat="43.4060183" lon="10.4093833"><ele>30.0</ele><time>2026-04-04T13:05:40.011Z</time></trkpt><trkpt lat="43.4061133" lon="10.40927"><ele>29.0</ele><time>2026-04-04T13:05:41.01Z</time></trkpt><trkpt lat="43.4062117" lon="10.409175"><ele>28.0</ele><time>2026-04-04T13:05:42.011Z</time></trkpt><trkpt lat="43.4063133" lon="10.4090967"><ele>28.25</ele><time>2026-04-04T13:05:43.01Z</time></trkpt><trkpt lat="43.4064183" lon="10.4090233"><ele>28.5</ele><time>2026-04-04T13:05:44.01Z</time></trkpt><trkpt lat="43.40653" lon="10.4089467"><ele>28.75</ele><time>2026-04-04T13:05:45.011Z</time></trkpt><trkpt lat="43.4066433" lon="10.408855"><ele>29.0</ele><time>2026-04-04T13:05:46.01Z</time></trkpt><trkpt lat="43.4067583" lon="10.4087517"><ele>27.0</ele><time>2026-04-04T13:05:47.011Z</time></trkpt><trkpt lat="43.4068783" lon="10.4086533"><ele>25.0</ele><time>2026-04-04T13:05:48.011Z</time></trkpt><trkpt lat="43.407" lon="10.4085633"><ele>23.0</ele><time>2026-04-04T13:05:49.01Z</time></trkpt><trkpt lat="43.4071267" lon="10.40848"><ele>21.0</ele><time>2026-04-04T13:05:50.011Z</time></trkpt><trkpt lat="43.4072517" lon="10.408385"><ele>21.0</ele><time>2026-04-04T13:05:51.013Z</time></trkpt><trkpt lat="43.4073783" lon="10.4083033"><ele>21.0</ele><time>2026-04-04T13:05:52.01Z</time></trkpt><trkpt lat="43.4075083" lon="10.4082317"><ele>21.0</ele><time>2026-04-04T13:05:53.01Z</time></trkpt><trkpt lat="43.40764" lon="10.40817"><ele>21.0</ele><time>2026-04-04T13:05:54.01Z</time></trkpt><trkpt lat="43.40777" lon="10.4081017"><ele>21.0</ele><time>2026-04-04T13:05:55.011Z</time></trkpt><trkpt lat="43.4079" lon="10.4080483"><ele>21.0</ele><time>2026-04-04T13:05:56.01Z</time></trkpt><trkpt lat="43.40803" lon="10.407995"><ele>21.0</ele><time>2026-04-04T13:05:57.01Z</time></trkpt><trkpt lat="43.40816" lon="10.4079383"><ele>21.0</ele><time>2026-04-04T13:05:58.01Z</time></trkpt><trkpt lat="43.4082867" lon="10.40788"><ele>19.25</ele><time>2026-04-04T13:05:59.01Z</time></trkpt><trkpt lat="43.4084167" lon="10.40783"><ele>17.5</ele><time>2026-04-04T13:06:00.01Z</time></trkpt><trkpt lat="43.4085417" lon="10.4077783"><ele>15.75</ele><time>2026-04-04T13:06:01.011Z</time></trkpt><trkpt lat="43.4086683" lon="10.4077267"><ele>14.0</ele><time>2026-04-04T13:06:02.011Z</time></trkpt><trkpt lat="43.408795" lon="10.407685"><ele>14.5</ele><time>2026-04-04T13:06:03.013Z</time></trkpt><trkpt lat="43.4089233" lon="10.4076417"><ele>15.0</ele><time>2026-04-04T13:06:04.01Z</time></trkpt><trkpt lat="43.40905" lon="10.407595"><ele>15.5</ele><time>2026-04-04T13:06:05.012Z</time></trkpt><trkpt lat="43.4091767" lon="10.4075583"><ele>16.0</ele><time>2026-04-04T13:06:06.012Z</time></trkpt><trkpt lat="43.409305" lon="10.4075383"><ele>16.0</ele><time>2026-04-04T13:06:07.011Z</time></trkpt><trkpt lat="43.40944" lon="10.4075483"><ele>16.0</ele><time>2026-04-04T13:06:08.011Z</time></trkpt><trkpt lat="43.409575" lon="10.4075633"><ele>16.0</ele><time>2026-04-04T13:06:09.012Z</time></trkpt><trkpt lat="43.4097083" lon="10.4075833"><ele>16.0</ele><time>2026-04-04T13:06:10.011Z</time></trkpt><trkpt lat="43.4098383" lon="10.4075983"><ele>16.400000000000002</ele><time>2026-04-04T13:06:11.011Z</time></trkpt><trkpt lat="43.409965" lon="10.4075983"><ele>16.8</ele><time>2026-04-04T13:06:12.012Z</time></trkpt><trkpt lat="43.41008" lon="10.40758"><ele>17.200000000000003</ele><time>2026-04-04T13:06:13.011Z</time></trkpt><trkpt lat="43.4101783" lon="10.4075233"><ele>17.6</ele><time>2026-04-04T13:06:14.011Z</time></trkpt><trkpt lat="43.4102383" lon="10.407415"><ele>18.0</ele><time>2026-04-04T13:06:15.013Z</time></trkpt><trkpt lat="43.4102617" lon="10.40729"><ele>17.25</ele><time>2026-04-04T13:06:16.014Z</time></trkpt><trkpt lat="43.4102467" lon="10.407145"><ele>16.5</ele><time>2026-04-04T13:06:17.012Z</time></trkpt><trkpt lat="43.4102267" lon="10.4069917"><ele>15.75</ele><time>2026-04-04T13:06:18.011Z</time></trkpt><trkpt lat="43.4102" lon="10.406825"><ele>15.0</ele><time>2026-04-04T13:06:19.012Z</time></trkpt><trkpt lat="43.4101733" lon="10.4066417"><ele>15.0</ele><time>2026-04-04T13:06:20.013Z</time></trkpt><trkpt lat="43.4101467" lon="10.4064617"><ele>15.0</ele><time>2026-04-04T13:06:21.015Z</time></trkpt><trkpt lat="43.4101233" lon="10.4062983"><ele>15.0</ele><time>2026-04-04T13:06:22.011Z</time></trkpt><trkpt lat="43.4101033" lon="10.406145"><ele>15.0</ele><time>2026-04-04T13:06:23.012Z</time></trkpt><trkpt lat="43.4100817" lon="10.40599"><ele>15.0</ele><time>2026-04-04T13:06:24.012Z</time></trkpt><trkpt lat="43.4100783" lon="10.4058383"><ele>15.0</ele><time>2026-04-04T13:06:25.011Z</time></trkpt><trkpt lat="43.410085" lon="10.4056817"><ele>15.0</ele><time>2026-04-04T13:06:26.012Z</time></trkpt><trkpt lat="43.4100917" lon="10.4055317"><ele>15.0</ele><time>2026-04-04T13:06:27.012Z</time></trkpt><trkpt lat="43.4101083" lon="10.4053917"><ele>15.0</ele><time>2026-04-04T13:06:28.011Z</time></trkpt><trkpt lat="43.4101317" lon="10.4052483"><ele>15.0</ele><time>2026-04-04T13:06:29.011Z</time></trkpt><trkpt lat="43.4101583" lon="10.4051033"><ele>15.0</ele><time>2026-04-04T13:06:30.011Z</time></trkpt><trkpt lat="43.4101867" lon="10.4049633"><ele>15.0</ele><time>2026-04-04T13:06:31.012Z</time></trkpt><trkpt lat="43.41022" lon="10.4048283"><ele>15.0</ele><time>2026-04-04T13:06:32.01Z</time></trkpt><trkpt lat="43.4102633" lon="10.4046933"><ele>15.0</ele><time>2026-04-04T13:06:33.011Z</time></trkpt><trkpt lat="43.4103117" lon="10.4045617"><ele>13.2</ele><time>2026-04-04T13:06:34.012Z</time></trkpt><trkpt lat="43.41036" lon="10.404435"><ele>11.4</ele><time>2026-04-04T13:06:35.01Z</time></trkpt><trkpt lat="43.4104167" lon="10.4043167"><ele>9.6</ele><time>2026-04-04T13:06:36.01Z</time></trkpt><trkpt lat="43.41049" lon="10.40421"><ele>7.8</ele><time>2026-04-04T13:06:37.011Z</time></trkpt><trkpt lat="43.41057" lon="10.4041117"><ele>6.0</ele><time>2026-04-04T13:06:38.012Z</time></trkpt><trkpt lat="43.41066" lon="10.4040317"><ele>11.0</ele><time>2026-04-04T13:06:39.011Z</time></trkpt><trkpt lat="43.4107617" lon="10.4039583"><ele>16.0</ele><time>2026-04-04T13:06:40.01Z</time></trkpt><trkpt lat="43.41087" lon="10.4039033"><ele>21.0</ele><time>2026-04-04T13:06:41.01Z</time></trkpt><trkpt lat="43.410985" lon="10.4038783"><ele>26.0</ele><time>2026-04-04T13:06:42.01Z</time></trkpt><trkpt lat="43.4110983" lon="10.4038567"><ele>26.0</ele><time>2026-04-04T13:06:43.01Z</time></trkpt><trkpt lat="43.41122" lon="10.403865"><ele>26.0</ele><time>2026-04-04T13:06:44.011Z</time></trkpt><trkpt lat="43.4113483" lon="10.403895"><ele>26.0</ele><time>2026-04-04T13:06:45.011Z</time></trkpt><trkpt lat="43.4114867" lon="10.4039417"><ele>26.0</ele><time>2026-04-04T13:06:46.011Z</time></trkpt><trkpt lat="43.4116117" lon="10.4039983"><ele>26.25</ele><time>2026-04-04T13:06:47.012Z</time></trkpt><trkpt lat="43.4117333" lon="10.40405"><ele>26.5</ele><time>2026-04-04T13:06:48.01Z</time></trkpt><trkpt lat="43.411845" lon="10.40409"><ele>26.75</ele><time>2026-04-04T13:06:49.011Z</time></trkpt><trkpt lat="43.4119633" lon="10.4041183"><ele>27.0</ele><time>2026-04-04T13:06:50.011Z</time></trkpt><trkpt lat="43.4120833" lon="10.4041317"><ele>28.5</ele><time>2026-04-04T13:06:51.011Z</time></trkpt><trkpt lat="43.4122033" lon="10.4041167"><ele>30.0</ele><time>2026-04-04T13:06:52.01Z</time></trkpt><trkpt lat="43.4123217" lon="10.4040733"><ele>31.5</ele><time>2026-04-04T13:06:53.012Z</time></trkpt><trkpt lat="43.412435" lon="10.4039933"><ele>33.0</ele><time>2026-04-04T13:06:54.011Z</time></trkpt><trkpt lat="43.41254" lon="10.4039133"><ele>27.5</ele><time>2026-04-04T13:06:55.011Z</time></trkpt><trkpt lat="43.41264" lon="10.40382"><ele>22.0</ele><time>2026-04-04T13:06:56.01Z</time></trkpt><trkpt lat="43.4127317" lon="10.403705"><ele>16.5</ele><time>2026-04-04T13:06:57.01Z</time></trkpt><trkpt lat="43.4128217" lon="10.40356"><ele>11.0</ele><time>2026-04-04T13:06:58.011Z</time></trkpt><trkpt lat="43.41292" lon="10.403385"><ele>12.333333333333332</ele><time>2026-04-04T13:06:59.01Z</time></trkpt><trkpt lat="43.41303" lon="10.4031983"><ele>13.666666666666666</ele><time>2026-04-04T13:07:00.011Z</time></trkpt><trkpt lat="43.4131433" lon="10.4030267"><ele>15.0</ele><time>2026-04-04T13:07:01.011Z</time></trkpt><trkpt lat="43.4132433" lon="10.4028617"><ele>15.0</ele><time>2026-04-04T13:07:02.01Z</time></trkpt><trkpt lat="43.4133433" lon="10.4027317"><ele>15.0</ele><time>2026-04-04T13:07:03.012Z</time></trkpt><trkpt lat="43.4134533" lon="10.4026433"><ele>15.0</ele><time>2026-04-04T13:07:04.011Z</time></trkpt><trkpt lat="43.4135717" lon="10.4025967"><ele>15.0</ele><time>2026-04-04T13:07:05.011Z</time></trkpt><trkpt lat="43.4136967" lon="10.4025917"><ele>15.0</ele><time>2026-04-04T13:07:06.01Z</time></trkpt><trkpt lat="43.41382" lon="10.40262"><ele>15.0</ele><time>2026-04-04T13:07:07.011Z</time></trkpt><trkpt lat="43.4139517" lon="10.4026517"><ele>15.0</ele><time>2026-04-04T13:07:08.011Z</time></trkpt><trkpt lat="43.414095" lon="10.4026483"><ele>15.0</ele><time>2026-04-04T13:07:09.011Z</time></trkpt><trkpt lat="43.4142367" lon="10.4025967"><ele>17.333333333333332</ele><time>2026-04-04T13:07:10.01Z</time></trkpt><trkpt lat="43.41439" lon="10.4025233"><ele>19.666666666666664</ele><time>2026-04-04T13:07:11.01Z</time></trkpt><trkpt lat="43.41454" lon="10.402425"><ele>22.0</ele><time>2026-04-04T13:07:12.012Z</time></trkpt><trkpt lat="43.4146867" lon="10.4023117"><ele>24.25</ele><time>2026-04-04T13:07:13.01Z</time></trkpt><trkpt lat="43.4148217" lon="10.4022067"><ele>26.5</ele><time>2026-04-04T13:07:14.011Z</time></trkpt><trkpt lat="43.4149617" lon="10.4021367"><ele>28.75</ele><time>2026-04-04T13:07:15.01Z</time></trkpt><trkpt lat="43.4151033" lon="10.4020967"><ele>31.0</ele><time>2026-04-04T13:07:16.011Z</time></trkpt><trkpt lat="43.4152283" lon="10.4020683"><ele>29.25</ele><time>2026-04-04T13:07:17.012Z</time></trkpt><trkpt lat="43.4153483" lon="10.4020033"><ele>27.5</ele><time>2026-04-04T13:07:18.01Z</time></trkpt><trkpt lat="43.415465" lon="10.4018967"><ele>25.75</ele><time>2026-04-04T13:07:19.012Z</time></trkpt><trkpt lat="43.4155683" lon="10.4017533"><ele>24.0</ele><time>2026-04-04T13:07:20.01Z</time></trkpt><trkpt lat="43.4156633" lon="10.4015983"><ele>24.0</ele><time>2026-04-04T13:07:21.013Z</time></trkpt><trkpt lat="43.415765" lon="10.4014617"><ele>24.0</ele><time>2026-04-04T13:07:22.01Z</time></trkpt><trkpt lat="43.4158833" lon="10.4013617"><ele>24.0</ele><time>2026-04-04T13:07:23.01Z</time></trkpt><trkpt lat="43.416015" lon="10.40131"><ele>24.0</ele><time>2026-04-04T13:07:24.01Z</time></trkpt><trkpt lat="43.4161567" lon="10.4012883"><ele>24.5</ele><time>2026-04-04T13:07:25.011Z</time></trkpt><trkpt lat="43.416305" lon="10.4012933"><ele>25.0</ele><time>2026-04-04T13:07:26.011Z</time></trkpt><trkpt lat="43.4164567" lon="10.4013167"><ele>25.5</ele><time>2026-04-04T13:07:27.011Z</time></trkpt><trkpt lat="43.4166017" lon="10.401345"><ele>26.0</ele><time>2026-04-04T13:07:28.012Z</time></trkpt><trkpt lat="43.416755" lon="10.4013833"><ele>26.0</ele><time>2026-04-04T13:07:29.011Z</time></trkpt><trkpt lat="43.4169133" lon="10.4014183"><ele>26.0</ele><time>2026-04-04T13:07:30.012Z</time></trkpt><trkpt lat="43.417075" lon="10.4014533"><ele>26.0</ele><time>2026-04-04T13:07:31.013Z</time></trkpt><trkpt lat="43.417245" lon="10.4014833"><ele>24.0</ele><time>2026-04-04T13:07:32.012Z</time></trkpt><trkpt lat="43.4174133" lon="10.4015133"><ele>22.0</ele><time>2026-04-04T13:07:33.011Z</time></trkpt><trkpt lat="43.4175817" lon="10.40155"><ele>20.0</ele><time>2026-04-04T13:07:34.011Z</time></trkpt><trkpt lat="43.417755" lon="10.401585"><ele>20.0</ele><time>2026-04-04T13:07:35.01Z</time></trkpt><trkpt lat="43.4179283" lon="10.40162"><ele>20.0</ele><time>2026-04-04T13:07:36.011Z</time></trkpt><trkpt lat="43.4180983" lon="10.4016533"><ele>20.0</ele><time>2026-04-04T13:07:37.011Z</time></trkpt><trkpt lat="43.4182683" lon="10.4016917"><ele>18.666666666666668</ele><time>2026-04-04T13:07:38.011Z</time></trkpt><trkpt lat="43.41843" lon="10.4017267"><ele>17.333333333333332</ele><time>2026-04-04T13:07:39.013Z</time></trkpt><trkpt lat="43.41859" lon="10.40176"><ele>16.0</ele><time>2026-04-04T13:07:40.011Z</time></trkpt><trkpt lat="43.4187483" lon="10.4017833"><ele>15.333333333333332</ele><time>2026-04-04T13:07:41.01Z</time></trkpt><trkpt lat="43.4188983" lon="10.4017983"><ele>14.666666666666668</ele><time>2026-04-04T13:07:42.017Z</time></trkpt><trkpt lat="43.4190517" lon="10.4018083"><ele>14.0</ele><time>2026-04-04T13:07:43.012Z</time></trkpt><trkpt lat="43.4192083" lon="10.4018167"><ele>14.0</ele><time>2026-04-04T13:07:44.011Z</time></trkpt><trkpt lat="43.4193683" lon="10.4018233"><ele>14.0</ele><time>2026-04-04T13:07:45.014Z</time></trkpt><trkpt lat="43.4195233" lon="10.4018317"><ele>14.0</ele><time>2026-04-04T13:07:46.01Z</time></trkpt><trkpt lat="43.4196817" lon="10.4018417"><ele>12.333333333333334</ele><time>2026-04-04T13:07:47.011Z</time></trkpt><trkpt lat="43.41984" lon="10.4018467"><ele>10.666666666666668</ele><time>2026-04-04T13:07:48.011Z</time></trkpt><trkpt lat="43.4199933" lon="10.4018417"><ele>9.0</ele><time>2026-04-04T13:07:49.01Z</time></trkpt><trkpt lat="43.42014" lon="10.4018167"><ele>9.0</ele><time>2026-04-04T13:07:50.011Z</time></trkpt><trkpt lat="43.420285" lon="10.4017633"><ele>9.0</ele><time>2026-04-04T13:07:51.011Z</time></trkpt><trkpt lat="43.4204283" lon="10.4016667"><ele>9.0</ele><time>2026-04-04T13:07:52.01Z</time></trkpt><trkpt lat="43.42057" lon="10.40155"><ele>8.0</ele><time>2026-04-04T13:07:53.011Z</time></trkpt><trkpt lat="43.42071" lon="10.4014317"><ele>7.0</ele><time>2026-04-04T13:07:54.011Z</time></trkpt><trkpt lat="43.42084" lon="10.4013167"><ele>6.0</ele><time>2026-04-04T13:07:55.01Z</time></trkpt><trkpt lat="43.4209667" lon="10.4012233"><ele>6.0</ele><time>2026-04-04T13:07:56.012Z</time></trkpt><trkpt lat="43.4210883" lon="10.401165"><ele>6.0</ele><time>2026-04-04T13:07:57.011Z</time></trkpt><trkpt lat="43.4212117" lon="10.4011417"><ele>6.0</ele><time>2026-04-04T13:07:58.012Z</time></trkpt><trkpt lat="43.42135" lon="10.4011583"><ele>6.0</ele><time>2026-04-04T13:07:59.012Z</time></trkpt><trkpt lat="43.4214967" lon="10.401185"><ele>7.333333333333334</ele><time>2026-04-04T13:08:00.01Z</time></trkpt><trkpt lat="43.4216533" lon="10.4012283"><ele>8.666666666666668</ele><time>2026-04-04T13:08:01.011Z</time></trkpt><trkpt lat="43.4218233" lon="10.40128"><ele>10.0</ele><time>2026-04-04T13:08:02.012Z</time></trkpt><trkpt lat="43.421995" lon="10.4013283"><ele>13.666666666666668</ele><time>2026-04-04T13:08:03.011Z</time></trkpt><trkpt lat="43.4221617" lon="10.4013767"><ele>17.333333333333332</ele><time>2026-04-04T13:08:04.011Z</time></trkpt><trkpt lat="43.4223283" lon="10.4014183"><ele>21.0</ele><time>2026-04-04T13:08:05.012Z</time></trkpt><trkpt lat="43.422495" lon="10.401455"><ele>21.0</ele><time>2026-04-04T13:08:06.012Z</time></trkpt><trkpt lat="43.42266" lon="10.401495"><ele>21.0</ele><time>2026-04-04T13:08:07.012Z</time></trkpt><trkpt lat="43.4228033" lon="10.4015383"><ele>21.0</ele><time>2026-04-04T13:08:08.012Z</time></trkpt><trkpt lat="43.4229417" lon="10.401575"><ele>21.0</ele><time>2026-04-04T13:08:09.012Z</time></trkpt><trkpt lat="43.4230917" lon="10.4015783"><ele>21.0</ele><time>2026-04-04T13:08:10.012Z</time></trkpt><trkpt lat="43.4232433" lon="10.4015417"><ele>21.0</ele><time>2026-04-04T13:08:11.012Z</time></trkpt><trkpt lat="43.4233933" lon="10.4014917"><ele>21.0</ele><time>2026-04-04T13:08:12.012Z</time></trkpt><trkpt lat="43.42355" lon="10.4014317"><ele>21.0</ele><time>2026-04-04T13:08:13.011Z</time></trkpt><trkpt lat="43.423715" lon="10.40138"><ele>21.0</ele><time>2026-04-04T13:08:14.011Z</time></trkpt><trkpt lat="43.423885" lon="10.4013317"><ele>16.0</ele><time>2026-04-04T13:08:15.01Z</time></trkpt><trkpt lat="43.42406" lon="10.4012883"><ele>11.0</ele><time>2026-04-04T13:08:16.01Z</time></trkpt><trkpt lat="43.42424" lon="10.40126"><ele>6.0</ele><time>2026-04-04T13:08:17.012Z</time></trkpt><trkpt lat="43.4244167" lon="10.4012417"><ele>6.0</ele><time>2026-04-04T13:08:18.01Z</time></trkpt><trkpt lat="43.4245967" lon="10.4012117"><ele>6.0</ele><time>2026-04-04T13:08:19.01Z</time></trkpt><trkpt lat="43.4247717" lon="10.40116"><ele>6.0</ele><time>2026-04-04T13:08:20.011Z</time></trkpt><trkpt lat="43.4249433" lon="10.401095"><ele>7.333333333333334</ele><time>2026-04-04T13:08:21.012Z</time></trkpt><trkpt lat="43.4251183" lon="10.4010333"><ele>8.666666666666668</ele><time>2026-04-04T13:08:22.01Z</time></trkpt><trkpt lat="43.4252767" lon="10.4009767"><ele>10.0</ele><time>2026-04-04T13:08:23.01Z</time></trkpt><trkpt lat="43.4254217" lon="10.4009217"><ele>12.5</ele><time>2026-04-04T13:08:24.011Z</time></trkpt><trkpt lat="43.4255567" lon="10.4008617"><ele>15.0</ele><time>2026-04-04T13:08:25.01Z</time></trkpt><trkpt lat="43.4256717" lon="10.4007817"><ele>17.5</ele><time>2026-04-04T13:08:26.01Z</time></trkpt><trkpt lat="43.4257717" lon="10.4006717"><ele>20.0</ele><time>2026-04-04T13:08:27.01Z</time></trkpt><trkpt lat="43.4258533" lon="10.400525"><ele>16.5</ele><time>2026-04-04T13:08:28.01Z</time></trkpt><trkpt lat="43.4259333" lon="10.40037"><ele>13.0</ele><time>2026-04-04T13:08:29.013Z</time></trkpt><trkpt lat="43.4260167" lon="10.4002167"><ele>9.5</ele><time>2026-04-04T13:08:30.01Z</time></trkpt><trkpt lat="43.4261133" lon="10.400085"><ele>6.0</ele><time>2026-04-04T13:08:31.01Z</time></trkpt><trkpt lat="43.4262317" lon="10.3999867"><ele>6.5</ele><time>2026-04-04T13:08:32.011Z</time></trkpt><trkpt lat="43.4263667" lon="10.399925"><ele>7.0</ele><time>2026-04-04T13:08:33.011Z</time></trkpt><trkpt lat="43.426505" lon="10.3998633"><ele>7.5</ele><time>2026-04-04T13:08:34.011Z</time></trkpt><trkpt lat="43.42663" lon="10.39979"><ele>8.0</ele><time>2026-04-04T13:08:35.012Z</time></trkpt><trkpt lat="43.4267317" lon="10.39966"><ele>8.0</ele><time>2026-04-04T13:08:36.011Z</time></trkpt><trkpt lat="43.4268067" lon="10.39949"><ele>8.0</ele><time>2026-04-04T13:08:37.012Z</time></trkpt><trkpt lat="43.4268633" lon="10.3993067"><ele>8.0</ele><time>2026-04-04T13:08:38.011Z</time></trkpt><trkpt lat="43.4269217" lon="10.3991483"><ele>8.0</ele><time>2026-04-04T13:08:39.011Z</time></trkpt><trkpt lat="43.4269917" lon="10.3990083"><ele>8.0</ele><time>2026-04-04T13:08:40.011Z</time></trkpt><trkpt lat="43.427095" lon="10.39891"><ele>8.0</ele><time>2026-04-04T13:08:41.012Z</time></trkpt><trkpt lat="43.42722" lon="10.3988483"><ele>8.0</ele><time>2026-04-04T13:08:42.011Z</time></trkpt><trkpt lat="43.4273617" lon="10.39882"><ele>8.0</ele><time>2026-04-04T13:08:43.012Z</time></trkpt><trkpt lat="43.4275117" lon="10.398805"><ele>8.25</ele><time>2026-04-04T13:08:44.011Z</time></trkpt><trkpt lat="43.4276517" lon="10.3987833"><ele>8.5</ele><time>2026-04-04T13:08:45.01Z</time></trkpt><trkpt lat="43.4277833" lon="10.3987333"><ele>8.75</ele><time>2026-04-04T13:08:46.011Z</time></trkpt><trkpt lat="43.4279083" lon="10.39863"><ele>9.0</ele><time>2026-04-04T13:08:47.011Z</time></trkpt><trkpt lat="43.4280217" lon="10.3984667"><ele>11.333333333333332</ele><time>2026-04-04T13:08:48.011Z</time></trkpt><trkpt lat="43.42813" lon="10.3982883"><ele>13.666666666666666</ele><time>2026-04-04T13:08:49.01Z</time></trkpt><trkpt lat="43.4282483" lon="10.3981167"><ele>16.0</ele><time>2026-04-04T13:08:50.011Z</time></trkpt><trkpt lat="43.4283517" lon="10.3979383"><ele>16.333333333333332</ele><time>2026-04-04T13:08:51.012Z</time></trkpt><trkpt lat="43.4284267" lon="10.39774"><ele>16.666666666666668</ele><time>2026-04-04T13:08:52.012Z</time></trkpt><trkpt lat="43.42848" lon="10.3975167"><ele>17.0</ele><time>2026-04-04T13:08:53.011Z</time></trkpt><trkpt lat="43.4285333" lon="10.397285"><ele>16.333333333333336</ele><time>2026-04-04T13:08:54.011Z</time></trkpt><trkpt lat="43.4285883" lon="10.3970467"><ele>15.666666666666668</ele><time>2026-04-04T13:08:55.011Z</time></trkpt><trkpt lat="43.4286467" lon="10.39683"><ele>15.0</ele><time>2026-04-04T13:08:56.011Z</time></trkpt><trkpt lat="43.42871" lon="10.396635"><ele>15.0</ele><time>2026-04-04T13:08:57.011Z</time></trkpt><trkpt lat="43.4287983" lon="10.3964733"><ele>15.0</ele><time>2026-04-04T13:08:58.011Z</time></trkpt><trkpt lat="43.4289133" lon="10.3963433"><ele>15.0</ele><time>2026-04-04T13:08:59.011Z</time></trkpt><trkpt lat="43.4290467" lon="10.3962383"><ele>15.0</ele><time>2026-04-04T13:09:00.014Z</time></trkpt><trkpt lat="43.429185" lon="10.396155"><ele>17.0</ele><time>2026-04-04T13:09:01.011Z</time></trkpt><trkpt lat="43.4293133" lon="10.39606"><ele>19.0</ele><time>2026-04-04T13:09:02.011Z</time></trkpt><trkpt lat="43.4294317" lon="10.3959367"><ele>21.0</ele><time>2026-04-04T13:09:03.012Z</time></trkpt><trkpt lat="43.429525" lon="10.3957617"><ele>21.0</ele><time>2026-04-04T13:09:04.011Z</time></trkpt><trkpt lat="43.4296167" lon="10.39556"><ele>21.0</ele><time>2026-04-04T13:09:05.011Z</time></trkpt><trkpt lat="43.4296983" lon="10.3953667"><ele>21.0</ele><time>2026-04-04T13:09:06.012Z</time></trkpt><trkpt lat="43.4297817" lon="10.39521"><ele>21.0</ele><time>2026-04-04T13:09:07.011Z</time></trkpt><trkpt lat="43.42987" lon="10.39506"><ele>21.0</ele><time>2026-04-04T13:09:08.012Z</time></trkpt><trkpt lat="43.4299783" lon="10.39493"><ele>21.0</ele><time>2026-04-04T13:09:09.011Z</time></trkpt><trkpt lat="43.4301017" lon="10.3947983"><ele>21.0</ele><time>2026-04-04T13:09:10.01Z</time></trkpt><trkpt lat="43.4302167" lon="10.3946533"><ele>21.0</ele><time>2026-04-04T13:09:11.01Z</time></trkpt><trkpt lat="43.430325" lon="10.3944767"><ele>21.0</ele><time>2026-04-04T13:09:12.011Z</time></trkpt><trkpt lat="43.4304217" lon="10.3942683"><ele>21.0</ele><time>2026-04-04T13:09:13.011Z</time></trkpt><trkpt lat="43.4305267" lon="10.394055"><ele>21.0</ele><time>2026-04-04T13:09:14.011Z</time></trkpt><trkpt lat="43.4306283" lon="10.39384"><ele>21.0</ele><time>2026-04-04T13:09:15.013Z</time></trkpt><trkpt lat="43.4307333" lon="10.3936267"><ele>21.0</ele><time>2026-04-04T13:09:16.01Z</time></trkpt><trkpt lat="43.430835" lon="10.3934233"><ele>19.666666666666668</ele><time>2026-04-04T13:09:17.011Z</time></trkpt><trkpt lat="43.4309217" lon="10.3932217"><ele>18.333333333333336</ele><time>2026-04-04T13:09:18.013Z</time></trkpt><trkpt lat="43.4309883" lon="10.3930133"><ele>17.0</ele><time>2026-04-04T13:09:19.011Z</time></trkpt><trkpt lat="43.4310233" lon="10.3927967"><ele>15.666666666666668</ele><time>2026-04-04T13:09:20.012Z</time></trkpt><trkpt lat="43.4310367" lon="10.3925683"><ele>14.333333333333332</ele><time>2026-04-04T13:09:21.012Z</time></trkpt><trkpt lat="43.4310467" lon="10.3923417"><ele>13.0</ele><time>2026-04-04T13:09:22.011Z</time></trkpt><trkpt lat="43.4310683" lon="10.392125"><ele>12.0</ele><time>2026-04-04T13:09:23.011Z</time></trkpt><trkpt lat="43.4311167" lon="10.3919183"><ele>11.0</ele><time>2026-04-04T13:09:24.01Z</time></trkpt><trkpt lat="43.431185" lon="10.39174"><ele>10.0</ele><time>2026-04-04T13:09:25.01Z</time></trkpt><trkpt lat="43.4312717" lon="10.39159"><ele>9.0</ele><time>2026-04-04T13:09:26.012Z</time></trkpt><trkpt lat="43.4313633" lon="10.39145"><ele>10.75</ele><time>2026-04-04T13:09:27.011Z</time></trkpt><trkpt lat="43.4314733" lon="10.3913283"><ele>12.5</ele><time>2026-04-04T13:09:28.012Z</time></trkpt><trkpt lat="43.4316033" lon="10.39122"><ele>14.25</ele><time>2026-04-04T13:09:29.012Z</time></trkpt><trkpt lat="43.431735" lon="10.3911183"><ele>16.0</ele><time>2026-04-04T13:09:30.013Z</time></trkpt><trkpt lat="43.4318717" lon="10.3910183"><ele>16.0</ele><time>2026-04-04T13:09:31.012Z</time></trkpt><trkpt lat="43.4320083" lon="10.3909083"><ele>16.0</ele><time>2026-04-04T13:09:32.013Z</time></trkpt><trkpt lat="43.4321467" lon="10.3907967"><ele>16.0</ele><time>2026-04-04T13:09:33.013Z</time></trkpt><trkpt lat="43.4322883" lon="10.390685"><ele>15.666666666666666</ele><time>2026-04-04T13:09:34.012Z</time></trkpt><trkpt lat="43.4324367" lon="10.390575"><ele>15.333333333333332</ele><time>2026-04-04T13:09:35.012Z</time></trkpt><trkpt lat="43.4325867" lon="10.3904667"><ele>15.0</ele><time>2026-04-04T13:09:36.013Z</time></trkpt><trkpt lat="43.4327383" lon="10.39036"><ele>15.0</ele><time>2026-04-04T13:09:37.013Z</time></trkpt><trkpt lat="43.4328917" lon="10.3902517"><ele>15.0</ele><time>2026-04-04T13:09:38.012Z</time></trkpt><trkpt lat="43.4330533" lon="10.3901467"><ele>15.0</ele><time>2026-04-04T13:09:39.013Z</time></trkpt><trkpt lat="43.4332067" lon="10.3900367"><ele>16.666666666666668</ele><time>2026-04-04T13:09:40.012Z</time></trkpt><trkpt lat="43.4333567" lon="10.3899267"><ele>18.333333333333336</ele><time>2026-04-04T13:09:41.012Z</time></trkpt><trkpt lat="43.43352" lon="10.389825"><ele>20.0</ele><time>2026-04-04T13:09:42.013Z</time></trkpt><trkpt lat="43.4336867" lon="10.38971"><ele>19.0</ele><time>2026-04-04T13:09:43.012Z</time></trkpt><trkpt lat="43.4338483" lon="10.3896033"><ele>18.0</ele><time>2026-04-04T13:09:44.012Z</time></trkpt><trkpt lat="43.4340033" lon="10.3894967"><ele>17.0</ele><time>2026-04-04T13:09:45.012Z</time></trkpt><trkpt lat="43.434155" lon="10.3893817"><ele>17.0</ele><time>2026-04-04T13:09:46.011Z</time></trkpt><trkpt lat="43.4343017" lon="10.3892633"><ele>17.0</ele><time>2026-04-04T13:09:47.012Z</time></trkpt><trkpt lat="43.4344483" lon="10.3891517"><ele>17.0</ele><time>2026-04-04T13:09:48.011Z</time></trkpt><trkpt lat="43.4345933" lon="10.389035"><ele>17.333333333333336</ele><time>2026-04-04T13:09:49.011Z</time></trkpt><trkpt lat="43.434745" lon="10.3889333"><ele>17.666666666666668</ele><time>2026-04-04T13:09:50.012Z</time></trkpt><trkpt lat="43.4348933" lon="10.3888267"><ele>18.0</ele><time>2026-04-04T13:09:51.01Z</time></trkpt><trkpt lat="43.4350467" lon="10.388715"><ele>18.0</ele><time>2026-04-04T13:09:52.011Z</time></trkpt><trkpt lat="43.4352" lon="10.38861"><ele>18.0</ele><time>2026-04-04T13:09:53.011Z</time></trkpt><trkpt lat="43.4353567" lon="10.3885117"><ele>18.0</ele><time>2026-04-04T13:09:54.01Z</time></trkpt><trkpt lat="43.4355167" lon="10.3884167"><ele>18.666666666666668</ele><time>2026-04-04T13:09:55.012Z</time></trkpt><trkpt lat="43.4356733" lon="10.3883217"><ele>19.333333333333336</ele><time>2026-04-04T13:09:56.013Z</time></trkpt><trkpt lat="43.435835" lon="10.388225"><ele>20.0</ele><time>2026-04-04T13:09:57.014Z</time></trkpt><trkpt lat="43.436" lon="10.38812"><ele>20.0</ele><time>2026-04-04T13:09:58.014Z</time></trkpt><trkpt lat="43.43618" lon="10.388025"><ele>20.0</ele><time>2026-04-04T13:09:59.012Z</time></trkpt><trkpt lat="43.436355" lon="10.3879367"><ele>20.0</ele><time>2026-04-04T13:10:00.013Z</time></trkpt><trkpt lat="43.4365267" lon="10.3878467"><ele>18.0</ele><time>2026-04-04T13:10:01.012Z</time></trkpt><trkpt lat="43.436705" lon="10.3877567"><ele>16.0</ele><time>2026-04-04T13:10:02.013Z</time></trkpt><trkpt lat="43.4368833" lon="10.387665"><ele>14.0</ele><time>2026-04-04T13:10:03.014Z</time></trkpt><trkpt lat="43.4370567" lon="10.3875717"><ele>15.0</ele><time>2026-04-04T13:10:04.015Z</time></trkpt><trkpt lat="43.4372283" lon="10.3874833"><ele>16.0</ele><time>2026-04-04T13:10:05.012Z</time></trkpt><trkpt lat="43.4373983" lon="10.3874033"><ele>17.0</ele><time>2026-04-04T13:10:06.013Z</time></trkpt><trkpt lat="43.43757" lon="10.38732"><ele>17.0</ele><time>2026-04-04T13:10:07.013Z</time></trkpt><trkpt lat="43.4377383" lon="10.387235"><ele>17.0</ele><time>2026-04-04T13:10:08.011Z</time></trkpt><trkpt lat="43.437905" lon="10.3871517"><ele>17.0</ele><time>2026-04-04T13:10:09.013Z</time></trkpt><trkpt lat="43.43807" lon="10.3870717"><ele>15.333333333333334</ele><time>2026-04-04T13:10:10.011Z</time></trkpt><trkpt lat="43.4382367" lon="10.38699"><ele>13.666666666666668</ele><time>2026-04-04T13:10:11.011Z</time></trkpt><trkpt lat="43.4383967" lon="10.3869"><ele>12.0</ele><time>2026-04-04T13:10:12.011Z</time></trkpt><trkpt lat="43.438555" lon="10.38682"><ele>12.0</ele><time>2026-04-04T13:10:13.012Z</time></trkpt><trkpt lat="43.4387133" lon="10.3867367"><ele>12.0</ele><time>2026-04-04T13:10:14.012Z</time></trkpt><trkpt lat="43.4388683" lon="10.38666"><ele>12.0</ele><time>2026-04-04T13:10:15.013Z</time></trkpt><trkpt lat="43.439025" lon="10.386575"><ele>12.333333333333332</ele><time>2026-04-04T13:10:16.012Z</time></trkpt><trkpt lat="43.4391817" lon="10.3864933"><ele>12.666666666666666</ele><time>2026-04-04T13:10:17.012Z</time></trkpt><trkpt lat="43.4393383" lon="10.3864117"><ele>13.0</ele><time>2026-04-04T13:10:18.011Z</time></trkpt><trkpt lat="43.439495" lon="10.38633"><ele>14.333333333333332</ele><time>2026-04-04T13:10:19.012Z</time></trkpt><trkpt lat="43.43965" lon="10.386245"><ele>15.666666666666668</ele><time>2026-04-04T13:10:20.012Z</time></trkpt><trkpt lat="43.4398033" lon="10.3861617"><ele>17.0</ele><time>2026-04-04T13:10:21.012Z</time></trkpt><trkpt lat="43.439965" lon="10.386075"><ele>17.0</ele><time>2026-04-04T13:10:22.012Z</time></trkpt><trkpt lat="43.4401283" lon="10.3859817"><ele>17.0</ele><time>2026-04-04T13:10:23.013Z</time></trkpt><trkpt lat="43.44029" lon="10.3858783"><ele>17.0</ele><time>2026-04-04T13:10:24.013Z</time></trkpt><trkpt lat="43.4404533" lon="10.385775"><ele>17.0</ele><time>2026-04-04T13:10:25.013Z</time></trkpt><trkpt lat="43.440615" lon="10.3856633"><ele>17.0</ele><time>2026-04-04T13:10:26.012Z</time></trkpt><trkpt lat="43.4407833" lon="10.38555"><ele>17.0</ele><time>2026-04-04T13:10:27.012Z</time></trkpt><trkpt lat="43.440945" lon="10.3854233"><ele>16.333333333333336</ele><time>2026-04-04T13:10:28.012Z</time></trkpt><trkpt lat="43.4410967" lon="10.3853117"><ele>15.666666666666668</ele><time>2026-04-04T13:10:29.012Z</time></trkpt><trkpt lat="43.4412517" lon="10.3852"><ele>15.0</ele><time>2026-04-04T13:10:30.01Z</time></trkpt><trkpt lat="43.4414067" lon="10.3850917"><ele>16.666666666666668</ele><time>2026-04-04T13:10:31.012Z</time></trkpt><trkpt lat="43.44156" lon="10.3849917"><ele>18.333333333333336</ele><time>2026-04-04T13:10:32.011Z</time></trkpt><trkpt lat="43.441715" lon="10.3848867"><ele>20.0</ele><time>2026-04-04T13:10:33.011Z</time></trkpt><trkpt lat="43.4418717" lon="10.3847783"><ele>18.0</ele><time>2026-04-04T13:10:34.01Z</time></trkpt><trkpt lat="43.4420317" lon="10.38467"><ele>16.0</ele><time>2026-04-04T13:10:35.011Z</time></trkpt><trkpt lat="43.4421867" lon="10.3845683"><ele>14.0</ele><time>2026-04-04T13:10:36.01Z</time></trkpt><trkpt lat="43.4423433" lon="10.384455"><ele>14.0</ele><time>2026-04-04T13:10:37.013Z</time></trkpt><trkpt lat="43.442505" lon="10.3843383"><ele>14.0</ele><time>2026-04-04T13:10:38.011Z</time></trkpt><trkpt lat="43.44267" lon="10.3842133"><ele>14.0</ele><time>2026-04-04T13:10:39.011Z</time></trkpt><trkpt lat="43.4428367" lon="10.3840883"><ele>13.666666666666668</ele><time>2026-04-04T13:10:40.011Z</time></trkpt><trkpt lat="43.4430083" lon="10.38396"><ele>13.333333333333332</ele><time>2026-04-04T13:10:41.011Z</time></trkpt><trkpt lat="43.44318" lon="10.38383"><ele>13.0</ele><time>2026-04-04T13:10:42.011Z</time></trkpt><trkpt lat="43.44335" lon="10.3837033"><ele>13.0</ele><time>2026-04-04T13:10:43.011Z</time></trkpt><trkpt lat="43.4435183" lon="10.383575"><ele>13.0</ele><time>2026-04-04T13:10:44.011Z</time></trkpt><trkpt lat="43.4436833" lon="10.3834533"><ele>13.0</ele><time>2026-04-04T13:10:45.012Z</time></trkpt><trkpt lat="43.443855" lon="10.3833467"><ele>15.0</ele><time>2026-04-04T13:10:46.011Z</time></trkpt><trkpt lat="43.4440217" lon="10.38324"><ele>17.0</ele><time>2026-04-04T13:10:47.011Z</time></trkpt><trkpt lat="43.4441833" lon="10.3831583"><ele>19.0</ele><time>2026-04-04T13:10:48.011Z</time></trkpt><trkpt lat="43.4443433" lon="10.3830967"><ele>19.0</ele><time>2026-04-04T13:10:49.013Z</time></trkpt><trkpt lat="43.4444883" lon="10.383045"><ele>19.0</ele><time>2026-04-04T13:10:50.011Z</time></trkpt><trkpt lat="43.4446317" lon="10.3830017"><ele>19.0</ele><time>2026-04-04T13:10:51.013Z</time></trkpt><trkpt lat="43.4447683" lon="10.38296"><ele>19.0</ele><time>2026-04-04T13:10:52.01Z</time></trkpt><trkpt lat="43.444895" lon="10.3829233"><ele>17.4</ele><time>2026-04-04T13:10:53.011Z</time></trkpt><trkpt lat="43.44501" lon="10.38289"><ele>15.799999999999999</ele><time>2026-04-04T13:10:54.012Z</time></trkpt><trkpt lat="43.445115" lon="10.3828633"><ele>14.2</ele><time>2026-04-04T13:10:55.012Z</time></trkpt><trkpt lat="43.4452083" lon="10.3828517"><ele>12.600000000000001</ele><time>2026-04-04T13:10:56.01Z</time></trkpt><trkpt lat="43.4452983" lon="10.3828517"><ele>11.0</ele><time>2026-04-04T13:10:57.011Z</time></trkpt><trkpt lat="43.4453917" lon="10.3828633"><ele>11.4</ele><time>2026-04-04T13:10:58.01Z</time></trkpt><trkpt lat="43.4454917" lon="10.382875"><ele>11.8</ele><time>2026-04-04T13:10:59.011Z</time></trkpt><trkpt lat="43.4455967" lon="10.38288"><ele>12.200000000000001</ele><time>2026-04-04T13:11:00.011Z</time></trkpt><trkpt lat="43.4457067" lon="10.382865"><ele>12.600000000000001</ele><time>2026-04-04T13:11:01.01Z</time></trkpt><trkpt lat="43.4458183" lon="10.38282"><ele>13.0</ele><time>2026-04-04T13:11:02.01Z</time></trkpt><trkpt lat="43.4459333" lon="10.3827483"><ele>13.0</ele><time>2026-04-04T13:11:03.011Z</time></trkpt><trkpt lat="43.4460483" lon="10.3826733"><ele>13.0</ele><time>2026-04-04T13:11:04.011Z</time></trkpt><trkpt lat="43.4461583" lon="10.3825917"><ele>13.0</ele><time>2026-04-04T13:11:05.011Z</time></trkpt><trkpt lat="43.4462617" lon="10.38251"><ele>13.0</ele><time>2026-04-04T13:11:06.012Z</time></trkpt><trkpt lat="43.44637" lon="10.3824183"><ele>12.0</ele><time>2026-04-04T13:11:07.01Z</time></trkpt><trkpt lat="43.4464817" lon="10.3823183"><ele>11.0</ele><time>2026-04-04T13:11:08.011Z</time></trkpt><trkpt lat="43.4465933" lon="10.3822183"><ele>10.0</ele><time>2026-04-04T13:11:09.012Z</time></trkpt><trkpt lat="43.4467067" lon="10.3821217"><ele>9.0</ele><time>2026-04-04T13:11:10.01Z</time></trkpt><trkpt lat="43.44682" lon="10.3820267"><ele>9.0</ele><time>2026-04-04T13:11:11.012Z</time></trkpt><trkpt lat="43.4469333" lon="10.381925"><ele>9.0</ele><time>2026-04-04T13:11:12.011Z</time></trkpt><trkpt lat="43.447045" lon="10.381815"><ele>9.0</ele><time>2026-04-04T13:11:13.01Z</time></trkpt><trkpt lat="43.4471617" lon="10.38169"><ele>9.0</ele><time>2026-04-04T13:11:14.01Z</time></trkpt><trkpt lat="43.4472783" lon="10.38157"><ele>9.666666666666666</ele><time>2026-04-04T13:11:15.011Z</time></trkpt><trkpt lat="43.4474" lon="10.3814583"><ele>10.333333333333332</ele><time>2026-04-04T13:11:16.012Z</time></trkpt><trkpt lat="43.4475267" lon="10.3813417"><ele>11.0</ele><time>2026-04-04T13:11:17.012Z</time></trkpt><trkpt lat="43.4476533" lon="10.381215"><ele>11.0</ele><time>2026-04-04T13:11:18.012Z</time></trkpt><trkpt lat="43.4477867" lon="10.381095"><ele>11.0</ele><time>2026-04-04T13:11:19.012Z</time></trkpt><trkpt lat="43.4479233" lon="10.3809733"><ele>11.0</ele><time>2026-04-04T13:11:20.011Z</time></trkpt><trkpt lat="43.4480617" lon="10.380845"><ele>10.666666666666666</ele><time>2026-04-04T13:11:21.014Z</time></trkpt><trkpt lat="43.448205" lon="10.3807033"><ele>10.333333333333334</ele><time>2026-04-04T13:11:22.012Z</time></trkpt><trkpt lat="43.448365" lon="10.3805533"><ele>10.0</ele><time>2026-04-04T13:11:23.012Z</time></trkpt><trkpt lat="43.4485333" lon="10.3804017"><ele>10.0</ele><time>2026-04-04T13:11:24.012Z</time></trkpt><trkpt lat="43.4487" lon="10.3802567"><ele>10.0</ele><time>2026-04-04T13:11:25.012Z</time></trkpt><trkpt lat="43.4488583" lon="10.3801133"><ele>10.0</ele><time>2026-04-04T13:11:26.012Z</time></trkpt><trkpt lat="43.4490083" lon="10.3799683"><ele>10.333333333333334</ele><time>2026-04-04T13:11:27.011Z</time></trkpt><trkpt lat="43.4491467" lon="10.3798217"><ele>10.666666666666666</ele><time>2026-04-04T13:11:28.011Z</time></trkpt><trkpt lat="43.449275" lon="10.3796783"><ele>11.0</ele><time>2026-04-04T13:11:29.012Z</time></trkpt><trkpt lat="43.4493933" lon="10.3795517"><ele>11.5</ele><time>2026-04-04T13:11:30.011Z</time></trkpt><trkpt lat="43.4494983" lon="10.3794267"><ele>12.0</ele><time>2026-04-04T13:11:31.011Z</time></trkpt><trkpt lat="43.4496033" lon="10.37932"><ele>12.5</ele><time>2026-04-04T13:11:32.012Z</time></trkpt><trkpt lat="43.4497033" lon="10.3792267"><ele>13.0</ele><time>2026-04-04T13:11:33.011Z</time></trkpt><trkpt lat="43.4497917" lon="10.379175"><ele>13.0</ele><time>2026-04-04T13:11:34.011Z</time></trkpt><trkpt lat="43.4498617" lon="10.3791533"><ele>13.0</ele><time>2026-04-04T13:11:35.011Z</time></trkpt><trkpt lat="43.4499833" lon="10.3791683"><ele>13.0</ele><time>2026-04-04T13:11:37.011Z</time></trkpt><trkpt lat="43.4500667" lon="10.3792933"><ele>13.0</ele><time>2026-04-04T13:11:39.012Z</time></trkpt><trkpt lat="43.4501533" lon="10.3792867"><ele>13.0</ele><time>2026-04-04T13:11:41.011Z</time></trkpt><trkpt lat="43.4502267" lon="10.379125"><ele>13.0</ele><time>2026-04-04T13:11:43.011Z</time></trkpt><trkpt lat="43.450285" lon="10.378925"><ele>13.0</ele><time>2026-04-04T13:11:44.011Z</time></trkpt><trkpt lat="43.4503533" lon="10.3787283"><ele>13.0</ele><time>2026-04-04T13:11:45.011Z</time></trkpt><trkpt lat="43.450435" lon="10.3785383"><ele>14.5</ele><time>2026-04-04T13:11:46.014Z</time></trkpt><trkpt lat="43.4505217" lon="10.3783617"><ele>16.0</ele><time>2026-04-04T13:11:47.011Z</time></trkpt><trkpt lat="43.4506017" lon="10.3782"><ele>17.5</ele><time>2026-04-04T13:11:48.013Z</time></trkpt><trkpt lat="43.45068" lon="10.3780467"><ele>19.0</ele><time>2026-04-04T13:11:49.011Z</time></trkpt><trkpt lat="43.4507533" lon="10.3779083"><ele>19.0</ele><time>2026-04-04T13:11:50.011Z</time></trkpt><trkpt lat="43.4508233" lon="10.3777917"><ele>19.0</ele><time>2026-04-04T13:11:51.013Z</time></trkpt><trkpt lat="43.4508883" lon="10.377685"><ele>19.0</ele><time>2026-04-04T13:11:52.011Z</time></trkpt><trkpt lat="43.4509517" lon="10.37759"><ele>19.0</ele><time>2026-04-04T13:11:53.012Z</time></trkpt><trkpt lat="43.451025" lon="10.3775117"><ele>19.0</ele><time>2026-04-04T13:11:54.012Z</time></trkpt><trkpt lat="43.4511017" lon="10.37743"><ele>19.0</ele><time>2026-04-04T13:11:55.012Z</time></trkpt><trkpt lat="43.45118" lon="10.3773333"><ele>19.0</ele><time>2026-04-04T13:11:56.011Z</time></trkpt><trkpt lat="43.4512767" lon="10.3772333"><ele>19.0</ele><time>2026-04-04T13:11:57.012Z</time></trkpt><trkpt lat="43.4513867" lon="10.377135"><ele>19.0</ele><time>2026-04-04T13:11:58.011Z</time></trkpt><trkpt lat="43.4515033" lon="10.3770383"><ele>20.0</ele><time>2026-04-04T13:11:59.012Z</time></trkpt><trkpt lat="43.4516233" lon="10.3769383"><ele>21.0</ele><time>2026-04-04T13:12:00.011Z</time></trkpt><trkpt lat="43.4517483" lon="10.3768417"><ele>22.0</ele><time>2026-04-04T13:12:01.012Z</time></trkpt><trkpt lat="43.4518683" lon="10.376745"><ele>23.0</ele><time>2026-04-04T13:12:02.011Z</time></trkpt><trkpt lat="43.4519883" lon="10.3766533"><ele>23.0</ele><time>2026-04-04T13:12:03.011Z</time></trkpt><trkpt lat="43.4521033" lon="10.376565"><ele>23.0</ele><time>2026-04-04T13:12:04.012Z</time></trkpt><trkpt lat="43.45222" lon="10.37648"><ele>23.0</ele><time>2026-04-04T13:12:05.01Z</time></trkpt><trkpt lat="43.4523333" lon="10.3763917"><ele>23.0</ele><time>2026-04-04T13:12:06.011Z</time></trkpt><trkpt lat="43.4524467" lon="10.3763033"><ele>23.599999999999998</ele><time>2026-04-04T13:12:07.012Z</time></trkpt><trkpt lat="43.4525533" lon="10.37622"><ele>24.2</ele><time>2026-04-04T13:12:08.012Z</time></trkpt><trkpt lat="43.4526517" lon="10.37615"><ele>24.8</ele><time>2026-04-04T13:12:09.011Z</time></trkpt><trkpt lat="43.4527367" lon="10.3760817"><ele>25.4</ele><time>2026-04-04T13:12:10.012Z</time></trkpt><trkpt lat="43.4528117" lon="10.3760233"><ele>26.0</ele><time>2026-04-04T13:12:11.01Z</time></trkpt><trkpt lat="43.452875" lon="10.375975"><ele>25.999999999999996</ele><time>2026-04-04T13:12:12.01Z</time></trkpt><trkpt lat="43.4529233" lon="10.3759167"><ele>26.0</ele><time>2026-04-04T13:12:13.01Z</time></trkpt><trkpt lat="43.4529767" lon="10.37587"><ele>26.0</ele><time>2026-04-04T13:12:14.01Z</time></trkpt><trkpt lat="43.45307" lon="10.3757867"><ele>26.0</ele><time>2026-04-04T13:12:16.011Z</time></trkpt><trkpt lat="43.4531583" lon="10.3757217"><ele>25.999999999999996</ele><time>2026-04-04T13:12:18.011Z</time></trkpt><trkpt lat="43.45324" lon="10.3756483"><ele>26.0</ele><time>2026-04-04T13:12:20.012Z</time></trkpt><trkpt lat="43.45333" lon="10.3755667"><ele>25.999999999999996</ele><time>2026-04-04T13:12:22.011Z</time></trkpt><trkpt lat="43.4534233" lon="10.3754967"><ele>26.0</ele><time>2026-04-04T13:12:24.013Z</time></trkpt><trkpt lat="43.4535233" lon="10.375425"><ele>26.0</ele><time>2026-04-04T13:12:26.012Z</time></trkpt><trkpt lat="43.4535783" lon="10.37538"><ele>26.0</ele><time>2026-04-04T13:12:27.012Z</time></trkpt><trkpt lat="43.4536383" lon="10.375345"><ele>25.999999999999996</ele><time>2026-04-04T13:12:28.011Z</time></trkpt><trkpt lat="43.4536983" lon="10.375305"><ele>26.0</ele><time>2026-04-04T13:12:29.011Z</time></trkpt><trkpt lat="43.4537633" lon="10.37525"><ele>27.0</ele><time>2026-04-04T13:12:30.012Z</time></trkpt><trkpt lat="43.4538367" lon="10.375195"><ele>28.0</ele><time>2026-04-04T13:12:31.012Z</time></trkpt><trkpt lat="43.45392" lon="10.3751317"><ele>29.0</ele><time>2026-04-04T13:12:32.011Z</time></trkpt><trkpt lat="43.45401" lon="10.3750567"><ele>30.0</ele><time>2026-04-04T13:12:33.013Z</time></trkpt><trkpt lat="43.4541083" lon="10.3749833"><ele>31.0</ele><time>2026-04-04T13:12:34.012Z</time></trkpt><trkpt lat="43.4542183" lon="10.3749083"><ele>31.0</ele><time>2026-04-04T13:12:35.012Z</time></trkpt><trkpt lat="43.4543233" lon="10.3748367"><ele>31.0</ele><time>2026-04-04T13:12:36.012Z</time></trkpt><trkpt lat="43.4544283" lon="10.3747667"><ele>31.0</ele><time>2026-04-04T13:12:37.013Z</time></trkpt><trkpt lat="43.4545283" lon="10.3746783"><ele>31.0</ele><time>2026-04-04T13:12:38.012Z</time></trkpt><trkpt lat="43.4546283" lon="10.374585"><ele>31.200000000000003</ele><time>2026-04-04T13:12:39.012Z</time></trkpt><trkpt lat="43.4547083" lon="10.3744917"><ele>31.400000000000002</ele><time>2026-04-04T13:12:40.013Z</time></trkpt><trkpt lat="43.4548033" lon="10.3744033"><ele>31.6</ele><time>2026-04-04T13:12:41.012Z</time></trkpt><trkpt lat="43.4548867" lon="10.3743017"><ele>31.8</ele><time>2026-04-04T13:12:42.012Z</time></trkpt><trkpt lat="43.4549633" lon="10.37421"><ele>32.0</ele><time>2026-04-04T13:12:43.013Z</time></trkpt><trkpt lat="43.45504" lon="10.3741183"><ele>32.0</ele><time>2026-04-04T13:12:44.012Z</time></trkpt><trkpt lat="43.4551233" lon="10.374015"><ele>32.0</ele><time>2026-04-04T13:12:45.012Z</time></trkpt><trkpt lat="43.4552217" lon="10.3738817"><ele>32.0</ele><time>2026-04-04T13:12:46.012Z</time></trkpt><trkpt lat="43.4553317" lon="10.3737567"><ele>32.0</ele><time>2026-04-04T13:12:47.013Z</time></trkpt><trkpt lat="43.4554417" lon="10.3736333"><ele>32.25</ele><time>2026-04-04T13:12:48.011Z</time></trkpt><trkpt lat="43.4555483" lon="10.3735117"><ele>32.5</ele><time>2026-04-04T13:12:49.01Z</time></trkpt><trkpt lat="43.455645" lon="10.37339"><ele>32.75</ele><time>2026-04-04T13:12:50.012Z</time></trkpt><trkpt lat="43.455745" lon="10.373275"><ele>33.0</ele><time>2026-04-04T13:12:51.013Z</time></trkpt><trkpt lat="43.45584" lon="10.3731633"><ele>33.0</ele><time>2026-04-04T13:12:52.011Z</time></trkpt><trkpt lat="43.455935" lon="10.3730517"><ele>33.0</ele><time>2026-04-04T13:12:53.013Z</time></trkpt><trkpt lat="43.4560283" lon="10.3729367"><ele>33.0</ele><time>2026-04-04T13:12:54.012Z</time></trkpt><trkpt lat="43.4561267" lon="10.372825"><ele>33.0</ele><time>2026-04-04T13:12:55.011Z</time></trkpt><trkpt lat="43.4562233" lon="10.372705"><ele>32.25</ele><time>2026-04-04T13:12:56.012Z</time></trkpt><trkpt lat="43.45632" lon="10.37258"><ele>31.5</ele><time>2026-04-04T13:12:57.012Z</time></trkpt><trkpt lat="43.4564183" lon="10.372455"><ele>30.75</ele><time>2026-04-04T13:12:58.011Z</time></trkpt><trkpt lat="43.4565117" lon="10.3723283"><ele>30.0</ele><time>2026-04-04T13:12:59.011Z</time></trkpt><trkpt lat="43.4566083" lon="10.3722083"><ele>28.5</ele><time>2026-04-04T13:13:00.011Z</time></trkpt><trkpt lat="43.45671" lon="10.3720933"><ele>27.0</ele><time>2026-04-04T13:13:01.011Z</time></trkpt><trkpt lat="43.4568083" lon="10.3719733"><ele>25.5</ele><time>2026-04-04T13:13:02.011Z</time></trkpt><trkpt lat="43.45691" lon="10.37186"><ele>24.0</ele><time>2026-04-04T13:13:03.012Z</time></trkpt><trkpt lat="43.45701" lon="10.37175"><ele>24.0</ele><time>2026-04-04T13:13:04.011Z</time></trkpt><trkpt lat="43.45711" lon="10.3716383"><ele>24.0</ele><time>2026-04-04T13:13:05.011Z</time></trkpt><trkpt lat="43.4572083" lon="10.3715333"><ele>24.0</ele><time>2026-04-04T13:13:06.011Z</time></trkpt><trkpt lat="43.457305" lon="10.3714267"><ele>24.0</ele><time>2026-04-04T13:13:07.011Z</time></trkpt><trkpt lat="43.4574017" lon="10.3713217"><ele>24.25</ele><time>2026-04-04T13:13:08.012Z</time></trkpt><trkpt lat="43.4574917" lon="10.3712117"><ele>24.5</ele><time>2026-04-04T13:13:09.011Z</time></trkpt><trkpt lat="43.4575833" lon="10.3711083"><ele>24.75</ele><time>2026-04-04T13:13:10.011Z</time></trkpt><trkpt lat="43.457675" lon="10.3709933"><ele>25.0</ele><time>2026-04-04T13:13:11.011Z</time></trkpt><trkpt lat="43.4577633" lon="10.3708783"><ele>25.0</ele><time>2026-04-04T13:13:12.013Z</time></trkpt><trkpt lat="43.4578383" lon="10.3707567"><ele>25.0</ele><time>2026-04-04T13:13:13.012Z</time></trkpt><trkpt lat="43.4579033" lon="10.370625"><ele>25.0</ele><time>2026-04-04T13:13:14.012Z</time></trkpt><trkpt lat="43.4579617" lon="10.3704933"><ele>25.0</ele><time>2026-04-04T13:13:15.012Z</time></trkpt><trkpt lat="43.458005" lon="10.370355"><ele>24.8</ele><time>2026-04-04T13:13:16.011Z</time></trkpt><trkpt lat="43.4580483" lon="10.3702217"><ele>24.6</ele><time>2026-04-04T13:13:17.011Z</time></trkpt><trkpt lat="43.4580767" lon="10.3700867"><ele>24.4</ele><time>2026-04-04T13:13:18.012Z</time></trkpt><trkpt lat="43.458105" lon="10.3699583"><ele>24.2</ele><time>2026-04-04T13:13:19.011Z</time></trkpt><trkpt lat="43.4581383" lon="10.3698267"><ele>24.0</ele><time>2026-04-04T13:13:20.012Z</time></trkpt><trkpt lat="43.4581733" lon="10.3696933"><ele>23.4</ele><time>2026-04-04T13:13:21.014Z</time></trkpt><trkpt lat="43.4582017" lon="10.3695683"><ele>22.799999999999997</ele><time>2026-04-04T13:13:22.012Z</time></trkpt><trkpt lat="43.45823" lon="10.3694417"><ele>22.200000000000003</ele><time>2026-04-04T13:13:23.011Z</time></trkpt><trkpt lat="43.4582617" lon="10.3693033"><ele>21.6</ele><time>2026-04-04T13:13:24.012Z</time></trkpt><trkpt lat="43.4583" lon="10.36915"><ele>21.0</ele><time>2026-04-04T13:13:25.011Z</time></trkpt><trkpt lat="43.4583517" lon="10.3689833"><ele>21.0</ele><time>2026-04-04T13:13:26.011Z</time></trkpt><trkpt lat="43.4584133" lon="10.368825"><ele>21.0</ele><time>2026-04-04T13:13:27.011Z</time></trkpt><trkpt lat="43.4584817" lon="10.3686867"><ele>21.0</ele><time>2026-04-04T13:13:28.011Z</time></trkpt><trkpt lat="43.4585467" lon="10.36857"><ele>21.0</ele><time>2026-04-04T13:13:29.012Z</time></trkpt><trkpt lat="43.4586117" lon="10.3684683"><ele>21.0</ele><time>2026-04-04T13:13:30.011Z</time></trkpt><trkpt lat="43.4586783" lon="10.3683733"><ele>21.0</ele><time>2026-04-04T13:13:31.011Z</time></trkpt><trkpt lat="43.45876" lon="10.368265"><ele>21.0</ele><time>2026-04-04T13:13:32.011Z</time></trkpt><trkpt lat="43.4588667" lon="10.3681417"><ele>21.0</ele><time>2026-04-04T13:13:33.013Z</time></trkpt><trkpt lat="43.4589933" lon="10.368025"><ele>21.666666666666668</ele><time>2026-04-04T13:13:34.012Z</time></trkpt><trkpt lat="43.4591183" lon="10.367915"><ele>22.333333333333336</ele><time>2026-04-04T13:13:35.011Z</time></trkpt><trkpt lat="43.45925" lon="10.3678117"><ele>23.0</ele><time>2026-04-04T13:13:36.012Z</time></trkpt><trkpt lat="43.4593883" lon="10.3677"><ele>23.0</ele><time>2026-04-04T13:13:37.012Z</time></trkpt><trkpt lat="43.45954" lon="10.36759"><ele>23.0</ele><time>2026-04-04T13:13:38.011Z</time></trkpt><trkpt lat="43.4596967" lon="10.367485"><ele>23.0</ele><time>2026-04-04T13:13:39.011Z</time></trkpt><trkpt lat="43.4598717" lon="10.3674067"><ele>22.0</ele><time>2026-04-04T13:13:40.012Z</time></trkpt><trkpt lat="43.4600517" lon="10.3673267"><ele>21.0</ele><time>2026-04-04T13:13:41.011Z</time></trkpt><trkpt lat="43.4602367" lon="10.3672333"><ele>20.0</ele><time>2026-04-04T13:13:42.012Z</time></trkpt><trkpt lat="43.460415" lon="10.367115"><ele>18.0</ele><time>2026-04-04T13:13:43.013Z</time></trkpt><trkpt lat="43.46057" lon="10.366955"><ele>16.0</ele><time>2026-04-04T13:13:44.011Z</time></trkpt><trkpt lat="43.4606983" lon="10.3667683"><ele>14.0</ele><time>2026-04-04T13:13:45.013Z</time></trkpt><trkpt lat="43.4607933" lon="10.366555"><ele>16.0</ele><time>2026-04-04T13:13:46.011Z</time></trkpt><trkpt lat="43.460865" lon="10.366325"><ele>18.0</ele><time>2026-04-04T13:13:47.011Z</time></trkpt><trkpt lat="43.46092" lon="10.3660883"><ele>20.0</ele><time>2026-04-04T13:13:48.011Z</time></trkpt><trkpt lat="43.4609667" lon="10.3658617"><ele>20.0</ele><time>2026-04-04T13:13:49.011Z</time></trkpt><trkpt lat="43.46101" lon="10.3656383"><ele>20.0</ele><time>2026-04-04T13:13:50.011Z</time></trkpt><trkpt lat="43.4610733" lon="10.3654383"><ele>20.0</ele><time>2026-04-04T13:13:51.013Z</time></trkpt><trkpt lat="43.4611667" lon="10.3652683"><ele>21.0</ele><time>2026-04-04T13:13:52.011Z</time></trkpt><trkpt lat="43.461275" lon="10.3651083"><ele>22.0</ele><time>2026-04-04T13:13:53.012Z</time></trkpt><trkpt lat="43.461385" lon="10.36495"><ele>23.0</ele><time>2026-04-04T13:13:54.012Z</time></trkpt><trkpt lat="43.4614967" lon="10.3648083"><ele>24.25</ele><time>2026-04-04T13:13:55.012Z</time></trkpt><trkpt lat="43.461595" lon="10.3646683"><ele>25.5</ele><time>2026-04-04T13:13:56.011Z</time></trkpt><trkpt lat="43.4616717" lon="10.36453"><ele>26.75</ele><time>2026-04-04T13:13:57.012Z</time></trkpt><trkpt lat="43.4617317" lon="10.3644033"><ele>28.0</ele><time>2026-04-04T13:13:58.012Z</time></trkpt><trkpt lat="43.4617733" lon="10.364285"><ele>28.0</ele><time>2026-04-04T13:13:59.011Z</time></trkpt><trkpt lat="43.461795" lon="10.36417"><ele>27.999999999999996</ele><time>2026-04-04T13:14:00.011Z</time></trkpt><trkpt lat="43.461825" lon="10.3640467"><ele>27.999999999999996</ele><time>2026-04-04T13:14:01.011Z</time></trkpt><trkpt lat="43.461865" lon="10.36391"><ele>28.0</ele><time>2026-04-04T13:14:02.012Z</time></trkpt><trkpt lat="43.4619183" lon="10.36374"><ele>28.0</ele><time>2026-04-04T13:14:03.012Z</time></trkpt><trkpt lat="43.46197" lon="10.3635467"><ele>29.0</ele><time>2026-04-04T13:14:04.011Z</time></trkpt><trkpt lat="43.462025" lon="10.363355"><ele>30.0</ele><time>2026-04-04T13:14:05.011Z</time></trkpt><trkpt lat="43.46209" lon="10.3631883"><ele>31.0</ele><time>2026-04-04T13:14:06.012Z</time></trkpt><trkpt lat="43.46216" lon="10.3630317"><ele>32.0</ele><time>2026-04-04T13:14:07.013Z</time></trkpt><trkpt lat="43.4622433" lon="10.36289"><ele>35.25</ele><time>2026-04-04T13:14:08.011Z</time></trkpt><trkpt lat="43.4623433" lon="10.362765"><ele>38.5</ele><time>2026-04-04T13:14:09.011Z</time></trkpt><trkpt lat="43.462455" lon="10.3626633"><ele>41.75</ele><time>2026-04-04T13:14:10.011Z</time></trkpt><trkpt lat="43.4625833" lon="10.3625917"><ele>45.0</ele><time>2026-04-04T13:14:11.013Z</time></trkpt><trkpt lat="43.4627117" lon="10.36254"><ele>45.0</ele><time>2026-04-04T13:14:12.01Z</time></trkpt><trkpt lat="43.4628417" lon="10.3625033"><ele>45.0</ele><time>2026-04-04T13:14:13.01Z</time></trkpt><trkpt lat="43.4630833" lon="10.362425"><ele>45.0</ele><time>2026-04-04T13:14:15.01Z</time></trkpt><trkpt lat="43.4631833" lon="10.3623667"><ele>47.0</ele><time>2026-04-04T13:14:16.01Z</time></trkpt><trkpt lat="43.46325" lon="10.3622767"><ele>49.0</ele><time>2026-04-04T13:14:17.01Z</time></trkpt><trkpt lat="43.4632767" lon="10.3621517"><ele>51.0</ele><time>2026-04-04T13:14:18.01Z</time></trkpt><trkpt lat="43.4632717" lon="10.36201"><ele>53.0</ele><time>2026-04-04T13:14:19.01Z</time></trkpt><trkpt lat="43.4632317" lon="10.3618917"><ele>55.0</ele><time>2026-04-04T13:14:20.01Z</time></trkpt><trkpt lat="43.463135" lon="10.3618117"><ele>54.0</ele><time>2026-04-04T13:14:21.011Z</time></trkpt><trkpt lat="43.46302" lon="10.3617717"><ele>53.0</ele><time>2026-04-04T13:14:22.011Z</time></trkpt><trkpt lat="43.4628983" lon="10.3617567"><ele>52.0</ele><time>2026-04-04T13:14:23.012Z</time></trkpt><trkpt lat="43.4627783" lon="10.361735"><ele>51.0</ele><time>2026-04-04T13:14:24.011Z</time></trkpt><trkpt lat="43.4626567" lon="10.3617133"><ele>51.0</ele><time>2026-04-04T13:14:25.011Z</time></trkpt><trkpt lat="43.4625483" lon="10.36167"><ele>51.0</ele><time>2026-04-04T13:14:26.012Z</time></trkpt><trkpt lat="43.4624633" lon="10.361595"><ele>51.0</ele><time>2026-04-04T13:14:27.011Z</time></trkpt><trkpt lat="43.4624033" lon="10.3614783"><ele>51.0</ele><time>2026-04-04T13:14:28.012Z</time></trkpt><trkpt lat="43.46237" lon="10.36134"><ele>51.0</ele><time>2026-04-04T13:14:29.012Z</time></trkpt><trkpt lat="43.4623567" lon="10.361175"><ele>52.75</ele><time>2026-04-04T13:14:30.011Z</time></trkpt><trkpt lat="43.46235" lon="10.3610033"><ele>54.5</ele><time>2026-04-04T13:14:31.011Z</time></trkpt><trkpt lat="43.4623417" lon="10.3608217"><ele>56.25</ele><time>2026-04-04T13:14:32.011Z</time></trkpt><trkpt lat="43.4623383" lon="10.3606383"><ele>58.0</ele><time>2026-04-04T13:14:33.012Z</time></trkpt><trkpt lat="43.4623417" lon="10.3604667"><ele>58.0</ele><time>2026-04-04T13:14:34.011Z</time></trkpt><trkpt lat="43.46237" lon="10.3602967"><ele>58.0</ele><time>2026-04-04T13:14:35.012Z</time></trkpt><trkpt lat="43.46241" lon="10.36014"><ele>58.0</ele><time>2026-04-04T13:14:36.011Z</time></trkpt><trkpt lat="43.4624667" lon="10.3599867"><ele>58.0</ele><time>2026-04-04T13:14:37.011Z</time></trkpt><trkpt lat="43.4625333" lon="10.3598367"><ele>54.75</ele><time>2026-04-04T13:14:38.011Z</time></trkpt><trkpt lat="43.462605" lon="10.3596933"><ele>51.5</ele><time>2026-04-04T13:14:39.011Z</time></trkpt><trkpt lat="43.46268" lon="10.3595633"><ele>48.25</ele><time>2026-04-04T13:14:40.012Z</time></trkpt><trkpt lat="43.4627717" lon="10.3594567"><ele>45.0</ele><time>2026-04-04T13:14:41.011Z</time></trkpt><trkpt lat="43.4628883" lon="10.3593583"><ele>51.75</ele><time>2026-04-04T13:14:42.012Z</time></trkpt><trkpt lat="43.4630133" lon="10.3592633"><ele>58.5</ele><time>2026-04-04T13:14:43.011Z</time></trkpt><trkpt lat="43.46314" lon="10.3591617"><ele>65.25</ele><time>2026-04-04T13:14:44.011Z</time></trkpt><trkpt lat="43.4632633" lon="10.3590617"><ele>72.0</ele><time>2026-04-04T13:14:45.012Z</time></trkpt><trkpt lat="43.46339" lon="10.3589633"><ele>72.0</ele><time>2026-04-04T13:14:46.011Z</time></trkpt><trkpt lat="43.4635067" lon="10.3588683"><ele>72.0</ele><time>2026-04-04T13:14:47.011Z</time></trkpt><trkpt lat="43.4636067" lon="10.3587567"><ele>72.0</ele><time>2026-04-04T13:14:48.011Z</time></trkpt><trkpt lat="43.4636783" lon="10.3586183"><ele>72.0</ele><time>2026-04-04T13:14:49.011Z</time></trkpt><trkpt lat="43.4637233" lon="10.3584633"><ele>69.75</ele><time>2026-04-04T13:14:50.011Z</time></trkpt><trkpt lat="43.4637633" lon="10.3582983"><ele>67.5</ele><time>2026-04-04T13:14:51.013Z</time></trkpt><trkpt lat="43.46379" lon="10.3581133"><ele>65.25</ele><time>2026-04-04T13:14:52.011Z</time></trkpt><trkpt lat="43.4638183" lon="10.35793"><ele>63.0</ele><time>2026-04-04T13:14:53.012Z</time></trkpt><trkpt lat="43.46385" lon="10.3577433"><ele>67.25</ele><time>2026-04-04T13:14:54.011Z</time></trkpt><trkpt lat="43.4638833" lon="10.3575467"><ele>71.5</ele><time>2026-04-04T13:14:55.011Z</time></trkpt><trkpt lat="43.4639317" lon="10.35736"><ele>75.75</ele><time>2026-04-04T13:14:56.011Z</time></trkpt><trkpt lat="43.4639883" lon="10.35718"><ele>80.0</ele><time>2026-04-04T13:14:57.011Z</time></trkpt><trkpt lat="43.4640433" lon="10.3570167"><ele>80.0</ele><time>2026-04-04T13:14:58.011Z</time></trkpt><trkpt lat="43.464115" lon="10.3568667"><ele>80.0</ele><time>2026-04-04T13:14:59.013Z</time></trkpt><trkpt lat="43.4642083" lon="10.35673"><ele>80.0</ele><time>2026-04-04T13:15:00.012Z</time></trkpt><trkpt lat="43.464315" lon="10.3565967"><ele>80.0</ele><time>2026-04-04T13:15:01.012Z</time></trkpt><trkpt lat="43.4644217" lon="10.3564683"><ele>75.25</ele><time>2026-04-04T13:15:02.011Z</time></trkpt><trkpt lat="43.4645283" lon="10.356355"><ele>70.5</ele><time>2026-04-04T13:15:03.013Z</time></trkpt><trkpt lat="43.4646333" lon="10.3562533"><ele>65.75</ele><time>2026-04-04T13:15:04.01Z</time></trkpt><trkpt lat="43.4647517" lon="10.35617"><ele>61.0</ele><time>2026-04-04T13:15:05.01Z</time></trkpt><trkpt lat="43.46488" lon="10.356115"><ele>61.0</ele><time>2026-04-04T13:15:06.011Z</time></trkpt><trkpt lat="43.465015" lon="10.3560833"><ele>61.0</ele><time>2026-04-04T13:15:07.012Z</time></trkpt><trkpt lat="43.46515" lon="10.3560583"><ele>61.0</ele><time>2026-04-04T13:15:08.011Z</time></trkpt><trkpt lat="43.4652817" lon="10.356"><ele>61.0</ele><time>2026-04-04T13:15:09.013Z</time></trkpt><trkpt lat="43.4653883" lon="10.3558933"><ele>64.0</ele><time>2026-04-04T13:15:10.011Z</time></trkpt><trkpt lat="43.46547" lon="10.3557467"><ele>67.0</ele><time>2026-04-04T13:15:11.011Z</time></trkpt><trkpt lat="43.465535" lon="10.3555817"><ele>70.0</ele><time>2026-04-04T13:15:12.013Z</time></trkpt><trkpt lat="43.465565" lon="10.3554017"><ele>73.0</ele><time>2026-04-04T13:15:13.012Z</time></trkpt><trkpt lat="43.4655783" lon="10.35522"><ele>73.0</ele><time>2026-04-04T13:15:14.012Z</time></trkpt><trkpt lat="43.4655617" lon="10.3550417"><ele>73.0</ele><time>2026-04-04T13:15:15.013Z</time></trkpt><trkpt lat="43.4655267" lon="10.354885"><ele>73.0</ele><time>2026-04-04T13:15:16.012Z</time></trkpt><trkpt lat="43.465465" lon="10.3547317"><ele>73.0</ele><time>2026-04-04T13:15:17.013Z</time></trkpt><trkpt lat="43.4653933" lon="10.3545833"><ele>66.25</ele><time>2026-04-04T13:15:18.012Z</time></trkpt><trkpt lat="43.4653117" lon="10.35443"><ele>59.5</ele><time>2026-04-04T13:15:19.012Z</time></trkpt><trkpt lat="43.4652267" lon="10.354275"><ele>52.75</ele><time>2026-04-04T13:15:20.012Z</time></trkpt><trkpt lat="43.4651433" lon="10.3541183"><ele>46.0</ele><time>2026-04-04T13:15:21.013Z</time></trkpt><trkpt lat="43.4650633" lon="10.3539567"><ele>49.25</ele><time>2026-04-04T13:15:22.012Z</time></trkpt><trkpt lat="43.4649833" lon="10.3537967"><ele>52.5</ele><time>2026-04-04T13:15:23.012Z</time></trkpt><trkpt lat="43.4649067" lon="10.3536417"><ele>55.75</ele><time>2026-04-04T13:15:24.012Z</time></trkpt><trkpt lat="43.46483" lon="10.3534917"><ele>59.0</ele><time>2026-04-04T13:15:25.012Z</time></trkpt><trkpt lat="43.4647617" lon="10.3533467"><ele>59.0</ele><time>2026-04-04T13:15:26.013Z</time></trkpt><trkpt lat="43.4647017" lon="10.353205"><ele>59.0</ele><time>2026-04-04T13:15:27.013Z</time></trkpt><trkpt lat="43.464645" lon="10.3530583"><ele>59.0</ele><time>2026-04-04T13:15:28.012Z</time></trkpt><trkpt lat="43.4645917" lon="10.352905"><ele>59.0</ele><time>2026-04-04T13:15:29.013Z</time></trkpt><trkpt lat="43.46455" lon="10.3527483"><ele>50.0</ele><time>2026-04-04T13:15:30.012Z</time></trkpt><trkpt lat="43.4645133" lon="10.3525817"><ele>41.0</ele><time>2026-04-04T13:15:31.011Z</time></trkpt><trkpt lat="43.46449" lon="10.3524133"><ele>32.0</ele><time>2026-04-04T13:15:32.011Z</time></trkpt><trkpt lat="43.4644833" lon="10.352245"><ele>23.0</ele><time>2026-04-04T13:15:33.011Z</time></trkpt><trkpt lat="43.4644983" lon="10.35208"><ele>21.25</ele><time>2026-04-04T13:15:34.012Z</time></trkpt><trkpt lat="43.46453" lon="10.3519167"><ele>19.5</ele><time>2026-04-04T13:15:35.012Z</time></trkpt><trkpt lat="43.4645717" lon="10.351755"><ele>17.75</ele><time>2026-04-04T13:15:36.012Z</time></trkpt><trkpt lat="43.4646233" lon="10.351595"><ele>16.0</ele><time>2026-04-04T13:15:37.011Z</time></trkpt><trkpt lat="43.4646883" lon="10.3514433"><ele>21.75</ele><time>2026-04-04T13:15:38.011Z</time></trkpt><trkpt lat="43.464765" lon="10.3513017"><ele>27.5</ele><time>2026-04-04T13:15:39.011Z</time></trkpt><trkpt lat="43.464855" lon="10.3511717"><ele>33.25</ele><time>2026-04-04T13:15:40.011Z</time></trkpt><trkpt lat="43.4649483" lon="10.3510383"><ele>39.0</ele><time>2026-04-04T13:15:41.012Z</time></trkpt><trkpt lat="43.4650217" lon="10.3508933"><ele>39.0</ele><time>2026-04-04T13:15:42.011Z</time></trkpt><trkpt lat="43.4650733" lon="10.3507317"><ele>39.0</ele><time>2026-04-04T13:15:43.013Z</time></trkpt><trkpt lat="43.4650983" lon="10.35055"><ele>39.0</ele><time>2026-04-04T13:15:44.011Z</time></trkpt><trkpt lat="43.465115" lon="10.3503633"><ele>39.0</ele><time>2026-04-04T13:15:45.011Z</time></trkpt><trkpt lat="43.4651283" lon="10.35017"><ele>35.5</ele><time>2026-04-04T13:15:46.011Z</time></trkpt><trkpt lat="43.4651433" lon="10.3499717"><ele>32.0</ele><time>2026-04-04T13:15:47.012Z</time></trkpt><trkpt lat="43.4651517" lon="10.349775"><ele>28.5</ele><time>2026-04-04T13:15:48.011Z</time></trkpt><trkpt lat="43.46516" lon="10.3495767"><ele>25.0</ele><time>2026-04-04T13:15:49.011Z</time></trkpt><trkpt lat="43.4651683" lon="10.34938"><ele>21.25</ele><time>2026-04-04T13:15:50.011Z</time></trkpt><trkpt lat="43.4651767" lon="10.34919"><ele>17.5</ele><time>2026-04-04T13:15:51.012Z</time></trkpt><trkpt lat="43.4651833" lon="10.3489983"><ele>13.75</ele><time>2026-04-04T13:15:52.012Z</time></trkpt><trkpt lat="43.4651767" lon="10.3488017"><ele>10.0</ele><time>2026-04-04T13:15:53.011Z</time></trkpt><trkpt lat="43.4651667" lon="10.348595"><ele>10.0</ele><time>2026-04-04T13:15:54.012Z</time></trkpt><trkpt lat="43.4651583" lon="10.34839"><ele>10.0</ele><time>2026-04-04T13:15:55.014Z</time></trkpt><trkpt lat="43.4651533" lon="10.348185"><ele>10.0</ele><time>2026-04-04T13:15:56.011Z</time></trkpt><trkpt lat="43.4651433" lon="10.3479783"><ele>10.0</ele><time>2026-04-04T13:15:57.012Z</time></trkpt><trkpt lat="43.465135" lon="10.3477783"><ele>12.75</ele><time>2026-04-04T13:15:58.012Z</time></trkpt><trkpt lat="43.4651183" lon="10.347575"><ele>15.5</ele><time>2026-04-04T13:15:59.012Z</time></trkpt><trkpt lat="43.4651033" lon="10.347375"><ele>18.25</ele><time>2026-04-04T13:16:00.011Z</time></trkpt><trkpt lat="43.4650817" lon="10.3471833"><ele>21.0</ele><time>2026-04-04T13:16:01.012Z</time></trkpt><trkpt lat="43.4650533" lon="10.3469883"><ele>24.75</ele><time>2026-04-04T13:16:02.012Z</time></trkpt><trkpt lat="43.46502" lon="10.3467933"><ele>28.5</ele><time>2026-04-04T13:16:03.012Z</time></trkpt><trkpt lat="43.4649883" lon="10.3466033"><ele>32.25</ele><time>2026-04-04T13:16:04.011Z</time></trkpt><trkpt lat="43.46496" lon="10.34642"><ele>36.0</ele><time>2026-04-04T13:16:05.01Z</time></trkpt><trkpt lat="43.46493" lon="10.3462433"><ele>36.75</ele><time>2026-04-04T13:16:06.011Z</time></trkpt><trkpt lat="43.46491" lon="10.3460633"><ele>37.5</ele><time>2026-04-04T13:16:07.011Z</time></trkpt><trkpt lat="43.4648967" lon="10.3458733"><ele>38.25</ele><time>2026-04-04T13:16:08.011Z</time></trkpt><trkpt lat="43.46489" lon="10.3456833"><ele>39.0</ele><time>2026-04-04T13:16:09.011Z</time></trkpt><trkpt lat="43.4648933" lon="10.3454933"><ele>39.5</ele><time>2026-04-04T13:16:10.011Z</time></trkpt><trkpt lat="43.4649017" lon="10.3453067"><ele>40.0</ele><time>2026-04-04T13:16:11.012Z</time></trkpt><trkpt lat="43.4649167" lon="10.34512"><ele>40.5</ele><time>2026-04-04T13:16:12.011Z</time></trkpt><trkpt lat="43.4649367" lon="10.344935"><ele>41.0</ele><time>2026-04-04T13:16:13.012Z</time></trkpt><trkpt lat="43.4649567" lon="10.3447533"><ele>39.75</ele><time>2026-04-04T13:16:14.012Z</time></trkpt><trkpt lat="43.46498" lon="10.344575"><ele>38.5</ele><time>2026-04-04T13:16:15.012Z</time></trkpt><trkpt lat="43.46502" lon="10.3444033"><ele>37.25</ele><time>2026-04-04T13:16:16.011Z</time></trkpt><trkpt lat="43.46506" lon="10.3442367"><ele>36.0</ele><time>2026-04-04T13:16:17.011Z</time></trkpt><trkpt lat="43.4650967" lon="10.3440783"><ele>36.0</ele><time>2026-04-04T13:16:18.011Z</time></trkpt><trkpt lat="43.4651183" lon="10.343915"><ele>36.0</ele><time>2026-04-04T13:16:19.012Z</time></trkpt><trkpt lat="43.4651283" lon="10.3437567"><ele>36.0</ele><time>2026-04-04T13:16:20.01Z</time></trkpt><trkpt lat="43.4651267" lon="10.3436"><ele>36.0</ele><time>2026-04-04T13:16:21.011Z</time></trkpt><trkpt lat="43.465115" lon="10.3434517"><ele>34.0</ele><time>2026-04-04T13:16:22.011Z</time></trkpt><trkpt lat="43.4651017" lon="10.34331"><ele>32.0</ele><time>2026-04-04T13:16:23.01Z</time></trkpt><trkpt lat="43.465095" lon="10.3431667"><ele>30.0</ele><time>2026-04-04T13:16:24.011Z</time></trkpt><trkpt lat="43.465105" lon="10.3430217"><ele>28.0</ele><time>2026-04-04T13:16:25.011Z</time></trkpt><trkpt lat="43.46513" lon="10.3428733"><ele>26.0</ele><time>2026-04-04T13:16:26.012Z</time></trkpt><trkpt lat="43.4651733" lon="10.34273"><ele>27.75</ele><time>2026-04-04T13:16:27.014Z</time></trkpt><trkpt lat="43.4652317" lon="10.3425917"><ele>29.5</ele><time>2026-04-04T13:16:28.011Z</time></trkpt><trkpt lat="43.4653033" lon="10.3424617"><ele>31.25</ele><time>2026-04-04T13:16:29.012Z</time></trkpt><trkpt lat="43.4653917" lon="10.3423367"><ele>33.0</ele><time>2026-04-04T13:16:30.011Z</time></trkpt><trkpt lat="43.4654883" lon="10.3422083"><ele>33.0</ele><time>2026-04-04T13:16:31.01Z</time></trkpt><trkpt lat="43.4655867" lon="10.3420767"><ele>33.0</ele><time>2026-04-04T13:16:32.009Z</time></trkpt><trkpt lat="43.46568" lon="10.3419433"><ele>33.0</ele><time>2026-04-04T13:16:33.009Z</time></trkpt><trkpt lat="43.4657817" lon="10.3418217"><ele>33.0</ele><time>2026-04-04T13:16:34.01Z</time></trkpt><trkpt lat="43.465875" lon="10.3416983"><ele>33.0</ele><time>2026-04-04T13:16:35.009Z</time></trkpt><trkpt lat="43.46597" lon="10.3415783"><ele>33.0</ele><time>2026-04-04T13:16:36.011Z</time></trkpt><trkpt lat="43.466065" lon="10.3414567"><ele>33.0</ele><time>2026-04-04T13:16:37.01Z</time></trkpt><trkpt lat="43.4661617" lon="10.3413267"><ele>33.0</ele><time>2026-04-04T13:16:38.01Z</time></trkpt><trkpt lat="43.46627" lon="10.341205"><ele>33.25</ele><time>2026-04-04T13:16:39.01Z</time></trkpt><trkpt lat="43.4663783" lon="10.341075"><ele>33.5</ele><time>2026-04-04T13:16:40.01Z</time></trkpt><trkpt lat="43.4664817" lon="10.3409367"><ele>33.75</ele><time>2026-04-04T13:16:41.011Z</time></trkpt><trkpt lat="43.4665867" lon="10.3408067"><ele>34.0</ele><time>2026-04-04T13:16:42.01Z</time></trkpt><trkpt lat="43.466695" lon="10.3406783"><ele>27.0</ele><time>2026-04-04T13:16:43.009Z</time></trkpt><trkpt lat="43.4668" lon="10.3405433"><ele>20.0</ele><time>2026-04-04T13:16:44.011Z</time></trkpt><trkpt lat="43.4668967" lon="10.3403817"><ele>13.0</ele><time>2026-04-04T13:16:45.011Z</time></trkpt><trkpt lat="43.466985" lon="10.3402"><ele>13.0</ele><time>2026-04-04T13:16:46.01Z</time></trkpt><trkpt lat="43.46708" lon="10.3400217"><ele>13.0</ele><time>2026-04-04T13:16:47.009Z</time></trkpt><trkpt lat="43.467185" lon="10.3398517"><ele>13.0</ele><time>2026-04-04T13:16:48.011Z</time></trkpt><trkpt lat="43.4673033" lon="10.3396917"><ele>15.0</ele><time>2026-04-04T13:16:49.012Z</time></trkpt><trkpt lat="43.4674283" lon="10.3395233"><ele>17.0</ele><time>2026-04-04T13:16:50.014Z</time></trkpt><trkpt lat="43.4675667" lon="10.3393383"><ele>19.0</ele><time>2026-04-04T13:16:51.012Z</time></trkpt><trkpt lat="43.4677133" lon="10.3391467"><ele>19.0</ele><time>2026-04-04T13:16:52.012Z</time></trkpt><trkpt lat="43.4678583" lon="10.3389583"><ele>19.0</ele><time>2026-04-04T13:16:53.013Z</time></trkpt><trkpt lat="43.4679967" lon="10.338765"><ele>19.0</ele><time>2026-04-04T13:16:54.013Z</time></trkpt><trkpt lat="43.4681283" lon="10.3385783"><ele>20.333333333333332</ele><time>2026-04-04T13:16:55.011Z</time></trkpt><trkpt lat="43.468255" lon="10.3383983"><ele>21.666666666666668</ele><time>2026-04-04T13:16:56.012Z</time></trkpt><trkpt lat="43.4683733" lon="10.3382283"><ele>23.0</ele><time>2026-04-04T13:16:57.012Z</time></trkpt><trkpt lat="43.4684817" lon="10.3380567"><ele>25.0</ele><time>2026-04-04T13:16:58.013Z</time></trkpt><trkpt lat="43.4685967" lon="10.3379"><ele>27.0</ele><time>2026-04-04T13:16:59.012Z</time></trkpt><trkpt lat="43.4687167" lon="10.3377483"><ele>29.0</ele><time>2026-04-04T13:17:00.012Z</time></trkpt><trkpt lat="43.46884" lon="10.3376083"><ele>29.0</ele><time>2026-04-04T13:17:01.012Z</time></trkpt><trkpt lat="43.4689633" lon="10.3374717"><ele>29.0</ele><time>2026-04-04T13:17:02.012Z</time></trkpt><trkpt lat="43.469085" lon="10.33733"><ele>29.0</ele><time>2026-04-04T13:17:03.012Z</time></trkpt><trkpt lat="43.4691833" lon="10.3371633"><ele>23.0</ele><time>2026-04-04T13:17:04.012Z</time></trkpt><trkpt lat="43.4692667" lon="10.33698"><ele>17.0</ele><time>2026-04-04T13:17:05.011Z</time></trkpt><trkpt lat="43.4693583" lon="10.336805"><ele>11.0</ele><time>2026-04-04T13:17:06.012Z</time></trkpt><trkpt lat="43.4694533" lon="10.3366433"><ele>11.0</ele><time>2026-04-04T13:17:07.011Z</time></trkpt><trkpt lat="43.46956" lon="10.3364967"><ele>11.0</ele><time>2026-04-04T13:17:08.01Z</time></trkpt><trkpt lat="43.4696767" lon="10.33636"><ele>11.0</ele><time>2026-04-04T13:17:09.012Z</time></trkpt><trkpt lat="43.469795" lon="10.3362283"><ele>11.333333333333332</ele><time>2026-04-04T13:17:10.01Z</time></trkpt><trkpt lat="43.469925" lon="10.3361117"><ele>11.666666666666666</ele><time>2026-04-04T13:17:11.011Z</time></trkpt><trkpt lat="43.4700617" lon="10.3360033"><ele>12.0</ele><time>2026-04-04T13:17:12.012Z</time></trkpt><trkpt lat="43.4702083" lon="10.3359117"><ele>12.0</ele><time>2026-04-04T13:17:13.011Z</time></trkpt><trkpt lat="43.47036" lon="10.3358217"><ele>12.0</ele><time>2026-04-04T13:17:14.012Z</time></trkpt><trkpt lat="43.4705133" lon="10.3357283"><ele>12.0</ele><time>2026-04-04T13:17:15.011Z</time></trkpt><trkpt lat="43.4706567" lon="10.33562"><ele>10.666666666666666</ele><time>2026-04-04T13:17:16.01Z</time></trkpt><trkpt lat="43.4707933" lon="10.3354933"><ele>9.333333333333332</ele><time>2026-04-04T13:17:17.012Z</time></trkpt><trkpt lat="43.4709183" lon="10.3353517"><ele>8.0</ele><time>2026-04-04T13:17:18.011Z</time></trkpt><trkpt lat="43.4710367" lon="10.3352017"><ele>8.0</ele><time>2026-04-04T13:17:19.011Z</time></trkpt><trkpt lat="43.4711533" lon="10.3350483"><ele>8.0</ele><time>2026-04-04T13:17:20.011Z</time></trkpt><trkpt lat="43.4712633" lon="10.334895"><ele>8.0</ele><time>2026-04-04T13:17:21.012Z</time></trkpt><trkpt lat="43.471365" lon="10.3347467"><ele>7.5</ele><time>2026-04-04T13:17:22.011Z</time></trkpt><trkpt lat="43.4714667" lon="10.3346033"><ele>7.0</ele><time>2026-04-04T13:17:23.011Z</time></trkpt><trkpt lat="43.4715667" lon="10.3344667"><ele>6.5</ele><time>2026-04-04T13:17:24.011Z</time></trkpt><trkpt lat="43.47167" lon="10.334335"><ele>6.0</ele><time>2026-04-04T13:17:25.011Z</time></trkpt><trkpt lat="43.471765" lon="10.3342"><ele>6.0</ele><time>2026-04-04T13:17:26.01Z</time></trkpt><trkpt lat="43.4718633" lon="10.3340683"><ele>6.0</ele><time>2026-04-04T13:17:27.011Z</time></trkpt><trkpt lat="43.4719567" lon="10.3339367"><ele>6.0</ele><time>2026-04-04T13:17:28.012Z</time></trkpt><trkpt lat="43.4720467" lon="10.3338083"><ele>6.0</ele><time>2026-04-04T13:17:29.012Z</time></trkpt><trkpt lat="43.4721333" lon="10.3336817"><ele>7.75</ele><time>2026-04-04T13:17:30.01Z</time></trkpt><trkpt lat="43.4722217" lon="10.3335617"><ele>9.5</ele><time>2026-04-04T13:17:31.011Z</time></trkpt><trkpt lat="43.4723133" lon="10.333435"><ele>11.25</ele><time>2026-04-04T13:17:32.011Z</time></trkpt><trkpt lat="43.4724033" lon="10.3333067"><ele>13.0</ele><time>2026-04-04T13:17:33.011Z</time></trkpt><trkpt lat="43.4724967" lon="10.333175"><ele>11.75</ele><time>2026-04-04T13:17:34.01Z</time></trkpt><trkpt lat="43.4725867" lon="10.3330367"><ele>10.5</ele><time>2026-04-04T13:17:35.009Z</time></trkpt><trkpt lat="43.4726733" lon="10.3328917"><ele>9.25</ele><time>2026-04-04T13:17:36.01Z</time></trkpt><trkpt lat="43.4727467" lon="10.3327367"><ele>8.0</ele><time>2026-04-04T13:17:37.011Z</time></trkpt><trkpt lat="43.4728167" lon="10.33258"><ele>8.0</ele><time>2026-04-04T13:17:38.012Z</time></trkpt><trkpt lat="43.4728867" lon="10.3324283"><ele>8.0</ele><time>2026-04-04T13:17:39.011Z</time></trkpt><trkpt lat="43.4729467" lon="10.3322833"><ele>8.0</ele><time>2026-04-04T13:17:40.011Z</time></trkpt><trkpt lat="43.4730017" lon="10.3321417"><ele>8.0</ele><time>2026-04-04T13:17:41.011Z</time></trkpt><trkpt lat="43.4730583" lon="10.3320067"><ele>9.25</ele><time>2026-04-04T13:17:42.011Z</time></trkpt><trkpt lat="43.4731283" lon="10.3318883"><ele>10.5</ele><time>2026-04-04T13:17:43.01Z</time></trkpt><trkpt lat="43.47321" lon="10.3317833"><ele>11.75</ele><time>2026-04-04T13:17:44.011Z</time></trkpt><trkpt lat="43.4733033" lon="10.33168"><ele>13.0</ele><time>2026-04-04T13:17:45.011Z</time></trkpt><trkpt lat="43.4734017" lon="10.331595"><ele>13.0</ele><time>2026-04-04T13:17:46.01Z</time></trkpt><trkpt lat="43.47351" lon="10.3315183"><ele>13.0</ele><time>2026-04-04T13:17:47.01Z</time></trkpt><trkpt lat="43.4736167" lon="10.3314367"><ele>13.0</ele><time>2026-04-04T13:17:48.011Z</time></trkpt><trkpt lat="43.4737217" lon="10.33135"><ele>13.0</ele><time>2026-04-04T13:17:49.013Z</time></trkpt><trkpt lat="43.4738217" lon="10.3312683"><ele>12.0</ele><time>2026-04-04T13:17:50.011Z</time></trkpt><trkpt lat="43.4739133" lon="10.3311933"><ele>11.0</ele><time>2026-04-04T13:17:51.013Z</time></trkpt><trkpt lat="43.474" lon="10.3311317"><ele>10.0</ele><time>2026-04-04T13:17:52.012Z</time></trkpt><trkpt lat="43.4740917" lon="10.3310867"><ele>9.0</ele><time>2026-04-04T13:17:53.012Z</time></trkpt><trkpt lat="43.4741883" lon="10.3310583"><ele>8.0</ele><time>2026-04-04T13:17:54.012Z</time></trkpt><trkpt lat="43.4743" lon="10.33106"><ele>8.0</ele><time>2026-04-04T13:17:55.011Z</time></trkpt><trkpt lat="43.4744167" lon="10.3310817"><ele>8.0</ele><time>2026-04-04T13:17:56.01Z</time></trkpt><trkpt lat="43.4745317" lon="10.3311083"><ele>8.0</ele><time>2026-04-04T13:17:57.01Z</time></trkpt><trkpt lat="43.4746433" lon="10.3311283"><ele>8.0</ele><time>2026-04-04T13:17:58.009Z</time></trkpt><trkpt lat="43.4747517" lon="10.3311483"><ele>8.200000000000001</ele><time>2026-04-04T13:17:59.009Z</time></trkpt><trkpt lat="43.47486" lon="10.3311667"><ele>8.4</ele><time>2026-04-04T13:18:00.009Z</time></trkpt><trkpt lat="43.4749617" lon="10.3311783"><ele>8.600000000000001</ele><time>2026-04-04T13:18:01.009Z</time></trkpt><trkpt lat="43.4750617" lon="10.3311933"><ele>8.8</ele><time>2026-04-04T13:18:02.01Z</time></trkpt><trkpt lat="43.4751667" lon="10.3311967"><ele>9.0</ele><time>2026-04-04T13:18:03.009Z</time></trkpt><trkpt lat="43.47527" lon="10.3311783"><ele>9.0</ele><time>2026-04-04T13:18:04.009Z</time></trkpt><trkpt lat="43.4753667" lon="10.3311367"><ele>9.0</ele><time>2026-04-04T13:18:05.01Z</time></trkpt><trkpt lat="43.4754567" lon="10.3310633"><ele>9.0</ele><time>2026-04-04T13:18:06.01Z</time></trkpt><trkpt lat="43.4755433" lon="10.33097"><ele>9.0</ele><time>2026-04-04T13:18:07.009Z</time></trkpt><trkpt lat="43.4756283" lon="10.3308733"><ele>9.0</ele><time>2026-04-04T13:18:08.01Z</time></trkpt><trkpt lat="43.4757133" lon="10.330765"><ele>8.0</ele><time>2026-04-04T13:18:09.009Z</time></trkpt><trkpt lat="43.4758017" lon="10.3306667"><ele>7.0</ele><time>2026-04-04T13:18:10.01Z</time></trkpt><trkpt lat="43.47589" lon="10.330565"><ele>6.0</ele><time>2026-04-04T13:18:11.01Z</time></trkpt><trkpt lat="43.4759867" lon="10.33048"><ele>5.0</ele><time>2026-04-04T13:18:12.01Z</time></trkpt><trkpt lat="43.476095" lon="10.3304117"><ele>5.0</ele><time>2026-04-04T13:18:13.011Z</time></trkpt><trkpt lat="43.4762083" lon="10.33036"><ele>5.0</ele><time>2026-04-04T13:18:14.01Z</time></trkpt><trkpt lat="43.4763283" lon="10.33034"><ele>5.0</ele><time>2026-04-04T13:18:15.011Z</time></trkpt><trkpt lat="43.47645" lon="10.3303533"><ele>5.0</ele><time>2026-04-04T13:18:16.011Z</time></trkpt><trkpt lat="43.4765667" lon="10.3303967"><ele>5.5</ele><time>2026-04-04T13:18:17.01Z</time></trkpt><trkpt lat="43.4766783" lon="10.3304517"><ele>6.0</ele><time>2026-04-04T13:18:18.01Z</time></trkpt><trkpt lat="43.4767867" lon="10.3305083"><ele>6.5</ele><time>2026-04-04T13:18:19.01Z</time></trkpt><trkpt lat="43.47689" lon="10.330565"><ele>7.0</ele><time>2026-04-04T13:18:20.011Z</time></trkpt><trkpt lat="43.47699" lon="10.3306217"><ele>7.500000000000001</ele><time>2026-04-04T13:18:21.011Z</time></trkpt><trkpt lat="43.4770817" lon="10.33067"><ele>8.0</ele><time>2026-04-04T13:18:22.01Z</time></trkpt><trkpt lat="43.4771633" lon="10.3307133"><ele>8.5</ele><time>2026-04-04T13:18:23.01Z</time></trkpt><trkpt lat="43.47723" lon="10.3307483"><ele>9.0</ele><time>2026-04-04T13:18:24.012Z</time></trkpt><trkpt lat="43.47732" lon="10.3307917"><ele>9.5</ele><time>2026-04-04T13:18:26.011Z</time></trkpt><trkpt lat="43.4773917" lon="10.3307633"><ele>10.0</ele><time>2026-04-04T13:18:32.01Z</time></trkpt><trkpt lat="43.4773267" lon="10.3307517"><ele>10.0</ele><time>2026-04-04T13:20:48.011Z</time></trkpt><trkpt lat="43.4773867" lon="10.3308683"><ele>10.0</ele><time>2026-04-04T13:20:50.011Z</time></trkpt><trkpt lat="43.4774433" lon="10.330935"><ele>10.0</ele><time>2026-04-04T13:20:51.011Z</time></trkpt><trkpt lat="43.47752" lon="10.3310133"><ele>10.0</ele><time>2026-04-04T13:20:52.011Z</time></trkpt><trkpt lat="43.4776067" lon="10.331115"><ele>10.0</ele><time>2026-04-04T13:20:53.01Z</time></trkpt><trkpt lat="43.4776983" lon="10.331225"><ele>10.0</ele><time>2026-04-04T13:20:54.011Z</time></trkpt><trkpt lat="43.477795" lon="10.3313467"><ele>10.0</ele><time>2026-04-04T13:20:55.012Z</time></trkpt><trkpt lat="43.4778967" lon="10.331475"><ele>10.0</ele><time>2026-04-04T13:20:56.011Z</time></trkpt><trkpt lat="43.4780067" lon="10.331615"><ele>10.0</ele><time>2026-04-04T13:20:57.011Z</time></trkpt><trkpt lat="43.4781133" lon="10.3317617"><ele>9.333333333333334</ele><time>2026-04-04T13:20:58.011Z</time></trkpt><trkpt lat="43.4782233" lon="10.3319133"><ele>8.666666666666666</ele><time>2026-04-04T13:20:59.01Z</time></trkpt><trkpt lat="43.4783233" lon="10.3320833"><ele>8.0</ele><time>2026-04-04T13:21:00.009Z</time></trkpt><trkpt lat="43.4784133" lon="10.3322633"><ele>12.0</ele><time>2026-04-04T13:21:01.011Z</time></trkpt><trkpt lat="43.478505" lon="10.3324433"><ele>16.0</ele><time>2026-04-04T13:21:02.011Z</time></trkpt><trkpt lat="43.4786067" lon="10.3326167"><ele>20.0</ele><time>2026-04-04T13:21:03.011Z</time></trkpt><trkpt lat="43.4787283" lon="10.3327683"><ele>19.333333333333336</ele><time>2026-04-04T13:21:04.011Z</time></trkpt><trkpt lat="43.4788683" lon="10.3328933"><ele>18.666666666666668</ele><time>2026-04-04T13:21:05.011Z</time></trkpt><trkpt lat="43.4790233" lon="10.333"><ele>18.0</ele><time>2026-04-04T13:21:06.013Z</time></trkpt><trkpt lat="43.479185" lon="10.3331"><ele>18.0</ele><time>2026-04-04T13:21:07.013Z</time></trkpt><trkpt lat="43.4793433" lon="10.33319"><ele>18.0</ele><time>2026-04-04T13:21:08.012Z</time></trkpt><trkpt lat="43.479495" lon="10.3332633"><ele>18.0</ele><time>2026-04-04T13:21:09.013Z</time></trkpt><trkpt lat="43.479635" lon="10.3333167"><ele>17.0</ele><time>2026-04-04T13:21:10.011Z</time></trkpt><trkpt lat="43.4797633" lon="10.33336"><ele>16.0</ele><time>2026-04-04T13:21:11.011Z</time></trkpt><trkpt lat="43.479885" lon="10.3333917"><ele>15.0</ele><time>2026-04-04T13:21:12.011Z</time></trkpt><trkpt lat="43.4799967" lon="10.333435"><ele>14.0</ele><time>2026-04-04T13:21:13.012Z</time></trkpt><trkpt lat="43.4800983" lon="10.33349"><ele>14.0</ele><time>2026-04-04T13:21:14.012Z</time></trkpt><trkpt lat="43.4801783" lon="10.333585"><ele>14.0</ele><time>2026-04-04T13:21:15.011Z</time></trkpt><trkpt lat="43.480235" lon="10.3337217"><ele>14.0</ele><time>2026-04-04T13:21:16.011Z</time></trkpt><trkpt lat="43.480285" lon="10.3338767"><ele>14.0</ele><time>2026-04-04T13:21:17.011Z</time></trkpt><trkpt lat="43.4803267" lon="10.33405"><ele>14.75</ele><time>2026-04-04T13:21:18.011Z</time></trkpt><trkpt lat="43.4803683" lon="10.334235"><ele>15.5</ele><time>2026-04-04T13:21:19.014Z</time></trkpt><trkpt lat="43.4804167" lon="10.3344033"><ele>16.25</ele><time>2026-04-04T13:21:20.012Z</time></trkpt><trkpt lat="43.480475" lon="10.3345467"><ele>17.0</ele><time>2026-04-04T13:21:21.011Z</time></trkpt><trkpt lat="43.48055" lon="10.3346483"><ele>17.2</ele><time>2026-04-04T13:21:22.011Z</time></trkpt><trkpt lat="43.4806283" lon="10.3347083"><ele>17.4</ele><time>2026-04-04T13:21:23.011Z</time></trkpt><trkpt lat="43.4807117" lon="10.334715"><ele>17.6</ele><time>2026-04-04T13:21:24.011Z</time></trkpt><trkpt lat="43.4807933" lon="10.3346933"><ele>17.8</ele><time>2026-04-04T13:21:25.011Z</time></trkpt><trkpt lat="43.4808833" lon="10.3346483"><ele>18.0</ele><time>2026-04-04T13:21:26.011Z</time></trkpt><trkpt lat="43.4809817" lon="10.33461"><ele>18.0</ele><time>2026-04-04T13:21:27.011Z</time></trkpt><trkpt lat="43.4810833" lon="10.3345733"><ele>18.0</ele><time>2026-04-04T13:21:28.012Z</time></trkpt><trkpt lat="43.4811933" lon="10.33454"><ele>18.0</ele><time>2026-04-04T13:21:29.012Z</time></trkpt><trkpt lat="43.4813117" lon="10.3345167"><ele>18.0</ele><time>2026-04-04T13:21:30.011Z</time></trkpt><trkpt lat="43.4814383" lon="10.3344967"><ele>18.25</ele><time>2026-04-04T13:21:31.011Z</time></trkpt><trkpt lat="43.481575" lon="10.3344817"><ele>18.5</ele><time>2026-04-04T13:21:32.012Z</time></trkpt><trkpt lat="43.4817233" lon="10.3344683"><ele>18.75</ele><time>2026-04-04T13:21:33.011Z</time></trkpt><trkpt lat="43.48188" lon="10.3344533"><ele>19.0</ele><time>2026-04-04T13:21:34.011Z</time></trkpt><trkpt lat="43.4820467" lon="10.3344317"><ele>19.666666666666664</ele><time>2026-04-04T13:21:35.011Z</time></trkpt><trkpt lat="43.4822117" lon="10.3344033"><ele>20.333333333333332</ele><time>2026-04-04T13:21:36.011Z</time></trkpt><trkpt lat="43.482365" lon="10.3343667"><ele>21.0</ele><time>2026-04-04T13:21:37.012Z</time></trkpt><trkpt lat="43.48251" lon="10.3343283"><ele>21.0</ele><time>2026-04-04T13:21:38.012Z</time></trkpt><trkpt lat="43.4826517" lon="10.3342867"><ele>21.0</ele><time>2026-04-04T13:21:39.012Z</time></trkpt><trkpt lat="43.4827733" lon="10.3342467"><ele>21.0</ele><time>2026-04-04T13:21:40.011Z</time></trkpt><trkpt lat="43.4829" lon="10.33421"><ele>21.0</ele><time>2026-04-04T13:21:41.011Z</time></trkpt><trkpt lat="43.4830283" lon="10.3341667"><ele>21.5</ele><time>2026-04-04T13:21:42.013Z</time></trkpt><trkpt lat="43.4831533" lon="10.33413"><ele>22.0</ele><time>2026-04-04T13:21:43.01Z</time></trkpt><trkpt lat="43.4832683" lon="10.3340783"><ele>22.5</ele><time>2026-04-04T13:21:44.011Z</time></trkpt><trkpt lat="43.483365" lon="10.3339967"><ele>23.0</ele><time>2026-04-04T13:21:45.011Z</time></trkpt><trkpt lat="43.48345" lon="10.3338967"><ele>21.75</ele><time>2026-04-04T13:21:46.012Z</time></trkpt><trkpt lat="43.4835233" lon="10.333775"><ele>20.5</ele><time>2026-04-04T13:21:47.011Z</time></trkpt><trkpt lat="43.4835933" lon="10.3336183"><ele>19.25</ele><time>2026-04-04T13:21:48.012Z</time></trkpt><trkpt lat="43.4836167" lon="10.333375"><ele>18.0</ele><time>2026-04-04T13:21:49.011Z</time></trkpt><trkpt lat="43.4836367" lon="10.3331233"><ele>17.0</ele><time>2026-04-04T13:21:50.011Z</time></trkpt><trkpt lat="43.483665" lon="10.3328967"><ele>16.0</ele><time>2026-04-04T13:21:51.011Z</time></trkpt><trkpt lat="43.4837117" lon="10.3326933"><ele>15.0</ele><time>2026-04-04T13:21:52.011Z</time></trkpt><trkpt lat="43.4837833" lon="10.33253"><ele>15.0</ele><time>2026-04-04T13:21:53.012Z</time></trkpt><trkpt lat="43.4838833" lon="10.3323967"><ele>15.0</ele><time>2026-04-04T13:21:54.011Z</time></trkpt><trkpt lat="43.4840117" lon="10.332285"><ele>15.0</ele><time>2026-04-04T13:21:55.011Z</time></trkpt><trkpt lat="43.484155" lon="10.3321883"><ele>15.75</ele><time>2026-04-04T13:21:56.011Z</time></trkpt><trkpt lat="43.4842933" lon="10.3320983"><ele>16.5</ele><time>2026-04-04T13:21:57.011Z</time></trkpt><trkpt lat="43.4844283" lon="10.3320217"><ele>17.25</ele><time>2026-04-04T13:21:58.011Z</time></trkpt><trkpt lat="43.4845583" lon="10.3319467"><ele>18.0</ele><time>2026-04-04T13:21:59.01Z</time></trkpt><trkpt lat="43.4846883" lon="10.331875"><ele>18.0</ele><time>2026-04-04T13:22:00.011Z</time></trkpt><trkpt lat="43.4848183" lon="10.3318033"><ele>18.0</ele><time>2026-04-04T13:22:01.011Z</time></trkpt><trkpt lat="43.4849417" lon="10.3317433"><ele>18.0</ele><time>2026-04-04T13:22:02.011Z</time></trkpt><trkpt lat="43.4850533" lon="10.3316867"><ele>18.0</ele><time>2026-04-04T13:22:03.011Z</time></trkpt><trkpt lat="43.4851567" lon="10.3316283"><ele>18.0</ele><time>2026-04-04T13:22:04.011Z</time></trkpt><trkpt lat="43.4852583" lon="10.3315767"><ele>18.0</ele><time>2026-04-04T13:22:05.012Z</time></trkpt><trkpt lat="43.4853467" lon="10.331525"><ele>18.0</ele><time>2026-04-04T13:22:06.011Z</time></trkpt><trkpt lat="43.4854283" lon="10.33148"><ele>18.0</ele><time>2026-04-04T13:22:07.012Z</time></trkpt><trkpt lat="43.4855067" lon="10.331435"><ele>18.0</ele><time>2026-04-04T13:22:08.012Z</time></trkpt><trkpt lat="43.485585" lon="10.33139"><ele>17.833333333333332</ele><time>2026-04-04T13:22:09.011Z</time></trkpt><trkpt lat="43.4856683" lon="10.3313467"><ele>17.666666666666668</ele><time>2026-04-04T13:22:10.011Z</time></trkpt><trkpt lat="43.4857517" lon="10.3313"><ele>17.5</ele><time>2026-04-04T13:22:11.011Z</time></trkpt><trkpt lat="43.4858317" lon="10.3312517"><ele>17.333333333333336</ele><time>2026-04-04T13:22:12.011Z</time></trkpt><trkpt lat="43.4859117" lon="10.3312067"><ele>17.166666666666668</ele><time>2026-04-04T13:22:13.012Z</time></trkpt><trkpt lat="43.4859967" lon="10.33117"><ele>17.0</ele><time>2026-04-04T13:22:14.011Z</time></trkpt><trkpt lat="43.48608" lon="10.3311283"><ele>17.0</ele><time>2026-04-04T13:22:15.011Z</time></trkpt><trkpt lat="43.4861617" lon="10.3310767"><ele>17.0</ele><time>2026-04-04T13:22:16.012Z</time></trkpt><trkpt lat="43.48625" lon="10.3310267"><ele>17.0</ele><time>2026-04-04T13:22:17.011Z</time></trkpt><trkpt lat="43.4863433" lon="10.33098"><ele>17.0</ele><time>2026-04-04T13:22:18.01Z</time></trkpt><trkpt lat="43.4864383" lon="10.3309267"><ele>17.0</ele><time>2026-04-04T13:22:19.012Z</time></trkpt><trkpt lat="43.4865367" lon="10.3308717"><ele>17.4</ele><time>2026-04-04T13:22:20.011Z</time></trkpt><trkpt lat="43.4866383" lon="10.3308183"><ele>17.799999999999997</ele><time>2026-04-04T13:22:21.012Z</time></trkpt><trkpt lat="43.48674" lon="10.3307633"><ele>18.2</ele><time>2026-04-04T13:22:22.012Z</time></trkpt><trkpt lat="43.4868417" lon="10.33071"><ele>18.599999999999998</ele><time>2026-04-04T13:22:23.011Z</time></trkpt><trkpt lat="43.486945" lon="10.330655"><ele>19.0</ele><time>2026-04-04T13:22:24.011Z</time></trkpt><trkpt lat="43.4870517" lon="10.3306033"><ele>18.0</ele><time>2026-04-04T13:22:25.012Z</time></trkpt><trkpt lat="43.4871567" lon="10.33055"><ele>17.0</ele><time>2026-04-04T13:22:26.011Z</time></trkpt><trkpt lat="43.4872617" lon="10.3304917"><ele>16.0</ele><time>2026-04-04T13:22:27.012Z</time></trkpt><trkpt lat="43.4873717" lon="10.3304333"><ele>15.0</ele><time>2026-04-04T13:22:28.011Z</time></trkpt><trkpt lat="43.487485" lon="10.3303767"><ele>15.0</ele><time>2026-04-04T13:22:29.012Z</time></trkpt><trkpt lat="43.487595" lon="10.3303133"><ele>15.0</ele><time>2026-04-04T13:22:30.011Z</time></trkpt><trkpt lat="43.487695" lon="10.33025"><ele>15.0</ele><time>2026-04-04T13:22:31.01Z</time></trkpt><trkpt lat="43.4877933" lon="10.3301967"><ele>15.0</ele><time>2026-04-04T13:22:32.012Z</time></trkpt><trkpt lat="43.487885" lon="10.3301467"><ele>15.0</ele><time>2026-04-04T13:22:33.011Z</time></trkpt><trkpt lat="43.48798" lon="10.3301"><ele>15.5</ele><time>2026-04-04T13:22:34.011Z</time></trkpt><trkpt lat="43.488065" lon="10.3300533"><ele>16.0</ele><time>2026-04-04T13:22:35.012Z</time></trkpt><trkpt lat="43.4881417" lon="10.3300083"><ele>16.5</ele><time>2026-04-04T13:22:36.011Z</time></trkpt><trkpt lat="43.4882183" lon="10.329965"><ele>17.0</ele><time>2026-04-04T13:22:37.013Z</time></trkpt><trkpt lat="43.488295" lon="10.3299183"><ele>17.5</ele><time>2026-04-04T13:22:38.012Z</time></trkpt><trkpt lat="43.488375" lon="10.3298767"><ele>18.0</ele><time>2026-04-04T13:22:39.011Z</time></trkpt><trkpt lat="43.4884517" lon="10.3298383"><ele>18.0</ele><time>2026-04-04T13:22:40.011Z</time></trkpt><trkpt lat="43.4885267" lon="10.329795"><ele>18.0</ele><time>2026-04-04T13:22:41.011Z</time></trkpt><trkpt lat="43.4886067" lon="10.3297517"><ele>18.0</ele><time>2026-04-04T13:22:42.011Z</time></trkpt><trkpt lat="43.4886883" lon="10.329705"><ele>18.0</ele><time>2026-04-04T13:22:43.013Z</time></trkpt><trkpt lat="43.48877" lon="10.32966"><ele>18.0</ele><time>2026-04-04T13:22:44.013Z</time></trkpt><trkpt lat="43.488855" lon="10.3296167"><ele>18.0</ele><time>2026-04-04T13:22:45.011Z</time></trkpt><trkpt lat="43.4889417" lon="10.3295633"><ele>17.4</ele><time>2026-04-04T13:22:46.011Z</time></trkpt><trkpt lat="43.4890267" lon="10.3295133"><ele>16.8</ele><time>2026-04-04T13:22:47.012Z</time></trkpt><trkpt lat="43.48911" lon="10.32946"><ele>16.2</ele><time>2026-04-04T13:22:48.011Z</time></trkpt><trkpt lat="43.4891983" lon="10.329415"><ele>15.6</ele><time>2026-04-04T13:22:49.011Z</time></trkpt><trkpt lat="43.4892817" lon="10.3293683"><ele>15.0</ele><time>2026-04-04T13:22:50.012Z</time></trkpt><trkpt lat="43.4893683" lon="10.32932"><ele>15.0</ele><time>2026-04-04T13:22:51.011Z</time></trkpt><trkpt lat="43.4894567" lon="10.329275"><ele>15.0</ele><time>2026-04-04T13:22:52.011Z</time></trkpt><trkpt lat="43.4895467" lon="10.329235"><ele>15.0</ele><time>2026-04-04T13:22:53.011Z</time></trkpt><trkpt lat="43.4896367" lon="10.32919"><ele>15.0</ele><time>2026-04-04T13:22:54.012Z</time></trkpt><trkpt lat="43.4897317" lon="10.3291433"><ele>15.0</ele><time>2026-04-04T13:22:55.012Z</time></trkpt><trkpt lat="43.4898283" lon="10.3291"><ele>15.4</ele><time>2026-04-04T13:22:56.011Z</time></trkpt><trkpt lat="43.48993" lon="10.3290483"><ele>15.8</ele><time>2026-04-04T13:22:57.012Z</time></trkpt><trkpt lat="43.49003" lon="10.3289917"><ele>16.2</ele><time>2026-04-04T13:22:58.014Z</time></trkpt><trkpt lat="43.49013" lon="10.3289367"><ele>16.6</ele><time>2026-04-04T13:22:59.013Z</time></trkpt><trkpt lat="43.4902333" lon="10.3288867"><ele>17.0</ele><time>2026-04-04T13:23:00.011Z</time></trkpt><trkpt lat="43.4903367" lon="10.32883"><ele>17.5</ele><time>2026-04-04T13:23:01.011Z</time></trkpt><trkpt lat="43.4904417" lon="10.3287717"><ele>18.0</ele><time>2026-04-04T13:23:02.012Z</time></trkpt><trkpt lat="43.490545" lon="10.32871"><ele>18.5</ele><time>2026-04-04T13:23:03.013Z</time></trkpt><trkpt lat="43.4906533" lon="10.328655"><ele>19.0</ele><time>2026-04-04T13:23:04.011Z</time></trkpt><trkpt lat="43.4907617" lon="10.328585"><ele>19.0</ele><time>2026-04-04T13:23:05.012Z</time></trkpt><trkpt lat="43.490875" lon="10.3285217"><ele>19.0</ele><time>2026-04-04T13:23:06.011Z</time></trkpt><trkpt lat="43.4909967" lon="10.328455"><ele>19.0</ele><time>2026-04-04T13:23:07.011Z</time></trkpt><trkpt lat="43.49112" lon="10.3283867"><ele>19.0</ele><time>2026-04-04T13:23:08.012Z</time></trkpt><trkpt lat="43.491245" lon="10.3283183"><ele>19.0</ele><time>2026-04-04T13:23:09.011Z</time></trkpt><trkpt lat="43.4913683" lon="10.328245"><ele>19.0</ele><time>2026-04-04T13:23:10.01Z</time></trkpt><trkpt lat="43.491495" lon="10.3281783"><ele>19.0</ele><time>2026-04-04T13:23:11.011Z</time></trkpt><trkpt lat="43.4916217" lon="10.32811"><ele>19.0</ele><time>2026-04-04T13:23:12.012Z</time></trkpt><trkpt lat="43.4917433" lon="10.3280367"><ele>19.0</ele><time>2026-04-04T13:23:13.011Z</time></trkpt><trkpt lat="43.4918633" lon="10.3279617"><ele>19.0</ele><time>2026-04-04T13:23:14.011Z</time></trkpt><trkpt lat="43.4919833" lon="10.3278933"><ele>19.0</ele><time>2026-04-04T13:23:15.013Z</time></trkpt><trkpt lat="43.4921083" lon="10.3278267"><ele>19.0</ele><time>2026-04-04T13:23:16.011Z</time></trkpt><trkpt lat="43.4922317" lon="10.3277583"><ele>19.0</ele><time>2026-04-04T13:23:17.011Z</time></trkpt><trkpt lat="43.49235" lon="10.3276883"><ele>19.0</ele><time>2026-04-04T13:23:18.011Z</time></trkpt><trkpt lat="43.4924717" lon="10.3276283"><ele>19.0</ele><time>2026-04-04T13:23:19.012Z</time></trkpt><trkpt lat="43.4925883" lon="10.327555"><ele>19.0</ele><time>2026-04-04T13:23:20.011Z</time></trkpt><trkpt lat="43.4927067" lon="10.3274883"><ele>19.0</ele><time>2026-04-04T13:23:21.012Z</time></trkpt><trkpt lat="43.49283" lon="10.3274217"><ele>19.0</ele><time>2026-04-04T13:23:22.012Z</time></trkpt><trkpt lat="43.4929533" lon="10.3273533"><ele>19.0</ele><time>2026-04-04T13:23:23.012Z</time></trkpt><trkpt lat="43.4930767" lon="10.3272867"><ele>19.0</ele><time>2026-04-04T13:23:24.012Z</time></trkpt><trkpt lat="43.4932017" lon="10.3272217"><ele>18.75</ele><time>2026-04-04T13:23:25.013Z</time></trkpt><trkpt lat="43.493325" lon="10.3271483"><ele>18.5</ele><time>2026-04-04T13:23:26.012Z</time></trkpt><trkpt lat="43.4934483" lon="10.3270833"><ele>18.25</ele><time>2026-04-04T13:23:27.012Z</time></trkpt><trkpt lat="43.493575" lon="10.3270117"><ele>18.0</ele><time>2026-04-04T13:23:28.011Z</time></trkpt><trkpt lat="43.4936967" lon="10.3269483"><ele>18.25</ele><time>2026-04-04T13:23:29.011Z</time></trkpt><trkpt lat="43.493815" lon="10.3268867"><ele>18.5</ele><time>2026-04-04T13:23:30.012Z</time></trkpt><trkpt lat="43.4939283" lon="10.3268233"><ele>18.75</ele><time>2026-04-04T13:23:31.014Z</time></trkpt><trkpt lat="43.4940383" lon="10.3267633"><ele>19.0</ele><time>2026-04-04T13:23:32.012Z</time></trkpt><trkpt lat="43.4941467" lon="10.3267067"><ele>19.0</ele><time>2026-04-04T13:23:33.012Z</time></trkpt><trkpt lat="43.494255" lon="10.3266483"><ele>19.0</ele><time>2026-04-04T13:23:34.012Z</time></trkpt><trkpt lat="43.4943583" lon="10.326575"><ele>19.0</ele><time>2026-04-04T13:23:35.013Z</time></trkpt><trkpt lat="43.4944617" lon="10.3265"><ele>19.0</ele><time>2026-04-04T13:23:36.011Z</time></trkpt><trkpt lat="43.494565" lon="10.3264417"><ele>18.25</ele><time>2026-04-04T13:23:37.013Z</time></trkpt><trkpt lat="43.4946767" lon="10.326375"><ele>17.5</ele><time>2026-04-04T13:23:38.012Z</time></trkpt><trkpt lat="43.49479" lon="10.3263167"><ele>16.75</ele><time>2026-04-04T13:23:39.011Z</time></trkpt><trkpt lat="43.4949017" lon="10.3262383"><ele>16.0</ele><time>2026-04-04T13:23:40.012Z</time></trkpt><trkpt lat="43.49502" lon="10.3261683"><ele>16.0</ele><time>2026-04-04T13:23:41.013Z</time></trkpt><trkpt lat="43.4951417" lon="10.3260867"><ele>16.0</ele><time>2026-04-04T13:23:42.011Z</time></trkpt><trkpt lat="43.4952683" lon="10.326015"><ele>16.0</ele><time>2026-04-04T13:23:43.012Z</time></trkpt><trkpt lat="43.4953967" lon="10.3259383"><ele>16.0</ele><time>2026-04-04T13:23:44.012Z</time></trkpt><trkpt lat="43.4955333" lon="10.3258717"><ele>16.25</ele><time>2026-04-04T13:23:45.013Z</time></trkpt><trkpt lat="43.49567" lon="10.3258083"><ele>16.5</ele><time>2026-04-04T13:23:46.012Z</time></trkpt><trkpt lat="43.4958" lon="10.3257417"><ele>16.75</ele><time>2026-04-04T13:23:47.011Z</time></trkpt><trkpt lat="43.4959267" lon="10.3256683"><ele>17.0</ele><time>2026-04-04T13:23:48.011Z</time></trkpt><trkpt lat="43.4960517" lon="10.32559"><ele>16.75</ele><time>2026-04-04T13:23:49.011Z</time></trkpt><trkpt lat="43.4961783" lon="10.325515"><ele>16.5</ele><time>2026-04-04T13:23:50.013Z</time></trkpt><trkpt lat="43.4963" lon="10.3254433"><ele>16.25</ele><time>2026-04-04T13:23:51.012Z</time></trkpt><trkpt lat="43.4964183" lon="10.3253733"><ele>16.0</ele><time>2026-04-04T13:23:52.011Z</time></trkpt><trkpt lat="43.49654" lon="10.3253133"><ele>16.5</ele><time>2026-04-04T13:23:53.014Z</time></trkpt><trkpt lat="43.4966633" lon="10.3252533"><ele>17.0</ele><time>2026-04-04T13:23:54.011Z</time></trkpt><trkpt lat="43.4967817" lon="10.3251817"><ele>17.5</ele><time>2026-04-04T13:23:55.011Z</time></trkpt><trkpt lat="43.496905" lon="10.3251333"><ele>18.0</ele><time>2026-04-04T13:23:56.011Z</time></trkpt><trkpt lat="43.4970317" lon="10.325105"><ele>18.0</ele><time>2026-04-04T13:23:57.012Z</time></trkpt><trkpt lat="43.4971633" lon="10.3250967"><ele>18.0</ele><time>2026-04-04T13:23:58.012Z</time></trkpt><trkpt lat="43.497295" lon="10.3250917"><ele>18.0</ele><time>2026-04-04T13:23:59.011Z</time></trkpt><trkpt lat="43.497425" lon="10.3250933"><ele>18.0</ele><time>2026-04-04T13:24:00.011Z</time></trkpt><trkpt lat="43.49756" lon="10.32511"><ele>18.0</ele><time>2026-04-04T13:24:01.011Z</time></trkpt><trkpt lat="43.4977" lon="10.325125"><ele>18.0</ele><time>2026-04-04T13:24:02.012Z</time></trkpt><trkpt lat="43.4978333" lon="10.3251433"><ele>18.0</ele><time>2026-04-04T13:24:03.013Z</time></trkpt><trkpt lat="43.497965" lon="10.32516"><ele>18.0</ele><time>2026-04-04T13:24:04.012Z</time></trkpt><trkpt lat="43.4980967" lon="10.3251733"><ele>17.5</ele><time>2026-04-04T13:24:05.013Z</time></trkpt><trkpt lat="43.498225" lon="10.3251883"><ele>17.0</ele><time>2026-04-04T13:24:06.012Z</time></trkpt><trkpt lat="43.4983533" lon="10.3252033"><ele>16.5</ele><time>2026-04-04T13:24:07.011Z</time></trkpt><trkpt lat="43.4984933" lon="10.325215"><ele>16.0</ele><time>2026-04-04T13:24:08.011Z</time></trkpt><trkpt lat="43.498635" lon="10.3252433"><ele>15.25</ele><time>2026-04-04T13:24:09.013Z</time></trkpt><trkpt lat="43.4987783" lon="10.3252617"><ele>14.5</ele><time>2026-04-04T13:24:10.011Z</time></trkpt><trkpt lat="43.4989217" lon="10.325275"><ele>13.75</ele><time>2026-04-04T13:24:11.012Z</time></trkpt><trkpt lat="43.4990733" lon="10.32529"><ele>13.0</ele><time>2026-04-04T13:24:12.013Z</time></trkpt><trkpt lat="43.4992333" lon="10.3252983"><ele>13.0</ele><time>2026-04-04T13:24:13.012Z</time></trkpt><trkpt lat="43.4994017" lon="10.3253033"><ele>13.0</ele><time>2026-04-04T13:24:14.011Z</time></trkpt><trkpt lat="43.4995667" lon="10.32531"><ele>13.0</ele><time>2026-04-04T13:24:15.011Z</time></trkpt><trkpt lat="43.4997267" lon="10.3253183"><ele>14.0</ele><time>2026-04-04T13:24:16.012Z</time></trkpt><trkpt lat="43.4998783" lon="10.325335"><ele>15.0</ele><time>2026-04-04T13:24:17.011Z</time></trkpt><trkpt lat="43.50002" lon="10.325375"><ele>16.0</ele><time>2026-04-04T13:24:18.011Z</time></trkpt><trkpt lat="43.5001567" lon="10.325435"><ele>17.0</ele><time>2026-04-04T13:24:19.01Z</time></trkpt><trkpt lat="43.5002933" lon="10.3255183"><ele>17.666666666666668</ele><time>2026-04-04T13:24:20.012Z</time></trkpt><trkpt lat="43.5004283" lon="10.3256167"><ele>18.333333333333332</ele><time>2026-04-04T13:24:21.011Z</time></trkpt><trkpt lat="43.5005683" lon="10.32572"><ele>19.0</ele><time>2026-04-04T13:24:22.012Z</time></trkpt><trkpt lat="43.5007067" lon="10.3258267"><ele>19.0</ele><time>2026-04-04T13:24:23.012Z</time></trkpt><trkpt lat="43.50085" lon="10.3259333"><ele>19.0</ele><time>2026-04-04T13:24:24.013Z</time></trkpt><trkpt lat="43.5009917" lon="10.326045"><ele>19.0</ele><time>2026-04-04T13:24:25.013Z</time></trkpt><trkpt lat="43.50113" lon="10.3261633"><ele>19.0</ele><time>2026-04-04T13:24:26.013Z</time></trkpt><trkpt lat="43.5012617" lon="10.3262917"><ele>19.0</ele><time>2026-04-04T13:24:27.012Z</time></trkpt><trkpt lat="43.5013933" lon="10.326415"><ele>19.0</ele><time>2026-04-04T13:24:28.012Z</time></trkpt><trkpt lat="43.501525" lon="10.32653"><ele>19.0</ele><time>2026-04-04T13:24:29.011Z</time></trkpt><trkpt lat="43.5016567" lon="10.3266433"><ele>19.0</ele><time>2026-04-04T13:24:30.012Z</time></trkpt><trkpt lat="43.50179" lon="10.32675"><ele>19.0</ele><time>2026-04-04T13:24:31.011Z</time></trkpt><trkpt lat="43.5019233" lon="10.3268533"><ele>19.0</ele><time>2026-04-04T13:24:32.012Z</time></trkpt><trkpt lat="43.502055" lon="10.326955"><ele>19.0</ele><time>2026-04-04T13:24:33.012Z</time></trkpt><trkpt lat="43.502185" lon="10.3270567"><ele>19.0</ele><time>2026-04-04T13:24:34.011Z</time></trkpt><trkpt lat="43.5023117" lon="10.3271583"><ele>19.0</ele><time>2026-04-04T13:24:35.011Z</time></trkpt><trkpt lat="43.502435" lon="10.3272567"><ele>19.75</ele><time>2026-04-04T13:24:36.012Z</time></trkpt><trkpt lat="43.5025533" lon="10.3273533"><ele>20.5</ele><time>2026-04-04T13:24:37.011Z</time></trkpt><trkpt lat="43.50266" lon="10.3274483"><ele>21.25</ele><time>2026-04-04T13:24:38.012Z</time></trkpt><trkpt lat="43.5027533" lon="10.3275417"><ele>22.0</ele><time>2026-04-04T13:24:39.012Z</time></trkpt><trkpt lat="43.502835" lon="10.327625"><ele>22.0</ele><time>2026-04-04T13:24:40.014Z</time></trkpt><trkpt lat="43.5029067" lon="10.3276983"><ele>22.0</ele><time>2026-04-04T13:24:41.011Z</time></trkpt><trkpt lat="43.5029683" lon="10.3277667"><ele>22.0</ele><time>2026-04-04T13:24:42.011Z</time></trkpt><trkpt lat="43.5030383" lon="10.32782"><ele>22.0</ele><time>2026-04-04T13:24:43.011Z</time></trkpt><trkpt lat="43.5031183" lon="10.32785"><ele>22.0</ele><time>2026-04-04T13:24:44.012Z</time></trkpt><trkpt lat="43.5032017" lon="10.3278483"><ele>22.0</ele><time>2026-04-04T13:24:45.012Z</time></trkpt><trkpt lat="43.503285" lon="10.3278117"><ele>22.200000000000003</ele><time>2026-04-04T13:24:46.011Z</time></trkpt><trkpt lat="43.503375" lon="10.3277567"><ele>22.4</ele><time>2026-04-04T13:24:47.012Z</time></trkpt><trkpt lat="43.5034667" lon="10.3276883"><ele>22.6</ele><time>2026-04-04T13:24:48.012Z</time></trkpt><trkpt lat="43.50357" lon="10.3276317"><ele>22.799999999999997</ele><time>2026-04-04T13:24:49.011Z</time></trkpt><trkpt lat="43.503675" lon="10.3275783"><ele>23.0</ele><time>2026-04-04T13:24:50.011Z</time></trkpt><trkpt lat="43.5037817" lon="10.3275233"><ele>23.0</ele><time>2026-04-04T13:24:51.011Z</time></trkpt><trkpt lat="43.5038883" lon="10.3274683"><ele>23.0</ele><time>2026-04-04T13:24:52.01Z</time></trkpt><trkpt lat="43.5039983" lon="10.32741"><ele>23.0</ele><time>2026-04-04T13:24:53.012Z</time></trkpt><trkpt lat="43.504115" lon="10.32736"><ele>23.0</ele><time>2026-04-04T13:24:54.013Z</time></trkpt><trkpt lat="43.5042333" lon="10.32731"><ele>23.0</ele><time>2026-04-04T13:24:55.011Z</time></trkpt><trkpt lat="43.504355" lon="10.327265"><ele>23.0</ele><time>2026-04-04T13:24:56.012Z</time></trkpt><trkpt lat="43.50448" lon="10.3272333"><ele>23.0</ele><time>2026-04-04T13:24:57.012Z</time></trkpt><trkpt lat="43.504605" lon="10.327195"><ele>23.0</ele><time>2026-04-04T13:24:58.011Z</time></trkpt><trkpt lat="43.5047283" lon="10.3271583"><ele>22.5</ele><time>2026-04-04T13:24:59.011Z</time></trkpt><trkpt lat="43.5048517" lon="10.32712"><ele>22.0</ele><time>2026-04-04T13:25:00.01Z</time></trkpt><trkpt lat="43.5049767" lon="10.3270833"><ele>21.5</ele><time>2026-04-04T13:25:01.011Z</time></trkpt><trkpt lat="43.505105" lon="10.3270583"><ele>21.0</ele><time>2026-04-04T13:25:02.011Z</time></trkpt><trkpt lat="43.5052333" lon="10.32704"><ele>21.0</ele><time>2026-04-04T13:25:03.012Z</time></trkpt><trkpt lat="43.505365" lon="10.3270383"><ele>21.0</ele><time>2026-04-04T13:25:04.011Z</time></trkpt><trkpt lat="43.505495" lon="10.3270483"><ele>21.0</ele><time>2026-04-04T13:25:05.013Z</time></trkpt><trkpt lat="43.50563" lon="10.3270733"><ele>21.0</ele><time>2026-04-04T13:25:06.013Z</time></trkpt><trkpt lat="43.505765" lon="10.3270967"><ele>20.5</ele><time>2026-04-04T13:25:07.01Z</time></trkpt><trkpt lat="43.5058983" lon="10.3271133"><ele>20.0</ele><time>2026-04-04T13:25:08.011Z</time></trkpt><trkpt lat="43.50603" lon="10.3271317"><ele>19.5</ele><time>2026-04-04T13:25:09.011Z</time></trkpt><trkpt lat="43.506165" lon="10.3271517"><ele>19.0</ele><time>2026-04-04T13:25:10.012Z</time></trkpt><trkpt lat="43.5062933" lon="10.327175"><ele>18.5</ele><time>2026-04-04T13:25:11.011Z</time></trkpt><trkpt lat="43.506425" lon="10.3272"><ele>18.0</ele><time>2026-04-04T13:25:12.011Z</time></trkpt><trkpt lat="43.506555" lon="10.3272233"><ele>17.5</ele><time>2026-04-04T13:25:13.011Z</time></trkpt><trkpt lat="43.5066867" lon="10.3272383"><ele>17.0</ele><time>2026-04-04T13:25:14.011Z</time></trkpt><trkpt lat="43.5068167" lon="10.32726"><ele>17.0</ele><time>2026-04-04T13:25:15.011Z</time></trkpt><trkpt lat="43.5069417" lon="10.3272867"><ele>17.0</ele><time>2026-04-04T13:25:16.011Z</time></trkpt><trkpt lat="43.5070667" lon="10.32731"><ele>17.0</ele><time>2026-04-04T13:25:17.011Z</time></trkpt><trkpt lat="43.5071933" lon="10.3273317"><ele>17.0</ele><time>2026-04-04T13:25:18.012Z</time></trkpt><trkpt lat="43.50732" lon="10.32735"><ele>17.25</ele><time>2026-04-04T13:25:19.013Z</time></trkpt><trkpt lat="43.5074467" lon="10.3273783"><ele>17.5</ele><time>2026-04-04T13:25:20.011Z</time></trkpt><trkpt lat="43.5075733" lon="10.3273983"><ele>17.75</ele><time>2026-04-04T13:25:21.014Z</time></trkpt><trkpt lat="43.5076983" lon="10.3274167"><ele>18.0</ele><time>2026-04-04T13:25:22.011Z</time></trkpt><trkpt lat="43.5078217" lon="10.3274283"><ele>18.0</ele><time>2026-04-04T13:25:23.013Z</time></trkpt><trkpt lat="43.5079417" lon="10.327435"><ele>18.0</ele><time>2026-04-04T13:25:24.011Z</time></trkpt><trkpt lat="43.5080567" lon="10.32743"><ele>18.0</ele><time>2026-04-04T13:25:25.011Z</time></trkpt><trkpt lat="43.5081717" lon="10.327415"><ele>18.0</ele><time>2026-04-04T13:25:26.011Z</time></trkpt><trkpt lat="43.508285" lon="10.3274"><ele>18.0</ele><time>2026-04-04T13:25:27.011Z</time></trkpt><trkpt lat="43.5083983" lon="10.3273817"><ele>18.0</ele><time>2026-04-04T13:25:28.012Z</time></trkpt><trkpt lat="43.5085133" lon="10.3273617"><ele>18.0</ele><time>2026-04-04T13:25:29.013Z</time></trkpt><trkpt lat="43.5086283" lon="10.3273383"><ele>18.0</ele><time>2026-04-04T13:25:30.012Z</time></trkpt><trkpt lat="43.508745" lon="10.3273267"><ele>17.5</ele><time>2026-04-04T13:25:31.011Z</time></trkpt><trkpt lat="43.50886" lon="10.3273083"><ele>17.0</ele><time>2026-04-04T13:25:32.012Z</time></trkpt><trkpt lat="43.508975" lon="10.3272883"><ele>16.5</ele><time>2026-04-04T13:25:33.012Z</time></trkpt><trkpt lat="43.5090933" lon="10.327265"><ele>16.0</ele><time>2026-04-04T13:25:34.011Z</time></trkpt><trkpt lat="43.5092133" lon="10.3272417"><ele>15.5</ele><time>2026-04-04T13:25:35.01Z</time></trkpt><trkpt lat="43.509335" lon="10.3272217"><ele>15.0</ele><time>2026-04-04T13:25:36.011Z</time></trkpt><trkpt lat="43.5094567" lon="10.3272017"><ele>14.5</ele><time>2026-04-04T13:25:37.011Z</time></trkpt><trkpt lat="43.50958" lon="10.3271783"><ele>14.0</ele><time>2026-04-04T13:25:38.012Z</time></trkpt><trkpt lat="43.5097033" lon="10.3271517"><ele>13.5</ele><time>2026-04-04T13:25:39.012Z</time></trkpt><trkpt lat="43.5098283" lon="10.327125"><ele>13.0</ele><time>2026-04-04T13:25:40.012Z</time></trkpt><trkpt lat="43.509955" lon="10.3271017"><ele>12.5</ele><time>2026-04-04T13:25:41.011Z</time></trkpt><trkpt lat="43.5100833" lon="10.3270833"><ele>12.0</ele><time>2026-04-04T13:25:42.012Z</time></trkpt><trkpt lat="43.5102133" lon="10.3270633"><ele>12.0</ele><time>2026-04-04T13:25:43.013Z</time></trkpt><trkpt lat="43.510345" lon="10.3270417"><ele>12.0</ele><time>2026-04-04T13:25:44.014Z</time></trkpt><trkpt lat="43.510475" lon="10.3270183"><ele>12.0</ele><time>2026-04-04T13:25:45.012Z</time></trkpt><trkpt lat="43.5106017" lon="10.3269917"><ele>12.0</ele><time>2026-04-04T13:25:46.014Z</time></trkpt><trkpt lat="43.5107333" lon="10.3269633"><ele>12.0</ele><time>2026-04-04T13:25:47.012Z</time></trkpt><trkpt lat="43.5108633" lon="10.3269333"><ele>12.0</ele><time>2026-04-04T13:25:48.011Z</time></trkpt><trkpt lat="43.510995" lon="10.3269133"><ele>12.0</ele><time>2026-04-04T13:25:49.012Z</time></trkpt><trkpt lat="43.5111267" lon="10.326895"><ele>12.0</ele><time>2026-04-04T13:25:50.012Z</time></trkpt><trkpt lat="43.5112567" lon="10.326875"><ele>12.0</ele><time>2026-04-04T13:25:51.012Z</time></trkpt><trkpt lat="43.5113817" lon="10.326855"><ele>12.0</ele><time>2026-04-04T13:25:52.012Z</time></trkpt><trkpt lat="43.5115" lon="10.32683"><ele>12.0</ele><time>2026-04-04T13:25:53.012Z</time></trkpt><trkpt lat="43.51161" lon="10.3268"><ele>12.0</ele><time>2026-04-04T13:25:54.011Z</time></trkpt><trkpt lat="43.51171" lon="10.326775"><ele>12.0</ele><time>2026-04-04T13:25:55.011Z</time></trkpt><trkpt lat="43.51181" lon="10.3267683"><ele>12.0</ele><time>2026-04-04T13:25:56.012Z</time></trkpt><trkpt lat="43.51191" lon="10.3267767"><ele>12.0</ele><time>2026-04-04T13:25:57.014Z</time></trkpt><trkpt lat="43.5120083" lon="10.326825"><ele>12.0</ele><time>2026-04-04T13:25:58.013Z</time></trkpt><trkpt lat="43.5120983" lon="10.3268983"><ele>12.0</ele><time>2026-04-04T13:25:59.012Z</time></trkpt><trkpt lat="43.5121783" lon="10.32698"><ele>11.666666666666666</ele><time>2026-04-04T13:26:00.012Z</time></trkpt><trkpt lat="43.5122483" lon="10.327055"><ele>11.333333333333334</ele><time>2026-04-04T13:26:01.011Z</time></trkpt><trkpt lat="43.5123133" lon="10.3271267"><ele>11.0</ele><time>2026-04-04T13:26:02.011Z</time></trkpt><trkpt lat="43.51236" lon="10.3271917"><ele>10.666666666666668</ele><time>2026-04-04T13:26:03.012Z</time></trkpt><trkpt lat="43.5124567" lon="10.3272667"><ele>10.333333333333334</ele><time>2026-04-04T13:26:05.011Z</time></trkpt><trkpt lat="43.5125233" lon="10.3272683"><ele>10.0</ele><time>2026-04-04T13:26:06.011Z</time></trkpt><trkpt lat="43.5125983" lon="10.32719"><ele>10.0</ele><time>2026-04-04T13:26:07.011Z</time></trkpt><trkpt lat="43.5126783" lon="10.3271267"><ele>10.0</ele><time>2026-04-04T13:26:08.012Z</time></trkpt><trkpt lat="43.51277" lon="10.327035"><ele>10.0</ele><time>2026-04-04T13:26:09.014Z</time></trkpt><trkpt lat="43.5128683" lon="10.3269433"><ele>10.0</ele><time>2026-04-04T13:26:10.011Z</time></trkpt><trkpt lat="43.512965" lon="10.3268483"><ele>10.0</ele><time>2026-04-04T13:26:11.011Z</time></trkpt><trkpt lat="43.5130617" lon="10.3267583"><ele>9.4</ele><time>2026-04-04T13:26:12.013Z</time></trkpt><trkpt lat="43.5131533" lon="10.32667"><ele>8.8</ele><time>2026-04-04T13:26:13.011Z</time></trkpt><trkpt lat="43.513245" lon="10.3265983"><ele>8.2</ele><time>2026-04-04T13:26:14.012Z</time></trkpt><trkpt lat="43.5133417" lon="10.3265667"><ele>7.6</ele><time>2026-04-04T13:26:15.012Z</time></trkpt><trkpt lat="43.5134483" lon="10.3265667"><ele>7.0</ele><time>2026-04-04T13:26:16.012Z</time></trkpt><trkpt lat="43.51356" lon="10.3265967"><ele>7.0</ele><time>2026-04-04T13:26:17.014Z</time></trkpt><trkpt lat="43.5136817" lon="10.326635"><ele>7.0</ele><time>2026-04-04T13:26:18.013Z</time></trkpt><trkpt lat="43.5138017" lon="10.3266783"><ele>7.0</ele><time>2026-04-04T13:26:19.012Z</time></trkpt><trkpt lat="43.5139133" lon="10.3267267"><ele>7.0</ele><time>2026-04-04T13:26:20.014Z</time></trkpt><trkpt lat="43.5140233" lon="10.32678"><ele>7.0</ele><time>2026-04-04T13:26:21.011Z</time></trkpt><trkpt lat="43.514135" lon="10.3268367"><ele>7.0</ele><time>2026-04-04T13:26:22.011Z</time></trkpt><trkpt lat="43.5142467" lon="10.3268983"><ele>7.0</ele><time>2026-04-04T13:26:23.011Z</time></trkpt><trkpt lat="43.51436" lon="10.3269583"><ele>7.0</ele><time>2026-04-04T13:26:24.012Z</time></trkpt><trkpt lat="43.5144767" lon="10.3270217"><ele>7.5</ele><time>2026-04-04T13:26:25.013Z</time></trkpt><trkpt lat="43.5146067" lon="10.3270883"><ele>8.0</ele><time>2026-04-04T13:26:26.012Z</time></trkpt><trkpt lat="43.5147417" lon="10.3271633"><ele>8.5</ele><time>2026-04-04T13:26:27.012Z</time></trkpt><trkpt lat="43.51488" lon="10.3272483"><ele>9.0</ele><time>2026-04-04T13:26:28.011Z</time></trkpt><trkpt lat="43.51502" lon="10.32735"><ele>9.0</ele><time>2026-04-04T13:26:29.012Z</time></trkpt><trkpt lat="43.5151583" lon="10.3274617"><ele>9.0</ele><time>2026-04-04T13:26:30.011Z</time></trkpt><trkpt lat="43.5153" lon="10.327585"><ele>9.0</ele><time>2026-04-04T13:26:31.011Z</time></trkpt><trkpt lat="43.5154383" lon="10.3277083"><ele>9.0</ele><time>2026-04-04T13:26:32.011Z</time></trkpt><trkpt lat="43.515575" lon="10.3278233"><ele>9.0</ele><time>2026-04-04T13:26:33.011Z</time></trkpt><trkpt lat="43.5157083" lon="10.3279383"><ele>9.0</ele><time>2026-04-04T13:26:34.012Z</time></trkpt><trkpt lat="43.5158367" lon="10.3280583"><ele>8.333333333333334</ele><time>2026-04-04T13:26:35.012Z</time></trkpt><trkpt lat="43.51596" lon="10.3281883"><ele>7.666666666666667</ele><time>2026-04-04T13:26:36.012Z</time></trkpt><trkpt lat="43.5160783" lon="10.328325"><ele>7.0</ele><time>2026-04-04T13:26:37.011Z</time></trkpt><trkpt lat="43.51618" lon="10.3284717"><ele>8.25</ele><time>2026-04-04T13:26:38.012Z</time></trkpt><trkpt lat="43.5162617" lon="10.3286367"><ele>9.5</ele><time>2026-04-04T13:26:39.012Z</time></trkpt><trkpt lat="43.5163367" lon="10.328805"><ele>10.75</ele><time>2026-04-04T13:26:40.011Z</time></trkpt><trkpt lat="43.51639" lon="10.3289783"><ele>12.0</ele><time>2026-04-04T13:26:41.011Z</time></trkpt><trkpt lat="43.5164383" lon="10.32915"><ele>12.5</ele><time>2026-04-04T13:26:42.012Z</time></trkpt><trkpt lat="43.5164867" lon="10.329335"><ele>13.0</ele><time>2026-04-04T13:26:43.012Z</time></trkpt><trkpt lat="43.5165267" lon="10.3295267"><ele>13.5</ele><time>2026-04-04T13:26:44.01Z</time></trkpt><trkpt lat="43.51657" lon="10.3297217"><ele>14.0</ele><time>2026-04-04T13:26:45.01Z</time></trkpt><trkpt lat="43.5166133" lon="10.3299133"><ele>14.333333333333334</ele><time>2026-04-04T13:26:46.01Z</time></trkpt><trkpt lat="43.5166667" lon="10.3301067"><ele>14.666666666666668</ele><time>2026-04-04T13:26:47.012Z</time></trkpt><trkpt lat="43.516725" lon="10.3303"><ele>15.0</ele><time>2026-04-04T13:26:48.011Z</time></trkpt><trkpt lat="43.51679" lon="10.3304867"><ele>14.75</ele><time>2026-04-04T13:26:49.012Z</time></trkpt><trkpt lat="43.51684" lon="10.3306533"><ele>14.5</ele><time>2026-04-04T13:26:50.012Z</time></trkpt><trkpt lat="43.5168817" lon="10.3308133"><ele>14.25</ele><time>2026-04-04T13:26:51.012Z</time></trkpt><trkpt lat="43.5169217" lon="10.33096"><ele>14.0</ele><time>2026-04-04T13:26:52.012Z</time></trkpt><trkpt lat="43.5169667" lon="10.3311083"><ele>14.0</ele><time>2026-04-04T13:26:53.013Z</time></trkpt><trkpt lat="43.5170233" lon="10.3312733"><ele>14.0</ele><time>2026-04-04T13:26:54.011Z</time></trkpt><trkpt lat="43.5170717" lon="10.3314517"><ele>14.0</ele><time>2026-04-04T13:26:55.012Z</time></trkpt><trkpt lat="43.517125" lon="10.3316483"><ele>14.0</ele><time>2026-04-04T13:26:56.011Z</time></trkpt><trkpt lat="43.51718" lon="10.3318517"><ele>15.0</ele><time>2026-04-04T13:26:57.012Z</time></trkpt><trkpt lat="43.5172333" lon="10.33206"><ele>16.0</ele><time>2026-04-04T13:26:58.012Z</time></trkpt><trkpt lat="43.51729" lon="10.3322733"><ele>17.0</ele><time>2026-04-04T13:26:59.011Z</time></trkpt><trkpt lat="43.5173417" lon="10.3324833"><ele>17.333333333333336</ele><time>2026-04-04T13:27:00.011Z</time></trkpt><trkpt lat="43.5173967" lon="10.3326883"><ele>17.666666666666668</ele><time>2026-04-04T13:27:01.012Z</time></trkpt><trkpt lat="43.5174533" lon="10.3328867"><ele>18.0</ele><time>2026-04-04T13:27:02.011Z</time></trkpt><trkpt lat="43.5175033" lon="10.333085"><ele>17.5</ele><time>2026-04-04T13:27:03.012Z</time></trkpt><trkpt lat="43.5175517" lon="10.33327"><ele>17.0</ele><time>2026-04-04T13:27:04.012Z</time></trkpt><trkpt lat="43.5176017" lon="10.333445"><ele>16.5</ele><time>2026-04-04T13:27:05.014Z</time></trkpt><trkpt lat="43.5176517" lon="10.3336067"><ele>16.0</ele><time>2026-04-04T13:27:06.013Z</time></trkpt><trkpt lat="43.51771" lon="10.3337633"><ele>16.5</ele><time>2026-04-04T13:27:07.011Z</time></trkpt><trkpt lat="43.5177683" lon="10.3339217"><ele>17.0</ele><time>2026-04-04T13:27:08.012Z</time></trkpt><trkpt lat="43.5178233" lon="10.3340733"><ele>17.5</ele><time>2026-04-04T13:27:09.012Z</time></trkpt><trkpt lat="43.517875" lon="10.3342167"><ele>18.0</ele><time>2026-04-04T13:27:10.012Z</time></trkpt><trkpt lat="43.5179317" lon="10.3343483"><ele>18.0</ele><time>2026-04-04T13:27:11.013Z</time></trkpt><trkpt lat="43.5179817" lon="10.334475"><ele>18.0</ele><time>2026-04-04T13:27:12.013Z</time></trkpt><trkpt lat="43.5180333" lon="10.3346083"><ele>18.0</ele><time>2026-04-04T13:27:13.015Z</time></trkpt><trkpt lat="43.51809" lon="10.33475"><ele>18.0</ele><time>2026-04-04T13:27:14.012Z</time></trkpt><trkpt lat="43.5181467" lon="10.3349"><ele>17.75</ele><time>2026-04-04T13:27:15.011Z</time></trkpt><trkpt lat="43.5182067" lon="10.33505"><ele>17.5</ele><time>2026-04-04T13:27:16.011Z</time></trkpt><trkpt lat="43.518265" lon="10.335205"><ele>17.25</ele><time>2026-04-04T13:27:17.015Z</time></trkpt><trkpt lat="43.5183217" lon="10.3353617"><ele>17.0</ele><time>2026-04-04T13:27:18.011Z</time></trkpt><trkpt lat="43.518385" lon="10.3355183"><ele>16.25</ele><time>2026-04-04T13:27:19.012Z</time></trkpt><trkpt lat="43.5184483" lon="10.335675"><ele>15.5</ele><time>2026-04-04T13:27:20.011Z</time></trkpt><trkpt lat="43.5185133" lon="10.3358317"><ele>14.75</ele><time>2026-04-04T13:27:21.012Z</time></trkpt><trkpt lat="43.5185833" lon="10.3359867"><ele>14.0</ele><time>2026-04-04T13:27:22.013Z</time></trkpt><trkpt lat="43.5186483" lon="10.3361433"><ele>14.0</ele><time>2026-04-04T13:27:23.013Z</time></trkpt><trkpt lat="43.5187" lon="10.336295"><ele>14.0</ele><time>2026-04-04T13:27:24.011Z</time></trkpt><trkpt lat="43.5187533" lon="10.3364417"><ele>14.0</ele><time>2026-04-04T13:27:25.012Z</time></trkpt><trkpt lat="43.51881" lon="10.3365817"><ele>14.0</ele><time>2026-04-04T13:27:26.012Z</time></trkpt><trkpt lat="43.518865" lon="10.3367183"><ele>14.399999999999999</ele><time>2026-04-04T13:27:27.012Z</time></trkpt><trkpt lat="43.5189133" lon="10.3368417"><ele>14.799999999999999</ele><time>2026-04-04T13:27:28.011Z</time></trkpt><trkpt lat="43.5189617" lon="10.3369567"><ele>15.200000000000001</ele><time>2026-04-04T13:27:29.012Z</time></trkpt><trkpt lat="43.5190033" lon="10.3370633"><ele>15.600000000000001</ele><time>2026-04-04T13:27:30.012Z</time></trkpt><trkpt lat="43.51904" lon="10.3371667"><ele>16.0</ele><time>2026-04-04T13:27:31.012Z</time></trkpt><trkpt lat="43.5190783" lon="10.3372667"><ele>15.999999999999998</ele><time>2026-04-04T13:27:32.012Z</time></trkpt><trkpt lat="43.5191167" lon="10.3373633"><ele>16.0</ele><time>2026-04-04T13:27:33.011Z</time></trkpt><trkpt lat="43.519155" lon="10.3374617"><ele>16.0</ele><time>2026-04-04T13:27:34.012Z</time></trkpt><trkpt lat="43.5191867" lon="10.337555"><ele>16.0</ele><time>2026-04-04T13:27:35.013Z</time></trkpt><trkpt lat="43.5192217" lon="10.3376867"><ele>15.999999999999998</ele><time>2026-04-04T13:27:37.012Z</time></trkpt><trkpt lat="43.5192183" lon="10.3378083"><ele>16.0</ele><time>2026-04-04T13:27:39.012Z</time></trkpt><trkpt lat="43.5191967" lon="10.337895"><ele>16.0</ele><time>2026-04-04T13:27:40.013Z</time></trkpt><trkpt lat="43.5191683" lon="10.338"><ele>16.0</ele><time>2026-04-04T13:27:41.011Z</time></trkpt><trkpt lat="43.519135" lon="10.338115"><ele>16.0</ele><time>2026-04-04T13:27:42.011Z</time></trkpt><trkpt lat="43.5190983" lon="10.33824"><ele>16.0</ele><time>2026-04-04T13:27:43.012Z</time></trkpt><trkpt lat="43.5190717" lon="10.3383683"><ele>16.0</ele><time>2026-04-04T13:27:44.011Z</time></trkpt><trkpt lat="43.5190317" lon="10.33849"><ele>16.400000000000002</ele><time>2026-04-04T13:27:45.012Z</time></trkpt><trkpt lat="43.51899" lon="10.3386033"><ele>16.8</ele><time>2026-04-04T13:27:46.012Z</time></trkpt><trkpt lat="43.5189583" lon="10.338725"><ele>17.200000000000003</ele><time>2026-04-04T13:27:47.011Z</time></trkpt><trkpt lat="43.5189233" lon="10.3388433"><ele>17.6</ele><time>2026-04-04T13:27:48.013Z</time></trkpt><trkpt lat="43.518885" lon="10.33897"><ele>18.0</ele><time>2026-04-04T13:27:49.013Z</time></trkpt><trkpt lat="43.518845" lon="10.3391117"><ele>18.25</ele><time>2026-04-04T13:27:50.013Z</time></trkpt><trkpt lat="43.5188017" lon="10.3392633"><ele>18.5</ele><time>2026-04-04T13:27:51.013Z</time></trkpt><trkpt lat="43.518755" lon="10.3394183"><ele>18.75</ele><time>2026-04-04T13:27:52.012Z</time></trkpt><trkpt lat="43.5187083" lon="10.339575"><ele>19.0</ele><time>2026-04-04T13:27:53.011Z</time></trkpt><trkpt lat="43.5186617" lon="10.3397367"><ele>17.25</ele><time>2026-04-04T13:27:54.012Z</time></trkpt><trkpt lat="43.5186083" lon="10.339905"><ele>15.5</ele><time>2026-04-04T13:27:55.012Z</time></trkpt><trkpt lat="43.518555" lon="10.3400767"><ele>13.75</ele><time>2026-04-04T13:27:56.013Z</time></trkpt><trkpt lat="43.5185033" lon="10.3402517"><ele>12.0</ele><time>2026-04-04T13:27:57.013Z</time></trkpt><trkpt lat="43.5184483" lon="10.340425"><ele>13.0</ele><time>2026-04-04T13:27:58.012Z</time></trkpt><trkpt lat="43.518395" lon="10.3406"><ele>14.0</ele><time>2026-04-04T13:27:59.013Z</time></trkpt><trkpt lat="43.5183417" lon="10.3407717"><ele>15.0</ele><time>2026-04-04T13:28:00.012Z</time></trkpt><trkpt lat="43.5183" lon="10.34095"><ele>16.0</ele><time>2026-04-04T13:28:01.012Z</time></trkpt><trkpt lat="43.5182633" lon="10.3411217"><ele>16.0</ele><time>2026-04-04T13:28:02.011Z</time></trkpt><trkpt lat="43.5182167" lon="10.3412833"><ele>16.0</ele><time>2026-04-04T13:28:03.011Z</time></trkpt><trkpt lat="43.518175" lon="10.3414333"><ele>16.0</ele><time>2026-04-04T13:28:04.01Z</time></trkpt><trkpt lat="43.518135" lon="10.3415783"><ele>16.0</ele><time>2026-04-04T13:28:05.011Z</time></trkpt><trkpt lat="43.5181" lon="10.3417283"><ele>16.25</ele><time>2026-04-04T13:28:06.013Z</time></trkpt><trkpt lat="43.5180633" lon="10.3418867"><ele>16.5</ele><time>2026-04-04T13:28:07.011Z</time></trkpt><trkpt lat="43.5180167" lon="10.3420567"><ele>16.75</ele><time>2026-04-04T13:28:08.011Z</time></trkpt><trkpt lat="43.5179783" lon="10.3422383"><ele>17.0</ele><time>2026-04-04T13:28:09.011Z</time></trkpt><trkpt lat="43.5179333" lon="10.342425"><ele>17.0</ele><time>2026-04-04T13:28:10.011Z</time></trkpt><trkpt lat="43.5178917" lon="10.3426167"><ele>17.0</ele><time>2026-04-04T13:28:11.01Z</time></trkpt><trkpt lat="43.5178583" lon="10.3428067"><ele>17.0</ele><time>2026-04-04T13:28:12.01Z</time></trkpt><trkpt lat="43.5178433" lon="10.3430067"><ele>17.0</ele><time>2026-04-04T13:28:13.009Z</time></trkpt><trkpt lat="43.5178417" lon="10.3432133"><ele>17.0</ele><time>2026-04-04T13:28:14.011Z</time></trkpt><trkpt lat="43.5178467" lon="10.34343"><ele>17.0</ele><time>2026-04-04T13:28:15.01Z</time></trkpt><trkpt lat="43.51786" lon="10.3436483"><ele>17.0</ele><time>2026-04-04T13:28:16.011Z</time></trkpt><trkpt lat="43.5178733" lon="10.3438683"><ele>16.666666666666668</ele><time>2026-04-04T13:28:17.01Z</time></trkpt><trkpt lat="43.517885" lon="10.3440883"><ele>16.333333333333332</ele><time>2026-04-04T13:28:18.01Z</time></trkpt><trkpt lat="43.5178983" lon="10.3443067"><ele>16.0</ele><time>2026-04-04T13:28:19.011Z</time></trkpt><trkpt lat="43.5179083" lon="10.3445233"><ele>18.0</ele><time>2026-04-04T13:28:20.011Z</time></trkpt><trkpt lat="43.5179217" lon="10.34474"><ele>20.0</ele><time>2026-04-04T13:28:21.01Z</time></trkpt><trkpt lat="43.517935" lon="10.34495"><ele>22.0</ele><time>2026-04-04T13:28:22.011Z</time></trkpt><trkpt lat="43.517945" lon="10.345155"><ele>22.0</ele><time>2026-04-04T13:28:23.011Z</time></trkpt><trkpt lat="43.517955" lon="10.3453517"><ele>22.0</ele><time>2026-04-04T13:28:24.012Z</time></trkpt><trkpt lat="43.5179683" lon="10.3455517"><ele>22.0</ele><time>2026-04-04T13:28:25.011Z</time></trkpt><trkpt lat="43.5179767" lon="10.3457517"><ele>22.0</ele><time>2026-04-04T13:28:26.012Z</time></trkpt><trkpt lat="43.5179867" lon="10.345945"><ele>22.0</ele><time>2026-04-04T13:28:27.012Z</time></trkpt><trkpt lat="43.5180083" lon="10.3461383"><ele>22.0</ele><time>2026-04-04T13:28:28.011Z</time></trkpt><trkpt lat="43.51804" lon="10.3463267"><ele>22.0</ele><time>2026-04-04T13:28:29.011Z</time></trkpt><trkpt lat="43.5180917" lon="10.34652"><ele>22.0</ele><time>2026-04-04T13:28:30.011Z</time></trkpt><trkpt lat="43.5181633" lon="10.3467183"><ele>22.0</ele><time>2026-04-04T13:28:31.011Z</time></trkpt><trkpt lat="43.5182383" lon="10.34693"><ele>22.0</ele><time>2026-04-04T13:28:32.012Z</time></trkpt><trkpt lat="43.5183083" lon="10.347145"><ele>22.0</ele><time>2026-04-04T13:28:33.01Z</time></trkpt><trkpt lat="43.5183817" lon="10.347355"><ele>21.0</ele><time>2026-04-04T13:28:34.01Z</time></trkpt><trkpt lat="43.5184467" lon="10.3475667"><ele>20.0</ele><time>2026-04-04T13:28:35.011Z</time></trkpt><trkpt lat="43.518505" lon="10.3477783"><ele>19.0</ele><time>2026-04-04T13:28:36.011Z</time></trkpt><trkpt lat="43.5185317" lon="10.3479983"><ele>19.0</ele><time>2026-04-04T13:28:37.011Z</time></trkpt><trkpt lat="43.518525" lon="10.3482383"><ele>19.0</ele><time>2026-04-04T13:28:38.01Z</time></trkpt><trkpt lat="43.5184917" lon="10.3484817"><ele>19.0</ele><time>2026-04-04T13:28:39.011Z</time></trkpt><trkpt lat="43.5184367" lon="10.3487267"><ele>18.0</ele><time>2026-04-04T13:28:40.01Z</time></trkpt><trkpt lat="43.5183667" lon="10.3489717"><ele>17.0</ele><time>2026-04-04T13:28:41.01Z</time></trkpt><trkpt lat="43.518295" lon="10.349225"><ele>16.0</ele><time>2026-04-04T13:28:42.01Z</time></trkpt><trkpt lat="43.518225" lon="10.3494783"><ele>17.0</ele><time>2026-04-04T13:28:43.01Z</time></trkpt><trkpt lat="43.5181533" lon="10.3497283"><ele>18.0</ele><time>2026-04-04T13:28:44.011Z</time></trkpt><trkpt lat="43.51808" lon="10.349975"><ele>19.0</ele><time>2026-04-04T13:28:45.011Z</time></trkpt><trkpt lat="43.5180117" lon="10.35021"><ele>19.0</ele><time>2026-04-04T13:28:46.009Z</time></trkpt><trkpt lat="43.517945" lon="10.3504367"><ele>19.0</ele><time>2026-04-04T13:28:47.01Z</time></trkpt><trkpt lat="43.51788" lon="10.3506633"><ele>19.0</ele><time>2026-04-04T13:28:48.011Z</time></trkpt><trkpt lat="43.5178167" lon="10.3508883"><ele>19.0</ele><time>2026-04-04T13:28:49.012Z</time></trkpt><trkpt lat="43.5177567" lon="10.3511117"><ele>19.0</ele><time>2026-04-04T13:28:50.013Z</time></trkpt><trkpt lat="43.5177" lon="10.3513333"><ele>19.0</ele><time>2026-04-04T13:28:51.012Z</time></trkpt><trkpt lat="43.5176367" lon="10.35155"><ele>20.333333333333332</ele><time>2026-04-04T13:28:52.012Z</time></trkpt><trkpt lat="43.5175733" lon="10.3517683"><ele>21.666666666666668</ele><time>2026-04-04T13:28:53.012Z</time></trkpt><trkpt lat="43.5175133" lon="10.3519983"><ele>23.0</ele><time>2026-04-04T13:28:54.012Z</time></trkpt><trkpt lat="43.5174567" lon="10.3522367"><ele>23.333333333333336</ele><time>2026-04-04T13:28:55.012Z</time></trkpt><trkpt lat="43.5174083" lon="10.3524833"><ele>23.666666666666668</ele><time>2026-04-04T13:28:56.012Z</time></trkpt><trkpt lat="43.517365" lon="10.35274"><ele>24.0</ele><time>2026-04-04T13:28:57.013Z</time></trkpt><trkpt lat="43.51732" lon="10.35299"><ele>23.0</ele><time>2026-04-04T13:28:58.011Z</time></trkpt><trkpt lat="43.5172833" lon="10.3532433"><ele>22.0</ele><time>2026-04-04T13:28:59.014Z</time></trkpt><trkpt lat="43.51724" lon="10.3535017"><ele>21.0</ele><time>2026-04-04T13:29:00.012Z</time></trkpt><trkpt lat="43.5172017" lon="10.353765"><ele>22.0</ele><time>2026-04-04T13:29:01.011Z</time></trkpt><trkpt lat="43.5171617" lon="10.3540283"><ele>23.0</ele><time>2026-04-04T13:29:02.011Z</time></trkpt><trkpt lat="43.5171217" lon="10.3542933"><ele>24.0</ele><time>2026-04-04T13:29:03.011Z</time></trkpt><trkpt lat="43.5170817" lon="10.354555"><ele>23.666666666666668</ele><time>2026-04-04T13:29:04.01Z</time></trkpt><trkpt lat="43.5170417" lon="10.3548167"><ele>23.333333333333336</ele><time>2026-04-04T13:29:05.009Z</time></trkpt><trkpt lat="43.517" lon="10.3550733"><ele>23.0</ele><time>2026-04-04T13:29:06.013Z</time></trkpt><trkpt lat="43.5169583" lon="10.3553267"><ele>24.333333333333336</ele><time>2026-04-04T13:29:07.013Z</time></trkpt><trkpt lat="43.5169167" lon="10.35557"><ele>25.666666666666668</ele><time>2026-04-04T13:29:08.012Z</time></trkpt><trkpt lat="43.5168817" lon="10.3558083"><ele>27.0</ele><time>2026-04-04T13:29:09.011Z</time></trkpt><trkpt lat="43.5168483" lon="10.3560317"><ele>27.0</ele><time>2026-04-04T13:29:10.012Z</time></trkpt><trkpt lat="43.5168183" lon="10.3562417"><ele>27.0</ele><time>2026-04-04T13:29:11.012Z</time></trkpt><trkpt lat="43.51679" lon="10.3564483"><ele>27.0</ele><time>2026-04-04T13:29:12.011Z</time></trkpt><trkpt lat="43.5167567" lon="10.3566517"><ele>27.333333333333336</ele><time>2026-04-04T13:29:13.01Z</time></trkpt><trkpt lat="43.5167133" lon="10.3568517"><ele>27.666666666666668</ele><time>2026-04-04T13:29:14.011Z</time></trkpt><trkpt lat="43.5166667" lon="10.3570483"><ele>28.0</ele><time>2026-04-04T13:29:15.012Z</time></trkpt><trkpt lat="43.516615" lon="10.3572467"><ele>28.333333333333336</ele><time>2026-04-04T13:29:16.011Z</time></trkpt><trkpt lat="43.51657" lon="10.357455"><ele>28.666666666666664</ele><time>2026-04-04T13:29:17.01Z</time></trkpt><trkpt lat="43.5165367" lon="10.357675"><ele>29.0</ele><time>2026-04-04T13:29:18.011Z</time></trkpt><trkpt lat="43.5165217" lon="10.3579117"><ele>30.0</ele><time>2026-04-04T13:29:19.011Z</time></trkpt><trkpt lat="43.516515" lon="10.3581583"><ele>31.0</ele><time>2026-04-04T13:29:20.011Z</time></trkpt><trkpt lat="43.5165117" lon="10.358425"><ele>32.0</ele><time>2026-04-04T13:29:21.012Z</time></trkpt><trkpt lat="43.51651" lon="10.3587033"><ele>32.0</ele><time>2026-04-04T13:29:22.01Z</time></trkpt><trkpt lat="43.516505" lon="10.35899"><ele>32.0</ele><time>2026-04-04T13:29:23.01Z</time></trkpt><trkpt lat="43.5164933" lon="10.3592867"><ele>32.0</ele><time>2026-04-04T13:29:24.01Z</time></trkpt><trkpt lat="43.5164833" lon="10.3595917"><ele>32.33333333333333</ele><time>2026-04-04T13:29:25.01Z</time></trkpt><trkpt lat="43.5164717" lon="10.3598883"><ele>32.666666666666664</ele><time>2026-04-04T13:29:26.011Z</time></trkpt><trkpt lat="43.5164667" lon="10.360165"><ele>33.0</ele><time>2026-04-04T13:29:27.011Z</time></trkpt><trkpt lat="43.5164617" lon="10.3604317"><ele>34.0</ele><time>2026-04-04T13:29:28.011Z</time></trkpt><trkpt lat="43.5164533" lon="10.3606883"><ele>35.0</ele><time>2026-04-04T13:29:29.011Z</time></trkpt><trkpt lat="43.516445" lon="10.3609367"><ele>36.0</ele><time>2026-04-04T13:29:30.011Z</time></trkpt><trkpt lat="43.51643" lon="10.361175"><ele>37.0</ele><time>2026-04-04T13:29:31.011Z</time></trkpt><trkpt lat="43.5164" lon="10.3614"><ele>38.0</ele><time>2026-04-04T13:29:32.012Z</time></trkpt><trkpt lat="43.516355" lon="10.3616183"><ele>39.0</ele><time>2026-04-04T13:29:33.011Z</time></trkpt><trkpt lat="43.5162983" lon="10.36184"><ele>40.666666666666664</ele><time>2026-04-04T13:29:34.011Z</time></trkpt><trkpt lat="43.5162267" lon="10.3620733"><ele>42.33333333333333</ele><time>2026-04-04T13:29:35.011Z</time></trkpt><trkpt lat="43.516145" lon="10.3623267"><ele>44.0</ele><time>2026-04-04T13:29:36.012Z</time></trkpt><trkpt lat="43.5160517" lon="10.36258"><ele>44.0</ele><time>2026-04-04T13:29:37.011Z</time></trkpt><trkpt lat="43.51595" lon="10.36282"><ele>44.0</ele><time>2026-04-04T13:29:38.011Z</time></trkpt><trkpt lat="43.5158483" lon="10.3630433"><ele>44.0</ele><time>2026-04-04T13:29:39.013Z</time></trkpt><trkpt lat="43.5157483" lon="10.363245"><ele>41.666666666666664</ele><time>2026-04-04T13:29:40.01Z</time></trkpt><trkpt lat="43.5156517" lon="10.36343"><ele>39.333333333333336</ele><time>2026-04-04T13:29:41.011Z</time></trkpt><trkpt lat="43.5155583" lon="10.3636033"><ele>37.0</ele><time>2026-04-04T13:29:42.011Z</time></trkpt><trkpt lat="43.5154783" lon="10.3637583"><ele>37.25</ele><time>2026-04-04T13:29:43.013Z</time></trkpt><trkpt lat="43.51541" lon="10.3639017"><ele>37.5</ele><time>2026-04-04T13:29:44.011Z</time></trkpt><trkpt lat="43.51535" lon="10.364035"><ele>37.75</ele><time>2026-04-04T13:29:45.011Z</time></trkpt><trkpt lat="43.5153033" lon="10.3641767"><ele>38.0</ele><time>2026-04-04T13:29:46.011Z</time></trkpt><trkpt lat="43.515275" lon="10.3643217"><ele>41.25</ele><time>2026-04-04T13:29:47.011Z</time></trkpt><trkpt lat="43.51527" lon="10.3644867"><ele>44.5</ele><time>2026-04-04T13:29:48.011Z</time></trkpt><trkpt lat="43.515275" lon="10.3646683"><ele>47.75</ele><time>2026-04-04T13:29:49.011Z</time></trkpt><trkpt lat="43.51529" lon="10.364865"><ele>51.0</ele><time>2026-04-04T13:29:50.011Z</time></trkpt><trkpt lat="43.515315" lon="10.3650817"><ele>53.0</ele><time>2026-04-04T13:29:51.011Z</time></trkpt><trkpt lat="43.5153483" lon="10.3653017"><ele>55.0</ele><time>2026-04-04T13:29:52.01Z</time></trkpt><trkpt lat="43.5153783" lon="10.36551"><ele>57.0</ele><time>2026-04-04T13:29:53.011Z</time></trkpt><trkpt lat="43.5154167" lon="10.365705"><ele>54.0</ele><time>2026-04-04T13:29:54.011Z</time></trkpt><trkpt lat="43.5154333" lon="10.3658817"><ele>51.0</ele><time>2026-04-04T13:29:55.011Z</time></trkpt><trkpt lat="43.5154483" lon="10.36604"><ele>48.0</ele><time>2026-04-04T13:29:56.011Z</time></trkpt><trkpt lat="43.515445" lon="10.3662"><ele>45.0</ele><time>2026-04-04T13:29:57.012Z</time></trkpt><trkpt lat="43.5154283" lon="10.3663667"><ele>45.0</ele><time>2026-04-04T13:29:58.01Z</time></trkpt><trkpt lat="43.5154067" lon="10.36654"><ele>45.0</ele><time>2026-04-04T13:29:59.01Z</time></trkpt><trkpt lat="43.5153783" lon="10.3667017"><ele>45.0</ele><time>2026-04-04T13:30:00.01Z</time></trkpt><trkpt lat="43.515345" lon="10.3668533"><ele>45.0</ele><time>2026-04-04T13:30:01.012Z</time></trkpt><trkpt lat="43.5153133" lon="10.36702"><ele>48.0</ele><time>2026-04-04T13:30:02.011Z</time></trkpt><trkpt lat="43.5152567" lon="10.3672033"><ele>51.0</ele><time>2026-04-04T13:30:03.011Z</time></trkpt><trkpt lat="43.5151817" lon="10.367405"><ele>54.0</ele><time>2026-04-04T13:30:04.009Z</time></trkpt><trkpt lat="43.5150867" lon="10.3676067"><ele>54.0</ele><time>2026-04-04T13:30:05.01Z</time></trkpt><trkpt lat="43.5149967" lon="10.3678217"><ele>54.0</ele><time>2026-04-04T13:30:06.01Z</time></trkpt><trkpt lat="43.51491" lon="10.3680517"><ele>54.0</ele><time>2026-04-04T13:30:07.011Z</time></trkpt><trkpt lat="43.514825" lon="10.368295"><ele>52.0</ele><time>2026-04-04T13:30:08.012Z</time></trkpt><trkpt lat="43.5147533" lon="10.3685467"><ele>50.0</ele><time>2026-04-04T13:30:09.011Z</time></trkpt><trkpt lat="43.514685" lon="10.368795"><ele>48.0</ele><time>2026-04-04T13:30:10.012Z</time></trkpt><trkpt lat="43.51463" lon="10.3690367"><ele>48.0</ele><time>2026-04-04T13:30:11.01Z</time></trkpt><trkpt lat="43.514605" lon="10.36928"><ele>48.0</ele><time>2026-04-04T13:30:12.011Z</time></trkpt><trkpt lat="43.5145883" lon="10.369525"><ele>48.0</ele><time>2026-04-04T13:30:13.01Z</time></trkpt><trkpt lat="43.51459" lon="10.3697833"><ele>49.33333333333333</ele><time>2026-04-04T13:30:14.01Z</time></trkpt><trkpt lat="43.5146117" lon="10.37005"><ele>50.666666666666664</ele><time>2026-04-04T13:30:15.011Z</time></trkpt><trkpt lat="43.5146267" lon="10.37032"><ele>52.0</ele><time>2026-04-04T13:30:16.011Z</time></trkpt><trkpt lat="43.5146467" lon="10.3705917"><ele>52.666666666666664</ele><time>2026-04-04T13:30:17.011Z</time></trkpt><trkpt lat="43.514665" lon="10.3708567"><ele>53.33333333333333</ele><time>2026-04-04T13:30:18.01Z</time></trkpt><trkpt lat="43.5146817" lon="10.37111"><ele>54.0</ele><time>2026-04-04T13:30:19.011Z</time></trkpt><trkpt lat="43.514695" lon="10.371355"><ele>54.66666666666667</ele><time>2026-04-04T13:30:20.01Z</time></trkpt><trkpt lat="43.5146783" lon="10.371595"><ele>55.333333333333336</ele><time>2026-04-04T13:30:21.011Z</time></trkpt><trkpt lat="43.5146467" lon="10.3718333"><ele>56.0</ele><time>2026-04-04T13:30:22.01Z</time></trkpt><trkpt lat="43.514595" lon="10.37207"><ele>60.66666666666667</ele><time>2026-04-04T13:30:23.011Z</time></trkpt><trkpt lat="43.5145267" lon="10.3723067"><ele>65.33333333333333</ele><time>2026-04-04T13:30:24.011Z</time></trkpt><trkpt lat="43.5144417" lon="10.3725367"><ele>70.0</ele><time>2026-04-04T13:30:25.011Z</time></trkpt><trkpt lat="43.514355" lon="10.37275"><ele>70.0</ele><time>2026-04-04T13:30:26.011Z</time></trkpt><trkpt lat="43.5142783" lon="10.3729383"><ele>70.0</ele><time>2026-04-04T13:30:27.011Z</time></trkpt><trkpt lat="43.5142017" lon="10.3731083"><ele>70.0</ele><time>2026-04-04T13:30:28.011Z</time></trkpt><trkpt lat="43.51411" lon="10.37326"><ele>70.0</ele><time>2026-04-04T13:30:29.01Z</time></trkpt><trkpt lat="43.5140033" lon="10.3733967"><ele>68.25</ele><time>2026-04-04T13:30:30.011Z</time></trkpt><trkpt lat="43.51388" lon="10.373505"><ele>66.5</ele><time>2026-04-04T13:30:31.012Z</time></trkpt><trkpt lat="43.51375" lon="10.3735983"><ele>64.75</ele><time>2026-04-04T13:30:32.012Z</time></trkpt><trkpt lat="43.51362" lon="10.3737083"><ele>63.0</ele><time>2026-04-04T13:30:33.011Z</time></trkpt><trkpt lat="43.5134933" lon="10.3738483"><ele>67.0</ele><time>2026-04-04T13:30:34.012Z</time></trkpt><trkpt lat="43.513365" lon="10.37401"><ele>71.0</ele><time>2026-04-04T13:30:35.012Z</time></trkpt><trkpt lat="43.5132367" lon="10.3741483"><ele>75.0</ele><time>2026-04-04T13:30:36.011Z</time></trkpt><trkpt lat="43.5131067" lon="10.3742683"><ele>75.0</ele><time>2026-04-04T13:30:37.011Z</time></trkpt><trkpt lat="43.51296" lon="10.3743417"><ele>75.0</ele><time>2026-04-04T13:30:38.01Z</time></trkpt><trkpt lat="43.5127917" lon="10.3743833"><ele>75.0</ele><time>2026-04-04T13:30:39.011Z</time></trkpt><trkpt lat="43.5126267" lon="10.3744367"><ele>77.0</ele><time>2026-04-04T13:30:40.011Z</time></trkpt><trkpt lat="43.5124667" lon="10.3745217"><ele>79.0</ele><time>2026-04-04T13:30:41.012Z</time></trkpt><trkpt lat="43.51233" lon="10.37466"><ele>81.0</ele><time>2026-04-04T13:30:42.012Z</time></trkpt><trkpt lat="43.5122167" lon="10.3748517"><ele>81.0</ele><time>2026-04-04T13:30:43.012Z</time></trkpt><trkpt lat="43.512135" lon="10.375105"><ele>81.0</ele><time>2026-04-04T13:30:44.012Z</time></trkpt><trkpt lat="43.5120533" lon="10.3753783"><ele>81.0</ele><time>2026-04-04T13:30:45.011Z</time></trkpt><trkpt lat="43.512" lon="10.3756883"><ele>89.0</ele><time>2026-04-04T13:30:46.011Z</time></trkpt><trkpt lat="43.511945" lon="10.3760183"><ele>97.0</ele><time>2026-04-04T13:30:47.011Z</time></trkpt><trkpt lat="43.5118983" lon="10.3763467"><ele>95.0</ele><time>2026-04-04T13:30:48.013Z</time></trkpt><trkpt lat="43.511825" lon="10.3766533"><ele>93.0</ele><time>2026-04-04T13:30:49.011Z</time></trkpt><trkpt lat="43.5117467" lon="10.376945"><ele>92.0</ele><time>2026-04-04T13:30:50.011Z</time></trkpt><trkpt lat="43.5116717" lon="10.377235"><ele>91.0</ele><time>2026-04-04T13:30:51.012Z</time></trkpt><trkpt lat="43.5116183" lon="10.3775283"><ele>90.0</ele><time>2026-04-04T13:30:52.012Z</time></trkpt><trkpt lat="43.51161" lon="10.377815"><ele>89.33333333333333</ele><time>2026-04-04T13:30:53.012Z</time></trkpt><trkpt lat="43.5116117" lon="10.37809"><ele>88.66666666666666</ele><time>2026-04-04T13:30:54.01Z</time></trkpt><trkpt lat="43.5116417" lon="10.3783683"><ele>88.0</ele><time>2026-04-04T13:30:55.011Z</time></trkpt><trkpt lat="43.511705" lon="10.3786533"><ele>87.66666666666666</ele><time>2026-04-04T13:30:56.011Z</time></trkpt><trkpt lat="43.5117833" lon="10.3789433"><ele>87.33333333333333</ele><time>2026-04-04T13:30:57.012Z</time></trkpt><trkpt lat="43.51185" lon="10.3792383"><ele>87.0</ele><time>2026-04-04T13:30:58.011Z</time></trkpt><trkpt lat="43.5118833" lon="10.3795517"><ele>91.0</ele><time>2026-04-04T13:30:59.011Z</time></trkpt><trkpt lat="43.5118917" lon="10.37988"><ele>95.0</ele><time>2026-04-04T13:31:00.012Z</time></trkpt><trkpt lat="43.511895" lon="10.3801967"><ele>95.0</ele><time>2026-04-04T13:31:01.012Z</time></trkpt><trkpt lat="43.5118917" lon="10.3804833"><ele>95.0</ele><time>2026-04-04T13:31:02.011Z</time></trkpt><trkpt lat="43.5118667" lon="10.3807383"><ele>95.0</ele><time>2026-04-04T13:31:03.011Z</time></trkpt><trkpt lat="43.5118067" lon="10.3809667"><ele>96.33333333333334</ele><time>2026-04-04T13:31:04.01Z</time></trkpt><trkpt lat="43.5117033" lon="10.3811833"><ele>97.66666666666667</ele><time>2026-04-04T13:31:05.011Z</time></trkpt><trkpt lat="43.5115717" lon="10.381395"><ele>99.0</ele><time>2026-04-04T13:31:06.012Z</time></trkpt><trkpt lat="43.51146" lon="10.381625"><ele>99.33333333333334</ele><time>2026-04-04T13:31:07.011Z</time></trkpt><trkpt lat="43.5113883" lon="10.3818867"><ele>99.66666666666667</ele><time>2026-04-04T13:31:08.011Z</time></trkpt><trkpt lat="43.511345" lon="10.38217"><ele>100.0</ele><time>2026-04-04T13:31:09.012Z</time></trkpt><trkpt lat="43.51132" lon="10.3824733"><ele>101.0</ele><time>2026-04-04T13:31:10.01Z</time></trkpt><trkpt lat="43.5112967" lon="10.3828067"><ele>102.0</ele><time>2026-04-04T13:31:11.011Z</time></trkpt><trkpt lat="43.5112767" lon="10.3831533"><ele>102.5</ele><time>2026-04-04T13:31:12.011Z</time></trkpt><trkpt lat="43.511255" lon="10.3834817"><ele>103.0</ele><time>2026-04-04T13:31:13.01Z</time></trkpt><trkpt lat="43.5112283" lon="10.3837783"><ele>102.0</ele><time>2026-04-04T13:31:14.01Z</time></trkpt><trkpt lat="43.5111867" lon="10.384045"><ele>101.0</ele><time>2026-04-04T13:31:15.011Z</time></trkpt><trkpt lat="43.511125" lon="10.3842867"><ele>100.0</ele><time>2026-04-04T13:31:16.011Z</time></trkpt><trkpt lat="43.511045" lon="10.3845017"><ele>101.0</ele><time>2026-04-04T13:31:17.012Z</time></trkpt><trkpt lat="43.510965" lon="10.3847"><ele>102.0</ele><time>2026-04-04T13:31:18.011Z</time></trkpt><trkpt lat="43.5109217" lon="10.3849017"><ele>103.0</ele><time>2026-04-04T13:31:19.011Z</time></trkpt><trkpt lat="43.5109133" lon="10.3851133"><ele>103.0</ele><time>2026-04-04T13:31:20.013Z</time></trkpt><trkpt lat="43.5109633" lon="10.3853467"><ele>103.0</ele><time>2026-04-04T13:31:21.01Z</time></trkpt><trkpt lat="43.511055" lon="10.3855917"><ele>103.0</ele><time>2026-04-04T13:31:22.011Z</time></trkpt><trkpt lat="43.5111533" lon="10.3858267"><ele>104.0</ele><time>2026-04-04T13:31:23.012Z</time></trkpt><trkpt lat="43.5112" lon="10.38604"><ele>105.0</ele><time>2026-04-04T13:31:24.01Z</time></trkpt><trkpt lat="43.5112117" lon="10.386235"><ele>106.0</ele><time>2026-04-04T13:31:25.01Z</time></trkpt><trkpt lat="43.511185" lon="10.3864383"><ele>107.33333333333334</ele><time>2026-04-04T13:31:26.01Z</time></trkpt><trkpt lat="43.5110967" lon="10.3866683"><ele>108.66666666666666</ele><time>2026-04-04T13:31:27.011Z</time></trkpt><trkpt lat="43.5109817" lon="10.38692"><ele>110.0</ele><time>2026-04-04T13:31:28.012Z</time></trkpt><trkpt lat="43.5108283" lon="10.3871717"><ele>111.0</ele><time>2026-04-04T13:31:29.011Z</time></trkpt><trkpt lat="43.5106783" lon="10.387395"><ele>112.0</ele><time>2026-04-04T13:31:30.011Z</time></trkpt><trkpt lat="43.5105433" lon="10.3875983"><ele>113.0</ele><time>2026-04-04T13:31:31.011Z</time></trkpt><trkpt lat="43.5104317" lon="10.387785"><ele>115.33333333333333</ele><time>2026-04-04T13:31:32.011Z</time></trkpt><trkpt lat="43.5103833" lon="10.3879933"><ele>117.66666666666666</ele><time>2026-04-04T13:31:33.011Z</time></trkpt><trkpt lat="43.5103767" lon="10.3882233"><ele>120.0</ele><time>2026-04-04T13:31:34.01Z</time></trkpt><trkpt lat="43.51043" lon="10.3884883"><ele>120.5</ele><time>2026-04-04T13:31:35.011Z</time></trkpt><trkpt lat="43.5104817" lon="10.388795"><ele>121.0</ele><time>2026-04-04T13:31:36.011Z</time></trkpt><trkpt lat="43.5105067" lon="10.3891283"><ele>126.0</ele><time>2026-04-04T13:31:37.01Z</time></trkpt><trkpt lat="43.510515" lon="10.3894583"><ele>131.0</ele><time>2026-04-04T13:31:38.013Z</time></trkpt><trkpt lat="43.5104967" lon="10.3897617"><ele>129.66666666666666</ele><time>2026-04-04T13:31:39.011Z</time></trkpt><trkpt lat="43.510455" lon="10.390055"><ele>128.33333333333334</ele><time>2026-04-04T13:31:40.01Z</time></trkpt><trkpt lat="43.51037" lon="10.39034"><ele>127.0</ele><time>2026-04-04T13:31:41.012Z</time></trkpt><trkpt lat="43.5102517" lon="10.3906133"><ele>127.0</ele><time>2026-04-04T13:31:42.012Z</time></trkpt><trkpt lat="43.51012" lon="10.39086"><ele>127.0</ele><time>2026-04-04T13:31:43.013Z</time></trkpt><trkpt lat="43.5099867" lon="10.3910817"><ele>127.0</ele><time>2026-04-04T13:31:44.012Z</time></trkpt><trkpt lat="43.50988" lon="10.3913083"><ele>128.66666666666669</ele><time>2026-04-04T13:31:45.012Z</time></trkpt><trkpt lat="43.5098017" lon="10.3915517"><ele>130.33333333333334</ele><time>2026-04-04T13:31:46.012Z</time></trkpt><trkpt lat="43.5097533" lon="10.39181"><ele>132.0</ele><time>2026-04-04T13:31:47.012Z</time></trkpt><trkpt lat="43.5097333" lon="10.392075"><ele>132.66666666666666</ele><time>2026-04-04T13:31:48.01Z</time></trkpt><trkpt lat="43.509735" lon="10.39233"><ele>133.33333333333331</ele><time>2026-04-04T13:31:49.011Z</time></trkpt><trkpt lat="43.5097283" lon="10.3925517"><ele>134.0</ele><time>2026-04-04T13:31:50.012Z</time></trkpt><trkpt lat="43.50969" lon="10.3927417"><ele>134.0</ele><time>2026-04-04T13:31:51.011Z</time></trkpt><trkpt lat="43.5096283" lon="10.392905"><ele>134.0</ele><time>2026-04-04T13:31:52.011Z</time></trkpt><trkpt lat="43.5095617" lon="10.393055"><ele>134.0</ele><time>2026-04-04T13:31:53.011Z</time></trkpt><trkpt lat="43.5094917" lon="10.3932"><ele>134.0</ele><time>2026-04-04T13:31:54.011Z</time></trkpt><trkpt lat="43.5094083" lon="10.3933267"><ele>134.5</ele><time>2026-04-04T13:31:55.012Z</time></trkpt><trkpt lat="43.5093183" lon="10.3934383"><ele>135.0</ele><time>2026-04-04T13:31:56.012Z</time></trkpt><trkpt lat="43.5092367" lon="10.3935533"><ele>135.5</ele><time>2026-04-04T13:31:57.011Z</time></trkpt><trkpt lat="43.50917" lon="10.3936833"><ele>136.0</ele><time>2026-04-04T13:31:58.011Z</time></trkpt><trkpt lat="43.509125" lon="10.39382"><ele>135.6</ele><time>2026-04-04T13:31:59.011Z</time></trkpt><trkpt lat="43.5090917" lon="10.3939633"><ele>135.2</ele><time>2026-04-04T13:32:00.011Z</time></trkpt><trkpt lat="43.5090617" lon="10.394105"><ele>134.8</ele><time>2026-04-04T13:32:01.011Z</time></trkpt><trkpt lat="43.50904" lon="10.3942433"><ele>134.4</ele><time>2026-04-04T13:32:02.012Z</time></trkpt><trkpt lat="43.509025" lon="10.394385"><ele>134.0</ele><time>2026-04-04T13:32:03.011Z</time></trkpt><trkpt lat="43.509025" lon="10.3945183"><ele>134.0</ele><time>2026-04-04T13:32:04.011Z</time></trkpt><trkpt lat="43.509035" lon="10.3946467"><ele>134.0</ele><time>2026-04-04T13:32:05.011Z</time></trkpt><trkpt lat="43.50906" lon="10.3947717"><ele>134.0</ele><time>2026-04-04T13:32:06.011Z</time></trkpt><trkpt lat="43.5090933" lon="10.3948883"><ele>134.0</ele><time>2026-04-04T13:32:07.011Z</time></trkpt><trkpt lat="43.5091317" lon="10.395005"><ele>134.0</ele><time>2026-04-04T13:32:08.011Z</time></trkpt><trkpt lat="43.5091733" lon="10.39512"><ele>134.0</ele><time>2026-04-04T13:32:09.014Z</time></trkpt><trkpt lat="43.509205" lon="10.3952367"><ele>134.0</ele><time>2026-04-04T13:32:10.01Z</time></trkpt><trkpt lat="43.50922" lon="10.3953533"><ele>134.0</ele><time>2026-04-04T13:32:11.011Z</time></trkpt><trkpt lat="43.5092117" lon="10.3954833"><ele>134.0</ele><time>2026-04-04T13:32:12.01Z</time></trkpt><trkpt lat="43.5091667" lon="10.3956167"><ele>134.0</ele><time>2026-04-04T13:32:13.011Z</time></trkpt><trkpt lat="43.5090817" lon="10.3957417"><ele>134.0</ele><time>2026-04-04T13:32:14.011Z</time></trkpt><trkpt lat="43.5089667" lon="10.395855"><ele>134.0</ele><time>2026-04-04T13:32:15.011Z</time></trkpt><trkpt lat="43.5087917" lon="10.395925"><ele>134.0</ele><time>2026-04-04T13:32:16.01Z</time></trkpt><trkpt lat="43.50858" lon="10.3959567"><ele>134.66666666666666</ele><time>2026-04-04T13:32:17.011Z</time></trkpt><trkpt lat="43.50838" lon="10.395995"><ele>135.33333333333334</ele><time>2026-04-04T13:32:18.01Z</time></trkpt><trkpt lat="43.508185" lon="10.3960417"><ele>136.0</ele><time>2026-04-04T13:32:19.011Z</time></trkpt><trkpt lat="43.5080017" lon="10.39611"><ele>136.33333333333334</ele><time>2026-04-04T13:32:20.011Z</time></trkpt><trkpt lat="43.5078267" lon="10.3962183"><ele>136.66666666666666</ele><time>2026-04-04T13:32:21.012Z</time></trkpt><trkpt lat="43.5076567" lon="10.3963733"><ele>137.0</ele><time>2026-04-04T13:32:22.01Z</time></trkpt><trkpt lat="43.50749" lon="10.3965483"><ele>137.0</ele><time>2026-04-04T13:32:23.011Z</time></trkpt><trkpt lat="43.50733" lon="10.3967517"><ele>137.0</ele><time>2026-04-04T13:32:24.012Z</time></trkpt><trkpt lat="43.5071817" lon="10.39698"><ele>137.0</ele><time>2026-04-04T13:32:25.011Z</time></trkpt><trkpt lat="43.5070333" lon="10.3972133"><ele>138.66666666666666</ele><time>2026-04-04T13:32:26.011Z</time></trkpt><trkpt lat="43.5068917" lon="10.3974167"><ele>140.33333333333334</ele><time>2026-04-04T13:32:27.011Z</time></trkpt><trkpt lat="43.50675" lon="10.39761"><ele>142.0</ele><time>2026-04-04T13:32:28.011Z</time></trkpt><trkpt lat="43.5066117" lon="10.3978017"><ele>142.0</ele><time>2026-04-04T13:32:29.013Z</time></trkpt><trkpt lat="43.5064767" lon="10.397995"><ele>142.0</ele><time>2026-04-04T13:32:30.011Z</time></trkpt><trkpt lat="43.5063417" lon="10.3981833"><ele>142.0</ele><time>2026-04-04T13:32:31.011Z</time></trkpt><trkpt lat="43.50621" lon="10.3983867"><ele>142.66666666666669</ele><time>2026-04-04T13:32:32.01Z</time></trkpt><trkpt lat="43.5060883" lon="10.3986083"><ele>143.33333333333334</ele><time>2026-04-04T13:32:33.014Z</time></trkpt><trkpt lat="43.505985" lon="10.39886"><ele>144.0</ele><time>2026-04-04T13:32:34.011Z</time></trkpt><trkpt lat="43.5058917" lon="10.399135"><ele>144.0</ele><time>2026-04-04T13:32:35.011Z</time></trkpt><trkpt lat="43.5057983" lon="10.3994267"><ele>144.0</ele><time>2026-04-04T13:32:36.01Z</time></trkpt><trkpt lat="43.5057033" lon="10.3997117"><ele>141.5</ele><time>2026-04-04T13:32:37.011Z</time></trkpt><trkpt lat="43.5056067" lon="10.3999967"><ele>139.0</ele><time>2026-04-04T13:32:38.011Z</time></trkpt><trkpt lat="43.50552" lon="10.400285"><ele>140.33333333333334</ele><time>2026-04-04T13:32:39.011Z</time></trkpt><trkpt lat="43.505425" lon="10.40056"><ele>141.66666666666666</ele><time>2026-04-04T13:32:40.012Z</time></trkpt><trkpt lat="43.5053333" lon="10.4008333"><ele>143.0</ele><time>2026-04-04T13:32:41.011Z</time></trkpt><trkpt lat="43.50524" lon="10.4010983"><ele>142.66666666666666</ele><time>2026-04-04T13:32:42.011Z</time></trkpt><trkpt lat="43.50515" lon="10.401355"><ele>142.33333333333334</ele><time>2026-04-04T13:32:43.011Z</time></trkpt><trkpt lat="43.50507" lon="10.4015967"><ele>142.0</ele><time>2026-04-04T13:32:44.011Z</time></trkpt><trkpt lat="43.5049817" lon="10.40183"><ele>142.0</ele><time>2026-04-04T13:32:45.01Z</time></trkpt><trkpt lat="43.5049033" lon="10.4020617"><ele>142.0</ele><time>2026-04-04T13:32:46.011Z</time></trkpt><trkpt lat="43.5048583" lon="10.40229"><ele>142.0</ele><time>2026-04-04T13:32:47.012Z</time></trkpt><trkpt lat="43.50483" lon="10.4025067"><ele>143.33333333333334</ele><time>2026-04-04T13:32:48.011Z</time></trkpt><trkpt lat="43.504825" lon="10.4027283"><ele>144.66666666666666</ele><time>2026-04-04T13:32:49.011Z</time></trkpt><trkpt lat="43.5048567" lon="10.4029617"><ele>146.0</ele><time>2026-04-04T13:32:50.014Z</time></trkpt><trkpt lat="43.5049183" lon="10.403195"><ele>146.0</ele><time>2026-04-04T13:32:51.011Z</time></trkpt><trkpt lat="43.5050183" lon="10.4034133"><ele>146.0</ele><time>2026-04-04T13:32:52.011Z</time></trkpt><trkpt lat="43.50514" lon="10.4036033"><ele>146.0</ele><time>2026-04-04T13:32:53.01Z</time></trkpt><trkpt lat="43.5052767" lon="10.4037617"><ele>148.0</ele><time>2026-04-04T13:32:54.012Z</time></trkpt><trkpt lat="43.5054383" lon="10.4038883"><ele>150.0</ele><time>2026-04-04T13:32:55.012Z</time></trkpt><trkpt lat="43.50562" lon="10.4039967"><ele>152.0</ele><time>2026-04-04T13:32:56.012Z</time></trkpt><trkpt lat="43.5058" lon="10.40411"><ele>152.0</ele><time>2026-04-04T13:32:57.011Z</time></trkpt><trkpt lat="43.505965" lon="10.4042467"><ele>152.0</ele><time>2026-04-04T13:32:58.013Z</time></trkpt><trkpt lat="43.50611" lon="10.40441"><ele>152.0</ele><time>2026-04-04T13:32:59.012Z</time></trkpt><trkpt lat="43.50624" lon="10.404585"><ele>155.0</ele><time>2026-04-04T13:33:00.012Z</time></trkpt><trkpt lat="43.5063383" lon="10.40476"><ele>158.0</ele><time>2026-04-04T13:33:01.012Z</time></trkpt><trkpt lat="43.5064083" lon="10.4049283"><ele>161.0</ele><time>2026-04-04T13:33:02.011Z</time></trkpt><trkpt lat="43.50645" lon="10.4051033"><ele>164.0</ele><time>2026-04-04T13:33:03.011Z</time></trkpt><trkpt lat="43.506455" lon="10.4052833"><ele>164.0</ele><time>2026-04-04T13:33:04.013Z</time></trkpt><trkpt lat="43.50642" lon="10.405475"><ele>164.0</ele><time>2026-04-04T13:33:05.012Z</time></trkpt><trkpt lat="43.5063367" lon="10.405685"><ele>164.0</ele><time>2026-04-04T13:33:06.013Z</time></trkpt><trkpt lat="43.506225" lon="10.4059083"><ele>163.33333333333331</ele><time>2026-04-04T13:33:07.011Z</time></trkpt><trkpt lat="43.5061083" lon="10.4061317"><ele>162.66666666666666</ele><time>2026-04-04T13:33:08.011Z</time></trkpt><trkpt lat="43.5059933" lon="10.4063417"><ele>162.0</ele><time>2026-04-04T13:33:09.011Z</time></trkpt><trkpt lat="43.50587" lon="10.4065033"><ele>166.66666666666666</ele><time>2026-04-04T13:33:10.011Z</time></trkpt><trkpt lat="43.5057333" lon="10.4066117"><ele>171.33333333333331</ele><time>2026-04-04T13:33:11.01Z</time></trkpt><trkpt lat="43.5055767" lon="10.4066767"><ele>176.0</ele><time>2026-04-04T13:33:12.011Z</time></trkpt><trkpt lat="43.5054233" lon="10.4067383"><ele>173.25</ele><time>2026-04-04T13:33:13.011Z</time></trkpt><trkpt lat="43.5052783" lon="10.406815"><ele>170.5</ele><time>2026-04-04T13:33:14.011Z</time></trkpt><trkpt lat="43.50514" lon="10.4068967"><ele>167.75</ele><time>2026-04-04T13:33:15.012Z</time></trkpt><trkpt lat="43.5050267" lon="10.407005"><ele>165.0</ele><time>2026-04-04T13:33:16.011Z</time></trkpt><trkpt lat="43.5049317" lon="10.4071267"><ele>168.4</ele><time>2026-04-04T13:33:17.01Z</time></trkpt><trkpt lat="43.5048517" lon="10.40725"><ele>171.8</ele><time>2026-04-04T13:33:18.011Z</time></trkpt><trkpt lat="43.50477" lon="10.4073583"><ele>175.2</ele><time>2026-04-04T13:33:19.011Z</time></trkpt><trkpt lat="43.5046867" lon="10.407435"><ele>178.6</ele><time>2026-04-04T13:33:20.012Z</time></trkpt><trkpt lat="43.5046083" lon="10.4074633"><ele>182.0</ele><time>2026-04-04T13:33:21.012Z</time></trkpt><trkpt lat="43.50452" lon="10.4074533"><ele>182.0</ele><time>2026-04-04T13:33:22.01Z</time></trkpt><trkpt lat="43.50443" lon="10.4073617"><ele>182.0</ele><time>2026-04-04T13:33:23.011Z</time></trkpt><trkpt lat="43.5043417" lon="10.4072717"><ele>182.0</ele><time>2026-04-04T13:33:24.012Z</time></trkpt><trkpt lat="43.50425" lon="10.40721"><ele>182.0</ele><time>2026-04-04T13:33:25.011Z</time></trkpt><trkpt lat="43.504165" lon="10.4071717"><ele>182.0</ele><time>2026-04-04T13:33:26.012Z</time></trkpt><trkpt lat="43.5040783" lon="10.4071467"><ele>182.0</ele><time>2026-04-04T13:33:27.012Z</time></trkpt><trkpt lat="43.5039883" lon="10.4071467"><ele>182.0</ele><time>2026-04-04T13:33:28.011Z</time></trkpt><trkpt lat="43.5038983" lon="10.4071717"><ele>182.0</ele><time>2026-04-04T13:33:29.011Z</time></trkpt><trkpt lat="43.503815" lon="10.4072017"><ele>182.0</ele><time>2026-04-04T13:33:30.01Z</time></trkpt><trkpt lat="43.5037333" lon="10.4072433"><ele>182.0</ele><time>2026-04-04T13:33:31.012Z</time></trkpt><trkpt lat="43.5036583" lon="10.4072917"><ele>182.0</ele><time>2026-04-04T13:33:32.011Z</time></trkpt><trkpt lat="43.5035883" lon="10.4073133"><ele>182.39999999999998</ele><time>2026-04-04T13:33:33.011Z</time></trkpt><trkpt lat="43.503465" lon="10.407255"><ele>182.79999999999998</ele><time>2026-04-04T13:33:35.01Z</time></trkpt><trkpt lat="43.50341" lon="10.40717"><ele>183.2</ele><time>2026-04-04T13:33:36.011Z</time></trkpt><trkpt lat="43.5033633" lon="10.4070767"><ele>183.6</ele><time>2026-04-04T13:33:37.011Z</time></trkpt><trkpt lat="43.503315" lon="10.4069917"><ele>184.0</ele><time>2026-04-04T13:33:38.011Z</time></trkpt><trkpt lat="43.503255" lon="10.4069217"><ele>184.0</ele><time>2026-04-04T13:33:39.012Z</time></trkpt><trkpt lat="43.5031933" lon="10.406875"><ele>184.0</ele><time>2026-04-04T13:33:40.011Z</time></trkpt><trkpt lat="43.5031217" lon="10.4069233"><ele>184.0</ele><time>2026-04-04T13:33:41.01Z</time></trkpt><trkpt lat="43.50306" lon="10.4069833"><ele>184.0</ele><time>2026-04-04T13:33:42.01Z</time></trkpt><trkpt lat="43.5030117" lon="10.407065"><ele>184.0</ele><time>2026-04-04T13:33:43.011Z</time></trkpt><trkpt lat="43.502965" lon="10.4071517"><ele>184.0</ele><time>2026-04-04T13:33:44.011Z</time></trkpt><trkpt lat="43.5028967" lon="10.4072967"><ele>186.33333333333334</ele><time>2026-04-04T13:33:46.011Z</time></trkpt><trkpt lat="43.5028567" lon="10.407375"><ele>188.66666666666669</ele><time>2026-04-04T13:33:47.011Z</time></trkpt><trkpt lat="43.502805" lon="10.407445"><ele>191.0</ele><time>2026-04-04T13:33:48.011Z</time></trkpt><trkpt lat="43.5027417" lon="10.4074917"><ele>193.33333333333334</ele><time>2026-04-04T13:33:49.011Z</time></trkpt><trkpt lat="43.5026667" lon="10.4075083"><ele>195.66666666666666</ele><time>2026-04-04T13:33:50.011Z</time></trkpt><trkpt lat="43.502595" lon="10.4074967"><ele>198.0</ele><time>2026-04-04T13:33:51.011Z</time></trkpt><trkpt lat="43.502495" lon="10.407395"><ele>198.0</ele><time>2026-04-04T13:33:52.011Z</time></trkpt><trkpt lat="43.5023733" lon="10.4072617"><ele>198.0</ele><time>2026-04-04T13:33:53.011Z</time></trkpt><trkpt lat="43.5022367" lon="10.4071267"><ele>198.0</ele><time>2026-04-04T13:33:54.011Z</time></trkpt><trkpt lat="43.5020833" lon="10.406985"><ele>199.66666666666669</ele><time>2026-04-04T13:33:55.012Z</time></trkpt><trkpt lat="43.5019433" lon="10.406845"><ele>201.33333333333334</ele><time>2026-04-04T13:33:56.011Z</time></trkpt><trkpt lat="43.5018133" lon="10.40671"><ele>203.0</ele><time>2026-04-04T13:33:57.011Z</time></trkpt><trkpt lat="43.5016917" lon="10.406615"><ele>203.0</ele><time>2026-04-04T13:33:58.013Z</time></trkpt><trkpt lat="43.5015783" lon="10.4065717"><ele>203.0</ele><time>2026-04-04T13:33:59.011Z</time></trkpt><trkpt lat="43.50149" lon="10.4065883"><ele>203.0</ele><time>2026-04-04T13:34:00.012Z</time></trkpt><trkpt lat="43.501395" lon="10.4066583"><ele>203.0</ele><time>2026-04-04T13:34:01.012Z</time></trkpt><trkpt lat="43.5013167" lon="10.406795"><ele>203.0</ele><time>2026-04-04T13:34:02.011Z</time></trkpt><trkpt lat="43.5012517" lon="10.4069683"><ele>205.66666666666669</ele><time>2026-04-04T13:34:03.012Z</time></trkpt><trkpt lat="43.5011767" lon="10.407165"><ele>208.33333333333331</ele><time>2026-04-04T13:34:04.011Z</time></trkpt><trkpt lat="43.5010817" lon="10.4073533"><ele>211.0</ele><time>2026-04-04T13:34:05.01Z</time></trkpt><trkpt lat="43.5009733" lon="10.40753"><ele>211.0</ele><time>2026-04-04T13:34:06.011Z</time></trkpt><trkpt lat="43.5008367" lon="10.4076567"><ele>211.0</ele><time>2026-04-04T13:34:07.012Z</time></trkpt><trkpt lat="43.5006967" lon="10.4077667"><ele>211.0</ele><time>2026-04-04T13:34:08.012Z</time></trkpt><trkpt lat="43.50057" lon="10.4078517"><ele>211.0</ele><time>2026-04-04T13:34:09.011Z</time></trkpt><trkpt lat="43.500475" lon="10.40794"><ele>211.0</ele><time>2026-04-04T13:34:10.012Z</time></trkpt><trkpt lat="43.5004033" lon="10.4080417"><ele>211.0</ele><time>2026-04-04T13:34:11.012Z</time></trkpt><trkpt lat="43.500365" lon="10.4081517"><ele>211.0</ele><time>2026-04-04T13:34:12.012Z</time></trkpt><trkpt lat="43.5003817" lon="10.408285"><ele>211.0</ele><time>2026-04-04T13:34:13.011Z</time></trkpt><trkpt lat="43.5004367" lon="10.4084417"><ele>214.0</ele><time>2026-04-04T13:34:14.012Z</time></trkpt><trkpt lat="43.500545" lon="10.408635"><ele>217.0</ele><time>2026-04-04T13:34:15.011Z</time></trkpt><trkpt lat="43.5006317" lon="10.4088417"><ele>220.0</ele><time>2026-04-04T13:34:16.011Z</time></trkpt><trkpt lat="43.5006983" lon="10.4090767"><ele>222.66666666666666</ele><time>2026-04-04T13:34:17.011Z</time></trkpt><trkpt lat="43.5007333" lon="10.40935"><ele>225.33333333333331</ele><time>2026-04-04T13:34:18.011Z</time></trkpt><trkpt lat="43.5007383" lon="10.4096617"><ele>228.0</ele><time>2026-04-04T13:34:19.011Z</time></trkpt><trkpt lat="43.5007633" lon="10.410005"><ele>231.0</ele><time>2026-04-04T13:34:20.011Z</time></trkpt><trkpt lat="43.5007917" lon="10.410345"><ele>234.0</ele><time>2026-04-04T13:34:21.011Z</time></trkpt><trkpt lat="43.50082" lon="10.4106483"><ele>236.33333333333331</ele><time>2026-04-04T13:34:22.012Z</time></trkpt><trkpt lat="43.50081" lon="10.4109217"><ele>238.66666666666666</ele><time>2026-04-04T13:34:23.012Z</time></trkpt><trkpt lat="43.5007983" lon="10.4111767"><ele>241.0</ele><time>2026-04-04T13:34:24.011Z</time></trkpt><trkpt lat="43.5007667" lon="10.4114217"><ele>242.33333333333331</ele><time>2026-04-04T13:34:25.011Z</time></trkpt><trkpt lat="43.5007217" lon="10.41164"><ele>243.66666666666669</ele><time>2026-04-04T13:34:26.011Z</time></trkpt><trkpt lat="43.5006717" lon="10.4118317"><ele>245.0</ele><time>2026-04-04T13:34:27.011Z</time></trkpt><trkpt lat="43.5005833" lon="10.4120017"><ele>245.33333333333334</ele><time>2026-04-04T13:34:28.011Z</time></trkpt><trkpt lat="43.5004683" lon="10.412165"><ele>245.66666666666669</ele><time>2026-04-04T13:34:29.011Z</time></trkpt><trkpt lat="43.5003417" lon="10.4123167"><ele>246.0</ele><time>2026-04-04T13:34:30.011Z</time></trkpt><trkpt lat="43.5002217" lon="10.4124567"><ele>246.0</ele><time>2026-04-04T13:34:31.011Z</time></trkpt><trkpt lat="43.5001133" lon="10.4125933"><ele>246.0</ele><time>2026-04-04T13:34:32.011Z</time></trkpt><trkpt lat="43.500045" lon="10.41276"><ele>246.0</ele><time>2026-04-04T13:34:33.011Z</time></trkpt><trkpt lat="43.50001" lon="10.4129733"><ele>246.0</ele><time>2026-04-04T13:34:34.012Z</time></trkpt><trkpt lat="43.5000083" lon="10.4132317"><ele>247.66666666666669</ele><time>2026-04-04T13:34:35.012Z</time></trkpt><trkpt lat="43.5000167" lon="10.4135267"><ele>249.33333333333334</ele><time>2026-04-04T13:34:36.011Z</time></trkpt><trkpt lat="43.5000217" lon="10.4138083"><ele>251.0</ele><time>2026-04-04T13:34:37.011Z</time></trkpt><trkpt lat="43.5000333" lon="10.4140483"><ele>252.33333333333334</ele><time>2026-04-04T13:34:38.012Z</time></trkpt><trkpt lat="43.50006" lon="10.414245"><ele>253.66666666666669</ele><time>2026-04-04T13:34:39.013Z</time></trkpt><trkpt lat="43.500145" lon="10.41442"><ele>255.0</ele><time>2026-04-04T13:34:40.011Z</time></trkpt><trkpt lat="43.5002683" lon="10.4145967"><ele>260.6666666666667</ele><time>2026-04-04T13:34:41.012Z</time></trkpt><trkpt lat="43.5004183" lon="10.414785"><ele>266.33333333333337</ele><time>2026-04-04T13:34:42.012Z</time></trkpt><trkpt lat="43.5005833" lon="10.41496"><ele>272.0</ele><time>2026-04-04T13:34:43.011Z</time></trkpt><trkpt lat="43.5007783" lon="10.4151083"><ele>272.0</ele><time>2026-04-04T13:34:44.011Z</time></trkpt><trkpt lat="43.500995" lon="10.41524"><ele>272.0</ele><time>2026-04-04T13:34:45.012Z</time></trkpt><trkpt lat="43.5012067" lon="10.4153667"><ele>276.33333333333337</ele><time>2026-04-04T13:34:46.012Z</time></trkpt><trkpt lat="43.5013967" lon="10.4154933"><ele>280.6666666666667</ele><time>2026-04-04T13:34:47.011Z</time></trkpt><trkpt lat="43.5015633" lon="10.41564"><ele>285.0</ele><time>2026-04-04T13:34:48.012Z</time></trkpt><trkpt lat="43.5017133" lon="10.4158083"><ele>285.0</ele><time>2026-04-04T13:34:49.011Z</time></trkpt><trkpt lat="43.50184" lon="10.416025"><ele>285.0</ele><time>2026-04-04T13:34:50.011Z</time></trkpt><trkpt lat="43.5019667" lon="10.4162683"><ele>285.0</ele><time>2026-04-04T13:34:51.011Z</time></trkpt><trkpt lat="43.5020867" lon="10.41651"><ele>287.3333333333333</ele><time>2026-04-04T13:34:52.011Z</time></trkpt><trkpt lat="43.5021917" lon="10.4167617"><ele>289.66666666666663</ele><time>2026-04-04T13:34:53.011Z</time></trkpt><trkpt lat="43.50227" lon="10.4170317"><ele>292.0</ele><time>2026-04-04T13:34:54.014Z</time></trkpt><trkpt lat="43.50234" lon="10.4173217"><ele>293.0</ele><time>2026-04-04T13:34:55.011Z</time></trkpt><trkpt lat="43.502395" lon="10.4176217"><ele>294.0</ele><time>2026-04-04T13:34:56.011Z</time></trkpt><trkpt lat="43.5024283" lon="10.4179267"><ele>295.0</ele><time>2026-04-04T13:34:57.011Z</time></trkpt><trkpt lat="43.5024433" lon="10.418245"><ele>298.0</ele><time>2026-04-04T13:34:58.012Z</time></trkpt><trkpt lat="43.5024517" lon="10.418575"><ele>301.0</ele><time>2026-04-04T13:34:59.011Z</time></trkpt><trkpt lat="43.502465" lon="10.41892"><ele>304.0</ele><time>2026-04-04T13:35:00.011Z</time></trkpt><trkpt lat="43.5024733" lon="10.41927"><ele>307.0</ele><time>2026-04-04T13:35:01.011Z</time></trkpt><trkpt lat="43.5024783" lon="10.4196217"><ele>309.5</ele><time>2026-04-04T13:35:02.012Z</time></trkpt><trkpt lat="43.5024867" lon="10.41997"><ele>312.0</ele><time>2026-04-04T13:35:03.011Z</time></trkpt><trkpt lat="43.5024867" lon="10.4203117"><ele>313.5</ele><time>2026-04-04T13:35:04.011Z</time></trkpt><trkpt lat="43.5024933" lon="10.420655"><ele>315.0</ele><time>2026-04-04T13:35:05.013Z</time></trkpt><trkpt lat="43.5024717" lon="10.4209717"><ele>315.0</ele><time>2026-04-04T13:35:06.011Z</time></trkpt><trkpt lat="43.502435" lon="10.42127"><ele>315.0</ele><time>2026-04-04T13:35:07.013Z</time></trkpt><trkpt lat="43.5023967" lon="10.42156"><ele>315.0</ele><time>2026-04-04T13:35:08.012Z</time></trkpt><trkpt lat="43.5023467" lon="10.4218417"><ele>316.3333333333333</ele><time>2026-04-04T13:35:09.012Z</time></trkpt><trkpt lat="43.50228" lon="10.4221117"><ele>317.66666666666663</ele><time>2026-04-04T13:35:10.012Z</time></trkpt><trkpt lat="43.502205" lon="10.4223633"><ele>319.0</ele><time>2026-04-04T13:35:11.011Z</time></trkpt><trkpt lat="43.5021233" lon="10.4225917"><ele>320.0</ele><time>2026-04-04T13:35:12.011Z</time></trkpt><trkpt lat="43.5020233" lon="10.4227917"><ele>321.0</ele><time>2026-04-04T13:35:13.011Z</time></trkpt><trkpt lat="43.50191" lon="10.4229717"><ele>322.0</ele><time>2026-04-04T13:35:14.011Z</time></trkpt><trkpt lat="43.50177" lon="10.42312"><ele>324.3333333333333</ele><time>2026-04-04T13:35:15.011Z</time></trkpt><trkpt lat="43.5016333" lon="10.4232467"><ele>326.6666666666667</ele><time>2026-04-04T13:35:16.012Z</time></trkpt><trkpt lat="43.5015083" lon="10.42336"><ele>329.0</ele><time>2026-04-04T13:35:17.012Z</time></trkpt><trkpt lat="43.5014117" lon="10.4235033"><ele>329.0</ele><time>2026-04-04T13:35:18.012Z</time></trkpt><trkpt lat="43.5013383" lon="10.4236817"><ele>329.0</ele><time>2026-04-04T13:35:19.011Z</time></trkpt><trkpt lat="43.5012783" lon="10.4238933"><ele>329.0</ele><time>2026-04-04T13:35:20.013Z</time></trkpt><trkpt lat="43.5012183" lon="10.4241267"><ele>326.6666666666667</ele><time>2026-04-04T13:35:21.011Z</time></trkpt><trkpt lat="43.5011633" lon="10.424365"><ele>324.3333333333333</ele><time>2026-04-04T13:35:22.011Z</time></trkpt><trkpt lat="43.5010983" lon="10.424585"><ele>322.0</ele><time>2026-04-04T13:35:23.011Z</time></trkpt><trkpt lat="43.5010267" lon="10.4247633"><ele>322.0</ele><time>2026-04-04T13:35:24.012Z</time></trkpt><trkpt lat="43.5009467" lon="10.4249017"><ele>322.0</ele><time>2026-04-04T13:35:25.011Z</time></trkpt><trkpt lat="43.500845" lon="10.4249867"><ele>322.0</ele><time>2026-04-04T13:35:26.011Z</time></trkpt><trkpt lat="43.5007233" lon="10.42502"><ele>322.0</ele><time>2026-04-04T13:35:27.01Z</time></trkpt><trkpt lat="43.5005833" lon="10.4250233"><ele>322.0</ele><time>2026-04-04T13:35:28.012Z</time></trkpt><trkpt lat="43.5004367" lon="10.4250317"><ele>322.0</ele><time>2026-04-04T13:35:29.011Z</time></trkpt><trkpt lat="43.5003083" lon="10.4250933"><ele>322.0</ele><time>2026-04-04T13:35:30.011Z</time></trkpt><trkpt lat="43.5001883" lon="10.42522"><ele>322.0</ele><time>2026-04-04T13:35:31.012Z</time></trkpt><trkpt lat="43.500085" lon="10.4253667"><ele>321.8</ele><time>2026-04-04T13:35:32.011Z</time></trkpt><trkpt lat="43.4999883" lon="10.4254983"><ele>321.6</ele><time>2026-04-04T13:35:33.011Z</time></trkpt><trkpt lat="43.49991" lon="10.42561"><ele>321.40000000000003</ele><time>2026-04-04T13:35:34.011Z</time></trkpt><trkpt lat="43.49985" lon="10.42569"><ele>321.20000000000005</ele><time>2026-04-04T13:35:35.012Z</time></trkpt><trkpt lat="43.4998017" lon="10.42576"><ele>321.0</ele><time>2026-04-04T13:35:36.011Z</time></trkpt><trkpt lat="43.4997417" lon="10.4258483"><ele>321.0</ele><time>2026-04-04T13:35:38.011Z</time></trkpt><trkpt lat="43.499715" lon="10.4259417"><ele>321.0</ele><time>2026-04-04T13:35:46.011Z</time></trkpt><trkpt lat="43.4997417" lon="10.4260333"><ele>321.0</ele><time>2026-04-04T13:36:53.011Z</time></trkpt><trkpt lat="43.4998117" lon="10.4260967"><ele>321.0</ele><time>2026-04-04T13:36:56.011Z</time></trkpt><trkpt lat="43.499895" lon="10.4261667"><ele>321.0</ele><time>2026-04-04T13:37:16.012Z</time></trkpt><trkpt lat="43.4998267" lon="10.42603"><ele>321.0</ele><time>2026-04-04T13:37:20.012Z</time></trkpt><trkpt lat="43.4997617" lon="10.4259617"><ele>321.0</ele><time>2026-04-04T13:37:22.011Z</time></trkpt><trkpt lat="43.49966" lon="10.42599"><ele>321.0</ele><time>2026-04-04T13:37:25.011Z</time></trkpt><trkpt lat="43.49959" lon="10.4260917"><ele>321.0</ele><time>2026-04-04T13:37:26.011Z</time></trkpt><trkpt lat="43.4995133" lon="10.426215"><ele>321.0</ele><time>2026-04-04T13:37:27.011Z</time></trkpt><trkpt lat="43.4994333" lon="10.42636"><ele>319.6666666666667</ele><time>2026-04-04T13:37:28.011Z</time></trkpt><trkpt lat="43.4993683" lon="10.4265417"><ele>318.33333333333337</ele><time>2026-04-04T13:37:29.011Z</time></trkpt><trkpt lat="43.4993267" lon="10.42677"><ele>317.0</ele><time>2026-04-04T13:37:30.011Z</time></trkpt><trkpt lat="43.499295" lon="10.4270233"><ele>317.0</ele><time>2026-04-04T13:37:31.011Z</time></trkpt><trkpt lat="43.4992883" lon="10.4272867"><ele>317.0</ele><time>2026-04-04T13:37:32.011Z</time></trkpt><trkpt lat="43.499305" lon="10.4275333"><ele>317.0</ele><time>2026-04-04T13:37:33.011Z</time></trkpt><trkpt lat="43.4993333" lon="10.4277567"><ele>317.0</ele><time>2026-04-04T13:37:34.012Z</time></trkpt><trkpt lat="43.4993633" lon="10.4279533"><ele>317.0</ele><time>2026-04-04T13:37:35.011Z</time></trkpt><trkpt lat="43.4993733" lon="10.4281283"><ele>317.0</ele><time>2026-04-04T13:37:36.012Z</time></trkpt><trkpt lat="43.49935" lon="10.428275"><ele>317.0</ele><time>2026-04-04T13:37:37.011Z</time></trkpt><trkpt lat="43.4993" lon="10.4283817"><ele>316.0</ele><time>2026-04-04T13:37:38.011Z</time></trkpt><trkpt lat="43.4992333" lon="10.42846"><ele>315.0</ele><time>2026-04-04T13:37:39.012Z</time></trkpt><trkpt lat="43.4990867" lon="10.4284917"><ele>314.0</ele><time>2026-04-04T13:37:40.011Z</time></trkpt><trkpt lat="43.4989233" lon="10.4285217"><ele>313.0</ele><time>2026-04-04T13:37:41.011Z</time></trkpt><trkpt lat="43.49874" lon="10.428565"><ele>314.0</ele><time>2026-04-04T13:37:42.011Z</time></trkpt><trkpt lat="43.4985467" lon="10.4286217"><ele>315.0</ele><time>2026-04-04T13:37:43.011Z</time></trkpt><trkpt lat="43.49836" lon="10.42871"><ele>316.0</ele><time>2026-04-04T13:37:44.011Z</time></trkpt><trkpt lat="43.4981667" lon="10.4288383"><ele>316.0</ele><time>2026-04-04T13:37:45.012Z</time></trkpt><trkpt lat="43.4979717" lon="10.4289917"><ele>316.0</ele><time>2026-04-04T13:37:46.011Z</time></trkpt><trkpt lat="43.4977783" lon="10.4291467"><ele>316.0</ele><time>2026-04-04T13:37:47.012Z</time></trkpt><trkpt lat="43.4975883" lon="10.4293133"><ele>311.3333333333333</ele><time>2026-04-04T13:37:48.013Z</time></trkpt><trkpt lat="43.4973983" lon="10.429475"><ele>306.6666666666667</ele><time>2026-04-04T13:37:49.012Z</time></trkpt><trkpt lat="43.4972133" lon="10.42963"><ele>302.0</ele><time>2026-04-04T13:37:50.012Z</time></trkpt><trkpt lat="43.4970217" lon="10.4297633"><ele>302.0</ele><time>2026-04-04T13:37:51.013Z</time></trkpt><trkpt lat="43.4968517" lon="10.429915"><ele>302.0</ele><time>2026-04-04T13:37:52.013Z</time></trkpt><trkpt lat="43.4966917" lon="10.430085"><ele>302.0</ele><time>2026-04-04T13:37:53.013Z</time></trkpt><trkpt lat="43.4965417" lon="10.43027"><ele>302.0</ele><time>2026-04-04T13:37:54.013Z</time></trkpt><trkpt lat="43.496395" lon="10.43046"><ele>302.0</ele><time>2026-04-04T13:37:55.012Z</time></trkpt><trkpt lat="43.496255" lon="10.430665"><ele>302.0</ele><time>2026-04-04T13:37:56.012Z</time></trkpt><trkpt lat="43.4961317" lon="10.4309117"><ele>301.33333333333337</ele><time>2026-04-04T13:37:57.012Z</time></trkpt><trkpt lat="43.4960233" lon="10.4311717"><ele>300.6666666666667</ele><time>2026-04-04T13:37:58.012Z</time></trkpt><trkpt lat="43.4959267" lon="10.4314433"><ele>300.0</ele><time>2026-04-04T13:37:59.012Z</time></trkpt><trkpt lat="43.4958233" lon="10.43169"><ele>300.0</ele><time>2026-04-04T13:38:00.012Z</time></trkpt><trkpt lat="43.495715" lon="10.43191"><ele>300.0</ele><time>2026-04-04T13:38:01.012Z</time></trkpt><trkpt lat="43.4955917" lon="10.4321033"><ele>300.0</ele><time>2026-04-04T13:38:02.012Z</time></trkpt><trkpt lat="43.4954433" lon="10.4322617"><ele>299.0</ele><time>2026-04-04T13:38:03.012Z</time></trkpt><trkpt lat="43.495285" lon="10.43239"><ele>298.0</ele><time>2026-04-04T13:38:04.012Z</time></trkpt><trkpt lat="43.49512" lon="10.4324867"><ele>297.0</ele><time>2026-04-04T13:38:05.012Z</time></trkpt><trkpt lat="43.4949667" lon="10.4325767"><ele>297.0</ele><time>2026-04-04T13:38:06.011Z</time></trkpt><trkpt lat="43.4948133" lon="10.4326533"><ele>297.0</ele><time>2026-04-04T13:38:07.011Z</time></trkpt><trkpt lat="43.4946633" lon="10.43274"><ele>297.0</ele><time>2026-04-04T13:38:08.011Z</time></trkpt><trkpt lat="43.4945117" lon="10.4328483"><ele>295.3333333333333</ele><time>2026-04-04T13:38:09.01Z</time></trkpt><trkpt lat="43.4943733" lon="10.43297"><ele>293.66666666666663</ele><time>2026-04-04T13:38:10.011Z</time></trkpt><trkpt lat="43.4942567" lon="10.4331"><ele>292.0</ele><time>2026-04-04T13:38:11.01Z</time></trkpt><trkpt lat="43.4941683" lon="10.4332467"><ele>292.0</ele><time>2026-04-04T13:38:12.011Z</time></trkpt><trkpt lat="43.4941283" lon="10.4334167"><ele>292.0</ele><time>2026-04-04T13:38:13.011Z</time></trkpt><trkpt lat="43.4941183" lon="10.43362"><ele>292.0</ele><time>2026-04-04T13:38:14.011Z</time></trkpt><trkpt lat="43.494145" lon="10.4338617"><ele>291.0</ele><time>2026-04-04T13:38:15.011Z</time></trkpt><trkpt lat="43.4942" lon="10.434115"><ele>290.0</ele><time>2026-04-04T13:38:16.009Z</time></trkpt><trkpt lat="43.4942417" lon="10.4343717"><ele>289.0</ele><time>2026-04-04T13:38:17.01Z</time></trkpt><trkpt lat="43.49427" lon="10.4346283"><ele>287.66666666666663</ele><time>2026-04-04T13:38:18.01Z</time></trkpt><trkpt lat="43.494295" lon="10.43487"><ele>286.3333333333333</ele><time>2026-04-04T13:38:19.011Z</time></trkpt><trkpt lat="43.4943" lon="10.4351"><ele>285.0</ele><time>2026-04-04T13:38:20.01Z</time></trkpt><trkpt lat="43.4942783" lon="10.4353183"><ele>283.0</ele><time>2026-04-04T13:38:21.012Z</time></trkpt><trkpt lat="43.4942367" lon="10.435535"><ele>281.0</ele><time>2026-04-04T13:38:22.01Z</time></trkpt><trkpt lat="43.4941817" lon="10.435755"><ele>279.0</ele><time>2026-04-04T13:38:23.01Z</time></trkpt><trkpt lat="43.4941317" lon="10.43597"><ele>279.0</ele><time>2026-04-04T13:38:24.01Z</time></trkpt><trkpt lat="43.4940867" lon="10.4361667"><ele>279.0</ele><time>2026-04-04T13:38:25.01Z</time></trkpt><trkpt lat="43.4940433" lon="10.4363283"><ele>279.0</ele><time>2026-04-04T13:38:26.01Z</time></trkpt><trkpt lat="43.4939917" lon="10.436455"><ele>279.0</ele><time>2026-04-04T13:38:27.01Z</time></trkpt><trkpt lat="43.4939267" lon="10.4365367"><ele>278.0</ele><time>2026-04-04T13:38:28.011Z</time></trkpt><trkpt lat="43.4938517" lon="10.4365817"><ele>277.0</ele><time>2026-04-04T13:38:29.011Z</time></trkpt><trkpt lat="43.4937517" lon="10.4365933"><ele>276.0</ele><time>2026-04-04T13:38:30.01Z</time></trkpt><trkpt lat="43.4935983" lon="10.4365433"><ele>275.0</ele><time>2026-04-04T13:38:31.01Z</time></trkpt><trkpt lat="43.4934483" lon="10.4365033"><ele>273.0</ele><time>2026-04-04T13:38:32.011Z</time></trkpt><trkpt lat="43.493295" lon="10.4364967"><ele>271.0</ele><time>2026-04-04T13:38:33.01Z</time></trkpt><trkpt lat="43.4931517" lon="10.43651"><ele>269.0</ele><time>2026-04-04T13:38:34.01Z</time></trkpt><trkpt lat="43.4930067" lon="10.4365533"><ele>267.0</ele><time>2026-04-04T13:38:35.01Z</time></trkpt><trkpt lat="43.4928817" lon="10.4365983"><ele>265.0</ele><time>2026-04-04T13:38:36.01Z</time></trkpt><trkpt lat="43.4927567" lon="10.436605"><ele>263.0</ele><time>2026-04-04T13:38:37.01Z</time></trkpt><trkpt lat="43.492625" lon="10.4365467"><ele>261.0</ele><time>2026-04-04T13:38:38.01Z</time></trkpt><trkpt lat="43.492495" lon="10.4364867"><ele>259.0</ele><time>2026-04-04T13:38:39.011Z</time></trkpt><trkpt lat="43.4923617" lon="10.4364633"><ele>259.0</ele><time>2026-04-04T13:38:40.01Z</time></trkpt><trkpt lat="43.4922133" lon="10.436505"><ele>259.0</ele><time>2026-04-04T13:38:41.01Z</time></trkpt><trkpt lat="43.4920733" lon="10.4365517"><ele>259.0</ele><time>2026-04-04T13:38:42.01Z</time></trkpt><trkpt lat="43.4919483" lon="10.4365283"><ele>259.0</ele><time>2026-04-04T13:38:43.01Z</time></trkpt><trkpt lat="43.49182" lon="10.43648"><ele>256.5</ele><time>2026-04-04T13:38:44.011Z</time></trkpt><trkpt lat="43.4916883" lon="10.4364517"><ele>254.0</ele><time>2026-04-04T13:38:45.011Z</time></trkpt><trkpt lat="43.4915533" lon="10.4364733"><ele>251.5</ele><time>2026-04-04T13:38:46.01Z</time></trkpt><trkpt lat="43.4914233" lon="10.4365"><ele>249.0</ele><time>2026-04-04T13:38:47.009Z</time></trkpt><trkpt lat="43.4913033" lon="10.4364833"><ele>250.0</ele><time>2026-04-04T13:38:48.011Z</time></trkpt><trkpt lat="43.4911883" lon="10.4364067"><ele>251.0</ele><time>2026-04-04T13:38:49.011Z</time></trkpt><trkpt lat="43.491085" lon="10.4362917"><ele>252.0</ele><time>2026-04-04T13:38:50.011Z</time></trkpt><trkpt lat="43.4909833" lon="10.43617"><ele>253.0</ele><time>2026-04-04T13:38:51.011Z</time></trkpt><trkpt lat="43.4908733" lon="10.4360933"><ele>253.0</ele><time>2026-04-04T13:38:52.011Z</time></trkpt><trkpt lat="43.4907617" lon="10.43608"><ele>253.0</ele><time>2026-04-04T13:38:53.01Z</time></trkpt><trkpt lat="43.4906467" lon="10.436135"><ele>253.0</ele><time>2026-04-04T13:38:54.01Z</time></trkpt><trkpt lat="43.4905417" lon="10.4362483"><ele>253.0</ele><time>2026-04-04T13:38:55.01Z</time></trkpt><trkpt lat="43.490445" lon="10.4363617"><ele>249.25</ele><time>2026-04-04T13:38:56.011Z</time></trkpt><trkpt lat="43.4903483" lon="10.4364533"><ele>245.5</ele><time>2026-04-04T13:38:57.011Z</time></trkpt><trkpt lat="43.4902417" lon="10.4364933"><ele>241.75</ele><time>2026-04-04T13:38:58.01Z</time></trkpt><trkpt lat="43.4901167" lon="10.4364783"><ele>238.0</ele><time>2026-04-04T13:38:59.01Z</time></trkpt><trkpt lat="43.4899783" lon="10.4363983"><ele>240.0</ele><time>2026-04-04T13:39:00.01Z</time></trkpt><trkpt lat="43.4898467" lon="10.436295"><ele>242.0</ele><time>2026-04-04T13:39:01.011Z</time></trkpt><trkpt lat="43.4897317" lon="10.4362133"><ele>244.0</ele><time>2026-04-04T13:39:02.01Z</time></trkpt><trkpt lat="43.4896183" lon="10.4361833"><ele>246.0</ele><time>2026-04-04T13:39:03.013Z</time></trkpt><trkpt lat="43.4895117" lon="10.4362067"><ele>243.5</ele><time>2026-04-04T13:39:04.011Z</time></trkpt><trkpt lat="43.4894233" lon="10.436315"><ele>241.0</ele><time>2026-04-04T13:39:05.012Z</time></trkpt><trkpt lat="43.4893417" lon="10.4364717"><ele>238.5</ele><time>2026-04-04T13:39:06.009Z</time></trkpt><trkpt lat="43.4892667" lon="10.43667"><ele>236.0</ele><time>2026-04-04T13:39:07.012Z</time></trkpt><trkpt lat="43.4891883" lon="10.436865"><ele>236.0</ele><time>2026-04-04T13:39:08.01Z</time></trkpt><trkpt lat="43.4890983" lon="10.4370367"><ele>236.0</ele><time>2026-04-04T13:39:09.011Z</time></trkpt><trkpt lat="43.4889883" lon="10.4371767"><ele>236.0</ele><time>2026-04-04T13:39:10.01Z</time></trkpt><trkpt lat="43.4888483" lon="10.43728"><ele>235.33333333333334</ele><time>2026-04-04T13:39:11.01Z</time></trkpt><trkpt lat="43.488685" lon="10.437365"><ele>234.66666666666669</ele><time>2026-04-04T13:39:12.01Z</time></trkpt><trkpt lat="43.488525" lon="10.4374467"><ele>234.0</ele><time>2026-04-04T13:39:13.01Z</time></trkpt><trkpt lat="43.4883717" lon="10.43754"><ele>234.0</ele><time>2026-04-04T13:39:14.01Z</time></trkpt><trkpt lat="43.488225" lon="10.4376667"><ele>234.0</ele><time>2026-04-04T13:39:15.012Z</time></trkpt><trkpt lat="43.4880883" lon="10.437825"><ele>234.0</ele><time>2026-04-04T13:39:16.01Z</time></trkpt><trkpt lat="43.487965" lon="10.438"><ele>234.33333333333331</ele><time>2026-04-04T13:39:17.01Z</time></trkpt><trkpt lat="43.4878633" lon="10.43818"><ele>234.66666666666666</ele><time>2026-04-04T13:39:18.012Z</time></trkpt><trkpt lat="43.4877633" lon="10.43835"><ele>235.0</ele><time>2026-04-04T13:39:19.01Z</time></trkpt><trkpt lat="43.4876567" lon="10.4384683"><ele>235.0</ele><time>2026-04-04T13:39:20.01Z</time></trkpt><trkpt lat="43.48754" lon="10.4385383"><ele>235.0</ele><time>2026-04-04T13:39:21.011Z</time></trkpt><trkpt lat="43.48742" lon="10.4385533"><ele>235.0</ele><time>2026-04-04T13:39:22.011Z</time></trkpt><trkpt lat="43.4873033" lon="10.4385117"><ele>235.0</ele><time>2026-04-04T13:39:23.011Z</time></trkpt><trkpt lat="43.4871833" lon="10.43842"><ele>236.33333333333331</ele><time>2026-04-04T13:39:24.011Z</time></trkpt><trkpt lat="43.487065" lon="10.4382917"><ele>237.66666666666669</ele><time>2026-04-04T13:39:25.011Z</time></trkpt><trkpt lat="43.4869367" lon="10.4381467"><ele>239.0</ele><time>2026-04-04T13:39:26.011Z</time></trkpt><trkpt lat="43.4867967" lon="10.4379967"><ele>233.33333333333334</ele><time>2026-04-04T13:39:27.011Z</time></trkpt><trkpt lat="43.4866483" lon="10.43786"><ele>227.66666666666669</ele><time>2026-04-04T13:39:28.011Z</time></trkpt><trkpt lat="43.486495" lon="10.4377383"><ele>222.0</ele><time>2026-04-04T13:39:29.011Z</time></trkpt><trkpt lat="43.4863433" lon="10.4376367"><ele>220.66666666666669</ele><time>2026-04-04T13:39:30.01Z</time></trkpt><trkpt lat="43.4861917" lon="10.4375683"><ele>219.33333333333334</ele><time>2026-04-04T13:39:31.012Z</time></trkpt><trkpt lat="43.486035" lon="10.4375417"><ele>218.0</ele><time>2026-04-04T13:39:32.01Z</time></trkpt><trkpt lat="43.48587" lon="10.4375733"><ele>218.0</ele><time>2026-04-04T13:39:33.011Z</time></trkpt><trkpt lat="43.485705" lon="10.437635"><ele>218.0</ele><time>2026-04-04T13:39:34.011Z</time></trkpt><trkpt lat="43.485545" lon="10.4377433"><ele>218.0</ele><time>2026-04-04T13:39:35.01Z</time></trkpt><trkpt lat="43.48539" lon="10.4378833"><ele>218.0</ele><time>2026-04-04T13:39:36.011Z</time></trkpt><trkpt lat="43.4852417" lon="10.4380433"><ele>218.0</ele><time>2026-04-04T13:39:37.011Z</time></trkpt><trkpt lat="43.4851033" lon="10.4382017"><ele>218.0</ele><time>2026-04-04T13:39:38.012Z</time></trkpt><trkpt lat="43.4849583" lon="10.4383417"><ele>218.0</ele><time>2026-04-04T13:39:39.011Z</time></trkpt><trkpt lat="43.4848233" lon="10.43847"><ele>218.0</ele><time>2026-04-04T13:39:40.01Z</time></trkpt><trkpt lat="43.484705" lon="10.4386133"><ele>218.0</ele><time>2026-04-04T13:39:41.011Z</time></trkpt><trkpt lat="43.4846" lon="10.438765"><ele>216.0</ele><time>2026-04-04T13:39:42.011Z</time></trkpt><trkpt lat="43.4845117" lon="10.4389283"><ele>214.0</ele><time>2026-04-04T13:39:43.011Z</time></trkpt><trkpt lat="43.4844333" lon="10.4390983"><ele>212.0</ele><time>2026-04-04T13:39:44.011Z</time></trkpt><trkpt lat="43.4843567" lon="10.4392683"><ele>210.0</ele><time>2026-04-04T13:39:45.011Z</time></trkpt><trkpt lat="43.4842667" lon="10.4394167"><ele>210.0</ele><time>2026-04-04T13:39:46.011Z</time></trkpt><trkpt lat="43.4841617" lon="10.4395367"><ele>210.0</ele><time>2026-04-04T13:39:47.01Z</time></trkpt><trkpt lat="43.4840567" lon="10.4396383"><ele>210.0</ele><time>2026-04-04T13:39:48.01Z</time></trkpt><trkpt lat="43.4839617" lon="10.4397283"><ele>210.0</ele><time>2026-04-04T13:39:49.01Z</time></trkpt><trkpt lat="43.4838733" lon="10.439815"><ele>208.8</ele><time>2026-04-04T13:39:50.011Z</time></trkpt><trkpt lat="43.4837867" lon="10.4399017"><ele>207.6</ele><time>2026-04-04T13:39:51.011Z</time></trkpt><trkpt lat="43.483705" lon="10.4399817"><ele>206.39999999999998</ele><time>2026-04-04T13:39:52.01Z</time></trkpt><trkpt lat="43.4836317" lon="10.4400583"><ele>205.2</ele><time>2026-04-04T13:39:53.011Z</time></trkpt><trkpt lat="43.4835633" lon="10.440125"><ele>204.0</ele><time>2026-04-04T13:39:54.01Z</time></trkpt><trkpt lat="43.4834967" lon="10.4401917"><ele>204.0</ele><time>2026-04-04T13:39:55.011Z</time></trkpt><trkpt lat="43.4834317" lon="10.440265"><ele>204.0</ele><time>2026-04-04T13:39:56.011Z</time></trkpt><trkpt lat="43.4833667" lon="10.4403383"><ele>204.0</ele><time>2026-04-04T13:39:57.011Z</time></trkpt><trkpt lat="43.4833017" lon="10.4404117"><ele>204.0</ele><time>2026-04-04T13:39:58.011Z</time></trkpt><trkpt lat="43.48324" lon="10.4404867"><ele>204.0</ele><time>2026-04-04T13:39:59.011Z</time></trkpt><trkpt lat="43.4831817" lon="10.4405517"><ele>204.0</ele><time>2026-04-04T13:40:00.012Z</time></trkpt><trkpt lat="43.483125" lon="10.4406"><ele>204.16666666666666</ele><time>2026-04-04T13:40:01.011Z</time></trkpt><trkpt lat="43.4830333" lon="10.4406967"><ele>204.33333333333331</ele><time>2026-04-04T13:40:03.012Z</time></trkpt><trkpt lat="43.4829767" lon="10.4407633"><ele>204.5</ele><time>2026-04-04T13:40:05.011Z</time></trkpt><trkpt lat="43.4829317" lon="10.44087"><ele>204.66666666666666</ele><time>2026-04-04T13:40:30.011Z</time></trkpt><trkpt lat="43.4828833" lon="10.4409367"><ele>204.83333333333331</ele><time>2026-04-04T13:40:31.012Z</time></trkpt><trkpt lat="43.4828283" lon="10.441005"><ele>205.0</ele><time>2026-04-04T13:40:32.012Z</time></trkpt><trkpt lat="43.4827733" lon="10.4410667"><ele>204.99999999999997</ele><time>2026-04-04T13:40:33.013Z</time></trkpt><trkpt lat="43.4827217" lon="10.441125"><ele>205.0</ele><time>2026-04-04T13:40:34.012Z</time></trkpt><trkpt lat="43.48265" lon="10.44123"><ele>205.0</ele><time>2026-04-04T13:40:36.013Z</time></trkpt><trkpt lat="43.4825733" lon="10.4412633"><ele>205.0</ele><time>2026-04-04T13:40:38.012Z</time></trkpt><trkpt lat="43.482485" lon="10.44126"><ele>204.99999999999997</ele><time>2026-04-04T13:40:40.011Z</time></trkpt><trkpt lat="43.4824083" lon="10.4412533"><ele>205.0</ele><time>2026-04-04T13:40:41.01Z</time></trkpt><trkpt lat="43.4823033" lon="10.44124"><ele>205.0</ele><time>2026-04-04T13:40:43.01Z</time></trkpt><trkpt lat="43.4822433" lon="10.4412133"><ele>205.0</ele><time>2026-04-04T13:40:44.011Z</time></trkpt><trkpt lat="43.4821517" lon="10.441145"><ele>205.0</ele><time>2026-04-04T13:40:46.01Z</time></trkpt><trkpt lat="43.482065" lon="10.441055"><ele>205.0</ele><time>2026-04-04T13:40:48.012Z</time></trkpt><trkpt lat="43.4819617" lon="10.44097"><ele>205.0</ele><time>2026-04-04T13:40:50.011Z</time></trkpt><trkpt lat="43.481845" lon="10.44092"><ele>204.6</ele><time>2026-04-04T13:40:52.011Z</time></trkpt><trkpt lat="43.4817283" lon="10.44097"><ele>204.2</ele><time>2026-04-04T13:40:54.011Z</time></trkpt><trkpt lat="43.4816717" lon="10.4410417"><ele>203.8</ele><time>2026-04-04T13:40:55.011Z</time></trkpt><trkpt lat="43.48165" lon="10.4411567"><ele>203.4</ele><time>2026-04-04T13:40:56.011Z</time></trkpt><trkpt lat="43.4816383" lon="10.4412717"><ele>203.0</ele><time>2026-04-04T13:40:57.012Z</time></trkpt><trkpt lat="43.4816483" lon="10.4414017"><ele>201.8</ele><time>2026-04-04T13:40:58.01Z</time></trkpt><trkpt lat="43.4816683" lon="10.4415333"><ele>200.60000000000002</ele><time>2026-04-04T13:40:59.011Z</time></trkpt><trkpt lat="43.4816833" lon="10.44167"><ele>199.39999999999998</ele><time>2026-04-04T13:41:00.011Z</time></trkpt><trkpt lat="43.4816933" lon="10.4418067"><ele>198.2</ele><time>2026-04-04T13:41:01.011Z</time></trkpt><trkpt lat="43.4817067" lon="10.4419433"><ele>197.0</ele><time>2026-04-04T13:41:02.011Z</time></trkpt><trkpt lat="43.481725" lon="10.4420833"><ele>195.6</ele><time>2026-04-04T13:41:03.011Z</time></trkpt><trkpt lat="43.4817433" lon="10.4422317"><ele>194.2</ele><time>2026-04-04T13:41:04.012Z</time></trkpt><trkpt lat="43.48176" lon="10.442375"><ele>192.8</ele><time>2026-04-04T13:41:05.011Z</time></trkpt><trkpt lat="43.4817817" lon="10.4425083"><ele>191.4</ele><time>2026-04-04T13:41:06.01Z</time></trkpt><trkpt lat="43.4818033" lon="10.442635"><ele>190.0</ele><time>2026-04-04T13:41:07.01Z</time></trkpt><trkpt lat="43.4818217" lon="10.4427567"><ele>190.0</ele><time>2026-04-04T13:41:08.01Z</time></trkpt><trkpt lat="43.4818417" lon="10.4428783"><ele>190.0</ele><time>2026-04-04T13:41:09.012Z</time></trkpt><trkpt lat="43.4818617" lon="10.443"><ele>190.0</ele><time>2026-04-04T13:41:10.01Z</time></trkpt><trkpt lat="43.481865" lon="10.4431233"><ele>190.0</ele><time>2026-04-04T13:41:11.01Z</time></trkpt><trkpt lat="43.4818367" lon="10.4432467"><ele>190.0</ele><time>2026-04-04T13:41:12.011Z</time></trkpt><trkpt lat="43.4817717" lon="10.443365"><ele>189.0</ele><time>2026-04-04T13:41:13.011Z</time></trkpt><trkpt lat="43.4817267" lon="10.4434917"><ele>188.0</ele><time>2026-04-04T13:41:14.01Z</time></trkpt><trkpt lat="43.4817067" lon="10.4436333"><ele>187.0</ele><time>2026-04-04T13:41:15.011Z</time></trkpt><trkpt lat="43.4817117" lon="10.4437717"><ele>186.0</ele><time>2026-04-04T13:41:16.011Z</time></trkpt><trkpt lat="43.4817133" lon="10.4439117"><ele>185.0</ele><time>2026-04-04T13:41:17.01Z</time></trkpt><trkpt lat="43.48171" lon="10.4440567"><ele>185.0</ele><time>2026-04-04T13:41:18.012Z</time></trkpt><trkpt lat="43.48168" lon="10.4441983"><ele>185.0</ele><time>2026-04-04T13:41:19.012Z</time></trkpt><trkpt lat="43.4816133" lon="10.4443233"><ele>185.0</ele><time>2026-04-04T13:41:20.013Z</time></trkpt><trkpt lat="43.4815217" lon="10.4444317"><ele>185.0</ele><time>2026-04-04T13:41:21.013Z</time></trkpt><trkpt lat="43.4814133" lon="10.4445117"><ele>185.0</ele><time>2026-04-04T13:41:22.012Z</time></trkpt><trkpt lat="43.481295" lon="10.4445617"><ele>185.0</ele><time>2026-04-04T13:41:23.011Z</time></trkpt><trkpt lat="43.481175" lon="10.4446217"><ele>185.0</ele><time>2026-04-04T13:41:24.011Z</time></trkpt><trkpt lat="43.4810667" lon="10.4447033"><ele>185.0</ele><time>2026-04-04T13:41:25.01Z</time></trkpt><trkpt lat="43.48098" lon="10.4448017"><ele>181.5</ele><time>2026-04-04T13:41:26.01Z</time></trkpt><trkpt lat="43.480915" lon="10.4449283"><ele>178.0</ele><time>2026-04-04T13:41:27.011Z</time></trkpt><trkpt lat="43.4808833" lon="10.445075"><ele>174.5</ele><time>2026-04-04T13:41:28.011Z</time></trkpt><trkpt lat="43.48089" lon="10.4452317"><ele>171.0</ele><time>2026-04-04T13:41:29.011Z</time></trkpt><trkpt lat="43.4809283" lon="10.4453967"><ele>169.66666666666666</ele><time>2026-04-04T13:41:30.01Z</time></trkpt><trkpt lat="43.480995" lon="10.4455667"><ele>168.33333333333331</ele><time>2026-04-04T13:41:31.012Z</time></trkpt><trkpt lat="43.4810717" lon="10.44575"><ele>167.0</ele><time>2026-04-04T13:41:32.011Z</time></trkpt><trkpt lat="43.48115" lon="10.4459433"><ele>167.0</ele><time>2026-04-04T13:41:33.012Z</time></trkpt><trkpt lat="43.4812333" lon="10.4461433"><ele>167.0</ele><time>2026-04-04T13:41:34.012Z</time></trkpt><trkpt lat="43.481315" lon="10.4463383"><ele>167.0</ele><time>2026-04-04T13:41:35.01Z</time></trkpt><trkpt lat="43.4814067" lon="10.4465183"><ele>166.25</ele><time>2026-04-04T13:41:36.011Z</time></trkpt><trkpt lat="43.4815033" lon="10.4466783"><ele>165.5</ele><time>2026-04-04T13:41:37.011Z</time></trkpt><trkpt lat="43.4815967" lon="10.4468333"><ele>164.75</ele><time>2026-04-04T13:41:38.012Z</time></trkpt><trkpt lat="43.481675" lon="10.4469983"><ele>164.0</ele><time>2026-04-04T13:41:39.011Z</time></trkpt><trkpt lat="43.48174" lon="10.44716"><ele>162.0</ele><time>2026-04-04T13:41:40.011Z</time></trkpt><trkpt lat="43.48178" lon="10.44731"><ele>160.0</ele><time>2026-04-04T13:41:41.012Z</time></trkpt><trkpt lat="43.4818217" lon="10.44744"><ele>158.0</ele><time>2026-04-04T13:41:42.011Z</time></trkpt><trkpt lat="43.4818683" lon="10.447555"><ele>156.0</ele><time>2026-04-04T13:41:43.011Z</time></trkpt><trkpt lat="43.48193" lon="10.44766"><ele>154.0</ele><time>2026-04-04T13:41:44.012Z</time></trkpt><trkpt lat="43.4820283" lon="10.447745"><ele>153.5</ele><time>2026-04-04T13:41:45.012Z</time></trkpt><trkpt lat="43.4821467" lon="10.4478067"><ele>153.0</ele><time>2026-04-04T13:41:46.012Z</time></trkpt><trkpt lat="43.4822667" lon="10.4478717"><ele>152.5</ele><time>2026-04-04T13:41:47.013Z</time></trkpt><trkpt lat="43.4823783" lon="10.4479583"><ele>152.0</ele><time>2026-04-04T13:41:48.012Z</time></trkpt><trkpt lat="43.4824567" lon="10.4480833"><ele>152.0</ele><time>2026-04-04T13:41:49.012Z</time></trkpt><trkpt lat="43.4825083" lon="10.4482317"><ele>152.0</ele><time>2026-04-04T13:41:50.012Z</time></trkpt><trkpt lat="43.4825233" lon="10.4483967"><ele>152.0</ele><time>2026-04-04T13:41:51.012Z</time></trkpt><trkpt lat="43.48251" lon="10.448565"><ele>152.0</ele><time>2026-04-04T13:41:52.012Z</time></trkpt><trkpt lat="43.4824833" lon="10.4487267"><ele>150.25</ele><time>2026-04-04T13:41:53.011Z</time></trkpt><trkpt lat="43.48246" lon="10.4488867"><ele>148.5</ele><time>2026-04-04T13:41:54.013Z</time></trkpt><trkpt lat="43.4824483" lon="10.44905"><ele>146.75</ele><time>2026-04-04T13:41:55.012Z</time></trkpt><trkpt lat="43.482455" lon="10.44922"><ele>145.0</ele><time>2026-04-04T13:41:56.011Z</time></trkpt><trkpt lat="43.48249" lon="10.4493817"><ele>145.0</ele><time>2026-04-04T13:41:57.01Z</time></trkpt><trkpt lat="43.482545" lon="10.4495317"><ele>145.0</ele><time>2026-04-04T13:41:58.011Z</time></trkpt><trkpt lat="43.482625" lon="10.4496683"><ele>145.0</ele><time>2026-04-04T13:41:59.011Z</time></trkpt><trkpt lat="43.4827267" lon="10.4498"><ele>145.0</ele><time>2026-04-04T13:42:00.011Z</time></trkpt><trkpt lat="43.4828283" lon="10.4499317"><ele>144.75</ele><time>2026-04-04T13:42:01.011Z</time></trkpt><trkpt lat="43.48292" lon="10.45007"><ele>144.5</ele><time>2026-04-04T13:42:02.011Z</time></trkpt><trkpt lat="43.483005" lon="10.4502067"><ele>144.25</ele><time>2026-04-04T13:42:03.014Z</time></trkpt><trkpt lat="43.48307" lon="10.4503583"><ele>144.0</ele><time>2026-04-04T13:42:04.013Z</time></trkpt><trkpt lat="43.483115" lon="10.4505267"><ele>141.25</ele><time>2026-04-04T13:42:05.015Z</time></trkpt><trkpt lat="43.483135" lon="10.45072"><ele>138.5</ele><time>2026-04-04T13:42:06.012Z</time></trkpt><trkpt lat="43.4831433" lon="10.450905"><ele>135.75</ele><time>2026-04-04T13:42:07.014Z</time></trkpt><trkpt lat="43.4831433" lon="10.45109"><ele>133.0</ele><time>2026-04-04T13:42:08.013Z</time></trkpt><trkpt lat="43.48313" lon="10.4512767"><ele>130.5</ele><time>2026-04-04T13:42:09.013Z</time></trkpt><trkpt lat="43.4831" lon="10.451455"><ele>128.0</ele><time>2026-04-04T13:42:10.012Z</time></trkpt><trkpt lat="43.4830567" lon="10.4516317"><ele>125.5</ele><time>2026-04-04T13:42:11.012Z</time></trkpt><trkpt lat="43.4830067" lon="10.4518117"><ele>123.0</ele><time>2026-04-04T13:42:12.012Z</time></trkpt><trkpt lat="43.4829483" lon="10.452"><ele>121.66666666666666</ele><time>2026-04-04T13:42:13.012Z</time></trkpt><trkpt lat="43.4828867" lon="10.452195"><ele>120.33333333333333</ele><time>2026-04-04T13:42:14.013Z</time></trkpt><trkpt lat="43.4828217" lon="10.4523917"><ele>119.0</ele><time>2026-04-04T13:42:15.013Z</time></trkpt><trkpt lat="43.48276" lon="10.4525867"><ele>119.0</ele><time>2026-04-04T13:42:16.012Z</time></trkpt><trkpt lat="43.4827033" lon="10.4527767"><ele>119.0</ele><time>2026-04-04T13:42:17.01Z</time></trkpt><trkpt lat="43.4826367" lon="10.452955"><ele>119.0</ele><time>2026-04-04T13:42:18.012Z</time></trkpt><trkpt lat="43.48255" lon="10.4531217"><ele>119.0</ele><time>2026-04-04T13:42:19.012Z</time></trkpt><trkpt lat="43.482445" lon="10.453265"><ele>116.25</ele><time>2026-04-04T13:42:20.01Z</time></trkpt><trkpt lat="43.4823217" lon="10.4533733"><ele>113.5</ele><time>2026-04-04T13:42:21.012Z</time></trkpt><trkpt lat="43.4821933" lon="10.4534567"><ele>110.75</ele><time>2026-04-04T13:42:22.011Z</time></trkpt><trkpt lat="43.482075" lon="10.4535517"><ele>108.0</ele><time>2026-04-04T13:42:23.011Z</time></trkpt><trkpt lat="43.481975" lon="10.4536883"><ele>105.0</ele><time>2026-04-04T13:42:24.01Z</time></trkpt><trkpt lat="43.4819067" lon="10.45386"><ele>102.0</ele><time>2026-04-04T13:42:25.01Z</time></trkpt><trkpt lat="43.48186" lon="10.45406"><ele>99.0</ele><time>2026-04-04T13:42:26.01Z</time></trkpt><trkpt lat="43.481835" lon="10.4542767"><ele>99.0</ele><time>2026-04-04T13:42:27.011Z</time></trkpt><trkpt lat="43.4818133" lon="10.4545083"><ele>99.0</ele><time>2026-04-04T13:42:28.01Z</time></trkpt><trkpt lat="43.48179" lon="10.4547483"><ele>99.0</ele><time>2026-04-04T13:42:29.01Z</time></trkpt><trkpt lat="43.48177" lon="10.4549833"><ele>97.66666666666667</ele><time>2026-04-04T13:42:30.01Z</time></trkpt><trkpt lat="43.48175" lon="10.4552167"><ele>96.33333333333334</ele><time>2026-04-04T13:42:31.01Z</time></trkpt><trkpt lat="43.4817283" lon="10.4554483"><ele>95.0</ele><time>2026-04-04T13:42:32.01Z</time></trkpt><trkpt lat="43.4817083" lon="10.4556733"><ele>94.0</ele><time>2026-04-04T13:42:33.01Z</time></trkpt><trkpt lat="43.4816933" lon="10.4558983"><ele>93.0</ele><time>2026-04-04T13:42:34.01Z</time></trkpt><trkpt lat="43.48169" lon="10.456125"><ele>92.0</ele><time>2026-04-04T13:42:35.01Z</time></trkpt><trkpt lat="43.4817067" lon="10.4563533"><ele>92.0</ele><time>2026-04-04T13:42:36.011Z</time></trkpt><trkpt lat="43.4817417" lon="10.4565833"><ele>92.0</ele><time>2026-04-04T13:42:37.012Z</time></trkpt><trkpt lat="43.4817867" lon="10.4568083"><ele>92.0</ele><time>2026-04-04T13:42:38.011Z</time></trkpt><trkpt lat="43.4818517" lon="10.45703"><ele>91.33333333333334</ele><time>2026-04-04T13:42:39.012Z</time></trkpt><trkpt lat="43.4819233" lon="10.4572483"><ele>90.66666666666667</ele><time>2026-04-04T13:42:40.011Z</time></trkpt><trkpt lat="43.482" lon="10.4574617"><ele>90.0</ele><time>2026-04-04T13:42:41.011Z</time></trkpt><trkpt lat="43.4820717" lon="10.4576717"><ele>88.66666666666667</ele><time>2026-04-04T13:42:42.009Z</time></trkpt><trkpt lat="43.4821183" lon="10.4578733"><ele>87.33333333333334</ele><time>2026-04-04T13:42:43.01Z</time></trkpt><trkpt lat="43.48215" lon="10.458085"><ele>86.0</ele><time>2026-04-04T13:42:44.012Z</time></trkpt><trkpt lat="43.4821683" lon="10.45831"><ele>85.0</ele><time>2026-04-04T13:42:45.01Z</time></trkpt><trkpt lat="43.4821717" lon="10.458545"><ele>84.0</ele><time>2026-04-04T13:42:46.01Z</time></trkpt><trkpt lat="43.482175" lon="10.45879"><ele>83.0</ele><time>2026-04-04T13:42:47.01Z</time></trkpt><trkpt lat="43.4821717" lon="10.45904"><ele>82.0</ele><time>2026-04-04T13:42:48.011Z</time></trkpt><trkpt lat="43.482165" lon="10.4592983"><ele>81.0</ele><time>2026-04-04T13:42:49.011Z</time></trkpt><trkpt lat="43.48215" lon="10.45956"><ele>80.0</ele><time>2026-04-04T13:42:50.011Z</time></trkpt><trkpt lat="43.4821267" lon="10.45983"><ele>80.0</ele><time>2026-04-04T13:42:51.011Z</time></trkpt><trkpt lat="43.4821017" lon="10.460105"><ele>80.0</ele><time>2026-04-04T13:42:52.012Z</time></trkpt><trkpt lat="43.4820767" lon="10.46037"><ele>80.0</ele><time>2026-04-04T13:42:53.011Z</time></trkpt><trkpt lat="43.48206" lon="10.4606233"><ele>80.33333333333334</ele><time>2026-04-04T13:42:54.011Z</time></trkpt><trkpt lat="43.4820583" lon="10.4608567"><ele>80.66666666666667</ele><time>2026-04-04T13:42:55.011Z</time></trkpt><trkpt lat="43.48209" lon="10.46108"><ele>81.0</ele><time>2026-04-04T13:42:56.012Z</time></trkpt><trkpt lat="43.48216" lon="10.461285"><ele>78.33333333333333</ele><time>2026-04-04T13:42:57.011Z</time></trkpt><trkpt lat="43.4822567" lon="10.461475"><ele>75.66666666666666</ele><time>2026-04-04T13:42:58.011Z</time></trkpt><trkpt lat="43.48238" lon="10.46164"><ele>73.0</ele><time>2026-04-04T13:42:59.012Z</time></trkpt><trkpt lat="43.4825233" lon="10.46178"><ele>73.0</ele><time>2026-04-04T13:43:00.012Z</time></trkpt><trkpt lat="43.482685" lon="10.4619117"><ele>73.0</ele><time>2026-04-04T13:43:01.011Z</time></trkpt><trkpt lat="43.4828533" lon="10.4620467"><ele>73.0</ele><time>2026-04-04T13:43:02.011Z</time></trkpt><trkpt lat="43.483025" lon="10.4621867"><ele>72.33333333333333</ele><time>2026-04-04T13:43:03.011Z</time></trkpt><trkpt lat="43.4831933" lon="10.4623383"><ele>71.66666666666667</ele><time>2026-04-04T13:43:04.012Z</time></trkpt><trkpt lat="43.48335" lon="10.4625133"><ele>71.0</ele><time>2026-04-04T13:43:05.013Z</time></trkpt><trkpt lat="43.4834783" lon="10.4627317"><ele>70.66666666666667</ele><time>2026-04-04T13:43:06.011Z</time></trkpt><trkpt lat="43.4835883" lon="10.462975"><ele>70.33333333333333</ele><time>2026-04-04T13:43:07.011Z</time></trkpt><trkpt lat="43.4836883" lon="10.4632317"><ele>70.0</ele><time>2026-04-04T13:43:08.011Z</time></trkpt><trkpt lat="43.4837917" lon="10.463485"><ele>70.0</ele><time>2026-04-04T13:43:09.013Z</time></trkpt><trkpt lat="43.4839083" lon="10.46373"><ele>70.0</ele><time>2026-04-04T13:43:10.011Z</time></trkpt><trkpt lat="43.4840383" lon="10.4639683"><ele>70.0</ele><time>2026-04-04T13:43:11.011Z</time></trkpt><trkpt lat="43.4841733" lon="10.4642083"><ele>68.33333333333333</ele><time>2026-04-04T13:43:12.011Z</time></trkpt><trkpt lat="43.4843033" lon="10.46444"><ele>66.66666666666667</ele><time>2026-04-04T13:43:13.011Z</time></trkpt><trkpt lat="43.48443" lon="10.46466"><ele>65.0</ele><time>2026-04-04T13:43:14.012Z</time></trkpt><trkpt lat="43.48455" lon="10.4648717"><ele>65.0</ele><time>2026-04-04T13:43:15.011Z</time></trkpt><trkpt lat="43.4846567" lon="10.4650767"><ele>65.0</ele><time>2026-04-04T13:43:16.011Z</time></trkpt><trkpt lat="43.4847483" lon="10.4652733"><ele>65.0</ele><time>2026-04-04T13:43:17.01Z</time></trkpt><trkpt lat="43.48483" lon="10.4654633"><ele>65.0</ele><time>2026-04-04T13:43:18.011Z</time></trkpt><trkpt lat="43.484905" lon="10.465645"><ele>65.0</ele><time>2026-04-04T13:43:19.013Z</time></trkpt><trkpt lat="43.48497" lon="10.4658067"><ele>65.0</ele><time>2026-04-04T13:43:20.011Z</time></trkpt><trkpt lat="43.4850117" lon="10.4659433"><ele>65.0</ele><time>2026-04-04T13:43:21.011Z</time></trkpt><trkpt lat="43.4850383" lon="10.46605"><ele>65.0</ele><time>2026-04-04T13:43:22.011Z</time></trkpt><trkpt lat="43.4850583" lon="10.466135"><ele>65.0</ele><time>2026-04-04T13:43:23.01Z</time></trkpt><trkpt lat="43.4850717" lon="10.4662283"><ele>65.0</ele><time>2026-04-04T13:43:33.011Z</time></trkpt><trkpt lat="43.4851217" lon="10.46629"><ele>65.0</ele><time>2026-04-04T13:43:35.011Z</time></trkpt><trkpt lat="43.4852633" lon="10.4663467"><ele>65.0</ele><time>2026-04-04T13:43:37.012Z</time></trkpt><trkpt lat="43.4853933" lon="10.46634"><ele>66.0</ele><time>2026-04-04T13:43:38.011Z</time></trkpt><trkpt lat="43.485545" lon="10.4663167"><ele>67.0</ele><time>2026-04-04T13:43:39.012Z</time></trkpt><trkpt lat="43.4857133" lon="10.4662967"><ele>68.0</ele><time>2026-04-04T13:43:40.011Z</time></trkpt><trkpt lat="43.4859" lon="10.466285"><ele>68.0</ele><time>2026-04-04T13:43:41.013Z</time></trkpt><trkpt lat="43.4860933" lon="10.46627"><ele>68.0</ele><time>2026-04-04T13:43:42.012Z</time></trkpt><trkpt lat="43.4862933" lon="10.466255"><ele>68.0</ele><time>2026-04-04T13:43:43.012Z</time></trkpt><trkpt lat="43.4864967" lon="10.4662367"><ele>69.0</ele><time>2026-04-04T13:43:44.013Z</time></trkpt><trkpt lat="43.4867017" lon="10.46622"><ele>70.0</ele><time>2026-04-04T13:43:45.012Z</time></trkpt><trkpt lat="43.48691" lon="10.4662117"><ele>71.0</ele><time>2026-04-04T13:43:46.011Z</time></trkpt><trkpt lat="43.487115" lon="10.466205"><ele>71.33333333333334</ele><time>2026-04-04T13:43:47.011Z</time></trkpt><trkpt lat="43.487315" lon="10.4661967"><ele>71.66666666666667</ele><time>2026-04-04T13:43:48.011Z</time></trkpt><trkpt lat="43.4875133" lon="10.46618"><ele>72.0</ele><time>2026-04-04T13:43:49.012Z</time></trkpt><trkpt lat="43.4877067" lon="10.4661383"><ele>72.0</ele><time>2026-04-04T13:43:50.011Z</time></trkpt><trkpt lat="43.4878967" lon="10.46606"><ele>72.0</ele><time>2026-04-04T13:43:51.012Z</time></trkpt><trkpt lat="43.488075" lon="10.4659367"><ele>72.0</ele><time>2026-04-04T13:43:52.012Z</time></trkpt><trkpt lat="43.4882383" lon="10.46578"><ele>73.33333333333333</ele><time>2026-04-04T13:43:53.011Z</time></trkpt><trkpt lat="43.4884033" lon="10.4656217"><ele>74.66666666666666</ele><time>2026-04-04T13:43:54.01Z</time></trkpt><trkpt lat="43.48857" lon="10.4654733"><ele>76.0</ele><time>2026-04-04T13:43:55.011Z</time></trkpt><trkpt lat="43.488745" lon="10.4653317"><ele>77.66666666666666</ele><time>2026-04-04T13:43:56.013Z</time></trkpt><trkpt lat="43.4889333" lon="10.46522"><ele>79.33333333333333</ele><time>2026-04-04T13:43:57.01Z</time></trkpt><trkpt lat="43.4891267" lon="10.465135"><ele>81.0</ele><time>2026-04-04T13:43:58.013Z</time></trkpt><trkpt lat="43.4893367" lon="10.4650917"><ele>81.0</ele><time>2026-04-04T13:43:59.012Z</time></trkpt><trkpt lat="43.4895483" lon="10.4650583"><ele>81.0</ele><time>2026-04-04T13:44:00.011Z</time></trkpt><trkpt lat="43.4897567" lon="10.465025"><ele>81.0</ele><time>2026-04-04T13:44:01.012Z</time></trkpt><trkpt lat="43.4899483" lon="10.4649883"><ele>81.0</ele><time>2026-04-04T13:44:02.011Z</time></trkpt><trkpt lat="43.4901283" lon="10.4649633"><ele>81.0</ele><time>2026-04-04T13:44:03.011Z</time></trkpt><trkpt lat="43.4903" lon="10.4649567"><ele>81.0</ele><time>2026-04-04T13:44:04.012Z</time></trkpt><trkpt lat="43.490465" lon="10.464985"><ele>79.66666666666667</ele><time>2026-04-04T13:44:05.011Z</time></trkpt><trkpt lat="43.4906333" lon="10.465055"><ele>78.33333333333334</ele><time>2026-04-04T13:44:06.011Z</time></trkpt><trkpt lat="43.4908067" lon="10.4651467"><ele>77.0</ele><time>2026-04-04T13:44:07.011Z</time></trkpt><trkpt lat="43.4909883" lon="10.4652533"><ele>77.0</ele><time>2026-04-04T13:44:08.012Z</time></trkpt><trkpt lat="43.4911767" lon="10.4653683"><ele>77.0</ele><time>2026-04-04T13:44:09.011Z</time></trkpt><trkpt lat="43.49137" lon="10.465485"><ele>77.0</ele><time>2026-04-04T13:44:10.012Z</time></trkpt><trkpt lat="43.4915733" lon="10.465595"><ele>75.66666666666667</ele><time>2026-04-04T13:44:11.011Z</time></trkpt><trkpt lat="43.49178" lon="10.465705"><ele>74.33333333333333</ele><time>2026-04-04T13:44:12.012Z</time></trkpt><trkpt lat="43.4919917" lon="10.4658083"><ele>73.0</ele><time>2026-04-04T13:44:13.012Z</time></trkpt><trkpt lat="43.4921983" lon="10.4659083"><ele>71.66666666666666</ele><time>2026-04-04T13:44:14.011Z</time></trkpt><trkpt lat="43.4924067" lon="10.4660067"><ele>70.33333333333333</ele><time>2026-04-04T13:44:15.01Z</time></trkpt><trkpt lat="43.4926217" lon="10.4661133"><ele>69.0</ele><time>2026-04-04T13:44:16.012Z</time></trkpt><trkpt lat="43.4928483" lon="10.4662217"><ele>69.0</ele><time>2026-04-04T13:44:17.012Z</time></trkpt><trkpt lat="43.4930967" lon="10.466325"><ele>69.0</ele><time>2026-04-04T13:44:18.012Z</time></trkpt><trkpt lat="43.4933533" lon="10.4664433"><ele>69.0</ele><time>2026-04-04T13:44:19.011Z</time></trkpt><trkpt lat="43.49361" lon="10.46657"><ele>69.0</ele><time>2026-04-04T13:44:20.011Z</time></trkpt><trkpt lat="43.4938583" lon="10.4667033"><ele>69.5</ele><time>2026-04-04T13:44:21.011Z</time></trkpt><trkpt lat="43.4941083" lon="10.4668333"><ele>70.0</ele><time>2026-04-04T13:44:22.011Z</time></trkpt><trkpt lat="43.4943533" lon="10.4669583"><ele>70.0</ele><time>2026-04-04T13:44:23.011Z</time></trkpt><trkpt lat="43.4945933" lon="10.467075"><ele>70.0</ele><time>2026-04-04T13:44:24.011Z</time></trkpt><trkpt lat="43.49483" lon="10.4671833"><ele>70.5</ele><time>2026-04-04T13:44:25.011Z</time></trkpt><trkpt lat="43.495065" lon="10.4672817"><ele>71.0</ele><time>2026-04-04T13:44:26.011Z</time></trkpt><trkpt lat="43.4952933" lon="10.4673567"><ele>73.5</ele><time>2026-04-04T13:44:27.011Z</time></trkpt><trkpt lat="43.4955217" lon="10.4674"><ele>76.0</ele><time>2026-04-04T13:44:28.011Z</time></trkpt><trkpt lat="43.49575" lon="10.4674167"><ele>76.0</ele><time>2026-04-04T13:44:29.011Z</time></trkpt><trkpt lat="43.4959783" lon="10.4674083"><ele>76.0</ele><time>2026-04-04T13:44:30.012Z</time></trkpt><trkpt lat="43.496205" lon="10.4673683"><ele>77.5</ele><time>2026-04-04T13:44:31.011Z</time></trkpt><trkpt lat="43.4964283" lon="10.4673"><ele>79.0</ele><time>2026-04-04T13:44:32.011Z</time></trkpt><trkpt lat="43.4966467" lon="10.46721"><ele>78.5</ele><time>2026-04-04T13:44:33.011Z</time></trkpt><trkpt lat="43.496865" lon="10.467095"><ele>78.0</ele><time>2026-04-04T13:44:34.013Z</time></trkpt><trkpt lat="43.497075" lon="10.4669667"><ele>79.66666666666667</ele><time>2026-04-04T13:44:35.011Z</time></trkpt><trkpt lat="43.4972817" lon="10.466835"><ele>81.33333333333334</ele><time>2026-04-04T13:44:36.011Z</time></trkpt><trkpt lat="43.49748" lon="10.4667017"><ele>83.0</ele><time>2026-04-04T13:44:37.01Z</time></trkpt><trkpt lat="43.49768" lon="10.4665683"><ele>83.0</ele><time>2026-04-04T13:44:38.011Z</time></trkpt><trkpt lat="43.4978883" lon="10.466425"><ele>83.0</ele><time>2026-04-04T13:44:39.013Z</time></trkpt><trkpt lat="43.4981083" lon="10.46628"><ele>86.0</ele><time>2026-04-04T13:44:40.011Z</time></trkpt><trkpt lat="43.49834" lon="10.466125"><ele>89.0</ele><time>2026-04-04T13:44:41.011Z</time></trkpt><trkpt lat="43.498575" lon="10.4659683"><ele>88.0</ele><time>2026-04-04T13:44:42.012Z</time></trkpt><trkpt lat="43.4988117" lon="10.46582"><ele>87.0</ele><time>2026-04-04T13:44:43.011Z</time></trkpt><trkpt lat="43.4990467" lon="10.46567"><ele>87.0</ele><time>2026-04-04T13:44:44.012Z</time></trkpt><trkpt lat="43.4992817" lon="10.4655183"><ele>87.0</ele><time>2026-04-04T13:44:45.012Z</time></trkpt><trkpt lat="43.4995167" lon="10.465365"><ele>88.5</ele><time>2026-04-04T13:44:46.011Z</time></trkpt><trkpt lat="43.4997483" lon="10.4652167"><ele>90.0</ele><time>2026-04-04T13:44:47.011Z</time></trkpt><trkpt lat="43.49997" lon="10.4650683"><ele>90.0</ele><time>2026-04-04T13:44:48.013Z</time></trkpt><trkpt lat="43.500185" lon="10.46492"><ele>90.0</ele><time>2026-04-04T13:44:49.011Z</time></trkpt><trkpt lat="43.5003967" lon="10.464785"><ele>88.0</ele><time>2026-04-04T13:44:50.012Z</time></trkpt><trkpt lat="43.5005967" lon="10.4646567"><ele>86.0</ele><time>2026-04-04T13:44:51.012Z</time></trkpt><trkpt lat="43.5007917" lon="10.4645483"><ele>84.0</ele><time>2026-04-04T13:44:52.011Z</time></trkpt><trkpt lat="43.500975" lon="10.4644633"><ele>84.0</ele><time>2026-04-04T13:44:53.012Z</time></trkpt><trkpt lat="43.50114" lon="10.4644067"><ele>84.0</ele><time>2026-04-04T13:44:54.011Z</time></trkpt><trkpt lat="43.5012833" lon="10.4643817"><ele>84.0</ele><time>2026-04-04T13:44:55.011Z</time></trkpt><trkpt lat="43.501405" lon="10.4643883"><ele>84.0</ele><time>2026-04-04T13:44:56.011Z</time></trkpt><trkpt lat="43.5014883" lon="10.464435"><ele>84.0</ele><time>2026-04-04T13:44:57.011Z</time></trkpt><trkpt lat="43.501555" lon="10.4644967"><ele>84.0</ele><time>2026-04-04T13:44:58.013Z</time></trkpt><trkpt lat="43.501595" lon="10.464585"><ele>84.0</ele><time>2026-04-04T13:44:59.011Z</time></trkpt><trkpt lat="43.50157" lon="10.4647267"><ele>84.0</ele><time>2026-04-04T13:45:00.011Z</time></trkpt><trkpt lat="43.5015267" lon="10.464885"><ele>84.0</ele><time>2026-04-04T13:45:01.012Z</time></trkpt><trkpt lat="43.5014467" lon="10.465075"><ele>83.5</ele><time>2026-04-04T13:45:02.012Z</time></trkpt><trkpt lat="43.5013717" lon="10.465265"><ele>83.0</ele><time>2026-04-04T13:45:03.013Z</time></trkpt><trkpt lat="43.501305" lon="10.4654467"><ele>82.5</ele><time>2026-04-04T13:45:04.012Z</time></trkpt><trkpt lat="43.5012417" lon="10.4656183"><ele>82.0</ele><time>2026-04-04T13:45:05.011Z</time></trkpt><trkpt lat="43.5011817" lon="10.4657817"><ele>81.25</ele><time>2026-04-04T13:45:06.012Z</time></trkpt><trkpt lat="43.501125" lon="10.465935"><ele>80.5</ele><time>2026-04-04T13:45:07.012Z</time></trkpt><trkpt lat="43.50107" lon="10.4660967"><ele>79.75</ele><time>2026-04-04T13:45:08.011Z</time></trkpt><trkpt lat="43.50101" lon="10.46627"><ele>79.0</ele><time>2026-04-04T13:45:09.011Z</time></trkpt><trkpt lat="43.5009483" lon="10.4664483"><ele>79.0</ele><time>2026-04-04T13:45:10.012Z</time></trkpt><trkpt lat="43.5008817" lon="10.466635"><ele>79.0</ele><time>2026-04-04T13:45:11.011Z</time></trkpt><trkpt lat="43.5008067" lon="10.466845"><ele>79.0</ele><time>2026-04-04T13:45:12.012Z</time></trkpt><trkpt lat="43.50072" lon="10.46708"><ele>79.66666666666666</ele><time>2026-04-04T13:45:13.012Z</time></trkpt><trkpt lat="43.50064" lon="10.4673167"><ele>80.33333333333333</ele><time>2026-04-04T13:45:14.011Z</time></trkpt><trkpt lat="43.5005733" lon="10.4675433"><ele>81.0</ele><time>2026-04-04T13:45:15.011Z</time></trkpt><trkpt lat="43.50054" lon="10.4677767"><ele>83.0</ele><time>2026-04-04T13:45:16.012Z</time></trkpt><trkpt lat="43.50054" lon="10.46801"><ele>85.0</ele><time>2026-04-04T13:45:17.011Z</time></trkpt><trkpt lat="43.500575" lon="10.46824"><ele>87.0</ele><time>2026-04-04T13:45:18.011Z</time></trkpt><trkpt lat="43.5006383" lon="10.4684783"><ele>87.0</ele><time>2026-04-04T13:45:19.011Z</time></trkpt><trkpt lat="43.50071" lon="10.4687267"><ele>87.0</ele><time>2026-04-04T13:45:20.012Z</time></trkpt><trkpt lat="43.5007817" lon="10.468995"><ele>87.0</ele><time>2026-04-04T13:45:21.011Z</time></trkpt><trkpt lat="43.5008617" lon="10.4692733"><ele>88.66666666666667</ele><time>2026-04-04T13:45:22.013Z</time></trkpt><trkpt lat="43.5009417" lon="10.4695417"><ele>90.33333333333334</ele><time>2026-04-04T13:45:23.011Z</time></trkpt><trkpt lat="43.5010083" lon="10.4697833"><ele>92.0</ele><time>2026-04-04T13:45:24.011Z</time></trkpt><trkpt lat="43.5010583" lon="10.4700283"><ele>93.33333333333334</ele><time>2026-04-04T13:45:25.011Z</time></trkpt><trkpt lat="43.5011067" lon="10.47028"><ele>94.66666666666667</ele><time>2026-04-04T13:45:26.011Z</time></trkpt><trkpt lat="43.5011533" lon="10.4705383"><ele>96.0</ele><time>2026-04-04T13:45:27.011Z</time></trkpt><trkpt lat="43.5012033" lon="10.4708083"><ele>96.33333333333334</ele><time>2026-04-04T13:45:28.011Z</time></trkpt><trkpt lat="43.50126" lon="10.4710833"><ele>96.66666666666667</ele><time>2026-04-04T13:45:29.011Z</time></trkpt><trkpt lat="43.50131" lon="10.4713667"><ele>97.0</ele><time>2026-04-04T13:45:30.01Z</time></trkpt><trkpt lat="43.50136" lon="10.47165"><ele>96.33333333333334</ele><time>2026-04-04T13:45:31.012Z</time></trkpt><trkpt lat="43.50141" lon="10.4719333"><ele>95.66666666666667</ele><time>2026-04-04T13:45:32.011Z</time></trkpt><trkpt lat="43.5014617" lon="10.4722117"><ele>95.0</ele><time>2026-04-04T13:45:33.011Z</time></trkpt><trkpt lat="43.501515" lon="10.47249"><ele>94.33333333333334</ele><time>2026-04-04T13:45:34.012Z</time></trkpt><trkpt lat="43.5015783" lon="10.4727633"><ele>93.66666666666667</ele><time>2026-04-04T13:45:35.011Z</time></trkpt><trkpt lat="43.5016517" lon="10.4730333"><ele>93.0</ele><time>2026-04-04T13:45:36.011Z</time></trkpt><trkpt lat="43.501745" lon="10.47329"><ele>93.66666666666667</ele><time>2026-04-04T13:45:37.01Z</time></trkpt><trkpt lat="43.501865" lon="10.4735333"><ele>94.33333333333334</ele><time>2026-04-04T13:45:38.011Z</time></trkpt><trkpt lat="43.5020017" lon="10.4737633"><ele>95.0</ele><time>2026-04-04T13:45:39.011Z</time></trkpt><trkpt lat="43.5021467" lon="10.4739867"><ele>95.0</ele><time>2026-04-04T13:45:40.012Z</time></trkpt><trkpt lat="43.5022983" lon="10.47421"><ele>95.0</ele><time>2026-04-04T13:45:41.011Z</time></trkpt><trkpt lat="43.5024333" lon="10.4744483"><ele>95.0</ele><time>2026-04-04T13:45:42.011Z</time></trkpt><trkpt lat="43.50255" lon="10.4747067"><ele>90.33333333333334</ele><time>2026-04-04T13:45:43.012Z</time></trkpt><trkpt lat="43.5026533" lon="10.4749783"><ele>85.66666666666667</ele><time>2026-04-04T13:45:44.013Z</time></trkpt><trkpt lat="43.5027383" lon="10.4752417"><ele>81.0</ele><time>2026-04-04T13:45:45.011Z</time></trkpt><trkpt lat="43.50281" lon="10.4755017"><ele>79.66666666666667</ele><time>2026-04-04T13:45:46.01Z</time></trkpt><trkpt lat="43.502875" lon="10.4757483"><ele>78.33333333333334</ele><time>2026-04-04T13:45:47.01Z</time></trkpt><trkpt lat="43.5029367" lon="10.475985"><ele>77.0</ele><time>2026-04-04T13:45:48.011Z</time></trkpt><trkpt lat="43.503" lon="10.476215"><ele>77.33333333333334</ele><time>2026-04-04T13:45:49.011Z</time></trkpt><trkpt lat="43.5030633" lon="10.4764433"><ele>77.66666666666667</ele><time>2026-04-04T13:45:50.012Z</time></trkpt><trkpt lat="43.503125" lon="10.4766733"><ele>78.0</ele><time>2026-04-04T13:45:51.012Z</time></trkpt><trkpt lat="43.503185" lon="10.476905"><ele>77.33333333333333</ele><time>2026-04-04T13:45:52.011Z</time></trkpt><trkpt lat="43.5032467" lon="10.4771383"><ele>76.66666666666666</ele><time>2026-04-04T13:45:53.01Z</time></trkpt><trkpt lat="43.50331" lon="10.4773767"><ele>76.0</ele><time>2026-04-04T13:45:54.011Z</time></trkpt><trkpt lat="43.503375" lon="10.4776183"><ele>76.0</ele><time>2026-04-04T13:45:55.011Z</time></trkpt><trkpt lat="43.503445" lon="10.4778617"><ele>76.0</ele><time>2026-04-04T13:45:56.011Z</time></trkpt><trkpt lat="43.503515" lon="10.47811"><ele>76.0</ele><time>2026-04-04T13:45:57.011Z</time></trkpt><trkpt lat="43.5035833" lon="10.47836"><ele>77.33333333333333</ele><time>2026-04-04T13:45:58.011Z</time></trkpt><trkpt lat="43.503655" lon="10.478615"><ele>78.66666666666667</ele><time>2026-04-04T13:45:59.012Z</time></trkpt><trkpt lat="43.5037233" lon="10.47887"><ele>80.0</ele><time>2026-04-04T13:46:00.011Z</time></trkpt><trkpt lat="43.5037933" lon="10.4791233"><ele>80.33333333333334</ele><time>2026-04-04T13:46:01.011Z</time></trkpt><trkpt lat="43.503865" lon="10.47938"><ele>80.66666666666667</ele><time>2026-04-04T13:46:02.011Z</time></trkpt><trkpt lat="43.5039417" lon="10.4796367"><ele>81.0</ele><time>2026-04-04T13:46:03.012Z</time></trkpt><trkpt lat="43.5040133" lon="10.4798983"><ele>82.66666666666667</ele><time>2026-04-04T13:46:04.013Z</time></trkpt><trkpt lat="43.5040833" lon="10.4801633"><ele>84.33333333333334</ele><time>2026-04-04T13:46:05.011Z</time></trkpt><trkpt lat="43.5041517" lon="10.4804283"><ele>86.0</ele><time>2026-04-04T13:46:06.014Z</time></trkpt><trkpt lat="43.50422" lon="10.4806967"><ele>89.33333333333334</ele><time>2026-04-04T13:46:07.012Z</time></trkpt><trkpt lat="43.5042867" lon="10.4809533"><ele>92.66666666666667</ele><time>2026-04-04T13:46:08.012Z</time></trkpt><trkpt lat="43.5043517" lon="10.4812017"><ele>96.0</ele><time>2026-04-04T13:46:09.012Z</time></trkpt><trkpt lat="43.5044117" lon="10.4814483"><ele>98.66666666666666</ele><time>2026-04-04T13:46:10.01Z</time></trkpt><trkpt lat="43.5044633" lon="10.4817033"><ele>101.33333333333333</ele><time>2026-04-04T13:46:11.012Z</time></trkpt><trkpt lat="43.5045" lon="10.4819667"><ele>104.0</ele><time>2026-04-04T13:46:12.011Z</time></trkpt><trkpt lat="43.5045267" lon="10.4822383"><ele>104.33333333333333</ele><time>2026-04-04T13:46:13.011Z</time></trkpt><trkpt lat="43.5045383" lon="10.4825167"><ele>104.66666666666666</ele><time>2026-04-04T13:46:14.013Z</time></trkpt><trkpt lat="43.5045483" lon="10.4828"><ele>105.0</ele><time>2026-04-04T13:46:15.012Z</time></trkpt><trkpt lat="43.504565" lon="10.483085"><ele>104.0</ele><time>2026-04-04T13:46:16.011Z</time></trkpt><trkpt lat="43.5045817" lon="10.4833733"><ele>103.0</ele><time>2026-04-04T13:46:17.011Z</time></trkpt><trkpt lat="43.5045983" lon="10.4836617"><ele>102.0</ele><time>2026-04-04T13:46:18.012Z</time></trkpt><trkpt lat="43.504615" lon="10.4839483"><ele>104.66666666666666</ele><time>2026-04-04T13:46:19.011Z</time></trkpt><trkpt lat="43.5046317" lon="10.4842383"><ele>107.33333333333333</ele><time>2026-04-04T13:46:20.011Z</time></trkpt><trkpt lat="43.5046483" lon="10.4845317"><ele>110.0</ele><time>2026-04-04T13:46:21.011Z</time></trkpt><trkpt lat="43.504665" lon="10.4848283"><ele>112.66666666666666</ele><time>2026-04-04T13:46:22.011Z</time></trkpt><trkpt lat="43.5046667" lon="10.485125"><ele>115.33333333333334</ele><time>2026-04-04T13:46:23.01Z</time></trkpt><trkpt lat="43.50465" lon="10.4854183"><ele>118.0</ele><time>2026-04-04T13:46:24.011Z</time></trkpt><trkpt lat="43.504605" lon="10.4857033"><ele>118.0</ele><time>2026-04-04T13:46:25.011Z</time></trkpt><trkpt lat="43.5045333" lon="10.4859817"><ele>118.0</ele><time>2026-04-04T13:46:26.012Z</time></trkpt><trkpt lat="43.504425" lon="10.4862367"><ele>118.0</ele><time>2026-04-04T13:46:27.011Z</time></trkpt><trkpt lat="43.5042917" lon="10.4864633"><ele>118.0</ele><time>2026-04-04T13:46:28.011Z</time></trkpt><trkpt lat="43.5041317" lon="10.4866717"><ele>118.0</ele><time>2026-04-04T13:46:29.012Z</time></trkpt><trkpt lat="43.5039533" lon="10.4868533"><ele>118.0</ele><time>2026-04-04T13:46:30.011Z</time></trkpt><trkpt lat="43.5037717" lon="10.4870317"><ele>123.5</ele><time>2026-04-04T13:46:31.011Z</time></trkpt><trkpt lat="43.5035917" lon="10.48722"><ele>129.0</ele><time>2026-04-04T13:46:32.011Z</time></trkpt><trkpt lat="43.5034083" lon="10.4874067"><ele>129.0</ele><time>2026-04-04T13:46:33.012Z</time></trkpt><trkpt lat="43.5032217" lon="10.487585"><ele>129.0</ele><time>2026-04-04T13:46:34.011Z</time></trkpt><trkpt lat="43.5030383" lon="10.487765"><ele>129.33333333333334</ele><time>2026-04-04T13:46:35.011Z</time></trkpt><trkpt lat="43.5028617" lon="10.4879383"><ele>129.66666666666669</ele><time>2026-04-04T13:46:36.011Z</time></trkpt><trkpt lat="43.502705" lon="10.48812"><ele>130.0</ele><time>2026-04-04T13:46:37.01Z</time></trkpt><trkpt lat="43.5025633" lon="10.488315"><ele>130.0</ele><time>2026-04-04T13:46:38.012Z</time></trkpt><trkpt lat="43.502435" lon="10.488535"><ele>130.0</ele><time>2026-04-04T13:46:39.012Z</time></trkpt><trkpt lat="43.5023133" lon="10.48875"><ele>130.0</ele><time>2026-04-04T13:46:40.011Z</time></trkpt><trkpt lat="43.5021933" lon="10.488955"><ele>129.66666666666669</ele><time>2026-04-04T13:46:41.011Z</time></trkpt><trkpt lat="43.5020683" lon="10.4891467"><ele>129.33333333333334</ele><time>2026-04-04T13:46:42.011Z</time></trkpt><trkpt lat="43.5019417" lon="10.489335"><ele>129.0</ele><time>2026-04-04T13:46:43.011Z</time></trkpt><trkpt lat="43.5018067" lon="10.4895183"><ele>130.0</ele><time>2026-04-04T13:46:44.014Z</time></trkpt><trkpt lat="43.501665" lon="10.4897133"><ele>131.0</ele><time>2026-04-04T13:46:45.012Z</time></trkpt><trkpt lat="43.5015167" lon="10.4899117"><ele>132.0</ele><time>2026-04-04T13:46:46.011Z</time></trkpt><trkpt lat="43.50136" lon="10.490115"><ele>132.66666666666666</ele><time>2026-04-04T13:46:47.011Z</time></trkpt><trkpt lat="43.5011883" lon="10.49031"><ele>133.33333333333331</ele><time>2026-04-04T13:46:48.011Z</time></trkpt><trkpt lat="43.5010167" lon="10.4905083"><ele>134.0</ele><time>2026-04-04T13:46:49.011Z</time></trkpt><trkpt lat="43.50085" lon="10.4907067"><ele>134.0</ele><time>2026-04-04T13:46:50.012Z</time></trkpt><trkpt lat="43.500685" lon="10.4909117"><ele>134.0</ele><time>2026-04-04T13:46:51.012Z</time></trkpt><trkpt lat="43.50053" lon="10.4911067"><ele>134.0</ele><time>2026-04-04T13:46:52.011Z</time></trkpt><trkpt lat="43.5003867" lon="10.49129"><ele>134.33333333333331</ele><time>2026-04-04T13:46:53.011Z</time></trkpt><trkpt lat="43.5002533" lon="10.49147"><ele>134.66666666666666</ele><time>2026-04-04T13:46:54.012Z</time></trkpt><trkpt lat="43.500135" lon="10.4916533"><ele>135.0</ele><time>2026-04-04T13:46:55.012Z</time></trkpt><trkpt lat="43.50003" lon="10.491865"><ele>135.66666666666666</ele><time>2026-04-04T13:46:56.012Z</time></trkpt><trkpt lat="43.4999383" lon="10.4920917"><ele>136.33333333333331</ele><time>2026-04-04T13:46:57.011Z</time></trkpt><trkpt lat="43.49986" lon="10.4923383"><ele>137.0</ele><time>2026-04-04T13:46:58.012Z</time></trkpt><trkpt lat="43.499795" lon="10.4926"><ele>137.0</ele><time>2026-04-04T13:46:59.011Z</time></trkpt><trkpt lat="43.4997533" lon="10.4928783"><ele>137.0</ele><time>2026-04-04T13:47:00.012Z</time></trkpt><trkpt lat="43.4997283" lon="10.49317"><ele>137.0</ele><time>2026-04-04T13:47:01.012Z</time></trkpt><trkpt lat="43.4997083" lon="10.4934683"><ele>137.33333333333331</ele><time>2026-04-04T13:47:02.01Z</time></trkpt><trkpt lat="43.4996833" lon="10.493765"><ele>137.66666666666666</ele><time>2026-04-04T13:47:03.011Z</time></trkpt><trkpt lat="43.499665" lon="10.4940533"><ele>138.0</ele><time>2026-04-04T13:47:04.011Z</time></trkpt><trkpt lat="43.499645" lon="10.49433"><ele>136.66666666666666</ele><time>2026-04-04T13:47:05.011Z</time></trkpt><trkpt lat="43.4996133" lon="10.494605"><ele>135.33333333333331</ele><time>2026-04-04T13:47:06.012Z</time></trkpt><trkpt lat="43.4995717" lon="10.4948733"><ele>134.0</ele><time>2026-04-04T13:47:07.011Z</time></trkpt><trkpt lat="43.499505" lon="10.49513"><ele>132.0</ele><time>2026-04-04T13:47:08.012Z</time></trkpt><trkpt lat="43.4994167" lon="10.4953583"><ele>130.0</ele><time>2026-04-04T13:47:09.011Z</time></trkpt><trkpt lat="43.499315" lon="10.49556"><ele>128.0</ele><time>2026-04-04T13:47:10.011Z</time></trkpt><trkpt lat="43.4992133" lon="10.495745"><ele>128.0</ele><time>2026-04-04T13:47:11.011Z</time></trkpt><trkpt lat="43.49911" lon="10.4959183"><ele>128.0</ele><time>2026-04-04T13:47:12.01Z</time></trkpt><trkpt lat="43.4990067" lon="10.496085"><ele>128.0</ele><time>2026-04-04T13:47:13.011Z</time></trkpt><trkpt lat="43.49891" lon="10.4962433"><ele>126.75</ele><time>2026-04-04T13:47:14.011Z</time></trkpt><trkpt lat="43.4988133" lon="10.4964"><ele>125.5</ele><time>2026-04-04T13:47:15.013Z</time></trkpt><trkpt lat="43.49872" lon="10.496555"><ele>124.25</ele><time>2026-04-04T13:47:16.011Z</time></trkpt><trkpt lat="43.4986283" lon="10.4967167"><ele>123.0</ele><time>2026-04-04T13:47:17.012Z</time></trkpt><trkpt lat="43.498535" lon="10.4968733"><ele>122.75</ele><time>2026-04-04T13:47:18.011Z</time></trkpt><trkpt lat="43.4984417" lon="10.49703"><ele>122.5</ele><time>2026-04-04T13:47:19.012Z</time></trkpt><trkpt lat="43.4983483" lon="10.497185"><ele>122.25</ele><time>2026-04-04T13:47:20.013Z</time></trkpt><trkpt lat="43.498255" lon="10.4973383"><ele>122.0</ele><time>2026-04-04T13:47:21.012Z</time></trkpt><trkpt lat="43.4981617" lon="10.4974883"><ele>121.33333333333333</ele><time>2026-04-04T13:47:22.011Z</time></trkpt><trkpt lat="43.4980667" lon="10.49765"><ele>120.66666666666666</ele><time>2026-04-04T13:47:23.012Z</time></trkpt><trkpt lat="43.497965" lon="10.4978167"><ele>120.0</ele><time>2026-04-04T13:47:24.011Z</time></trkpt><trkpt lat="43.497865" lon="10.4979917"><ele>119.66666666666666</ele><time>2026-04-04T13:47:25.01Z</time></trkpt><trkpt lat="43.49777" lon="10.4981733"><ele>119.33333333333333</ele><time>2026-04-04T13:47:26.01Z</time></trkpt><trkpt lat="43.4976733" lon="10.4983683"><ele>119.0</ele><time>2026-04-04T13:47:27.01Z</time></trkpt><trkpt lat="43.4975833" lon="10.4985667"><ele>119.66666666666666</ele><time>2026-04-04T13:47:28.01Z</time></trkpt><trkpt lat="43.4975017" lon="10.498765"><ele>120.33333333333334</ele><time>2026-04-04T13:47:29.01Z</time></trkpt><trkpt lat="43.4974167" lon="10.4989567"><ele>121.0</ele><time>2026-04-04T13:47:30.011Z</time></trkpt><trkpt lat="43.4973283" lon="10.499145"><ele>121.0</ele><time>2026-04-04T13:47:31.01Z</time></trkpt><trkpt lat="43.4972417" lon="10.4993367"><ele>121.0</ele><time>2026-04-04T13:47:32.01Z</time></trkpt><trkpt lat="43.4971567" lon="10.49953"><ele>121.0</ele><time>2026-04-04T13:47:33.011Z</time></trkpt><trkpt lat="43.4970667" lon="10.499725"><ele>120.33333333333334</ele><time>2026-04-04T13:47:34.009Z</time></trkpt><trkpt lat="43.49697" lon="10.4999167"><ele>119.66666666666666</ele><time>2026-04-04T13:47:35.01Z</time></trkpt><trkpt lat="43.496885" lon="10.5001283"><ele>119.0</ele><time>2026-04-04T13:47:36.01Z</time></trkpt><trkpt lat="43.4968083" lon="10.50036"><ele>119.33333333333333</ele><time>2026-04-04T13:47:37.01Z</time></trkpt><trkpt lat="43.4967433" lon="10.500605"><ele>119.66666666666666</ele><time>2026-04-04T13:47:38.01Z</time></trkpt><trkpt lat="43.4966867" lon="10.5008583"><ele>120.0</ele><time>2026-04-04T13:47:39.01Z</time></trkpt><trkpt lat="43.496645" lon="10.5011233"><ele>120.0</ele><time>2026-04-04T13:47:40.01Z</time></trkpt><trkpt lat="43.496615" lon="10.501395"><ele>120.0</ele><time>2026-04-04T13:47:41.01Z</time></trkpt><trkpt lat="43.496595" lon="10.5016617"><ele>120.0</ele><time>2026-04-04T13:47:42.01Z</time></trkpt><trkpt lat="43.4965817" lon="10.501915"><ele>120.0</ele><time>2026-04-04T13:47:43.011Z</time></trkpt><trkpt lat="43.4965733" lon="10.5021533"><ele>120.0</ele><time>2026-04-04T13:47:44.01Z</time></trkpt><trkpt lat="43.4965717" lon="10.5023817"><ele>120.0</ele><time>2026-04-04T13:47:45.011Z</time></trkpt><trkpt lat="43.4965633" lon="10.502595"><ele>120.0</ele><time>2026-04-04T13:47:46.011Z</time></trkpt><trkpt lat="43.4965533" lon="10.5028017"><ele>120.0</ele><time>2026-04-04T13:47:47.01Z</time></trkpt><trkpt lat="43.4965417" lon="10.5030117"><ele>120.0</ele><time>2026-04-04T13:47:48.01Z</time></trkpt><trkpt lat="43.49653" lon="10.5032233"><ele>120.0</ele><time>2026-04-04T13:47:49.011Z</time></trkpt><trkpt lat="43.4965133" lon="10.5034283"><ele>120.0</ele><time>2026-04-04T13:47:50.01Z</time></trkpt><trkpt lat="43.496485" lon="10.503625"><ele>120.0</ele><time>2026-04-04T13:47:51.011Z</time></trkpt><trkpt lat="43.496445" lon="10.5038167"><ele>120.0</ele><time>2026-04-04T13:47:52.01Z</time></trkpt><trkpt lat="43.4964" lon="10.5040067"><ele>120.0</ele><time>2026-04-04T13:47:53.011Z</time></trkpt><trkpt lat="43.4963467" lon="10.5041967"><ele>120.0</ele><time>2026-04-04T13:47:54.011Z</time></trkpt><trkpt lat="43.4962933" lon="10.5043883"><ele>120.0</ele><time>2026-04-04T13:47:55.011Z</time></trkpt><trkpt lat="43.4962267" lon="10.5045733"><ele>120.0</ele><time>2026-04-04T13:47:56.01Z</time></trkpt><trkpt lat="43.4961567" lon="10.5047567"><ele>118.0</ele><time>2026-04-04T13:47:57.01Z</time></trkpt><trkpt lat="43.4960717" lon="10.5049417"><ele>116.0</ele><time>2026-04-04T13:47:58.01Z</time></trkpt><trkpt lat="43.49598" lon="10.5051317"><ele>114.0</ele><time>2026-04-04T13:47:59.011Z</time></trkpt><trkpt lat="43.4958867" lon="10.5053267"><ele>113.0</ele><time>2026-04-04T13:48:00.011Z</time></trkpt><trkpt lat="43.4957967" lon="10.505525"><ele>112.0</ele><time>2026-04-04T13:48:01.01Z</time></trkpt><trkpt lat="43.495705" lon="10.5057317"><ele>111.0</ele><time>2026-04-04T13:48:02.01Z</time></trkpt><trkpt lat="43.4956117" lon="10.5059317"><ele>111.0</ele><time>2026-04-04T13:48:03.01Z</time></trkpt><trkpt lat="43.49553" lon="10.5061317"><ele>111.0</ele><time>2026-04-04T13:48:04.01Z</time></trkpt><trkpt lat="43.4954533" lon="10.5063333"><ele>111.0</ele><time>2026-04-04T13:48:05.01Z</time></trkpt><trkpt lat="43.4953917" lon="10.5065417"><ele>111.33333333333334</ele><time>2026-04-04T13:48:06.01Z</time></trkpt><trkpt lat="43.49535" lon="10.5067617"><ele>111.66666666666667</ele><time>2026-04-04T13:48:07.01Z</time></trkpt><trkpt lat="43.4953217" lon="10.50698"><ele>112.0</ele><time>2026-04-04T13:48:08.011Z</time></trkpt><trkpt lat="43.4953083" lon="10.5071917"><ele>112.5</ele><time>2026-04-04T13:48:09.01Z</time></trkpt><trkpt lat="43.4953067" lon="10.507385"><ele>113.0</ele><time>2026-04-04T13:48:10.01Z</time></trkpt><trkpt lat="43.4953233" lon="10.5075633"><ele>113.5</ele><time>2026-04-04T13:48:11.013Z</time></trkpt><trkpt lat="43.495335" lon="10.5077367"><ele>114.0</ele><time>2026-04-04T13:48:12.011Z</time></trkpt><trkpt lat="43.4953417" lon="10.5079083"><ele>115.25</ele><time>2026-04-04T13:48:13.01Z</time></trkpt><trkpt lat="43.49533" lon="10.5080817"><ele>116.5</ele><time>2026-04-04T13:48:14.012Z</time></trkpt><trkpt lat="43.4953083" lon="10.5082517"><ele>117.75</ele><time>2026-04-04T13:48:15.011Z</time></trkpt><trkpt lat="43.4952817" lon="10.5084167"><ele>119.0</ele><time>2026-04-04T13:48:16.01Z</time></trkpt><trkpt lat="43.4952517" lon="10.5085733"><ele>119.0</ele><time>2026-04-04T13:48:17.011Z</time></trkpt><trkpt lat="43.4952217" lon="10.5087217"><ele>119.0</ele><time>2026-04-04T13:48:18.011Z</time></trkpt><trkpt lat="43.4951817" lon="10.5088633"><ele>119.0</ele><time>2026-04-04T13:48:19.011Z</time></trkpt><trkpt lat="43.4951267" lon="10.5090033"><ele>119.0</ele><time>2026-04-04T13:48:20.011Z</time></trkpt><trkpt lat="43.4950617" lon="10.509145"><ele>119.5</ele><time>2026-04-04T13:48:21.01Z</time></trkpt><trkpt lat="43.4949883" lon="10.5092833"><ele>120.0</ele><time>2026-04-04T13:48:22.01Z</time></trkpt><trkpt lat="43.4949167" lon="10.50942"><ele>120.5</ele><time>2026-04-04T13:48:23.011Z</time></trkpt><trkpt lat="43.49484" lon="10.5095517"><ele>121.0</ele><time>2026-04-04T13:48:24.01Z</time></trkpt><trkpt lat="43.494765" lon="10.5096817"><ele>120.0</ele><time>2026-04-04T13:48:25.01Z</time></trkpt><trkpt lat="43.4946867" lon="10.5098083"><ele>119.0</ele><time>2026-04-04T13:48:26.01Z</time></trkpt><trkpt lat="43.4946067" lon="10.5099267"><ele>118.0</ele><time>2026-04-04T13:48:27.012Z</time></trkpt><trkpt lat="43.4945267" lon="10.510035"><ele>117.0</ele><time>2026-04-04T13:48:28.011Z</time></trkpt><trkpt lat="43.49444" lon="10.51014"><ele>116.8</ele><time>2026-04-04T13:48:29.012Z</time></trkpt><trkpt lat="43.4943467" lon="10.5102433"><ele>116.6</ele><time>2026-04-04T13:48:30.01Z</time></trkpt><trkpt lat="43.494265" lon="10.5103367"><ele>116.39999999999999</ele><time>2026-04-04T13:48:31.01Z</time></trkpt><trkpt lat="43.4941983" lon="10.5104133"><ele>116.19999999999999</ele><time>2026-04-04T13:48:32.012Z</time></trkpt><trkpt lat="43.4941433" lon="10.51048"><ele>116.0</ele><time>2026-04-04T13:48:33.012Z</time></trkpt><trkpt lat="43.4940817" lon="10.5106117"><ele>116.5</ele><time>2026-04-04T13:48:35.01Z</time></trkpt><trkpt lat="43.4941283" lon="10.5107217"><ele>117.0</ele><time>2026-04-04T13:48:37.01Z</time></trkpt><trkpt lat="43.4942217" lon="10.5108283"><ele>117.5</ele><time>2026-04-04T13:48:38.011Z</time></trkpt><trkpt lat="43.4943483" lon="10.5109667"><ele>118.0</ele><time>2026-04-04T13:48:39.011Z</time></trkpt><trkpt lat="43.4944683" lon="10.51113"><ele>118.33333333333334</ele><time>2026-04-04T13:48:40.01Z</time></trkpt><trkpt lat="43.4945917" lon="10.5112917"><ele>118.66666666666666</ele><time>2026-04-04T13:48:41.01Z</time></trkpt><trkpt lat="43.4947217" lon="10.5114633"><ele>119.0</ele><time>2026-04-04T13:48:42.01Z</time></trkpt><trkpt lat="43.4948467" lon="10.5116333"><ele>119.0</ele><time>2026-04-04T13:48:43.01Z</time></trkpt><trkpt lat="43.4949567" lon="10.511805"><ele>119.0</ele><time>2026-04-04T13:48:44.01Z</time></trkpt><trkpt lat="43.4950517" lon="10.51199"><ele>119.0</ele><time>2026-04-04T13:48:45.011Z</time></trkpt><trkpt lat="43.49512" lon="10.5121817"><ele>119.5</ele><time>2026-04-04T13:48:46.01Z</time></trkpt><trkpt lat="43.49517" lon="10.512355"><ele>120.0</ele><time>2026-04-04T13:48:47.009Z</time></trkpt><trkpt lat="43.4952067" lon="10.5125233"><ele>120.5</ele><time>2026-04-04T13:48:48.011Z</time></trkpt><trkpt lat="43.495245" lon="10.51269"><ele>121.0</ele><time>2026-04-04T13:48:49.01Z</time></trkpt><trkpt lat="43.4952833" lon="10.5128667"><ele>121.33333333333334</ele><time>2026-04-04T13:48:50.01Z</time></trkpt><trkpt lat="43.4953317" lon="10.5130533"><ele>121.66666666666666</ele><time>2026-04-04T13:48:51.012Z</time></trkpt><trkpt lat="43.49538" lon="10.5132617"><ele>122.0</ele><time>2026-04-04T13:48:52.01Z</time></trkpt><trkpt lat="43.4954317" lon="10.51348"><ele>122.0</ele><time>2026-04-04T13:48:53.011Z</time></trkpt><trkpt lat="43.4954833" lon="10.5137"><ele>122.0</ele><time>2026-04-04T13:48:54.011Z</time></trkpt><trkpt lat="43.4955417" lon="10.5139167"><ele>122.0</ele><time>2026-04-04T13:48:55.01Z</time></trkpt><trkpt lat="43.495595" lon="10.5141317"><ele>122.0</ele><time>2026-04-04T13:48:56.009Z</time></trkpt><trkpt lat="43.4956333" lon="10.51435"><ele>122.0</ele><time>2026-04-04T13:48:57.01Z</time></trkpt><trkpt lat="43.4956783" lon="10.51457"><ele>122.0</ele><time>2026-04-04T13:48:58.011Z</time></trkpt><trkpt lat="43.4957267" lon="10.5147933"><ele>122.0</ele><time>2026-04-04T13:48:59.013Z</time></trkpt><trkpt lat="43.49578" lon="10.515015"><ele>122.0</ele><time>2026-04-04T13:49:00.01Z</time></trkpt><trkpt lat="43.4958317" lon="10.51523"><ele>122.0</ele><time>2026-04-04T13:49:01.01Z</time></trkpt><trkpt lat="43.4958917" lon="10.5154317"><ele>122.0</ele><time>2026-04-04T13:49:02.01Z</time></trkpt><trkpt lat="43.4959717" lon="10.515605"><ele>122.0</ele><time>2026-04-04T13:49:03.012Z</time></trkpt><trkpt lat="43.496075" lon="10.5157517"><ele>122.0</ele><time>2026-04-04T13:49:04.01Z</time></trkpt><trkpt lat="43.4961967" lon="10.51589"><ele>122.0</ele><time>2026-04-04T13:49:05.012Z</time></trkpt><trkpt lat="43.4963283" lon="10.5160283"><ele>122.0</ele><time>2026-04-04T13:49:06.012Z</time></trkpt><trkpt lat="43.4964717" lon="10.5161717"><ele>122.0</ele><time>2026-04-04T13:49:07.012Z</time></trkpt><trkpt lat="43.4966233" lon="10.5163217"><ele>122.0</ele><time>2026-04-04T13:49:08.01Z</time></trkpt><trkpt lat="43.4967817" lon="10.5164717"><ele>122.0</ele><time>2026-04-04T13:49:09.011Z</time></trkpt><trkpt lat="43.4969417" lon="10.5166283"><ele>122.0</ele><time>2026-04-04T13:49:10.012Z</time></trkpt><trkpt lat="43.4970983" lon="10.5167867"><ele>120.66666666666666</ele><time>2026-04-04T13:49:11.01Z</time></trkpt><trkpt lat="43.4972567" lon="10.5169383"><ele>119.33333333333334</ele><time>2026-04-04T13:49:12.011Z</time></trkpt><trkpt lat="43.4974133" lon="10.517095"><ele>118.0</ele><time>2026-04-04T13:49:13.01Z</time></trkpt><trkpt lat="43.4975717" lon="10.5172467"><ele>118.0</ele><time>2026-04-04T13:49:14.01Z</time></trkpt><trkpt lat="43.4977333" lon="10.5174"><ele>118.0</ele><time>2026-04-04T13:49:15.01Z</time></trkpt><trkpt lat="43.4978933" lon="10.5175533"><ele>118.0</ele><time>2026-04-04T13:49:16.011Z</time></trkpt><trkpt lat="43.4980433" lon="10.5177017"><ele>117.33333333333334</ele><time>2026-04-04T13:49:17.011Z</time></trkpt><trkpt lat="43.4981867" lon="10.51784"><ele>116.66666666666666</ele><time>2026-04-04T13:49:18.013Z</time></trkpt><trkpt lat="43.4983367" lon="10.517955"><ele>116.0</ele><time>2026-04-04T13:49:19.01Z</time></trkpt><trkpt lat="43.4984967" lon="10.5180333"><ele>116.0</ele><time>2026-04-04T13:49:20.011Z</time></trkpt><trkpt lat="43.4986683" lon="10.5180783"><ele>116.0</ele><time>2026-04-04T13:49:21.011Z</time></trkpt><trkpt lat="43.498845" lon="10.5180733"><ele>116.0</ele><time>2026-04-04T13:49:22.01Z</time></trkpt><trkpt lat="43.4990217" lon="10.5180267"><ele>114.33333333333333</ele><time>2026-04-04T13:49:23.011Z</time></trkpt><trkpt lat="43.49919" lon="10.5179417"><ele>112.66666666666666</ele><time>2026-04-04T13:49:24.012Z</time></trkpt><trkpt lat="43.4993417" lon="10.5178167"><ele>111.0</ele><time>2026-04-04T13:49:25.011Z</time></trkpt><trkpt lat="43.4994817" lon="10.5176683"><ele>112.66666666666666</ele><time>2026-04-04T13:49:26.012Z</time></trkpt><trkpt lat="43.499615" lon="10.5175083"><ele>114.33333333333333</ele><time>2026-04-04T13:49:27.013Z</time></trkpt><trkpt lat="43.49974" lon="10.517335"><ele>116.0</ele><time>2026-04-04T13:49:28.01Z</time></trkpt><trkpt lat="43.499855" lon="10.517155"><ele>115.5</ele><time>2026-04-04T13:49:29.01Z</time></trkpt><trkpt lat="43.4999583" lon="10.5169833"><ele>115.0</ele><time>2026-04-04T13:49:30.01Z</time></trkpt><trkpt lat="43.5000583" lon="10.516835"><ele>114.5</ele><time>2026-04-04T13:49:31.01Z</time></trkpt><trkpt lat="43.500165" lon="10.5167167"><ele>114.0</ele><time>2026-04-04T13:49:32.01Z</time></trkpt><trkpt lat="43.5002867" lon="10.5166317"><ele>114.0</ele><time>2026-04-04T13:49:33.011Z</time></trkpt><trkpt lat="43.50042" lon="10.5165683"><ele>114.0</ele><time>2026-04-04T13:49:34.01Z</time></trkpt><trkpt lat="43.500575" lon="10.5165183"><ele>114.0</ele><time>2026-04-04T13:49:35.01Z</time></trkpt><trkpt lat="43.500735" lon="10.516445"><ele>114.0</ele><time>2026-04-04T13:49:36.012Z</time></trkpt><trkpt lat="43.500895" lon="10.5163317"><ele>114.0</ele><time>2026-04-04T13:49:37.01Z</time></trkpt><trkpt lat="43.5010583" lon="10.5161917"><ele>114.0</ele><time>2026-04-04T13:49:38.011Z</time></trkpt><trkpt lat="43.5012117" lon="10.516025"><ele>111.66666666666666</ele><time>2026-04-04T13:49:39.01Z</time></trkpt><trkpt lat="43.5013617" lon="10.5158517"><ele>109.33333333333333</ele><time>2026-04-04T13:49:40.01Z</time></trkpt><trkpt lat="43.5015133" lon="10.5156817"><ele>107.0</ele><time>2026-04-04T13:49:41.011Z</time></trkpt><trkpt lat="43.5016633" lon="10.51551"><ele>106.0</ele><time>2026-04-04T13:49:42.01Z</time></trkpt><trkpt lat="43.5018133" lon="10.5153383"><ele>105.0</ele><time>2026-04-04T13:49:43.01Z</time></trkpt><trkpt lat="43.5019583" lon="10.51517"><ele>104.0</ele><time>2026-04-04T13:49:44.011Z</time></trkpt><trkpt lat="43.5021" lon="10.515005"><ele>106.66666666666666</ele><time>2026-04-04T13:49:45.01Z</time></trkpt><trkpt lat="43.50224" lon="10.5148433"><ele>109.33333333333334</ele><time>2026-04-04T13:49:46.01Z</time></trkpt><trkpt lat="43.50239" lon="10.5147083"><ele>112.0</ele><time>2026-04-04T13:49:47.01Z</time></trkpt><trkpt lat="43.5025467" lon="10.514585"><ele>111.66666666666667</ele><time>2026-04-04T13:49:48.01Z</time></trkpt><trkpt lat="43.5027183" lon="10.5144767"><ele>111.33333333333334</ele><time>2026-04-04T13:49:49.011Z</time></trkpt><trkpt lat="43.5028933" lon="10.5143783"><ele>111.0</ele><time>2026-04-04T13:49:50.011Z</time></trkpt><trkpt lat="43.50306" lon="10.5142833"><ele>109.66666666666666</ele><time>2026-04-04T13:49:51.01Z</time></trkpt><trkpt lat="43.5032233" lon="10.51419"><ele>108.33333333333333</ele><time>2026-04-04T13:49:52.01Z</time></trkpt><trkpt lat="43.5033867" lon="10.5140867"><ele>107.0</ele><time>2026-04-04T13:49:53.012Z</time></trkpt><trkpt lat="43.5035517" lon="10.5139867"><ele>107.0</ele><time>2026-04-04T13:49:54.011Z</time></trkpt><trkpt lat="43.5037217" lon="10.5139067"><ele>107.0</ele><time>2026-04-04T13:49:55.011Z</time></trkpt><trkpt lat="43.5038967" lon="10.5138633"><ele>107.0</ele><time>2026-04-04T13:49:56.012Z</time></trkpt><trkpt lat="43.5040683" lon="10.5138617"><ele>106.0</ele><time>2026-04-04T13:49:57.011Z</time></trkpt><trkpt lat="43.5042317" lon="10.5138833"><ele>105.0</ele><time>2026-04-04T13:49:58.011Z</time></trkpt><trkpt lat="43.5043933" lon="10.5139233"><ele>104.0</ele><time>2026-04-04T13:49:59.01Z</time></trkpt><trkpt lat="43.5045583" lon="10.5139633"><ele>103.66666666666666</ele><time>2026-04-04T13:50:00.011Z</time></trkpt><trkpt lat="43.504725" lon="10.5140067"><ele>103.33333333333334</ele><time>2026-04-04T13:50:01.012Z</time></trkpt><trkpt lat="43.5048967" lon="10.5140483"><ele>103.0</ele><time>2026-04-04T13:50:02.01Z</time></trkpt><trkpt lat="43.50507" lon="10.5140883"><ele>103.0</ele><time>2026-04-04T13:50:03.011Z</time></trkpt><trkpt lat="43.5052367" lon="10.51413"><ele>103.0</ele><time>2026-04-04T13:50:04.01Z</time></trkpt><trkpt lat="43.5054" lon="10.514175"><ele>103.0</ele><time>2026-04-04T13:50:05.011Z</time></trkpt><trkpt lat="43.5055617" lon="10.5142167"><ele>103.33333333333334</ele><time>2026-04-04T13:50:06.01Z</time></trkpt><trkpt lat="43.5057233" lon="10.5142617"><ele>103.66666666666666</ele><time>2026-04-04T13:50:07.01Z</time></trkpt><trkpt lat="43.5058833" lon="10.5143067"><ele>104.0</ele><time>2026-04-04T13:50:08.011Z</time></trkpt><trkpt lat="43.506045" lon="10.5143517"><ele>104.0</ele><time>2026-04-04T13:50:09.012Z</time></trkpt><trkpt lat="43.5062083" lon="10.5143883"><ele>104.0</ele><time>2026-04-04T13:50:10.011Z</time></trkpt><trkpt lat="43.5063717" lon="10.5144333"><ele>104.0</ele><time>2026-04-04T13:50:11.011Z</time></trkpt><trkpt lat="43.506535" lon="10.5144783"><ele>103.33333333333333</ele><time>2026-04-04T13:50:12.01Z</time></trkpt><trkpt lat="43.5067017" lon="10.51452"><ele>102.66666666666666</ele><time>2026-04-04T13:50:13.012Z</time></trkpt><trkpt lat="43.5068733" lon="10.5145633"><ele>102.0</ele><time>2026-04-04T13:50:14.01Z</time></trkpt><trkpt lat="43.5070483" lon="10.5146083"><ele>101.66666666666666</ele><time>2026-04-04T13:50:15.011Z</time></trkpt><trkpt lat="43.5072183" lon="10.5146633"><ele>101.33333333333333</ele><time>2026-04-04T13:50:16.011Z</time></trkpt><trkpt lat="43.50738" lon="10.5147567"><ele>101.0</ele><time>2026-04-04T13:50:17.01Z</time></trkpt><trkpt lat="43.5075183" lon="10.5149033"><ele>101.0</ele><time>2026-04-04T13:50:18.01Z</time></trkpt><trkpt lat="43.5076317" lon="10.5150983"><ele>101.0</ele><time>2026-04-04T13:50:19.01Z</time></trkpt><trkpt lat="43.5077283" lon="10.5153233"><ele>101.0</ele><time>2026-04-04T13:50:20.01Z</time></trkpt><trkpt lat="43.5078167" lon="10.5155533"><ele>99.66666666666666</ele><time>2026-04-04T13:50:21.011Z</time></trkpt><trkpt lat="43.507905" lon="10.5157717"><ele>98.33333333333334</ele><time>2026-04-04T13:50:22.01Z</time></trkpt><trkpt lat="43.50799" lon="10.515975"><ele>97.0</ele><time>2026-04-04T13:50:23.011Z</time></trkpt><trkpt lat="43.5080833" lon="10.5161667"><ele>98.33333333333334</ele><time>2026-04-04T13:50:24.01Z</time></trkpt><trkpt lat="43.5082033" lon="10.5163367"><ele>99.66666666666666</ele><time>2026-04-04T13:50:25.011Z</time></trkpt><trkpt lat="43.508345" lon="10.5164767"><ele>101.0</ele><time>2026-04-04T13:50:26.01Z</time></trkpt><trkpt lat="43.5085083" lon="10.516595"><ele>101.0</ele><time>2026-04-04T13:50:27.011Z</time></trkpt><trkpt lat="43.508685" lon="10.516695"><ele>101.0</ele><time>2026-04-04T13:50:28.013Z</time></trkpt><trkpt lat="43.508865" lon="10.5167967"><ele>101.0</ele><time>2026-04-04T13:50:29.011Z</time></trkpt><trkpt lat="43.5090467" lon="10.5169167"><ele>99.66666666666666</ele><time>2026-04-04T13:50:30.012Z</time></trkpt><trkpt lat="43.5092133" lon="10.5170767"><ele>98.33333333333334</ele><time>2026-04-04T13:50:31.011Z</time></trkpt><trkpt lat="43.50936" lon="10.51727"><ele>97.0</ele><time>2026-04-04T13:50:32.011Z</time></trkpt><trkpt lat="43.5094933" lon="10.517475"><ele>95.0</ele><time>2026-04-04T13:50:33.012Z</time></trkpt><trkpt lat="43.5096233" lon="10.5176833"><ele>93.0</ele><time>2026-04-04T13:50:34.011Z</time></trkpt><trkpt lat="43.5097617" lon="10.5178867"><ele>91.0</ele><time>2026-04-04T13:50:35.01Z</time></trkpt><trkpt lat="43.5099017" lon="10.5180817"><ele>91.0</ele><time>2026-04-04T13:50:36.011Z</time></trkpt><trkpt lat="43.510045" lon="10.51827"><ele>91.0</ele><time>2026-04-04T13:50:37.01Z</time></trkpt><trkpt lat="43.51019" lon="10.5184533"><ele>91.0</ele><time>2026-04-04T13:50:38.011Z</time></trkpt><trkpt lat="43.5103417" lon="10.5186367"><ele>90.0</ele><time>2026-04-04T13:50:39.013Z</time></trkpt><trkpt lat="43.5104967" lon="10.5188217"><ele>89.0</ele><time>2026-04-04T13:50:40.011Z</time></trkpt><trkpt lat="43.5106583" lon="10.5190083"><ele>88.0</ele><time>2026-04-04T13:50:41.01Z</time></trkpt><trkpt lat="43.5108283" lon="10.5191967"><ele>88.0</ele><time>2026-04-04T13:50:42.011Z</time></trkpt><trkpt lat="43.511005" lon="10.5193917"><ele>88.0</ele><time>2026-04-04T13:50:43.01Z</time></trkpt><trkpt lat="43.5111817" lon="10.5195983"><ele>87.0</ele><time>2026-04-04T13:50:44.012Z</time></trkpt><trkpt lat="43.5113633" lon="10.5198167"><ele>86.0</ele><time>2026-04-04T13:50:45.011Z</time></trkpt><trkpt lat="43.5115383" lon="10.5200283"><ele>86.0</ele><time>2026-04-04T13:50:46.009Z</time></trkpt><trkpt lat="43.5117017" lon="10.5202283"><ele>86.0</ele><time>2026-04-04T13:50:47.011Z</time></trkpt><trkpt lat="43.511855" lon="10.5204117"><ele>86.0</ele><time>2026-04-04T13:50:48.011Z</time></trkpt><trkpt lat="43.5120017" lon="10.5205833"><ele>87.0</ele><time>2026-04-04T13:50:49.01Z</time></trkpt><trkpt lat="43.5121467" lon="10.520745"><ele>88.0</ele><time>2026-04-04T13:50:50.012Z</time></trkpt><trkpt lat="43.5123033" lon="10.5208917"><ele>89.0</ele><time>2026-04-04T13:50:51.011Z</time></trkpt><trkpt lat="43.5124733" lon="10.52103"><ele>89.0</ele><time>2026-04-04T13:50:52.01Z</time></trkpt><trkpt lat="43.5126583" lon="10.5211517"><ele>89.0</ele><time>2026-04-04T13:50:53.01Z</time></trkpt><trkpt lat="43.5128533" lon="10.5212683"><ele>89.0</ele><time>2026-04-04T13:50:54.01Z</time></trkpt><trkpt lat="43.5130567" lon="10.521385"><ele>88.5</ele><time>2026-04-04T13:50:55.012Z</time></trkpt><trkpt lat="43.51327" lon="10.5215083"><ele>88.0</ele><time>2026-04-04T13:50:56.011Z</time></trkpt><trkpt lat="43.5134833" lon="10.5216467"><ele>88.0</ele><time>2026-04-04T13:50:57.011Z</time></trkpt><trkpt lat="43.5136983" lon="10.5217917"><ele>88.0</ele><time>2026-04-04T13:50:58.011Z</time></trkpt><trkpt lat="43.513905" lon="10.52194"><ele>85.0</ele><time>2026-04-04T13:50:59.011Z</time></trkpt><trkpt lat="43.514115" lon="10.5220783"><ele>82.0</ele><time>2026-04-04T13:51:00.01Z</time></trkpt><trkpt lat="43.5143367" lon="10.522205"><ele>82.0</ele><time>2026-04-04T13:51:01.01Z</time></trkpt><trkpt lat="43.5145583" lon="10.52232"><ele>82.0</ele><time>2026-04-04T13:51:02.012Z</time></trkpt><trkpt lat="43.5147833" lon="10.5224267"><ele>81.0</ele><time>2026-04-04T13:51:03.011Z</time></trkpt><trkpt lat="43.5150017" lon="10.5225317"><ele>80.0</ele><time>2026-04-04T13:51:04.01Z</time></trkpt><trkpt lat="43.5152083" lon="10.5226367"><ele>79.66666666666667</ele><time>2026-04-04T13:51:05.01Z</time></trkpt><trkpt lat="43.5154083" lon="10.5227383"><ele>79.33333333333333</ele><time>2026-04-04T13:51:06.009Z</time></trkpt><trkpt lat="43.515595" lon="10.5228333"><ele>79.0</ele><time>2026-04-04T13:51:07.012Z</time></trkpt><trkpt lat="43.515775" lon="10.52291"><ele>79.0</ele><time>2026-04-04T13:51:08.01Z</time></trkpt><trkpt lat="43.515955" lon="10.5229583"><ele>79.0</ele><time>2026-04-04T13:51:09.012Z</time></trkpt><trkpt lat="43.5161333" lon="10.5229667"><ele>79.0</ele><time>2026-04-04T13:51:10.011Z</time></trkpt><trkpt lat="43.5163083" lon="10.5229267"><ele>76.33333333333333</ele><time>2026-04-04T13:51:11.01Z</time></trkpt><trkpt lat="43.5164783" lon="10.5228283"><ele>73.66666666666667</ele><time>2026-04-04T13:51:12.011Z</time></trkpt><trkpt lat="43.5166333" lon="10.5226767"><ele>71.0</ele><time>2026-04-04T13:51:13.011Z</time></trkpt><trkpt lat="43.51678" lon="10.5224733"><ele>71.0</ele><time>2026-04-04T13:51:14.011Z</time></trkpt><trkpt lat="43.5169067" lon="10.5222483"><ele>71.0</ele><time>2026-04-04T13:51:15.013Z</time></trkpt><trkpt lat="43.517035" lon="10.5220133"><ele>71.0</ele><time>2026-04-04T13:51:16.01Z</time></trkpt><trkpt lat="43.517165" lon="10.5217933"><ele>69.0</ele><time>2026-04-04T13:51:17.011Z</time></trkpt><trkpt lat="43.5172833" lon="10.5215783"><ele>67.0</ele><time>2026-04-04T13:51:18.01Z</time></trkpt><trkpt lat="43.5173983" lon="10.5213733"><ele>65.0</ele><time>2026-04-04T13:51:19.01Z</time></trkpt><trkpt lat="43.5175133" lon="10.5211783"><ele>63.0</ele><time>2026-04-04T13:51:20.013Z</time></trkpt><trkpt lat="43.51763" lon="10.521"><ele>61.0</ele><time>2026-04-04T13:51:21.012Z</time></trkpt><trkpt lat="43.51776" lon="10.5208567"><ele>59.0</ele><time>2026-04-04T13:51:22.012Z</time></trkpt><trkpt lat="43.5179083" lon="10.5207633"><ele>58.333333333333336</ele><time>2026-04-04T13:51:23.012Z</time></trkpt><trkpt lat="43.5180917" lon="10.5207483"><ele>57.66666666666667</ele><time>2026-04-04T13:51:24.012Z</time></trkpt><trkpt lat="43.5182817" lon="10.5207717"><ele>57.0</ele><time>2026-04-04T13:51:25.011Z</time></trkpt><trkpt lat="43.5184733" lon="10.5208217"><ele>57.0</ele><time>2026-04-04T13:51:26.012Z</time></trkpt><trkpt lat="43.5186717" lon="10.5209017"><ele>57.0</ele><time>2026-04-04T13:51:27.013Z</time></trkpt><trkpt lat="43.5188717" lon="10.5210267"><ele>57.0</ele><time>2026-04-04T13:51:28.012Z</time></trkpt><trkpt lat="43.5190667" lon="10.5211867"><ele>57.0</ele><time>2026-04-04T13:51:29.013Z</time></trkpt><trkpt lat="43.51926" lon="10.5213667"><ele>57.0</ele><time>2026-04-04T13:51:30.011Z</time></trkpt><trkpt lat="43.5194483" lon="10.521545"><ele>52.5</ele><time>2026-04-04T13:51:31.012Z</time></trkpt><trkpt lat="43.5196417" lon="10.5217217"><ele>48.0</ele><time>2026-04-04T13:51:32.011Z</time></trkpt><trkpt lat="43.5198333" lon="10.5218967"><ele>48.5</ele><time>2026-04-04T13:51:33.011Z</time></trkpt><trkpt lat="43.520025" lon="10.5220783"><ele>49.0</ele><time>2026-04-04T13:51:34.01Z</time></trkpt><trkpt lat="43.5202217" lon="10.5222617"><ele>47.5</ele><time>2026-04-04T13:51:35.011Z</time></trkpt><trkpt lat="43.5204133" lon="10.5224467"><ele>46.0</ele><time>2026-04-04T13:51:36.01Z</time></trkpt><trkpt lat="43.52061" lon="10.5226233"><ele>46.0</ele><time>2026-04-04T13:51:37.01Z</time></trkpt><trkpt lat="43.5208067" lon="10.522795"><ele>46.0</ele><time>2026-04-04T13:51:38.01Z</time></trkpt><trkpt lat="43.5210017" lon="10.522965"><ele>45.5</ele><time>2026-04-04T13:51:39.011Z</time></trkpt><trkpt lat="43.5211983" lon="10.5231233"><ele>45.0</ele><time>2026-04-04T13:51:40.011Z</time></trkpt><trkpt lat="43.521405" lon="10.5232633"><ele>44.5</ele><time>2026-04-04T13:51:41.012Z</time></trkpt><trkpt lat="43.52162" lon="10.5233783"><ele>44.0</ele><time>2026-04-04T13:51:42.011Z</time></trkpt><trkpt lat="43.521835" lon="10.5234783"><ele>44.0</ele><time>2026-04-04T13:51:43.01Z</time></trkpt><trkpt lat="43.5220517" lon="10.5235833"><ele>44.0</ele><time>2026-04-04T13:51:44.011Z</time></trkpt><trkpt lat="43.5222683" lon="10.5236867"><ele>45.5</ele><time>2026-04-04T13:51:45.011Z</time></trkpt><trkpt lat="43.5224867" lon="10.5237883"><ele>47.0</ele><time>2026-04-04T13:51:46.009Z</time></trkpt><trkpt lat="43.5227067" lon="10.5238883"><ele>47.5</ele><time>2026-04-04T13:51:47.011Z</time></trkpt><trkpt lat="43.52293" lon="10.5239867"><ele>48.0</ele><time>2026-04-04T13:51:48.011Z</time></trkpt><trkpt lat="43.5231517" lon="10.5240883"><ele>48.0</ele><time>2026-04-04T13:51:49.011Z</time></trkpt><trkpt lat="43.5233733" lon="10.5241933"><ele>48.0</ele><time>2026-04-04T13:51:50.012Z</time></trkpt><trkpt lat="43.5235967" lon="10.5242983"><ele>47.0</ele><time>2026-04-04T13:51:51.011Z</time></trkpt><trkpt lat="43.52382" lon="10.5244083"><ele>46.0</ele><time>2026-04-04T13:51:52.01Z</time></trkpt><trkpt lat="43.5240383" lon="10.5245333"><ele>48.0</ele><time>2026-04-04T13:51:53.011Z</time></trkpt><trkpt lat="43.52425" lon="10.5246817"><ele>50.0</ele><time>2026-04-04T13:51:54.011Z</time></trkpt><trkpt lat="43.5244467" lon="10.5248517"><ele>48.0</ele><time>2026-04-04T13:51:55.01Z</time></trkpt><trkpt lat="43.524635" lon="10.525035"><ele>46.0</ele><time>2026-04-04T13:51:56.01Z</time></trkpt><trkpt lat="43.5248183" lon="10.525225"><ele>50.0</ele><time>2026-04-04T13:51:57.011Z</time></trkpt><trkpt lat="43.5250083" lon="10.5254067"><ele>54.0</ele><time>2026-04-04T13:51:58.01Z</time></trkpt><trkpt lat="43.5251867" lon="10.5255917"><ele>54.0</ele><time>2026-04-04T13:51:59.012Z</time></trkpt><trkpt lat="43.525355" lon="10.5257617"><ele>54.0</ele><time>2026-04-04T13:52:00.011Z</time></trkpt><trkpt lat="43.5255233" lon="10.52594"><ele>54.0</ele><time>2026-04-04T13:52:01.011Z</time></trkpt><trkpt lat="43.52569" lon="10.5261083"><ele>54.0</ele><time>2026-04-04T13:52:02.012Z</time></trkpt><trkpt lat="43.5258533" lon="10.5262783"><ele>54.0</ele><time>2026-04-04T13:52:03.013Z</time></trkpt><trkpt lat="43.526005" lon="10.526435"><ele>54.0</ele><time>2026-04-04T13:52:04.013Z</time></trkpt><trkpt lat="43.5261567" lon="10.5265817"><ele>50.333333333333336</ele><time>2026-04-04T13:52:05.01Z</time></trkpt><trkpt lat="43.5263017" lon="10.5267217"><ele>46.66666666666667</ele><time>2026-04-04T13:52:06.01Z</time></trkpt><trkpt lat="43.52644" lon="10.5268517"><ele>43.0</ele><time>2026-04-04T13:52:07.01Z</time></trkpt><trkpt lat="43.526575" lon="10.5269617"><ele>43.0</ele><time>2026-04-04T13:52:08.012Z</time></trkpt><trkpt lat="43.52671" lon="10.5270533"><ele>43.0</ele><time>2026-04-04T13:52:09.012Z</time></trkpt><trkpt lat="43.526845" lon="10.527135"><ele>43.0</ele><time>2026-04-04T13:52:10.012Z</time></trkpt><trkpt lat="43.52699" lon="10.5272017"><ele>43.66666666666667</ele><time>2026-04-04T13:52:11.011Z</time></trkpt><trkpt lat="43.5271483" lon="10.52725"><ele>44.333333333333336</ele><time>2026-04-04T13:52:12.012Z</time></trkpt><trkpt lat="43.5273283" lon="10.527295"><ele>45.0</ele><time>2026-04-04T13:52:13.011Z</time></trkpt><trkpt lat="43.527525" lon="10.52733"><ele>45.0</ele><time>2026-04-04T13:52:14.011Z</time></trkpt><trkpt lat="43.527735" lon="10.5273533"><ele>45.0</ele><time>2026-04-04T13:52:15.01Z</time></trkpt><trkpt lat="43.5279567" lon="10.5273733"><ele>45.0</ele><time>2026-04-04T13:52:16.011Z</time></trkpt><trkpt lat="43.5281767" lon="10.5273933"><ele>45.333333333333336</ele><time>2026-04-04T13:52:17.011Z</time></trkpt><trkpt lat="43.5283867" lon="10.5274067"><ele>45.66666666666667</ele><time>2026-04-04T13:52:18.011Z</time></trkpt><trkpt lat="43.5285883" lon="10.5274167"><ele>46.0</ele><time>2026-04-04T13:52:19.011Z</time></trkpt><trkpt lat="43.52878" lon="10.52743"><ele>46.0</ele><time>2026-04-04T13:52:20.012Z</time></trkpt><trkpt lat="43.52897" lon="10.5274467"><ele>46.0</ele><time>2026-04-04T13:52:21.011Z</time></trkpt><trkpt lat="43.5291667" lon="10.5274533"><ele>46.0</ele><time>2026-04-04T13:52:22.011Z</time></trkpt><trkpt lat="43.5293767" lon="10.52748"><ele>46.0</ele><time>2026-04-04T13:52:23.011Z</time></trkpt><trkpt lat="43.5296" lon="10.5275367"><ele>46.0</ele><time>2026-04-04T13:52:24.012Z</time></trkpt><trkpt lat="43.52983" lon="10.5276167"><ele>46.0</ele><time>2026-04-04T13:52:25.011Z</time></trkpt><trkpt lat="43.53006" lon="10.52771"><ele>46.0</ele><time>2026-04-04T13:52:26.01Z</time></trkpt><trkpt lat="43.5302917" lon="10.5277933"><ele>45.0</ele><time>2026-04-04T13:52:27.012Z</time></trkpt><trkpt lat="43.5305233" lon="10.5278483"><ele>44.0</ele><time>2026-04-04T13:52:28.01Z</time></trkpt><trkpt lat="43.5307583" lon="10.5278683"><ele>44.0</ele><time>2026-04-04T13:52:29.011Z</time></trkpt><trkpt lat="43.53099" lon="10.5278617"><ele>44.0</ele><time>2026-04-04T13:52:30.011Z</time></trkpt><trkpt lat="43.531225" lon="10.5278367"><ele>44.0</ele><time>2026-04-04T13:52:31.011Z</time></trkpt><trkpt lat="43.5314583" lon="10.5278067"><ele>44.0</ele><time>2026-04-04T13:52:32.011Z</time></trkpt><trkpt lat="43.5316883" lon="10.527775"><ele>44.0</ele><time>2026-04-04T13:52:33.013Z</time></trkpt><trkpt lat="43.5319117" lon="10.5277417"><ele>44.0</ele><time>2026-04-04T13:52:34.011Z</time></trkpt><trkpt lat="43.5321267" lon="10.5277133"><ele>44.0</ele><time>2026-04-04T13:52:35.011Z</time></trkpt><trkpt lat="43.5323383" lon="10.52769"><ele>43.666666666666664</ele><time>2026-04-04T13:52:36.011Z</time></trkpt><trkpt lat="43.5325517" lon="10.5276717"><ele>43.333333333333336</ele><time>2026-04-04T13:52:37.011Z</time></trkpt><trkpt lat="43.5327667" lon="10.5276667"><ele>43.0</ele><time>2026-04-04T13:52:38.012Z</time></trkpt><trkpt lat="43.5329767" lon="10.52766"><ele>43.0</ele><time>2026-04-04T13:52:39.011Z</time></trkpt><trkpt lat="43.5331833" lon="10.5276533"><ele>43.0</ele><time>2026-04-04T13:52:40.011Z</time></trkpt><trkpt lat="43.5333883" lon="10.52764"><ele>43.0</ele><time>2026-04-04T13:52:41.011Z</time></trkpt><trkpt lat="43.5335917" lon="10.5276117"><ele>43.333333333333336</ele><time>2026-04-04T13:52:42.011Z</time></trkpt><trkpt lat="43.5337867" lon="10.52755"><ele>43.666666666666664</ele><time>2026-04-04T13:52:43.012Z</time></trkpt><trkpt lat="43.5339733" lon="10.527465"><ele>44.0</ele><time>2026-04-04T13:52:44.01Z</time></trkpt><trkpt lat="43.5341667" lon="10.5273767"><ele>44.0</ele><time>2026-04-04T13:52:45.011Z</time></trkpt><trkpt lat="43.5343617" lon="10.5273083"><ele>44.0</ele><time>2026-04-04T13:52:46.009Z</time></trkpt><trkpt lat="43.5345583" lon="10.5272567"><ele>44.0</ele><time>2026-04-04T13:52:47.011Z</time></trkpt><trkpt lat="43.5347567" lon="10.5272217"><ele>43.33333333333333</ele><time>2026-04-04T13:52:48.011Z</time></trkpt><trkpt lat="43.534955" lon="10.5272"><ele>42.666666666666664</ele><time>2026-04-04T13:52:49.011Z</time></trkpt><trkpt lat="43.53515" lon="10.52719"><ele>42.0</ele><time>2026-04-04T13:52:50.011Z</time></trkpt><trkpt lat="43.5353433" lon="10.5271867"><ele>42.333333333333336</ele><time>2026-04-04T13:52:51.011Z</time></trkpt><trkpt lat="43.5355383" lon="10.527175"><ele>42.66666666666667</ele><time>2026-04-04T13:52:52.012Z</time></trkpt><trkpt lat="43.5357283" lon="10.5271617"><ele>43.0</ele><time>2026-04-04T13:52:53.011Z</time></trkpt><trkpt lat="43.5359117" lon="10.52716"><ele>43.0</ele><time>2026-04-04T13:52:54.011Z</time></trkpt><trkpt lat="43.5360883" lon="10.527145"><ele>43.0</ele><time>2026-04-04T13:52:55.012Z</time></trkpt><trkpt lat="43.5362617" lon="10.5271067"><ele>43.0</ele><time>2026-04-04T13:52:56.013Z</time></trkpt><trkpt lat="43.5364267" lon="10.527015"><ele>42.333333333333336</ele><time>2026-04-04T13:52:57.013Z</time></trkpt><trkpt lat="43.5365883" lon="10.5268833"><ele>41.666666666666664</ele><time>2026-04-04T13:52:58.012Z</time></trkpt><trkpt lat="43.536755" lon="10.5267433"><ele>41.0</ele><time>2026-04-04T13:52:59.012Z</time></trkpt><trkpt lat="43.536935" lon="10.5266367"><ele>40.666666666666664</ele><time>2026-04-04T13:53:00.011Z</time></trkpt><trkpt lat="43.53712" lon="10.526565"><ele>40.333333333333336</ele><time>2026-04-04T13:53:01.011Z</time></trkpt><trkpt lat="43.5373117" lon="10.52653"><ele>40.0</ele><time>2026-04-04T13:53:02.01Z</time></trkpt><trkpt lat="43.5375067" lon="10.526525"><ele>40.0</ele><time>2026-04-04T13:53:03.012Z</time></trkpt><trkpt lat="43.5377033" lon="10.52653"><ele>40.0</ele><time>2026-04-04T13:53:04.012Z</time></trkpt><trkpt lat="43.5379017" lon="10.52653"><ele>40.0</ele><time>2026-04-04T13:53:05.012Z</time></trkpt><trkpt lat="43.538095" lon="10.5265117"><ele>41.0</ele><time>2026-04-04T13:53:06.009Z</time></trkpt><trkpt lat="43.538275" lon="10.52648"><ele>42.0</ele><time>2026-04-04T13:53:07.011Z</time></trkpt><trkpt lat="43.5384417" lon="10.5264433"><ele>43.0</ele><time>2026-04-04T13:53:08.011Z</time></trkpt><trkpt lat="43.5385967" lon="10.5264083"><ele>42.75</ele><time>2026-04-04T13:53:09.012Z</time></trkpt><trkpt lat="43.53874" lon="10.5263767"><ele>42.5</ele><time>2026-04-04T13:53:10.011Z</time></trkpt><trkpt lat="43.5388783" lon="10.5263533"><ele>42.25</ele><time>2026-04-04T13:53:11.011Z</time></trkpt><trkpt lat="43.5390067" lon="10.526335"><ele>42.0</ele><time>2026-04-04T13:53:12.012Z</time></trkpt><trkpt lat="43.53913" lon="10.5263267"><ele>42.0</ele><time>2026-04-04T13:53:13.01Z</time></trkpt><trkpt lat="43.53925" lon="10.5263267"><ele>42.0</ele><time>2026-04-04T13:53:14.011Z</time></trkpt><trkpt lat="43.5393733" lon="10.5263367"><ele>42.0</ele><time>2026-04-04T13:53:15.011Z</time></trkpt><trkpt lat="43.5395" lon="10.5263617"><ele>42.0</ele><time>2026-04-04T13:53:16.012Z</time></trkpt><trkpt lat="43.53963" lon="10.52639"><ele>42.25</ele><time>2026-04-04T13:53:17.01Z</time></trkpt><trkpt lat="43.53976" lon="10.5264367"><ele>42.5</ele><time>2026-04-04T13:53:18.012Z</time></trkpt><trkpt lat="43.5398833" lon="10.526495"><ele>42.75</ele><time>2026-04-04T13:53:19.012Z</time></trkpt><trkpt lat="43.5400067" lon="10.526555"><ele>43.0</ele><time>2026-04-04T13:53:20.012Z</time></trkpt><trkpt lat="43.5401317" lon="10.52661"><ele>43.0</ele><time>2026-04-04T13:53:21.012Z</time></trkpt><trkpt lat="43.5402567" lon="10.5266617"><ele>43.0</ele><time>2026-04-04T13:53:22.011Z</time></trkpt><trkpt lat="43.54038" lon="10.52671"><ele>43.0</ele><time>2026-04-04T13:53:23.011Z</time></trkpt><trkpt lat="43.5404933" lon="10.526755"><ele>43.0</ele><time>2026-04-04T13:53:24.012Z</time></trkpt><trkpt lat="43.5406033" lon="10.5268017"><ele>42.25</ele><time>2026-04-04T13:53:25.011Z</time></trkpt><trkpt lat="43.5407133" lon="10.5268417"><ele>41.5</ele><time>2026-04-04T13:53:26.009Z</time></trkpt><trkpt lat="43.5408233" lon="10.5268683"><ele>40.75</ele><time>2026-04-04T13:53:27.011Z</time></trkpt><trkpt lat="43.5409417" lon="10.5268983"><ele>40.0</ele><time>2026-04-04T13:53:28.012Z</time></trkpt><trkpt lat="43.54107" lon="10.5269283"><ele>40.0</ele><time>2026-04-04T13:53:29.009Z</time></trkpt><trkpt lat="43.5412117" lon="10.5269567"><ele>40.0</ele><time>2026-04-04T13:53:30.01Z</time></trkpt><trkpt lat="43.5413567" lon="10.5269867"><ele>40.0</ele><time>2026-04-04T13:53:31.009Z</time></trkpt><trkpt lat="43.5415117" lon="10.527025"><ele>40.0</ele><time>2026-04-04T13:53:32.009Z</time></trkpt><trkpt lat="43.5416717" lon="10.527055"><ele>40.66666666666667</ele><time>2026-04-04T13:53:33.01Z</time></trkpt><trkpt lat="43.5418367" lon="10.5270767"><ele>41.333333333333336</ele><time>2026-04-04T13:53:34.009Z</time></trkpt><trkpt lat="43.5420017" lon="10.527085"><ele>42.0</ele><time>2026-04-04T13:53:35.01Z</time></trkpt><trkpt lat="43.5421633" lon="10.5270867"><ele>42.0</ele><time>2026-04-04T13:53:36.01Z</time></trkpt><trkpt lat="43.54232" lon="10.5270817"><ele>42.0</ele><time>2026-04-04T13:53:37.01Z</time></trkpt><trkpt lat="43.5424683" lon="10.5270633"><ele>42.0</ele><time>2026-04-04T13:53:38.01Z</time></trkpt><trkpt lat="43.5426167" lon="10.52702"><ele>42.0</ele><time>2026-04-04T13:53:39.011Z</time></trkpt><trkpt lat="43.5427633" lon="10.52695"><ele>42.0</ele><time>2026-04-04T13:53:40.012Z</time></trkpt><trkpt lat="43.542915" lon="10.52687"><ele>42.0</ele><time>2026-04-04T13:53:41.011Z</time></trkpt><trkpt lat="43.5430733" lon="10.5267967"><ele>41.666666666666664</ele><time>2026-04-04T13:53:42.012Z</time></trkpt><trkpt lat="43.5432283" lon="10.5267267"><ele>41.33333333333333</ele><time>2026-04-04T13:53:43.011Z</time></trkpt><trkpt lat="43.543375" lon="10.526665"><ele>41.0</ele><time>2026-04-04T13:53:44.011Z</time></trkpt><trkpt lat="43.5435083" lon="10.5266083"><ele>41.0</ele><time>2026-04-04T13:53:45.011Z</time></trkpt><trkpt lat="43.543625" lon="10.5265617"><ele>41.0</ele><time>2026-04-04T13:53:46.011Z</time></trkpt><trkpt lat="43.5437217" lon="10.52653"><ele>41.0</ele><time>2026-04-04T13:53:47.011Z</time></trkpt><trkpt lat="43.543805" lon="10.52651"><ele>41.0</ele><time>2026-04-04T13:53:48.011Z</time></trkpt><trkpt lat="43.54388" lon="10.5265067"><ele>41.0</ele><time>2026-04-04T13:53:49.013Z</time></trkpt><trkpt lat="43.5439867" lon="10.5264483"><ele>41.0</ele><time>2026-04-04T13:53:51.011Z</time></trkpt><trkpt lat="43.544025" lon="10.5263"><ele>41.0</ele><time>2026-04-04T13:53:53.011Z</time></trkpt><trkpt lat="43.5440083" lon="10.5261767"><ele>41.0</ele><time>2026-04-04T13:53:54.011Z</time></trkpt><trkpt lat="43.5439917" lon="10.526055"><ele>41.0</ele><time>2026-04-04T13:53:55.013Z</time></trkpt><trkpt lat="43.5439783" lon="10.5259417"><ele>41.0</ele><time>2026-04-04T13:53:56.011Z</time></trkpt><trkpt lat="43.5439733" lon="10.5258433"><ele>41.0</ele><time>2026-04-04T13:53:57.012Z</time></trkpt><trkpt lat="43.543975" lon="10.5256633"><ele>41.0</ele><time>2026-04-04T13:53:59.012Z</time></trkpt><trkpt lat="43.5439983" lon="10.5255567"><ele>41.0</ele><time>2026-04-04T13:54:00.011Z</time></trkpt><trkpt lat="43.5440433" lon="10.5254483"><ele>41.0</ele><time>2026-04-04T13:54:01.01Z</time></trkpt><trkpt lat="43.5441267" lon="10.5253533"><ele>41.0</ele><time>2026-04-04T13:54:02.011Z</time></trkpt><trkpt lat="43.5442467" lon="10.52526"><ele>41.0</ele><time>2026-04-04T13:54:03.011Z</time></trkpt><trkpt lat="43.5443933" lon="10.5251633"><ele>40.0</ele><time>2026-04-04T13:54:04.011Z</time></trkpt><trkpt lat="43.544555" lon="10.5250683"><ele>39.0</ele><time>2026-04-04T13:54:05.012Z</time></trkpt><trkpt lat="43.544725" lon="10.5249767"><ele>38.0</ele><time>2026-04-04T13:54:06.012Z</time></trkpt><trkpt lat="43.544895" lon="10.52488"><ele>38.0</ele><time>2026-04-04T13:54:07.012Z</time></trkpt><trkpt lat="43.5450533" lon="10.5247883"><ele>38.0</ele><time>2026-04-04T13:54:08.01Z</time></trkpt><trkpt lat="43.545195" lon="10.524725"><ele>38.0</ele><time>2026-04-04T13:54:09.012Z</time></trkpt><trkpt lat="43.545335" lon="10.52471"><ele>38.25</ele><time>2026-04-04T13:54:10.011Z</time></trkpt><trkpt lat="43.5454617" lon="10.5247667"><ele>38.5</ele><time>2026-04-04T13:54:11.013Z</time></trkpt><trkpt lat="43.545565" lon="10.5248733"><ele>38.75</ele><time>2026-04-04T13:54:12.011Z</time></trkpt><trkpt lat="43.5456433" lon="10.525015"><ele>39.0</ele><time>2026-04-04T13:54:13.011Z</time></trkpt><trkpt lat="43.54568" lon="10.5251883"><ele>39.0</ele><time>2026-04-04T13:54:14.011Z</time></trkpt><trkpt lat="43.54568" lon="10.5253767"><ele>39.0</ele><time>2026-04-04T13:54:15.012Z</time></trkpt><trkpt lat="43.545635" lon="10.5255733"><ele>39.0</ele><time>2026-04-04T13:54:16.012Z</time></trkpt><trkpt lat="43.5455517" lon="10.52578"><ele>43.66666666666667</ele><time>2026-04-04T13:54:17.012Z</time></trkpt><trkpt lat="43.5454417" lon="10.5260067"><ele>48.333333333333336</ele><time>2026-04-04T13:54:18.011Z</time></trkpt><trkpt lat="43.545335" lon="10.5262333"><ele>53.0</ele><time>2026-04-04T13:54:19.011Z</time></trkpt><trkpt lat="43.545235" lon="10.526435"><ele>53.0</ele><time>2026-04-04T13:54:20.011Z</time></trkpt><trkpt lat="43.5451283" lon="10.5266017"><ele>53.0</ele><time>2026-04-04T13:54:21.011Z</time></trkpt><trkpt lat="43.54501" lon="10.5267467"><ele>53.0</ele><time>2026-04-04T13:54:22.011Z</time></trkpt><trkpt lat="43.54489" lon="10.5268767"><ele>53.0</ele><time>2026-04-04T13:54:23.011Z</time></trkpt><trkpt lat="43.5447733" lon="10.5270017"><ele>53.0</ele><time>2026-04-04T13:54:24.011Z</time></trkpt><trkpt lat="43.54468" lon="10.5271433"><ele>53.0</ele><time>2026-04-04T13:54:25.01Z</time></trkpt><trkpt lat="43.5446233" lon="10.5273"><ele>53.0</ele><time>2026-04-04T13:54:26.011Z</time></trkpt><trkpt lat="43.5446" lon="10.5274617"><ele>56.75</ele><time>2026-04-04T13:54:27.011Z</time></trkpt><trkpt lat="43.5446133" lon="10.5276367"><ele>60.5</ele><time>2026-04-04T13:54:28.011Z</time></trkpt><trkpt lat="43.54465" lon="10.5278233"><ele>64.25</ele><time>2026-04-04T13:54:29.011Z</time></trkpt><trkpt lat="43.5446833" lon="10.5280167"><ele>68.0</ele><time>2026-04-04T13:54:30.011Z</time></trkpt><trkpt lat="43.544715" lon="10.52821"><ele>70.75</ele><time>2026-04-04T13:54:31.013Z</time></trkpt><trkpt lat="43.54472" lon="10.528405"><ele>73.5</ele><time>2026-04-04T13:54:32.011Z</time></trkpt><trkpt lat="43.5447067" lon="10.528605"><ele>76.25</ele><time>2026-04-04T13:54:33.011Z</time></trkpt><trkpt lat="43.5446983" lon="10.528805"><ele>79.0</ele><time>2026-04-04T13:54:34.01Z</time></trkpt><trkpt lat="43.5447083" lon="10.5290017"><ele>79.75</ele><time>2026-04-04T13:54:35.011Z</time></trkpt><trkpt lat="43.544735" lon="10.5291967"><ele>80.5</ele><time>2026-04-04T13:54:36.01Z</time></trkpt><trkpt lat="43.5447683" lon="10.5293867"><ele>81.25</ele><time>2026-04-04T13:54:37.011Z</time></trkpt><trkpt lat="43.5448083" lon="10.5295533"><ele>82.0</ele><time>2026-04-04T13:54:38.011Z</time></trkpt><trkpt lat="43.54486" lon="10.5296917"><ele>80.0</ele><time>2026-04-04T13:54:39.011Z</time></trkpt><trkpt lat="43.544915" lon="10.5298017"><ele>78.0</ele><time>2026-04-04T13:54:40.011Z</time></trkpt><trkpt lat="43.544995" lon="10.52988"><ele>76.0</ele><time>2026-04-04T13:54:41.012Z</time></trkpt><trkpt lat="43.54508" lon="10.5299383"><ele>74.0</ele><time>2026-04-04T13:54:42.012Z</time></trkpt><trkpt lat="43.5451617" lon="10.5299983"><ele>72.0</ele><time>2026-04-04T13:54:43.012Z</time></trkpt><trkpt lat="43.5452433" lon="10.530055"><ele>72.0</ele><time>2026-04-04T13:54:44.013Z</time></trkpt><trkpt lat="43.545315" lon="10.530115"><ele>72.0</ele><time>2026-04-04T13:54:45.013Z</time></trkpt><trkpt lat="43.54538" lon="10.5301833"><ele>72.0</ele><time>2026-04-04T13:54:46.011Z</time></trkpt><trkpt lat="43.54544" lon="10.530265"><ele>72.0</ele><time>2026-04-04T13:54:47.011Z</time></trkpt><trkpt lat="43.5454983" lon="10.5303567"><ele>72.0</ele><time>2026-04-04T13:54:48.014Z</time></trkpt><trkpt lat="43.545555" lon="10.53046"><ele>72.0</ele><time>2026-04-04T13:54:49.012Z</time></trkpt><trkpt lat="43.545615" lon="10.530575"><ele>75.4</ele><time>2026-04-04T13:54:50.012Z</time></trkpt><trkpt lat="43.5456783" lon="10.5307"><ele>78.80000000000001</ele><time>2026-04-04T13:54:51.011Z</time></trkpt><trkpt lat="43.545745" lon="10.530815"><ele>82.2</ele><time>2026-04-04T13:54:52.01Z</time></trkpt><trkpt lat="43.54581" lon="10.53093"><ele>85.60000000000001</ele><time>2026-04-04T13:54:53.011Z</time></trkpt><trkpt lat="43.5458733" lon="10.5310417"><ele>89.0</ele><time>2026-04-04T13:54:54.012Z</time></trkpt><trkpt lat="43.545955" lon="10.5311533"><ele>87.0</ele><time>2026-04-04T13:54:55.012Z</time></trkpt><trkpt lat="43.5460317" lon="10.53127"><ele>85.0</ele><time>2026-04-04T13:54:56.011Z</time></trkpt><trkpt lat="43.5461167" lon="10.5313933"><ele>83.0</ele><time>2026-04-04T13:54:57.011Z</time></trkpt><trkpt lat="43.5462067" lon="10.5315333"><ele>81.0</ele><time>2026-04-04T13:54:58.011Z</time></trkpt><trkpt lat="43.5463" lon="10.5317017"><ele>86.0</ele><time>2026-04-04T13:54:59.012Z</time></trkpt><trkpt lat="43.54639" lon="10.5318817"><ele>91.0</ele><time>2026-04-04T13:55:00.011Z</time></trkpt><trkpt lat="43.5464733" lon="10.5320583"><ele>96.0</ele><time>2026-04-04T13:55:01.011Z</time></trkpt><trkpt lat="43.5465717" lon="10.5322167"><ele>96.0</ele><time>2026-04-04T13:55:02.011Z</time></trkpt><trkpt lat="43.5466783" lon="10.5323433"><ele>96.0</ele><time>2026-04-04T13:55:03.012Z</time></trkpt><trkpt lat="43.5467933" lon="10.532425"><ele>96.0</ele><time>2026-04-04T13:55:04.012Z</time></trkpt><trkpt lat="43.5469133" lon="10.5324617"><ele>96.0</ele><time>2026-04-04T13:55:05.011Z</time></trkpt><trkpt lat="43.5470483" lon="10.532445"><ele>96.4</ele><time>2026-04-04T13:55:06.011Z</time></trkpt><trkpt lat="43.54718" lon="10.5324117"><ele>96.8</ele><time>2026-04-04T13:55:07.012Z</time></trkpt><trkpt lat="43.5472967" lon="10.53237"><ele>97.2</ele><time>2026-04-04T13:55:08.011Z</time></trkpt><trkpt lat="43.5473983" lon="10.532325"><ele>97.60000000000001</ele><time>2026-04-04T13:55:09.012Z</time></trkpt><trkpt lat="43.547475" lon="10.5322817"><ele>98.0</ele><time>2026-04-04T13:55:10.011Z</time></trkpt><trkpt lat="43.54754" lon="10.5322383"><ele>98.0</ele><time>2026-04-04T13:55:11.013Z</time></trkpt><trkpt lat="43.5476217" lon="10.5321733"><ele>98.0</ele><time>2026-04-04T13:55:13.011Z</time></trkpt><trkpt lat="43.5476633" lon="10.532085"><ele>98.0</ele><time>2026-04-04T13:55:31.013Z</time></trkpt><trkpt lat="43.5477833" lon="10.5319917"><ele>98.0</ele><time>2026-04-04T13:55:33.012Z</time></trkpt><trkpt lat="43.547865" lon="10.531955"><ele>98.0</ele><time>2026-04-04T13:55:34.011Z</time></trkpt><trkpt lat="43.5479467" lon="10.531925"><ele>98.0</ele><time>2026-04-04T13:55:35.011Z</time></trkpt><trkpt lat="43.548035" lon="10.5319233"><ele>98.0</ele><time>2026-04-04T13:55:36.011Z</time></trkpt><trkpt lat="43.5481333" lon="10.5319383"><ele>98.0</ele><time>2026-04-04T13:55:37.012Z</time></trkpt><trkpt lat="43.548245" lon="10.5319817"><ele>98.0</ele><time>2026-04-04T13:55:38.01Z</time></trkpt><trkpt lat="43.5483833" lon="10.5320933"><ele>98.66666666666666</ele><time>2026-04-04T13:55:39.014Z</time></trkpt><trkpt lat="43.5485117" lon="10.5322233"><ele>99.33333333333334</ele><time>2026-04-04T13:55:40.011Z</time></trkpt><trkpt lat="43.54864" lon="10.5323683"><ele>100.0</ele><time>2026-04-04T13:55:41.012Z</time></trkpt><trkpt lat="43.5487683" lon="10.5325317"><ele>99.0</ele><time>2026-04-04T13:55:42.01Z</time></trkpt><trkpt lat="43.5489017" lon="10.5327083"><ele>98.0</ele><time>2026-04-04T13:55:43.011Z</time></trkpt><trkpt lat="43.5490367" lon="10.5328917"><ele>97.0</ele><time>2026-04-04T13:55:44.011Z</time></trkpt><trkpt lat="43.54918" lon="10.5330783"><ele>97.0</ele><time>2026-04-04T13:55:45.012Z</time></trkpt><trkpt lat="43.5493383" lon="10.53325"><ele>97.0</ele><time>2026-04-04T13:55:46.011Z</time></trkpt><trkpt lat="43.5495133" lon="10.53342"><ele>97.0</ele><time>2026-04-04T13:55:47.011Z</time></trkpt><trkpt lat="43.5496867" lon="10.5335817"><ele>97.66666666666667</ele><time>2026-04-04T13:55:48.011Z</time></trkpt><trkpt lat="43.5498633" lon="10.53375"><ele>98.33333333333334</ele><time>2026-04-04T13:55:49.011Z</time></trkpt><trkpt lat="43.55004" lon="10.5339083"><ele>99.0</ele><time>2026-04-04T13:55:50.011Z</time></trkpt><trkpt lat="43.5502267" lon="10.5340667"><ele>99.66666666666666</ele><time>2026-04-04T13:55:51.012Z</time></trkpt><trkpt lat="43.55041" lon="10.5342317"><ele>100.33333333333333</ele><time>2026-04-04T13:55:52.011Z</time></trkpt><trkpt lat="43.5505883" lon="10.5343983"><ele>101.0</ele><time>2026-04-04T13:55:53.011Z</time></trkpt><trkpt lat="43.5507683" lon="10.5345667"><ele>101.0</ele><time>2026-04-04T13:55:54.012Z</time></trkpt><trkpt lat="43.5509567" lon="10.5347267"><ele>101.0</ele><time>2026-04-04T13:55:55.014Z</time></trkpt><trkpt lat="43.5511467" lon="10.5348783"><ele>101.0</ele><time>2026-04-04T13:55:56.011Z</time></trkpt><trkpt lat="43.55135" lon="10.5350017"><ele>96.66666666666666</ele><time>2026-04-04T13:55:57.012Z</time></trkpt><trkpt lat="43.55155" lon="10.535105"><ele>92.33333333333333</ele><time>2026-04-04T13:55:58.011Z</time></trkpt><trkpt lat="43.5517483" lon="10.5351983"><ele>88.0</ele><time>2026-04-04T13:55:59.011Z</time></trkpt><trkpt lat="43.551935" lon="10.5352617"><ele>84.33333333333333</ele><time>2026-04-04T13:56:00.012Z</time></trkpt><trkpt lat="43.55211" lon="10.5352767"><ele>80.66666666666667</ele><time>2026-04-04T13:56:01.012Z</time></trkpt><trkpt lat="43.552275" lon="10.5352417"><ele>77.0</ele><time>2026-04-04T13:56:02.012Z</time></trkpt><trkpt lat="43.55243" lon="10.5351983"><ele>77.0</ele><time>2026-04-04T13:56:03.012Z</time></trkpt><trkpt lat="43.5525883" lon="10.5352117"><ele>77.0</ele><time>2026-04-04T13:56:04.01Z</time></trkpt><trkpt lat="43.5527567" lon="10.53527"><ele>77.0</ele><time>2026-04-04T13:56:05.011Z</time></trkpt><trkpt lat="43.55293" lon="10.5353717"><ele>77.66666666666667</ele><time>2026-04-04T13:56:06.011Z</time></trkpt><trkpt lat="43.5531017" lon="10.53549"><ele>78.33333333333333</ele><time>2026-04-04T13:56:07.012Z</time></trkpt><trkpt lat="43.5532717" lon="10.53561"><ele>79.0</ele><time>2026-04-04T13:56:08.013Z</time></trkpt><trkpt lat="43.5534317" lon="10.5357267"><ele>79.0</ele><time>2026-04-04T13:56:09.012Z</time></trkpt><trkpt lat="43.55358" lon="10.5358467"><ele>79.0</ele><time>2026-04-04T13:56:10.011Z</time></trkpt><trkpt lat="43.5537317" lon="10.5359567"><ele>79.0</ele><time>2026-04-04T13:56:11.012Z</time></trkpt><trkpt lat="43.5538867" lon="10.5360583"><ele>74.66666666666666</ele><time>2026-04-04T13:56:12.013Z</time></trkpt><trkpt lat="43.554025" lon="10.5361367"><ele>70.33333333333333</ele><time>2026-04-04T13:56:13.012Z</time></trkpt><trkpt lat="43.5541717" lon="10.5361783"><ele>66.0</ele><time>2026-04-04T13:56:14.012Z</time></trkpt><trkpt lat="43.554335" lon="10.5361733"><ele>66.0</ele><time>2026-04-04T13:56:15.011Z</time></trkpt><trkpt lat="43.554515" lon="10.536155"><ele>66.0</ele><time>2026-04-04T13:56:16.011Z</time></trkpt><trkpt lat="43.5547083" lon="10.5361367"><ele>66.0</ele><time>2026-04-04T13:56:17.013Z</time></trkpt><trkpt lat="43.5549083" lon="10.5361333"><ele>65.0</ele><time>2026-04-04T13:56:18.012Z</time></trkpt><trkpt lat="43.5551133" lon="10.5361317"><ele>64.0</ele><time>2026-04-04T13:56:19.012Z</time></trkpt><trkpt lat="43.5553083" lon="10.5361367"><ele>63.0</ele><time>2026-04-04T13:56:20.011Z</time></trkpt><trkpt lat="43.5555033" lon="10.53614"><ele>62.33333333333333</ele><time>2026-04-04T13:56:21.012Z</time></trkpt><trkpt lat="43.555695" lon="10.5361383"><ele>61.666666666666664</ele><time>2026-04-04T13:56:22.011Z</time></trkpt><trkpt lat="43.5558767" lon="10.53614"><ele>61.0</ele><time>2026-04-04T13:56:23.015Z</time></trkpt><trkpt lat="43.55606" lon="10.53615"><ele>59.33333333333333</ele><time>2026-04-04T13:56:24.016Z</time></trkpt><trkpt lat="43.556245" lon="10.5361633"><ele>57.66666666666667</ele><time>2026-04-04T13:56:25.011Z</time></trkpt><trkpt lat="43.55643" lon="10.5361633"><ele>56.0</ele><time>2026-04-04T13:56:26.012Z</time></trkpt><trkpt lat="43.5566217" lon="10.536165"><ele>56.0</ele><time>2026-04-04T13:56:27.013Z</time></trkpt><trkpt lat="43.556815" lon="10.5361683"><ele>56.0</ele><time>2026-04-04T13:56:28.011Z</time></trkpt><trkpt lat="43.557015" lon="10.536175"><ele>56.0</ele><time>2026-04-04T13:56:29.012Z</time></trkpt><trkpt lat="43.55722" lon="10.5361817"><ele>55.0</ele><time>2026-04-04T13:56:30.011Z</time></trkpt><trkpt lat="43.557425" lon="10.5361883"><ele>54.0</ele><time>2026-04-04T13:56:31.011Z</time></trkpt><trkpt lat="43.5576317" lon="10.5361983"><ele>53.0</ele><time>2026-04-04T13:56:32.012Z</time></trkpt><trkpt lat="43.557835" lon="10.5362117"><ele>51.333333333333336</ele><time>2026-04-04T13:56:33.012Z</time></trkpt><trkpt lat="43.558035" lon="10.536235"><ele>49.66666666666667</ele><time>2026-04-04T13:56:34.011Z</time></trkpt><trkpt lat="43.558235" lon="10.5362767"><ele>48.0</ele><time>2026-04-04T13:56:35.012Z</time></trkpt><trkpt lat="43.5584317" lon="10.5363467"><ele>48.0</ele><time>2026-04-04T13:56:36.011Z</time></trkpt><trkpt lat="43.55862" lon="10.5364333"><ele>48.0</ele><time>2026-04-04T13:56:37.011Z</time></trkpt><trkpt lat="43.5588" lon="10.5365317"><ele>48.0</ele><time>2026-04-04T13:56:38.011Z</time></trkpt><trkpt lat="43.5589733" lon="10.5366267"><ele>47.0</ele><time>2026-04-04T13:56:39.011Z</time></trkpt><trkpt lat="43.5591433" lon="10.5367183"><ele>46.0</ele><time>2026-04-04T13:56:40.011Z</time></trkpt><trkpt lat="43.559315" lon="10.53681"><ele>45.0</ele><time>2026-04-04T13:56:41.012Z</time></trkpt><trkpt lat="43.5594883" lon="10.5369017"><ele>44.0</ele><time>2026-04-04T13:56:42.011Z</time></trkpt><trkpt lat="43.5596617" lon="10.5369967"><ele>43.0</ele><time>2026-04-04T13:56:43.012Z</time></trkpt><trkpt lat="43.5598367" lon="10.53709"><ele>42.0</ele><time>2026-04-04T13:56:44.011Z</time></trkpt><trkpt lat="43.5600167" lon="10.5371533"><ele>41.666666666666664</ele><time>2026-04-04T13:56:45.012Z</time></trkpt><trkpt lat="43.5602067" lon="10.5371767"><ele>41.33333333333333</ele><time>2026-04-04T13:56:46.012Z</time></trkpt><trkpt lat="43.5604" lon="10.5371617"><ele>41.0</ele><time>2026-04-04T13:56:47.012Z</time></trkpt><trkpt lat="43.56059" lon="10.5371233"><ele>40.666666666666664</ele><time>2026-04-04T13:56:48.012Z</time></trkpt><trkpt lat="43.560775" lon="10.5370533"><ele>40.333333333333336</ele><time>2026-04-04T13:56:49.011Z</time></trkpt><trkpt lat="43.5609533" lon="10.53695"><ele>40.0</ele><time>2026-04-04T13:56:50.013Z</time></trkpt><trkpt lat="43.5611333" lon="10.53683"><ele>39.333333333333336</ele><time>2026-04-04T13:56:51.012Z</time></trkpt><trkpt lat="43.5613067" lon="10.536705"><ele>38.666666666666664</ele><time>2026-04-04T13:56:52.012Z</time></trkpt><trkpt lat="43.5614817" lon="10.5365833"><ele>38.0</ele><time>2026-04-04T13:56:53.011Z</time></trkpt><trkpt lat="43.5616533" lon="10.5364567"><ele>38.0</ele><time>2026-04-04T13:56:54.011Z</time></trkpt><trkpt lat="43.5618267" lon="10.536325"><ele>38.0</ele><time>2026-04-04T13:56:55.012Z</time></trkpt><trkpt lat="43.562" lon="10.536195"><ele>38.0</ele><time>2026-04-04T13:56:56.011Z</time></trkpt><trkpt lat="43.5621733" lon="10.536065"><ele>37.0</ele><time>2026-04-04T13:56:57.012Z</time></trkpt><trkpt lat="43.5623517" lon="10.5359367"><ele>36.0</ele><time>2026-04-04T13:56:58.011Z</time></trkpt><trkpt lat="43.562525" lon="10.53581"><ele>35.0</ele><time>2026-04-04T13:56:59.013Z</time></trkpt><trkpt lat="43.5626967" lon="10.53569"><ele>35.0</ele><time>2026-04-04T13:57:00.011Z</time></trkpt><trkpt lat="43.5628583" lon="10.5355783"><ele>35.0</ele><time>2026-04-04T13:57:01.012Z</time></trkpt><trkpt lat="43.5630167" lon="10.5354667"><ele>35.0</ele><time>2026-04-04T13:57:02.011Z</time></trkpt><trkpt lat="43.5631733" lon="10.5353533"><ele>35.0</ele><time>2026-04-04T13:57:03.011Z</time></trkpt><trkpt lat="43.56333" lon="10.5352333"><ele>35.0</ele><time>2026-04-04T13:57:04.011Z</time></trkpt><trkpt lat="43.56349" lon="10.5351133"><ele>35.0</ele><time>2026-04-04T13:57:05.011Z</time></trkpt><trkpt lat="43.5636433" lon="10.5349867"><ele>34.666666666666664</ele><time>2026-04-04T13:57:06.012Z</time></trkpt><trkpt lat="43.5637983" lon="10.5348467"><ele>34.333333333333336</ele><time>2026-04-04T13:57:07.01Z</time></trkpt><trkpt lat="43.563955" lon="10.5346983"><ele>34.0</ele><time>2026-04-04T13:57:08.012Z</time></trkpt><trkpt lat="43.56411" lon="10.5345517"><ele>34.0</ele><time>2026-04-04T13:57:09.011Z</time></trkpt><trkpt lat="43.56426" lon="10.5344083"><ele>34.0</ele><time>2026-04-04T13:57:10.012Z</time></trkpt><trkpt lat="43.5644083" lon="10.5342633"><ele>34.0</ele><time>2026-04-04T13:57:11.012Z</time></trkpt><trkpt lat="43.564555" lon="10.5341267"><ele>34.0</ele><time>2026-04-04T13:57:12.012Z</time></trkpt><trkpt lat="43.5646983" lon="10.5339883"><ele>34.0</ele><time>2026-04-04T13:57:13.012Z</time></trkpt><trkpt lat="43.5648367" lon="10.5338517"><ele>34.0</ele><time>2026-04-04T13:57:14.011Z</time></trkpt><trkpt lat="43.5649767" lon="10.5337233"><ele>34.66666666666667</ele><time>2026-04-04T13:57:15.014Z</time></trkpt><trkpt lat="43.5651267" lon="10.5336167"><ele>35.333333333333336</ele><time>2026-04-04T13:57:16.012Z</time></trkpt><trkpt lat="43.5652833" lon="10.5335317"><ele>36.0</ele><time>2026-04-04T13:57:17.012Z</time></trkpt><trkpt lat="43.5654467" lon="10.5334667"><ele>36.0</ele><time>2026-04-04T13:57:18.011Z</time></trkpt><trkpt lat="43.565625" lon="10.53343"><ele>36.0</ele><time>2026-04-04T13:57:19.012Z</time></trkpt><trkpt lat="43.5658183" lon="10.5334167"><ele>36.0</ele><time>2026-04-04T13:57:20.013Z</time></trkpt><trkpt lat="43.56601" lon="10.533415"><ele>36.333333333333336</ele><time>2026-04-04T13:57:21.011Z</time></trkpt><trkpt lat="43.5662033" lon="10.533415"><ele>36.66666666666667</ele><time>2026-04-04T13:57:22.012Z</time></trkpt><trkpt lat="43.5663967" lon="10.5334233"><ele>37.0</ele><time>2026-04-04T13:57:23.01Z</time></trkpt><trkpt lat="43.5665883" lon="10.5334233"><ele>37.0</ele><time>2026-04-04T13:57:24.011Z</time></trkpt><trkpt lat="43.5667717" lon="10.5334283"><ele>37.0</ele><time>2026-04-04T13:57:25.012Z</time></trkpt><trkpt lat="43.5669517" lon="10.533435"><ele>37.0</ele><time>2026-04-04T13:57:26.01Z</time></trkpt><trkpt lat="43.5671283" lon="10.53344"><ele>37.0</ele><time>2026-04-04T13:57:27.012Z</time></trkpt><trkpt lat="43.5673067" lon="10.53344"><ele>37.0</ele><time>2026-04-04T13:57:28.01Z</time></trkpt><trkpt lat="43.5674817" lon="10.5334433"><ele>37.0</ele><time>2026-04-04T13:57:29.01Z</time></trkpt><trkpt lat="43.5676483" lon="10.5334483"><ele>37.0</ele><time>2026-04-04T13:57:30.011Z</time></trkpt><trkpt lat="43.5678133" lon="10.533455"><ele>37.0</ele><time>2026-04-04T13:57:31.01Z</time></trkpt><trkpt lat="43.56798" lon="10.5334617"><ele>37.0</ele><time>2026-04-04T13:57:32.011Z</time></trkpt><trkpt lat="43.568145" lon="10.533465"><ele>38.0</ele><time>2026-04-04T13:57:33.013Z</time></trkpt><trkpt lat="43.5683117" lon="10.5334783"><ele>39.0</ele><time>2026-04-04T13:57:34.01Z</time></trkpt><trkpt lat="43.5684767" lon="10.5335117"><ele>40.0</ele><time>2026-04-04T13:57:35.01Z</time></trkpt><trkpt lat="43.56864" lon="10.533575"><ele>40.0</ele><time>2026-04-04T13:57:36.011Z</time></trkpt><trkpt lat="43.5687967" lon="10.5336667"><ele>40.0</ele><time>2026-04-04T13:57:37.01Z</time></trkpt><trkpt lat="43.5689533" lon="10.5337717"><ele>40.0</ele><time>2026-04-04T13:57:38.011Z</time></trkpt><trkpt lat="43.5691067" lon="10.5338783"><ele>40.333333333333336</ele><time>2026-04-04T13:57:39.01Z</time></trkpt><trkpt lat="43.5692583" lon="10.5339917"><ele>40.666666666666664</ele><time>2026-04-04T13:57:40.01Z</time></trkpt><trkpt lat="43.569405" lon="10.5341067"><ele>41.0</ele><time>2026-04-04T13:57:41.01Z</time></trkpt><trkpt lat="43.569545" lon="10.5342217"><ele>40.5</ele><time>2026-04-04T13:57:42.01Z</time></trkpt><trkpt lat="43.5696767" lon="10.5343283"><ele>40.0</ele><time>2026-04-04T13:57:43.01Z</time></trkpt><trkpt lat="43.569805" lon="10.53443"><ele>39.5</ele><time>2026-04-04T13:57:44.011Z</time></trkpt><trkpt lat="43.56993" lon="10.5345283"><ele>39.0</ele><time>2026-04-04T13:57:45.01Z</time></trkpt><trkpt lat="43.57005" lon="10.5346233"><ele>38.25</ele><time>2026-04-04T13:57:46.011Z</time></trkpt><trkpt lat="43.5701667" lon="10.5347133"><ele>37.5</ele><time>2026-04-04T13:57:47.011Z</time></trkpt><trkpt lat="43.5702767" lon="10.5347933"><ele>36.75</ele><time>2026-04-04T13:57:48.011Z</time></trkpt><trkpt lat="43.5703817" lon="10.53487"><ele>36.0</ele><time>2026-04-04T13:57:49.011Z</time></trkpt><trkpt lat="43.570475" lon="10.5349317"><ele>35.8</ele><time>2026-04-04T13:57:50.012Z</time></trkpt><trkpt lat="43.5705517" lon="10.5349767"><ele>35.6</ele><time>2026-04-04T13:57:51.01Z</time></trkpt><trkpt lat="43.5706417" lon="10.5350417"><ele>35.4</ele><time>2026-04-04T13:57:53.011Z</time></trkpt><trkpt lat="43.5707383" lon="10.5351167"><ele>35.2</ele><time>2026-04-04T14:00:16.01Z</time></trkpt><trkpt lat="43.5708533" lon="10.5351933"><ele>35.0</ele><time>2026-04-04T14:00:18.01Z</time></trkpt><trkpt lat="43.5709083" lon="10.53527"><ele>35.0</ele><time>2026-04-04T14:00:19.012Z</time></trkpt><trkpt lat="43.5709517" lon="10.53538"><ele>35.0</ele><time>2026-04-04T14:00:20.011Z</time></trkpt><trkpt lat="43.5709833" lon="10.5355183"><ele>35.0</ele><time>2026-04-04T14:00:21.011Z</time></trkpt><trkpt lat="43.5710083" lon="10.5356767"><ele>35.0</ele><time>2026-04-04T14:00:22.011Z</time></trkpt><trkpt lat="43.571035" lon="10.5358483"><ele>35.0</ele><time>2026-04-04T14:00:23.01Z</time></trkpt><trkpt lat="43.5710667" lon="10.5360283"><ele>34.5</ele><time>2026-04-04T14:00:24.01Z</time></trkpt><trkpt lat="43.5711" lon="10.536215"><ele>34.0</ele><time>2026-04-04T14:00:25.011Z</time></trkpt><trkpt lat="43.5711367" lon="10.53641"><ele>33.5</ele><time>2026-04-04T14:00:26.01Z</time></trkpt><trkpt lat="43.571175" lon="10.536615"><ele>33.0</ele><time>2026-04-04T14:00:27.012Z</time></trkpt><trkpt lat="43.571215" lon="10.5368233"><ele>32.333333333333336</ele><time>2026-04-04T14:00:28.012Z</time></trkpt><trkpt lat="43.57126" lon="10.5370333"><ele>31.666666666666668</ele><time>2026-04-04T14:00:29.011Z</time></trkpt><trkpt lat="43.57132" lon="10.5372433"><ele>31.0</ele><time>2026-04-04T14:00:30.012Z</time></trkpt><trkpt lat="43.571385" lon="10.5374483"><ele>30.75</ele><time>2026-04-04T14:00:31.012Z</time></trkpt><trkpt lat="43.5714517" lon="10.537645"><ele>30.5</ele><time>2026-04-04T14:00:32.012Z</time></trkpt><trkpt lat="43.5715133" lon="10.5378283"><ele>30.25</ele><time>2026-04-04T14:00:33.013Z</time></trkpt><trkpt lat="43.5715633" lon="10.5380033"><ele>30.0</ele><time>2026-04-04T14:00:34.012Z</time></trkpt><trkpt lat="43.5716" lon="10.5381867"><ele>30.0</ele><time>2026-04-04T14:00:35.012Z</time></trkpt><trkpt lat="43.57162" lon="10.5383833"><ele>30.0</ele><time>2026-04-04T14:00:36.012Z</time></trkpt><trkpt lat="43.5716267" lon="10.53859"><ele>30.0</ele><time>2026-04-04T14:00:37.011Z</time></trkpt><trkpt lat="43.5716283" lon="10.5387983"><ele>30.0</ele><time>2026-04-04T14:00:38.012Z</time></trkpt><trkpt lat="43.5716267" lon="10.5390033"><ele>30.5</ele><time>2026-04-04T14:00:39.012Z</time></trkpt><trkpt lat="43.5716283" lon="10.5392117"><ele>31.0</ele><time>2026-04-04T14:00:40.012Z</time></trkpt><trkpt lat="43.571645" lon="10.5394167"><ele>31.5</ele><time>2026-04-04T14:00:41.012Z</time></trkpt><trkpt lat="43.571665" lon="10.53961"><ele>32.0</ele><time>2026-04-04T14:00:42.013Z</time></trkpt><trkpt lat="43.5716933" lon="10.5397867"><ele>32.4</ele><time>2026-04-04T14:00:43.012Z</time></trkpt><trkpt lat="43.5717233" lon="10.5399483"><ele>32.800000000000004</ele><time>2026-04-04T14:00:44.011Z</time></trkpt><trkpt lat="43.5717283" lon="10.54008"><ele>33.2</ele><time>2026-04-04T14:00:45.012Z</time></trkpt><trkpt lat="43.571715" lon="10.5401983"><ele>33.6</ele><time>2026-04-04T14:00:46.011Z</time></trkpt><trkpt lat="43.57168" lon="10.5403133"><ele>34.0</ele><time>2026-04-04T14:00:47.011Z</time></trkpt><trkpt lat="43.5716283" lon="10.540425"><ele>34.75</ele><time>2026-04-04T14:00:48.012Z</time></trkpt><trkpt lat="43.5715883" lon="10.5405483"><ele>35.5</ele><time>2026-04-04T14:00:49.012Z</time></trkpt><trkpt lat="43.5715683" lon="10.5406933"><ele>36.25</ele><time>2026-04-04T14:00:50.011Z</time></trkpt><trkpt lat="43.5715717" lon="10.5408633"><ele>37.0</ele><time>2026-04-04T14:00:51.011Z</time></trkpt><trkpt lat="43.5715683" lon="10.54104"><ele>37.0</ele><time>2026-04-04T14:00:52.01Z</time></trkpt><trkpt lat="43.571545" lon="10.5412017"><ele>37.0</ele><time>2026-04-04T14:00:53.01Z</time></trkpt><trkpt lat="43.5715" lon="10.5413567"><ele>37.0</ele><time>2026-04-04T14:00:54.01Z</time></trkpt><trkpt lat="43.5714167" lon="10.5414917"><ele>37.0</ele><time>2026-04-04T14:00:55.011Z</time></trkpt><trkpt lat="43.5713067" lon="10.5416117"><ele>37.66666666666667</ele><time>2026-04-04T14:00:56.009Z</time></trkpt><trkpt lat="43.5711433" lon="10.5417117"><ele>38.333333333333336</ele><time>2026-04-04T14:00:57.01Z</time></trkpt><trkpt lat="43.5709633" lon="10.5418117"><ele>39.0</ele><time>2026-04-04T14:00:58.012Z</time></trkpt><trkpt lat="43.5707983" lon="10.541895"><ele>39.0</ele><time>2026-04-04T14:00:59.012Z</time></trkpt><trkpt lat="43.5706567" lon="10.5419667"><ele>39.0</ele><time>2026-04-04T14:01:00.013Z</time></trkpt><trkpt lat="43.5705617" lon="10.54205"><ele>39.0</ele><time>2026-04-04T14:01:01.013Z</time></trkpt><trkpt lat="43.57049" lon="10.5421483"><ele>39.0</ele><time>2026-04-04T14:01:02.012Z</time></trkpt><trkpt lat="43.5704433" lon="10.5422667"><ele>39.8</ele><time>2026-04-04T14:01:03.013Z</time></trkpt><trkpt lat="43.5704283" lon="10.542395"><ele>40.599999999999994</ele><time>2026-04-04T14:01:04.012Z</time></trkpt><trkpt lat="43.5704617" lon="10.5425233"><ele>41.4</ele><time>2026-04-04T14:01:05.012Z</time></trkpt><trkpt lat="43.5705183" lon="10.5426483"><ele>42.199999999999996</ele><time>2026-04-04T14:01:06.012Z</time></trkpt><trkpt lat="43.5706233" lon="10.5427867"><ele>43.0</ele><time>2026-04-04T14:01:07.012Z</time></trkpt><trkpt lat="43.5707617" lon="10.5429467"><ele>43.0</ele><time>2026-04-04T14:01:08.013Z</time></trkpt><trkpt lat="43.5708883" lon="10.5431083"><ele>43.0</ele><time>2026-04-04T14:01:09.014Z</time></trkpt><trkpt lat="43.5710167" lon="10.5432567"><ele>43.0</ele><time>2026-04-04T14:01:10.013Z</time></trkpt><trkpt lat="43.5711433" lon="10.5433833"><ele>47.0</ele><time>2026-04-04T14:01:11.012Z</time></trkpt><trkpt lat="43.5712883" lon="10.5434617"><ele>51.0</ele><time>2026-04-04T14:01:12.011Z</time></trkpt><trkpt lat="43.57144" lon="10.54351"><ele>55.0</ele><time>2026-04-04T14:01:13.012Z</time></trkpt><trkpt lat="43.57161" lon="10.54353"><ele>55.0</ele><time>2026-04-04T14:01:14.013Z</time></trkpt><trkpt lat="43.571765" lon="10.543545"><ele>55.0</ele><time>2026-04-04T14:01:15.014Z</time></trkpt><trkpt lat="43.571885" lon="10.543565"><ele>55.0</ele><time>2026-04-04T14:01:16.013Z</time></trkpt><trkpt lat="43.5719733" lon="10.5436167"><ele>55.0</ele><time>2026-04-04T14:01:17.012Z</time></trkpt><trkpt lat="43.5720283" lon="10.5437033"><ele>55.166666666666664</ele><time>2026-04-04T14:01:18.013Z</time></trkpt><trkpt lat="43.5720417" lon="10.5438117"><ele>55.33333333333333</ele><time>2026-04-04T14:01:19.011Z</time></trkpt><trkpt lat="43.5720117" lon="10.5439217"><ele>55.5</ele><time>2026-04-04T14:01:20.012Z</time></trkpt><trkpt lat="43.5719483" lon="10.5440183"><ele>55.66666666666667</ele><time>2026-04-04T14:01:21.011Z</time></trkpt><trkpt lat="43.5718767" lon="10.54409"><ele>55.833333333333336</ele><time>2026-04-04T14:01:22.011Z</time></trkpt><trkpt lat="43.57181" lon="10.5441483"><ele>56.0</ele><time>2026-04-04T14:01:23.012Z</time></trkpt><trkpt lat="43.5717517" lon="10.544205"><ele>56.0</ele><time>2026-04-04T14:01:24.011Z</time></trkpt><trkpt lat="43.5716983" lon="10.5442717"><ele>55.99999999999999</ele><time>2026-04-04T14:01:25.011Z</time></trkpt><trkpt lat="43.57163" lon="10.54442"><ele>55.99999999999999</ele><time>2026-04-04T14:01:27.011Z</time></trkpt><trkpt lat="43.5717233" lon="10.544515"><ele>56.0</ele><time>2026-04-04T14:01:29.011Z</time></trkpt><trkpt lat="43.5717933" lon="10.5445117"><ele>56.0</ele><time>2026-04-04T14:01:30.011Z</time></trkpt><trkpt lat="43.57187" lon="10.544435"><ele>56.0</ele><time>2026-04-04T14:01:31.011Z</time></trkpt><trkpt lat="43.57195" lon="10.5443533"><ele>55.99999999999999</ele><time>2026-04-04T14:01:32.01Z</time></trkpt><trkpt lat="43.572035" lon="10.544275"><ele>55.99999999999999</ele><time>2026-04-04T14:01:33.011Z</time></trkpt><trkpt lat="43.572115" lon="10.544195"><ele>56.0</ele><time>2026-04-04T14:01:34.011Z</time></trkpt><trkpt lat="43.5721933" lon="10.5441117"><ele>56.0</ele><time>2026-04-04T14:01:35.012Z</time></trkpt><trkpt lat="43.5722717" lon="10.5440333"><ele>56.599999999999994</ele><time>2026-04-04T14:01:36.011Z</time></trkpt><trkpt lat="43.5723467" lon="10.543955"><ele>57.199999999999996</ele><time>2026-04-04T14:01:37.012Z</time></trkpt><trkpt lat="43.5724233" lon="10.5438783"><ele>57.800000000000004</ele><time>2026-04-04T14:01:38.012Z</time></trkpt><trkpt lat="43.5725" lon="10.5437967"><ele>58.400000000000006</ele><time>2026-04-04T14:01:39.013Z</time></trkpt><trkpt lat="43.5725783" lon="10.5437217"><ele>59.0</ele><time>2026-04-04T14:01:40.011Z</time></trkpt><trkpt lat="43.5726517" lon="10.5436467"><ele>59.00000000000001</ele><time>2026-04-04T14:01:41.013Z</time></trkpt><trkpt lat="43.5727183" lon="10.54357"><ele>59.0</ele><time>2026-04-04T14:01:42.011Z</time></trkpt><trkpt lat="43.5727867" lon="10.543515"><ele>59.0</ele><time>2026-04-04T14:01:43.011Z</time></trkpt><trkpt lat="43.572905" lon="10.5435283"><ele>59.0</ele><time>2026-04-04T14:01:45.012Z</time></trkpt><trkpt lat="43.572935" lon="10.5436083"><ele>59.00000000000001</ele><time>2026-04-04T14:01:46.011Z</time></trkpt><trkpt lat="43.5729583" lon="10.5437067"><ele>59.0</ele><time>2026-04-04T14:01:47.011Z</time></trkpt><trkpt lat="43.5729483" lon="10.54383"><ele>59.5</ele><time>2026-04-04T14:01:48.011Z</time></trkpt><trkpt lat="43.572915" lon="10.5439917"><ele>60.0</ele><time>2026-04-04T14:01:49.012Z</time></trkpt><trkpt lat="43.5728667" lon="10.5441933"><ele>60.5</ele><time>2026-04-04T14:01:50.01Z</time></trkpt><trkpt lat="43.57281" lon="10.5443833"><ele>61.0</ele><time>2026-04-04T14:01:51.012Z</time></trkpt><trkpt lat="43.5727583" lon="10.5445733"><ele>63.0</ele><time>2026-04-04T14:01:52.012Z</time></trkpt><trkpt lat="43.5726933" lon="10.5447583"><ele>65.0</ele><time>2026-04-04T14:01:53.012Z</time></trkpt><trkpt lat="43.57263" lon="10.5449383"><ele>67.0</ele><time>2026-04-04T14:01:54.011Z</time></trkpt><trkpt lat="43.57258" lon="10.5451217"><ele>69.0</ele><time>2026-04-04T14:01:55.011Z</time></trkpt><trkpt lat="43.572535" lon="10.5452983"><ele>70.25</ele><time>2026-04-04T14:01:56.01Z</time></trkpt><trkpt lat="43.5725" lon="10.545465"><ele>71.5</ele><time>2026-04-04T14:01:57.011Z</time></trkpt><trkpt lat="43.5724767" lon="10.5456217"><ele>72.75</ele><time>2026-04-04T14:01:58.01Z</time></trkpt><trkpt lat="43.5724583" lon="10.5457817"><ele>74.0</ele><time>2026-04-04T14:01:59.011Z</time></trkpt><trkpt lat="43.5724517" lon="10.545935"><ele>74.0</ele><time>2026-04-04T14:02:00.012Z</time></trkpt><trkpt lat="43.5724567" lon="10.54609"><ele>74.0</ele><time>2026-04-04T14:02:01.011Z</time></trkpt><trkpt lat="43.5724733" lon="10.546245"><ele>74.0</ele><time>2026-04-04T14:02:02.011Z</time></trkpt><trkpt lat="43.5724983" lon="10.5463933"><ele>74.0</ele><time>2026-04-04T14:02:03.011Z</time></trkpt><trkpt lat="43.5725183" lon="10.54654"><ele>74.0</ele><time>2026-04-04T14:02:04.012Z</time></trkpt><trkpt lat="43.57254" lon="10.5466833"><ele>73.75</ele><time>2026-04-04T14:02:05.012Z</time></trkpt><trkpt lat="43.5725733" lon="10.5468283"><ele>73.5</ele><time>2026-04-04T14:02:06.011Z</time></trkpt><trkpt lat="43.572615" lon="10.5469683"><ele>73.25</ele><time>2026-04-04T14:02:07.011Z</time></trkpt><trkpt lat="43.572665" lon="10.5471067"><ele>73.0</ele><time>2026-04-04T14:02:08.013Z</time></trkpt><trkpt lat="43.572725" lon="10.54725"><ele>73.0</ele><time>2026-04-04T14:02:09.012Z</time></trkpt><trkpt lat="43.5727817" lon="10.547405"><ele>73.0</ele><time>2026-04-04T14:02:10.011Z</time></trkpt><trkpt lat="43.5728467" lon="10.5475683"><ele>73.0</ele><time>2026-04-04T14:02:11.013Z</time></trkpt><trkpt lat="43.5728833" lon="10.5477517"><ele>73.0</ele><time>2026-04-04T14:02:12.011Z</time></trkpt><trkpt lat="43.5728767" lon="10.5479467"><ele>72.25</ele><time>2026-04-04T14:02:13.013Z</time></trkpt><trkpt lat="43.5728733" lon="10.5481267"><ele>71.5</ele><time>2026-04-04T14:02:14.013Z</time></trkpt><trkpt lat="43.5728667" lon="10.5482917"><ele>70.75</ele><time>2026-04-04T14:02:15.011Z</time></trkpt><trkpt lat="43.5728333" lon="10.5484583"><ele>70.0</ele><time>2026-04-04T14:02:16.011Z</time></trkpt><trkpt lat="43.5727767" lon="10.5486283"><ele>72.0</ele><time>2026-04-04T14:02:17.01Z</time></trkpt><trkpt lat="43.5727017" lon="10.5487983"><ele>74.0</ele><time>2026-04-04T14:02:18.012Z</time></trkpt><trkpt lat="43.5726183" lon="10.5489717"><ele>76.0</ele><time>2026-04-04T14:02:19.011Z</time></trkpt><trkpt lat="43.57252" lon="10.5491367"><ele>76.0</ele><time>2026-04-04T14:02:20.012Z</time></trkpt><trkpt lat="43.5724217" lon="10.5493083"><ele>76.0</ele><time>2026-04-04T14:02:21.013Z</time></trkpt><trkpt lat="43.5723233" lon="10.5494717"><ele>76.0</ele><time>2026-04-04T14:02:22.01Z</time></trkpt><trkpt lat="43.5722417" lon="10.5496217"><ele>76.0</ele><time>2026-04-04T14:02:23.011Z</time></trkpt><trkpt lat="43.572165" lon="10.5497583"><ele>77.0</ele><time>2026-04-04T14:02:24.011Z</time></trkpt><trkpt lat="43.5721" lon="10.5499"><ele>78.0</ele><time>2026-04-04T14:02:25.012Z</time></trkpt><trkpt lat="43.572055" lon="10.550055"><ele>79.0</ele><time>2026-04-04T14:02:26.011Z</time></trkpt><trkpt lat="43.5720367" lon="10.550235"><ele>80.0</ele><time>2026-04-04T14:02:27.011Z</time></trkpt><trkpt lat="43.57202" lon="10.550425"><ele>81.0</ele><time>2026-04-04T14:02:28.012Z</time></trkpt><trkpt lat="43.5719783" lon="10.550615"><ele>82.0</ele><time>2026-04-04T14:02:29.01Z</time></trkpt><trkpt lat="43.571925" lon="10.5507917"><ele>83.0</ele><time>2026-04-04T14:02:30.011Z</time></trkpt><trkpt lat="43.5718717" lon="10.5509533"><ele>84.0</ele><time>2026-04-04T14:02:31.011Z</time></trkpt><trkpt lat="43.5718233" lon="10.5511183"><ele>83.75</ele><time>2026-04-04T14:02:32.011Z</time></trkpt><trkpt lat="43.57179" lon="10.5512883"><ele>83.5</ele><time>2026-04-04T14:02:33.012Z</time></trkpt><trkpt lat="43.571785" lon="10.55148"><ele>83.25</ele><time>2026-04-04T14:02:34.011Z</time></trkpt><trkpt lat="43.5717517" lon="10.5516583"><ele>83.0</ele><time>2026-04-04T14:02:35.01Z</time></trkpt><trkpt lat="43.5717033" lon="10.5518433"><ele>83.0</ele><time>2026-04-04T14:02:36.012Z</time></trkpt><trkpt lat="43.57164" lon="10.5520233"><ele>83.0</ele><time>2026-04-04T14:02:37.01Z</time></trkpt><trkpt lat="43.5715767" lon="10.5522"><ele>83.0</ele><time>2026-04-04T14:02:38.011Z</time></trkpt><trkpt lat="43.5715133" lon="10.55237"><ele>83.0</ele><time>2026-04-04T14:02:39.012Z</time></trkpt><trkpt lat="43.57147" lon="10.5525583"><ele>84.0</ele><time>2026-04-04T14:02:40.012Z</time></trkpt><trkpt lat="43.5714367" lon="10.5527683"><ele>85.0</ele><time>2026-04-04T14:02:41.011Z</time></trkpt><trkpt lat="43.5714017" lon="10.553005"><ele>86.0</ele><time>2026-04-04T14:02:42.01Z</time></trkpt><trkpt lat="43.57137" lon="10.5532483"><ele>86.0</ele><time>2026-04-04T14:02:43.011Z</time></trkpt><trkpt lat="43.571335" lon="10.5534967"><ele>86.0</ele><time>2026-04-04T14:02:44.011Z</time></trkpt><trkpt lat="43.5713" lon="10.553755"><ele>86.0</ele><time>2026-04-04T14:02:45.011Z</time></trkpt><trkpt lat="43.5712717" lon="10.5540183"><ele>85.0</ele><time>2026-04-04T14:02:46.011Z</time></trkpt><trkpt lat="43.57123" lon="10.5542633"><ele>84.0</ele><time>2026-04-04T14:02:47.012Z</time></trkpt><trkpt lat="43.5711833" lon="10.5544883"><ele>83.0</ele><time>2026-04-04T14:02:48.011Z</time></trkpt><trkpt lat="43.571125" lon="10.554705"><ele>83.0</ele><time>2026-04-04T14:02:49.011Z</time></trkpt><trkpt lat="43.5710467" lon="10.5549133"><ele>83.0</ele><time>2026-04-04T14:02:50.011Z</time></trkpt><trkpt lat="43.5709567" lon="10.555115"><ele>83.0</ele><time>2026-04-04T14:02:51.013Z</time></trkpt><trkpt lat="43.570865" lon="10.555305"><ele>84.25</ele><time>2026-04-04T14:02:52.011Z</time></trkpt><trkpt lat="43.5707783" lon="10.5554667"><ele>85.5</ele><time>2026-04-04T14:02:53.011Z</time></trkpt><trkpt lat="43.570695" lon="10.5556067"><ele>86.75</ele><time>2026-04-04T14:02:54.012Z</time></trkpt><trkpt lat="43.5706033" lon="10.5557283"><ele>88.0</ele><time>2026-04-04T14:02:55.01Z</time></trkpt><trkpt lat="43.5704883" lon="10.5558233"><ele>87.66666666666666</ele><time>2026-04-04T14:02:56.011Z</time></trkpt><trkpt lat="43.5703533" lon="10.5558867"><ele>87.33333333333333</ele><time>2026-04-04T14:02:57.011Z</time></trkpt><trkpt lat="43.5702" lon="10.5559167"><ele>87.0</ele><time>2026-04-04T14:02:58.011Z</time></trkpt><trkpt lat="43.5700333" lon="10.5559217"><ele>87.0</ele><time>2026-04-04T14:02:59.013Z</time></trkpt><trkpt lat="43.5698683" lon="10.55591"><ele>87.0</ele><time>2026-04-04T14:03:00.011Z</time></trkpt><trkpt lat="43.5696983" lon="10.5558767"><ele>87.0</ele><time>2026-04-04T14:03:01.011Z</time></trkpt><trkpt lat="43.5695283" lon="10.5558283"><ele>87.66666666666667</ele><time>2026-04-04T14:03:02.011Z</time></trkpt><trkpt lat="43.5693683" lon="10.5557717"><ele>88.33333333333334</ele><time>2026-04-04T14:03:03.014Z</time></trkpt><trkpt lat="43.5692167" lon="10.5557017"><ele>89.0</ele><time>2026-04-04T14:03:04.011Z</time></trkpt><trkpt lat="43.56908" lon="10.5556217"><ele>89.0</ele><time>2026-04-04T14:03:05.011Z</time></trkpt><trkpt lat="43.5689583" lon="10.55555"><ele>89.0</ele><time>2026-04-04T14:03:06.011Z</time></trkpt><trkpt lat="43.5688467" lon="10.555495"><ele>89.0</ele><time>2026-04-04T14:03:07.011Z</time></trkpt><trkpt lat="43.5687383" lon="10.555475"><ele>89.0</ele><time>2026-04-04T14:03:08.012Z</time></trkpt><trkpt lat="43.5686367" lon="10.5555"><ele>90.25</ele><time>2026-04-04T14:03:09.013Z</time></trkpt><trkpt lat="43.5685467" lon="10.5555933"><ele>91.5</ele><time>2026-04-04T14:03:10.013Z</time></trkpt><trkpt lat="43.5684717" lon="10.5557433"><ele>92.75</ele><time>2026-04-04T14:03:11.012Z</time></trkpt><trkpt lat="43.568405" lon="10.5559367"><ele>94.0</ele><time>2026-04-04T14:03:12.012Z</time></trkpt><trkpt lat="43.5683283" lon="10.5561517"><ele>93.33333333333333</ele><time>2026-04-04T14:03:13.013Z</time></trkpt><trkpt lat="43.5682567" lon="10.5563567"><ele>92.66666666666667</ele><time>2026-04-04T14:03:14.013Z</time></trkpt><trkpt lat="43.56819" lon="10.5565667"><ele>92.0</ele><time>2026-04-04T14:03:15.013Z</time></trkpt><trkpt lat="43.5681367" lon="10.5567383"><ele>92.0</ele><time>2026-04-04T14:03:16.011Z</time></trkpt><trkpt lat="43.5680817" lon="10.556885"><ele>92.0</ele><time>2026-04-04T14:03:17.011Z</time></trkpt><trkpt lat="43.5679867" lon="10.55701"><ele>92.0</ele><time>2026-04-04T14:03:18.011Z</time></trkpt><trkpt lat="43.5678717" lon="10.55713"><ele>92.0</ele><time>2026-04-04T14:03:19.011Z</time></trkpt><trkpt lat="43.56775" lon="10.5572533"><ele>93.5</ele><time>2026-04-04T14:03:20.013Z</time></trkpt><trkpt lat="43.567625" lon="10.55736"><ele>95.0</ele><time>2026-04-04T14:03:21.013Z</time></trkpt><trkpt lat="43.5675183" lon="10.5574683"><ele>96.5</ele><time>2026-04-04T14:03:22.011Z</time></trkpt><trkpt lat="43.56744" lon="10.5575833"><ele>98.0</ele><time>2026-04-04T14:03:23.011Z</time></trkpt><trkpt lat="43.5673933" lon="10.55772"><ele>97.75</ele><time>2026-04-04T14:03:24.011Z</time></trkpt><trkpt lat="43.5673767" lon="10.5578717"><ele>97.5</ele><time>2026-04-04T14:03:25.011Z</time></trkpt><trkpt lat="43.567385" lon="10.5580433"><ele>97.25</ele><time>2026-04-04T14:03:26.011Z</time></trkpt><trkpt lat="43.5674017" lon="10.5582183"><ele>97.0</ele><time>2026-04-04T14:03:27.012Z</time></trkpt><trkpt lat="43.567425" lon="10.5583917"><ele>97.0</ele><time>2026-04-04T14:03:28.011Z</time></trkpt><trkpt lat="43.5674617" lon="10.5585517"><ele>97.0</ele><time>2026-04-04T14:03:29.012Z</time></trkpt><trkpt lat="43.5675233" lon="10.558695"><ele>97.0</ele><time>2026-04-04T14:03:30.011Z</time></trkpt><trkpt lat="43.5675833" lon="10.5588233"><ele>97.0</ele><time>2026-04-04T14:03:31.011Z</time></trkpt><trkpt lat="43.567655" lon="10.558935"><ele>96.75</ele><time>2026-04-04T14:03:32.011Z</time></trkpt><trkpt lat="43.5677417" lon="10.5590317"><ele>96.5</ele><time>2026-04-04T14:03:33.012Z</time></trkpt><trkpt lat="43.5678467" lon="10.559125"><ele>96.25</ele><time>2026-04-04T14:03:34.012Z</time></trkpt><trkpt lat="43.5679667" lon="10.5592167"><ele>96.0</ele><time>2026-04-04T14:03:35.012Z</time></trkpt><trkpt lat="43.5680833" lon="10.5593133"><ele>95.25</ele><time>2026-04-04T14:03:36.011Z</time></trkpt><trkpt lat="43.5681967" lon="10.5594083"><ele>94.5</ele><time>2026-04-04T14:03:37.011Z</time></trkpt><trkpt lat="43.5682883" lon="10.5595183"><ele>93.75</ele><time>2026-04-04T14:03:38.012Z</time></trkpt><trkpt lat="43.5683683" lon="10.5596417"><ele>93.0</ele><time>2026-04-04T14:03:39.012Z</time></trkpt><trkpt lat="43.5683967" lon="10.5597917"><ele>95.25</ele><time>2026-04-04T14:03:40.012Z</time></trkpt><trkpt lat="43.5684067" lon="10.5599617"><ele>97.5</ele><time>2026-04-04T14:03:41.011Z</time></trkpt><trkpt lat="43.5684117" lon="10.560145"><ele>99.75</ele><time>2026-04-04T14:03:42.013Z</time></trkpt><trkpt lat="43.568415" lon="10.5603383"><ele>102.0</ele><time>2026-04-04T14:03:43.014Z</time></trkpt><trkpt lat="43.56842" lon="10.56053"><ele>102.75</ele><time>2026-04-04T14:03:44.013Z</time></trkpt><trkpt lat="43.5684283" lon="10.560715"><ele>103.5</ele><time>2026-04-04T14:03:45.013Z</time></trkpt><trkpt lat="43.5684483" lon="10.5608817"><ele>104.25</ele><time>2026-04-04T14:03:46.012Z</time></trkpt><trkpt lat="43.5684783" lon="10.5610233"><ele>105.0</ele><time>2026-04-04T14:03:47.014Z</time></trkpt><trkpt lat="43.5685383" lon="10.5611367"><ele>105.8</ele><time>2026-04-04T14:03:48.012Z</time></trkpt><trkpt lat="43.5686283" lon="10.561215"><ele>106.6</ele><time>2026-04-04T14:03:49.012Z</time></trkpt><trkpt lat="43.5687283" lon="10.5612833"><ele>107.4</ele><time>2026-04-04T14:03:50.012Z</time></trkpt><trkpt lat="43.5688283" lon="10.5613617"><ele>108.2</ele><time>2026-04-04T14:03:51.014Z</time></trkpt><trkpt lat="43.5689217" lon="10.5614367"><ele>109.0</ele><time>2026-04-04T14:03:52.013Z</time></trkpt><trkpt lat="43.5690217" lon="10.561515"><ele>106.80000000000001</ele><time>2026-04-04T14:03:53.013Z</time></trkpt><trkpt lat="43.5691183" lon="10.561595"><ele>104.60000000000001</ele><time>2026-04-04T14:03:54.013Z</time></trkpt><trkpt lat="43.569205" lon="10.561685"><ele>102.4</ele><time>2026-04-04T14:03:55.013Z</time></trkpt><trkpt lat="43.5692617" lon="10.5617933"><ele>100.2</ele><time>2026-04-04T14:03:56.013Z</time></trkpt><trkpt lat="43.56927" lon="10.561925"><ele>98.0</ele><time>2026-04-04T14:03:57.015Z</time></trkpt><trkpt lat="43.56926" lon="10.562075"><ele>98.0</ele><time>2026-04-04T14:03:58.012Z</time></trkpt><trkpt lat="43.5692433" lon="10.5622417"><ele>98.0</ele><time>2026-04-04T14:03:59.011Z</time></trkpt><trkpt lat="43.56924" lon="10.5624183"><ele>98.0</ele><time>2026-04-04T14:04:00.013Z</time></trkpt><trkpt lat="43.5692517" lon="10.5625933"><ele>98.0</ele><time>2026-04-04T14:04:01.012Z</time></trkpt><trkpt lat="43.56928" lon="10.5627517"><ele>95.75</ele><time>2026-04-04T14:04:02.013Z</time></trkpt><trkpt lat="43.5693367" lon="10.5629"><ele>93.5</ele><time>2026-04-04T14:04:03.013Z</time></trkpt><trkpt lat="43.56942" lon="10.56303"><ele>91.25</ele><time>2026-04-04T14:04:04.012Z</time></trkpt><trkpt lat="43.569515" lon="10.56313"><ele>89.0</ele><time>2026-04-04T14:04:05.013Z</time></trkpt><trkpt lat="43.5696267" lon="10.56323"><ele>89.0</ele><time>2026-04-04T14:04:06.012Z</time></trkpt><trkpt lat="43.56974" lon="10.5633233"><ele>89.0</ele><time>2026-04-04T14:04:07.013Z</time></trkpt><trkpt lat="43.5698633" lon="10.5634183"><ele>89.0</ele><time>2026-04-04T14:04:08.013Z</time></trkpt><trkpt lat="43.5699833" lon="10.56351"><ele>89.0</ele><time>2026-04-04T14:04:09.013Z</time></trkpt><trkpt lat="43.5700883" lon="10.5635933"><ele>87.25</ele><time>2026-04-04T14:04:10.012Z</time></trkpt><trkpt lat="43.5701967" lon="10.5637033"><ele>85.5</ele><time>2026-04-04T14:04:11.011Z</time></trkpt><trkpt lat="43.5702983" lon="10.5638383"><ele>83.75</ele><time>2026-04-04T14:04:12.012Z</time></trkpt><trkpt lat="43.57039" lon="10.5639683"><ele>82.0</ele><time>2026-04-04T14:04:13.012Z</time></trkpt><trkpt lat="43.57047" lon="10.5641"><ele>82.0</ele><time>2026-04-04T14:04:14.013Z</time></trkpt><trkpt lat="43.5705417" lon="10.56423"><ele>82.0</ele><time>2026-04-04T14:04:15.013Z</time></trkpt><trkpt lat="43.5706167" lon="10.5643483"><ele>82.0</ele><time>2026-04-04T14:04:16.012Z</time></trkpt><trkpt lat="43.570665" lon="10.56445"><ele>82.0</ele><time>2026-04-04T14:04:17.01Z</time></trkpt><trkpt lat="43.5707267" lon="10.5645267"><ele>82.0</ele><time>2026-04-04T14:04:18.012Z</time></trkpt><trkpt lat="43.5707983" lon="10.56457"><ele>82.0</ele><time>2026-04-04T14:04:19.011Z</time></trkpt><trkpt lat="43.5708683" lon="10.564555"><ele>82.0</ele><time>2026-04-04T14:04:20.011Z</time></trkpt><trkpt lat="43.570945" lon="10.5645267"><ele>82.0</ele><time>2026-04-04T14:04:21.012Z</time></trkpt><trkpt lat="43.5710383" lon="10.5644783"><ele>82.0</ele><time>2026-04-04T14:04:22.01Z</time></trkpt><trkpt lat="43.5711267" lon="10.56441"><ele>82.0</ele><time>2026-04-04T14:04:23.012Z</time></trkpt><trkpt lat="43.5712" lon="10.5643333"><ele>82.0</ele><time>2026-04-04T14:04:24.013Z</time></trkpt><trkpt lat="43.57126" lon="10.5642767"><ele>82.0</ele><time>2026-04-04T14:04:25.011Z</time></trkpt><trkpt lat="43.5713033" lon="10.564205"><ele>82.0</ele><time>2026-04-04T14:04:26.012Z</time></trkpt><trkpt lat="43.5713317" lon="10.5640417"><ele>82.0</ele><time>2026-04-04T14:04:28.013Z</time></trkpt><trkpt lat="43.5712683" lon="10.5639317"><ele>82.0</ele><time>2026-04-04T14:04:29.014Z</time></trkpt><trkpt lat="43.571225" lon="10.5638233"><ele>82.0</ele><time>2026-04-04T14:04:30.014Z</time></trkpt><trkpt lat="43.5711833" lon="10.5637067"><ele>80.0</ele><time>2026-04-04T14:04:31.012Z</time></trkpt><trkpt lat="43.571195" lon="10.5635883"><ele>78.0</ele><time>2026-04-04T14:04:32.013Z</time></trkpt><trkpt lat="43.5712267" lon="10.5634617"><ele>76.0</ele><time>2026-04-04T14:04:33.013Z</time></trkpt><trkpt lat="43.5712817" lon="10.5633533"><ele>74.0</ele><time>2026-04-04T14:04:34.011Z</time></trkpt><trkpt lat="43.571345" lon="10.5632517"><ele>72.0</ele><time>2026-04-04T14:04:35.011Z</time></trkpt><trkpt lat="43.5714117" lon="10.563155"><ele>72.0</ele><time>2026-04-04T14:04:36.013Z</time></trkpt><trkpt lat="43.5714767" lon="10.56306"><ele>72.0</ele><time>2026-04-04T14:04:37.013Z</time></trkpt><trkpt lat="43.5715367" lon="10.5629717"><ele>72.0</ele><time>2026-04-04T14:04:38.012Z</time></trkpt><trkpt lat="43.5715967" lon="10.5628917"><ele>72.0</ele><time>2026-04-04T14:04:39.012Z</time></trkpt><trkpt lat="43.5716483" lon="10.5628183"><ele>72.0</ele><time>2026-04-04T14:04:40.011Z</time></trkpt><trkpt lat="43.57174" lon="10.5627717"><ele>72.0</ele><time>2026-04-04T14:04:42.011Z</time></trkpt><trkpt lat="43.5717933" lon="10.56289"><ele>72.0</ele><time>2026-04-04T14:04:44.012Z</time></trkpt><trkpt lat="43.571785" lon="10.562985"><ele>72.0</ele><time>2026-04-04T14:04:45.012Z</time></trkpt><trkpt lat="43.5717267" lon="10.5631"><ele>72.0</ele><time>2026-04-04T14:04:46.011Z</time></trkpt><trkpt lat="43.5716767" lon="10.5632167"><ele>72.0</ele><time>2026-04-04T14:04:47.012Z</time></trkpt><trkpt lat="43.57163" lon="10.5633267"><ele>72.0</ele><time>2026-04-04T14:04:48.011Z</time></trkpt><trkpt lat="43.571595" lon="10.5634317"><ele>72.0</ele><time>2026-04-04T14:04:49.011Z</time></trkpt><trkpt lat="43.5715783" lon="10.563535"><ele>72.0</ele><time>2026-04-04T14:04:50.011Z</time></trkpt><trkpt lat="43.5715817" lon="10.563635"><ele>72.0</ele><time>2026-04-04T14:04:51.014Z</time></trkpt><trkpt lat="43.5716033" lon="10.5637283"><ele>72.0</ele><time>2026-04-04T14:04:52.013Z</time></trkpt><trkpt lat="43.5716383" lon="10.5638067"><ele>72.0</ele><time>2026-04-04T14:04:53.011Z</time></trkpt><trkpt lat="43.571725" lon="10.563895"><ele>72.0</ele><time>2026-04-04T14:04:55.012Z</time></trkpt><trkpt lat="43.5718283" lon="10.5639883"><ele>72.0</ele><time>2026-04-04T14:04:57.012Z</time></trkpt><trkpt lat="43.571885" lon="10.5640467"><ele>71.8</ele><time>2026-04-04T14:04:58.014Z</time></trkpt><trkpt lat="43.5719533" lon="10.5641133"><ele>71.6</ele><time>2026-04-04T14:04:59.012Z</time></trkpt><trkpt lat="43.5720317" lon="10.564185"><ele>71.39999999999999</ele><time>2026-04-04T14:05:00.012Z</time></trkpt><trkpt lat="43.5721133" lon="10.5642617"><ele>71.2</ele><time>2026-04-04T14:05:01.013Z</time></trkpt><trkpt lat="43.5721933" lon="10.5643367"><ele>71.0</ele><time>2026-04-04T14:05:02.013Z</time></trkpt><trkpt lat="43.5722717" lon="10.5644183"><ele>71.0</ele><time>2026-04-04T14:05:03.012Z</time></trkpt><trkpt lat="43.57233" lon="10.5645117"><ele>71.0</ele><time>2026-04-04T14:05:04.012Z</time></trkpt><trkpt lat="43.572355" lon="10.5646067"><ele>71.0</ele><time>2026-04-04T14:05:05.012Z</time></trkpt><trkpt lat="43.57232" lon="10.5647367"><ele>71.0</ele><time>2026-04-04T14:05:07.012Z</time></trkpt><trkpt lat="43.57224" lon="10.5647467"><ele>71.0</ele><time>2026-04-04T14:05:08.013Z</time></trkpt><trkpt lat="43.5721333" lon="10.5647333"><ele>69.2</ele><time>2026-04-04T14:05:09.013Z</time></trkpt><trkpt lat="43.572025" lon="10.5647167"><ele>67.39999999999999</ele><time>2026-04-04T14:05:10.011Z</time></trkpt><trkpt lat="43.5719283" lon="10.5647183"><ele>65.6</ele><time>2026-04-04T14:05:11.012Z</time></trkpt><trkpt lat="43.5718433" lon="10.5647417"><ele>63.8</ele><time>2026-04-04T14:05:12.01Z</time></trkpt><trkpt lat="43.5717667" lon="10.5647867"><ele>62.0</ele><time>2026-04-04T14:05:13.012Z</time></trkpt><trkpt lat="43.5717833" lon="10.56493"><ele>62.0</ele><time>2026-04-04T14:05:15.013Z</time></trkpt><trkpt lat="43.5718617" lon="10.5649867"><ele>62.0</ele><time>2026-04-04T14:05:16.011Z</time></trkpt><trkpt lat="43.571965" lon="10.5650417"><ele>62.0</ele><time>2026-04-04T14:05:17.01Z</time></trkpt><trkpt lat="43.5720867" lon="10.565095"><ele>62.0</ele><time>2026-04-04T14:05:18.012Z</time></trkpt><trkpt lat="43.5722017" lon="10.5651467"><ele>62.0</ele><time>2026-04-04T14:05:19.012Z</time></trkpt><trkpt lat="43.57232" lon="10.5651917"><ele>62.0</ele><time>2026-04-04T14:05:20.013Z</time></trkpt><trkpt lat="43.5724267" lon="10.5652633"><ele>62.0</ele><time>2026-04-04T14:05:21.012Z</time></trkpt><trkpt lat="43.5725117" lon="10.5653683"><ele>62.0</ele><time>2026-04-04T14:05:22.011Z</time></trkpt><trkpt lat="43.5725833" lon="10.5655117"><ele>62.0</ele><time>2026-04-04T14:05:23.011Z</time></trkpt><trkpt lat="43.572625" lon="10.5656833"><ele>59.5</ele><time>2026-04-04T14:05:24.013Z</time></trkpt><trkpt lat="43.5726417" lon="10.5658717"><ele>57.0</ele><time>2026-04-04T14:05:25.011Z</time></trkpt><trkpt lat="43.5726383" lon="10.5660733"><ele>54.5</ele><time>2026-04-04T14:05:26.012Z</time></trkpt><trkpt lat="43.5726367" lon="10.5662783"><ele>52.0</ele><time>2026-04-04T14:05:27.014Z</time></trkpt><trkpt lat="43.5726283" lon="10.5664817"><ele>50.5</ele><time>2026-04-04T14:05:28.012Z</time></trkpt><trkpt lat="43.572625" lon="10.5666867"><ele>49.0</ele><time>2026-04-04T14:05:29.011Z</time></trkpt><trkpt lat="43.5726117" lon="10.5668967"><ele>47.5</ele><time>2026-04-04T14:05:30.012Z</time></trkpt><trkpt lat="43.57256" lon="10.5670883"><ele>46.0</ele><time>2026-04-04T14:05:31.013Z</time></trkpt><trkpt lat="43.5725" lon="10.56727"><ele>44.333333333333336</ele><time>2026-04-04T14:05:32.011Z</time></trkpt><trkpt lat="43.5724067" lon="10.5674317"><ele>42.666666666666664</ele><time>2026-04-04T14:05:33.013Z</time></trkpt><trkpt lat="43.5722883" lon="10.567575"><ele>41.0</ele><time>2026-04-04T14:05:34.013Z</time></trkpt><trkpt lat="43.57215" lon="10.567705"><ele>41.0</ele><time>2026-04-04T14:05:35.012Z</time></trkpt><trkpt lat="43.5720083" lon="10.56784"><ele>41.0</ele><time>2026-04-04T14:05:36.011Z</time></trkpt><trkpt lat="43.5718683" lon="10.56798"><ele>41.0</ele><time>2026-04-04T14:05:37.011Z</time></trkpt><trkpt lat="43.5717267" lon="10.56811"><ele>41.0</ele><time>2026-04-04T14:05:38.012Z</time></trkpt><trkpt lat="43.57159" lon="10.568235"><ele>41.0</ele><time>2026-04-04T14:05:39.012Z</time></trkpt><trkpt lat="43.5714667" lon="10.5683583"><ele>41.0</ele><time>2026-04-04T14:05:40.011Z</time></trkpt><trkpt lat="43.5713483" lon="10.5684683"><ele>41.0</ele><time>2026-04-04T14:05:41.012Z</time></trkpt><trkpt lat="43.5712433" lon="10.5685783"><ele>41.0</ele><time>2026-04-04T14:05:42.013Z</time></trkpt><trkpt lat="43.5711367" lon="10.568685"><ele>41.0</ele><time>2026-04-04T14:05:43.011Z</time></trkpt><trkpt lat="43.5710233" lon="10.568795"><ele>41.0</ele><time>2026-04-04T14:05:44.011Z</time></trkpt><trkpt lat="43.5709033" lon="10.5689067"><ele>43.0</ele><time>2026-04-04T14:05:45.011Z</time></trkpt><trkpt lat="43.5707783" lon="10.569015"><ele>45.0</ele><time>2026-04-04T14:05:46.012Z</time></trkpt><trkpt lat="43.57065" lon="10.5691317"><ele>47.0</ele><time>2026-04-04T14:05:47.011Z</time></trkpt><trkpt lat="43.5705117" lon="10.5692467"><ele>47.0</ele><time>2026-04-04T14:05:48.011Z</time></trkpt><trkpt lat="43.570365" lon="10.569365"><ele>47.0</ele><time>2026-04-04T14:05:49.012Z</time></trkpt><trkpt lat="43.5702117" lon="10.5695"><ele>47.0</ele><time>2026-04-04T14:05:50.012Z</time></trkpt><trkpt lat="43.570055" lon="10.5696467"><ele>47.666666666666664</ele><time>2026-04-04T14:05:51.012Z</time></trkpt><trkpt lat="43.5698933" lon="10.569805"><ele>48.33333333333333</ele><time>2026-04-04T14:05:52.013Z</time></trkpt><trkpt lat="43.5697317" lon="10.56997"><ele>49.0</ele><time>2026-04-04T14:05:53.011Z</time></trkpt><trkpt lat="43.569575" lon="10.570125"><ele>49.0</ele><time>2026-04-04T14:05:54.012Z</time></trkpt><trkpt lat="43.56943" lon="10.57027"><ele>49.0</ele><time>2026-04-04T14:05:55.012Z</time></trkpt><trkpt lat="43.5693083" lon="10.570415"><ele>49.0</ele><time>2026-04-04T14:05:56.011Z</time></trkpt><trkpt lat="43.5692167" lon="10.5705883"><ele>49.0</ele><time>2026-04-04T14:05:57.011Z</time></trkpt><trkpt lat="43.56914" lon="10.57079"><ele>49.0</ele><time>2026-04-04T14:05:58.011Z</time></trkpt><trkpt lat="43.5690817" lon="10.57102"><ele>49.0</ele><time>2026-04-04T14:05:59.013Z</time></trkpt><trkpt lat="43.569045" lon="10.571275"><ele>48.33333333333333</ele><time>2026-04-04T14:06:00.011Z</time></trkpt><trkpt lat="43.569005" lon="10.5715333"><ele>47.666666666666664</ele><time>2026-04-04T14:06:01.011Z</time></trkpt><trkpt lat="43.56894" lon="10.57178"><ele>47.0</ele><time>2026-04-04T14:06:02.013Z</time></trkpt><trkpt lat="43.5688433" lon="10.5720133"><ele>48.0</ele><time>2026-04-04T14:06:03.011Z</time></trkpt><trkpt lat="43.5687183" lon="10.5722333"><ele>49.0</ele><time>2026-04-04T14:06:04.011Z</time></trkpt><trkpt lat="43.56858" lon="10.572455"><ele>50.0</ele><time>2026-04-04T14:06:05.011Z</time></trkpt><trkpt lat="43.568435" lon="10.5726833"><ele>52.0</ele><time>2026-04-04T14:06:06.011Z</time></trkpt><trkpt lat="43.5682717" lon="10.5729"><ele>54.0</ele><time>2026-04-04T14:06:07.011Z</time></trkpt><trkpt lat="43.5680917" lon="10.5730867"><ele>54.0</ele><time>2026-04-04T14:06:08.011Z</time></trkpt><trkpt lat="43.5679017" lon="10.5732667"><ele>54.0</ele><time>2026-04-04T14:06:09.014Z</time></trkpt><trkpt lat="43.567705" lon="10.5734383"><ele>53.5</ele><time>2026-04-04T14:06:10.012Z</time></trkpt><trkpt lat="43.5675067" lon="10.573615"><ele>53.0</ele><time>2026-04-04T14:06:11.011Z</time></trkpt><trkpt lat="43.5673067" lon="10.5737933"><ele>52.5</ele><time>2026-04-04T14:06:12.013Z</time></trkpt><trkpt lat="43.5671067" lon="10.5739667"><ele>52.0</ele><time>2026-04-04T14:06:13.013Z</time></trkpt><trkpt lat="43.5669117" lon="10.574135"><ele>52.0</ele><time>2026-04-04T14:06:14.011Z</time></trkpt><trkpt lat="43.5667217" lon="10.5743067"><ele>52.0</ele><time>2026-04-04T14:06:15.012Z</time></trkpt><trkpt lat="43.566545" lon="10.574475"><ele>52.0</ele><time>2026-04-04T14:06:16.011Z</time></trkpt><trkpt lat="43.56638" lon="10.5746367"><ele>51.666666666666664</ele><time>2026-04-04T14:06:17.011Z</time></trkpt><trkpt lat="43.566205" lon="10.574765"><ele>51.33333333333333</ele><time>2026-04-04T14:06:18.011Z</time></trkpt><trkpt lat="43.5660183" lon="10.5748483"><ele>51.0</ele><time>2026-04-04T14:06:19.012Z</time></trkpt><trkpt lat="43.565835" lon="10.57489"><ele>51.0</ele><time>2026-04-04T14:06:20.012Z</time></trkpt><trkpt lat="43.5656483" lon="10.574905"><ele>51.0</ele><time>2026-04-04T14:06:21.013Z</time></trkpt><trkpt lat="43.5654633" lon="10.5749183"><ele>51.0</ele><time>2026-04-04T14:06:22.013Z</time></trkpt><trkpt lat="43.5652917" lon="10.5749333"><ele>51.33333333333333</ele><time>2026-04-04T14:06:23.011Z</time></trkpt><trkpt lat="43.5651267" lon="10.5749633"><ele>51.666666666666664</ele><time>2026-04-04T14:06:24.012Z</time></trkpt><trkpt lat="43.56497" lon="10.5750233"><ele>52.0</ele><time>2026-04-04T14:06:25.011Z</time></trkpt><trkpt lat="43.5648217" lon="10.575125"><ele>52.0</ele><time>2026-04-04T14:06:26.011Z</time></trkpt><trkpt lat="43.5646717" lon="10.57526"><ele>52.0</ele><time>2026-04-04T14:06:27.013Z</time></trkpt><trkpt lat="43.56452" lon="10.5754217"><ele>52.0</ele><time>2026-04-04T14:06:28.011Z</time></trkpt><trkpt lat="43.5643567" lon="10.5755933"><ele>53.666666666666664</ele><time>2026-04-04T14:06:29.012Z</time></trkpt><trkpt lat="43.564185" lon="10.5757783"><ele>55.33333333333333</ele><time>2026-04-04T14:06:30.011Z</time></trkpt><trkpt lat="43.5640117" lon="10.575965"><ele>57.0</ele><time>2026-04-04T14:06:31.011Z</time></trkpt><trkpt lat="43.56383" lon="10.5761383"><ele>58.0</ele><time>2026-04-04T14:06:32.013Z</time></trkpt><trkpt lat="43.5636367" lon="10.5762867"><ele>59.0</ele><time>2026-04-04T14:06:33.012Z</time></trkpt><trkpt lat="43.56343" lon="10.5764117"><ele>60.0</ele><time>2026-04-04T14:06:34.011Z</time></trkpt><trkpt lat="43.5632183" lon="10.57653"><ele>60.0</ele><time>2026-04-04T14:06:35.012Z</time></trkpt><trkpt lat="43.5630033" lon="10.5766467"><ele>60.0</ele><time>2026-04-04T14:06:36.012Z</time></trkpt><trkpt lat="43.5627933" lon="10.5767583"><ele>60.0</ele><time>2026-04-04T14:06:37.012Z</time></trkpt><trkpt lat="43.5625883" lon="10.5768667"><ele>60.0</ele><time>2026-04-04T14:06:38.012Z</time></trkpt><trkpt lat="43.5624" lon="10.57697"><ele>60.0</ele><time>2026-04-04T14:06:39.011Z</time></trkpt><trkpt lat="43.56223" lon="10.5770917"><ele>60.0</ele><time>2026-04-04T14:06:40.011Z</time></trkpt><trkpt lat="43.5620783" lon="10.5772467"><ele>60.0</ele><time>2026-04-04T14:06:41.011Z</time></trkpt><trkpt lat="43.5619417" lon="10.5774367"><ele>60.0</ele><time>2026-04-04T14:06:42.011Z</time></trkpt><trkpt lat="43.561815" lon="10.577645"><ele>59.66666666666667</ele><time>2026-04-04T14:06:43.012Z</time></trkpt><trkpt lat="43.5617" lon="10.5778517"><ele>59.333333333333336</ele><time>2026-04-04T14:06:44.011Z</time></trkpt><trkpt lat="43.561605" lon="10.5780433"><ele>59.0</ele><time>2026-04-04T14:06:45.012Z</time></trkpt><trkpt lat="43.5615433" lon="10.5782283"><ele>59.0</ele><time>2026-04-04T14:06:46.01Z</time></trkpt><trkpt lat="43.561525" lon="10.5784083"><ele>59.0</ele><time>2026-04-04T14:06:47.01Z</time></trkpt><trkpt lat="43.5615383" lon="10.578585"><ele>59.0</ele><time>2026-04-04T14:06:48.012Z</time></trkpt><trkpt lat="43.5615733" lon="10.5787667"><ele>59.0</ele><time>2026-04-04T14:06:49.011Z</time></trkpt><trkpt lat="43.5616167" lon="10.5789567"><ele>60.5</ele><time>2026-04-04T14:06:50.01Z</time></trkpt><trkpt lat="43.5616433" lon="10.5791533"><ele>62.0</ele><time>2026-04-04T14:06:51.01Z</time></trkpt><trkpt lat="43.5616533" lon="10.57933"><ele>63.5</ele><time>2026-04-04T14:06:52.013Z</time></trkpt><trkpt lat="43.5616533" lon="10.5794833"><ele>65.0</ele><time>2026-04-04T14:06:53.011Z</time></trkpt><trkpt lat="43.5616483" lon="10.579615"><ele>66.0</ele><time>2026-04-04T14:06:54.012Z</time></trkpt><trkpt lat="43.5616417" lon="10.5797317"><ele>67.0</ele><time>2026-04-04T14:06:55.011Z</time></trkpt><trkpt lat="43.5616417" lon="10.57983"><ele>68.0</ele><time>2026-04-04T14:06:56.01Z</time></trkpt><trkpt lat="43.5616483" lon="10.5799183"><ele>69.0</ele><time>2026-04-04T14:06:57.012Z</time></trkpt><trkpt lat="43.5616983" lon="10.580055"><ele>70.0</ele><time>2026-04-04T14:06:59.012Z</time></trkpt><trkpt lat="43.5617617" lon="10.580095"><ele>71.0</ele><time>2026-04-04T14:07:01.012Z</time></trkpt><trkpt lat="43.5618583" lon="10.5800083"><ele>71.0</ele><time>2026-04-04T14:07:03.013Z</time></trkpt><trkpt lat="43.56189" lon="10.57989"><ele>71.0</ele><time>2026-04-04T14:07:04.012Z</time></trkpt><trkpt lat="43.5619133" lon="10.5797867"><ele>71.0</ele><time>2026-04-04T14:07:05.012Z</time></trkpt><trkpt lat="43.562025" lon="10.57978"><ele>71.0</ele><time>2026-04-04T14:07:07.011Z</time></trkpt><trkpt lat="43.56209" lon="10.57986"><ele>71.0</ele><time>2026-04-04T14:07:08.01Z</time></trkpt><trkpt lat="43.5621583" lon="10.5799633"><ele>72.8</ele><time>2026-04-04T14:07:09.012Z</time></trkpt><trkpt lat="43.5622417" lon="10.5800783"><ele>74.6</ele><time>2026-04-04T14:07:10.01Z</time></trkpt><trkpt lat="43.5623167" lon="10.5802"><ele>76.4</ele><time>2026-04-04T14:07:11.01Z</time></trkpt><trkpt lat="43.5623633" lon="10.5803283"><ele>78.2</ele><time>2026-04-04T14:07:12.012Z</time></trkpt><trkpt lat="43.5623833" lon="10.5804683"><ele>80.0</ele><time>2026-04-04T14:07:13.014Z</time></trkpt><trkpt lat="43.562375" lon="10.5806217"><ele>82.0</ele><time>2026-04-04T14:07:14.011Z</time></trkpt><trkpt lat="43.562365" lon="10.580785"><ele>84.0</ele><time>2026-04-04T14:07:15.011Z</time></trkpt><trkpt lat="43.5623733" lon="10.5809683"><ele>86.0</ele><time>2026-04-04T14:07:16.011Z</time></trkpt><trkpt lat="43.5624" lon="10.5811617"><ele>88.0</ele><time>2026-04-04T14:07:17.011Z</time></trkpt><trkpt lat="43.562435" lon="10.5813467"><ele>89.0</ele><time>2026-04-04T14:07:18.013Z</time></trkpt><trkpt lat="43.56248" lon="10.581525"><ele>90.0</ele><time>2026-04-04T14:07:19.012Z</time></trkpt><trkpt lat="43.5625417" lon="10.5816867"><ele>91.0</ele><time>2026-04-04T14:07:20.009Z</time></trkpt><trkpt lat="43.56264" lon="10.5818233"><ele>92.0</ele><time>2026-04-04T14:07:21.012Z</time></trkpt><trkpt lat="43.5627567" lon="10.58195"><ele>98.0</ele><time>2026-04-04T14:07:22.011Z</time></trkpt><trkpt lat="43.56288" lon="10.5820833"><ele>104.0</ele><time>2026-04-04T14:07:23.011Z</time></trkpt><trkpt lat="43.563" lon="10.5822183"><ele>110.0</ele><time>2026-04-04T14:07:24.013Z</time></trkpt><trkpt lat="43.5631133" lon="10.5823417"><ele>110.0</ele><time>2026-04-04T14:07:25.014Z</time></trkpt><trkpt lat="43.56321" lon="10.5824717"><ele>110.0</ele><time>2026-04-04T14:07:26.012Z</time></trkpt><trkpt lat="43.5633" lon="10.5825933"><ele>110.0</ele><time>2026-04-04T14:07:27.014Z</time></trkpt><trkpt lat="43.5633917" lon="10.5827117"><ele>110.0</ele><time>2026-04-04T14:07:28.012Z</time></trkpt><trkpt lat="43.5634817" lon="10.5828317"><ele>109.75</ele><time>2026-04-04T14:07:29.012Z</time></trkpt><trkpt lat="43.5635833" lon="10.582935"><ele>109.5</ele><time>2026-04-04T14:07:30.012Z</time></trkpt><trkpt lat="43.5637017" lon="10.583015"><ele>109.25</ele><time>2026-04-04T14:07:31.013Z</time></trkpt><trkpt lat="43.5638383" lon="10.5830783"><ele>109.0</ele><time>2026-04-04T14:07:32.012Z</time></trkpt><trkpt lat="43.5639783" lon="10.5831367"><ele>109.0</ele><time>2026-04-04T14:07:33.012Z</time></trkpt><trkpt lat="43.5641067" lon="10.5831933"><ele>109.0</ele><time>2026-04-04T14:07:34.013Z</time></trkpt><trkpt lat="43.56423" lon="10.5832533"><ele>109.0</ele><time>2026-04-04T14:07:35.009Z</time></trkpt><trkpt lat="43.5643333" lon="10.583345"><ele>109.0</ele><time>2026-04-04T14:07:36.012Z</time></trkpt><trkpt lat="43.5644267" lon="10.58348"><ele>109.0</ele><time>2026-04-04T14:07:37.01Z</time></trkpt><trkpt lat="43.5645017" lon="10.5836567"><ele>109.0</ele><time>2026-04-04T14:07:38.012Z</time></trkpt><trkpt lat="43.56456" lon="10.5838467"><ele>109.0</ele><time>2026-04-04T14:07:39.011Z</time></trkpt><trkpt lat="43.5646067" lon="10.5840383"><ele>109.0</ele><time>2026-04-04T14:07:40.01Z</time></trkpt><trkpt lat="43.5646517" lon="10.5842283"><ele>108.25</ele><time>2026-04-04T14:07:41.011Z</time></trkpt><trkpt lat="43.5646667" lon="10.5844233"><ele>107.5</ele><time>2026-04-04T14:07:42.01Z</time></trkpt><trkpt lat="43.5646567" lon="10.5846267"><ele>106.75</ele><time>2026-04-04T14:07:43.009Z</time></trkpt><trkpt lat="43.56462" lon="10.5848267"><ele>106.0</ele><time>2026-04-04T14:07:44.009Z</time></trkpt><trkpt lat="43.564575" lon="10.5850283"><ele>105.25</ele><time>2026-04-04T14:07:45.011Z</time></trkpt><trkpt lat="43.56452" lon="10.5852233"><ele>104.5</ele><time>2026-04-04T14:07:46.01Z</time></trkpt><trkpt lat="43.564455" lon="10.585405"><ele>103.75</ele><time>2026-04-04T14:07:47.011Z</time></trkpt><trkpt lat="43.564395" lon="10.5855633"><ele>103.0</ele><time>2026-04-04T14:07:48.01Z</time></trkpt><trkpt lat="43.5643417" lon="10.585695"><ele>103.60000000000001</ele><time>2026-04-04T14:07:49.01Z</time></trkpt><trkpt lat="43.5642967" lon="10.5858183"><ele>104.2</ele><time>2026-04-04T14:07:50.011Z</time></trkpt><trkpt lat="43.5642767" lon="10.5859383"><ele>104.8</ele><time>2026-04-04T14:07:51.011Z</time></trkpt><trkpt lat="43.5642767" lon="10.5860667"><ele>105.4</ele><time>2026-04-04T14:07:52.011Z</time></trkpt><trkpt lat="43.56429" lon="10.5861933"><ele>106.0</ele><time>2026-04-04T14:07:53.01Z</time></trkpt><trkpt lat="43.5643133" lon="10.5863117"><ele>106.0</ele><time>2026-04-04T14:07:54.012Z</time></trkpt><trkpt lat="43.564375" lon="10.5864267"><ele>106.0</ele><time>2026-04-04T14:07:55.01Z</time></trkpt><trkpt lat="43.56446" lon="10.5865433"><ele>106.0</ele><time>2026-04-04T14:07:56.012Z</time></trkpt><trkpt lat="43.5645883" lon="10.5866533"><ele>106.0</ele><time>2026-04-04T14:07:57.012Z</time></trkpt><trkpt lat="43.5646783" lon="10.5867767"><ele>107.6</ele><time>2026-04-04T14:07:58.011Z</time></trkpt><trkpt lat="43.56475" lon="10.586915"><ele>109.19999999999999</ele><time>2026-04-04T14:07:59.012Z</time></trkpt><trkpt lat="43.5647833" lon="10.587045"><ele>110.80000000000001</ele><time>2026-04-04T14:08:00.011Z</time></trkpt><trkpt lat="43.564815" lon="10.5871667"><ele>112.4</ele><time>2026-04-04T14:08:01.011Z</time></trkpt><trkpt lat="43.5648383" lon="10.5872833"><ele>114.0</ele><time>2026-04-04T14:08:02.012Z</time></trkpt><trkpt lat="43.5648583" lon="10.5873967"><ele>114.0</ele><time>2026-04-04T14:08:03.011Z</time></trkpt><trkpt lat="43.5648617" lon="10.5875217"><ele>114.0</ele><time>2026-04-04T14:08:04.011Z</time></trkpt><trkpt lat="43.5648367" lon="10.5876367"><ele>114.0</ele><time>2026-04-04T14:08:05.011Z</time></trkpt><trkpt lat="43.5648117" lon="10.5877483"><ele>114.0</ele><time>2026-04-04T14:08:06.011Z</time></trkpt><trkpt lat="43.564795" lon="10.5878683"><ele>114.0</ele><time>2026-04-04T14:08:07.014Z</time></trkpt><trkpt lat="43.564775" lon="10.5879933"><ele>114.0</ele><time>2026-04-04T14:08:08.012Z</time></trkpt><trkpt lat="43.56475" lon="10.5881133"><ele>112.4</ele><time>2026-04-04T14:08:09.012Z</time></trkpt><trkpt lat="43.5647183" lon="10.5882317"><ele>110.80000000000001</ele><time>2026-04-04T14:08:10.011Z</time></trkpt><trkpt lat="43.5646883" lon="10.588355"><ele>109.19999999999999</ele><time>2026-04-04T14:08:11.011Z</time></trkpt><trkpt lat="43.5646617" lon="10.5884783"><ele>107.6</ele><time>2026-04-04T14:08:12.011Z</time></trkpt><trkpt lat="43.5646417" lon="10.5886033"><ele>106.0</ele><time>2026-04-04T14:08:13.011Z</time></trkpt><trkpt lat="43.5646333" lon="10.5887317"><ele>106.0</ele><time>2026-04-04T14:08:14.011Z</time></trkpt><trkpt lat="43.5646333" lon="10.5888633"><ele>106.0</ele><time>2026-04-04T14:08:15.013Z</time></trkpt><trkpt lat="43.564655" lon="10.5889967"><ele>106.0</ele><time>2026-04-04T14:08:16.012Z</time></trkpt><trkpt lat="43.56468" lon="10.5891333"><ele>106.0</ele><time>2026-04-04T14:08:17.01Z</time></trkpt><trkpt lat="43.56472" lon="10.589275"><ele>106.0</ele><time>2026-04-04T14:08:18.01Z</time></trkpt><trkpt lat="43.5647617" lon="10.589415"><ele>107.0</ele><time>2026-04-04T14:08:19.012Z</time></trkpt><trkpt lat="43.5648067" lon="10.5895567"><ele>108.0</ele><time>2026-04-04T14:08:20.01Z</time></trkpt><trkpt lat="43.5648533" lon="10.5896983"><ele>109.0</ele><time>2026-04-04T14:08:21.011Z</time></trkpt><trkpt lat="43.56489" lon="10.589835"><ele>110.0</ele><time>2026-04-04T14:08:22.012Z</time></trkpt><trkpt lat="43.564905" lon="10.5899667"><ele>111.0</ele><time>2026-04-04T14:08:23.012Z</time></trkpt><trkpt lat="43.56491" lon="10.5900783"><ele>111.0</ele><time>2026-04-04T14:08:24.011Z</time></trkpt><trkpt lat="43.5649133" lon="10.5901817"><ele>111.0</ele><time>2026-04-04T14:08:25.01Z</time></trkpt><trkpt lat="43.56488" lon="10.5902783"><ele>111.0</ele><time>2026-04-04T14:08:26.012Z</time></trkpt><trkpt lat="43.5648183" lon="10.5903783"><ele>111.0</ele><time>2026-04-04T14:08:27.012Z</time></trkpt><trkpt lat="43.5647533" lon="10.5904733"><ele>111.0</ele><time>2026-04-04T14:08:28.012Z</time></trkpt><trkpt lat="43.5647017" lon="10.5905717"><ele>111.0</ele><time>2026-04-04T14:08:29.011Z</time></trkpt><trkpt lat="43.5646633" lon="10.5906783"><ele>111.0</ele><time>2026-04-04T14:08:30.012Z</time></trkpt><trkpt lat="43.5646383" lon="10.5907833"><ele>111.0</ele><time>2026-04-04T14:08:31.012Z</time></trkpt><trkpt lat="43.564645" lon="10.590885"><ele>111.0</ele><time>2026-04-04T14:08:32.012Z</time></trkpt><trkpt lat="43.564685" lon="10.59097"><ele>111.0</ele><time>2026-04-04T14:08:33.011Z</time></trkpt><trkpt lat="43.5647833" lon="10.591005"><ele>111.0</ele><time>2026-04-04T14:08:34.011Z</time></trkpt><trkpt lat="43.5648783" lon="10.591055"><ele>111.0</ele><time>2026-04-04T14:08:35.011Z</time></trkpt><trkpt lat="43.5649767" lon="10.59111"><ele>110.4</ele><time>2026-04-04T14:08:36.013Z</time></trkpt><trkpt lat="43.565075" lon="10.5911767"><ele>109.8</ele><time>2026-04-04T14:08:37.01Z</time></trkpt><trkpt lat="43.5651617" lon="10.5912467"><ele>109.20000000000002</ele><time>2026-04-04T14:08:38.012Z</time></trkpt><trkpt lat="43.565255" lon="10.5913117"><ele>108.60000000000001</ele><time>2026-04-04T14:08:39.011Z</time></trkpt><trkpt lat="43.5653283" lon="10.591375"><ele>108.0</ele><time>2026-04-04T14:08:40.011Z</time></trkpt><trkpt lat="43.5653917" lon="10.5914467"><ele>110.83333333333333</ele><time>2026-04-04T14:08:41.011Z</time></trkpt><trkpt lat="43.5654317" lon="10.59153"><ele>113.66666666666666</ele><time>2026-04-04T14:08:42.011Z</time></trkpt><trkpt lat="43.565445" lon="10.5916283"><ele>116.5</ele><time>2026-04-04T14:08:43.012Z</time></trkpt><trkpt lat="43.5654517" lon="10.5917383"><ele>119.33333333333333</ele><time>2026-04-04T14:08:44.012Z</time></trkpt><trkpt lat="43.565445" lon="10.591855"><ele>122.16666666666666</ele><time>2026-04-04T14:08:45.013Z</time></trkpt><trkpt lat="43.565435" lon="10.5919767"><ele>125.0</ele><time>2026-04-04T14:08:46.011Z</time></trkpt><trkpt lat="43.5654233" lon="10.5921"><ele>125.49999999999999</ele><time>2026-04-04T14:08:47.01Z</time></trkpt><trkpt lat="43.5654083" lon="10.5922183"><ele>126.0</ele><time>2026-04-04T14:08:48.013Z</time></trkpt><trkpt lat="43.5653933" lon="10.5923333"><ele>126.5</ele><time>2026-04-04T14:08:49.013Z</time></trkpt><trkpt lat="43.565395" lon="10.5924517"><ele>127.0</ele><time>2026-04-04T14:08:50.011Z</time></trkpt><trkpt lat="43.5653917" lon="10.59255"><ele>127.49999999999999</ele><time>2026-04-04T14:08:51.012Z</time></trkpt><trkpt lat="43.565385" lon="10.5926917"><ele>128.0</ele><time>2026-04-04T14:08:53.012Z</time></trkpt><trkpt lat="43.565385" lon="10.59284"><ele>125.80000000000001</ele><time>2026-04-04T14:08:55.011Z</time></trkpt><trkpt lat="43.5654217" lon="10.5929783"><ele>123.60000000000001</ele><time>2026-04-04T14:08:57.012Z</time></trkpt><trkpt lat="43.5654517" lon="10.5931017"><ele>121.39999999999999</ele><time>2026-04-04T14:08:59.011Z</time></trkpt><trkpt lat="43.5655083" lon="10.5932017"><ele>119.19999999999999</ele><time>2026-04-04T14:09:01.011Z</time></trkpt><trkpt lat="43.5655267" lon="10.5933567"><ele>117.0</ele><time>2026-04-04T14:09:03.011Z</time></trkpt><trkpt lat="43.565525" lon="10.5934533"><ele>117.0</ele><time>2026-04-04T14:09:04.011Z</time></trkpt><trkpt lat="43.5654967" lon="10.5935617"><ele>116.99999999999999</ele><time>2026-04-04T14:09:05.012Z</time></trkpt><trkpt lat="43.5654667" lon="10.5936833"><ele>116.99999999999999</ele><time>2026-04-04T14:09:06.012Z</time></trkpt><trkpt lat="43.565435" lon="10.5938117"><ele>117.0</ele><time>2026-04-04T14:09:07.012Z</time></trkpt><trkpt lat="43.565395" lon="10.5939317"><ele>117.0</ele><time>2026-04-04T14:09:08.011Z</time></trkpt><trkpt lat="43.5653483" lon="10.5940483"><ele>117.16666666666667</ele><time>2026-04-04T14:09:09.011Z</time></trkpt><trkpt lat="43.5652867" lon="10.5941483"><ele>117.33333333333334</ele><time>2026-04-04T14:09:10.011Z</time></trkpt><trkpt lat="43.5652333" lon="10.5942483"><ele>117.5</ele><time>2026-04-04T14:09:11.011Z</time></trkpt><trkpt lat="43.5651883" lon="10.59435"><ele>117.66666666666667</ele><time>2026-04-04T14:09:12.011Z</time></trkpt><trkpt lat="43.56515" lon="10.5944583"><ele>117.83333333333334</ele><time>2026-04-04T14:09:13.011Z</time></trkpt><trkpt lat="43.5651083" lon="10.594565"><ele>118.0</ele><time>2026-04-04T14:09:14.012Z</time></trkpt><trkpt lat="43.5650767" lon="10.5946817"><ele>118.2</ele><time>2026-04-04T14:09:15.012Z</time></trkpt><trkpt lat="43.5650483" lon="10.5948083"><ele>118.4</ele><time>2026-04-04T14:09:16.013Z</time></trkpt><trkpt lat="43.56503" lon="10.5949367"><ele>118.60000000000001</ele><time>2026-04-04T14:09:17.01Z</time></trkpt><trkpt lat="43.5650017" lon="10.5950567"><ele>118.80000000000001</ele><time>2026-04-04T14:09:18.012Z</time></trkpt><trkpt lat="43.56497" lon="10.5951717"><ele>119.0</ele><time>2026-04-04T14:09:19.011Z</time></trkpt><trkpt lat="43.5649267" lon="10.595275"><ele>117.33333333333333</ele><time>2026-04-04T14:09:20.012Z</time></trkpt><trkpt lat="43.56489" lon="10.5953833"><ele>115.66666666666666</ele><time>2026-04-04T14:09:21.011Z</time></trkpt><trkpt lat="43.5648483" lon="10.5954817"><ele>114.0</ele><time>2026-04-04T14:09:22.012Z</time></trkpt><trkpt lat="43.56481" lon="10.595575"><ele>112.33333333333334</ele><time>2026-04-04T14:09:23.011Z</time></trkpt><trkpt lat="43.5647617" lon="10.595665"><ele>110.66666666666667</ele><time>2026-04-04T14:09:24.011Z</time></trkpt><trkpt lat="43.5647" lon="10.5957483"><ele>109.0</ele><time>2026-04-04T14:09:25.012Z</time></trkpt><trkpt lat="43.564635" lon="10.5958283"><ele>109.00000000000001</ele><time>2026-04-04T14:09:26.011Z</time></trkpt><trkpt lat="43.5645717" lon="10.5959117"><ele>109.0</ele><time>2026-04-04T14:09:27.013Z</time></trkpt><trkpt lat="43.5645083" lon="10.596"><ele>109.0</ele><time>2026-04-04T14:09:28.012Z</time></trkpt><trkpt lat="43.5644517" lon="10.5960917"><ele>109.0</ele><time>2026-04-04T14:09:29.011Z</time></trkpt><trkpt lat="43.5644017" lon="10.5961817"><ele>109.00000000000001</ele><time>2026-04-04T14:09:30.011Z</time></trkpt><trkpt lat="43.564355" lon="10.596255"><ele>109.0</ele><time>2026-04-04T14:09:31.012Z</time></trkpt><trkpt lat="43.5642883" lon="10.5963617"><ele>109.33333333333334</ele><time>2026-04-04T14:09:33.011Z</time></trkpt><trkpt lat="43.56424" lon="10.5964217"><ele>109.66666666666667</ele><time>2026-04-04T14:09:35.009Z</time></trkpt><trkpt lat="43.5641567" lon="10.5964983"><ele>110.0</ele><time>2026-04-04T14:10:24.01Z</time></trkpt><trkpt lat="43.5641517" lon="10.5966967"><ele>110.33333333333334</ele><time>2026-04-04T14:10:27.011Z</time></trkpt><trkpt lat="43.564155" lon="10.5967967"><ele>110.66666666666667</ele><time>2026-04-04T14:10:28.011Z</time></trkpt><trkpt lat="43.5641517" lon="10.59689"><ele>111.0</ele><time>2026-04-04T14:10:29.01Z</time></trkpt><trkpt lat="43.5641467" lon="10.5969883"><ele>110.83333333333333</ele><time>2026-04-04T14:10:30.01Z</time></trkpt><trkpt lat="43.564135" lon="10.597085"><ele>110.66666666666666</ele><time>2026-04-04T14:10:31.011Z</time></trkpt><trkpt lat="43.5641333" lon="10.5971833"><ele>110.5</ele><time>2026-04-04T14:10:32.01Z</time></trkpt><trkpt lat="43.56413" lon="10.59729"><ele>110.33333333333333</ele><time>2026-04-04T14:10:33.013Z</time></trkpt><trkpt lat="43.5641233" lon="10.59741"><ele>110.16666666666666</ele><time>2026-04-04T14:10:34.009Z</time></trkpt><trkpt lat="43.5641233" lon="10.5975433"><ele>110.0</ele><time>2026-04-04T14:10:35.011Z</time></trkpt><trkpt lat="43.56412" lon="10.5976883"><ele>109.5</ele><time>2026-04-04T14:10:36.013Z</time></trkpt><trkpt lat="43.56412" lon="10.5978433"><ele>109.0</ele><time>2026-04-04T14:10:37.011Z</time></trkpt><trkpt lat="43.564125" lon="10.59801"><ele>108.5</ele><time>2026-04-04T14:10:38.01Z</time></trkpt><trkpt lat="43.5641333" lon="10.598175"><ele>108.0</ele><time>2026-04-04T14:10:39.01Z</time></trkpt><trkpt lat="43.5641417" lon="10.5983483"><ele>108.0</ele><time>2026-04-04T14:10:40.011Z</time></trkpt><trkpt lat="43.5641533" lon="10.5985267"><ele>108.0</ele><time>2026-04-04T14:10:41.01Z</time></trkpt><trkpt lat="43.5641683" lon="10.5987067"><ele>108.0</ele><time>2026-04-04T14:10:42.01Z</time></trkpt><trkpt lat="43.5641967" lon="10.5988867"><ele>108.0</ele><time>2026-04-04T14:10:43.012Z</time></trkpt><trkpt lat="43.564235" lon="10.59906"><ele>108.5</ele><time>2026-04-04T14:10:44.011Z</time></trkpt><trkpt lat="43.564285" lon="10.5992267"><ele>109.0</ele><time>2026-04-04T14:10:45.012Z</time></trkpt><trkpt lat="43.5643433" lon="10.5993833"><ele>109.5</ele><time>2026-04-04T14:10:46.011Z</time></trkpt><trkpt lat="43.564405" lon="10.5995283"><ele>110.0</ele><time>2026-04-04T14:10:47.011Z</time></trkpt><trkpt lat="43.5644917" lon="10.59964"><ele>110.75</ele><time>2026-04-04T14:10:48.011Z</time></trkpt><trkpt lat="43.5645967" lon="10.599725"><ele>111.5</ele><time>2026-04-04T14:10:49.012Z</time></trkpt><trkpt lat="43.56471" lon="10.5997817"><ele>112.25</ele><time>2026-04-04T14:10:50.011Z</time></trkpt><trkpt lat="43.5648317" lon="10.59982"><ele>113.0</ele><time>2026-04-04T14:10:51.011Z</time></trkpt><trkpt lat="43.5649483" lon="10.5998583"><ele>113.0</ele><time>2026-04-04T14:10:52.01Z</time></trkpt><trkpt lat="43.565065" lon="10.5999017"><ele>113.00000000000001</ele><time>2026-04-04T14:10:53.01Z</time></trkpt><trkpt lat="43.5651717" lon="10.5999617"><ele>113.00000000000001</ele><time>2026-04-04T14:10:54.014Z</time></trkpt><trkpt lat="43.5652717" lon="10.6000033"><ele>113.0</ele><time>2026-04-04T14:10:55.011Z</time></trkpt><trkpt lat="43.5653633" lon="10.6000533"><ele>113.0</ele><time>2026-04-04T14:10:56.011Z</time></trkpt><trkpt lat="43.5654383" lon="10.6000883"><ele>112.33333333333333</ele><time>2026-04-04T14:10:57.012Z</time></trkpt><trkpt lat="43.565495" lon="10.6001367"><ele>111.66666666666666</ele><time>2026-04-04T14:10:58.011Z</time></trkpt><trkpt lat="43.5655383" lon="10.6002067"><ele>111.0</ele><time>2026-04-04T14:10:59.012Z</time></trkpt><trkpt lat="43.5655683" lon="10.6002917"><ele>110.33333333333334</ele><time>2026-04-04T14:11:00.013Z</time></trkpt><trkpt lat="43.5656017" lon="10.60038"><ele>109.66666666666667</ele><time>2026-04-04T14:11:01.011Z</time></trkpt><trkpt lat="43.56563" lon="10.6004933"><ele>109.0</ele><time>2026-04-04T14:11:02.011Z</time></trkpt><trkpt lat="43.56562" lon="10.6006367"><ele>108.25</ele><time>2026-04-04T14:11:03.012Z</time></trkpt><trkpt lat="43.5655867" lon="10.6008033"><ele>107.5</ele><time>2026-04-04T14:11:04.012Z</time></trkpt><trkpt lat="43.5655417" lon="10.6009767"><ele>106.75</ele><time>2026-04-04T14:11:05.011Z</time></trkpt><trkpt lat="43.565505" lon="10.6011483"><ele>106.0</ele><time>2026-04-04T14:11:06.012Z</time></trkpt><trkpt lat="43.5654683" lon="10.6013233"><ele>103.0</ele><time>2026-04-04T14:11:07.01Z</time></trkpt><trkpt lat="43.56544" lon="10.6015067"><ele>100.0</ele><time>2026-04-04T14:11:08.011Z</time></trkpt><trkpt lat="43.56542" lon="10.6017"><ele>97.0</ele><time>2026-04-04T14:11:09.011Z</time></trkpt><trkpt lat="43.5654017" lon="10.6019067"><ele>94.0</ele><time>2026-04-04T14:11:10.011Z</time></trkpt><trkpt lat="43.56539" lon="10.6021217"><ele>92.0</ele><time>2026-04-04T14:11:11.011Z</time></trkpt><trkpt lat="43.565385" lon="10.6023317"><ele>90.0</ele><time>2026-04-04T14:11:12.012Z</time></trkpt><trkpt lat="43.5653883" lon="10.602525"><ele>88.0</ele><time>2026-04-04T14:11:13.012Z</time></trkpt><trkpt lat="43.565375" lon="10.6027033"><ele>86.0</ele><time>2026-04-04T14:11:14.012Z</time></trkpt><trkpt lat="43.565335" lon="10.6028683"><ele>90.25</ele><time>2026-04-04T14:11:15.012Z</time></trkpt><trkpt lat="43.5652667" lon="10.6030183"><ele>94.5</ele><time>2026-04-04T14:11:16.01Z</time></trkpt><trkpt lat="43.5651633" lon="10.6031483"><ele>98.75</ele><time>2026-04-04T14:11:17.011Z</time></trkpt><trkpt lat="43.565045" lon="10.6032733"><ele>103.0</ele><time>2026-04-04T14:11:18.011Z</time></trkpt><trkpt lat="43.5649017" lon="10.603395"><ele>103.0</ele><time>2026-04-04T14:11:19.011Z</time></trkpt><trkpt lat="43.5647567" lon="10.603525"><ele>103.0</ele><time>2026-04-04T14:11:20.011Z</time></trkpt><trkpt lat="43.5646233" lon="10.6036783"><ele>103.0</ele><time>2026-04-04T14:11:21.01Z</time></trkpt><trkpt lat="43.564505" lon="10.6038533"><ele>109.66666666666667</ele><time>2026-04-04T14:11:22.011Z</time></trkpt><trkpt lat="43.5644167" lon="10.60404"><ele>116.33333333333334</ele><time>2026-04-04T14:11:23.011Z</time></trkpt><trkpt lat="43.5643533" lon="10.6042283"><ele>123.0</ele><time>2026-04-04T14:11:24.011Z</time></trkpt><trkpt lat="43.564325" lon="10.6044267"><ele>121.5</ele><time>2026-04-04T14:11:25.011Z</time></trkpt><trkpt lat="43.5643233" lon="10.6046267"><ele>120.0</ele><time>2026-04-04T14:11:26.011Z</time></trkpt><trkpt lat="43.5643433" lon="10.604825"><ele>118.5</ele><time>2026-04-04T14:11:27.011Z</time></trkpt><trkpt lat="43.5643733" lon="10.6050233"><ele>117.0</ele><time>2026-04-04T14:11:28.01Z</time></trkpt><trkpt lat="43.5644283" lon="10.6052217"><ele>114.33333333333334</ele><time>2026-04-04T14:11:29.011Z</time></trkpt><trkpt lat="43.56451" lon="10.60541"><ele>111.66666666666667</ele><time>2026-04-04T14:11:30.011Z</time></trkpt><trkpt lat="43.5646017" lon="10.6055817"><ele>109.0</ele><time>2026-04-04T14:11:31.012Z</time></trkpt><trkpt lat="43.5646817" lon="10.60574"><ele>106.5</ele><time>2026-04-04T14:11:32.011Z</time></trkpt><trkpt lat="43.5647383" lon="10.6059017"><ele>104.0</ele><time>2026-04-04T14:11:33.011Z</time></trkpt><trkpt lat="43.5647733" lon="10.6060717"><ele>101.5</ele><time>2026-04-04T14:11:34.011Z</time></trkpt><trkpt lat="43.5647917" lon="10.6062583"><ele>99.0</ele><time>2026-04-04T14:11:35.011Z</time></trkpt><trkpt lat="43.5648017" lon="10.6064517"><ele>99.0</ele><time>2026-04-04T14:11:36.011Z</time></trkpt><trkpt lat="43.5648083" lon="10.6066583"><ele>99.0</ele><time>2026-04-04T14:11:37.012Z</time></trkpt><trkpt lat="43.5648367" lon="10.606875"><ele>99.0</ele><time>2026-04-04T14:11:38.011Z</time></trkpt><trkpt lat="43.5648783" lon="10.6070967"><ele>98.66666666666666</ele><time>2026-04-04T14:11:39.011Z</time></trkpt><trkpt lat="43.564905" lon="10.6073183"><ele>98.33333333333333</ele><time>2026-04-04T14:11:40.011Z</time></trkpt><trkpt lat="43.56493" lon="10.6075333"><ele>98.0</ele><time>2026-04-04T14:11:41.011Z</time></trkpt><trkpt lat="43.564955" lon="10.6077367"><ele>95.5</ele><time>2026-04-04T14:11:42.011Z</time></trkpt><trkpt lat="43.5649867" lon="10.6079317"><ele>93.0</ele><time>2026-04-04T14:11:43.011Z</time></trkpt><trkpt lat="43.56502" lon="10.608115"><ele>90.5</ele><time>2026-04-04T14:11:44.011Z</time></trkpt><trkpt lat="43.5650683" lon="10.608285"><ele>88.0</ele><time>2026-04-04T14:11:45.012Z</time></trkpt><trkpt lat="43.5651433" lon="10.6084467"><ele>88.0</ele><time>2026-04-04T14:11:46.011Z</time></trkpt><trkpt lat="43.5652233" lon="10.608575"><ele>88.0</ele><time>2026-04-04T14:11:47.011Z</time></trkpt><trkpt lat="43.5653117" lon="10.6086783"><ele>88.0</ele><time>2026-04-04T14:11:48.011Z</time></trkpt><trkpt lat="43.565395" lon="10.60874"><ele>88.0</ele><time>2026-04-04T14:11:49.013Z</time></trkpt><trkpt lat="43.565485" lon="10.6087833"><ele>88.0</ele><time>2026-04-04T14:11:50.011Z</time></trkpt><trkpt lat="43.5656" lon="10.608805"><ele>87.0</ele><time>2026-04-04T14:11:51.012Z</time></trkpt><trkpt lat="43.5657217" lon="10.608785"><ele>86.0</ele><time>2026-04-04T14:11:52.011Z</time></trkpt><trkpt lat="43.5658517" lon="10.60875"><ele>85.0</ele><time>2026-04-04T14:11:53.011Z</time></trkpt><trkpt lat="43.5659933" lon="10.608705"><ele>84.0</ele><time>2026-04-04T14:11:54.011Z</time></trkpt><trkpt lat="43.5661267" lon="10.6086833"><ele>83.0</ele><time>2026-04-04T14:11:55.011Z</time></trkpt><trkpt lat="43.56627" lon="10.6086867"><ele>82.0</ele><time>2026-04-04T14:11:56.011Z</time></trkpt><trkpt lat="43.5664033" lon="10.6086967"><ele>81.0</ele><time>2026-04-04T14:11:57.011Z</time></trkpt><trkpt lat="43.5665333" lon="10.6087117"><ele>80.0</ele><time>2026-04-04T14:11:58.011Z</time></trkpt><trkpt lat="43.5666633" lon="10.6087067"><ele>80.0</ele><time>2026-04-04T14:11:59.011Z</time></trkpt><trkpt lat="43.566805" lon="10.6086867"><ele>80.0</ele><time>2026-04-04T14:12:00.011Z</time></trkpt><trkpt lat="43.5669383" lon="10.6086683"><ele>80.0</ele><time>2026-04-04T14:12:01.011Z</time></trkpt><trkpt lat="43.56707" lon="10.608675"><ele>80.0</ele><time>2026-04-04T14:12:02.011Z</time></trkpt><trkpt lat="43.5671983" lon="10.6087283"><ele>80.33333333333334</ele><time>2026-04-04T14:12:03.012Z</time></trkpt><trkpt lat="43.56732" lon="10.6088333"><ele>80.66666666666667</ele><time>2026-04-04T14:12:04.013Z</time></trkpt><trkpt lat="43.567435" lon="10.6089717"><ele>81.0</ele><time>2026-04-04T14:12:05.012Z</time></trkpt><trkpt lat="43.567555" lon="10.60914"><ele>81.0</ele><time>2026-04-04T14:12:06.011Z</time></trkpt><trkpt lat="43.5676683" lon="10.6093217"><ele>81.0</ele><time>2026-04-04T14:12:07.01Z</time></trkpt><trkpt lat="43.567775" lon="10.6095083"><ele>81.0</ele><time>2026-04-04T14:12:08.011Z</time></trkpt><trkpt lat="43.567885" lon="10.6096983"><ele>81.5</ele><time>2026-04-04T14:12:09.011Z</time></trkpt><trkpt lat="43.5679833" lon="10.609875"><ele>82.0</ele><time>2026-04-04T14:12:10.011Z</time></trkpt><trkpt lat="43.5680683" lon="10.61004"><ele>82.5</ele><time>2026-04-04T14:12:11.011Z</time></trkpt><trkpt lat="43.5681283" lon="10.6101967"><ele>83.0</ele><time>2026-04-04T14:12:12.011Z</time></trkpt><trkpt lat="43.56816" lon="10.610355"><ele>85.75</ele><time>2026-04-04T14:12:13.011Z</time></trkpt><trkpt lat="43.5681717" lon="10.6105133"><ele>88.5</ele><time>2026-04-04T14:12:14.011Z</time></trkpt><trkpt lat="43.5681717" lon="10.61067"><ele>91.25</ele><time>2026-04-04T14:12:15.012Z</time></trkpt><trkpt lat="43.56817" lon="10.6108317"><ele>94.0</ele><time>2026-04-04T14:12:16.011Z</time></trkpt><trkpt lat="43.5681917" lon="10.6109917"><ele>94.0</ele><time>2026-04-04T14:12:17.012Z</time></trkpt><trkpt lat="43.56823" lon="10.6111433"><ele>94.0</ele><time>2026-04-04T14:12:18.011Z</time></trkpt><trkpt lat="43.5682917" lon="10.6112883"><ele>94.0</ele><time>2026-04-04T14:12:19.01Z</time></trkpt><trkpt lat="43.5683617" lon="10.6114317"><ele>94.0</ele><time>2026-04-04T14:12:20.011Z</time></trkpt><trkpt lat="43.5684267" lon="10.6115783"><ele>94.0</ele><time>2026-04-04T14:12:21.011Z</time></trkpt><trkpt lat="43.56849" lon="10.611725"><ele>94.0</ele><time>2026-04-04T14:12:22.012Z</time></trkpt><trkpt lat="43.56857" lon="10.6118633"><ele>94.0</ele><time>2026-04-04T14:12:23.011Z</time></trkpt><trkpt lat="43.5686633" lon="10.6119883"><ele>94.0</ele><time>2026-04-04T14:12:24.014Z</time></trkpt><trkpt lat="43.5687717" lon="10.6121083"><ele>94.0</ele><time>2026-04-04T14:12:25.011Z</time></trkpt><trkpt lat="43.5688883" lon="10.6122217"><ele>94.0</ele><time>2026-04-04T14:12:26.012Z</time></trkpt><trkpt lat="43.5690067" lon="10.612345"><ele>94.0</ele><time>2026-04-04T14:12:27.011Z</time></trkpt><trkpt lat="43.5691283" lon="10.6124783"><ele>94.0</ele><time>2026-04-04T14:12:28.011Z</time></trkpt><trkpt lat="43.56925" lon="10.612605"><ele>94.0</ele><time>2026-04-04T14:12:29.011Z</time></trkpt><trkpt lat="43.56936" lon="10.6127217"><ele>94.0</ele><time>2026-04-04T14:12:30.012Z</time></trkpt><trkpt lat="43.569455" lon="10.612815"><ele>94.0</ele><time>2026-04-04T14:12:31.014Z</time></trkpt><trkpt lat="43.5695433" lon="10.61288"><ele>94.0</ele><time>2026-04-04T14:12:32.014Z</time></trkpt><trkpt lat="43.5696267" lon="10.6129117"><ele>94.0</ele><time>2026-04-04T14:12:33.014Z</time></trkpt><trkpt lat="43.569695" lon="10.6128817"><ele>95.0</ele><time>2026-04-04T14:12:34.012Z</time></trkpt><trkpt lat="43.569745" lon="10.6127833"><ele>96.0</ele><time>2026-04-04T14:12:35.012Z</time></trkpt><trkpt lat="43.5698033" lon="10.61267"><ele>97.0</ele><time>2026-04-04T14:12:36.012Z</time></trkpt><trkpt lat="43.5698583" lon="10.612535"><ele>98.0</ele><time>2026-04-04T14:12:37.012Z</time></trkpt><trkpt lat="43.56993" lon="10.6123883"><ele>99.0</ele><time>2026-04-04T14:12:38.011Z</time></trkpt><trkpt lat="43.569995" lon="10.6122567"><ele>99.0</ele><time>2026-04-04T14:12:39.012Z</time></trkpt><trkpt lat="43.5700683" lon="10.6121483"><ele>99.0</ele><time>2026-04-04T14:12:40.012Z</time></trkpt><trkpt lat="43.57015" lon="10.6120767"><ele>99.0</ele><time>2026-04-04T14:12:41.012Z</time></trkpt><trkpt lat="43.5702367" lon="10.612045"><ele>99.0</ele><time>2026-04-04T14:12:42.011Z</time></trkpt><trkpt lat="43.5703433" lon="10.61205"><ele>99.0</ele><time>2026-04-04T14:12:43.012Z</time></trkpt><trkpt lat="43.570465" lon="10.6120683"><ele>101.0</ele><time>2026-04-04T14:12:44.011Z</time></trkpt><trkpt lat="43.5705833" lon="10.61208"><ele>103.0</ele><time>2026-04-04T14:12:45.013Z</time></trkpt><trkpt lat="43.57069" lon="10.6120733"><ele>105.0</ele><time>2026-04-04T14:12:46.011Z</time></trkpt><trkpt lat="43.5707917" lon="10.6120667"><ele>107.0</ele><time>2026-04-04T14:12:47.012Z</time></trkpt><trkpt lat="43.570885" lon="10.61208"><ele>109.0</ele><time>2026-04-04T14:12:48.01Z</time></trkpt><trkpt lat="43.57098" lon="10.6121083"><ele>109.0</ele><time>2026-04-04T14:12:49.011Z</time></trkpt><trkpt lat="43.5710717" lon="10.6121683"><ele>109.0</ele><time>2026-04-04T14:12:50.01Z</time></trkpt><trkpt lat="43.57116" lon="10.6122417"><ele>109.0</ele><time>2026-04-04T14:12:51.011Z</time></trkpt><trkpt lat="43.5712317" lon="10.6123483"><ele>109.0</ele><time>2026-04-04T14:12:52.012Z</time></trkpt><trkpt lat="43.5712967" lon="10.612465"><ele>109.0</ele><time>2026-04-04T14:12:53.011Z</time></trkpt><trkpt lat="43.5713583" lon="10.612565"><ele>107.80000000000001</ele><time>2026-04-04T14:12:54.011Z</time></trkpt><trkpt lat="43.57143" lon="10.6126533"><ele>106.60000000000001</ele><time>2026-04-04T14:12:55.011Z</time></trkpt><trkpt lat="43.57151" lon="10.6127217"><ele>105.4</ele><time>2026-04-04T14:12:56.012Z</time></trkpt><trkpt lat="43.5716067" lon="10.6127717"><ele>104.2</ele><time>2026-04-04T14:12:57.011Z</time></trkpt><trkpt lat="43.5717083" lon="10.61281"><ele>103.0</ele><time>2026-04-04T14:12:58.012Z</time></trkpt><trkpt lat="43.57181" lon="10.6128333"><ele>102.4</ele><time>2026-04-04T14:12:59.011Z</time></trkpt><trkpt lat="43.5719067" lon="10.6128483"><ele>101.80000000000001</ele><time>2026-04-04T14:13:00.012Z</time></trkpt><trkpt lat="43.5720117" lon="10.612845"><ele>101.2</ele><time>2026-04-04T14:13:01.011Z</time></trkpt><trkpt lat="43.5721233" lon="10.612835"><ele>100.6</ele><time>2026-04-04T14:13:02.011Z</time></trkpt><trkpt lat="43.5722417" lon="10.6128233"><ele>100.0</ele><time>2026-04-04T14:13:03.011Z</time></trkpt><trkpt lat="43.57235" lon="10.6128067"><ele>99.6</ele><time>2026-04-04T14:13:04.011Z</time></trkpt><trkpt lat="43.5724567" lon="10.61279"><ele>99.2</ele><time>2026-04-04T14:13:05.011Z</time></trkpt><trkpt lat="43.5725583" lon="10.6127967"><ele>98.80000000000001</ele><time>2026-04-04T14:13:06.011Z</time></trkpt><trkpt lat="43.5726417" lon="10.6128183"><ele>98.4</ele><time>2026-04-04T14:13:07.011Z</time></trkpt><trkpt lat="43.5727267" lon="10.6128533"><ele>98.0</ele><time>2026-04-04T14:13:08.011Z</time></trkpt><trkpt lat="43.5727867" lon="10.612895"><ele>99.25</ele><time>2026-04-04T14:13:09.011Z</time></trkpt><trkpt lat="43.572875" lon="10.6129817"><ele>100.5</ele><time>2026-04-04T14:13:10.011Z</time></trkpt><trkpt lat="43.57296" lon="10.6130917"><ele>101.75</ele><time>2026-04-04T14:13:11.012Z</time></trkpt><trkpt lat="43.5730417" lon="10.6132233"><ele>103.0</ele><time>2026-04-04T14:13:12.011Z</time></trkpt><trkpt lat="43.573115" lon="10.61335"><ele>103.0</ele><time>2026-04-04T14:13:13.011Z</time></trkpt><trkpt lat="43.5731633" lon="10.61351"><ele>103.0</ele><time>2026-04-04T14:13:14.011Z</time></trkpt><trkpt lat="43.57321" lon="10.6136633"><ele>103.0</ele><time>2026-04-04T14:13:15.012Z</time></trkpt><trkpt lat="43.5732483" lon="10.6137967"><ele>103.0</ele><time>2026-04-04T14:13:16.011Z</time></trkpt><trkpt lat="43.5732833" lon="10.6139383"><ele>100.66666666666667</ele><time>2026-04-04T14:13:17.011Z</time></trkpt><trkpt lat="43.5733067" lon="10.6140667"><ele>98.33333333333334</ele><time>2026-04-04T14:13:18.011Z</time></trkpt><trkpt lat="43.57332" lon="10.614185"><ele>96.0</ele><time>2026-04-04T14:13:19.012Z</time></trkpt><trkpt lat="43.5733367" lon="10.6142883"><ele>93.66666666666667</ele><time>2026-04-04T14:13:20.011Z</time></trkpt><trkpt lat="43.5733467" lon="10.6144083"><ele>91.33333333333334</ele><time>2026-04-04T14:13:21.012Z</time></trkpt><trkpt lat="43.5733517" lon="10.6145067"><ele>89.0</ele><time>2026-04-04T14:13:22.01Z</time></trkpt><trkpt lat="43.57334" lon="10.6146133"><ele>88.83333333333334</ele><time>2026-04-04T14:13:23.013Z</time></trkpt><trkpt lat="43.57332" lon="10.614725"><ele>88.66666666666667</ele><time>2026-04-04T14:13:24.011Z</time></trkpt><trkpt lat="43.5733017" lon="10.6148267"><ele>88.5</ele><time>2026-04-04T14:13:25.011Z</time></trkpt><trkpt lat="43.5732867" lon="10.6149133"><ele>88.33333333333333</ele><time>2026-04-04T14:13:26.011Z</time></trkpt><trkpt lat="43.5732617" lon="10.61502"><ele>88.16666666666666</ele><time>2026-04-04T14:13:28.011Z</time></trkpt><trkpt lat="43.5732283" lon="10.6151033"><ele>88.0</ele><time>2026-04-04T14:13:43.011Z</time></trkpt><trkpt lat="43.5732133" lon="10.6152167"><ele>88.60000000000001</ele><time>2026-04-04T14:13:54.011Z</time></trkpt><trkpt lat="43.5731833" lon="10.6153333"><ele>89.2</ele><time>2026-04-04T14:13:56.011Z</time></trkpt><trkpt lat="43.5731467" lon="10.6154467"><ele>89.8</ele><time>2026-04-04T14:13:57.011Z</time></trkpt><trkpt lat="43.57309" lon="10.6155567"><ele>90.4</ele><time>2026-04-04T14:13:58.011Z</time></trkpt><trkpt lat="43.5730383" lon="10.615685"><ele>91.0</ele><time>2026-04-04T14:13:59.011Z</time></trkpt><trkpt lat="43.572995" lon="10.6158283"><ele>91.0</ele><time>2026-04-04T14:14:00.011Z</time></trkpt><trkpt lat="43.57295" lon="10.6159717"><ele>91.0</ele><time>2026-04-04T14:14:01.013Z</time></trkpt><trkpt lat="43.5729" lon="10.616125"><ele>91.0</ele><time>2026-04-04T14:14:02.01Z</time></trkpt><trkpt lat="43.5728567" lon="10.61627"><ele>91.0</ele><time>2026-04-04T14:14:03.013Z</time></trkpt><trkpt lat="43.5728183" lon="10.6164117"><ele>88.6</ele><time>2026-04-04T14:14:04.011Z</time></trkpt><trkpt lat="43.5727783" lon="10.6165583"><ele>86.19999999999999</ele><time>2026-04-04T14:14:05.011Z</time></trkpt><trkpt lat="43.5727383" lon="10.6166983"><ele>83.80000000000001</ele><time>2026-04-04T14:14:06.011Z</time></trkpt><trkpt lat="43.572705" lon="10.61684"><ele>81.4</ele><time>2026-04-04T14:14:07.011Z</time></trkpt><trkpt lat="43.5726633" lon="10.616985"><ele>79.0</ele><time>2026-04-04T14:14:08.012Z</time></trkpt><trkpt lat="43.5726233" lon="10.617115"><ele>79.0</ele><time>2026-04-04T14:14:09.011Z</time></trkpt><trkpt lat="43.5725767" lon="10.6172433"><ele>79.0</ele><time>2026-04-04T14:14:10.011Z</time></trkpt><trkpt lat="43.57253" lon="10.6173633"><ele>79.0</ele><time>2026-04-04T14:14:11.013Z</time></trkpt><trkpt lat="43.5724767" lon="10.6174667"><ele>79.0</ele><time>2026-04-04T14:14:12.012Z</time></trkpt><trkpt lat="43.5724217" lon="10.6175567"><ele>79.0</ele><time>2026-04-04T14:14:13.013Z</time></trkpt><trkpt lat="43.5723733" lon="10.6176583"><ele>79.0</ele><time>2026-04-04T14:14:14.013Z</time></trkpt><trkpt lat="43.572325" lon="10.6177583"><ele>79.0</ele><time>2026-04-04T14:14:15.011Z</time></trkpt><trkpt lat="43.5722933" lon="10.6178583"><ele>79.0</ele><time>2026-04-04T14:14:16.011Z</time></trkpt><trkpt lat="43.572265" lon="10.6179533"><ele>79.0</ele><time>2026-04-04T14:14:17.012Z</time></trkpt><trkpt lat="43.572245" lon="10.6180483"><ele>79.0</ele><time>2026-04-04T14:14:18.011Z</time></trkpt><trkpt lat="43.5722517" lon="10.6181517"><ele>79.0</ele><time>2026-04-04T14:14:19.011Z</time></trkpt><trkpt lat="43.572285" lon="10.61827"><ele>79.5</ele><time>2026-04-04T14:14:20.012Z</time></trkpt><trkpt lat="43.572295" lon="10.6184033"><ele>80.0</ele><time>2026-04-04T14:14:21.011Z</time></trkpt><trkpt lat="43.572315" lon="10.618545"><ele>80.5</ele><time>2026-04-04T14:14:22.011Z</time></trkpt><trkpt lat="43.5723367" lon="10.618695"><ele>81.0</ele><time>2026-04-04T14:14:23.011Z</time></trkpt><trkpt lat="43.5724" lon="10.6188683"><ele>81.0</ele><time>2026-04-04T14:14:24.011Z</time></trkpt><trkpt lat="43.5724983" lon="10.6190517"><ele>81.0</ele><time>2026-04-04T14:14:25.01Z</time></trkpt><trkpt lat="43.572595" lon="10.61924"><ele>81.0</ele><time>2026-04-04T14:14:26.012Z</time></trkpt><trkpt lat="43.5726917" lon="10.6194417"><ele>82.0</ele><time>2026-04-04T14:14:27.012Z</time></trkpt><trkpt lat="43.57279" lon="10.6196417"><ele>83.0</ele><time>2026-04-04T14:14:28.011Z</time></trkpt><trkpt lat="43.5728817" lon="10.6198383"><ele>84.0</ele><time>2026-04-04T14:14:29.011Z</time></trkpt><trkpt lat="43.5729683" lon="10.6200233"><ele>79.0</ele><time>2026-04-04T14:14:30.011Z</time></trkpt><trkpt lat="43.57306" lon="10.6202033"><ele>74.0</ele><time>2026-04-04T14:14:31.011Z</time></trkpt><trkpt lat="43.5731583" lon="10.6203833"><ele>69.0</ele><time>2026-04-04T14:14:32.012Z</time></trkpt><trkpt lat="43.5732417" lon="10.6205767"><ele>69.0</ele><time>2026-04-04T14:14:33.011Z</time></trkpt><trkpt lat="43.5733317" lon="10.6207767"><ele>69.0</ele><time>2026-04-04T14:14:34.012Z</time></trkpt><trkpt lat="43.5734083" lon="10.6209883"><ele>69.0</ele><time>2026-04-04T14:14:35.013Z</time></trkpt><trkpt lat="43.573475" lon="10.62121"><ele>68.66666666666667</ele><time>2026-04-04T14:14:36.011Z</time></trkpt><trkpt lat="43.5735217" lon="10.6214367"><ele>68.33333333333334</ele><time>2026-04-04T14:14:37.011Z</time></trkpt><trkpt lat="43.5735517" lon="10.6216717"><ele>68.0</ele><time>2026-04-04T14:14:38.011Z</time></trkpt><trkpt lat="43.5735683" lon="10.6219083"><ele>67.66666666666667</ele><time>2026-04-04T14:14:39.012Z</time></trkpt><trkpt lat="43.5735833" lon="10.6221567"><ele>67.33333333333333</ele><time>2026-04-04T14:14:40.011Z</time></trkpt><trkpt lat="43.5735817" lon="10.6224083"><ele>67.0</ele><time>2026-04-04T14:14:41.011Z</time></trkpt><trkpt lat="43.5735883" lon="10.6226617"><ele>66.33333333333333</ele><time>2026-04-04T14:14:42.011Z</time></trkpt><trkpt lat="43.573585" lon="10.6229183"><ele>65.66666666666667</ele><time>2026-04-04T14:14:43.011Z</time></trkpt><trkpt lat="43.5735883" lon="10.6231617"><ele>65.0</ele><time>2026-04-04T14:14:44.012Z</time></trkpt><trkpt lat="43.5735833" lon="10.6233917"><ele>65.0</ele><time>2026-04-04T14:14:45.014Z</time></trkpt><trkpt lat="43.573585" lon="10.6236117"><ele>65.0</ele><time>2026-04-04T14:14:46.013Z</time></trkpt><trkpt lat="43.5736017" lon="10.6238283"><ele>65.0</ele><time>2026-04-04T14:14:47.013Z</time></trkpt><trkpt lat="43.573635" lon="10.6240467"><ele>59.0</ele><time>2026-04-04T14:14:48.012Z</time></trkpt><trkpt lat="43.5736967" lon="10.6242583"><ele>53.0</ele><time>2026-04-04T14:14:49.012Z</time></trkpt><trkpt lat="43.5737883" lon="10.6244517"><ele>47.0</ele><time>2026-04-04T14:14:50.012Z</time></trkpt><trkpt lat="43.573895" lon="10.6246233"><ele>47.0</ele><time>2026-04-04T14:14:51.012Z</time></trkpt><trkpt lat="43.5739967" lon="10.6247933"><ele>47.0</ele><time>2026-04-04T14:14:52.012Z</time></trkpt><trkpt lat="43.5740717" lon="10.6249817"><ele>47.0</ele><time>2026-04-04T14:14:53.012Z</time></trkpt><trkpt lat="43.5741233" lon="10.625195"><ele>45.666666666666664</ele><time>2026-04-04T14:14:54.012Z</time></trkpt><trkpt lat="43.57417" lon="10.6254267"><ele>44.333333333333336</ele><time>2026-04-04T14:14:55.011Z</time></trkpt><trkpt lat="43.574215" lon="10.6256733"><ele>43.0</ele><time>2026-04-04T14:14:56.012Z</time></trkpt><trkpt lat="43.5742533" lon="10.62593"><ele>41.66666666666667</ele><time>2026-04-04T14:14:57.011Z</time></trkpt><trkpt lat="43.5742817" lon="10.626195"><ele>40.333333333333336</ele><time>2026-04-04T14:14:58.011Z</time></trkpt><trkpt lat="43.5743033" lon="10.62646"><ele>39.0</ele><time>2026-04-04T14:14:59.011Z</time></trkpt><trkpt lat="43.5743233" lon="10.6267133"><ele>39.0</ele><time>2026-04-04T14:15:00.011Z</time></trkpt><trkpt lat="43.5743433" lon="10.6269483"><ele>39.0</ele><time>2026-04-04T14:15:01.012Z</time></trkpt><trkpt lat="43.5743617" lon="10.6271617"><ele>39.0</ele><time>2026-04-04T14:15:02.011Z</time></trkpt><trkpt lat="43.57438" lon="10.6273433"><ele>38.666666666666664</ele><time>2026-04-04T14:15:03.013Z</time></trkpt><trkpt lat="43.574395" lon="10.6274967"><ele>38.333333333333336</ele><time>2026-04-04T14:15:04.012Z</time></trkpt><trkpt lat="43.574405" lon="10.6276267"><ele>38.0</ele><time>2026-04-04T14:15:05.011Z</time></trkpt><trkpt lat="43.5744133" lon="10.62773"><ele>37.66666666666667</ele><time>2026-04-04T14:15:06.011Z</time></trkpt><trkpt lat="43.5744133" lon="10.6278517"><ele>37.333333333333336</ele><time>2026-04-04T14:15:08.011Z</time></trkpt><trkpt lat="43.5743817" lon="10.6279367"><ele>37.0</ele><time>2026-04-04T14:15:11.011Z</time></trkpt><trkpt lat="43.5743067" lon="10.62799"><ele>36.57142857142857</ele><time>2026-04-04T14:15:13.013Z</time></trkpt><trkpt lat="43.5742433" lon="10.62799"><ele>36.14285714285714</ele><time>2026-04-04T14:15:14.013Z</time></trkpt><trkpt lat="43.5741667" lon="10.6279767"><ele>35.71428571428571</ele><time>2026-04-04T14:15:15.012Z</time></trkpt><trkpt lat="43.5740883" lon="10.6279633"><ele>35.285714285714285</ele><time>2026-04-04T14:15:16.011Z</time></trkpt><trkpt lat="43.57401" lon="10.6279583"><ele>34.857142857142854</ele><time>2026-04-04T14:15:17.012Z</time></trkpt><trkpt lat="43.5739333" lon="10.6279733"><ele>34.42857142857142</ele><time>2026-04-04T14:15:18.011Z</time></trkpt><trkpt lat="43.573865" lon="10.6280067"><ele>34.0</ele><time>2026-04-04T14:15:19.011Z</time></trkpt><trkpt lat="43.573825" lon="10.6282117"><ele>34.0</ele><time>2026-04-04T14:15:21.012Z</time></trkpt><trkpt lat="43.5738167" lon="10.6283867"><ele>34.0</ele><time>2026-04-04T14:15:22.012Z</time></trkpt><trkpt lat="43.573795" lon="10.628595"><ele>34.0</ele><time>2026-04-04T14:15:23.011Z</time></trkpt><trkpt lat="43.5737617" lon="10.628815"><ele>34.0</ele><time>2026-04-04T14:15:24.013Z</time></trkpt><trkpt lat="43.5737267" lon="10.6290467"><ele>34.333333333333336</ele><time>2026-04-04T14:15:25.011Z</time></trkpt><trkpt lat="43.5736883" lon="10.629285"><ele>34.666666666666664</ele><time>2026-04-04T14:15:26.012Z</time></trkpt><trkpt lat="43.5736517" lon="10.6295267"><ele>35.0</ele><time>2026-04-04T14:15:27.012Z</time></trkpt><trkpt lat="43.5736117" lon="10.6297767"><ele>34.666666666666664</ele><time>2026-04-04T14:15:28.013Z</time></trkpt><trkpt lat="43.57357" lon="10.63003"><ele>34.333333333333336</ele><time>2026-04-04T14:15:29.012Z</time></trkpt><trkpt lat="43.5735233" lon="10.6302883"><ele>34.0</ele><time>2026-04-04T14:15:30.011Z</time></trkpt><trkpt lat="43.573485" lon="10.6305567"><ele>34.0</ele><time>2026-04-04T14:15:31.012Z</time></trkpt><trkpt lat="43.573445" lon="10.6308333"><ele>34.0</ele><time>2026-04-04T14:15:32.011Z</time></trkpt><trkpt lat="43.5734017" lon="10.63111"><ele>34.0</ele><time>2026-04-04T14:15:33.013Z</time></trkpt><trkpt lat="43.57336" lon="10.631385"><ele>34.0</ele><time>2026-04-04T14:15:34.013Z</time></trkpt><trkpt lat="43.5733183" lon="10.6316583"><ele>34.0</ele><time>2026-04-04T14:15:35.011Z</time></trkpt><trkpt lat="43.5732783" lon="10.6319183"><ele>34.0</ele><time>2026-04-04T14:15:36.012Z</time></trkpt><trkpt lat="43.5732367" lon="10.63216"><ele>33.66666666666667</ele><time>2026-04-04T14:15:37.01Z</time></trkpt><trkpt lat="43.5731983" lon="10.632385"><ele>33.333333333333336</ele><time>2026-04-04T14:15:38.013Z</time></trkpt><trkpt lat="43.5731667" lon="10.6325933"><ele>33.0</ele><time>2026-04-04T14:15:39.012Z</time></trkpt><trkpt lat="43.5731383" lon="10.6327867"><ele>33.25</ele><time>2026-04-04T14:15:40.012Z</time></trkpt><trkpt lat="43.5731067" lon="10.6329667"><ele>33.5</ele><time>2026-04-04T14:15:41.012Z</time></trkpt><trkpt lat="43.57308" lon="10.6331433"><ele>33.75</ele><time>2026-04-04T14:15:42.012Z</time></trkpt><trkpt lat="43.57305" lon="10.633325"><ele>34.0</ele><time>2026-04-04T14:15:43.012Z</time></trkpt><trkpt lat="43.57302" lon="10.633515"><ele>34.0</ele><time>2026-04-04T14:15:44.012Z</time></trkpt><trkpt lat="43.5729867" lon="10.63371"><ele>34.0</ele><time>2026-04-04T14:15:45.011Z</time></trkpt><trkpt lat="43.5729567" lon="10.6339083"><ele>34.0</ele><time>2026-04-04T14:15:46.013Z</time></trkpt><trkpt lat="43.57293" lon="10.63411"><ele>34.0</ele><time>2026-04-04T14:15:47.012Z</time></trkpt><trkpt lat="43.5728933" lon="10.6343117"><ele>34.25</ele><time>2026-04-04T14:15:48.013Z</time></trkpt><trkpt lat="43.5728583" lon="10.6345117"><ele>34.5</ele><time>2026-04-04T14:15:49.011Z</time></trkpt><trkpt lat="43.5728233" lon="10.6347117"><ele>34.75</ele><time>2026-04-04T14:15:50.012Z</time></trkpt><trkpt lat="43.5727917" lon="10.6349067"><ele>35.0</ele><time>2026-04-04T14:15:51.011Z</time></trkpt><trkpt lat="43.5727617" lon="10.6350967"><ele>35.25</ele><time>2026-04-04T14:15:52.011Z</time></trkpt><trkpt lat="43.57273" lon="10.6352833"><ele>35.5</ele><time>2026-04-04T14:15:53.012Z</time></trkpt><trkpt lat="43.5727" lon="10.635465"><ele>35.75</ele><time>2026-04-04T14:15:54.012Z</time></trkpt><trkpt lat="43.5726717" lon="10.6356517"><ele>36.0</ele><time>2026-04-04T14:15:55.014Z</time></trkpt><trkpt lat="43.5726483" lon="10.63585"><ele>36.333333333333336</ele><time>2026-04-04T14:15:56.012Z</time></trkpt><trkpt lat="43.572655" lon="10.636065"><ele>36.66666666666667</ele><time>2026-04-04T14:15:57.012Z</time></trkpt><trkpt lat="43.5726867" lon="10.6362967"><ele>37.0</ele><time>2026-04-04T14:15:58.011Z</time></trkpt><trkpt lat="43.5727483" lon="10.636525"><ele>37.333333333333336</ele><time>2026-04-04T14:15:59.011Z</time></trkpt><trkpt lat="43.572835" lon="10.636735"><ele>37.666666666666664</ele><time>2026-04-04T14:16:00.013Z</time></trkpt><trkpt lat="43.5729383" lon="10.6369267"><ele>38.0</ele><time>2026-04-04T14:16:01.012Z</time></trkpt><trkpt lat="43.5730633" lon="10.6370917"><ele>38.33333333333333</ele><time>2026-04-04T14:16:02.011Z</time></trkpt><trkpt lat="43.573215" lon="10.6372267"><ele>38.666666666666664</ele><time>2026-04-04T14:16:03.011Z</time></trkpt><trkpt lat="43.5733783" lon="10.637325"><ele>39.0</ele><time>2026-04-04T14:16:04.011Z</time></trkpt><trkpt lat="43.57355" lon="10.6373817"><ele>38.666666666666664</ele><time>2026-04-04T14:16:05.011Z</time></trkpt><trkpt lat="43.5737267" lon="10.6374183"><ele>38.33333333333333</ele><time>2026-04-04T14:16:06.012Z</time></trkpt><trkpt lat="43.5739083" lon="10.637445"><ele>38.0</ele><time>2026-04-04T14:16:07.011Z</time></trkpt><trkpt lat="43.5740967" lon="10.637465"><ele>38.0</ele><time>2026-04-04T14:16:08.011Z</time></trkpt><trkpt lat="43.57429" lon="10.6374817"><ele>38.0</ele><time>2026-04-04T14:16:09.011Z</time></trkpt><trkpt lat="43.574485" lon="10.6375033"><ele>38.0</ele><time>2026-04-04T14:16:10.011Z</time></trkpt><trkpt lat="43.5746733" lon="10.6375267"><ele>37.33333333333333</ele><time>2026-04-04T14:16:11.011Z</time></trkpt><trkpt lat="43.5748533" lon="10.6375533"><ele>36.666666666666664</ele><time>2026-04-04T14:16:12.011Z</time></trkpt><trkpt lat="43.575025" lon="10.6375767"><ele>36.0</ele><time>2026-04-04T14:16:13.011Z</time></trkpt><trkpt lat="43.5751933" lon="10.6376033"><ele>36.0</ele><time>2026-04-04T14:16:14.012Z</time></trkpt><trkpt lat="43.5753533" lon="10.6376483"><ele>36.0</ele><time>2026-04-04T14:16:15.012Z</time></trkpt><trkpt lat="43.5755067" lon="10.6377217"><ele>36.0</ele><time>2026-04-04T14:16:16.012Z</time></trkpt><trkpt lat="43.57565" lon="10.6378317"><ele>37.0</ele><time>2026-04-04T14:16:17.01Z</time></trkpt><trkpt lat="43.5757783" lon="10.6379617"><ele>38.0</ele><time>2026-04-04T14:16:18.012Z</time></trkpt><trkpt lat="43.5758833" lon="10.6381133"><ele>39.0</ele><time>2026-04-04T14:16:19.011Z</time></trkpt><trkpt lat="43.5759733" lon="10.6382833"><ele>39.0</ele><time>2026-04-04T14:16:20.012Z</time></trkpt><trkpt lat="43.5760433" lon="10.6384733"><ele>39.0</ele><time>2026-04-04T14:16:21.013Z</time></trkpt><trkpt lat="43.5760917" lon="10.6386833"><ele>39.0</ele><time>2026-04-04T14:16:22.01Z</time></trkpt><trkpt lat="43.5761317" lon="10.6389267"><ele>38.666666666666664</ele><time>2026-04-04T14:16:23.013Z</time></trkpt><trkpt lat="43.5761633" lon="10.6392133"><ele>38.33333333333333</ele><time>2026-04-04T14:16:24.012Z</time></trkpt><trkpt lat="43.576185" lon="10.6395317"><ele>38.0</ele><time>2026-04-04T14:16:25.012Z</time></trkpt><trkpt lat="43.5761967" lon="10.63985"><ele>37.0</ele><time>2026-04-04T14:16:26.012Z</time></trkpt><trkpt lat="43.5762067" lon="10.6401517"><ele>36.0</ele><time>2026-04-04T14:16:27.013Z</time></trkpt><trkpt lat="43.57622" lon="10.6404467"><ele>35.0</ele><time>2026-04-04T14:16:28.012Z</time></trkpt><trkpt lat="43.5762533" lon="10.6407333"><ele>35.0</ele><time>2026-04-04T14:16:29.014Z</time></trkpt><trkpt lat="43.576315" lon="10.6410017"><ele>35.0</ele><time>2026-04-04T14:16:30.013Z</time></trkpt><trkpt lat="43.57641" lon="10.641255"><ele>35.0</ele><time>2026-04-04T14:16:31.012Z</time></trkpt><trkpt lat="43.5765367" lon="10.6414867"><ele>35.666666666666664</ele><time>2026-04-04T14:16:32.012Z</time></trkpt><trkpt lat="43.5766883" lon="10.64169"><ele>36.333333333333336</ele><time>2026-04-04T14:16:33.011Z</time></trkpt><trkpt lat="43.5768583" lon="10.6418567"><ele>37.0</ele><time>2026-04-04T14:16:34.011Z</time></trkpt><trkpt lat="43.5770517" lon="10.6419917"><ele>43.5</ele><time>2026-04-04T14:16:35.012Z</time></trkpt><trkpt lat="43.5772667" lon="10.6421017"><ele>50.0</ele><time>2026-04-04T14:16:36.012Z</time></trkpt><trkpt lat="43.577495" lon="10.642205"><ele>50.0</ele><time>2026-04-04T14:16:37.011Z</time></trkpt><trkpt lat="43.5777117" lon="10.6422967"><ele>50.0</ele><time>2026-04-04T14:16:38.013Z</time></trkpt><trkpt lat="43.57791" lon="10.642385"><ele>50.0</ele><time>2026-04-04T14:16:39.013Z</time></trkpt><trkpt lat="43.5780933" lon="10.642485"><ele>50.0</ele><time>2026-04-04T14:16:40.013Z</time></trkpt><trkpt lat="43.5782617" lon="10.642605"><ele>50.0</ele><time>2026-04-04T14:16:41.011Z</time></trkpt><trkpt lat="43.5784133" lon="10.6427583"><ele>50.0</ele><time>2026-04-04T14:16:42.011Z</time></trkpt><trkpt lat="43.5785483" lon="10.6429417"><ele>50.66666666666667</ele><time>2026-04-04T14:16:43.013Z</time></trkpt><trkpt lat="43.57867" lon="10.64316"><ele>51.33333333333333</ele><time>2026-04-04T14:16:44.011Z</time></trkpt><trkpt lat="43.5787683" lon="10.643405"><ele>52.0</ele><time>2026-04-04T14:16:45.011Z</time></trkpt><trkpt lat="43.5788417" lon="10.6436767"><ele>54.0</ele><time>2026-04-04T14:16:46.012Z</time></trkpt><trkpt lat="43.578895" lon="10.6439683"><ele>56.0</ele><time>2026-04-04T14:16:47.011Z</time></trkpt><trkpt lat="43.5789283" lon="10.64426"><ele>58.0</ele><time>2026-04-04T14:16:48.013Z</time></trkpt><trkpt lat="43.5789367" lon="10.64453"><ele>59.666666666666664</ele><time>2026-04-04T14:16:49.011Z</time></trkpt><trkpt lat="43.5789117" lon="10.6447917"><ele>61.33333333333333</ele><time>2026-04-04T14:16:50.012Z</time></trkpt><trkpt lat="43.5788533" lon="10.64505"><ele>63.0</ele><time>2026-04-04T14:16:51.013Z</time></trkpt><trkpt lat="43.5787717" lon="10.6452867"><ele>65.0</ele><time>2026-04-04T14:16:52.012Z</time></trkpt><trkpt lat="43.57865" lon="10.6454933"><ele>67.0</ele><time>2026-04-04T14:16:53.012Z</time></trkpt><trkpt lat="43.5784933" lon="10.64567"><ele>69.0</ele><time>2026-04-04T14:16:54.012Z</time></trkpt><trkpt lat="43.5783117" lon="10.6458367"><ele>69.0</ele><time>2026-04-04T14:16:55.013Z</time></trkpt><trkpt lat="43.578115" lon="10.64601"><ele>69.0</ele><time>2026-04-04T14:16:56.013Z</time></trkpt><trkpt lat="43.5779167" lon="10.6461933"><ele>71.5</ele><time>2026-04-04T14:16:57.01Z</time></trkpt><trkpt lat="43.577715" lon="10.646375"><ele>74.0</ele><time>2026-04-04T14:16:58.011Z</time></trkpt><trkpt lat="43.5775167" lon="10.64655"><ele>74.0</ele><time>2026-04-04T14:16:59.01Z</time></trkpt><trkpt lat="43.57733" lon="10.646715"><ele>74.0</ele><time>2026-04-04T14:17:00.01Z</time></trkpt><trkpt lat="43.577155" lon="10.646865"><ele>74.0</ele><time>2026-04-04T14:17:01.012Z</time></trkpt><trkpt lat="43.57699" lon="10.647"><ele>75.33333333333334</ele><time>2026-04-04T14:17:02.01Z</time></trkpt><trkpt lat="43.57682" lon="10.647115"><ele>76.66666666666667</ele><time>2026-04-04T14:17:03.013Z</time></trkpt><trkpt lat="43.57664" lon="10.6472033"><ele>78.0</ele><time>2026-04-04T14:17:04.01Z</time></trkpt><trkpt lat="43.5764483" lon="10.6472633"><ele>78.0</ele><time>2026-04-04T14:17:05.012Z</time></trkpt><trkpt lat="43.5762483" lon="10.6472983"><ele>78.0</ele><time>2026-04-04T14:17:06.01Z</time></trkpt><trkpt lat="43.5760417" lon="10.6473067"><ele>78.0</ele><time>2026-04-04T14:17:07.01Z</time></trkpt><trkpt lat="43.5758433" lon="10.64731"><ele>77.66666666666667</ele><time>2026-04-04T14:17:08.013Z</time></trkpt><trkpt lat="43.57565" lon="10.6473133"><ele>77.33333333333334</ele><time>2026-04-04T14:17:09.011Z</time></trkpt><trkpt lat="43.5754633" lon="10.647315"><ele>77.0</ele><time>2026-04-04T14:17:10.011Z</time></trkpt><trkpt lat="43.575285" lon="10.6473133"><ele>77.66666666666667</ele><time>2026-04-04T14:17:11.012Z</time></trkpt><trkpt lat="43.57511" lon="10.64732"><ele>78.33333333333333</ele><time>2026-04-04T14:17:12.011Z</time></trkpt><trkpt lat="43.57493" lon="10.6473433"><ele>79.0</ele><time>2026-04-04T14:17:13.011Z</time></trkpt><trkpt lat="43.57475" lon="10.6473883"><ele>79.0</ele><time>2026-04-04T14:17:14.011Z</time></trkpt><trkpt lat="43.5745683" lon="10.6474683"><ele>79.0</ele><time>2026-04-04T14:17:15.01Z</time></trkpt><trkpt lat="43.5743967" lon="10.6475917"><ele>79.0</ele><time>2026-04-04T14:17:16.011Z</time></trkpt><trkpt lat="43.57424" lon="10.6477517"><ele>81.33333333333333</ele><time>2026-04-04T14:17:17.01Z</time></trkpt><trkpt lat="43.5740967" lon="10.6479433"><ele>83.66666666666667</ele><time>2026-04-04T14:17:18.01Z</time></trkpt><trkpt lat="43.573965" lon="10.6481567"><ele>86.0</ele><time>2026-04-04T14:17:19.011Z</time></trkpt><trkpt lat="43.5738333" lon="10.64838"><ele>86.0</ele><time>2026-04-04T14:17:20.01Z</time></trkpt><trkpt lat="43.5736983" lon="10.648605"><ele>86.0</ele><time>2026-04-04T14:17:21.012Z</time></trkpt><trkpt lat="43.57357" lon="10.648825"><ele>86.0</ele><time>2026-04-04T14:17:22.011Z</time></trkpt><trkpt lat="43.5734467" lon="10.6490467"><ele>88.0</ele><time>2026-04-04T14:17:23.011Z</time></trkpt><trkpt lat="43.5733417" lon="10.64928"><ele>90.0</ele><time>2026-04-04T14:17:24.01Z</time></trkpt><trkpt lat="43.5732617" lon="10.64953"><ele>92.0</ele><time>2026-04-04T14:17:25.011Z</time></trkpt><trkpt lat="43.5732017" lon="10.6498"><ele>92.0</ele><time>2026-04-04T14:17:26.01Z</time></trkpt><trkpt lat="43.5731667" lon="10.6500867"><ele>92.0</ele><time>2026-04-04T14:17:27.011Z</time></trkpt><trkpt lat="43.5731483" lon="10.65038"><ele>92.0</ele><time>2026-04-04T14:17:28.01Z</time></trkpt><trkpt lat="43.5731383" lon="10.6506767"><ele>92.66666666666667</ele><time>2026-04-04T14:17:29.01Z</time></trkpt><trkpt lat="43.5731333" lon="10.6509717"><ele>93.33333333333333</ele><time>2026-04-04T14:17:30.012Z</time></trkpt><trkpt lat="43.57312" lon="10.6512667"><ele>94.0</ele><time>2026-04-04T14:17:31.01Z</time></trkpt><trkpt lat="43.5730983" lon="10.6515567"><ele>93.66666666666666</ele><time>2026-04-04T14:17:32.011Z</time></trkpt><trkpt lat="43.5730533" lon="10.651845"><ele>93.33333333333333</ele><time>2026-04-04T14:17:33.011Z</time></trkpt><trkpt lat="43.5729917" lon="10.6521317"><ele>93.0</ele><time>2026-04-04T14:17:34.01Z</time></trkpt><trkpt lat="43.5729167" lon="10.6524217"><ele>93.5</ele><time>2026-04-04T14:17:35.011Z</time></trkpt><trkpt lat="43.5728317" lon="10.652715"><ele>94.0</ele><time>2026-04-04T14:17:36.01Z</time></trkpt><trkpt lat="43.5727467" lon="10.6530117"><ele>94.0</ele><time>2026-04-04T14:17:37.01Z</time></trkpt><trkpt lat="43.57267" lon="10.65332"><ele>94.0</ele><time>2026-04-04T14:17:38.01Z</time></trkpt><trkpt lat="43.5726017" lon="10.6536333"><ele>96.0</ele><time>2026-04-04T14:17:39.011Z</time></trkpt><trkpt lat="43.5725433" lon="10.653955"><ele>98.0</ele><time>2026-04-04T14:17:40.01Z</time></trkpt><trkpt lat="43.572495" lon="10.6542667"><ele>98.33333333333333</ele><time>2026-04-04T14:17:41.01Z</time></trkpt><trkpt lat="43.5724467" lon="10.6545667"><ele>98.66666666666666</ele><time>2026-04-04T14:17:42.01Z</time></trkpt><trkpt lat="43.5723933" lon="10.65485"><ele>99.0</ele><time>2026-04-04T14:17:43.01Z</time></trkpt><trkpt lat="43.5723217" lon="10.655095"><ele>99.0</ele><time>2026-04-04T14:17:44.01Z</time></trkpt><trkpt lat="43.5722317" lon="10.6552933"><ele>99.0</ele><time>2026-04-04T14:17:45.011Z</time></trkpt><trkpt lat="43.572115" lon="10.655455"><ele>99.0</ele><time>2026-04-04T14:17:46.01Z</time></trkpt><trkpt lat="43.571965" lon="10.6555917"><ele>101.0</ele><time>2026-04-04T14:17:47.01Z</time></trkpt><trkpt lat="43.5717983" lon="10.6557267"><ele>103.0</ele><time>2026-04-04T14:17:48.01Z</time></trkpt><trkpt lat="43.571635" lon="10.6558817"><ele>105.0</ele><time>2026-04-04T14:17:49.012Z</time></trkpt><trkpt lat="43.571475" lon="10.656055"><ele>105.33333333333334</ele><time>2026-04-04T14:17:50.012Z</time></trkpt><trkpt lat="43.5713333" lon="10.656255"><ele>105.66666666666667</ele><time>2026-04-04T14:17:51.01Z</time></trkpt><trkpt lat="43.5712117" lon="10.6564867"><ele>106.0</ele><time>2026-04-04T14:17:52.012Z</time></trkpt><trkpt lat="43.5711" lon="10.656745"><ele>105.66666666666667</ele><time>2026-04-04T14:17:53.01Z</time></trkpt><trkpt lat="43.5709967" lon="10.6570183"><ele>105.33333333333334</ele><time>2026-04-04T14:17:54.011Z</time></trkpt><trkpt lat="43.570895" lon="10.6572867"><ele>105.0</ele><time>2026-04-04T14:17:55.011Z</time></trkpt><trkpt lat="43.5707917" lon="10.6575483"><ele>104.33333333333334</ele><time>2026-04-04T14:17:56.01Z</time></trkpt><trkpt lat="43.5706817" lon="10.6578033"><ele>103.66666666666667</ele><time>2026-04-04T14:17:57.011Z</time></trkpt><trkpt lat="43.57058" lon="10.6580483"><ele>103.0</ele><time>2026-04-04T14:17:58.011Z</time></trkpt><trkpt lat="43.570465" lon="10.65828"><ele>104.66666666666667</ele><time>2026-04-04T14:17:59.01Z</time></trkpt><trkpt lat="43.5703417" lon="10.6584983"><ele>106.33333333333334</ele><time>2026-04-04T14:18:00.011Z</time></trkpt><trkpt lat="43.570215" lon="10.658705"><ele>108.0</ele><time>2026-04-04T14:18:01.011Z</time></trkpt><trkpt lat="43.57008" lon="10.6589067"><ele>108.0</ele><time>2026-04-04T14:18:02.011Z</time></trkpt><trkpt lat="43.5699533" lon="10.6591033"><ele>108.0</ele><time>2026-04-04T14:18:03.01Z</time></trkpt><trkpt lat="43.5698417" lon="10.6592967"><ele>108.0</ele><time>2026-04-04T14:18:04.012Z</time></trkpt><trkpt lat="43.5697367" lon="10.6594833"><ele>107.75</ele><time>2026-04-04T14:18:05.011Z</time></trkpt><trkpt lat="43.5696533" lon="10.6596567"><ele>107.5</ele><time>2026-04-04T14:18:06.011Z</time></trkpt><trkpt lat="43.5695833" lon="10.659815"><ele>107.25</ele><time>2026-04-04T14:18:07.011Z</time></trkpt><trkpt lat="43.5695283" lon="10.6599567"><ele>107.0</ele><time>2026-04-04T14:18:08.012Z</time></trkpt><trkpt lat="43.5694817" lon="10.660095"><ele>107.75</ele><time>2026-04-04T14:18:09.011Z</time></trkpt><trkpt lat="43.5694333" lon="10.6602333"><ele>108.5</ele><time>2026-04-04T14:18:10.012Z</time></trkpt><trkpt lat="43.5694" lon="10.6603833"><ele>109.25</ele><time>2026-04-04T14:18:11.012Z</time></trkpt><trkpt lat="43.5693517" lon="10.6605283"><ele>110.0</ele><time>2026-04-04T14:18:12.01Z</time></trkpt><trkpt lat="43.5693067" lon="10.6606783"><ele>110.6</ele><time>2026-04-04T14:18:13.01Z</time></trkpt><trkpt lat="43.5692683" lon="10.660825"><ele>111.2</ele><time>2026-04-04T14:18:14.011Z</time></trkpt><trkpt lat="43.569235" lon="10.660965"><ele>111.80000000000001</ele><time>2026-04-04T14:18:15.01Z</time></trkpt><trkpt lat="43.5691917" lon="10.6611033"><ele>112.4</ele><time>2026-04-04T14:18:16.01Z</time></trkpt><trkpt lat="43.56915" lon="10.661235"><ele>113.0</ele><time>2026-04-04T14:18:17.01Z</time></trkpt><trkpt lat="43.5691117" lon="10.661365"><ele>113.25</ele><time>2026-04-04T14:18:18.01Z</time></trkpt><trkpt lat="43.5690733" lon="10.6615067"><ele>113.5</ele><time>2026-04-04T14:18:19.01Z</time></trkpt><trkpt lat="43.5690333" lon="10.661665"><ele>113.75</ele><time>2026-04-04T14:18:20.011Z</time></trkpt><trkpt lat="43.5689867" lon="10.6618383"><ele>114.0</ele><time>2026-04-04T14:18:21.011Z</time></trkpt><trkpt lat="43.568945" lon="10.662025"><ele>115.33333333333334</ele><time>2026-04-04T14:18:22.01Z</time></trkpt><trkpt lat="43.5689233" lon="10.6622267"><ele>116.66666666666667</ele><time>2026-04-04T14:18:23.01Z</time></trkpt><trkpt lat="43.5689167" lon="10.662435"><ele>118.0</ele><time>2026-04-04T14:18:24.01Z</time></trkpt><trkpt lat="43.5689283" lon="10.6626467"><ele>119.33333333333334</ele><time>2026-04-04T14:18:25.011Z</time></trkpt><trkpt lat="43.5689583" lon="10.6628533"><ele>120.66666666666666</ele><time>2026-04-04T14:18:26.01Z</time></trkpt><trkpt lat="43.5689967" lon="10.6630567"><ele>122.0</ele><time>2026-04-04T14:18:27.01Z</time></trkpt><trkpt lat="43.56906" lon="10.6632467"><ele>122.0</ele><time>2026-04-04T14:18:28.012Z</time></trkpt><trkpt lat="43.5691267" lon="10.663435"><ele>122.0</ele><time>2026-04-04T14:18:29.011Z</time></trkpt><trkpt lat="43.569205" lon="10.6636217"><ele>122.0</ele><time>2026-04-04T14:18:30.01Z</time></trkpt><trkpt lat="43.569285" lon="10.6638067"><ele>123.0</ele><time>2026-04-04T14:18:31.011Z</time></trkpt><trkpt lat="43.569365" lon="10.663985"><ele>124.0</ele><time>2026-04-04T14:18:32.01Z</time></trkpt><trkpt lat="43.5694517" lon="10.6641617"><ele>125.0</ele><time>2026-04-04T14:18:33.011Z</time></trkpt><trkpt lat="43.56955" lon="10.6643217"><ele>124.33333333333333</ele><time>2026-04-04T14:18:34.011Z</time></trkpt><trkpt lat="43.5696633" lon="10.6644617"><ele>123.66666666666666</ele><time>2026-04-04T14:18:35.01Z</time></trkpt><trkpt lat="43.5697833" lon="10.6645883"><ele>123.0</ele><time>2026-04-04T14:18:36.01Z</time></trkpt><trkpt lat="43.5699083" lon="10.6647"><ele>123.0</ele><time>2026-04-04T14:18:37.011Z</time></trkpt><trkpt lat="43.57003" lon="10.66479"><ele>123.0</ele><time>2026-04-04T14:18:38.011Z</time></trkpt><trkpt lat="43.570135" lon="10.664875"><ele>123.0</ele><time>2026-04-04T14:18:39.013Z</time></trkpt><trkpt lat="43.5702317" lon="10.66496"><ele>123.0</ele><time>2026-04-04T14:18:40.01Z</time></trkpt><trkpt lat="43.5703233" lon="10.6650517"><ele>122.5</ele><time>2026-04-04T14:18:41.01Z</time></trkpt><trkpt lat="43.5704167" lon="10.6651567"><ele>122.0</ele><time>2026-04-04T14:18:42.011Z</time></trkpt><trkpt lat="43.5705117" lon="10.6652767"><ele>121.5</ele><time>2026-04-04T14:18:43.01Z</time></trkpt><trkpt lat="43.5706067" lon="10.6654033"><ele>121.0</ele><time>2026-04-04T14:18:44.01Z</time></trkpt><trkpt lat="43.5706983" lon="10.665535"><ele>121.0</ele><time>2026-04-04T14:18:45.01Z</time></trkpt><trkpt lat="43.57079" lon="10.6656733"><ele>121.0</ele><time>2026-04-04T14:18:46.01Z</time></trkpt><trkpt lat="43.5708817" lon="10.66581"><ele>121.0</ele><time>2026-04-04T14:18:47.012Z</time></trkpt><trkpt lat="43.5709717" lon="10.66595"><ele>121.0</ele><time>2026-04-04T14:18:48.01Z</time></trkpt><trkpt lat="43.571065" lon="10.6660917"><ele>121.25</ele><time>2026-04-04T14:18:49.012Z</time></trkpt><trkpt lat="43.571155" lon="10.666225"><ele>121.5</ele><time>2026-04-04T14:18:50.012Z</time></trkpt><trkpt lat="43.5712433" lon="10.666355"><ele>121.75</ele><time>2026-04-04T14:18:51.011Z</time></trkpt><trkpt lat="43.5713267" lon="10.666485"><ele>122.0</ele><time>2026-04-04T14:18:52.011Z</time></trkpt><trkpt lat="43.571405" lon="10.666605"><ele>120.6</ele><time>2026-04-04T14:18:53.011Z</time></trkpt><trkpt lat="43.5714783" lon="10.6667217"><ele>119.19999999999999</ele><time>2026-04-04T14:18:54.012Z</time></trkpt><trkpt lat="43.5715467" lon="10.66683"><ele>117.8</ele><time>2026-04-04T14:18:55.012Z</time></trkpt><trkpt lat="43.5716133" lon="10.6669367"><ele>116.4</ele><time>2026-04-04T14:18:56.012Z</time></trkpt><trkpt lat="43.5716817" lon="10.6670433"><ele>115.0</ele><time>2026-04-04T14:18:57.011Z</time></trkpt><trkpt lat="43.5717517" lon="10.6671633"><ele>114.33333333333334</ele><time>2026-04-04T14:18:58.012Z</time></trkpt><trkpt lat="43.571835" lon="10.6672983"><ele>113.66666666666666</ele><time>2026-04-04T14:18:59.012Z</time></trkpt><trkpt lat="43.571935" lon="10.6674633"><ele>113.0</ele><time>2026-04-04T14:19:00.012Z</time></trkpt><trkpt lat="43.5720533" lon="10.6676517"><ele>109.66666666666666</ele><time>2026-04-04T14:19:01.012Z</time></trkpt><trkpt lat="43.5721783" lon="10.66786"><ele>106.33333333333334</ele><time>2026-04-04T14:19:02.012Z</time></trkpt><trkpt lat="43.57231" lon="10.66808"><ele>103.0</ele><time>2026-04-04T14:19:03.013Z</time></trkpt><trkpt lat="43.5724483" lon="10.66831"><ele>103.0</ele><time>2026-04-04T14:19:04.013Z</time></trkpt><trkpt lat="43.5725883" lon="10.6685467"><ele>103.0</ele><time>2026-04-04T14:19:05.01Z</time></trkpt><trkpt lat="43.5727333" lon="10.6687817"><ele>103.0</ele><time>2026-04-04T14:19:06.009Z</time></trkpt><trkpt lat="43.57288" lon="10.66901"><ele>102.5</ele><time>2026-04-04T14:19:07.01Z</time></trkpt><trkpt lat="43.5730383" lon="10.669235"><ele>102.0</ele><time>2026-04-04T14:19:08.011Z</time></trkpt><trkpt lat="43.5732033" lon="10.6694483"><ele>102.33333333333334</ele><time>2026-04-04T14:19:09.011Z</time></trkpt><trkpt lat="43.573375" lon="10.6696483"><ele>102.66666666666667</ele><time>2026-04-04T14:19:10.01Z</time></trkpt><trkpt lat="43.5735483" lon="10.669835"><ele>103.0</ele><time>2026-04-04T14:19:11.01Z</time></trkpt><trkpt lat="43.5737183" lon="10.6699967"><ele>103.0</ele><time>2026-04-04T14:19:12.011Z</time></trkpt><trkpt lat="43.573875" lon="10.6701233"><ele>103.0</ele><time>2026-04-04T14:19:13.01Z</time></trkpt><trkpt lat="43.5740433" lon="10.6702233"><ele>103.0</ele><time>2026-04-04T14:19:14.009Z</time></trkpt><trkpt lat="43.57423" lon="10.670295"><ele>102.66666666666667</ele><time>2026-04-04T14:19:15.01Z</time></trkpt><trkpt lat="43.5744233" lon="10.6703283"><ele>102.33333333333334</ele><time>2026-04-04T14:19:16.01Z</time></trkpt><trkpt lat="43.5746283" lon="10.670335"><ele>102.0</ele><time>2026-04-04T14:19:17.011Z</time></trkpt><trkpt lat="43.5748283" lon="10.6703133"><ele>102.0</ele><time>2026-04-04T14:19:18.011Z</time></trkpt><trkpt lat="43.5750217" lon="10.6703017"><ele>102.0</ele><time>2026-04-04T14:19:19.009Z</time></trkpt><trkpt lat="43.57522" lon="10.6702983"><ele>102.0</ele><time>2026-04-04T14:19:20.01Z</time></trkpt><trkpt lat="43.575415" lon="10.6702867"><ele>101.0</ele><time>2026-04-04T14:19:21.011Z</time></trkpt><trkpt lat="43.57561" lon="10.6702717"><ele>100.0</ele><time>2026-04-04T14:19:22.01Z</time></trkpt><trkpt lat="43.5758067" lon="10.670245"><ele>99.0</ele><time>2026-04-04T14:19:23.011Z</time></trkpt><trkpt lat="43.5760067" lon="10.6702"><ele>99.66666666666666</ele><time>2026-04-04T14:19:24.011Z</time></trkpt><trkpt lat="43.57621" lon="10.6701483"><ele>100.33333333333333</ele><time>2026-04-04T14:19:25.011Z</time></trkpt><trkpt lat="43.5764167" lon="10.6700817"><ele>101.0</ele><time>2026-04-04T14:19:26.01Z</time></trkpt><trkpt lat="43.5766233" lon="10.670005"><ele>101.0</ele><time>2026-04-04T14:19:27.011Z</time></trkpt><trkpt lat="43.5768367" lon="10.6699367"><ele>101.0</ele><time>2026-04-04T14:19:28.011Z</time></trkpt><trkpt lat="43.5770517" lon="10.6698833"><ele>101.0</ele><time>2026-04-04T14:19:29.011Z</time></trkpt><trkpt lat="43.5772683" lon="10.6698617"><ele>101.0</ele><time>2026-04-04T14:19:30.012Z</time></trkpt><trkpt lat="43.57748" lon="10.6698683"><ele>101.0</ele><time>2026-04-04T14:19:31.013Z</time></trkpt><trkpt lat="43.57769" lon="10.66991"><ele>101.0</ele><time>2026-04-04T14:19:32.012Z</time></trkpt><trkpt lat="43.5778983" lon="10.6699733"><ele>101.0</ele><time>2026-04-04T14:19:33.014Z</time></trkpt><trkpt lat="43.57811" lon="10.67006"><ele>101.0</ele><time>2026-04-04T14:19:34.012Z</time></trkpt><trkpt lat="43.578315" lon="10.6701567"><ele>101.0</ele><time>2026-04-04T14:19:35.012Z</time></trkpt><trkpt lat="43.5785117" lon="10.6702583"><ele>99.33333333333333</ele><time>2026-04-04T14:19:36.013Z</time></trkpt><trkpt lat="43.5787017" lon="10.6703733"><ele>97.66666666666666</ele><time>2026-04-04T14:19:37.012Z</time></trkpt><trkpt lat="43.5788767" lon="10.6705283"><ele>96.0</ele><time>2026-04-04T14:19:38.012Z</time></trkpt><trkpt lat="43.5790283" lon="10.6707"><ele>96.0</ele><time>2026-04-04T14:19:39.011Z</time></trkpt><trkpt lat="43.579155" lon="10.6708917"><ele>96.0</ele><time>2026-04-04T14:19:40.013Z</time></trkpt><trkpt lat="43.579255" lon="10.6711017"><ele>96.0</ele><time>2026-04-04T14:19:41.012Z</time></trkpt><trkpt lat="43.579335" lon="10.6713217"><ele>92.66666666666667</ele><time>2026-04-04T14:19:42.012Z</time></trkpt><trkpt lat="43.579395" lon="10.6715483"><ele>89.33333333333334</ele><time>2026-04-04T14:19:43.013Z</time></trkpt><trkpt lat="43.5794333" lon="10.671785"><ele>86.0</ele><time>2026-04-04T14:19:44.012Z</time></trkpt><trkpt lat="43.5794533" lon="10.67203"><ele>82.33333333333334</ele><time>2026-04-04T14:19:45.015Z</time></trkpt><trkpt lat="43.5794667" lon="10.6722783"><ele>78.66666666666667</ele><time>2026-04-04T14:19:46.009Z</time></trkpt><trkpt lat="43.579475" lon="10.6725333"><ele>75.0</ele><time>2026-04-04T14:19:47.01Z</time></trkpt><trkpt lat="43.5794867" lon="10.6727933"><ele>76.66666666666667</ele><time>2026-04-04T14:19:48.011Z</time></trkpt><trkpt lat="43.5795" lon="10.6730567"><ele>78.33333333333334</ele><time>2026-04-04T14:19:49.01Z</time></trkpt><trkpt lat="43.5795133" lon="10.6733233"><ele>80.0</ele><time>2026-04-04T14:19:50.011Z</time></trkpt><trkpt lat="43.579525" lon="10.6735917"><ele>78.33333333333334</ele><time>2026-04-04T14:19:51.012Z</time></trkpt><trkpt lat="43.5795367" lon="10.673865"><ele>76.66666666666667</ele><time>2026-04-04T14:19:52.012Z</time></trkpt><trkpt lat="43.5795467" lon="10.67414"><ele>75.0</ele><time>2026-04-04T14:19:53.011Z</time></trkpt><trkpt lat="43.5795583" lon="10.6744167"><ele>73.66666666666667</ele><time>2026-04-04T14:19:54.011Z</time></trkpt><trkpt lat="43.57957" lon="10.6746933"><ele>72.33333333333334</ele><time>2026-04-04T14:19:55.012Z</time></trkpt><trkpt lat="43.5795817" lon="10.6749733"><ele>71.0</ele><time>2026-04-04T14:19:56.01Z</time></trkpt><trkpt lat="43.5795933" lon="10.67525"><ele>68.33333333333334</ele><time>2026-04-04T14:19:57.01Z</time></trkpt><trkpt lat="43.5796083" lon="10.6755283"><ele>65.66666666666667</ele><time>2026-04-04T14:19:58.012Z</time></trkpt><trkpt lat="43.5796233" lon="10.6758067"><ele>63.0</ele><time>2026-04-04T14:19:59.011Z</time></trkpt><trkpt lat="43.5796367" lon="10.6760833"><ele>60.66666666666667</ele><time>2026-04-04T14:20:00.012Z</time></trkpt><trkpt lat="43.5796467" lon="10.6763633"><ele>58.333333333333336</ele><time>2026-04-04T14:20:01.01Z</time></trkpt><trkpt lat="43.5796583" lon="10.6766433"><ele>56.0</ele><time>2026-04-04T14:20:02.01Z</time></trkpt><trkpt lat="43.5796683" lon="10.67692"><ele>55.66666666666667</ele><time>2026-04-04T14:20:03.01Z</time></trkpt><trkpt lat="43.57968" lon="10.6771917"><ele>55.33333333333333</ele><time>2026-04-04T14:20:04.01Z</time></trkpt><trkpt lat="43.57969" lon="10.677455"><ele>55.0</ele><time>2026-04-04T14:20:05.011Z</time></trkpt><trkpt lat="43.5797" lon="10.6777117"><ele>54.0</ele><time>2026-04-04T14:20:06.011Z</time></trkpt><trkpt lat="43.5797133" lon="10.67796"><ele>53.0</ele><time>2026-04-04T14:20:07.011Z</time></trkpt><trkpt lat="43.579725" lon="10.6782017"><ele>52.0</ele><time>2026-04-04T14:20:08.011Z</time></trkpt><trkpt lat="43.5797367" lon="10.6784333"><ele>50.33333333333333</ele><time>2026-04-04T14:20:09.012Z</time></trkpt><trkpt lat="43.5797433" lon="10.6786567"><ele>48.666666666666664</ele><time>2026-04-04T14:20:10.011Z</time></trkpt><trkpt lat="43.5797533" lon="10.6788733"><ele>47.0</ele><time>2026-04-04T14:20:11.011Z</time></trkpt><trkpt lat="43.5797617" lon="10.67908"><ele>47.0</ele><time>2026-04-04T14:20:12.011Z</time></trkpt><trkpt lat="43.5797733" lon="10.6792767"><ele>47.0</ele><time>2026-04-04T14:20:13.011Z</time></trkpt><trkpt lat="43.5797867" lon="10.6794617"><ele>47.0</ele><time>2026-04-04T14:20:14.011Z</time></trkpt><trkpt lat="43.5797983" lon="10.6796383"><ele>47.0</ele><time>2026-04-04T14:20:15.011Z</time></trkpt><trkpt lat="43.579805" lon="10.6798067"><ele>46.0</ele><time>2026-04-04T14:20:16.011Z</time></trkpt><trkpt lat="43.5798133" lon="10.6799683"><ele>45.0</ele><time>2026-04-04T14:20:17.009Z</time></trkpt><trkpt lat="43.5798167" lon="10.680085"><ele>44.0</ele><time>2026-04-04T14:20:18.011Z</time></trkpt><trkpt lat="43.57983" lon="10.68023"><ele>43.0</ele><time>2026-04-04T14:20:20.011Z</time></trkpt><trkpt lat="43.5798517" lon="10.6803333"><ele>42.0</ele><time>2026-04-04T14:20:22.01Z</time></trkpt><trkpt lat="43.579865" lon="10.6804517"><ele>41.4</ele><time>2026-04-04T14:20:24.012Z</time></trkpt><trkpt lat="43.579865" lon="10.680625"><ele>40.800000000000004</ele><time>2026-04-04T14:20:26.011Z</time></trkpt><trkpt lat="43.5798617" lon="10.6807217"><ele>40.2</ele><time>2026-04-04T14:20:27.012Z</time></trkpt><trkpt lat="43.5798617" lon="10.6808333"><ele>39.6</ele><time>2026-04-04T14:20:28.011Z</time></trkpt><trkpt lat="43.579865" lon="10.680955"><ele>39.0</ele><time>2026-04-04T14:20:29.01Z</time></trkpt><trkpt lat="43.57987" lon="10.6810833"><ele>38.8</ele><time>2026-04-04T14:20:30.011Z</time></trkpt><trkpt lat="43.5798783" lon="10.6812233"><ele>38.599999999999994</ele><time>2026-04-04T14:20:31.011Z</time></trkpt><trkpt lat="43.579885" lon="10.68137"><ele>38.4</ele><time>2026-04-04T14:20:32.011Z</time></trkpt><trkpt lat="43.5798933" lon="10.68152"><ele>38.199999999999996</ele><time>2026-04-04T14:20:33.012Z</time></trkpt><trkpt lat="43.5799017" lon="10.68167"><ele>38.0</ele><time>2026-04-04T14:20:34.011Z</time></trkpt><trkpt lat="43.5799083" lon="10.6818167"><ele>38.199999999999996</ele><time>2026-04-04T14:20:35.012Z</time></trkpt><trkpt lat="43.5799117" lon="10.6819617"><ele>38.4</ele><time>2026-04-04T14:20:36.011Z</time></trkpt><trkpt lat="43.5799133" lon="10.6820983"><ele>38.599999999999994</ele><time>2026-04-04T14:20:37.01Z</time></trkpt><trkpt lat="43.5799067" lon="10.6822267"><ele>38.8</ele><time>2026-04-04T14:20:38.011Z</time></trkpt><trkpt lat="43.5798967" lon="10.6823483"><ele>39.0</ele><time>2026-04-04T14:20:39.012Z</time></trkpt><trkpt lat="43.5798833" lon="10.682435"><ele>39.0</ele><time>2026-04-04T14:20:40.012Z</time></trkpt><trkpt lat="43.5798667" lon="10.68253"><ele>39.0</ele><time>2026-04-04T14:20:42.011Z</time></trkpt><trkpt lat="43.5798317" lon="10.682665"><ele>39.0</ele><time>2026-04-04T14:20:44.011Z</time></trkpt><trkpt lat="43.579815" lon="10.6827667"><ele>39.0</ele><time>2026-04-04T14:20:45.011Z</time></trkpt><trkpt lat="43.57981" lon="10.682875"><ele>39.0</ele><time>2026-04-04T14:20:46.012Z</time></trkpt><trkpt lat="43.57983" lon="10.6829767"><ele>39.0</ele><time>2026-04-04T14:20:47.012Z</time></trkpt><trkpt lat="43.5798683" lon="10.68308"><ele>38.8</ele><time>2026-04-04T14:20:48.012Z</time></trkpt><trkpt lat="43.5799167" lon="10.683195"><ele>38.599999999999994</ele><time>2026-04-04T14:20:49.012Z</time></trkpt><trkpt lat="43.57995" lon="10.6833233"><ele>38.4</ele><time>2026-04-04T14:20:50.013Z</time></trkpt><trkpt lat="43.57997" lon="10.6834533"><ele>38.199999999999996</ele><time>2026-04-04T14:20:51.011Z</time></trkpt><trkpt lat="43.579985" lon="10.683585"><ele>38.0</ele><time>2026-04-04T14:20:52.011Z</time></trkpt><trkpt lat="43.5799983" lon="10.6837383"><ele>37.666666666666664</ele><time>2026-04-04T14:20:53.012Z</time></trkpt><trkpt lat="43.580015" lon="10.68393"><ele>37.333333333333336</ele><time>2026-04-04T14:20:54.012Z</time></trkpt><trkpt lat="43.5800367" lon="10.6841433"><ele>37.0</ele><time>2026-04-04T14:20:55.012Z</time></trkpt><trkpt lat="43.5800533" lon="10.6843883"><ele>37.333333333333336</ele><time>2026-04-04T14:20:56.011Z</time></trkpt><trkpt lat="43.580065" lon="10.6846817"><ele>37.666666666666664</ele><time>2026-04-04T14:20:57.012Z</time></trkpt><trkpt lat="43.5800733" lon="10.685005"><ele>38.0</ele><time>2026-04-04T14:20:58.011Z</time></trkpt><trkpt lat="43.580095" lon="10.68534"><ele>38.0</ele><time>2026-04-04T14:20:59.013Z</time></trkpt><trkpt lat="43.5801183" lon="10.6856767"><ele>38.0</ele><time>2026-04-04T14:21:00.013Z</time></trkpt><trkpt lat="43.5801317" lon="10.68601"><ele>36.0</ele><time>2026-04-04T14:21:01.011Z</time></trkpt><trkpt lat="43.580145" lon="10.6863333"><ele>34.0</ele><time>2026-04-04T14:21:02.013Z</time></trkpt><trkpt lat="43.5801583" lon="10.686655"><ele>35.0</ele><time>2026-04-04T14:21:03.013Z</time></trkpt><trkpt lat="43.5801733" lon="10.6869767"><ele>36.0</ele><time>2026-04-04T14:21:04.012Z</time></trkpt><trkpt lat="43.5801883" lon="10.6873033"><ele>36.0</ele><time>2026-04-04T14:21:05.011Z</time></trkpt><trkpt lat="43.5802017" lon="10.6876367"><ele>36.0</ele><time>2026-04-04T14:21:06.012Z</time></trkpt><trkpt lat="43.58022" lon="10.6879717"><ele>36.0</ele><time>2026-04-04T14:21:07.012Z</time></trkpt><trkpt lat="43.5802367" lon="10.6883067"><ele>36.0</ele><time>2026-04-04T14:21:08.011Z</time></trkpt><trkpt lat="43.5802483" lon="10.6886383"><ele>35.0</ele><time>2026-04-04T14:21:09.012Z</time></trkpt><trkpt lat="43.5802633" lon="10.6889717"><ele>34.0</ele><time>2026-04-04T14:21:10.012Z</time></trkpt><trkpt lat="43.5802817" lon="10.689305"><ele>34.5</ele><time>2026-04-04T14:21:11.012Z</time></trkpt><trkpt lat="43.5802983" lon="10.68964"><ele>35.0</ele><time>2026-04-04T14:21:12.011Z</time></trkpt><trkpt lat="43.5803133" lon="10.6899767"><ele>35.0</ele><time>2026-04-04T14:21:13.012Z</time></trkpt><trkpt lat="43.5803283" lon="10.6903133"><ele>35.0</ele><time>2026-04-04T14:21:14.012Z</time></trkpt><trkpt lat="43.580345" lon="10.6906467"><ele>35.5</ele><time>2026-04-04T14:21:15.012Z</time></trkpt><trkpt lat="43.58036" lon="10.69098"><ele>36.0</ele><time>2026-04-04T14:21:16.011Z</time></trkpt><trkpt lat="43.5803783" lon="10.6913167"><ele>36.0</ele><time>2026-04-04T14:21:17.011Z</time></trkpt><trkpt lat="43.5804017" lon="10.69166"><ele>36.0</ele><time>2026-04-04T14:21:18.01Z</time></trkpt><trkpt lat="43.5804417" lon="10.692005"><ele>35.5</ele><time>2026-04-04T14:21:19.012Z</time></trkpt><trkpt lat="43.58049" lon="10.6923533"><ele>35.0</ele><time>2026-04-04T14:21:20.012Z</time></trkpt><trkpt lat="43.5805483" lon="10.6927"><ele>36.0</ele><time>2026-04-04T14:21:21.013Z</time></trkpt><trkpt lat="43.5806067" lon="10.693045"><ele>37.0</ele><time>2026-04-04T14:21:22.011Z</time></trkpt><trkpt lat="43.58066" lon="10.6933883"><ele>37.0</ele><time>2026-04-04T14:21:23.012Z</time></trkpt><trkpt lat="43.5806883" lon="10.6937317"><ele>37.0</ele><time>2026-04-04T14:21:24.009Z</time></trkpt><trkpt lat="43.5806967" lon="10.6940767"><ele>36.5</ele><time>2026-04-04T14:21:25.012Z</time></trkpt><trkpt lat="43.5806933" lon="10.694425"><ele>36.0</ele><time>2026-04-04T14:21:26.015Z</time></trkpt><trkpt lat="43.5806783" lon="10.6947783"><ele>36.0</ele><time>2026-04-04T14:21:27.013Z</time></trkpt><trkpt lat="43.580665" lon="10.695135"><ele>36.0</ele><time>2026-04-04T14:21:28.011Z</time></trkpt><trkpt lat="43.58066" lon="10.6954967"><ele>36.0</ele><time>2026-04-04T14:21:29.012Z</time></trkpt><trkpt lat="43.580655" lon="10.69585"><ele>36.0</ele><time>2026-04-04T14:21:30.011Z</time></trkpt><trkpt lat="43.58065" lon="10.696205"><ele>36.5</ele><time>2026-04-04T14:21:31.013Z</time></trkpt><trkpt lat="43.5806467" lon="10.6965517"><ele>37.0</ele><time>2026-04-04T14:21:32.013Z</time></trkpt><trkpt lat="43.5806433" lon="10.696895"><ele>37.5</ele><time>2026-04-04T14:21:33.013Z</time></trkpt><trkpt lat="43.5806383" lon="10.697235"><ele>38.0</ele><time>2026-04-04T14:21:34.013Z</time></trkpt><trkpt lat="43.5806383" lon="10.697575"><ele>37.5</ele><time>2026-04-04T14:21:35.012Z</time></trkpt><trkpt lat="43.580635" lon="10.697915"><ele>37.0</ele><time>2026-04-04T14:21:36.01Z</time></trkpt><trkpt lat="43.5806317" lon="10.6982533"><ele>36.5</ele><time>2026-04-04T14:21:37.011Z</time></trkpt><trkpt lat="43.5806317" lon="10.698595"><ele>36.0</ele><time>2026-04-04T14:21:38.012Z</time></trkpt><trkpt lat="43.5806283" lon="10.6989383"><ele>36.0</ele><time>2026-04-04T14:21:39.013Z</time></trkpt><trkpt lat="43.58062" lon="10.6992817"><ele>36.0</ele><time>2026-04-04T14:21:40.013Z</time></trkpt><trkpt lat="43.5806117" lon="10.6996267"><ele>36.0</ele><time>2026-04-04T14:21:41.013Z</time></trkpt><trkpt lat="43.5806067" lon="10.6999683"><ele>36.0</ele><time>2026-04-04T14:21:42.013Z</time></trkpt><trkpt lat="43.5806033" lon="10.7003133"><ele>35.5</ele><time>2026-04-04T14:21:43.012Z</time></trkpt><trkpt lat="43.5806" lon="10.7006567"><ele>35.0</ele><time>2026-04-04T14:21:44.013Z</time></trkpt><trkpt lat="43.5805967" lon="10.701"><ele>35.0</ele><time>2026-04-04T14:21:45.012Z</time></trkpt><trkpt lat="43.5805917" lon="10.70134"><ele>35.0</ele><time>2026-04-04T14:21:46.012Z</time></trkpt><trkpt lat="43.5805867" lon="10.701675"><ele>35.33333333333333</ele><time>2026-04-04T14:21:47.012Z</time></trkpt><trkpt lat="43.5805867" lon="10.701995"><ele>35.666666666666664</ele><time>2026-04-04T14:21:48.012Z</time></trkpt><trkpt lat="43.58058" lon="10.702295"><ele>36.0</ele><time>2026-04-04T14:21:49.011Z</time></trkpt><trkpt lat="43.5805733" lon="10.702575"><ele>36.0</ele><time>2026-04-04T14:21:50.011Z</time></trkpt><trkpt lat="43.5805667" lon="10.7028367"><ele>36.0</ele><time>2026-04-04T14:21:51.013Z</time></trkpt><trkpt lat="43.58056" lon="10.7030767"><ele>36.0</ele><time>2026-04-04T14:21:52.012Z</time></trkpt><trkpt lat="43.5805583" lon="10.7032867"><ele>36.0</ele><time>2026-04-04T14:21:53.011Z</time></trkpt><trkpt lat="43.5805567" lon="10.7034633"><ele>36.0</ele><time>2026-04-04T14:21:54.012Z</time></trkpt><trkpt lat="43.5805533" lon="10.7036183"><ele>36.0</ele><time>2026-04-04T14:21:55.011Z</time></trkpt><trkpt lat="43.580545" lon="10.7037583"><ele>36.0</ele><time>2026-04-04T14:21:56.014Z</time></trkpt><trkpt lat="43.5805233" lon="10.7038917"><ele>36.0</ele><time>2026-04-04T14:21:57.012Z</time></trkpt><trkpt lat="43.580475" lon="10.70402"><ele>36.2</ele><time>2026-04-04T14:21:58.011Z</time></trkpt><trkpt lat="43.5804233" lon="10.7041483"><ele>36.400000000000006</ele><time>2026-04-04T14:21:59.013Z</time></trkpt><trkpt lat="43.5803867" lon="10.7042767"><ele>36.6</ele><time>2026-04-04T14:22:00.012Z</time></trkpt><trkpt lat="43.5803767" lon="10.704405"><ele>36.800000000000004</ele><time>2026-04-04T14:22:01.012Z</time></trkpt><trkpt lat="43.5803883" lon="10.7045267"><ele>37.0</ele><time>2026-04-04T14:22:02.012Z</time></trkpt><trkpt lat="43.580415" lon="10.7046383"><ele>37.0</ele><time>2026-04-04T14:22:03.014Z</time></trkpt><trkpt lat="43.58045" lon="10.7047467"><ele>37.0</ele><time>2026-04-04T14:22:04.012Z</time></trkpt><trkpt lat="43.580485" lon="10.7048583"><ele>37.0</ele><time>2026-04-04T14:22:05.012Z</time></trkpt><trkpt lat="43.580515" lon="10.7049717"><ele>37.0</ele><time>2026-04-04T14:22:06.013Z</time></trkpt><trkpt lat="43.580525" lon="10.7050817"><ele>37.0</ele><time>2026-04-04T14:22:07.012Z</time></trkpt><trkpt lat="43.5805267" lon="10.7051967"><ele>37.0</ele><time>2026-04-04T14:22:08.012Z</time></trkpt><trkpt lat="43.5805267" lon="10.7053167"><ele>37.0</ele><time>2026-04-04T14:22:09.012Z</time></trkpt><trkpt lat="43.5805233" lon="10.7054367"><ele>37.0</ele><time>2026-04-04T14:22:10.013Z</time></trkpt><trkpt lat="43.58052" lon="10.7055617"><ele>37.0</ele><time>2026-04-04T14:22:11.014Z</time></trkpt><trkpt lat="43.5805183" lon="10.7056917"><ele>37.0</ele><time>2026-04-04T14:22:12.013Z</time></trkpt><trkpt lat="43.5805167" lon="10.7058333"><ele>37.0</ele><time>2026-04-04T14:22:13.013Z</time></trkpt><trkpt lat="43.5805117" lon="10.7059833"><ele>37.0</ele><time>2026-04-04T14:22:14.011Z</time></trkpt><trkpt lat="43.5805067" lon="10.7061367"><ele>37.0</ele><time>2026-04-04T14:22:15.012Z</time></trkpt><trkpt lat="43.5805083" lon="10.7062883"><ele>37.0</ele><time>2026-04-04T14:22:16.012Z</time></trkpt><trkpt lat="43.5805117" lon="10.7064333"><ele>37.0</ele><time>2026-04-04T14:22:17.011Z</time></trkpt><trkpt lat="43.58051" lon="10.70658"><ele>37.0</ele><time>2026-04-04T14:22:18.011Z</time></trkpt><trkpt lat="43.58051" lon="10.7067317"><ele>37.0</ele><time>2026-04-04T14:22:19.009Z</time></trkpt><trkpt lat="43.5805067" lon="10.706885"><ele>37.0</ele><time>2026-04-04T14:22:20.012Z</time></trkpt><trkpt lat="43.5805033" lon="10.707045"><ele>37.0</ele><time>2026-04-04T14:22:21.013Z</time></trkpt><trkpt lat="43.5804983" lon="10.7072067"><ele>37.0</ele><time>2026-04-04T14:22:22.012Z</time></trkpt><trkpt lat="43.5804967" lon="10.7073783"><ele>37.25</ele><time>2026-04-04T14:22:23.011Z</time></trkpt><trkpt lat="43.580495" lon="10.7075517"><ele>37.5</ele><time>2026-04-04T14:22:24.011Z</time></trkpt><trkpt lat="43.5804933" lon="10.70773"><ele>37.75</ele><time>2026-04-04T14:22:25.012Z</time></trkpt><trkpt lat="43.58049" lon="10.7079117"><ele>38.0</ele><time>2026-04-04T14:22:26.013Z</time></trkpt><trkpt lat="43.5804867" lon="10.7080967"><ele>37.5</ele><time>2026-04-04T14:22:27.011Z</time></trkpt><trkpt lat="43.58048" lon="10.7082833"><ele>37.0</ele><time>2026-04-04T14:22:28.013Z</time></trkpt><trkpt lat="43.580475" lon="10.708465"><ele>36.5</ele><time>2026-04-04T14:22:29.012Z</time></trkpt><trkpt lat="43.580475" lon="10.7086267"><ele>36.0</ele><time>2026-04-04T14:22:30.013Z</time></trkpt><trkpt lat="43.5804717" lon="10.708785"><ele>35.666666666666664</ele><time>2026-04-04T14:22:31.013Z</time></trkpt><trkpt lat="43.5804683" lon="10.7089633"><ele>35.33333333333333</ele><time>2026-04-04T14:22:32.013Z</time></trkpt><trkpt lat="43.580465" lon="10.7091833"><ele>35.0</ele><time>2026-04-04T14:22:33.013Z</time></trkpt><trkpt lat="43.5804633" lon="10.7094517"><ele>35.0</ele><time>2026-04-04T14:22:34.013Z</time></trkpt><trkpt lat="43.5804583" lon="10.7097517"><ele>35.0</ele><time>2026-04-04T14:22:35.014Z</time></trkpt><trkpt lat="43.580455" lon="10.7100667"><ele>35.0</ele><time>2026-04-04T14:22:36.013Z</time></trkpt><trkpt lat="43.5804533" lon="10.7103883"><ele>36.0</ele><time>2026-04-04T14:22:37.012Z</time></trkpt><trkpt lat="43.58045" lon="10.71071"><ele>37.0</ele><time>2026-04-04T14:22:38.011Z</time></trkpt><trkpt lat="43.580445" lon="10.7110367"><ele>36.5</ele><time>2026-04-04T14:22:39.012Z</time></trkpt><trkpt lat="43.5804417" lon="10.711365"><ele>36.0</ele><time>2026-04-04T14:22:40.013Z</time></trkpt><trkpt lat="43.58044" lon="10.7116933"><ele>36.0</ele><time>2026-04-04T14:22:41.011Z</time></trkpt><trkpt lat="43.5804367" lon="10.71202"><ele>36.0</ele><time>2026-04-04T14:22:42.013Z</time></trkpt><trkpt lat="43.5804333" lon="10.712345"><ele>36.0</ele><time>2026-04-04T14:22:43.012Z</time></trkpt><trkpt lat="43.58043" lon="10.7126733"><ele>36.0</ele><time>2026-04-04T14:22:44.011Z</time></trkpt><trkpt lat="43.5804283" lon="10.713"><ele>37.0</ele><time>2026-04-04T14:22:45.013Z</time></trkpt><trkpt lat="43.580425" lon="10.71333"><ele>38.0</ele><time>2026-04-04T14:22:46.012Z</time></trkpt><trkpt lat="43.58042" lon="10.71366"><ele>38.5</ele><time>2026-04-04T14:22:47.01Z</time></trkpt><trkpt lat="43.580415" lon="10.713995"><ele>39.0</ele><time>2026-04-04T14:22:48.013Z</time></trkpt><trkpt lat="43.5804117" lon="10.7143333"><ele>39.5</ele><time>2026-04-04T14:22:49.012Z</time></trkpt><trkpt lat="43.580405" lon="10.7146733"><ele>40.0</ele><time>2026-04-04T14:22:50.013Z</time></trkpt><trkpt lat="43.5803983" lon="10.7150183"><ele>40.0</ele><time>2026-04-04T14:22:51.013Z</time></trkpt><trkpt lat="43.58039" lon="10.715365"><ele>40.0</ele><time>2026-04-04T14:22:52.013Z</time></trkpt><trkpt lat="43.5803817" lon="10.715715"><ele>40.0</ele><time>2026-04-04T14:22:53.013Z</time></trkpt><trkpt lat="43.5803767" lon="10.7160633"><ele>40.0</ele><time>2026-04-04T14:22:54.014Z</time></trkpt><trkpt lat="43.58037" lon="10.716415"><ele>40.0</ele><time>2026-04-04T14:22:55.014Z</time></trkpt><trkpt lat="43.580365" lon="10.7167667"><ele>40.0</ele><time>2026-04-04T14:22:56.013Z</time></trkpt><trkpt lat="43.58036" lon="10.7171133"><ele>40.0</ele><time>2026-04-04T14:22:57.013Z</time></trkpt><trkpt lat="43.580355" lon="10.7174533"><ele>40.0</ele><time>2026-04-04T14:22:58.01Z</time></trkpt><trkpt lat="43.5803533" lon="10.7177867"><ele>39.5</ele><time>2026-04-04T14:22:59.012Z</time></trkpt><trkpt lat="43.5803567" lon="10.718115"><ele>39.0</ele><time>2026-04-04T14:23:00.012Z</time></trkpt><trkpt lat="43.5803683" lon="10.7184367"><ele>39.5</ele><time>2026-04-04T14:23:01.012Z</time></trkpt><trkpt lat="43.5804067" lon="10.718755"><ele>40.0</ele><time>2026-04-04T14:23:02.012Z</time></trkpt><trkpt lat="43.580475" lon="10.7190733"><ele>40.0</ele><time>2026-04-04T14:23:03.011Z</time></trkpt><trkpt lat="43.580565" lon="10.7193883"><ele>40.0</ele><time>2026-04-04T14:23:04.012Z</time></trkpt><trkpt lat="43.5806767" lon="10.7196917"><ele>40.0</ele><time>2026-04-04T14:23:05.012Z</time></trkpt><trkpt lat="43.5808167" lon="10.7199733"><ele>40.0</ele><time>2026-04-04T14:23:06.011Z</time></trkpt><trkpt lat="43.5809667" lon="10.7202217"><ele>39.66666666666667</ele><time>2026-04-04T14:23:07.01Z</time></trkpt><trkpt lat="43.5811083" lon="10.7204383"><ele>39.333333333333336</ele><time>2026-04-04T14:23:08.013Z</time></trkpt><trkpt lat="43.5812467" lon="10.7206433"><ele>39.0</ele><time>2026-04-04T14:23:09.013Z</time></trkpt><trkpt lat="43.58139" lon="10.72085"><ele>39.333333333333336</ele><time>2026-04-04T14:23:10.012Z</time></trkpt><trkpt lat="43.581535" lon="10.7210617"><ele>39.66666666666667</ele><time>2026-04-04T14:23:11.014Z</time></trkpt><trkpt lat="43.5816817" lon="10.7212733"><ele>40.0</ele><time>2026-04-04T14:23:12.012Z</time></trkpt><trkpt lat="43.5818267" lon="10.7214867"><ele>40.0</ele><time>2026-04-04T14:23:13.013Z</time></trkpt><trkpt lat="43.5819617" lon="10.7217033"><ele>40.0</ele><time>2026-04-04T14:23:14.011Z</time></trkpt><trkpt lat="43.58209" lon="10.7219"><ele>40.0</ele><time>2026-04-04T14:23:15.013Z</time></trkpt><trkpt lat="43.5822133" lon="10.722085"><ele>40.333333333333336</ele><time>2026-04-04T14:23:16.012Z</time></trkpt><trkpt lat="43.582325" lon="10.7222583"><ele>40.666666666666664</ele><time>2026-04-04T14:23:17.011Z</time></trkpt><trkpt lat="43.582425" lon="10.7224133"><ele>41.0</ele><time>2026-04-04T14:23:18.012Z</time></trkpt><trkpt lat="43.5825217" lon="10.7225483"><ele>41.0</ele><time>2026-04-04T14:23:19.013Z</time></trkpt><trkpt lat="43.58259" lon="10.7226733"><ele>41.0</ele><time>2026-04-04T14:23:20.013Z</time></trkpt><trkpt lat="43.5826333" lon="10.7227883"><ele>41.0</ele><time>2026-04-04T14:23:21.013Z</time></trkpt><trkpt lat="43.58265" lon="10.72289"><ele>41.0</ele><time>2026-04-04T14:23:22.013Z</time></trkpt><trkpt lat="43.5826433" lon="10.722985"><ele>41.0</ele><time>2026-04-04T14:23:23.013Z</time></trkpt><trkpt lat="43.58261" lon="10.72308"><ele>41.0</ele><time>2026-04-04T14:23:24.013Z</time></trkpt><trkpt lat="43.582535" lon="10.723175"><ele>43.0</ele><time>2026-04-04T14:23:25.013Z</time></trkpt><trkpt lat="43.58243" lon="10.7232767"><ele>45.0</ele><time>2026-04-04T14:23:26.011Z</time></trkpt><trkpt lat="43.5822933" lon="10.72339"><ele>47.0</ele><time>2026-04-04T14:23:27.013Z</time></trkpt><trkpt lat="43.5821583" lon="10.7235183"><ele>47.0</ele><time>2026-04-04T14:23:28.012Z</time></trkpt><trkpt lat="43.5820117" lon="10.7236633"><ele>47.0</ele><time>2026-04-04T14:23:29.012Z</time></trkpt><trkpt lat="43.5818633" lon="10.72382"><ele>47.0</ele><time>2026-04-04T14:23:30.013Z</time></trkpt><trkpt lat="43.581715" lon="10.7239867"><ele>47.0</ele><time>2026-04-04T14:23:31.013Z</time></trkpt><trkpt lat="43.581575" lon="10.7241767"><ele>47.0</ele><time>2026-04-04T14:23:32.013Z</time></trkpt><trkpt lat="43.5814483" lon="10.7243933"><ele>47.0</ele><time>2026-04-04T14:23:33.013Z</time></trkpt><trkpt lat="43.5813283" lon="10.72463"><ele>47.33333333333333</ele><time>2026-04-04T14:23:34.01Z</time></trkpt><trkpt lat="43.5812167" lon="10.7248867"><ele>47.666666666666664</ele><time>2026-04-04T14:23:35.012Z</time></trkpt><trkpt lat="43.5810933" lon="10.725145"><ele>48.0</ele><time>2026-04-04T14:23:36.013Z</time></trkpt><trkpt lat="43.5809783" lon="10.725395"><ele>48.0</ele><time>2026-04-04T14:23:37.012Z</time></trkpt><trkpt lat="43.5808617" lon="10.725635"><ele>48.0</ele><time>2026-04-04T14:23:38.012Z</time></trkpt><trkpt lat="43.5807517" lon="10.7258617"><ele>48.0</ele><time>2026-04-04T14:23:39.013Z</time></trkpt><trkpt lat="43.5806483" lon="10.7260733"><ele>48.33333333333333</ele><time>2026-04-04T14:23:40.012Z</time></trkpt><trkpt lat="43.58055" lon="10.72627"><ele>48.666666666666664</ele><time>2026-04-04T14:23:41.013Z</time></trkpt><trkpt lat="43.580445" lon="10.7264433"><ele>49.0</ele><time>2026-04-04T14:23:42.012Z</time></trkpt><trkpt lat="43.5803283" lon="10.7265867"><ele>47.666666666666664</ele><time>2026-04-04T14:23:43.013Z</time></trkpt><trkpt lat="43.58019" lon="10.72671"><ele>46.33333333333333</ele><time>2026-04-04T14:23:44.012Z</time></trkpt><trkpt lat="43.58003" lon="10.726815"><ele>45.0</ele><time>2026-04-04T14:23:45.013Z</time></trkpt><trkpt lat="43.57985" lon="10.7268983"><ele>45.0</ele><time>2026-04-04T14:23:46.014Z</time></trkpt><trkpt lat="43.57966" lon="10.7269517"><ele>45.0</ele><time>2026-04-04T14:23:47.013Z</time></trkpt><trkpt lat="43.5794567" lon="10.7269883"><ele>45.0</ele><time>2026-04-04T14:23:48.013Z</time></trkpt><trkpt lat="43.57924" lon="10.7270167"><ele>44.0</ele><time>2026-04-04T14:23:49.013Z</time></trkpt><trkpt lat="43.5790117" lon="10.7270517"><ele>43.0</ele><time>2026-04-04T14:23:50.012Z</time></trkpt><trkpt lat="43.5787817" lon="10.7270883"><ele>43.0</ele><time>2026-04-04T14:23:51.012Z</time></trkpt><trkpt lat="43.5785533" lon="10.7271183"><ele>43.0</ele><time>2026-04-04T14:23:52.013Z</time></trkpt><trkpt lat="43.5783267" lon="10.7271433"><ele>43.0</ele><time>2026-04-04T14:23:53.012Z</time></trkpt><trkpt lat="43.5781117" lon="10.7271683"><ele>43.0</ele><time>2026-04-04T14:23:54.012Z</time></trkpt><trkpt lat="43.5778967" lon="10.727195"><ele>43.0</ele><time>2026-04-04T14:23:55.011Z</time></trkpt><trkpt lat="43.5776883" lon="10.72721"><ele>44.0</ele><time>2026-04-04T14:23:56.013Z</time></trkpt><trkpt lat="43.577475" lon="10.7272017"><ele>45.0</ele><time>2026-04-04T14:23:57.013Z</time></trkpt><trkpt lat="43.577265" lon="10.72717"><ele>46.0</ele><time>2026-04-04T14:23:58.012Z</time></trkpt><trkpt lat="43.5770467" lon="10.7270933"><ele>47.333333333333336</ele><time>2026-04-04T14:23:59.013Z</time></trkpt><trkpt lat="43.5768333" lon="10.7270017"><ele>48.66666666666667</ele><time>2026-04-04T14:24:00.013Z</time></trkpt><trkpt lat="43.5766167" lon="10.7269283"><ele>50.0</ele><time>2026-04-04T14:24:01.012Z</time></trkpt><trkpt lat="43.576395" lon="10.726875"><ele>50.333333333333336</ele><time>2026-04-04T14:24:02.012Z</time></trkpt><trkpt lat="43.576175" lon="10.72685"><ele>50.66666666666667</ele><time>2026-04-04T14:24:03.013Z</time></trkpt><trkpt lat="43.5759483" lon="10.7268533"><ele>51.0</ele><time>2026-04-04T14:24:04.012Z</time></trkpt><trkpt lat="43.5757183" lon="10.7268783"><ele>56.5</ele><time>2026-04-04T14:24:05.012Z</time></trkpt><trkpt lat="43.5754817" lon="10.726915"><ele>62.0</ele><time>2026-04-04T14:24:06.011Z</time></trkpt><trkpt lat="43.575245" lon="10.7269517"><ele>64.5</ele><time>2026-04-04T14:24:07.013Z</time></trkpt><trkpt lat="43.575005" lon="10.72699"><ele>67.0</ele><time>2026-04-04T14:24:08.013Z</time></trkpt><trkpt lat="43.5747617" lon="10.72702"><ele>67.0</ele><time>2026-04-04T14:24:09.014Z</time></trkpt><trkpt lat="43.5745217" lon="10.7270483"><ele>67.0</ele><time>2026-04-04T14:24:10.012Z</time></trkpt><trkpt lat="43.5742783" lon="10.727075"><ele>67.0</ele><time>2026-04-04T14:24:11.013Z</time></trkpt><trkpt lat="43.5740417" lon="10.7271033"><ele>67.0</ele><time>2026-04-04T14:24:12.013Z</time></trkpt><trkpt lat="43.5738083" lon="10.727125"><ele>68.0</ele><time>2026-04-04T14:24:13.012Z</time></trkpt><trkpt lat="43.57358" lon="10.72715"><ele>69.0</ele><time>2026-04-04T14:24:14.012Z</time></trkpt><trkpt lat="43.5733583" lon="10.72718"><ele>69.0</ele><time>2026-04-04T14:24:15.014Z</time></trkpt><trkpt lat="43.5731367" lon="10.7272133"><ele>69.0</ele><time>2026-04-04T14:24:16.013Z</time></trkpt><trkpt lat="43.57293" lon="10.7272417"><ele>69.0</ele><time>2026-04-04T14:24:17.012Z</time></trkpt><trkpt lat="43.5727233" lon="10.72726"><ele>67.33333333333333</ele><time>2026-04-04T14:24:18.013Z</time></trkpt><trkpt lat="43.5725117" lon="10.7272917"><ele>65.66666666666666</ele><time>2026-04-04T14:24:19.012Z</time></trkpt><trkpt lat="43.5723" lon="10.727335"><ele>64.0</ele><time>2026-04-04T14:24:20.013Z</time></trkpt><trkpt lat="43.5720867" lon="10.7273917"><ele>62.666666666666664</ele><time>2026-04-04T14:24:21.012Z</time></trkpt><trkpt lat="43.571875" lon="10.7274583"><ele>61.33333333333333</ele><time>2026-04-04T14:24:22.013Z</time></trkpt><trkpt lat="43.5716617" lon="10.7275467"><ele>60.0</ele><time>2026-04-04T14:24:23.012Z</time></trkpt><trkpt lat="43.57145" lon="10.7276533"><ele>58.0</ele><time>2026-04-04T14:24:24.013Z</time></trkpt><trkpt lat="43.5712283" lon="10.72777"><ele>56.0</ele><time>2026-04-04T14:24:25.012Z</time></trkpt><trkpt lat="43.5710083" lon="10.72789"><ele>56.0</ele><time>2026-04-04T14:24:26.011Z</time></trkpt><trkpt lat="43.570775" lon="10.728005"><ele>56.0</ele><time>2026-04-04T14:24:27.013Z</time></trkpt><trkpt lat="43.5705417" lon="10.728125"><ele>52.0</ele><time>2026-04-04T14:24:28.012Z</time></trkpt><trkpt lat="43.5703067" lon="10.728245"><ele>48.0</ele><time>2026-04-04T14:24:29.012Z</time></trkpt><trkpt lat="43.57007" lon="10.728365"><ele>48.0</ele><time>2026-04-04T14:24:30.013Z</time></trkpt><trkpt lat="43.5698317" lon="10.7284933"><ele>48.0</ele><time>2026-04-04T14:24:31.013Z</time></trkpt><trkpt lat="43.5695933" lon="10.7286183"><ele>48.5</ele><time>2026-04-04T14:24:32.012Z</time></trkpt><trkpt lat="43.569365" lon="10.7287433"><ele>49.0</ele><time>2026-04-04T14:24:33.013Z</time></trkpt><trkpt lat="43.5691517" lon="10.7288617"><ele>49.0</ele><time>2026-04-04T14:24:34.012Z</time></trkpt><trkpt lat="43.5689517" lon="10.72901"><ele>49.0</ele><time>2026-04-04T14:24:35.012Z</time></trkpt><trkpt lat="43.56876" lon="10.7291833"><ele>48.0</ele><time>2026-04-04T14:24:36.013Z</time></trkpt><trkpt lat="43.56858" lon="10.7293833"><ele>47.0</ele><time>2026-04-04T14:24:37.013Z</time></trkpt><trkpt lat="43.5684117" lon="10.729605"><ele>50.0</ele><time>2026-04-04T14:24:38.012Z</time></trkpt><trkpt lat="43.5682533" lon="10.7298483"><ele>53.0</ele><time>2026-04-04T14:24:39.013Z</time></trkpt><trkpt lat="43.5681017" lon="10.7301017"><ele>55.0</ele><time>2026-04-04T14:24:40.013Z</time></trkpt><trkpt lat="43.56796" lon="10.7303683"><ele>57.0</ele><time>2026-04-04T14:24:41.013Z</time></trkpt><trkpt lat="43.5678383" lon="10.7306483"><ele>53.5</ele><time>2026-04-04T14:24:42.013Z</time></trkpt><trkpt lat="43.5677383" lon="10.7309483"><ele>50.0</ele><time>2026-04-04T14:24:43.012Z</time></trkpt><trkpt lat="43.567665" lon="10.731265"><ele>50.0</ele><time>2026-04-04T14:24:44.013Z</time></trkpt><trkpt lat="43.56761" lon="10.7316"><ele>50.0</ele><time>2026-04-04T14:24:45.012Z</time></trkpt><trkpt lat="43.567565" lon="10.7319467"><ele>50.0</ele><time>2026-04-04T14:24:46.013Z</time></trkpt><trkpt lat="43.5675267" lon="10.7323"><ele>50.0</ele><time>2026-04-04T14:24:47.013Z</time></trkpt><trkpt lat="43.56748" lon="10.7326567"><ele>49.5</ele><time>2026-04-04T14:24:48.013Z</time></trkpt><trkpt lat="43.5674383" lon="10.73302"><ele>49.0</ele><time>2026-04-04T14:24:49.012Z</time></trkpt><trkpt lat="43.5674" lon="10.7333867"><ele>50.5</ele><time>2026-04-04T14:24:50.012Z</time></trkpt><trkpt lat="43.5673633" lon="10.7337567"><ele>52.0</ele><time>2026-04-04T14:24:51.013Z</time></trkpt><trkpt lat="43.5673233" lon="10.73413"><ele>55.0</ele><time>2026-04-04T14:24:52.012Z</time></trkpt><trkpt lat="43.567285" lon="10.7345"><ele>58.0</ele><time>2026-04-04T14:24:53.012Z</time></trkpt><trkpt lat="43.56724" lon="10.7348667"><ele>56.5</ele><time>2026-04-04T14:24:54.012Z</time></trkpt><trkpt lat="43.5671883" lon="10.7352233"><ele>55.0</ele><time>2026-04-04T14:24:55.013Z</time></trkpt><trkpt lat="43.5671167" lon="10.7355733"><ele>52.0</ele><time>2026-04-04T14:24:56.012Z</time></trkpt><trkpt lat="43.5670167" lon="10.7359017"><ele>49.0</ele><time>2026-04-04T14:24:57.011Z</time></trkpt><trkpt lat="43.56689" lon="10.7361933"><ele>49.0</ele><time>2026-04-04T14:24:58.011Z</time></trkpt><trkpt lat="43.5667483" lon="10.7364517"><ele>49.0</ele><time>2026-04-04T14:24:59.011Z</time></trkpt><trkpt lat="43.5666083" lon="10.7366883"><ele>50.33333333333333</ele><time>2026-04-04T14:25:00.012Z</time></trkpt><trkpt lat="43.5664783" lon="10.736915"><ele>51.66666666666667</ele><time>2026-04-04T14:25:01.012Z</time></trkpt><trkpt lat="43.5663533" lon="10.7371467"><ele>53.0</ele><time>2026-04-04T14:25:02.012Z</time></trkpt><trkpt lat="43.566225" lon="10.7373767"><ele>52.333333333333336</ele><time>2026-04-04T14:25:03.013Z</time></trkpt><trkpt lat="43.56609" lon="10.7376067"><ele>51.66666666666667</ele><time>2026-04-04T14:25:04.012Z</time></trkpt><trkpt lat="43.5659617" lon="10.7378383"><ele>51.0</ele><time>2026-04-04T14:25:05.011Z</time></trkpt><trkpt lat="43.5658317" lon="10.7380733"><ele>51.0</ele><time>2026-04-04T14:25:06.013Z</time></trkpt><trkpt lat="43.565705" lon="10.7383067"><ele>51.0</ele><time>2026-04-04T14:25:07.012Z</time></trkpt><trkpt lat="43.5655767" lon="10.7385367"><ele>51.0</ele><time>2026-04-04T14:25:08.012Z</time></trkpt><trkpt lat="43.5654483" lon="10.738765"><ele>51.0</ele><time>2026-04-04T14:25:09.013Z</time></trkpt><trkpt lat="43.565315" lon="10.738995"><ele>51.0</ele><time>2026-04-04T14:25:10.013Z</time></trkpt><trkpt lat="43.565185" lon="10.7392283"><ele>51.0</ele><time>2026-04-04T14:25:11.012Z</time></trkpt><trkpt lat="43.5650583" lon="10.7394667"><ele>51.66666666666667</ele><time>2026-04-04T14:25:12.013Z</time></trkpt><trkpt lat="43.56493" lon="10.739705"><ele>52.333333333333336</ele><time>2026-04-04T14:25:13.011Z</time></trkpt><trkpt lat="43.564795" lon="10.7399467"><ele>53.0</ele><time>2026-04-04T14:25:14.013Z</time></trkpt><trkpt lat="43.56466" lon="10.7401933"><ele>52.0</ele><time>2026-04-04T14:25:15.013Z</time></trkpt><trkpt lat="43.564525" lon="10.7404433"><ele>51.0</ele><time>2026-04-04T14:25:16.013Z</time></trkpt><trkpt lat="43.5643817" lon="10.7406983"><ele>51.0</ele><time>2026-04-04T14:25:17.012Z</time></trkpt><trkpt lat="43.5642333" lon="10.74096"><ele>51.0</ele><time>2026-04-04T14:25:18.014Z</time></trkpt><trkpt lat="43.5640833" lon="10.7412283"><ele>54.0</ele><time>2026-04-04T14:25:19.013Z</time></trkpt><trkpt lat="43.56393" lon="10.7414983"><ele>57.0</ele><time>2026-04-04T14:25:20.013Z</time></trkpt><trkpt lat="43.5637717" lon="10.7417683"><ele>56.0</ele><time>2026-04-04T14:25:21.012Z</time></trkpt><trkpt lat="43.5636167" lon="10.74204"><ele>55.0</ele><time>2026-04-04T14:25:22.012Z</time></trkpt><trkpt lat="43.5634683" lon="10.7423117"><ele>55.0</ele><time>2026-04-04T14:25:23.012Z</time></trkpt><trkpt lat="43.5633183" lon="10.7425833"><ele>55.0</ele><time>2026-04-04T14:25:24.013Z</time></trkpt><trkpt lat="43.563165" lon="10.7428467"><ele>56.5</ele><time>2026-04-04T14:25:25.014Z</time></trkpt><trkpt lat="43.5630083" lon="10.7431083"><ele>58.0</ele><time>2026-04-04T14:25:26.013Z</time></trkpt><trkpt lat="43.56285" lon="10.7433683"><ele>56.5</ele><time>2026-04-04T14:25:27.012Z</time></trkpt><trkpt lat="43.562695" lon="10.743635"><ele>55.0</ele><time>2026-04-04T14:25:28.012Z</time></trkpt><trkpt lat="43.56255" lon="10.7439117"><ele>55.0</ele><time>2026-04-04T14:25:29.013Z</time></trkpt><trkpt lat="43.5624217" lon="10.7442017"><ele>55.0</ele><time>2026-04-04T14:25:30.013Z</time></trkpt><trkpt lat="43.5623167" lon="10.744505"><ele>56.5</ele><time>2026-04-04T14:25:31.011Z</time></trkpt><trkpt lat="43.562245" lon="10.7448133"><ele>58.0</ele><time>2026-04-04T14:25:32.012Z</time></trkpt><trkpt lat="43.562195" lon="10.745125"><ele>58.0</ele><time>2026-04-04T14:25:33.014Z</time></trkpt><trkpt lat="43.5621633" lon="10.7454467"><ele>58.0</ele><time>2026-04-04T14:25:34.013Z</time></trkpt><trkpt lat="43.5621417" lon="10.7457717"><ele>56.0</ele><time>2026-04-04T14:25:35.012Z</time></trkpt><trkpt lat="43.562135" lon="10.746105"><ele>54.0</ele><time>2026-04-04T14:25:36.013Z</time></trkpt><trkpt lat="43.5621483" lon="10.74644"><ele>54.0</ele><time>2026-04-04T14:25:37.012Z</time></trkpt><trkpt lat="43.5621917" lon="10.7467717"><ele>54.0</ele><time>2026-04-04T14:25:38.013Z</time></trkpt><trkpt lat="43.5622583" lon="10.7470933"><ele>53.5</ele><time>2026-04-04T14:25:39.013Z</time></trkpt><trkpt lat="43.5623417" lon="10.74741"><ele>53.0</ele><time>2026-04-04T14:25:40.013Z</time></trkpt><trkpt lat="43.56244" lon="10.7477217"><ele>53.0</ele><time>2026-04-04T14:25:41.012Z</time></trkpt><trkpt lat="43.5625433" lon="10.7480333"><ele>53.0</ele><time>2026-04-04T14:25:42.012Z</time></trkpt><trkpt lat="43.5626467" lon="10.7483367"><ele>52.5</ele><time>2026-04-04T14:25:43.012Z</time></trkpt><trkpt lat="43.5627483" lon="10.7486283"><ele>52.0</ele><time>2026-04-04T14:25:44.012Z</time></trkpt><trkpt lat="43.5628433" lon="10.74891"><ele>53.33333333333333</ele><time>2026-04-04T14:25:45.012Z</time></trkpt><trkpt lat="43.56294" lon="10.7491883"><ele>54.66666666666667</ele><time>2026-04-04T14:25:46.012Z</time></trkpt><trkpt lat="43.563035" lon="10.7494667"><ele>56.0</ele><time>2026-04-04T14:25:47.011Z</time></trkpt><trkpt lat="43.5631283" lon="10.7497383"><ele>56.333333333333336</ele><time>2026-04-04T14:25:48.013Z</time></trkpt><trkpt lat="43.5632183" lon="10.750005"><ele>56.66666666666667</ele><time>2026-04-04T14:25:49.012Z</time></trkpt><trkpt lat="43.56331" lon="10.750265"><ele>57.0</ele><time>2026-04-04T14:25:50.012Z</time></trkpt><trkpt lat="43.5634033" lon="10.750525"><ele>55.66666666666667</ele><time>2026-04-04T14:25:51.014Z</time></trkpt><trkpt lat="43.5634967" lon="10.75079"><ele>54.333333333333336</ele><time>2026-04-04T14:25:52.012Z</time></trkpt><trkpt lat="43.5635917" lon="10.7510517"><ele>53.0</ele><time>2026-04-04T14:25:53.012Z</time></trkpt><trkpt lat="43.5636867" lon="10.751315"><ele>55.333333333333336</ele><time>2026-04-04T14:25:54.013Z</time></trkpt><trkpt lat="43.563785" lon="10.7515833"><ele>57.66666666666667</ele><time>2026-04-04T14:25:55.014Z</time></trkpt><trkpt lat="43.5638767" lon="10.751855"><ele>60.0</ele><time>2026-04-04T14:25:56.014Z</time></trkpt><trkpt lat="43.5639683" lon="10.7521317"><ele>60.0</ele><time>2026-04-04T14:25:57.014Z</time></trkpt><trkpt lat="43.56406" lon="10.7524083"><ele>60.0</ele><time>2026-04-04T14:25:58.013Z</time></trkpt><trkpt lat="43.5641633" lon="10.7526917"><ele>57.0</ele><time>2026-04-04T14:25:59.012Z</time></trkpt><trkpt lat="43.5642833" lon="10.752965"><ele>54.0</ele><time>2026-04-04T14:26:00.013Z</time></trkpt><trkpt lat="43.5644233" lon="10.7532233"><ele>55.5</ele><time>2026-04-04T14:26:01.013Z</time></trkpt><trkpt lat="43.5645817" lon="10.7534617"><ele>57.0</ele><time>2026-04-04T14:26:02.013Z</time></trkpt><trkpt lat="43.5647617" lon="10.7536767"><ele>57.0</ele><time>2026-04-04T14:26:03.013Z</time></trkpt><trkpt lat="43.5649517" lon="10.7538733"><ele>57.0</ele><time>2026-04-04T14:26:04.012Z</time></trkpt><trkpt lat="43.5651533" lon="10.7540517"><ele>57.0</ele><time>2026-04-04T14:26:05.012Z</time></trkpt><trkpt lat="43.56536" lon="10.7542167"><ele>57.0</ele><time>2026-04-04T14:26:06.014Z</time></trkpt><trkpt lat="43.5655683" lon="10.75438"><ele>56.5</ele><time>2026-04-04T14:26:07.013Z</time></trkpt><trkpt lat="43.5657767" lon="10.7545333"><ele>56.0</ele><time>2026-04-04T14:26:08.013Z</time></trkpt><trkpt lat="43.56599" lon="10.75469"><ele>57.0</ele><time>2026-04-04T14:26:09.013Z</time></trkpt><trkpt lat="43.5662017" lon="10.7548517"><ele>58.0</ele><time>2026-04-04T14:26:10.012Z</time></trkpt><trkpt lat="43.566405" lon="10.7550133"><ele>58.0</ele><time>2026-04-04T14:26:11.012Z</time></trkpt><trkpt lat="43.5666067" lon="10.755185"><ele>58.0</ele><time>2026-04-04T14:26:12.012Z</time></trkpt><trkpt lat="43.5668083" lon="10.7553617"><ele>58.0</ele><time>2026-04-04T14:26:13.013Z</time></trkpt><trkpt lat="43.5670033" lon="10.755535"><ele>58.0</ele><time>2026-04-04T14:26:14.013Z</time></trkpt><trkpt lat="43.567205" lon="10.7557067"><ele>58.0</ele><time>2026-04-04T14:26:15.014Z</time></trkpt><trkpt lat="43.5674033" lon="10.75588"><ele>58.0</ele><time>2026-04-04T14:26:16.013Z</time></trkpt><trkpt lat="43.5676017" lon="10.75605"><ele>58.5</ele><time>2026-04-04T14:26:17.012Z</time></trkpt><trkpt lat="43.5678017" lon="10.7562183"><ele>59.0</ele><time>2026-04-04T14:26:18.014Z</time></trkpt><trkpt lat="43.5680017" lon="10.756385"><ele>59.0</ele><time>2026-04-04T14:26:19.013Z</time></trkpt><trkpt lat="43.5682067" lon="10.7565567"><ele>59.0</ele><time>2026-04-04T14:26:20.012Z</time></trkpt><trkpt lat="43.5684167" lon="10.756725"><ele>58.0</ele><time>2026-04-04T14:26:21.012Z</time></trkpt><trkpt lat="43.568625" lon="10.7568883"><ele>57.0</ele><time>2026-04-04T14:26:22.013Z</time></trkpt><trkpt lat="43.5688283" lon="10.7570583"><ele>57.0</ele><time>2026-04-04T14:26:23.011Z</time></trkpt><trkpt lat="43.5690317" lon="10.7572317"><ele>57.0</ele><time>2026-04-04T14:26:24.013Z</time></trkpt><trkpt lat="43.569235" lon="10.7574117"><ele>57.0</ele><time>2026-04-04T14:26:25.011Z</time></trkpt><trkpt lat="43.5694367" lon="10.7575883"><ele>57.0</ele><time>2026-04-04T14:26:26.012Z</time></trkpt><trkpt lat="43.56964" lon="10.757765"><ele>58.5</ele><time>2026-04-04T14:26:27.011Z</time></trkpt><trkpt lat="43.569845" lon="10.757935"><ele>60.0</ele><time>2026-04-04T14:26:28.01Z</time></trkpt><trkpt lat="43.5700517" lon="10.7581033"><ele>60.0</ele><time>2026-04-04T14:26:29.014Z</time></trkpt><trkpt lat="43.5702567" lon="10.75827"><ele>60.0</ele><time>2026-04-04T14:26:30.013Z</time></trkpt><trkpt lat="43.5704567" lon="10.758445"><ele>59.0</ele><time>2026-04-04T14:26:31.013Z</time></trkpt><trkpt lat="43.570655" lon="10.75862"><ele>58.0</ele><time>2026-04-04T14:26:32.013Z</time></trkpt><trkpt lat="43.5708567" lon="10.7587917"><ele>58.0</ele><time>2026-04-04T14:26:33.014Z</time></trkpt><trkpt lat="43.5710517" lon="10.7589717"><ele>58.0</ele><time>2026-04-04T14:26:34.013Z</time></trkpt><trkpt lat="43.57124" lon="10.7591683"><ele>58.5</ele><time>2026-04-04T14:26:35.013Z</time></trkpt><trkpt lat="43.5714217" lon="10.7593783"><ele>59.0</ele><time>2026-04-04T14:26:36.013Z</time></trkpt><trkpt lat="43.571595" lon="10.7596017"><ele>59.0</ele><time>2026-04-04T14:26:37.012Z</time></trkpt><trkpt lat="43.5717583" lon="10.7598317"><ele>59.0</ele><time>2026-04-04T14:26:38.013Z</time></trkpt><trkpt lat="43.5719167" lon="10.76006"><ele>59.5</ele><time>2026-04-04T14:26:39.013Z</time></trkpt><trkpt lat="43.572075" lon="10.7602883"><ele>60.0</ele><time>2026-04-04T14:26:40.013Z</time></trkpt><trkpt lat="43.5722317" lon="10.76051"><ele>60.0</ele><time>2026-04-04T14:26:41.011Z</time></trkpt><trkpt lat="43.57238" lon="10.7607233"><ele>60.0</ele><time>2026-04-04T14:26:42.012Z</time></trkpt><trkpt lat="43.572525" lon="10.7609333"><ele>60.0</ele><time>2026-04-04T14:26:43.012Z</time></trkpt><trkpt lat="43.5726717" lon="10.7611433"><ele>59.33333333333333</ele><time>2026-04-04T14:26:44.011Z</time></trkpt><trkpt lat="43.572815" lon="10.761355"><ele>58.666666666666664</ele><time>2026-04-04T14:26:45.01Z</time></trkpt><trkpt lat="43.572965" lon="10.7615733"><ele>58.0</ele><time>2026-04-04T14:26:46.013Z</time></trkpt><trkpt lat="43.573115" lon="10.7617917"><ele>58.0</ele><time>2026-04-04T14:26:47.014Z</time></trkpt><trkpt lat="43.5732617" lon="10.7620033"><ele>58.0</ele><time>2026-04-04T14:26:48.01Z</time></trkpt><trkpt lat="43.5734083" lon="10.76221"><ele>58.0</ele><time>2026-04-04T14:26:49.013Z</time></trkpt><trkpt lat="43.57355" lon="10.7624117"><ele>60.0</ele><time>2026-04-04T14:26:50.013Z</time></trkpt><trkpt lat="43.57369" lon="10.7626133"><ele>62.0</ele><time>2026-04-04T14:26:51.014Z</time></trkpt><trkpt lat="43.573825" lon="10.76282"><ele>64.0</ele><time>2026-04-04T14:26:52.011Z</time></trkpt><trkpt lat="43.5739517" lon="10.7630133"><ele>64.0</ele><time>2026-04-04T14:26:53.012Z</time></trkpt><trkpt lat="43.5740733" lon="10.76319"><ele>64.0</ele><time>2026-04-04T14:26:54.013Z</time></trkpt><trkpt lat="43.5741883" lon="10.763365"><ele>64.0</ele><time>2026-04-04T14:26:55.011Z</time></trkpt><trkpt lat="43.5743067" lon="10.7635417"><ele>64.0</ele><time>2026-04-04T14:26:56.013Z</time></trkpt><trkpt lat="43.574435" lon="10.763725"><ele>64.0</ele><time>2026-04-04T14:26:57.013Z</time></trkpt><trkpt lat="43.5745633" lon="10.7639067"><ele>64.0</ele><time>2026-04-04T14:26:58.012Z</time></trkpt><trkpt lat="43.574695" lon="10.76409"><ele>64.0</ele><time>2026-04-04T14:26:59.012Z</time></trkpt><trkpt lat="43.57483" lon="10.7642733"><ele>64.0</ele><time>2026-04-04T14:27:00.013Z</time></trkpt><trkpt lat="43.57496" lon="10.7644483"><ele>64.0</ele><time>2026-04-04T14:27:01.012Z</time></trkpt><trkpt lat="43.5750883" lon="10.764615"><ele>63.0</ele><time>2026-04-04T14:27:02.012Z</time></trkpt><trkpt lat="43.5752117" lon="10.7647783"><ele>62.0</ele><time>2026-04-04T14:27:03.013Z</time></trkpt><trkpt lat="43.575335" lon="10.7649417"><ele>61.0</ele><time>2026-04-04T14:27:04.013Z</time></trkpt><trkpt lat="43.5754667" lon="10.765115"><ele>60.666666666666664</ele><time>2026-04-04T14:27:05.011Z</time></trkpt><trkpt lat="43.5756033" lon="10.7652967"><ele>60.33333333333333</ele><time>2026-04-04T14:27:06.013Z</time></trkpt><trkpt lat="43.57575" lon="10.7654783"><ele>60.0</ele><time>2026-04-04T14:27:07.012Z</time></trkpt><trkpt lat="43.5759017" lon="10.765665"><ele>60.0</ele><time>2026-04-04T14:27:08.012Z</time></trkpt><trkpt lat="43.576055" lon="10.7658567"><ele>60.0</ele><time>2026-04-04T14:27:09.013Z</time></trkpt><trkpt lat="43.5762067" lon="10.766055"><ele>60.0</ele><time>2026-04-04T14:27:10.012Z</time></trkpt><trkpt lat="43.5763617" lon="10.7662533"><ele>60.0</ele><time>2026-04-04T14:27:11.013Z</time></trkpt><trkpt lat="43.5765233" lon="10.766455"><ele>60.0</ele><time>2026-04-04T14:27:12.013Z</time></trkpt><trkpt lat="43.5766933" lon="10.766665"><ele>60.0</ele><time>2026-04-04T14:27:13.013Z</time></trkpt><trkpt lat="43.57687" lon="10.766885"><ele>61.5</ele><time>2026-04-04T14:27:14.014Z</time></trkpt><trkpt lat="43.57706" lon="10.767135"><ele>63.0</ele><time>2026-04-04T14:27:15.013Z</time></trkpt><trkpt lat="43.5772517" lon="10.7673867"><ele>63.0</ele><time>2026-04-04T14:27:16.012Z</time></trkpt><trkpt lat="43.5774467" lon="10.7676417"><ele>63.0</ele><time>2026-04-04T14:27:17.013Z</time></trkpt><trkpt lat="43.577635" lon="10.7678933"><ele>63.0</ele><time>2026-04-04T14:27:18.012Z</time></trkpt><trkpt lat="43.5778133" lon="10.768145"><ele>63.0</ele><time>2026-04-04T14:27:19.012Z</time></trkpt><trkpt lat="43.5779683" lon="10.7684167"><ele>63.0</ele><time>2026-04-04T14:27:20.013Z</time></trkpt><trkpt lat="43.5781133" lon="10.7687117"><ele>63.0</ele><time>2026-04-04T14:27:21.014Z</time></trkpt><trkpt lat="43.5782567" lon="10.7690183"><ele>63.0</ele><time>2026-04-04T14:27:22.014Z</time></trkpt><trkpt lat="43.5784083" lon="10.7693367"><ele>63.0</ele><time>2026-04-04T14:27:23.014Z</time></trkpt><trkpt lat="43.5785617" lon="10.7696667"><ele>63.0</ele><time>2026-04-04T14:27:24.013Z</time></trkpt><trkpt lat="43.57872" lon="10.7700117"><ele>63.0</ele><time>2026-04-04T14:27:25.013Z</time></trkpt><trkpt lat="43.57888" lon="10.770355"><ele>63.0</ele><time>2026-04-04T14:27:26.012Z</time></trkpt><trkpt lat="43.5790333" lon="10.7707033"><ele>63.0</ele><time>2026-04-04T14:27:27.013Z</time></trkpt><trkpt lat="43.57918" lon="10.7710467"><ele>63.0</ele><time>2026-04-04T14:27:28.013Z</time></trkpt><trkpt lat="43.5793217" lon="10.7713783"><ele>63.0</ele><time>2026-04-04T14:27:29.011Z</time></trkpt><trkpt lat="43.5794633" lon="10.771695"><ele>65.0</ele><time>2026-04-04T14:27:30.013Z</time></trkpt><trkpt lat="43.5795983" lon="10.7719933"><ele>67.0</ele><time>2026-04-04T14:27:31.012Z</time></trkpt><trkpt lat="43.5797333" lon="10.7722767"><ele>67.0</ele><time>2026-04-04T14:27:32.014Z</time></trkpt><trkpt lat="43.5798633" lon="10.7725517"><ele>67.0</ele><time>2026-04-04T14:27:33.012Z</time></trkpt><trkpt lat="43.5799983" lon="10.7728217"><ele>65.0</ele><time>2026-04-04T14:27:34.013Z</time></trkpt><trkpt lat="43.5801333" lon="10.77309"><ele>63.0</ele><time>2026-04-04T14:27:35.012Z</time></trkpt><trkpt lat="43.5802683" lon="10.7733583"><ele>64.5</ele><time>2026-04-04T14:27:36.013Z</time></trkpt><trkpt lat="43.5804033" lon="10.773635"><ele>66.0</ele><time>2026-04-04T14:27:37.013Z</time></trkpt><trkpt lat="43.58054" lon="10.7739117"><ele>66.0</ele><time>2026-04-04T14:27:38.012Z</time></trkpt><trkpt lat="43.580675" lon="10.7741933"><ele>66.0</ele><time>2026-04-04T14:27:39.014Z</time></trkpt><trkpt lat="43.5808117" lon="10.7744767"><ele>64.5</ele><time>2026-04-04T14:27:40.011Z</time></trkpt><trkpt lat="43.58095" lon="10.7747583"><ele>63.0</ele><time>2026-04-04T14:27:41.013Z</time></trkpt><trkpt lat="43.5810867" lon="10.7750467"><ele>65.0</ele><time>2026-04-04T14:27:42.011Z</time></trkpt><trkpt lat="43.5812317" lon="10.7753417"><ele>67.0</ele><time>2026-04-04T14:27:43.01Z</time></trkpt><trkpt lat="43.5813783" lon="10.775635"><ele>67.0</ele><time>2026-04-04T14:27:44.012Z</time></trkpt><trkpt lat="43.5815283" lon="10.7759233"><ele>67.0</ele><time>2026-04-04T14:27:45.011Z</time></trkpt><trkpt lat="43.581675" lon="10.776215"><ele>65.5</ele><time>2026-04-04T14:27:46.013Z</time></trkpt><trkpt lat="43.5818183" lon="10.7765083"><ele>64.0</ele><time>2026-04-04T14:27:47.01Z</time></trkpt><trkpt lat="43.5819567" lon="10.7768067"><ele>63.0</ele><time>2026-04-04T14:27:48.012Z</time></trkpt><trkpt lat="43.5820917" lon="10.7771067"><ele>62.0</ele><time>2026-04-04T14:27:49.012Z</time></trkpt><trkpt lat="43.5822233" lon="10.7774067"><ele>61.5</ele><time>2026-04-04T14:27:50.012Z</time></trkpt><trkpt lat="43.5823533" lon="10.7777033"><ele>61.0</ele><time>2026-04-04T14:27:51.013Z</time></trkpt><trkpt lat="43.5824833" lon="10.7779983"><ele>61.0</ele><time>2026-04-04T14:27:52.012Z</time></trkpt><trkpt lat="43.5826067" lon="10.7782983"><ele>61.0</ele><time>2026-04-04T14:27:53.011Z</time></trkpt><trkpt lat="43.5827267" lon="10.7785967"><ele>63.0</ele><time>2026-04-04T14:27:54.012Z</time></trkpt><trkpt lat="43.58285" lon="10.778895"><ele>65.0</ele><time>2026-04-04T14:27:55.011Z</time></trkpt><trkpt lat="43.582975" lon="10.7791933"><ele>64.5</ele><time>2026-04-04T14:27:56.012Z</time></trkpt><trkpt lat="43.5831017" lon="10.779495"><ele>64.0</ele><time>2026-04-04T14:27:57.012Z</time></trkpt><trkpt lat="43.5832267" lon="10.7798033"><ele>64.0</ele><time>2026-04-04T14:27:58.011Z</time></trkpt><trkpt lat="43.58335" lon="10.7801067"><ele>64.0</ele><time>2026-04-04T14:27:59.011Z</time></trkpt><trkpt lat="43.5834717" lon="10.780415"><ele>63.5</ele><time>2026-04-04T14:28:00.013Z</time></trkpt><trkpt lat="43.5835967" lon="10.78072"><ele>63.0</ele><time>2026-04-04T14:28:01.012Z</time></trkpt><trkpt lat="43.5837183" lon="10.7810183"><ele>64.5</ele><time>2026-04-04T14:28:02.01Z</time></trkpt><trkpt lat="43.58384" lon="10.7813117"><ele>66.0</ele><time>2026-04-04T14:28:03.012Z</time></trkpt><trkpt lat="43.58395" lon="10.7816017"><ele>66.5</ele><time>2026-04-04T14:28:04.013Z</time></trkpt><trkpt lat="43.58404" lon="10.7818967"><ele>67.0</ele><time>2026-04-04T14:28:05.012Z</time></trkpt><trkpt lat="43.58409" lon="10.7821967"><ele>67.0</ele><time>2026-04-04T14:28:06.011Z</time></trkpt><trkpt lat="43.5840917" lon="10.7825"><ele>67.0</ele><time>2026-04-04T14:28:07.012Z</time></trkpt><trkpt lat="43.58406" lon="10.78282"><ele>66.5</ele><time>2026-04-04T14:28:08.012Z</time></trkpt><trkpt lat="43.584025" lon="10.783155"><ele>66.0</ele><time>2026-04-04T14:28:09.011Z</time></trkpt><trkpt lat="43.5839883" lon="10.7835017"><ele>66.0</ele><time>2026-04-04T14:28:10.011Z</time></trkpt><trkpt lat="43.5839483" lon="10.78385"><ele>66.0</ele><time>2026-04-04T14:28:11.013Z</time></trkpt><trkpt lat="43.583905" lon="10.7841983"><ele>66.5</ele><time>2026-04-04T14:28:12.011Z</time></trkpt><trkpt lat="43.58387" lon="10.78454"><ele>67.0</ele><time>2026-04-04T14:28:13.012Z</time></trkpt><trkpt lat="43.5838333" lon="10.7848833"><ele>66.5</ele><time>2026-04-04T14:28:14.012Z</time></trkpt><trkpt lat="43.5837967" lon="10.7852217"><ele>66.0</ele><time>2026-04-04T14:28:15.01Z</time></trkpt><trkpt lat="43.5837533" lon="10.7855567"><ele>66.0</ele><time>2026-04-04T14:28:16.012Z</time></trkpt><trkpt lat="43.5837133" lon="10.7858883"><ele>66.0</ele><time>2026-04-04T14:28:17.011Z</time></trkpt><trkpt lat="43.5836767" lon="10.78622"><ele>66.0</ele><time>2026-04-04T14:28:18.012Z</time></trkpt><trkpt lat="43.5836417" lon="10.7865517"><ele>66.0</ele><time>2026-04-04T14:28:19.012Z</time></trkpt><trkpt lat="43.5836017" lon="10.7868817"><ele>66.5</ele><time>2026-04-04T14:28:20.012Z</time></trkpt><trkpt lat="43.5835617" lon="10.787215"><ele>67.0</ele><time>2026-04-04T14:28:21.011Z</time></trkpt><trkpt lat="43.5835267" lon="10.7875533"><ele>67.0</ele><time>2026-04-04T14:28:22.011Z</time></trkpt><trkpt lat="43.5834933" lon="10.7878917"><ele>67.0</ele><time>2026-04-04T14:28:23.012Z</time></trkpt><trkpt lat="43.58346" lon="10.7882317"><ele>67.5</ele><time>2026-04-04T14:28:24.012Z</time></trkpt><trkpt lat="43.5834317" lon="10.7885717"><ele>68.0</ele><time>2026-04-04T14:28:25.011Z</time></trkpt><trkpt lat="43.5834" lon="10.7889067"><ele>68.0</ele><time>2026-04-04T14:28:26.012Z</time></trkpt><trkpt lat="43.5833617" lon="10.7892317"><ele>68.0</ele><time>2026-04-04T14:28:27.012Z</time></trkpt><trkpt lat="43.583315" lon="10.789545"><ele>69.0</ele><time>2026-04-04T14:28:28.013Z</time></trkpt><trkpt lat="43.5832533" lon="10.789845"><ele>70.0</ele><time>2026-04-04T14:28:29.012Z</time></trkpt><trkpt lat="43.58318" lon="10.7901283"><ele>71.0</ele><time>2026-04-04T14:28:30.01Z</time></trkpt><trkpt lat="43.5831" lon="10.7904017"><ele>73.0</ele><time>2026-04-04T14:28:31.011Z</time></trkpt><trkpt lat="43.58302" lon="10.7906833"><ele>75.0</ele><time>2026-04-04T14:28:32.012Z</time></trkpt><trkpt lat="43.5829417" lon="10.79099"><ele>73.0</ele><time>2026-04-04T14:28:33.013Z</time></trkpt><trkpt lat="43.582855" lon="10.7913283"><ele>71.0</ele><time>2026-04-04T14:28:34.01Z</time></trkpt><trkpt lat="43.5827617" lon="10.791695"><ele>72.0</ele><time>2026-04-04T14:28:35.012Z</time></trkpt><trkpt lat="43.5826633" lon="10.792075"><ele>73.0</ele><time>2026-04-04T14:28:36.01Z</time></trkpt><trkpt lat="43.5825633" lon="10.7924517"><ele>72.5</ele><time>2026-04-04T14:28:37.011Z</time></trkpt><trkpt lat="43.5824667" lon="10.7928083"><ele>72.0</ele><time>2026-04-04T14:28:38.012Z</time></trkpt><trkpt lat="43.5823717" lon="10.793145"><ele>72.0</ele><time>2026-04-04T14:28:39.012Z</time></trkpt><trkpt lat="43.5822733" lon="10.7934633"><ele>72.0</ele><time>2026-04-04T14:28:40.012Z</time></trkpt><trkpt lat="43.5821817" lon="10.79376"><ele>72.66666666666667</ele><time>2026-04-04T14:28:41.011Z</time></trkpt><trkpt lat="43.5821033" lon="10.7940333"><ele>73.33333333333334</ele><time>2026-04-04T14:28:42.011Z</time></trkpt><trkpt lat="43.5820183" lon="10.7942833"><ele>74.0</ele><time>2026-04-04T14:28:43.012Z</time></trkpt><trkpt lat="43.5819017" lon="10.79451"><ele>74.0</ele><time>2026-04-04T14:28:44.012Z</time></trkpt><trkpt lat="43.5817467" lon="10.7947167"><ele>74.0</ele><time>2026-04-04T14:28:45.013Z</time></trkpt><trkpt lat="43.581565" lon="10.7949083"><ele>74.0</ele><time>2026-04-04T14:28:46.012Z</time></trkpt><trkpt lat="43.5813717" lon="10.7950967"><ele>74.0</ele><time>2026-04-04T14:28:47.011Z</time></trkpt><trkpt lat="43.58118" lon="10.7952817"><ele>74.0</ele><time>2026-04-04T14:28:48.012Z</time></trkpt><trkpt lat="43.580995" lon="10.7954683"><ele>74.0</ele><time>2026-04-04T14:28:49.011Z</time></trkpt><trkpt lat="43.580815" lon="10.79566"><ele>74.0</ele><time>2026-04-04T14:28:50.011Z</time></trkpt><trkpt lat="43.5806333" lon="10.7958533"><ele>75.5</ele><time>2026-04-04T14:28:51.011Z</time></trkpt><trkpt lat="43.5804533" lon="10.796055"><ele>77.0</ele><time>2026-04-04T14:28:52.01Z</time></trkpt><trkpt lat="43.5802767" lon="10.796275"><ele>77.0</ele><time>2026-04-04T14:28:53.011Z</time></trkpt><trkpt lat="43.5801083" lon="10.7965217"><ele>77.0</ele><time>2026-04-04T14:28:54.013Z</time></trkpt><trkpt lat="43.579945" lon="10.796785"><ele>84.0</ele><time>2026-04-04T14:28:55.012Z</time></trkpt><trkpt lat="43.5797817" lon="10.7970533"><ele>91.0</ele><time>2026-04-04T14:28:56.011Z</time></trkpt><trkpt lat="43.5796183" lon="10.7973133"><ele>84.0</ele><time>2026-04-04T14:28:57.011Z</time></trkpt><trkpt lat="43.5794617" lon="10.79756"><ele>77.0</ele><time>2026-04-04T14:28:58.012Z</time></trkpt><trkpt lat="43.57932" lon="10.7977967"><ele>77.0</ele><time>2026-04-04T14:28:59.012Z</time></trkpt><trkpt lat="43.5791983" lon="10.7980383"><ele>77.0</ele><time>2026-04-04T14:29:00.012Z</time></trkpt><trkpt lat="43.5791017" lon="10.7983"><ele>77.0</ele><time>2026-04-04T14:29:01.013Z</time></trkpt><trkpt lat="43.57903" lon="10.7985883"><ele>78.5</ele><time>2026-04-04T14:29:02.011Z</time></trkpt><trkpt lat="43.5789717" lon="10.7988917"><ele>80.0</ele><time>2026-04-04T14:29:03.014Z</time></trkpt><trkpt lat="43.5789217" lon="10.7992133"><ele>80.0</ele><time>2026-04-04T14:29:04.013Z</time></trkpt><trkpt lat="43.5788683" lon="10.799535"><ele>80.0</ele><time>2026-04-04T14:29:05.012Z</time></trkpt><trkpt lat="43.578805" lon="10.7998433"><ele>80.0</ele><time>2026-04-04T14:29:06.012Z</time></trkpt><trkpt lat="43.5787267" lon="10.8001433"><ele>80.0</ele><time>2026-04-04T14:29:07.011Z</time></trkpt><trkpt lat="43.578635" lon="10.8004317"><ele>79.5</ele><time>2026-04-04T14:29:08.011Z</time></trkpt><trkpt lat="43.5785333" lon="10.8007083"><ele>79.0</ele><time>2026-04-04T14:29:09.01Z</time></trkpt><trkpt lat="43.578415" lon="10.8009733"><ele>81.0</ele><time>2026-04-04T14:29:10.009Z</time></trkpt><trkpt lat="43.5783017" lon="10.8012383"><ele>83.0</ele><time>2026-04-04T14:29:11.012Z</time></trkpt><trkpt lat="43.5781833" lon="10.8015067"><ele>83.0</ele><time>2026-04-04T14:29:12.012Z</time></trkpt><trkpt lat="43.578065" lon="10.8017783"><ele>83.0</ele><time>2026-04-04T14:29:13.014Z</time></trkpt><trkpt lat="43.5779483" lon="10.80205"><ele>80.0</ele><time>2026-04-04T14:29:14.01Z</time></trkpt><trkpt lat="43.577835" lon="10.8023217"><ele>77.0</ele><time>2026-04-04T14:29:15.012Z</time></trkpt><trkpt lat="43.5777183" lon="10.8025917"><ele>80.0</ele><time>2026-04-04T14:29:16.012Z</time></trkpt><trkpt lat="43.5775967" lon="10.8028617"><ele>83.0</ele><time>2026-04-04T14:29:17.01Z</time></trkpt><trkpt lat="43.5774833" lon="10.80312"><ele>86.0</ele><time>2026-04-04T14:29:18.011Z</time></trkpt><trkpt lat="43.57738" lon="10.8033617"><ele>87.0</ele><time>2026-04-04T14:29:19.011Z</time></trkpt><trkpt lat="43.5773" lon="10.8036017"><ele>88.0</ele><time>2026-04-04T14:29:20.011Z</time></trkpt><trkpt lat="43.5772567" lon="10.8038617"><ele>89.0</ele><time>2026-04-04T14:29:21.011Z</time></trkpt><trkpt lat="43.57725" lon="10.8041417"><ele>88.5</ele><time>2026-04-04T14:29:22.012Z</time></trkpt><trkpt lat="43.5772733" lon="10.804445"><ele>88.0</ele><time>2026-04-04T14:29:23.012Z</time></trkpt><trkpt lat="43.5773067" lon="10.804765"><ele>88.0</ele><time>2026-04-04T14:29:24.012Z</time></trkpt><trkpt lat="43.57734" lon="10.8050883"><ele>88.0</ele><time>2026-04-04T14:29:25.012Z</time></trkpt><trkpt lat="43.5773717" lon="10.8054183"><ele>86.5</ele><time>2026-04-04T14:29:26.012Z</time></trkpt><trkpt lat="43.57741" lon="10.80574"><ele>85.0</ele><time>2026-04-04T14:29:27.012Z</time></trkpt><trkpt lat="43.577445" lon="10.8060433"><ele>83.66666666666666</ele><time>2026-04-04T14:29:28.011Z</time></trkpt><trkpt lat="43.57748" lon="10.80633"><ele>82.33333333333333</ele><time>2026-04-04T14:29:29.012Z</time></trkpt><trkpt lat="43.5775083" lon="10.8066133"><ele>81.0</ele><time>2026-04-04T14:29:30.01Z</time></trkpt><trkpt lat="43.5775217" lon="10.8069"><ele>80.0</ele><time>2026-04-04T14:29:31.011Z</time></trkpt><trkpt lat="43.5775117" lon="10.8071933"><ele>79.0</ele><time>2026-04-04T14:29:32.01Z</time></trkpt><trkpt lat="43.5774817" lon="10.8074867"><ele>78.0</ele><time>2026-04-04T14:29:33.01Z</time></trkpt><trkpt lat="43.5774333" lon="10.80778"><ele>77.66666666666667</ele><time>2026-04-04T14:29:34.012Z</time></trkpt><trkpt lat="43.5773733" lon="10.8080683"><ele>77.33333333333334</ele><time>2026-04-04T14:29:35.01Z</time></trkpt><trkpt lat="43.5773033" lon="10.808355"><ele>77.0</ele><time>2026-04-04T14:29:36.012Z</time></trkpt><trkpt lat="43.5772517" lon="10.8086367"><ele>77.0</ele><time>2026-04-04T14:29:37.011Z</time></trkpt><trkpt lat="43.57719" lon="10.8089033"><ele>77.0</ele><time>2026-04-04T14:29:38.012Z</time></trkpt><trkpt lat="43.5771267" lon="10.80916"><ele>77.0</ele><time>2026-04-04T14:29:39.012Z</time></trkpt><trkpt lat="43.5770733" lon="10.8094117"><ele>77.33333333333334</ele><time>2026-04-04T14:29:40.012Z</time></trkpt><trkpt lat="43.5770167" lon="10.8096633"><ele>77.66666666666667</ele><time>2026-04-04T14:29:41.011Z</time></trkpt><trkpt lat="43.5769467" lon="10.8099133"><ele>78.0</ele><time>2026-04-04T14:29:42.011Z</time></trkpt><trkpt lat="43.5768633" lon="10.8101517"><ele>77.66666666666667</ele><time>2026-04-04T14:29:43.012Z</time></trkpt><trkpt lat="43.57676" lon="10.810385"><ele>77.33333333333334</ele><time>2026-04-04T14:29:44.01Z</time></trkpt><trkpt lat="43.5766367" lon="10.8106183"><ele>77.0</ele><time>2026-04-04T14:29:45.013Z</time></trkpt><trkpt lat="43.5765067" lon="10.8108517"><ele>77.0</ele><time>2026-04-04T14:29:46.01Z</time></trkpt><trkpt lat="43.576375" lon="10.8110883"><ele>77.0</ele><time>2026-04-04T14:29:47.013Z</time></trkpt><trkpt lat="43.57624" lon="10.8113267"><ele>77.0</ele><time>2026-04-04T14:29:48.012Z</time></trkpt><trkpt lat="43.5761017" lon="10.811565"><ele>78.0</ele><time>2026-04-04T14:29:49.012Z</time></trkpt><trkpt lat="43.5759717" lon="10.811795"><ele>79.0</ele><time>2026-04-04T14:29:50.012Z</time></trkpt><trkpt lat="43.5758467" lon="10.8120117"><ele>80.0</ele><time>2026-04-04T14:29:51.011Z</time></trkpt><trkpt lat="43.57573" lon="10.8122133"><ele>80.0</ele><time>2026-04-04T14:29:52.013Z</time></trkpt><trkpt lat="43.5756217" lon="10.8124083"><ele>80.0</ele><time>2026-04-04T14:29:53.012Z</time></trkpt><trkpt lat="43.57551" lon="10.8126017"><ele>80.0</ele><time>2026-04-04T14:29:54.014Z</time></trkpt><trkpt lat="43.5754" lon="10.8128017"><ele>81.33333333333334</ele><time>2026-04-04T14:29:55.012Z</time></trkpt><trkpt lat="43.57529" lon="10.8130017"><ele>82.66666666666667</ele><time>2026-04-04T14:29:56.01Z</time></trkpt><trkpt lat="43.57518" lon="10.8132067"><ele>84.0</ele><time>2026-04-04T14:29:57.01Z</time></trkpt><trkpt lat="43.575065" lon="10.8134117"><ele>83.0</ele><time>2026-04-04T14:29:58.011Z</time></trkpt><trkpt lat="43.5749467" lon="10.8136167"><ele>82.0</ele><time>2026-04-04T14:29:59.011Z</time></trkpt><trkpt lat="43.5748283" lon="10.81382"><ele>81.0</ele><time>2026-04-04T14:30:00.011Z</time></trkpt><trkpt lat="43.5747117" lon="10.8140233"><ele>81.0</ele><time>2026-04-04T14:30:01.013Z</time></trkpt><trkpt lat="43.5745967" lon="10.814225"><ele>81.0</ele><time>2026-04-04T14:30:02.012Z</time></trkpt><trkpt lat="43.574485" lon="10.814425"><ele>81.0</ele><time>2026-04-04T14:30:03.012Z</time></trkpt><trkpt lat="43.574365" lon="10.8146233"><ele>83.66666666666667</ele><time>2026-04-04T14:30:04.012Z</time></trkpt><trkpt lat="43.5742467" lon="10.8148233"><ele>86.33333333333334</ele><time>2026-04-04T14:30:05.011Z</time></trkpt><trkpt lat="43.5741233" lon="10.8150283"><ele>89.0</ele><time>2026-04-04T14:30:06.011Z</time></trkpt><trkpt lat="43.574005" lon="10.8152383"><ele>89.66666666666667</ele><time>2026-04-04T14:30:07.012Z</time></trkpt><trkpt lat="43.5738867" lon="10.8154533"><ele>90.33333333333333</ele><time>2026-04-04T14:30:08.012Z</time></trkpt><trkpt lat="43.57377" lon="10.8156683"><ele>91.0</ele><time>2026-04-04T14:30:09.011Z</time></trkpt><trkpt lat="43.5736617" lon="10.8158883"><ele>93.0</ele><time>2026-04-04T14:30:10.012Z</time></trkpt><trkpt lat="43.5735717" lon="10.81612"><ele>95.0</ele><time>2026-04-04T14:30:11.012Z</time></trkpt><trkpt lat="43.5735067" lon="10.8163667"><ele>97.0</ele><time>2026-04-04T14:30:12.012Z</time></trkpt><trkpt lat="43.573445" lon="10.8166183"><ele>98.0</ele><time>2026-04-04T14:30:13.012Z</time></trkpt><trkpt lat="43.5733967" lon="10.816875"><ele>99.0</ele><time>2026-04-04T14:30:14.011Z</time></trkpt><trkpt lat="43.573355" lon="10.8171333"><ele>100.0</ele><time>2026-04-04T14:30:15.012Z</time></trkpt><trkpt lat="43.5733067" lon="10.8173917"><ele>100.0</ele><time>2026-04-04T14:30:16.01Z</time></trkpt><trkpt lat="43.5732517" lon="10.8176467"><ele>100.0</ele><time>2026-04-04T14:30:17.011Z</time></trkpt><trkpt lat="43.5732" lon="10.8179067"><ele>100.0</ele><time>2026-04-04T14:30:18.01Z</time></trkpt><trkpt lat="43.5731417" lon="10.818165"><ele>101.66666666666667</ele><time>2026-04-04T14:30:19.012Z</time></trkpt><trkpt lat="43.573085" lon="10.8184217"><ele>103.33333333333334</ele><time>2026-04-04T14:30:20.012Z</time></trkpt><trkpt lat="43.5730267" lon="10.81868"><ele>105.0</ele><time>2026-04-04T14:30:21.01Z</time></trkpt><trkpt lat="43.5729717" lon="10.8189383"><ele>106.33333333333334</ele><time>2026-04-04T14:30:22.011Z</time></trkpt><trkpt lat="43.57292" lon="10.81919"><ele>107.66666666666667</ele><time>2026-04-04T14:30:23.011Z</time></trkpt><trkpt lat="43.5728667" lon="10.81943"><ele>109.0</ele><time>2026-04-04T14:30:24.012Z</time></trkpt><trkpt lat="43.572815" lon="10.8196467"><ele>112.0</ele><time>2026-04-04T14:30:25.012Z</time></trkpt><trkpt lat="43.5727267" lon="10.81984"><ele>115.0</ele><time>2026-04-04T14:30:26.009Z</time></trkpt><trkpt lat="43.5726117" lon="10.82"><ele>118.0</ele><time>2026-04-04T14:30:27.012Z</time></trkpt><trkpt lat="43.5724767" lon="10.8201117"><ele>116.0</ele><time>2026-04-04T14:30:28.011Z</time></trkpt><trkpt lat="43.5723217" lon="10.8201733"><ele>114.0</ele><time>2026-04-04T14:30:29.013Z</time></trkpt><trkpt lat="43.5721433" lon="10.8202"><ele>112.0</ele><time>2026-04-04T14:30:30.012Z</time></trkpt><trkpt lat="43.5719517" lon="10.8202083"><ele>112.0</ele><time>2026-04-04T14:30:31.011Z</time></trkpt><trkpt lat="43.571745" lon="10.82022"><ele>112.0</ele><time>2026-04-04T14:30:32.013Z</time></trkpt><trkpt lat="43.5715333" lon="10.82024"><ele>112.0</ele><time>2026-04-04T14:30:33.015Z</time></trkpt><trkpt lat="43.571325" lon="10.8202617"><ele>116.0</ele><time>2026-04-04T14:30:34.013Z</time></trkpt><trkpt lat="43.571135" lon="10.8202817"><ele>120.0</ele><time>2026-04-04T14:30:35.012Z</time></trkpt><trkpt lat="43.5709583" lon="10.820305"><ele>124.0</ele><time>2026-04-04T14:30:36.013Z</time></trkpt><trkpt lat="43.5707967" lon="10.820365"><ele>124.0</ele><time>2026-04-04T14:30:37.014Z</time></trkpt><trkpt lat="43.5706483" lon="10.82047"><ele>124.0</ele><time>2026-04-04T14:30:38.013Z</time></trkpt><trkpt lat="43.5705067" lon="10.820615"><ele>124.0</ele><time>2026-04-04T14:30:39.011Z</time></trkpt><trkpt lat="43.5703817" lon="10.8208017"><ele>128.33333333333334</ele><time>2026-04-04T14:30:40.013Z</time></trkpt><trkpt lat="43.5702733" lon="10.821025"><ele>132.66666666666666</ele><time>2026-04-04T14:30:41.01Z</time></trkpt><trkpt lat="43.5701833" lon="10.8212783"><ele>137.0</ele><time>2026-04-04T14:30:42.011Z</time></trkpt><trkpt lat="43.5701067" lon="10.8215383"><ele>137.0</ele><time>2026-04-04T14:30:43.012Z</time></trkpt><trkpt lat="43.5700467" lon="10.82179"><ele>137.0</ele><time>2026-04-04T14:30:44.011Z</time></trkpt><trkpt lat="43.5699983" lon="10.8220233"><ele>137.0</ele><time>2026-04-04T14:30:45.01Z</time></trkpt><trkpt lat="43.5699583" lon="10.8222467"><ele>136.66666666666666</ele><time>2026-04-04T14:30:46.012Z</time></trkpt><trkpt lat="43.5699283" lon="10.8224733"><ele>136.33333333333334</ele><time>2026-04-04T14:30:47.011Z</time></trkpt><trkpt lat="43.5698883" lon="10.8227067"><ele>136.0</ele><time>2026-04-04T14:30:48.012Z</time></trkpt><trkpt lat="43.56983" lon="10.8229417"><ele>135.66666666666669</ele><time>2026-04-04T14:30:49.013Z</time></trkpt><trkpt lat="43.5697617" lon="10.8231817"><ele>135.33333333333334</ele><time>2026-04-04T14:30:50.012Z</time></trkpt><trkpt lat="43.569685" lon="10.82342"><ele>135.0</ele><time>2026-04-04T14:30:51.012Z</time></trkpt><trkpt lat="43.569585" lon="10.8236483"><ele>137.0</ele><time>2026-04-04T14:30:52.012Z</time></trkpt><trkpt lat="43.5694733" lon="10.8238683"><ele>139.0</ele><time>2026-04-04T14:30:53.012Z</time></trkpt><trkpt lat="43.56936" lon="10.824075"><ele>141.0</ele><time>2026-04-04T14:30:54.012Z</time></trkpt><trkpt lat="43.5692417" lon="10.8242583"><ele>139.66666666666666</ele><time>2026-04-04T14:30:55.012Z</time></trkpt><trkpt lat="43.5691233" lon="10.8244333"><ele>138.33333333333331</ele><time>2026-04-04T14:30:56.011Z</time></trkpt><trkpt lat="43.5690083" lon="10.8246083"><ele>137.0</ele><time>2026-04-04T14:30:57.011Z</time></trkpt><trkpt lat="43.5688983" lon="10.8247833"><ele>137.0</ele><time>2026-04-04T14:30:58.012Z</time></trkpt><trkpt lat="43.5687833" lon="10.8249583"><ele>137.0</ele><time>2026-04-04T14:30:59.012Z</time></trkpt><trkpt lat="43.5686733" lon="10.8251317"><ele>137.0</ele><time>2026-04-04T14:31:00.012Z</time></trkpt><trkpt lat="43.5685733" lon="10.8253183"><ele>138.66666666666666</ele><time>2026-04-04T14:31:01.01Z</time></trkpt><trkpt lat="43.5684833" lon="10.8255233"><ele>140.33333333333334</ele><time>2026-04-04T14:31:02.013Z</time></trkpt><trkpt lat="43.5684167" lon="10.8257467"><ele>142.0</ele><time>2026-04-04T14:31:03.011Z</time></trkpt><trkpt lat="43.56837" lon="10.8259817"><ele>144.33333333333334</ele><time>2026-04-04T14:31:04.013Z</time></trkpt><trkpt lat="43.5683333" lon="10.8262183"><ele>146.66666666666666</ele><time>2026-04-04T14:31:05.012Z</time></trkpt><trkpt lat="43.568295" lon="10.8264483"><ele>149.0</ele><time>2026-04-04T14:31:06.011Z</time></trkpt><trkpt lat="43.5682583" lon="10.826665"><ele>150.66666666666666</ele><time>2026-04-04T14:31:07.013Z</time></trkpt><trkpt lat="43.568225" lon="10.8268717"><ele>152.33333333333334</ele><time>2026-04-04T14:31:08.014Z</time></trkpt><trkpt lat="43.56819" lon="10.827075"><ele>154.0</ele><time>2026-04-04T14:31:09.011Z</time></trkpt><trkpt lat="43.5681517" lon="10.827285"><ele>154.0</ele><time>2026-04-04T14:31:10.01Z</time></trkpt><trkpt lat="43.5681117" lon="10.8275133"><ele>154.0</ele><time>2026-04-04T14:31:11.011Z</time></trkpt><trkpt lat="43.5680667" lon="10.8277583"><ele>154.0</ele><time>2026-04-04T14:31:12.011Z</time></trkpt><trkpt lat="43.5680133" lon="10.8280133"><ele>153.66666666666669</ele><time>2026-04-04T14:31:13.011Z</time></trkpt><trkpt lat="43.5679417" lon="10.828275"><ele>153.33333333333334</ele><time>2026-04-04T14:31:14.013Z</time></trkpt><trkpt lat="43.5678733" lon="10.8285333"><ele>153.0</ele><time>2026-04-04T14:31:15.013Z</time></trkpt><trkpt lat="43.567805" lon="10.8287933"><ele>150.66666666666666</ele><time>2026-04-04T14:31:16.012Z</time></trkpt><trkpt lat="43.5677233" lon="10.8290333"><ele>148.33333333333331</ele><time>2026-04-04T14:31:17.012Z</time></trkpt><trkpt lat="43.5676133" lon="10.8292483"><ele>146.0</ele><time>2026-04-04T14:31:18.013Z</time></trkpt><trkpt lat="43.5674717" lon="10.8294383"><ele>146.0</ele><time>2026-04-04T14:31:19.011Z</time></trkpt><trkpt lat="43.5673" lon="10.8296067"><ele>146.0</ele><time>2026-04-04T14:31:20.012Z</time></trkpt><trkpt lat="43.5671183" lon="10.8297633"><ele>146.0</ele><time>2026-04-04T14:31:21.011Z</time></trkpt><trkpt lat="43.566935" lon="10.82992"><ele>145.0</ele><time>2026-04-04T14:31:22.011Z</time></trkpt><trkpt lat="43.5667533" lon="10.83008"><ele>144.0</ele><time>2026-04-04T14:31:23.012Z</time></trkpt><trkpt lat="43.5665817" lon="10.83025"><ele>143.0</ele><time>2026-04-04T14:31:24.012Z</time></trkpt><trkpt lat="43.566425" lon="10.8304467"><ele>143.0</ele><time>2026-04-04T14:31:25.011Z</time></trkpt><trkpt lat="43.5662867" lon="10.8306667"><ele>143.0</ele><time>2026-04-04T14:31:26.013Z</time></trkpt><trkpt lat="43.56616" lon="10.8308967"><ele>143.0</ele><time>2026-04-04T14:31:27.014Z</time></trkpt><trkpt lat="43.56604" lon="10.831135"><ele>145.66666666666666</ele><time>2026-04-04T14:31:28.012Z</time></trkpt><trkpt lat="43.5659217" lon="10.831375"><ele>148.33333333333334</ele><time>2026-04-04T14:31:29.012Z</time></trkpt><trkpt lat="43.565805" lon="10.8316167"><ele>151.0</ele><time>2026-04-04T14:31:30.012Z</time></trkpt><trkpt lat="43.565695" lon="10.8318533"><ele>152.66666666666669</ele><time>2026-04-04T14:31:31.012Z</time></trkpt><trkpt lat="43.5656" lon="10.832095"><ele>154.33333333333334</ele><time>2026-04-04T14:31:32.011Z</time></trkpt><trkpt lat="43.5655167" lon="10.832345"><ele>156.0</ele><time>2026-04-04T14:31:33.011Z</time></trkpt><trkpt lat="43.5654333" lon="10.8326067"><ele>155.66666666666666</ele><time>2026-04-04T14:31:34.012Z</time></trkpt><trkpt lat="43.56535" lon="10.8328783"><ele>155.33333333333331</ele><time>2026-04-04T14:31:35.012Z</time></trkpt><trkpt lat="43.5652683" lon="10.8331517"><ele>155.0</ele><time>2026-04-04T14:31:36.013Z</time></trkpt><trkpt lat="43.5651767" lon="10.833425"><ele>156.66666666666666</ele><time>2026-04-04T14:31:37.013Z</time></trkpt><trkpt lat="43.56509" lon="10.8337083"><ele>158.33333333333334</ele><time>2026-04-04T14:31:38.011Z</time></trkpt><trkpt lat="43.5650017" lon="10.8339933"><ele>160.0</ele><time>2026-04-04T14:31:39.012Z</time></trkpt><trkpt lat="43.56492" lon="10.8342783"><ele>162.66666666666669</ele><time>2026-04-04T14:31:40.012Z</time></trkpt><trkpt lat="43.5648317" lon="10.8345583"><ele>165.33333333333334</ele><time>2026-04-04T14:31:41.012Z</time></trkpt><trkpt lat="43.564745" lon="10.834835"><ele>168.0</ele><time>2026-04-04T14:31:42.011Z</time></trkpt><trkpt lat="43.564665" lon="10.83511"><ele>169.66666666666666</ele><time>2026-04-04T14:31:43.011Z</time></trkpt><trkpt lat="43.56461" lon="10.8353883"><ele>171.33333333333331</ele><time>2026-04-04T14:31:44.011Z</time></trkpt><trkpt lat="43.5645783" lon="10.8356717"><ele>173.0</ele><time>2026-04-04T14:31:45.011Z</time></trkpt><trkpt lat="43.5645667" lon="10.835955"><ele>173.33333333333331</ele><time>2026-04-04T14:31:46.012Z</time></trkpt><trkpt lat="43.5645467" lon="10.8362233"><ele>173.66666666666666</ele><time>2026-04-04T14:31:47.011Z</time></trkpt><trkpt lat="43.56452" lon="10.8364733"><ele>174.0</ele><time>2026-04-04T14:31:48.013Z</time></trkpt><trkpt lat="43.56448" lon="10.8367067"><ele>176.33333333333334</ele><time>2026-04-04T14:31:49.011Z</time></trkpt><trkpt lat="43.564415" lon="10.83693"><ele>178.66666666666669</ele><time>2026-04-04T14:31:50.012Z</time></trkpt><trkpt lat="43.5643317" lon="10.83715"><ele>181.0</ele><time>2026-04-04T14:31:51.011Z</time></trkpt><trkpt lat="43.5642433" lon="10.8373717"><ele>181.0</ele><time>2026-04-04T14:31:52.011Z</time></trkpt><trkpt lat="43.5641483" lon="10.8375933"><ele>181.0</ele><time>2026-04-04T14:31:53.011Z</time></trkpt><trkpt lat="43.5640567" lon="10.83782"><ele>181.0</ele><time>2026-04-04T14:31:54.012Z</time></trkpt><trkpt lat="43.5639767" lon="10.8380567"><ele>181.33333333333334</ele><time>2026-04-04T14:31:55.012Z</time></trkpt><trkpt lat="43.5639033" lon="10.8383017"><ele>181.66666666666666</ele><time>2026-04-04T14:31:56.012Z</time></trkpt><trkpt lat="43.563845" lon="10.83856"><ele>182.0</ele><time>2026-04-04T14:31:57.012Z</time></trkpt><trkpt lat="43.5637983" lon="10.8388267"><ele>182.0</ele><time>2026-04-04T14:31:58.012Z</time></trkpt><trkpt lat="43.563755" lon="10.8390967"><ele>182.0</ele><time>2026-04-04T14:31:59.012Z</time></trkpt><trkpt lat="43.5637117" lon="10.83937"><ele>182.0</ele><time>2026-04-04T14:32:00.012Z</time></trkpt><trkpt lat="43.5636683" lon="10.839645"><ele>183.66666666666666</ele><time>2026-04-04T14:32:01.012Z</time></trkpt><trkpt lat="43.5636117" lon="10.8399183"><ele>185.33333333333334</ele><time>2026-04-04T14:32:02.011Z</time></trkpt><trkpt lat="43.5635417" lon="10.8401817"><ele>187.0</ele><time>2026-04-04T14:32:03.012Z</time></trkpt><trkpt lat="43.5634567" lon="10.8404367"><ele>188.33333333333334</ele><time>2026-04-04T14:32:04.011Z</time></trkpt><trkpt lat="43.5633567" lon="10.8406867"><ele>189.66666666666666</ele><time>2026-04-04T14:32:05.013Z</time></trkpt><trkpt lat="43.5632467" lon="10.84093"><ele>191.0</ele><time>2026-04-04T14:32:06.011Z</time></trkpt><trkpt lat="43.5631367" lon="10.8411717"><ele>191.33333333333331</ele><time>2026-04-04T14:32:07.012Z</time></trkpt><trkpt lat="43.5630233" lon="10.8414117"><ele>191.66666666666666</ele><time>2026-04-04T14:32:08.012Z</time></trkpt><trkpt lat="43.56292" lon="10.841645"><ele>192.0</ele><time>2026-04-04T14:32:09.013Z</time></trkpt><trkpt lat="43.562825" lon="10.8418617"><ele>194.33333333333331</ele><time>2026-04-04T14:32:10.012Z</time></trkpt><trkpt lat="43.5627317" lon="10.842055"><ele>196.66666666666666</ele><time>2026-04-04T14:32:11.012Z</time></trkpt><trkpt lat="43.5626333" lon="10.8422233"><ele>199.0</ele><time>2026-04-04T14:32:12.013Z</time></trkpt><trkpt lat="43.562525" lon="10.8423733"><ele>199.0</ele><time>2026-04-04T14:32:13.012Z</time></trkpt><trkpt lat="43.5623883" lon="10.8424917"><ele>199.0</ele><time>2026-04-04T14:32:14.012Z</time></trkpt><trkpt lat="43.5622333" lon="10.8425883"><ele>199.0</ele><time>2026-04-04T14:32:15.013Z</time></trkpt><trkpt lat="43.562065" lon="10.8426733"><ele>196.33333333333331</ele><time>2026-04-04T14:32:16.012Z</time></trkpt><trkpt lat="43.561885" lon="10.84275"><ele>193.66666666666666</ele><time>2026-04-04T14:32:17.011Z</time></trkpt><trkpt lat="43.5616967" lon="10.8428367"><ele>191.0</ele><time>2026-04-04T14:32:18.011Z</time></trkpt><trkpt lat="43.5615" lon="10.8429283"><ele>191.0</ele><time>2026-04-04T14:32:19.011Z</time></trkpt><trkpt lat="43.5613033" lon="10.8430367"><ele>191.0</ele><time>2026-04-04T14:32:20.011Z</time></trkpt><trkpt lat="43.5611033" lon="10.8431483"><ele>191.0</ele><time>2026-04-04T14:32:21.011Z</time></trkpt><trkpt lat="43.5609083" lon="10.84329"><ele>190.66666666666666</ele><time>2026-04-04T14:32:22.012Z</time></trkpt><trkpt lat="43.560715" lon="10.8434383"><ele>190.33333333333334</ele><time>2026-04-04T14:32:23.012Z</time></trkpt><trkpt lat="43.5605233" lon="10.8435867"><ele>190.0</ele><time>2026-04-04T14:32:24.011Z</time></trkpt><trkpt lat="43.56034" lon="10.8437267"><ele>191.33333333333334</ele><time>2026-04-04T14:32:25.011Z</time></trkpt><trkpt lat="43.56017" lon="10.84386"><ele>192.66666666666669</ele><time>2026-04-04T14:32:26.011Z</time></trkpt><trkpt lat="43.5600133" lon="10.8439867"><ele>194.0</ele><time>2026-04-04T14:32:27.012Z</time></trkpt><trkpt lat="43.55986" lon="10.8441067"><ele>194.0</ele><time>2026-04-04T14:32:28.012Z</time></trkpt><trkpt lat="43.5597067" lon="10.8442333"><ele>194.0</ele><time>2026-04-04T14:32:29.012Z</time></trkpt><trkpt lat="43.5595567" lon="10.8443567"><ele>194.0</ele><time>2026-04-04T14:32:30.012Z</time></trkpt><trkpt lat="43.5594133" lon="10.8444833"><ele>193.0</ele><time>2026-04-04T14:32:31.014Z</time></trkpt><trkpt lat="43.55929" lon="10.8446283"><ele>192.0</ele><time>2026-04-04T14:32:32.013Z</time></trkpt><trkpt lat="43.5591867" lon="10.84481"><ele>191.0</ele><time>2026-04-04T14:32:33.011Z</time></trkpt><trkpt lat="43.55911" lon="10.8450217"><ele>191.66666666666666</ele><time>2026-04-04T14:32:34.012Z</time></trkpt><trkpt lat="43.5590617" lon="10.8452567"><ele>192.33333333333331</ele><time>2026-04-04T14:32:35.012Z</time></trkpt><trkpt lat="43.559025" lon="10.8455133"><ele>193.0</ele><time>2026-04-04T14:32:36.012Z</time></trkpt><trkpt lat="43.5589883" lon="10.8457883"><ele>194.33333333333331</ele><time>2026-04-04T14:32:37.013Z</time></trkpt><trkpt lat="43.55895" lon="10.8460733"><ele>195.66666666666669</ele><time>2026-04-04T14:32:38.012Z</time></trkpt><trkpt lat="43.55891" lon="10.846365"><ele>197.0</ele><time>2026-04-04T14:32:39.012Z</time></trkpt><trkpt lat="43.55887" lon="10.846655"><ele>198.33333333333334</ele><time>2026-04-04T14:32:40.013Z</time></trkpt><trkpt lat="43.55883" lon="10.8469483"><ele>199.66666666666669</ele><time>2026-04-04T14:32:41.01Z</time></trkpt><trkpt lat="43.5587917" lon="10.8472383"><ele>201.0</ele><time>2026-04-04T14:32:42.011Z</time></trkpt><trkpt lat="43.5587533" lon="10.847525"><ele>200.66666666666669</ele><time>2026-04-04T14:32:43.012Z</time></trkpt><trkpt lat="43.5587117" lon="10.8477917"><ele>200.33333333333334</ele><time>2026-04-04T14:32:44.012Z</time></trkpt><trkpt lat="43.558655" lon="10.8480533"><ele>200.0</ele><time>2026-04-04T14:32:45.013Z</time></trkpt><trkpt lat="43.5585733" lon="10.848295"><ele>200.66666666666669</ele><time>2026-04-04T14:32:46.013Z</time></trkpt><trkpt lat="43.5584617" lon="10.8484933"><ele>201.33333333333331</ele><time>2026-04-04T14:32:47.012Z</time></trkpt><trkpt lat="43.5583233" lon="10.848645"><ele>202.0</ele><time>2026-04-04T14:32:48.011Z</time></trkpt><trkpt lat="43.558155" lon="10.84875"><ele>202.0</ele><time>2026-04-04T14:32:49.011Z</time></trkpt><trkpt lat="43.5579717" lon="10.8488067"><ele>202.0</ele><time>2026-04-04T14:32:50.012Z</time></trkpt><trkpt lat="43.557785" lon="10.848805"><ele>202.0</ele><time>2026-04-04T14:32:51.012Z</time></trkpt><trkpt lat="43.5575967" lon="10.84875"><ele>204.66666666666666</ele><time>2026-04-04T14:32:52.011Z</time></trkpt><trkpt lat="43.5574017" lon="10.848665"><ele>207.33333333333331</ele><time>2026-04-04T14:32:53.011Z</time></trkpt><trkpt lat="43.557205" lon="10.8485733"><ele>210.0</ele><time>2026-04-04T14:32:54.012Z</time></trkpt><trkpt lat="43.5570117" lon="10.8484983"><ele>211.33333333333331</ele><time>2026-04-04T14:32:55.011Z</time></trkpt><trkpt lat="43.5568283" lon="10.84845"><ele>212.66666666666666</ele><time>2026-04-04T14:32:56.012Z</time></trkpt><trkpt lat="43.55665" lon="10.8484267"><ele>214.0</ele><time>2026-04-04T14:32:57.012Z</time></trkpt><trkpt lat="43.5564617" lon="10.84845"><ele>214.66666666666666</ele><time>2026-04-04T14:32:58.011Z</time></trkpt><trkpt lat="43.5562733" lon="10.8485283"><ele>215.33333333333331</ele><time>2026-04-04T14:32:59.013Z</time></trkpt><trkpt lat="43.5560867" lon="10.8486417"><ele>216.0</ele><time>2026-04-04T14:33:00.012Z</time></trkpt><trkpt lat="43.5559067" lon="10.8487733"><ele>216.0</ele><time>2026-04-04T14:33:01.011Z</time></trkpt><trkpt lat="43.5557417" lon="10.8489367"><ele>216.0</ele><time>2026-04-04T14:33:02.012Z</time></trkpt><trkpt lat="43.5555967" lon="10.8491333"><ele>216.0</ele><time>2026-04-04T14:33:03.012Z</time></trkpt><trkpt lat="43.55547" lon="10.84937"><ele>214.66666666666669</ele><time>2026-04-04T14:33:04.011Z</time></trkpt><trkpt lat="43.5553433" lon="10.849615"><ele>213.33333333333334</ele><time>2026-04-04T14:33:05.013Z</time></trkpt><trkpt lat="43.55521" lon="10.8498433"><ele>212.0</ele><time>2026-04-04T14:33:06.012Z</time></trkpt><trkpt lat="43.5550483" lon="10.8500483"><ele>211.33333333333334</ele><time>2026-04-04T14:33:07.011Z</time></trkpt><trkpt lat="43.554865" lon="10.8502317"><ele>210.66666666666669</ele><time>2026-04-04T14:33:08.01Z</time></trkpt><trkpt lat="43.5546833" lon="10.8503933"><ele>210.0</ele><time>2026-04-04T14:33:09.012Z</time></trkpt><trkpt lat="43.55451" lon="10.8505383"><ele>213.66666666666669</ele><time>2026-04-04T14:33:10.012Z</time></trkpt><trkpt lat="43.5543317" lon="10.850645"><ele>217.33333333333334</ele><time>2026-04-04T14:33:11.012Z</time></trkpt><trkpt lat="43.554145" lon="10.8507117"><ele>221.0</ele><time>2026-04-04T14:33:12.011Z</time></trkpt><trkpt lat="43.5539517" lon="10.850725"><ele>221.0</ele><time>2026-04-04T14:33:13.012Z</time></trkpt><trkpt lat="43.5537567" lon="10.8507"><ele>221.0</ele><time>2026-04-04T14:33:14.012Z</time></trkpt><trkpt lat="43.55356" lon="10.85067"><ele>221.0</ele><time>2026-04-04T14:33:15.012Z</time></trkpt><trkpt lat="43.5533683" lon="10.8506767"><ele>224.0</ele><time>2026-04-04T14:33:16.012Z</time></trkpt><trkpt lat="43.5531833" lon="10.850725"><ele>227.0</ele><time>2026-04-04T14:33:17.013Z</time></trkpt><trkpt lat="43.5530133" lon="10.8508233"><ele>230.0</ele><time>2026-04-04T14:33:18.011Z</time></trkpt><trkpt lat="43.5528533" lon="10.8509683"><ele>232.33333333333334</ele><time>2026-04-04T14:33:19.012Z</time></trkpt><trkpt lat="43.5527083" lon="10.8511567"><ele>234.66666666666669</ele><time>2026-04-04T14:33:20.013Z</time></trkpt><trkpt lat="43.5525783" lon="10.8513583"><ele>237.0</ele><time>2026-04-04T14:33:21.013Z</time></trkpt><trkpt lat="43.5524517" lon="10.8515583"><ele>237.0</ele><time>2026-04-04T14:33:22.012Z</time></trkpt><trkpt lat="43.5523317" lon="10.85176"><ele>237.0</ele><time>2026-04-04T14:33:23.011Z</time></trkpt><trkpt lat="43.5522067" lon="10.85197"><ele>237.0</ele><time>2026-04-04T14:33:24.011Z</time></trkpt><trkpt lat="43.5520817" lon="10.8521817"><ele>241.0</ele><time>2026-04-04T14:33:25.013Z</time></trkpt><trkpt lat="43.5519483" lon="10.8523933"><ele>245.0</ele><time>2026-04-04T14:33:26.011Z</time></trkpt><trkpt lat="43.55181" lon="10.8525983"><ele>249.0</ele><time>2026-04-04T14:33:27.013Z</time></trkpt><trkpt lat="43.5516633" lon="10.8527933"><ele>249.0</ele><time>2026-04-04T14:33:28.012Z</time></trkpt><trkpt lat="43.5515283" lon="10.8529867"><ele>249.0</ele><time>2026-04-04T14:33:29.012Z</time></trkpt><trkpt lat="43.5514" lon="10.8531783"><ele>249.0</ele><time>2026-04-04T14:33:30.01Z</time></trkpt><trkpt lat="43.5512833" lon="10.85336"><ele>251.0</ele><time>2026-04-04T14:33:31.013Z</time></trkpt><trkpt lat="43.551175" lon="10.85354"><ele>253.0</ele><time>2026-04-04T14:33:32.012Z</time></trkpt><trkpt lat="43.5510633" lon="10.853715"><ele>255.0</ele><time>2026-04-04T14:33:33.012Z</time></trkpt><trkpt lat="43.5509533" lon="10.8538917"><ele>255.0</ele><time>2026-04-04T14:33:34.014Z</time></trkpt><trkpt lat="43.5508533" lon="10.8540717"><ele>255.0</ele><time>2026-04-04T14:33:35.011Z</time></trkpt><trkpt lat="43.5507667" lon="10.8542567"><ele>255.0</ele><time>2026-04-04T14:33:36.011Z</time></trkpt><trkpt lat="43.55069" lon="10.8544367"><ele>255.5</ele><time>2026-04-04T14:33:37.012Z</time></trkpt><trkpt lat="43.55062" lon="10.8546033"><ele>256.0</ele><time>2026-04-04T14:33:38.013Z</time></trkpt><trkpt lat="43.5505517" lon="10.85476"><ele>256.5</ele><time>2026-04-04T14:33:39.013Z</time></trkpt><trkpt lat="43.5504883" lon="10.8549067"><ele>257.0</ele><time>2026-04-04T14:33:40.013Z</time></trkpt><trkpt lat="43.5504333" lon="10.8550417"><ele>256.4</ele><time>2026-04-04T14:33:41.012Z</time></trkpt><trkpt lat="43.550385" lon="10.855165"><ele>255.79999999999998</ele><time>2026-04-04T14:33:42.011Z</time></trkpt><trkpt lat="43.5503417" lon="10.8552733"><ele>255.2</ele><time>2026-04-04T14:33:43.014Z</time></trkpt><trkpt lat="43.5502983" lon="10.8553717"><ele>254.6</ele><time>2026-04-04T14:33:44.014Z</time></trkpt><trkpt lat="43.5502617" lon="10.8554567"><ele>254.0</ele><time>2026-04-04T14:33:45.013Z</time></trkpt><trkpt lat="43.550205" lon="10.8555933"><ele>254.0</ele><time>2026-04-04T14:33:47.012Z</time></trkpt><trkpt lat="43.550145" lon="10.855705"><ele>253.99999999999997</ele><time>2026-04-04T14:33:49.013Z</time></trkpt><trkpt lat="43.5500683" lon="10.855805"><ele>253.99999999999997</ele><time>2026-04-04T14:33:51.012Z</time></trkpt><trkpt lat="43.5500133" lon="10.8558983"><ele>254.0</ele><time>2026-04-04T14:33:53.011Z</time></trkpt><trkpt lat="43.549995" lon="10.85599"><ele>254.0</ele><time>2026-04-04T14:33:55.013Z</time></trkpt><trkpt lat="43.5500117" lon="10.85611"><ele>254.16666666666669</ele><time>2026-04-04T14:33:57.012Z</time></trkpt><trkpt lat="43.5500433" lon="10.8562867"><ele>254.33333333333334</ele><time>2026-04-04T14:33:59.012Z</time></trkpt><trkpt lat="43.5500517" lon="10.8563917"><ele>254.5</ele><time>2026-04-04T14:34:00.012Z</time></trkpt><trkpt lat="43.5500517" lon="10.8564983"><ele>254.66666666666669</ele><time>2026-04-04T14:34:01.011Z</time></trkpt><trkpt lat="43.5500383" lon="10.856605"><ele>254.83333333333334</ele><time>2026-04-04T14:34:02.012Z</time></trkpt><trkpt lat="43.5500233" lon="10.856715"><ele>255.0</ele><time>2026-04-04T14:34:03.013Z</time></trkpt><trkpt lat="43.5499933" lon="10.8568267"><ele>254.2</ele><time>2026-04-04T14:34:04.012Z</time></trkpt><trkpt lat="43.5499567" lon="10.8569367"><ele>253.4</ele><time>2026-04-04T14:34:05.013Z</time></trkpt><trkpt lat="43.5499067" lon="10.85704"><ele>252.60000000000002</ele><time>2026-04-04T14:34:06.013Z</time></trkpt><trkpt lat="43.5498367" lon="10.8571317"><ele>251.8</ele><time>2026-04-04T14:34:07.013Z</time></trkpt><trkpt lat="43.5497567" lon="10.857215"><ele>251.0</ele><time>2026-04-04T14:34:08.012Z</time></trkpt><trkpt lat="43.549665" lon="10.8572817"><ele>251.0</ele><time>2026-04-04T14:34:09.012Z</time></trkpt><trkpt lat="43.5495633" lon="10.8573383"><ele>251.00000000000003</ele><time>2026-04-04T14:34:10.011Z</time></trkpt><trkpt lat="43.54946" lon="10.8573883"><ele>251.00000000000003</ele><time>2026-04-04T14:34:11.011Z</time></trkpt><trkpt lat="43.54935" lon="10.857435"><ele>251.0</ele><time>2026-04-04T14:34:12.012Z</time></trkpt><trkpt lat="43.5492433" lon="10.8574783"><ele>251.0</ele><time>2026-04-04T14:34:13.012Z</time></trkpt><trkpt lat="43.5491383" lon="10.8575383"><ele>250.5</ele><time>2026-04-04T14:34:14.013Z</time></trkpt><trkpt lat="43.5490417" lon="10.857625"><ele>250.0</ele><time>2026-04-04T14:34:15.012Z</time></trkpt><trkpt lat="43.548955" lon="10.85773"><ele>249.5</ele><time>2026-04-04T14:34:16.011Z</time></trkpt><trkpt lat="43.548885" lon="10.85786"><ele>249.0</ele><time>2026-04-04T14:34:17.012Z</time></trkpt><trkpt lat="43.5488367" lon="10.8580167"><ele>249.0</ele><time>2026-04-04T14:34:18.011Z</time></trkpt><trkpt lat="43.5487967" lon="10.8581883"><ele>249.0</ele><time>2026-04-04T14:34:19.011Z</time></trkpt><trkpt lat="43.5487867" lon="10.8583733"><ele>249.0</ele><time>2026-04-04T14:34:20.01Z</time></trkpt><trkpt lat="43.548785" lon="10.858565"><ele>249.0</ele><time>2026-04-04T14:34:21.014Z</time></trkpt><trkpt lat="43.5487817" lon="10.858765"><ele>251.0</ele><time>2026-04-04T14:34:22.013Z</time></trkpt><trkpt lat="43.5487767" lon="10.858965"><ele>253.0</ele><time>2026-04-04T14:34:23.012Z</time></trkpt><trkpt lat="43.5487733" lon="10.85917"><ele>255.0</ele><time>2026-04-04T14:34:24.012Z</time></trkpt><trkpt lat="43.548765" lon="10.859375"><ele>257.0</ele><time>2026-04-04T14:34:25.013Z</time></trkpt><trkpt lat="43.5487567" lon="10.85958"><ele>259.0</ele><time>2026-04-04T14:34:26.013Z</time></trkpt><trkpt lat="43.5487367" lon="10.8597867"><ele>261.0</ele><time>2026-04-04T14:34:27.013Z</time></trkpt><trkpt lat="43.548705" lon="10.8599917"><ele>263.0</ele><time>2026-04-04T14:34:28.013Z</time></trkpt><trkpt lat="43.5486667" lon="10.8602"><ele>263.0</ele><time>2026-04-04T14:34:29.013Z</time></trkpt><trkpt lat="43.5486233" lon="10.860415"><ele>263.0</ele><time>2026-04-04T14:34:30.012Z</time></trkpt><trkpt lat="43.5485633" lon="10.8606317"><ele>263.0</ele><time>2026-04-04T14:34:31.012Z</time></trkpt><trkpt lat="43.54849" lon="10.8608533"><ele>263.6666666666667</ele><time>2026-04-04T14:34:32.013Z</time></trkpt><trkpt lat="43.5484083" lon="10.86108"><ele>264.3333333333333</ele><time>2026-04-04T14:34:33.011Z</time></trkpt><trkpt lat="43.5483283" lon="10.8613017"><ele>265.0</ele><time>2026-04-04T14:34:34.012Z</time></trkpt><trkpt lat="43.548255" lon="10.8615183"><ele>265.0</ele><time>2026-04-04T14:34:35.013Z</time></trkpt><trkpt lat="43.5481867" lon="10.86174"><ele>265.0</ele><time>2026-04-04T14:34:36.013Z</time></trkpt><trkpt lat="43.5481217" lon="10.861965"><ele>265.0</ele><time>2026-04-04T14:34:37.011Z</time></trkpt><trkpt lat="43.5480467" lon="10.8622"><ele>266.3333333333333</ele><time>2026-04-04T14:34:38.013Z</time></trkpt><trkpt lat="43.5479733" lon="10.8624367"><ele>267.6666666666667</ele><time>2026-04-04T14:34:39.013Z</time></trkpt><trkpt lat="43.5478967" lon="10.8626717"><ele>269.0</ele><time>2026-04-04T14:34:40.011Z</time></trkpt><trkpt lat="43.54782" lon="10.862905"><ele>267.0</ele><time>2026-04-04T14:34:41.013Z</time></trkpt><trkpt lat="43.547745" lon="10.863135"><ele>265.0</ele><time>2026-04-04T14:34:42.01Z</time></trkpt><trkpt lat="43.5476733" lon="10.86336"><ele>263.0</ele><time>2026-04-04T14:34:43.012Z</time></trkpt><trkpt lat="43.5476033" lon="10.86358"><ele>263.0</ele><time>2026-04-04T14:34:44.012Z</time></trkpt><trkpt lat="43.5475233" lon="10.8637883"><ele>263.0</ele><time>2026-04-04T14:34:45.013Z</time></trkpt><trkpt lat="43.5474333" lon="10.86398"><ele>263.0</ele><time>2026-04-04T14:34:46.011Z</time></trkpt><trkpt lat="43.5473233" lon="10.8641583"><ele>264.0</ele><time>2026-04-04T14:34:47.012Z</time></trkpt><trkpt lat="43.5471967" lon="10.8643217"><ele>265.0</ele><time>2026-04-04T14:34:48.013Z</time></trkpt><trkpt lat="43.5470617" lon="10.8644717"><ele>266.0</ele><time>2026-04-04T14:34:49.015Z</time></trkpt><trkpt lat="43.5469233" lon="10.864615"><ele>268.33333333333337</ele><time>2026-04-04T14:34:50.011Z</time></trkpt><trkpt lat="43.5467817" lon="10.8647533"><ele>270.6666666666667</ele><time>2026-04-04T14:34:51.014Z</time></trkpt><trkpt lat="43.546645" lon="10.86489"><ele>273.0</ele><time>2026-04-04T14:34:52.013Z</time></trkpt><trkpt lat="43.54651" lon="10.865025"><ele>274.0</ele><time>2026-04-04T14:34:53.013Z</time></trkpt><trkpt lat="43.5463817" lon="10.8651567"><ele>275.0</ele><time>2026-04-04T14:34:54.013Z</time></trkpt><trkpt lat="43.5462517" lon="10.8652817"><ele>276.0</ele><time>2026-04-04T14:34:55.012Z</time></trkpt><trkpt lat="43.5461267" lon="10.8653933"><ele>276.0</ele><time>2026-04-04T14:34:56.013Z</time></trkpt><trkpt lat="43.545995" lon="10.865495"><ele>276.0</ele><time>2026-04-04T14:34:57.013Z</time></trkpt><trkpt lat="43.5458633" lon="10.8655883"><ele>276.0</ele><time>2026-04-04T14:34:58.012Z</time></trkpt><trkpt lat="43.5457267" lon="10.86568"><ele>276.0</ele><time>2026-04-04T14:34:59.012Z</time></trkpt><trkpt lat="43.5455883" lon="10.8657717"><ele>276.0</ele><time>2026-04-04T14:35:00.01Z</time></trkpt><trkpt lat="43.5454483" lon="10.8658733"><ele>276.0</ele><time>2026-04-04T14:35:01.013Z</time></trkpt><trkpt lat="43.5453033" lon="10.86598"><ele>276.6666666666667</ele><time>2026-04-04T14:35:02.012Z</time></trkpt><trkpt lat="43.5451583" lon="10.8660917"><ele>277.33333333333337</ele><time>2026-04-04T14:35:03.011Z</time></trkpt><trkpt lat="43.5450117" lon="10.8662067"><ele>278.0</ele><time>2026-04-04T14:35:04.013Z</time></trkpt><trkpt lat="43.544865" lon="10.8663233"><ele>278.0</ele><time>2026-04-04T14:35:05.011Z</time></trkpt><trkpt lat="43.5447167" lon="10.8664383"><ele>278.0</ele><time>2026-04-04T14:35:06.011Z</time></trkpt><trkpt lat="43.5445667" lon="10.866545"><ele>278.0</ele><time>2026-04-04T14:35:07.013Z</time></trkpt><trkpt lat="43.5444217" lon="10.8666433"><ele>280.25</ele><time>2026-04-04T14:35:08.012Z</time></trkpt><trkpt lat="43.544285" lon="10.866745"><ele>282.5</ele><time>2026-04-04T14:35:09.012Z</time></trkpt><trkpt lat="43.54417" lon="10.8668567"><ele>284.75</ele><time>2026-04-04T14:35:10.012Z</time></trkpt><trkpt lat="43.54408" lon="10.8669983"><ele>287.0</ele><time>2026-04-04T14:35:11.013Z</time></trkpt><trkpt lat="43.5440167" lon="10.86718"><ele>287.0</ele><time>2026-04-04T14:35:12.011Z</time></trkpt><trkpt lat="43.54397" lon="10.8673967"><ele>287.0</ele><time>2026-04-04T14:35:13.013Z</time></trkpt><trkpt lat="43.54393" lon="10.8676133"><ele>287.0</ele><time>2026-04-04T14:35:14.014Z</time></trkpt><trkpt lat="43.54389" lon="10.8678333"><ele>288.0</ele><time>2026-04-04T14:35:15.013Z</time></trkpt><trkpt lat="43.5438433" lon="10.8680533"><ele>289.0</ele><time>2026-04-04T14:35:16.012Z</time></trkpt><trkpt lat="43.5437917" lon="10.8682633"><ele>290.0</ele><time>2026-04-04T14:35:17.012Z</time></trkpt><trkpt lat="43.5437483" lon="10.86847"><ele>290.33333333333337</ele><time>2026-04-04T14:35:18.011Z</time></trkpt><trkpt lat="43.5437383" lon="10.8686817"><ele>290.6666666666667</ele><time>2026-04-04T14:35:19.012Z</time></trkpt><trkpt lat="43.5437583" lon="10.8689"><ele>291.0</ele><time>2026-04-04T14:35:20.012Z</time></trkpt><trkpt lat="43.5438033" lon="10.8691283"><ele>289.0</ele><time>2026-04-04T14:35:21.014Z</time></trkpt><trkpt lat="43.5438667" lon="10.8693717"><ele>287.0</ele><time>2026-04-04T14:35:22.011Z</time></trkpt><trkpt lat="43.5439433" lon="10.8696367"><ele>285.0</ele><time>2026-04-04T14:35:23.012Z</time></trkpt><trkpt lat="43.544005" lon="10.86991"><ele>284.0</ele><time>2026-04-04T14:35:24.013Z</time></trkpt><trkpt lat="43.544055" lon="10.8701933"><ele>283.0</ele><time>2026-04-04T14:35:25.012Z</time></trkpt><trkpt lat="43.5440883" lon="10.8704767"><ele>282.0</ele><time>2026-04-04T14:35:26.012Z</time></trkpt><trkpt lat="43.5441133" lon="10.8707517"><ele>282.3333333333333</ele><time>2026-04-04T14:35:27.012Z</time></trkpt><trkpt lat="43.5441267" lon="10.8710233"><ele>282.66666666666663</ele><time>2026-04-04T14:35:28.012Z</time></trkpt><trkpt lat="43.544145" lon="10.8713"><ele>283.0</ele><time>2026-04-04T14:35:29.011Z</time></trkpt><trkpt lat="43.544155" lon="10.8715817"><ele>283.66666666666663</ele><time>2026-04-04T14:35:30.012Z</time></trkpt><trkpt lat="43.5441667" lon="10.8718667"><ele>284.3333333333333</ele><time>2026-04-04T14:35:31.012Z</time></trkpt><trkpt lat="43.54417" lon="10.87215"><ele>285.0</ele><time>2026-04-04T14:35:32.014Z</time></trkpt><trkpt lat="43.5441617" lon="10.872425"><ele>287.0</ele><time>2026-04-04T14:35:33.012Z</time></trkpt><trkpt lat="43.5441417" lon="10.8726917"><ele>289.0</ele><time>2026-04-04T14:35:34.011Z</time></trkpt><trkpt lat="43.5440983" lon="10.872935"><ele>291.0</ele><time>2026-04-04T14:35:35.012Z</time></trkpt><trkpt lat="43.5440383" lon="10.8731467"><ele>291.0</ele><time>2026-04-04T14:35:36.014Z</time></trkpt><trkpt lat="43.5439783" lon="10.8733233"><ele>291.0</ele><time>2026-04-04T14:35:37.012Z</time></trkpt><trkpt lat="43.543915" lon="10.873485"><ele>291.0</ele><time>2026-04-04T14:35:38.011Z</time></trkpt><trkpt lat="43.5438583" lon="10.87362"><ele>291.0</ele><time>2026-04-04T14:35:39.013Z</time></trkpt><trkpt lat="43.5438133" lon="10.8737567"><ele>294.0</ele><time>2026-04-04T14:35:40.012Z</time></trkpt><trkpt lat="43.54378" lon="10.8738917"><ele>297.0</ele><time>2026-04-04T14:35:41.013Z</time></trkpt><trkpt lat="43.5437633" lon="10.8740417"><ele>300.0</ele><time>2026-04-04T14:35:42.011Z</time></trkpt><trkpt lat="43.54377" lon="10.8742167"><ele>303.0</ele><time>2026-04-04T14:35:43.013Z</time></trkpt><trkpt lat="43.5437783" lon="10.8744117"><ele>303.0</ele><time>2026-04-04T14:35:44.013Z</time></trkpt><trkpt lat="43.543775" lon="10.8746167"><ele>303.0</ele><time>2026-04-04T14:35:45.013Z</time></trkpt><trkpt lat="43.543775" lon="10.8748267"><ele>303.0</ele><time>2026-04-04T14:35:46.014Z</time></trkpt><trkpt lat="43.5437833" lon="10.87503"><ele>303.0</ele><time>2026-04-04T14:35:47.013Z</time></trkpt><trkpt lat="43.5437833" lon="10.8752183"><ele>303.0</ele><time>2026-04-04T14:35:48.011Z</time></trkpt><trkpt lat="43.5437967" lon="10.875405"><ele>303.0</ele><time>2026-04-04T14:35:49.012Z</time></trkpt><trkpt lat="43.543795" lon="10.875605"><ele>303.0</ele><time>2026-04-04T14:35:50.013Z</time></trkpt><trkpt lat="43.543775" lon="10.8758117"><ele>303.0</ele><time>2026-04-04T14:35:51.013Z</time></trkpt><trkpt lat="43.54375" lon="10.8760217"><ele>303.25</ele><time>2026-04-04T14:35:52.012Z</time></trkpt><trkpt lat="43.5437217" lon="10.8762167"><ele>303.5</ele><time>2026-04-04T14:35:53.013Z</time></trkpt><trkpt lat="43.5436917" lon="10.8763983"><ele>303.75</ele><time>2026-04-04T14:35:54.012Z</time></trkpt><trkpt lat="43.5436633" lon="10.8765717"><ele>304.0</ele><time>2026-04-04T14:35:55.013Z</time></trkpt><trkpt lat="43.5436267" lon="10.8767467"><ele>305.66666666666663</ele><time>2026-04-04T14:35:56.013Z</time></trkpt><trkpt lat="43.5435667" lon="10.8769383"><ele>307.3333333333333</ele><time>2026-04-04T14:35:57.015Z</time></trkpt><trkpt lat="43.5434867" lon="10.87715"><ele>309.0</ele><time>2026-04-04T14:35:58.012Z</time></trkpt><trkpt lat="43.5433933" lon="10.8773767"><ele>307.6666666666667</ele><time>2026-04-04T14:35:59.013Z</time></trkpt><trkpt lat="43.543285" lon="10.8776133"><ele>306.33333333333337</ele><time>2026-04-04T14:36:00.013Z</time></trkpt><trkpt lat="43.5431633" lon="10.877845"><ele>305.0</ele><time>2026-04-04T14:36:01.013Z</time></trkpt><trkpt lat="43.54304" lon="10.8780833"><ele>305.0</ele><time>2026-04-04T14:36:02.011Z</time></trkpt><trkpt lat="43.54292" lon="10.8783267"><ele>305.0</ele><time>2026-04-04T14:36:03.012Z</time></trkpt><trkpt lat="43.5427933" lon="10.8785633"><ele>305.0</ele><time>2026-04-04T14:36:04.011Z</time></trkpt><trkpt lat="43.54267" lon="10.8787933"><ele>305.0</ele><time>2026-04-04T14:36:05.012Z</time></trkpt><trkpt lat="43.5425533" lon="10.8790167"><ele>305.0</ele><time>2026-04-04T14:36:06.013Z</time></trkpt><trkpt lat="43.542445" lon="10.8792417"><ele>305.0</ele><time>2026-04-04T14:36:07.013Z</time></trkpt><trkpt lat="43.5423333" lon="10.8794617"><ele>305.0</ele><time>2026-04-04T14:36:08.013Z</time></trkpt><trkpt lat="43.5422417" lon="10.8796817"><ele>305.0</ele><time>2026-04-04T14:36:09.014Z</time></trkpt><trkpt lat="43.5421417" lon="10.8798767"><ele>305.0</ele><time>2026-04-04T14:36:10.012Z</time></trkpt><trkpt lat="43.5420167" lon="10.8800267"><ele>304.0</ele><time>2026-04-04T14:36:11.013Z</time></trkpt><trkpt lat="43.5418767" lon="10.880115"><ele>303.0</ele><time>2026-04-04T14:36:12.011Z</time></trkpt><trkpt lat="43.5417183" lon="10.880145"><ele>302.0</ele><time>2026-04-04T14:36:13.012Z</time></trkpt><trkpt lat="43.5415517" lon="10.880135"><ele>302.0</ele><time>2026-04-04T14:36:14.013Z</time></trkpt><trkpt lat="43.5413767" lon="10.8801067"><ele>302.0</ele><time>2026-04-04T14:36:15.014Z</time></trkpt><trkpt lat="43.5412083" lon="10.880105"><ele>302.0</ele><time>2026-04-04T14:36:16.011Z</time></trkpt><trkpt lat="43.5410433" lon="10.8801467"><ele>306.0</ele><time>2026-04-04T14:36:17.013Z</time></trkpt><trkpt lat="43.540895" lon="10.8802383"><ele>310.0</ele><time>2026-04-04T14:36:18.011Z</time></trkpt><trkpt lat="43.5407567" lon="10.880365"><ele>314.0</ele><time>2026-04-04T14:36:19.013Z</time></trkpt><trkpt lat="43.5406483" lon="10.88058"><ele>314.0</ele><time>2026-04-04T14:36:20.011Z</time></trkpt><trkpt lat="43.5405667" lon="10.8808333"><ele>314.0</ele><time>2026-04-04T14:36:21.013Z</time></trkpt><trkpt lat="43.5405017" lon="10.8811217"><ele>314.0</ele><time>2026-04-04T14:36:22.012Z</time></trkpt><trkpt lat="43.5404317" lon="10.881455"><ele>313.5</ele><time>2026-04-04T14:36:23.011Z</time></trkpt><trkpt lat="43.5403417" lon="10.8817917"><ele>313.0</ele><time>2026-04-04T14:36:24.012Z</time></trkpt><trkpt lat="43.54025" lon="10.88214"><ele>313.0</ele><time>2026-04-04T14:36:25.013Z</time></trkpt><trkpt lat="43.540165" lon="10.8824867"><ele>313.0</ele><time>2026-04-04T14:36:26.012Z</time></trkpt><trkpt lat="43.5400633" lon="10.882815"><ele>316.5</ele><time>2026-04-04T14:36:27.011Z</time></trkpt><trkpt lat="43.53997" lon="10.8831183"><ele>320.0</ele><time>2026-04-04T14:36:28.012Z</time></trkpt><trkpt lat="43.539885" lon="10.8834217"><ele>321.0</ele><time>2026-04-04T14:36:29.014Z</time></trkpt><trkpt lat="43.53982" lon="10.8837317"><ele>322.0</ele><time>2026-04-04T14:36:30.013Z</time></trkpt><trkpt lat="43.5397683" lon="10.8840433"><ele>320.66666666666663</ele><time>2026-04-04T14:36:31.012Z</time></trkpt><trkpt lat="43.5397283" lon="10.884345"><ele>319.3333333333333</ele><time>2026-04-04T14:36:32.013Z</time></trkpt><trkpt lat="43.5396967" lon="10.8846267"><ele>318.0</ele><time>2026-04-04T14:36:33.012Z</time></trkpt><trkpt lat="43.5396483" lon="10.8848933"><ele>314.3333333333333</ele><time>2026-04-04T14:36:34.01Z</time></trkpt><trkpt lat="43.5395667" lon="10.8851483"><ele>310.66666666666663</ele><time>2026-04-04T14:36:35.011Z</time></trkpt><trkpt lat="43.5394633" lon="10.8853867"><ele>307.0</ele><time>2026-04-04T14:36:36.011Z</time></trkpt><trkpt lat="43.5393367" lon="10.8856133"><ele>310.0</ele><time>2026-04-04T14:36:37.013Z</time></trkpt><trkpt lat="43.5391967" lon="10.88582"><ele>313.0</ele><time>2026-04-04T14:36:38.012Z</time></trkpt><trkpt lat="43.5390517" lon="10.88599"><ele>316.0</ele><time>2026-04-04T14:36:39.011Z</time></trkpt><trkpt lat="43.5388883" lon="10.8861133"><ele>320.0</ele><time>2026-04-04T14:36:40.013Z</time></trkpt><trkpt lat="43.538705" lon="10.8861983"><ele>324.0</ele><time>2026-04-04T14:36:41.013Z</time></trkpt><trkpt lat="43.5385" lon="10.886245"><ele>328.0</ele><time>2026-04-04T14:36:42.012Z</time></trkpt><trkpt lat="43.5383033" lon="10.8862833"><ele>328.0</ele><time>2026-04-04T14:36:43.012Z</time></trkpt><trkpt lat="43.538115" lon="10.8863233"><ele>328.0</ele><time>2026-04-04T14:36:44.012Z</time></trkpt><trkpt lat="43.5379433" lon="10.8863817"><ele>328.0</ele><time>2026-04-04T14:36:45.013Z</time></trkpt><trkpt lat="43.5378083" lon="10.8864933"><ele>328.3333333333333</ele><time>2026-04-04T14:36:46.013Z</time></trkpt><trkpt lat="43.5376983" lon="10.886665"><ele>328.6666666666667</ele><time>2026-04-04T14:36:47.012Z</time></trkpt><trkpt lat="43.537615" lon="10.8868733"><ele>329.0</ele><time>2026-04-04T14:36:48.014Z</time></trkpt><trkpt lat="43.5375817" lon="10.8871317"><ele>331.0</ele><time>2026-04-04T14:36:49.012Z</time></trkpt><trkpt lat="43.5375467" lon="10.88742"><ele>333.0</ele><time>2026-04-04T14:36:50.014Z</time></trkpt><trkpt lat="43.537505" lon="10.8877033"><ele>335.0</ele><time>2026-04-04T14:36:51.013Z</time></trkpt><trkpt lat="43.537445" lon="10.88797"><ele>335.0</ele><time>2026-04-04T14:36:52.013Z</time></trkpt><trkpt lat="43.5373583" lon="10.8882133"><ele>335.0</ele><time>2026-04-04T14:36:53.013Z</time></trkpt><trkpt lat="43.5372533" lon="10.8884333"><ele>335.0</ele><time>2026-04-04T14:36:54.013Z</time></trkpt><trkpt lat="43.537135" lon="10.8886367"><ele>333.6666666666667</ele><time>2026-04-04T14:36:55.013Z</time></trkpt><trkpt lat="43.5369933" lon="10.8888167"><ele>332.3333333333333</ele><time>2026-04-04T14:36:56.011Z</time></trkpt><trkpt lat="43.5368283" lon="10.8889817"><ele>331.0</ele><time>2026-04-04T14:36:57.012Z</time></trkpt><trkpt lat="43.5366317" lon="10.889115"><ele>331.0</ele><time>2026-04-04T14:36:58.012Z</time></trkpt><trkpt lat="43.53643" lon="10.8892467"><ele>331.0</ele><time>2026-04-04T14:36:59.013Z</time></trkpt><trkpt lat="43.536235" lon="10.8894017"><ele>331.0</ele><time>2026-04-04T14:37:00.013Z</time></trkpt><trkpt lat="43.5360517" lon="10.8895883"><ele>329.0</ele><time>2026-04-04T14:37:01.014Z</time></trkpt><trkpt lat="43.535875" lon="10.8897867"><ele>327.0</ele><time>2026-04-04T14:37:02.013Z</time></trkpt><trkpt lat="43.5357017" lon="10.8900033"><ele>326.0</ele><time>2026-04-04T14:37:03.014Z</time></trkpt><trkpt lat="43.5355367" lon="10.8902283"><ele>325.0</ele><time>2026-04-04T14:37:04.012Z</time></trkpt><trkpt lat="43.5353717" lon="10.890445"><ele>325.0</ele><time>2026-04-04T14:37:05.013Z</time></trkpt><trkpt lat="43.5352017" lon="10.8906583"><ele>325.0</ele><time>2026-04-04T14:37:06.013Z</time></trkpt><trkpt lat="43.5350417" lon="10.8908617"><ele>325.0</ele><time>2026-04-04T14:37:07.013Z</time></trkpt><trkpt lat="43.53489" lon="10.8910517"><ele>323.3333333333333</ele><time>2026-04-04T14:37:08.013Z</time></trkpt><trkpt lat="43.5347367" lon="10.8912467"><ele>321.6666666666667</ele><time>2026-04-04T14:37:09.013Z</time></trkpt><trkpt lat="43.5345833" lon="10.8914417"><ele>320.0</ele><time>2026-04-04T14:37:10.012Z</time></trkpt><trkpt lat="43.53444" lon="10.8916383"><ele>323.0</ele><time>2026-04-04T14:37:11.012Z</time></trkpt><trkpt lat="43.534295" lon="10.891825"><ele>326.0</ele><time>2026-04-04T14:37:12.011Z</time></trkpt><trkpt lat="43.5341567" lon="10.8920083"><ele>329.0</ele><time>2026-04-04T14:37:13.012Z</time></trkpt><trkpt lat="43.5340367" lon="10.8921767"><ele>329.0</ele><time>2026-04-04T14:37:14.012Z</time></trkpt><trkpt lat="43.5339033" lon="10.8923183"><ele>329.0</ele><time>2026-04-04T14:37:15.013Z</time></trkpt><trkpt lat="43.533755" lon="10.8924083"><ele>329.0</ele><time>2026-04-04T14:37:16.012Z</time></trkpt><trkpt lat="43.5335867" lon="10.8924383"><ele>332.6666666666667</ele><time>2026-04-04T14:37:17.012Z</time></trkpt><trkpt lat="43.5334067" lon="10.8924117"><ele>336.3333333333333</ele><time>2026-04-04T14:37:18.012Z</time></trkpt><trkpt lat="43.533205" lon="10.8923467"><ele>340.0</ele><time>2026-04-04T14:37:19.012Z</time></trkpt><trkpt lat="43.53299" lon="10.8922817"><ele>340.0</ele><time>2026-04-04T14:37:20.013Z</time></trkpt><trkpt lat="43.5327767" lon="10.8922183"><ele>340.0</ele><time>2026-04-04T14:37:21.013Z</time></trkpt><trkpt lat="43.5325717" lon="10.89217"><ele>340.0</ele><time>2026-04-04T14:37:22.01Z</time></trkpt><trkpt lat="43.5323667" lon="10.8921367"><ele>340.0</ele><time>2026-04-04T14:37:23.011Z</time></trkpt><trkpt lat="43.53216" lon="10.8921383"><ele>340.0</ele><time>2026-04-04T14:37:24.013Z</time></trkpt><trkpt lat="43.5319533" lon="10.89213"><ele>340.0</ele><time>2026-04-04T14:37:25.012Z</time></trkpt><trkpt lat="43.5317467" lon="10.89214"><ele>340.0</ele><time>2026-04-04T14:37:26.011Z</time></trkpt><trkpt lat="43.5315367" lon="10.8921733"><ele>340.0</ele><time>2026-04-04T14:37:27.013Z</time></trkpt><trkpt lat="43.5313267" lon="10.8922183"><ele>340.0</ele><time>2026-04-04T14:37:28.01Z</time></trkpt><trkpt lat="43.5311183" lon="10.8922717"><ele>342.3333333333333</ele><time>2026-04-04T14:37:29.013Z</time></trkpt><trkpt lat="43.5309133" lon="10.8923333"><ele>344.6666666666667</ele><time>2026-04-04T14:37:30.013Z</time></trkpt><trkpt lat="43.5307133" lon="10.8924017"><ele>347.0</ele><time>2026-04-04T14:37:31.013Z</time></trkpt><trkpt lat="43.5305133" lon="10.8924617"><ele>346.33333333333337</ele><time>2026-04-04T14:37:32.013Z</time></trkpt><trkpt lat="43.5303117" lon="10.89252"><ele>345.6666666666667</ele><time>2026-04-04T14:37:33.012Z</time></trkpt><trkpt lat="43.5301133" lon="10.8925783"><ele>345.0</ele><time>2026-04-04T14:37:34.012Z</time></trkpt><trkpt lat="43.5299167" lon="10.892625"><ele>345.0</ele><time>2026-04-04T14:37:35.012Z</time></trkpt><trkpt lat="43.529725" lon="10.89267"><ele>345.0</ele><time>2026-04-04T14:37:36.013Z</time></trkpt><trkpt lat="43.52954" lon="10.8927383"><ele>345.0</ele><time>2026-04-04T14:37:37.012Z</time></trkpt><trkpt lat="43.5293517" lon="10.8928433"><ele>345.0</ele><time>2026-04-04T14:37:38.014Z</time></trkpt><trkpt lat="43.5291683" lon="10.8929783"><ele>345.0</ele><time>2026-04-04T14:37:39.013Z</time></trkpt><trkpt lat="43.528985" lon="10.89313"><ele>345.0</ele><time>2026-04-04T14:37:40.013Z</time></trkpt><trkpt lat="43.5288017" lon="10.8933"><ele>348.3333333333333</ele><time>2026-04-04T14:37:41.012Z</time></trkpt><trkpt lat="43.528625" lon="10.89347"><ele>351.66666666666663</ele><time>2026-04-04T14:37:42.012Z</time></trkpt><trkpt lat="43.5284633" lon="10.8936233"><ele>355.0</ele><time>2026-04-04T14:37:43.012Z</time></trkpt><trkpt lat="43.5283183" lon="10.893765"><ele>355.0</ele><time>2026-04-04T14:37:44.012Z</time></trkpt><trkpt lat="43.5281833" lon="10.893895"><ele>355.0</ele><time>2026-04-04T14:37:45.014Z</time></trkpt><trkpt lat="43.5280667" lon="10.8940167"><ele>355.0</ele><time>2026-04-04T14:37:46.012Z</time></trkpt><trkpt lat="43.5279817" lon="10.8941433"><ele>355.0</ele><time>2026-04-04T14:37:47.011Z</time></trkpt><trkpt lat="43.5279333" lon="10.894295"><ele>357.75</ele><time>2026-04-04T14:37:48.013Z</time></trkpt><trkpt lat="43.52793" lon="10.894475"><ele>360.5</ele><time>2026-04-04T14:37:49.013Z</time></trkpt><trkpt lat="43.52795" lon="10.8946617"><ele>363.25</ele><time>2026-04-04T14:37:50.013Z</time></trkpt><trkpt lat="43.527985" lon="10.89484"><ele>366.0</ele><time>2026-04-04T14:37:51.012Z</time></trkpt><trkpt lat="43.52801" lon="10.8949967"><ele>369.6</ele><time>2026-04-04T14:37:52.011Z</time></trkpt><trkpt lat="43.5280183" lon="10.895135"><ele>373.20000000000005</ele><time>2026-04-04T14:37:53.013Z</time></trkpt><trkpt lat="43.5280183" lon="10.895265"><ele>376.79999999999995</ele><time>2026-04-04T14:37:54.012Z</time></trkpt><trkpt lat="43.5279967" lon="10.8953917"><ele>380.4</ele><time>2026-04-04T14:37:55.013Z</time></trkpt><trkpt lat="43.5279817" lon="10.8955183"><ele>384.0</ele><time>2026-04-04T14:37:56.014Z</time></trkpt><trkpt lat="43.527935" lon="10.8956183"><ele>384.8333333333333</ele><time>2026-04-04T14:37:57.013Z</time></trkpt><trkpt lat="43.5278733" lon="10.895705"><ele>385.66666666666663</ele><time>2026-04-04T14:37:58.012Z</time></trkpt><trkpt lat="43.5278067" lon="10.8957717"><ele>386.5</ele><time>2026-04-04T14:37:59.013Z</time></trkpt><trkpt lat="43.527735" lon="10.895835"><ele>387.3333333333333</ele><time>2026-04-04T14:38:00.012Z</time></trkpt><trkpt lat="43.5276717" lon="10.8959133"><ele>388.16666666666663</ele><time>2026-04-04T14:38:01.013Z</time></trkpt><trkpt lat="43.5276033" lon="10.8959983"><ele>389.0</ele><time>2026-04-04T14:38:02.012Z</time></trkpt><trkpt lat="43.5275567" lon="10.8961083"><ele>388.99999999999994</ele><time>2026-04-04T14:38:03.013Z</time></trkpt><trkpt lat="43.5275217" lon="10.8962367"><ele>389.0</ele><time>2026-04-04T14:38:04.014Z</time></trkpt><trkpt lat="43.52747" lon="10.8963517"><ele>389.0</ele><time>2026-04-04T14:38:05.012Z</time></trkpt><trkpt lat="43.527415" lon="10.89646"><ele>389.0</ele><time>2026-04-04T14:38:06.013Z</time></trkpt><trkpt lat="43.527365" lon="10.8965467"><ele>388.99999999999994</ele><time>2026-04-04T14:38:07.014Z</time></trkpt><trkpt lat="43.5273083" lon="10.896615"><ele>389.0</ele><time>2026-04-04T14:38:08.013Z</time></trkpt><trkpt lat="43.5272433" lon="10.8966667"><ele>388.99999999999994</ele><time>2026-04-04T14:38:09.013Z</time></trkpt><trkpt lat="43.5271617" lon="10.8966817"><ele>389.0</ele><time>2026-04-04T14:38:10.012Z</time></trkpt><trkpt lat="43.52709" lon="10.89668"><ele>389.0</ele><time>2026-04-04T14:38:11.012Z</time></trkpt><trkpt lat="43.5270117" lon="10.8966567"><ele>389.0</ele><time>2026-04-04T14:38:12.013Z</time></trkpt><trkpt lat="43.5269233" lon="10.896625"><ele>388.99999999999994</ele><time>2026-04-04T14:38:13.013Z</time></trkpt><trkpt lat="43.5268417" lon="10.8966017"><ele>389.0</ele><time>2026-04-04T14:38:14.012Z</time></trkpt><trkpt lat="43.5267517" lon="10.896595"><ele>389.79999999999995</ele><time>2026-04-04T14:38:15.013Z</time></trkpt><trkpt lat="43.5266567" lon="10.89657"><ele>390.59999999999997</ele><time>2026-04-04T14:38:16.012Z</time></trkpt><trkpt lat="43.526565" lon="10.89654"><ele>391.4</ele><time>2026-04-04T14:38:17.012Z</time></trkpt><trkpt lat="43.52649" lon="10.89651"><ele>392.2</ele><time>2026-04-04T14:38:18.013Z</time></trkpt><trkpt lat="43.526385" lon="10.8964783"><ele>393.0</ele><time>2026-04-04T14:38:20.013Z</time></trkpt><trkpt lat="43.5262983" lon="10.8965233"><ele>393.0</ele><time>2026-04-04T14:38:22.011Z</time></trkpt><trkpt lat="43.5262483" lon="10.8966167"><ele>393.0</ele><time>2026-04-04T14:38:24.012Z</time></trkpt><trkpt lat="43.5263183" lon="10.896725"><ele>393.0</ele><time>2026-04-04T14:38:26.012Z</time></trkpt><trkpt lat="43.52645" lon="10.896735"><ele>393.0</ele><time>2026-04-04T14:38:27.013Z</time></trkpt><trkpt lat="43.526545" lon="10.89677"><ele>393.0</ele><time>2026-04-04T14:38:28.013Z</time></trkpt><trkpt lat="43.5266383" lon="10.8968"><ele>392.5</ele><time>2026-04-04T14:38:29.012Z</time></trkpt><trkpt lat="43.5269017" lon="10.89685"><ele>392.0</ele><time>2026-04-04T14:38:30.013Z</time></trkpt><trkpt lat="43.52711" lon="10.8969067"><ele>392.66666666666663</ele><time>2026-04-04T14:38:31.013Z</time></trkpt><trkpt lat="43.52731" lon="10.89697"><ele>393.33333333333337</ele><time>2026-04-04T14:38:32.012Z</time></trkpt><trkpt lat="43.5275183" lon="10.897035"><ele>394.0</ele><time>2026-04-04T14:38:33.014Z</time></trkpt><trkpt lat="43.5277117" lon="10.8971"><ele>395.0</ele><time>2026-04-04T14:38:34.013Z</time></trkpt><trkpt lat="43.5279183" lon="10.89717"><ele>396.0</ele><time>2026-04-04T14:38:35.013Z</time></trkpt><trkpt lat="43.5281217" lon="10.8972433"><ele>397.0</ele><time>2026-04-04T14:38:36.013Z</time></trkpt><trkpt lat="43.52833" lon="10.8973267"><ele>397.0</ele><time>2026-04-04T14:38:37.014Z</time></trkpt><trkpt lat="43.5285417" lon="10.89741"><ele>397.0</ele><time>2026-04-04T14:38:38.013Z</time></trkpt><trkpt lat="43.5287383" lon="10.8975183"><ele>397.0</ele><time>2026-04-04T14:38:39.014Z</time></trkpt><trkpt lat="43.528925" lon="10.8976517"><ele>394.6666666666667</ele><time>2026-04-04T14:38:40.012Z</time></trkpt><trkpt lat="43.5291033" lon="10.8978"><ele>392.33333333333337</ele><time>2026-04-04T14:38:41.014Z</time></trkpt><trkpt lat="43.5292833" lon="10.89794"><ele>390.0</ele><time>2026-04-04T14:38:42.012Z</time></trkpt><trkpt lat="43.52947" lon="10.8980683"><ele>390.0</ele><time>2026-04-04T14:38:43.012Z</time></trkpt><trkpt lat="43.5296583" lon="10.8981967"><ele>390.0</ele><time>2026-04-04T14:38:44.013Z</time></trkpt><trkpt lat="43.5298567" lon="10.89832"><ele>390.0</ele><time>2026-04-04T14:38:45.013Z</time></trkpt><trkpt lat="43.5300383" lon="10.8984483"><ele>390.0</ele><time>2026-04-04T14:38:46.012Z</time></trkpt><trkpt lat="43.5302183" lon="10.8985717"><ele>390.0</ele><time>2026-04-04T14:38:47.013Z</time></trkpt><trkpt lat="43.5304" lon="10.8986933"><ele>390.0</ele><time>2026-04-04T14:38:48.013Z</time></trkpt><trkpt lat="43.530575" lon="10.8988333"><ele>387.3333333333333</ele><time>2026-04-04T14:38:49.013Z</time></trkpt><trkpt lat="43.5307567" lon="10.8989783"><ele>384.66666666666663</ele><time>2026-04-04T14:38:50.012Z</time></trkpt><trkpt lat="43.5309433" lon="10.89912"><ele>382.0</ele><time>2026-04-04T14:38:51.013Z</time></trkpt><trkpt lat="43.5311417" lon="10.8992533"><ele>378.66666666666663</ele><time>2026-04-04T14:38:52.013Z</time></trkpt><trkpt lat="43.5313433" lon="10.8993767"><ele>375.3333333333333</ele><time>2026-04-04T14:38:53.011Z</time></trkpt><trkpt lat="43.5315417" lon="10.8994817"><ele>372.0</ele><time>2026-04-04T14:38:54.013Z</time></trkpt><trkpt lat="43.5317383" lon="10.8995533"><ele>372.0</ele><time>2026-04-04T14:38:55.011Z</time></trkpt><trkpt lat="43.5319383" lon="10.8995883"><ele>372.0</ele><time>2026-04-04T14:38:56.014Z</time></trkpt><trkpt lat="43.5321533" lon="10.899585"><ele>372.0</ele><time>2026-04-04T14:38:57.012Z</time></trkpt><trkpt lat="43.5323617" lon="10.8995767"><ele>372.6666666666667</ele><time>2026-04-04T14:38:58.012Z</time></trkpt><trkpt lat="43.532555" lon="10.89957"><ele>373.33333333333337</ele><time>2026-04-04T14:38:59.013Z</time></trkpt><trkpt lat="43.532745" lon="10.8995683"><ele>374.0</ele><time>2026-04-04T14:39:00.013Z</time></trkpt><trkpt lat="43.5329283" lon="10.899565"><ele>372.25</ele><time>2026-04-04T14:39:01.013Z</time></trkpt><trkpt lat="43.5330867" lon="10.8995583"><ele>370.5</ele><time>2026-04-04T14:39:02.011Z</time></trkpt><trkpt lat="43.53323" lon="10.89953"><ele>368.75</ele><time>2026-04-04T14:39:03.013Z</time></trkpt><trkpt lat="43.5333467" lon="10.899465"><ele>367.0</ele><time>2026-04-04T14:39:04.014Z</time></trkpt><trkpt lat="43.5334383" lon="10.8993717"><ele>367.0</ele><time>2026-04-04T14:39:05.013Z</time></trkpt><trkpt lat="43.5335067" lon="10.8992533"><ele>367.0</ele><time>2026-04-04T14:39:06.013Z</time></trkpt><trkpt lat="43.5335033" lon="10.8991017"><ele>367.0</ele><time>2026-04-04T14:39:07.013Z</time></trkpt><trkpt lat="43.5334517" lon="10.89893"><ele>367.0</ele><time>2026-04-04T14:39:08.013Z</time></trkpt><trkpt lat="43.533375" lon="10.898765"><ele>366.25</ele><time>2026-04-04T14:39:09.014Z</time></trkpt><trkpt lat="43.533285" lon="10.8986033"><ele>365.5</ele><time>2026-04-04T14:39:10.013Z</time></trkpt><trkpt lat="43.5331933" lon="10.898455"><ele>364.75</ele><time>2026-04-04T14:39:11.014Z</time></trkpt><trkpt lat="43.5331167" lon="10.8983133"><ele>364.0</ele><time>2026-04-04T14:39:12.012Z</time></trkpt><trkpt lat="43.5330483" lon="10.8981733"><ele>362.25</ele><time>2026-04-04T14:39:13.013Z</time></trkpt><trkpt lat="43.533005" lon="10.8980267"><ele>360.5</ele><time>2026-04-04T14:39:14.013Z</time></trkpt><trkpt lat="43.532995" lon="10.8978617"><ele>358.75</ele><time>2026-04-04T14:39:15.012Z</time></trkpt><trkpt lat="43.53302" lon="10.897675"><ele>357.0</ele><time>2026-04-04T14:39:16.012Z</time></trkpt><trkpt lat="43.5330767" lon="10.8975067"><ele>357.0</ele><time>2026-04-04T14:39:17.012Z</time></trkpt><trkpt lat="43.5331467" lon="10.897355"><ele>357.0</ele><time>2026-04-04T14:39:18.013Z</time></trkpt><trkpt lat="43.5332333" lon="10.8972317"><ele>357.0</ele><time>2026-04-04T14:39:19.014Z</time></trkpt><trkpt lat="43.5333383" lon="10.8971317"><ele>357.0</ele><time>2026-04-04T14:39:20.012Z</time></trkpt><trkpt lat="43.53345" lon="10.8970633"><ele>357.0</ele><time>2026-04-04T14:39:21.013Z</time></trkpt><trkpt lat="43.5335683" lon="10.8970233"><ele>357.0</ele><time>2026-04-04T14:39:22.011Z</time></trkpt><trkpt lat="43.5336933" lon="10.8970133"><ele>357.0</ele><time>2026-04-04T14:39:23.013Z</time></trkpt><trkpt lat="43.533825" lon="10.8970133"><ele>357.0</ele><time>2026-04-04T14:39:24.014Z</time></trkpt><trkpt lat="43.5339683" lon="10.89702"><ele>355.3333333333333</ele><time>2026-04-04T14:39:25.013Z</time></trkpt><trkpt lat="43.5341233" lon="10.89703"><ele>353.66666666666663</ele><time>2026-04-04T14:39:26.013Z</time></trkpt><trkpt lat="43.5342933" lon="10.8970483"><ele>352.0</ele><time>2026-04-04T14:39:27.012Z</time></trkpt><trkpt lat="43.5344683" lon="10.89707"><ele>350.3333333333333</ele><time>2026-04-04T14:39:28.012Z</time></trkpt><trkpt lat="43.534645" lon="10.89709"><ele>348.6666666666667</ele><time>2026-04-04T14:39:29.014Z</time></trkpt><trkpt lat="43.5348183" lon="10.8971267"><ele>347.0</ele><time>2026-04-04T14:39:30.013Z</time></trkpt><trkpt lat="43.5349883" lon="10.897205"><ele>347.0</ele><time>2026-04-04T14:39:31.012Z</time></trkpt><trkpt lat="43.5351533" lon="10.8973067"><ele>347.0</ele><time>2026-04-04T14:39:32.013Z</time></trkpt><trkpt lat="43.53531" lon="10.897445"><ele>347.0</ele><time>2026-04-04T14:39:33.013Z</time></trkpt><trkpt lat="43.5354633" lon="10.897605"><ele>344.6666666666667</ele><time>2026-04-04T14:39:34.013Z</time></trkpt><trkpt lat="43.53562" lon="10.8977817"><ele>342.3333333333333</ele><time>2026-04-04T14:39:35.013Z</time></trkpt><trkpt lat="43.5357833" lon="10.8979683"><ele>340.0</ele><time>2026-04-04T14:39:36.013Z</time></trkpt><trkpt lat="43.5359483" lon="10.898155"><ele>340.0</ele><time>2026-04-04T14:39:37.013Z</time></trkpt><trkpt lat="43.5361183" lon="10.89834"><ele>340.0</ele><time>2026-04-04T14:39:38.013Z</time></trkpt><trkpt lat="43.536285" lon="10.8985283"><ele>340.0</ele><time>2026-04-04T14:39:39.013Z</time></trkpt><trkpt lat="43.5364483" lon="10.8987183"><ele>338.3333333333333</ele><time>2026-04-04T14:39:40.014Z</time></trkpt><trkpt lat="43.5366017" lon="10.8989017"><ele>336.6666666666667</ele><time>2026-04-04T14:39:41.012Z</time></trkpt><trkpt lat="43.5367433" lon="10.8990933"><ele>335.0</ele><time>2026-04-04T14:39:42.012Z</time></trkpt><trkpt lat="43.53686" lon="10.8993083"><ele>335.0</ele><time>2026-04-04T14:39:43.013Z</time></trkpt><trkpt lat="43.53695" lon="10.8995517"><ele>335.0</ele><time>2026-04-04T14:39:44.014Z</time></trkpt><trkpt lat="43.53702" lon="10.8998167"><ele>335.0</ele><time>2026-04-04T14:39:45.015Z</time></trkpt><trkpt lat="43.5371033" lon="10.9000883"><ele>333.6666666666667</ele><time>2026-04-04T14:39:46.013Z</time></trkpt><trkpt lat="43.537155" lon="10.9003717"><ele>332.3333333333333</ele><time>2026-04-04T14:39:47.012Z</time></trkpt><trkpt lat="43.5371933" lon="10.9006433"><ele>331.0</ele><time>2026-04-04T14:39:48.014Z</time></trkpt><trkpt lat="43.53723" lon="10.900905"><ele>327.3333333333333</ele><time>2026-04-04T14:39:49.013Z</time></trkpt><trkpt lat="43.5372933" lon="10.9011517"><ele>323.6666666666667</ele><time>2026-04-04T14:39:50.012Z</time></trkpt><trkpt lat="43.5373467" lon="10.9013917"><ele>320.0</ele><time>2026-04-04T14:39:51.013Z</time></trkpt><trkpt lat="43.5374217" lon="10.901605"><ele>319.0</ele><time>2026-04-04T14:39:52.012Z</time></trkpt><trkpt lat="43.5375267" lon="10.901795"><ele>318.0</ele><time>2026-04-04T14:39:53.014Z</time></trkpt><trkpt lat="43.5376617" lon="10.9019617"><ele>317.0</ele><time>2026-04-04T14:39:54.013Z</time></trkpt><trkpt lat="43.5378333" lon="10.9020917"><ele>317.33333333333337</ele><time>2026-04-04T14:39:55.013Z</time></trkpt><trkpt lat="43.5379883" lon="10.902225"><ele>317.6666666666667</ele><time>2026-04-04T14:39:56.013Z</time></trkpt><trkpt lat="43.538105" lon="10.9023817"><ele>318.0</ele><time>2026-04-04T14:39:57.013Z</time></trkpt><trkpt lat="43.5382017" lon="10.902565"><ele>315.6666666666667</ele><time>2026-04-04T14:39:58.012Z</time></trkpt><trkpt lat="43.5382783" lon="10.9027933"><ele>313.33333333333337</ele><time>2026-04-04T14:39:59.014Z</time></trkpt><trkpt lat="43.53833" lon="10.90306"><ele>311.0</ele><time>2026-04-04T14:40:00.014Z</time></trkpt><trkpt lat="43.5383383" lon="10.9033533"><ele>309.6666666666667</ele><time>2026-04-04T14:40:01.012Z</time></trkpt><trkpt lat="43.5383783" lon="10.9036417"><ele>308.3333333333333</ele><time>2026-04-04T14:40:02.012Z</time></trkpt><trkpt lat="43.538425" lon="10.9039067"><ele>307.0</ele><time>2026-04-04T14:40:03.013Z</time></trkpt><trkpt lat="43.5384417" lon="10.904155"><ele>304.0</ele><time>2026-04-04T14:40:04.012Z</time></trkpt><trkpt lat="43.538445" lon="10.9043733"><ele>301.0</ele><time>2026-04-04T14:40:05.013Z</time></trkpt><trkpt lat="43.5384167" lon="10.9045683"><ele>298.0</ele><time>2026-04-04T14:40:06.014Z</time></trkpt><trkpt lat="43.53836" lon="10.9047417"><ele>295.0</ele><time>2026-04-04T14:40:07.013Z</time></trkpt><trkpt lat="43.5382683" lon="10.9048817"><ele>295.0</ele><time>2026-04-04T14:40:08.013Z</time></trkpt><trkpt lat="43.5381417" lon="10.9049817"><ele>295.0</ele><time>2026-04-04T14:40:09.013Z</time></trkpt><trkpt lat="43.5379867" lon="10.9050583"><ele>295.0</ele><time>2026-04-04T14:40:10.014Z</time></trkpt><trkpt lat="43.5378167" lon="10.90512"><ele>292.0</ele><time>2026-04-04T14:40:11.012Z</time></trkpt><trkpt lat="43.5376383" lon="10.905205"><ele>289.0</ele><time>2026-04-04T14:40:12.013Z</time></trkpt><trkpt lat="43.53746" lon="10.9053317"><ele>286.0</ele><time>2026-04-04T14:40:13.013Z</time></trkpt><trkpt lat="43.53729" lon="10.90553"><ele>286.0</ele><time>2026-04-04T14:40:14.013Z</time></trkpt><trkpt lat="43.5371283" lon="10.9057483"><ele>286.0</ele><time>2026-04-04T14:40:15.013Z</time></trkpt><trkpt lat="43.53695" lon="10.9059283"><ele>286.0</ele><time>2026-04-04T14:40:16.014Z</time></trkpt><trkpt lat="43.5367633" lon="10.9060883"><ele>284.3333333333333</ele><time>2026-04-04T14:40:17.012Z</time></trkpt><trkpt lat="43.5365817" lon="10.90624"><ele>282.6666666666667</ele><time>2026-04-04T14:40:18.013Z</time></trkpt><trkpt lat="43.5364033" lon="10.9063917"><ele>281.0</ele><time>2026-04-04T14:40:19.012Z</time></trkpt><trkpt lat="43.53623" lon="10.9065817"><ele>280.5</ele><time>2026-04-04T14:40:20.013Z</time></trkpt><trkpt lat="43.5360683" lon="10.9068067"><ele>280.0</ele><time>2026-04-04T14:40:21.014Z</time></trkpt><trkpt lat="43.5359117" lon="10.90705"><ele>280.0</ele><time>2026-04-04T14:40:22.013Z</time></trkpt><trkpt lat="43.5357517" lon="10.9072933"><ele>280.0</ele><time>2026-04-04T14:40:23.014Z</time></trkpt><trkpt lat="43.5355933" lon="10.9075233"><ele>279.66666666666663</ele><time>2026-04-04T14:40:24.013Z</time></trkpt><trkpt lat="43.535445" lon="10.9077133"><ele>279.3333333333333</ele><time>2026-04-04T14:40:25.012Z</time></trkpt><trkpt lat="43.535315" lon="10.907875"><ele>279.0</ele><time>2026-04-04T14:40:26.012Z</time></trkpt><trkpt lat="43.5352167" lon="10.9080183"><ele>279.0</ele><time>2026-04-04T14:40:27.013Z</time></trkpt><trkpt lat="43.5351433" lon="10.9081567"><ele>279.0</ele><time>2026-04-04T14:40:28.012Z</time></trkpt><trkpt lat="43.5350933" lon="10.9082817"><ele>279.0</ele><time>2026-04-04T14:40:29.013Z</time></trkpt><trkpt lat="43.5350883" lon="10.9084233"><ele>279.0</ele><time>2026-04-04T14:40:30.012Z</time></trkpt><trkpt lat="43.535135" lon="10.908585"><ele>279.6666666666667</ele><time>2026-04-04T14:40:31.013Z</time></trkpt><trkpt lat="43.5352233" lon="10.908755"><ele>280.33333333333337</ele><time>2026-04-04T14:40:32.012Z</time></trkpt><trkpt lat="43.535335" lon="10.9088967"><ele>281.0</ele><time>2026-04-04T14:40:33.014Z</time></trkpt><trkpt lat="43.5354867" lon="10.9089933"><ele>286.0</ele><time>2026-04-04T14:40:34.013Z</time></trkpt><trkpt lat="43.5356567" lon="10.9090433"><ele>291.0</ele><time>2026-04-04T14:40:35.014Z</time></trkpt><trkpt lat="43.535835" lon="10.908945"><ele>296.0</ele><time>2026-04-04T14:40:36.009Z</time></trkpt><trkpt lat="43.536025" lon="10.9088567"><ele>296.0</ele><time>2026-04-04T14:40:37.011Z</time></trkpt><trkpt lat="43.5362" lon="10.908725"><ele>296.0</ele><time>2026-04-04T14:40:38.013Z</time></trkpt><trkpt lat="43.5363433" lon="10.9085483"><ele>296.0</ele><time>2026-04-04T14:40:39.012Z</time></trkpt><trkpt lat="43.5364533" lon="10.9083283"><ele>294.75</ele><time>2026-04-04T14:40:40.011Z</time></trkpt><trkpt lat="43.536535" lon="10.90812"><ele>293.5</ele><time>2026-04-04T14:40:41.011Z</time></trkpt><trkpt lat="43.5366233" lon="10.90797"><ele>292.25</ele><time>2026-04-04T14:40:42.013Z</time></trkpt><trkpt lat="43.536725" lon="10.9078467"><ele>291.0</ele><time>2026-04-04T14:40:43.012Z</time></trkpt><trkpt lat="43.53684" lon="10.9077583"><ele>291.0</ele><time>2026-04-04T14:40:44.014Z</time></trkpt><trkpt lat="43.5369967" lon="10.9077617"><ele>291.0</ele><time>2026-04-04T14:40:45.011Z</time></trkpt><trkpt lat="43.5371783" lon="10.9078"><ele>291.0</ele><time>2026-04-04T14:40:46.011Z</time></trkpt><trkpt lat="43.5373683" lon="10.9078517"><ele>293.0</ele><time>2026-04-04T14:40:47.013Z</time></trkpt><trkpt lat="43.53755" lon="10.9078967"><ele>295.0</ele><time>2026-04-04T14:40:48.012Z</time></trkpt><trkpt lat="43.53771" lon="10.90794"><ele>297.0</ele><time>2026-04-04T14:40:49.011Z</time></trkpt><trkpt lat="43.5378517" lon="10.9079767"><ele>295.75</ele><time>2026-04-04T14:40:50.012Z</time></trkpt><trkpt lat="43.5379667" lon="10.9079733"><ele>294.5</ele><time>2026-04-04T14:40:51.012Z</time></trkpt><trkpt lat="43.5380717" lon="10.9079183"><ele>293.25</ele><time>2026-04-04T14:40:52.01Z</time></trkpt><trkpt lat="43.5381917" lon="10.9078833"><ele>292.0</ele><time>2026-04-04T14:40:53.011Z</time></trkpt><trkpt lat="43.5382833" lon="10.9077817"><ele>292.0</ele><time>2026-04-04T14:40:54.012Z</time></trkpt><trkpt lat="43.5383633" lon="10.9076183"><ele>292.0</ele><time>2026-04-04T14:40:55.012Z</time></trkpt><trkpt lat="43.5384433" lon="10.9073883"><ele>292.0</ele><time>2026-04-04T14:40:56.011Z</time></trkpt><trkpt lat="43.53852" lon="10.907135"><ele>293.3333333333333</ele><time>2026-04-04T14:40:57.012Z</time></trkpt><trkpt lat="43.5385967" lon="10.9069083"><ele>294.6666666666667</ele><time>2026-04-04T14:40:58.012Z</time></trkpt><trkpt lat="43.53869" lon="10.9066933"><ele>296.0</ele><time>2026-04-04T14:40:59.011Z</time></trkpt><trkpt lat="43.5388117" lon="10.90649"><ele>296.0</ele><time>2026-04-04T14:41:00.011Z</time></trkpt><trkpt lat="43.5389417" lon="10.9063167"><ele>296.0</ele><time>2026-04-04T14:41:01.012Z</time></trkpt><trkpt lat="43.5390733" lon="10.906175"><ele>296.0</ele><time>2026-04-04T14:41:02.011Z</time></trkpt><trkpt lat="43.5392017" lon="10.9060533"><ele>296.0</ele><time>2026-04-04T14:41:03.014Z</time></trkpt><trkpt lat="43.5393317" lon="10.9059733"><ele>296.0</ele><time>2026-04-04T14:41:04.014Z</time></trkpt><trkpt lat="43.5394583" lon="10.90593"><ele>296.0</ele><time>2026-04-04T14:41:05.015Z</time></trkpt><trkpt lat="43.5396033" lon="10.90594"><ele>296.0</ele><time>2026-04-04T14:41:06.013Z</time></trkpt><trkpt lat="43.5397517" lon="10.905995"><ele>298.0</ele><time>2026-04-04T14:41:07.012Z</time></trkpt><trkpt lat="43.5398983" lon="10.9060883"><ele>300.0</ele><time>2026-04-04T14:41:08.014Z</time></trkpt><trkpt lat="43.5400417" lon="10.906195"><ele>302.0</ele><time>2026-04-04T14:41:09.014Z</time></trkpt><trkpt lat="43.54019" lon="10.90625"><ele>302.0</ele><time>2026-04-04T14:41:10.014Z</time></trkpt><trkpt lat="43.5403517" lon="10.9062517"><ele>302.0</ele><time>2026-04-04T14:41:11.011Z</time></trkpt><trkpt lat="43.540515" lon="10.9062017"><ele>302.0</ele><time>2026-04-04T14:41:12.012Z</time></trkpt><trkpt lat="43.5406817" lon="10.90613"><ele>303.6666666666667</ele><time>2026-04-04T14:41:13.012Z</time></trkpt><trkpt lat="43.5408517" lon="10.9060783"><ele>305.3333333333333</ele><time>2026-04-04T14:41:14.011Z</time></trkpt><trkpt lat="43.5410133" lon="10.9060833"><ele>307.0</ele><time>2026-04-04T14:41:15.011Z</time></trkpt><trkpt lat="43.541165" lon="10.9061333"><ele>306.3333333333333</ele><time>2026-04-04T14:41:16.013Z</time></trkpt><trkpt lat="43.5413033" lon="10.9062417"><ele>305.6666666666667</ele><time>2026-04-04T14:41:17.012Z</time></trkpt><trkpt lat="43.541435" lon="10.9063817"><ele>305.0</ele><time>2026-04-04T14:41:18.012Z</time></trkpt><trkpt lat="43.5415583" lon="10.9065217"><ele>305.0</ele><time>2026-04-04T14:41:19.011Z</time></trkpt><trkpt lat="43.5416867" lon="10.906635"><ele>305.0</ele><time>2026-04-04T14:41:20.013Z</time></trkpt><trkpt lat="43.5418183" lon="10.906695"><ele>305.0</ele><time>2026-04-04T14:41:21.012Z</time></trkpt><trkpt lat="43.54196" lon="10.9067167"><ele>305.0</ele><time>2026-04-04T14:41:22.012Z</time></trkpt><trkpt lat="43.5421083" lon="10.9066667"><ele>308.0</ele><time>2026-04-04T14:41:23.014Z</time></trkpt><trkpt lat="43.5422767" lon="10.906565"><ele>311.0</ele><time>2026-04-04T14:41:24.011Z</time></trkpt><trkpt lat="43.54244" lon="10.906465"><ele>314.0</ele><time>2026-04-04T14:41:25.012Z</time></trkpt><trkpt lat="43.542595" lon="10.9063733"><ele>314.0</ele><time>2026-04-04T14:41:26.011Z</time></trkpt><trkpt lat="43.5427333" lon="10.906285"><ele>314.0</ele><time>2026-04-04T14:41:27.013Z</time></trkpt><trkpt lat="43.5428583" lon="10.906185"><ele>314.0</ele><time>2026-04-04T14:41:28.012Z</time></trkpt><trkpt lat="43.542965" lon="10.906065"><ele>314.0</ele><time>2026-04-04T14:41:29.011Z</time></trkpt><trkpt lat="43.5430533" lon="10.9059067"><ele>313.0</ele><time>2026-04-04T14:41:30.012Z</time></trkpt><trkpt lat="43.54313" lon="10.9057317"><ele>312.0</ele><time>2026-04-04T14:41:31.012Z</time></trkpt><trkpt lat="43.5432033" lon="10.9055517"><ele>311.0</ele><time>2026-04-04T14:41:32.012Z</time></trkpt><trkpt lat="43.5432833" lon="10.9053967"><ele>310.0</ele><time>2026-04-04T14:41:33.012Z</time></trkpt><trkpt lat="43.5433817" lon="10.9052817"><ele>310.0</ele><time>2026-04-04T14:41:34.012Z</time></trkpt><trkpt lat="43.5434917" lon="10.905195"><ele>310.0</ele><time>2026-04-04T14:41:35.011Z</time></trkpt><trkpt lat="43.5436317" lon="10.905165"><ele>310.0</ele><time>2026-04-04T14:41:36.01Z</time></trkpt><trkpt lat="43.54379" lon="10.9051917"><ele>310.0</ele><time>2026-04-04T14:41:37.011Z</time></trkpt><trkpt lat="43.5439567" lon="10.9052533"><ele>311.66666666666663</ele><time>2026-04-04T14:41:38.012Z</time></trkpt><trkpt lat="43.54411" lon="10.9053267"><ele>313.3333333333333</ele><time>2026-04-04T14:41:39.011Z</time></trkpt><trkpt lat="43.5442583" lon="10.905415"><ele>315.0</ele><time>2026-04-04T14:41:40.012Z</time></trkpt><trkpt lat="43.5443933" lon="10.9054917"><ele>315.0</ele><time>2026-04-04T14:41:41.011Z</time></trkpt><trkpt lat="43.5445217" lon="10.9055633"><ele>315.0</ele><time>2026-04-04T14:41:42.011Z</time></trkpt><trkpt lat="43.5446433" lon="10.9056133"><ele>315.0</ele><time>2026-04-04T14:41:43.013Z</time></trkpt><trkpt lat="43.5447617" lon="10.9056267"><ele>315.0</ele><time>2026-04-04T14:41:44.011Z</time></trkpt><trkpt lat="43.5448833" lon="10.9056017"><ele>314.75</ele><time>2026-04-04T14:41:45.012Z</time></trkpt><trkpt lat="43.5449883" lon="10.9055217"><ele>314.5</ele><time>2026-04-04T14:41:46.012Z</time></trkpt><trkpt lat="43.5450883" lon="10.9054083"><ele>314.25</ele><time>2026-04-04T14:41:47.012Z</time></trkpt><trkpt lat="43.5451933" lon="10.9052983"><ele>314.0</ele><time>2026-04-04T14:41:48.013Z</time></trkpt><trkpt lat="43.5452967" lon="10.9051933"><ele>312.0</ele><time>2026-04-04T14:41:49.012Z</time></trkpt><trkpt lat="43.5454033" lon="10.905115"><ele>310.0</ele><time>2026-04-04T14:41:50.012Z</time></trkpt><trkpt lat="43.5455167" lon="10.90505"><ele>308.0</ele><time>2026-04-04T14:41:51.012Z</time></trkpt><trkpt lat="43.5456333" lon="10.9050183"><ele>306.0</ele><time>2026-04-04T14:41:52.01Z</time></trkpt><trkpt lat="43.5457517" lon="10.90504"><ele>306.0</ele><time>2026-04-04T14:41:53.012Z</time></trkpt><trkpt lat="43.5458783" lon="10.9051183"><ele>306.0</ele><time>2026-04-04T14:41:54.012Z</time></trkpt><trkpt lat="43.5459817" lon="10.905235"><ele>306.0</ele><time>2026-04-04T14:41:55.014Z</time></trkpt><trkpt lat="43.5460667" lon="10.90539"><ele>306.0</ele><time>2026-04-04T14:41:56.012Z</time></trkpt><trkpt lat="43.546115" lon="10.9055683"><ele>306.0</ele><time>2026-04-04T14:41:57.012Z</time></trkpt><trkpt lat="43.5461267" lon="10.90577"><ele>306.0</ele><time>2026-04-04T14:41:58.012Z</time></trkpt><trkpt lat="43.5461133" lon="10.9059667"><ele>306.0</ele><time>2026-04-04T14:41:59.009Z</time></trkpt><trkpt lat="43.5460717" lon="10.90614"><ele>306.0</ele><time>2026-04-04T14:42:00.01Z</time></trkpt><trkpt lat="43.5460233" lon="10.9063083"><ele>305.75</ele><time>2026-04-04T14:42:01.011Z</time></trkpt><trkpt lat="43.5459717" lon="10.9064633"><ele>305.5</ele><time>2026-04-04T14:42:02.01Z</time></trkpt><trkpt lat="43.54593" lon="10.90661"><ele>305.25</ele><time>2026-04-04T14:42:03.012Z</time></trkpt><trkpt lat="43.5459" lon="10.90676"><ele>305.0</ele><time>2026-04-04T14:42:04.011Z</time></trkpt><trkpt lat="43.54587" lon="10.9069217"><ele>303.25</ele><time>2026-04-04T14:42:05.012Z</time></trkpt><trkpt lat="43.5458467" lon="10.9070933"><ele>301.5</ele><time>2026-04-04T14:42:06.01Z</time></trkpt><trkpt lat="43.54585" lon="10.9072567"><ele>299.75</ele><time>2026-04-04T14:42:07.012Z</time></trkpt><trkpt lat="43.545855" lon="10.90742"><ele>298.0</ele><time>2026-04-04T14:42:08.011Z</time></trkpt><trkpt lat="43.5458617" lon="10.907585"><ele>297.5</ele><time>2026-04-04T14:42:09.011Z</time></trkpt><trkpt lat="43.5458633" lon="10.907745"><ele>297.0</ele><time>2026-04-04T14:42:10.012Z</time></trkpt><trkpt lat="43.5458483" lon="10.9079067"><ele>296.5</ele><time>2026-04-04T14:42:11.011Z</time></trkpt><trkpt lat="43.5458183" lon="10.908075"><ele>296.0</ele><time>2026-04-04T14:42:12.009Z</time></trkpt><trkpt lat="43.54577" lon="10.90824"><ele>296.0</ele><time>2026-04-04T14:42:13.01Z</time></trkpt><trkpt lat="43.5457167" lon="10.9083967"><ele>296.0</ele><time>2026-04-04T14:42:14.012Z</time></trkpt><trkpt lat="43.5456567" lon="10.9085483"><ele>296.0</ele><time>2026-04-04T14:42:15.012Z</time></trkpt><trkpt lat="43.545605" lon="10.908695"><ele>296.0</ele><time>2026-04-04T14:42:16.01Z</time></trkpt><trkpt lat="43.5455683" lon="10.9088317"><ele>294.5</ele><time>2026-04-04T14:42:17.012Z</time></trkpt><trkpt lat="43.5455283" lon="10.908975"><ele>293.0</ele><time>2026-04-04T14:42:18.012Z</time></trkpt><trkpt lat="43.5455017" lon="10.9091517"><ele>291.5</ele><time>2026-04-04T14:42:19.012Z</time></trkpt><trkpt lat="43.5454867" lon="10.9093667"><ele>290.0</ele><time>2026-04-04T14:42:20.013Z</time></trkpt><trkpt lat="43.5454667" lon="10.90961"><ele>289.0</ele><time>2026-04-04T14:42:21.013Z</time></trkpt><trkpt lat="43.5454567" lon="10.909875"><ele>288.0</ele><time>2026-04-04T14:42:22.013Z</time></trkpt><trkpt lat="43.54544" lon="10.9101567"><ele>287.0</ele><time>2026-04-04T14:42:23.01Z</time></trkpt><trkpt lat="43.5454233" lon="10.910415"><ele>286.0</ele><time>2026-04-04T14:42:24.01Z</time></trkpt><trkpt lat="43.5453983" lon="10.91065"><ele>285.0</ele><time>2026-04-04T14:42:25.012Z</time></trkpt><trkpt lat="43.5453833" lon="10.9108567"><ele>284.0</ele><time>2026-04-04T14:42:26.011Z</time></trkpt><trkpt lat="43.5453633" lon="10.9110433"><ele>288.0</ele><time>2026-04-04T14:42:27.012Z</time></trkpt><trkpt lat="43.5453167" lon="10.9112117"><ele>292.0</ele><time>2026-04-04T14:42:28.012Z</time></trkpt><trkpt lat="43.5452633" lon="10.9113617"><ele>296.0</ele><time>2026-04-04T14:42:29.012Z</time></trkpt><trkpt lat="43.5451983" lon="10.9114883"><ele>300.0</ele><time>2026-04-04T14:42:30.012Z</time></trkpt><trkpt lat="43.5451133" lon="10.9115933"><ele>300.0</ele><time>2026-04-04T14:42:31.011Z</time></trkpt><trkpt lat="43.5450183" lon="10.9116783"><ele>300.0</ele><time>2026-04-04T14:42:32.012Z</time></trkpt><trkpt lat="43.54493" lon="10.9117733"><ele>300.0</ele><time>2026-04-04T14:42:33.014Z</time></trkpt><trkpt lat="43.544855" lon="10.9118817"><ele>300.0</ele><time>2026-04-04T14:42:34.012Z</time></trkpt><trkpt lat="43.544795" lon="10.9120083"><ele>300.0</ele><time>2026-04-04T14:42:35.013Z</time></trkpt><trkpt lat="43.54477" lon="10.9121567"><ele>299.25</ele><time>2026-04-04T14:42:36.013Z</time></trkpt><trkpt lat="43.54476" lon="10.9123133"><ele>298.5</ele><time>2026-04-04T14:42:37.011Z</time></trkpt><trkpt lat="43.54476" lon="10.9124817"><ele>297.75</ele><time>2026-04-04T14:42:38.011Z</time></trkpt><trkpt lat="43.544775" lon="10.9126717"><ele>297.0</ele><time>2026-04-04T14:42:39.012Z</time></trkpt><trkpt lat="43.544785" lon="10.912905"><ele>296.3333333333333</ele><time>2026-04-04T14:42:40.013Z</time></trkpt><trkpt lat="43.544795" lon="10.9131833"><ele>295.66666666666663</ele><time>2026-04-04T14:42:41.013Z</time></trkpt><trkpt lat="43.5447833" lon="10.9134783"><ele>295.0</ele><time>2026-04-04T14:42:42.011Z</time></trkpt><trkpt lat="43.544755" lon="10.9137867"><ele>294.0</ele><time>2026-04-04T14:42:43.011Z</time></trkpt><trkpt lat="43.5446917" lon="10.9141"><ele>293.0</ele><time>2026-04-04T14:42:44.011Z</time></trkpt><trkpt lat="43.544625" lon="10.9143967"><ele>291.6666666666667</ele><time>2026-04-04T14:42:45.011Z</time></trkpt><trkpt lat="43.54456" lon="10.9146733"><ele>290.3333333333333</ele><time>2026-04-04T14:42:46.012Z</time></trkpt><trkpt lat="43.5445167" lon="10.9149417"><ele>289.0</ele><time>2026-04-04T14:42:47.011Z</time></trkpt><trkpt lat="43.5445083" lon="10.915215"><ele>289.0</ele><time>2026-04-04T14:42:48.011Z</time></trkpt><trkpt lat="43.5445417" lon="10.915505"><ele>289.0</ele><time>2026-04-04T14:42:49.012Z</time></trkpt><trkpt lat="43.5445833" lon="10.9157917"><ele>289.0</ele><time>2026-04-04T14:42:50.013Z</time></trkpt><trkpt lat="43.54462" lon="10.9160767"><ele>288.0</ele><time>2026-04-04T14:42:51.013Z</time></trkpt><trkpt lat="43.544635" lon="10.91636"><ele>287.0</ele><time>2026-04-04T14:42:52.012Z</time></trkpt><trkpt lat="43.5446233" lon="10.9166417"><ele>286.0</ele><time>2026-04-04T14:42:53.012Z</time></trkpt><trkpt lat="43.54457" lon="10.9169217"><ele>293.5</ele><time>2026-04-04T14:42:54.011Z</time></trkpt><trkpt lat="43.5444867" lon="10.9172117"><ele>301.0</ele><time>2026-04-04T14:42:55.012Z</time></trkpt><trkpt lat="43.544385" lon="10.917525"><ele>299.0</ele><time>2026-04-04T14:42:56.011Z</time></trkpt><trkpt lat="43.5442767" lon="10.9178467"><ele>297.0</ele><time>2026-04-04T14:42:57.011Z</time></trkpt><trkpt lat="43.5441633" lon="10.91817"><ele>294.0</ele><time>2026-04-04T14:42:58.012Z</time></trkpt><trkpt lat="43.5440567" lon="10.9184733"><ele>291.0</ele><time>2026-04-04T14:42:59.012Z</time></trkpt><trkpt lat="43.5439567" lon="10.918765"><ele>291.0</ele><time>2026-04-04T14:43:00.013Z</time></trkpt><trkpt lat="43.5438867" lon="10.9190633"><ele>291.0</ele><time>2026-04-04T14:43:01.013Z</time></trkpt><trkpt lat="43.543845" lon="10.9193767"><ele>290.6666666666667</ele><time>2026-04-04T14:43:02.011Z</time></trkpt><trkpt lat="43.5438167" lon="10.9196933"><ele>290.33333333333337</ele><time>2026-04-04T14:43:03.012Z</time></trkpt><trkpt lat="43.5437883" lon="10.9199917"><ele>290.0</ele><time>2026-04-04T14:43:04.012Z</time></trkpt><trkpt lat="43.5437683" lon="10.9202483"><ele>290.75</ele><time>2026-04-04T14:43:05.013Z</time></trkpt><trkpt lat="43.5437617" lon="10.9204617"><ele>291.5</ele><time>2026-04-04T14:43:06.012Z</time></trkpt><trkpt lat="43.5437717" lon="10.9206333"><ele>292.25</ele><time>2026-04-04T14:43:07.011Z</time></trkpt><trkpt lat="43.5438" lon="10.920775"><ele>293.0</ele><time>2026-04-04T14:43:08.012Z</time></trkpt><trkpt lat="43.5438417" lon="10.9208933"><ele>295.75</ele><time>2026-04-04T14:43:09.011Z</time></trkpt><trkpt lat="43.544" lon="10.9209567"><ele>298.5</ele><time>2026-04-04T14:43:10.012Z</time></trkpt><trkpt lat="43.5441433" lon="10.92098"><ele>301.25</ele><time>2026-04-04T14:43:11.012Z</time></trkpt><trkpt lat="43.54427" lon="10.9209667"><ele>304.0</ele><time>2026-04-04T14:43:12.013Z</time></trkpt><trkpt lat="43.5443833" lon="10.9209167"><ele>300.3333333333333</ele><time>2026-04-04T14:43:13.012Z</time></trkpt><trkpt lat="43.5444683" lon="10.9208367"><ele>296.6666666666667</ele><time>2026-04-04T14:43:14.012Z</time></trkpt><trkpt lat="43.54448" lon="10.9205867"><ele>293.0</ele><time>2026-04-04T14:43:15.012Z</time></trkpt><trkpt lat="43.54452" lon="10.92031"><ele>296.6666666666667</ele><time>2026-04-04T14:43:16.012Z</time></trkpt><trkpt lat="43.5445667" lon="10.9200117"><ele>300.3333333333333</ele><time>2026-04-04T14:43:17.013Z</time></trkpt><trkpt lat="43.5446417" lon="10.91972"><ele>304.0</ele><time>2026-04-04T14:43:18.012Z</time></trkpt><trkpt lat="43.5447267" lon="10.9194367"><ele>300.0</ele><time>2026-04-04T14:43:19.013Z</time></trkpt><trkpt lat="43.54487" lon="10.9191517"><ele>296.0</ele><time>2026-04-04T14:43:20.014Z</time></trkpt><trkpt lat="43.5450117" lon="10.9188383"><ele>296.0</ele><time>2026-04-04T14:43:21.012Z</time></trkpt><trkpt lat="43.545165" lon="10.9185217"><ele>296.0</ele><time>2026-04-04T14:43:22.012Z</time></trkpt><trkpt lat="43.5453217" lon="10.9182117"><ele>307.0</ele><time>2026-04-04T14:43:23.011Z</time></trkpt><trkpt lat="43.5454917" lon="10.917915"><ele>318.0</ele><time>2026-04-04T14:43:24.011Z</time></trkpt><trkpt lat="43.5456533" lon="10.91763"><ele>309.0</ele><time>2026-04-04T14:43:25.012Z</time></trkpt><trkpt lat="43.5458117" lon="10.917355"><ele>300.0</ele><time>2026-04-04T14:43:26.012Z</time></trkpt><trkpt lat="43.54596" lon="10.9170883"><ele>300.0</ele><time>2026-04-04T14:43:27.013Z</time></trkpt><trkpt lat="43.5461" lon="10.9168417"><ele>300.0</ele><time>2026-04-04T14:43:28.013Z</time></trkpt><trkpt lat="43.5462317" lon="10.9166167"><ele>300.0</ele><time>2026-04-04T14:43:29.013Z</time></trkpt><trkpt lat="43.5463617" lon="10.91642"><ele>303.6666666666667</ele><time>2026-04-04T14:43:30.012Z</time></trkpt><trkpt lat="43.5464867" lon="10.9162633"><ele>307.33333333333337</ele><time>2026-04-04T14:43:31.012Z</time></trkpt><trkpt lat="43.5466183" lon="10.9161533"><ele>311.0</ele><time>2026-04-04T14:43:32.012Z</time></trkpt><trkpt lat="43.546765" lon="10.9161033"><ele>311.0</ele><time>2026-04-04T14:43:33.012Z</time></trkpt><trkpt lat="43.5469183" lon="10.91611"><ele>311.0</ele><time>2026-04-04T14:43:34.011Z</time></trkpt><trkpt lat="43.547055" lon="10.9161633"><ele>311.0</ele><time>2026-04-04T14:43:35.013Z</time></trkpt><trkpt lat="43.5471783" lon="10.916255"><ele>311.0</ele><time>2026-04-04T14:43:36.012Z</time></trkpt><trkpt lat="43.547295" lon="10.9163833"><ele>311.5</ele><time>2026-04-04T14:43:37.012Z</time></trkpt><trkpt lat="43.547405" lon="10.9165333"><ele>312.0</ele><time>2026-04-04T14:43:38.013Z</time></trkpt><trkpt lat="43.54751" lon="10.9166833"><ele>312.5</ele><time>2026-04-04T14:43:39.012Z</time></trkpt><trkpt lat="43.5476117" lon="10.9168183"><ele>313.0</ele><time>2026-04-04T14:43:40.012Z</time></trkpt><trkpt lat="43.5477033" lon="10.9169467"><ele>313.2</ele><time>2026-04-04T14:43:41.011Z</time></trkpt><trkpt lat="43.54778" lon="10.9170533"><ele>313.4</ele><time>2026-04-04T14:43:42.012Z</time></trkpt><trkpt lat="43.5478417" lon="10.9171533"><ele>313.59999999999997</ele><time>2026-04-04T14:43:43.009Z</time></trkpt><trkpt lat="43.5478917" lon="10.9172417"><ele>313.8</ele><time>2026-04-04T14:43:44.011Z</time></trkpt><trkpt lat="43.5479617" lon="10.9173583"><ele>314.0</ele><time>2026-04-04T14:43:46.013Z</time></trkpt><trkpt lat="43.548015" lon="10.9174483"><ele>313.2</ele><time>2026-04-04T14:43:50.011Z</time></trkpt><trkpt lat="43.5480467" lon="10.91757"><ele>312.4</ele><time>2026-04-04T14:43:52.01Z</time></trkpt><trkpt lat="43.548055" lon="10.9177467"><ele>311.6</ele><time>2026-04-04T14:43:54.012Z</time></trkpt><trkpt lat="43.548045" lon="10.91785"><ele>310.8</ele><time>2026-04-04T14:43:55.011Z</time></trkpt><trkpt lat="43.5480267" lon="10.9179617"><ele>310.0</ele><time>2026-04-04T14:43:56.013Z</time></trkpt><trkpt lat="43.5479983" lon="10.91807"><ele>310.0</ele><time>2026-04-04T14:43:57.012Z</time></trkpt><trkpt lat="43.5479767" lon="10.9181817"><ele>310.0</ele><time>2026-04-04T14:43:58.011Z</time></trkpt><trkpt lat="43.5479517" lon="10.9183017"><ele>310.0</ele><time>2026-04-04T14:43:59.012Z</time></trkpt><trkpt lat="43.547925" lon="10.9184267"><ele>310.0</ele><time>2026-04-04T14:44:00.013Z</time></trkpt><trkpt lat="43.547895" lon="10.9185567"><ele>310.0</ele><time>2026-04-04T14:44:01.012Z</time></trkpt><trkpt lat="43.5478633" lon="10.9186867"><ele>311.2</ele><time>2026-04-04T14:44:02.011Z</time></trkpt><trkpt lat="43.54783" lon="10.9188167"><ele>312.4</ele><time>2026-04-04T14:44:03.012Z</time></trkpt><trkpt lat="43.5478" lon="10.9189333"><ele>313.6</ele><time>2026-04-04T14:44:04.014Z</time></trkpt><trkpt lat="43.5477767" lon="10.9190367"><ele>314.8</ele><time>2026-04-04T14:44:05.012Z</time></trkpt><trkpt lat="43.5477567" lon="10.9191267"><ele>316.0</ele><time>2026-04-04T14:44:06.01Z</time></trkpt><trkpt lat="43.5477367" lon="10.9192983"><ele>316.0</ele><time>2026-04-04T14:44:08.011Z</time></trkpt><trkpt lat="43.5477367" lon="10.9193983"><ele>316.0</ele><time>2026-04-04T14:44:09.013Z</time></trkpt><trkpt lat="43.5477533" lon="10.9195117"><ele>316.0</ele><time>2026-04-04T14:44:10.012Z</time></trkpt><trkpt lat="43.5477817" lon="10.9196367"><ele>316.0</ele><time>2026-04-04T14:44:11.012Z</time></trkpt><trkpt lat="43.5478467" lon="10.9197717"><ele>316.0</ele><time>2026-04-04T14:44:12.011Z</time></trkpt><trkpt lat="43.5479167" lon="10.9199083"><ele>313.25</ele><time>2026-04-04T14:44:13.012Z</time></trkpt><trkpt lat="43.5479933" lon="10.920045"><ele>310.5</ele><time>2026-04-04T14:44:14.012Z</time></trkpt><trkpt lat="43.5480783" lon="10.9201817"><ele>307.75</ele><time>2026-04-04T14:44:15.012Z</time></trkpt><trkpt lat="43.5481667" lon="10.9203217"><ele>305.0</ele><time>2026-04-04T14:44:16.012Z</time></trkpt><trkpt lat="43.54825" lon="10.9204617"><ele>305.0</ele><time>2026-04-04T14:44:17.012Z</time></trkpt><trkpt lat="43.54833" lon="10.920605"><ele>305.0</ele><time>2026-04-04T14:44:18.011Z</time></trkpt><trkpt lat="43.5484033" lon="10.920755"><ele>305.0</ele><time>2026-04-04T14:44:19.01Z</time></trkpt><trkpt lat="43.548465" lon="10.92092"><ele>305.0</ele><time>2026-04-04T14:44:20.011Z</time></trkpt><trkpt lat="43.5484967" lon="10.921105"><ele>305.75</ele><time>2026-04-04T14:44:21.011Z</time></trkpt><trkpt lat="43.548505" lon="10.9213033"><ele>306.5</ele><time>2026-04-04T14:44:22.012Z</time></trkpt><trkpt lat="43.5485133" lon="10.9215117"><ele>307.25</ele><time>2026-04-04T14:44:23.012Z</time></trkpt><trkpt lat="43.548535" lon="10.9217217"><ele>308.0</ele><time>2026-04-04T14:44:24.012Z</time></trkpt><trkpt lat="43.5485783" lon="10.92192"><ele>308.6666666666667</ele><time>2026-04-04T14:44:25.012Z</time></trkpt><trkpt lat="43.548665" lon="10.922095"><ele>309.3333333333333</ele><time>2026-04-04T14:44:26.013Z</time></trkpt><trkpt lat="43.5487833" lon="10.922235"><ele>310.0</ele><time>2026-04-04T14:44:27.012Z</time></trkpt><trkpt lat="43.5489" lon="10.9223567"><ele>305.25</ele><time>2026-04-04T14:44:28.012Z</time></trkpt><trkpt lat="43.548995" lon="10.922495"><ele>300.5</ele><time>2026-04-04T14:44:29.01Z</time></trkpt><trkpt lat="43.5490533" lon="10.922665"><ele>295.75</ele><time>2026-04-04T14:44:30.01Z</time></trkpt><trkpt lat="43.5490767" lon="10.9228583"><ele>291.0</ele><time>2026-04-04T14:44:31.011Z</time></trkpt><trkpt lat="43.549075" lon="10.9230833"><ele>290.6666666666667</ele><time>2026-04-04T14:44:32.01Z</time></trkpt><trkpt lat="43.5490833" lon="10.923325"><ele>290.33333333333337</ele><time>2026-04-04T14:44:33.011Z</time></trkpt><trkpt lat="43.5491167" lon="10.923575"><ele>290.0</ele><time>2026-04-04T14:44:34.012Z</time></trkpt><trkpt lat="43.5491617" lon="10.9238267"><ele>290.0</ele><time>2026-04-04T14:44:35.012Z</time></trkpt><trkpt lat="43.5492067" lon="10.9240683"><ele>290.0</ele><time>2026-04-04T14:44:36.013Z</time></trkpt><trkpt lat="43.5492767" lon="10.9243"><ele>290.0</ele><time>2026-04-04T14:44:37.012Z</time></trkpt><trkpt lat="43.549355" lon="10.92451"><ele>291.33333333333337</ele><time>2026-04-04T14:44:38.013Z</time></trkpt><trkpt lat="43.5494483" lon="10.924705"><ele>292.6666666666667</ele><time>2026-04-04T14:44:39.013Z</time></trkpt><trkpt lat="43.549535" lon="10.9248867"><ele>294.0</ele><time>2026-04-04T14:44:40.012Z</time></trkpt><trkpt lat="43.5495883" lon="10.925075"><ele>293.0</ele><time>2026-04-04T14:44:41.013Z</time></trkpt><trkpt lat="43.5496067" lon="10.9252733"><ele>292.0</ele><time>2026-04-04T14:44:42.012Z</time></trkpt><trkpt lat="43.54959" lon="10.9254717"><ele>291.0</ele><time>2026-04-04T14:44:43.013Z</time></trkpt><trkpt lat="43.549535" lon="10.9256517"><ele>290.0</ele><time>2026-04-04T14:44:44.012Z</time></trkpt><trkpt lat="43.54945" lon="10.9258233"><ele>286.33333333333337</ele><time>2026-04-04T14:44:45.012Z</time></trkpt><trkpt lat="43.5493567" lon="10.9259983"><ele>282.6666666666667</ele><time>2026-04-04T14:44:46.014Z</time></trkpt><trkpt lat="43.5492583" lon="10.92618"><ele>279.0</ele><time>2026-04-04T14:44:47.012Z</time></trkpt><trkpt lat="43.54916" lon="10.9263467"><ele>279.0</ele><time>2026-04-04T14:44:48.012Z</time></trkpt><trkpt lat="43.5490783" lon="10.9265067"><ele>279.0</ele><time>2026-04-04T14:44:49.012Z</time></trkpt><trkpt lat="43.5490117" lon="10.9266633"><ele>279.0</ele><time>2026-04-04T14:44:50.011Z</time></trkpt><trkpt lat="43.5489667" lon="10.9268233"><ele>279.0</ele><time>2026-04-04T14:44:51.012Z</time></trkpt><trkpt lat="43.5489583" lon="10.92699"><ele>279.25</ele><time>2026-04-04T14:44:52.012Z</time></trkpt><trkpt lat="43.5489883" lon="10.92715"><ele>279.5</ele><time>2026-04-04T14:44:53.01Z</time></trkpt><trkpt lat="43.549055" lon="10.9272933"><ele>279.75</ele><time>2026-04-04T14:44:54.012Z</time></trkpt><trkpt lat="43.5491367" lon="10.9274117"><ele>280.0</ele><time>2026-04-04T14:44:55.013Z</time></trkpt><trkpt lat="43.54922" lon="10.92752"><ele>281.25</ele><time>2026-04-04T14:44:56.013Z</time></trkpt><trkpt lat="43.549295" lon="10.9276317"><ele>282.5</ele><time>2026-04-04T14:44:57.012Z</time></trkpt><trkpt lat="43.5493617" lon="10.9277533"><ele>283.75</ele><time>2026-04-04T14:44:58.012Z</time></trkpt><trkpt lat="43.5494283" lon="10.9279033"><ele>285.0</ele><time>2026-04-04T14:44:59.012Z</time></trkpt><trkpt lat="43.5494933" lon="10.9280733"><ele>278.6666666666667</ele><time>2026-04-04T14:45:00.012Z</time></trkpt><trkpt lat="43.5495583" lon="10.9282583"><ele>272.33333333333337</ele><time>2026-04-04T14:45:01.013Z</time></trkpt><trkpt lat="43.54962" lon="10.9284567"><ele>266.0</ele><time>2026-04-04T14:45:02.011Z</time></trkpt><trkpt lat="43.549685" lon="10.92866"><ele>265.6666666666667</ele><time>2026-04-04T14:45:03.013Z</time></trkpt><trkpt lat="43.5497567" lon="10.92887"><ele>265.3333333333333</ele><time>2026-04-04T14:45:04.013Z</time></trkpt><trkpt lat="43.5498333" lon="10.9290867"><ele>265.0</ele><time>2026-04-04T14:45:05.012Z</time></trkpt><trkpt lat="43.5499133" lon="10.9293"><ele>265.66666666666663</ele><time>2026-04-04T14:45:06.012Z</time></trkpt><trkpt lat="43.5499867" lon="10.9294983"><ele>266.3333333333333</ele><time>2026-04-04T14:45:07.012Z</time></trkpt><trkpt lat="43.5500567" lon="10.92968"><ele>267.0</ele><time>2026-04-04T14:45:08.012Z</time></trkpt><trkpt lat="43.5501367" lon="10.929855"><ele>267.0</ele><time>2026-04-04T14:45:09.012Z</time></trkpt><trkpt lat="43.550235" lon="10.9300167"><ele>267.0</ele><time>2026-04-04T14:45:10.012Z</time></trkpt><trkpt lat="43.5503367" lon="10.9301817"><ele>267.0</ele><time>2026-04-04T14:45:11.013Z</time></trkpt><trkpt lat="43.5504383" lon="10.930345"><ele>264.6666666666667</ele><time>2026-04-04T14:45:12.012Z</time></trkpt><trkpt lat="43.5505317" lon="10.93052"><ele>262.33333333333337</ele><time>2026-04-04T14:45:13.011Z</time></trkpt><trkpt lat="43.55063" lon="10.9307"><ele>260.0</ele><time>2026-04-04T14:45:14.011Z</time></trkpt><trkpt lat="43.5507233" lon="10.9308733"><ele>260.5</ele><time>2026-04-04T14:45:15.013Z</time></trkpt><trkpt lat="43.5508133" lon="10.931035"><ele>261.0</ele><time>2026-04-04T14:45:16.012Z</time></trkpt><trkpt lat="43.5509167" lon="10.9311683"><ele>261.5</ele><time>2026-04-04T14:45:17.012Z</time></trkpt><trkpt lat="43.55102" lon="10.93126"><ele>262.0</ele><time>2026-04-04T14:45:18.012Z</time></trkpt><trkpt lat="43.5511133" lon="10.9313333"><ele>262.0</ele><time>2026-04-04T14:45:19.012Z</time></trkpt><trkpt lat="43.5511933" lon="10.93139"><ele>262.0</ele><time>2026-04-04T14:45:20.012Z</time></trkpt><trkpt lat="43.5512583" lon="10.9314467"><ele>262.0</ele><time>2026-04-04T14:45:21.012Z</time></trkpt><trkpt lat="43.5513367" lon="10.9315433"><ele>262.0</ele><time>2026-04-04T14:45:23.013Z</time></trkpt><trkpt lat="43.551365" lon="10.9316517"><ele>262.0</ele><time>2026-04-04T14:45:25.012Z</time></trkpt><trkpt lat="43.5514583" lon="10.9318467"><ele>258.66666666666663</ele><time>2026-04-04T14:45:27.012Z</time></trkpt><trkpt lat="43.551555" lon="10.931985"><ele>255.33333333333331</ele><time>2026-04-04T14:45:28.012Z</time></trkpt><trkpt lat="43.5516633" lon="10.93215"><ele>252.0</ele><time>2026-04-04T14:45:29.013Z</time></trkpt><trkpt lat="43.5517733" lon="10.9323533"><ele>251.33333333333331</ele><time>2026-04-04T14:45:30.01Z</time></trkpt><trkpt lat="43.55188" lon="10.9325917"><ele>250.66666666666666</ele><time>2026-04-04T14:45:31.012Z</time></trkpt><trkpt lat="43.5519667" lon="10.9328883"><ele>250.0</ele><time>2026-04-04T14:45:32.011Z</time></trkpt><trkpt lat="43.55206" lon="10.9331967"><ele>249.0</ele><time>2026-04-04T14:45:33.011Z</time></trkpt><trkpt lat="43.5521733" lon="10.9334983"><ele>248.0</ele><time>2026-04-04T14:45:34.011Z</time></trkpt><trkpt lat="43.5523117" lon="10.9337767"><ele>248.0</ele><time>2026-04-04T14:45:35.013Z</time></trkpt><trkpt lat="43.5524733" lon="10.934025"><ele>248.0</ele><time>2026-04-04T14:45:36.014Z</time></trkpt><trkpt lat="43.5526633" lon="10.9342433"><ele>247.0</ele><time>2026-04-04T14:45:37.015Z</time></trkpt><trkpt lat="43.55287" lon="10.9344183"><ele>246.0</ele><time>2026-04-04T14:45:38.013Z</time></trkpt><trkpt lat="43.5531017" lon="10.9345583"><ele>243.0</ele><time>2026-04-04T14:45:39.011Z</time></trkpt><trkpt lat="43.553325" lon="10.9346733"><ele>240.0</ele><time>2026-04-04T14:45:40.012Z</time></trkpt><trkpt lat="43.5535617" lon="10.9347533"><ele>239.5</ele><time>2026-04-04T14:45:41.013Z</time></trkpt><trkpt lat="43.5538033" lon="10.9348"><ele>239.0</ele><time>2026-04-04T14:45:42.011Z</time></trkpt><trkpt lat="43.554045" lon="10.934815"><ele>239.0</ele><time>2026-04-04T14:45:43.01Z</time></trkpt><trkpt lat="43.55429" lon="10.9348233"><ele>239.0</ele><time>2026-04-04T14:45:44.012Z</time></trkpt><trkpt lat="43.55454" lon="10.9348333"><ele>239.0</ele><time>2026-04-04T14:45:45.013Z</time></trkpt><trkpt lat="43.55479" lon="10.9348383"><ele>239.0</ele><time>2026-04-04T14:45:46.011Z</time></trkpt><trkpt lat="43.55504" lon="10.9348483"><ele>239.0</ele><time>2026-04-04T14:45:47.012Z</time></trkpt><trkpt lat="43.5552817" lon="10.93486"><ele>239.0</ele><time>2026-04-04T14:45:48.013Z</time></trkpt><trkpt lat="43.5555133" lon="10.9349033"><ele>239.5</ele><time>2026-04-04T14:45:49.013Z</time></trkpt><trkpt lat="43.5557333" lon="10.93499"><ele>240.0</ele><time>2026-04-04T14:45:50.01Z</time></trkpt><trkpt lat="43.5559433" lon="10.9351267"><ele>240.0</ele><time>2026-04-04T14:45:51.012Z</time></trkpt><trkpt lat="43.55613" lon="10.9353067"><ele>240.0</ele><time>2026-04-04T14:45:52.011Z</time></trkpt><trkpt lat="43.556285" lon="10.9355133"><ele>240.0</ele><time>2026-04-04T14:45:53.012Z</time></trkpt><trkpt lat="43.5564017" lon="10.9357933"><ele>235.5</ele><time>2026-04-04T14:45:54.011Z</time></trkpt><trkpt lat="43.5564817" lon="10.9361083"><ele>231.0</ele><time>2026-04-04T14:45:55.012Z</time></trkpt><trkpt lat="43.55653" lon="10.9364467"><ele>231.0</ele><time>2026-04-04T14:45:56.011Z</time></trkpt><trkpt lat="43.5565533" lon="10.936785"><ele>231.0</ele><time>2026-04-04T14:45:57.013Z</time></trkpt><trkpt lat="43.55658" lon="10.9371083"><ele>231.0</ele><time>2026-04-04T14:45:58.013Z</time></trkpt><trkpt lat="43.556635" lon="10.93741"><ele>231.0</ele><time>2026-04-04T14:45:59.012Z</time></trkpt><trkpt lat="43.5567167" lon="10.9377"><ele>230.5</ele><time>2026-04-04T14:46:00.011Z</time></trkpt><trkpt lat="43.5568317" lon="10.9379733"><ele>230.0</ele><time>2026-04-04T14:46:01.011Z</time></trkpt><trkpt lat="43.556975" lon="10.9382233"><ele>229.0</ele><time>2026-04-04T14:46:02.012Z</time></trkpt><trkpt lat="43.5571533" lon="10.93844"><ele>228.0</ele><time>2026-04-04T14:46:03.012Z</time></trkpt><trkpt lat="43.5573533" lon="10.9386233"><ele>228.0</ele><time>2026-04-04T14:46:04.012Z</time></trkpt><trkpt lat="43.557575" lon="10.938765"><ele>228.0</ele><time>2026-04-04T14:46:05.012Z</time></trkpt><trkpt lat="43.5578033" lon="10.9388517"><ele>227.0</ele><time>2026-04-04T14:46:06.012Z</time></trkpt><trkpt lat="43.5580333" lon="10.938895"><ele>226.0</ele><time>2026-04-04T14:46:07.012Z</time></trkpt><trkpt lat="43.5582633" lon="10.9389083"><ele>226.0</ele><time>2026-04-04T14:46:08.012Z</time></trkpt><trkpt lat="43.5584967" lon="10.9389"><ele>226.0</ele><time>2026-04-04T14:46:09.012Z</time></trkpt><trkpt lat="43.558725" lon="10.9388817"><ele>224.33333333333331</ele><time>2026-04-04T14:46:10.011Z</time></trkpt><trkpt lat="43.5589483" lon="10.9388667"><ele>222.66666666666669</ele><time>2026-04-04T14:46:11.012Z</time></trkpt><trkpt lat="43.5591633" lon="10.9388533"><ele>221.0</ele><time>2026-04-04T14:46:12.013Z</time></trkpt><trkpt lat="43.5593717" lon="10.93885"><ele>218.66666666666669</ele><time>2026-04-04T14:46:13.012Z</time></trkpt><trkpt lat="43.5595783" lon="10.9388533"><ele>216.33333333333331</ele><time>2026-04-04T14:46:14.01Z</time></trkpt><trkpt lat="43.55978" lon="10.9388717"><ele>214.0</ele><time>2026-04-04T14:46:15.014Z</time></trkpt><trkpt lat="43.5599867" lon="10.938935"><ele>214.0</ele><time>2026-04-04T14:46:16.011Z</time></trkpt><trkpt lat="43.560195" lon="10.9390117"><ele>214.0</ele><time>2026-04-04T14:46:17.012Z</time></trkpt><trkpt lat="43.5604017" lon="10.939095"><ele>214.0</ele><time>2026-04-04T14:46:18.011Z</time></trkpt><trkpt lat="43.5606033" lon="10.9391833"><ele>211.33333333333331</ele><time>2026-04-04T14:46:19.013Z</time></trkpt><trkpt lat="43.5607917" lon="10.939275"><ele>208.66666666666669</ele><time>2026-04-04T14:46:20.011Z</time></trkpt><trkpt lat="43.560975" lon="10.93936"><ele>206.0</ele><time>2026-04-04T14:46:21.012Z</time></trkpt><trkpt lat="43.5611633" lon="10.939425"><ele>203.0</ele><time>2026-04-04T14:46:22.011Z</time></trkpt><trkpt lat="43.561355" lon="10.93947"><ele>200.0</ele><time>2026-04-04T14:46:23.011Z</time></trkpt><trkpt lat="43.5615517" lon="10.9394917"><ele>197.0</ele><time>2026-04-04T14:46:24.013Z</time></trkpt><trkpt lat="43.56175" lon="10.9395"><ele>197.0</ele><time>2026-04-04T14:46:25.013Z</time></trkpt><trkpt lat="43.5619483" lon="10.9394883"><ele>197.0</ele><time>2026-04-04T14:46:26.012Z</time></trkpt><trkpt lat="43.5621517" lon="10.93946"><ele>197.0</ele><time>2026-04-04T14:46:27.011Z</time></trkpt><trkpt lat="43.56236" lon="10.9394283"><ele>194.33333333333334</ele><time>2026-04-04T14:46:28.012Z</time></trkpt><trkpt lat="43.5625667" lon="10.9394017"><ele>191.66666666666669</ele><time>2026-04-04T14:46:29.012Z</time></trkpt><trkpt lat="43.5627667" lon="10.93939"><ele>189.0</ele><time>2026-04-04T14:46:30.011Z</time></trkpt><trkpt lat="43.5629567" lon="10.9393883"><ele>189.0</ele><time>2026-04-04T14:46:31.012Z</time></trkpt><trkpt lat="43.5631383" lon="10.9393983"><ele>189.0</ele><time>2026-04-04T14:46:32.011Z</time></trkpt><trkpt lat="43.56331" lon="10.9394133"><ele>189.0</ele><time>2026-04-04T14:46:33.013Z</time></trkpt><trkpt lat="43.5634767" lon="10.9394283"><ele>189.0</ele><time>2026-04-04T14:46:34.011Z</time></trkpt><trkpt lat="43.5636433" lon="10.9394383"><ele>189.0</ele><time>2026-04-04T14:46:35.012Z</time></trkpt><trkpt lat="43.5638083" lon="10.9394367"><ele>189.0</ele><time>2026-04-04T14:46:36.012Z</time></trkpt><trkpt lat="43.5639733" lon="10.9394283"><ele>188.33333333333334</ele><time>2026-04-04T14:46:37.01Z</time></trkpt><trkpt lat="43.5641467" lon="10.9394067"><ele>187.66666666666669</ele><time>2026-04-04T14:46:38.01Z</time></trkpt><trkpt lat="43.5643283" lon="10.939375"><ele>187.0</ele><time>2026-04-04T14:46:39.012Z</time></trkpt><trkpt lat="43.5645167" lon="10.939335"><ele>188.0</ele><time>2026-04-04T14:46:40.012Z</time></trkpt><trkpt lat="43.56471" lon="10.9392817"><ele>189.0</ele><time>2026-04-04T14:46:41.012Z</time></trkpt><trkpt lat="43.564905" lon="10.939215"><ele>190.0</ele><time>2026-04-04T14:46:42.012Z</time></trkpt><trkpt lat="43.565105" lon="10.9391433"><ele>190.0</ele><time>2026-04-04T14:46:43.013Z</time></trkpt><trkpt lat="43.5652983" lon="10.9390617"><ele>190.0</ele><time>2026-04-04T14:46:44.012Z</time></trkpt><trkpt lat="43.5654917" lon="10.938975"><ele>190.0</ele><time>2026-04-04T14:46:45.012Z</time></trkpt><trkpt lat="43.5656817" lon="10.938885"><ele>189.0</ele><time>2026-04-04T14:46:46.012Z</time></trkpt><trkpt lat="43.5658667" lon="10.9387867"><ele>188.0</ele><time>2026-04-04T14:46:47.013Z</time></trkpt><trkpt lat="43.56605" lon="10.9386967"><ele>187.0</ele><time>2026-04-04T14:46:48.012Z</time></trkpt><trkpt lat="43.56623" lon="10.93862"><ele>185.66666666666669</ele><time>2026-04-04T14:46:49.013Z</time></trkpt><trkpt lat="43.5664167" lon="10.9385817"><ele>184.33333333333334</ele><time>2026-04-04T14:46:50.011Z</time></trkpt><trkpt lat="43.5666" lon="10.93856"><ele>183.0</ele><time>2026-04-04T14:46:51.013Z</time></trkpt><trkpt lat="43.5667783" lon="10.9385483"><ele>183.0</ele><time>2026-04-04T14:46:52.012Z</time></trkpt><trkpt lat="43.5669583" lon="10.9385433"><ele>183.0</ele><time>2026-04-04T14:46:53.012Z</time></trkpt><trkpt lat="43.5671383" lon="10.9385233"><ele>183.0</ele><time>2026-04-04T14:46:54.012Z</time></trkpt><trkpt lat="43.56732" lon="10.9384683"><ele>180.66666666666666</ele><time>2026-04-04T14:46:55.012Z</time></trkpt><trkpt lat="43.5675" lon="10.938375"><ele>178.33333333333331</ele><time>2026-04-04T14:46:56.013Z</time></trkpt><trkpt lat="43.5676733" lon="10.93826"><ele>176.0</ele><time>2026-04-04T14:46:57.012Z</time></trkpt><trkpt lat="43.56783" lon="10.9381233"><ele>172.0</ele><time>2026-04-04T14:46:58.013Z</time></trkpt><trkpt lat="43.567975" lon="10.9379717"><ele>168.0</ele><time>2026-04-04T14:46:59.013Z</time></trkpt><trkpt lat="43.5681033" lon="10.9378233"><ele>164.0</ele><time>2026-04-04T14:47:00.012Z</time></trkpt><trkpt lat="43.568235" lon="10.9376733"><ele>163.66666666666666</ele><time>2026-04-04T14:47:01.011Z</time></trkpt><trkpt lat="43.568385" lon="10.9375467"><ele>163.33333333333334</ele><time>2026-04-04T14:47:02.013Z</time></trkpt><trkpt lat="43.568555" lon="10.9374717"><ele>163.0</ele><time>2026-04-04T14:47:03.013Z</time></trkpt><trkpt lat="43.568745" lon="10.93745"><ele>160.0</ele><time>2026-04-04T14:47:04.011Z</time></trkpt><trkpt lat="43.5689333" lon="10.9374717"><ele>157.0</ele><time>2026-04-04T14:47:05.012Z</time></trkpt><trkpt lat="43.5691267" lon="10.9375483"><ele>154.0</ele><time>2026-04-04T14:47:06.012Z</time></trkpt><trkpt lat="43.56933" lon="10.93766"><ele>147.0</ele><time>2026-04-04T14:47:07.012Z</time></trkpt><trkpt lat="43.5695617" lon="10.9378017"><ele>140.0</ele><time>2026-04-04T14:47:08.011Z</time></trkpt><trkpt lat="43.56979" lon="10.937945"><ele>140.0</ele><time>2026-04-04T14:47:09.012Z</time></trkpt><trkpt lat="43.5699917" lon="10.9380833"><ele>140.0</ele><time>2026-04-04T14:47:10.014Z</time></trkpt><trkpt lat="43.5701783" lon="10.938215"><ele>140.0</ele><time>2026-04-04T14:47:11.013Z</time></trkpt><trkpt lat="43.5703683" lon="10.938345"><ele>138.66666666666666</ele><time>2026-04-04T14:47:12.012Z</time></trkpt><trkpt lat="43.5705667" lon="10.9384767"><ele>137.33333333333334</ele><time>2026-04-04T14:47:13.012Z</time></trkpt><trkpt lat="43.5707567" lon="10.9386167"><ele>136.0</ele><time>2026-04-04T14:47:14.012Z</time></trkpt><trkpt lat="43.570915" lon="10.9387767"><ele>136.0</ele><time>2026-04-04T14:47:15.012Z</time></trkpt><trkpt lat="43.5710467" lon="10.9389583"><ele>136.0</ele><time>2026-04-04T14:47:16.012Z</time></trkpt><trkpt lat="43.571165" lon="10.93918"><ele>136.0</ele><time>2026-04-04T14:47:17.012Z</time></trkpt><trkpt lat="43.57128" lon="10.9394467"><ele>135.5</ele><time>2026-04-04T14:47:18.012Z</time></trkpt><trkpt lat="43.5713767" lon="10.93975"><ele>135.0</ele><time>2026-04-04T14:47:19.01Z</time></trkpt><trkpt lat="43.5714783" lon="10.9400567"><ele>128.5</ele><time>2026-04-04T14:47:20.012Z</time></trkpt><trkpt lat="43.5716067" lon="10.9403333"><ele>122.0</ele><time>2026-04-04T14:47:21.012Z</time></trkpt><trkpt lat="43.5717633" lon="10.9405733"><ele>122.0</ele><time>2026-04-04T14:47:22.013Z</time></trkpt><trkpt lat="43.5719433" lon="10.9407983"><ele>122.0</ele><time>2026-04-04T14:47:23.012Z</time></trkpt><trkpt lat="43.5721383" lon="10.9410033"><ele>118.0</ele><time>2026-04-04T14:47:24.013Z</time></trkpt><trkpt lat="43.5723333" lon="10.9411967"><ele>114.0</ele><time>2026-04-04T14:47:25.011Z</time></trkpt><trkpt lat="43.572525" lon="10.9413833"><ele>114.0</ele><time>2026-04-04T14:47:26.01Z</time></trkpt><trkpt lat="43.5727133" lon="10.9415667"><ele>114.0</ele><time>2026-04-04T14:47:27.012Z</time></trkpt><trkpt lat="43.5728967" lon="10.941745"><ele>110.66666666666666</ele><time>2026-04-04T14:47:28.011Z</time></trkpt><trkpt lat="43.5730733" lon="10.9419117"><ele>107.33333333333333</ele><time>2026-04-04T14:47:29.012Z</time></trkpt><trkpt lat="43.5732483" lon="10.9420817"><ele>104.0</ele><time>2026-04-04T14:47:30.013Z</time></trkpt><trkpt lat="43.5734067" lon="10.9422667"><ele>104.0</ele><time>2026-04-04T14:47:31.012Z</time></trkpt><trkpt lat="43.573545" lon="10.94248"><ele>104.0</ele><time>2026-04-04T14:47:32.012Z</time></trkpt><trkpt lat="43.57366" lon="10.9427217"><ele>104.0</ele><time>2026-04-04T14:47:33.011Z</time></trkpt><trkpt lat="43.57375" lon="10.943005"><ele>100.5</ele><time>2026-04-04T14:47:34.01Z</time></trkpt><trkpt lat="43.573815" lon="10.94331"><ele>97.0</ele><time>2026-04-04T14:47:35.011Z</time></trkpt><trkpt lat="43.5738767" lon="10.943615"><ele>94.5</ele><time>2026-04-04T14:47:36.012Z</time></trkpt><trkpt lat="43.5739667" lon="10.94391"><ele>92.0</ele><time>2026-04-04T14:47:37.012Z</time></trkpt><trkpt lat="43.5740867" lon="10.9441933"><ele>89.5</ele><time>2026-04-04T14:47:38.012Z</time></trkpt><trkpt lat="43.57423" lon="10.9444517"><ele>87.0</ele><time>2026-04-04T14:47:39.013Z</time></trkpt><trkpt lat="43.5744183" lon="10.9446717"><ele>86.0</ele><time>2026-04-04T14:47:40.012Z</time></trkpt><trkpt lat="43.5746333" lon="10.9448683"><ele>85.0</ele><time>2026-04-04T14:47:41.013Z</time></trkpt><trkpt lat="43.5748567" lon="10.9450717"><ele>85.0</ele><time>2026-04-04T14:47:42.013Z</time></trkpt><trkpt lat="43.57506" lon="10.9452917"><ele>85.0</ele><time>2026-04-04T14:47:43.012Z</time></trkpt><trkpt lat="43.5752567" lon="10.9455417"><ele>85.0</ele><time>2026-04-04T14:47:44.012Z</time></trkpt><trkpt lat="43.575445" lon="10.945805"><ele>85.0</ele><time>2026-04-04T14:47:45.01Z</time></trkpt><trkpt lat="43.57564" lon="10.94607"><ele>85.0</ele><time>2026-04-04T14:47:46.012Z</time></trkpt><trkpt lat="43.5758317" lon="10.94633"><ele>85.0</ele><time>2026-04-04T14:47:47.012Z</time></trkpt><trkpt lat="43.5760217" lon="10.9465733"><ele>83.5</ele><time>2026-04-04T14:47:48.012Z</time></trkpt><trkpt lat="43.5762" lon="10.946815"><ele>82.0</ele><time>2026-04-04T14:47:49.013Z</time></trkpt><trkpt lat="43.5763717" lon="10.947045"><ele>82.0</ele><time>2026-04-04T14:47:50.013Z</time></trkpt><trkpt lat="43.5765333" lon="10.9472683"><ele>82.0</ele><time>2026-04-04T14:47:51.013Z</time></trkpt><trkpt lat="43.57669" lon="10.9474917"><ele>81.0</ele><time>2026-04-04T14:47:52.012Z</time></trkpt><trkpt lat="43.5768383" lon="10.947725"><ele>80.0</ele><time>2026-04-04T14:47:53.012Z</time></trkpt><trkpt lat="43.57697" lon="10.947985"><ele>82.0</ele><time>2026-04-04T14:47:54.012Z</time></trkpt><trkpt lat="43.5770817" lon="10.94827"><ele>84.0</ele><time>2026-04-04T14:47:55.012Z</time></trkpt><trkpt lat="43.5771767" lon="10.94857"><ele>84.0</ele><time>2026-04-04T14:47:56.012Z</time></trkpt><trkpt lat="43.5772717" lon="10.9488683"><ele>84.0</ele><time>2026-04-04T14:47:57.011Z</time></trkpt><trkpt lat="43.5773633" lon="10.94917"><ele>82.0</ele><time>2026-04-04T14:47:58.013Z</time></trkpt><trkpt lat="43.57747" lon="10.9494633"><ele>80.0</ele><time>2026-04-04T14:47:59.012Z</time></trkpt><trkpt lat="43.5775917" lon="10.9497333"><ele>80.0</ele><time>2026-04-04T14:48:00.013Z</time></trkpt><trkpt lat="43.5777367" lon="10.9499817"><ele>80.0</ele><time>2026-04-04T14:48:01.011Z</time></trkpt><trkpt lat="43.5779133" lon="10.9502"><ele>82.0</ele><time>2026-04-04T14:48:02.012Z</time></trkpt><trkpt lat="43.5781217" lon="10.950395"><ele>84.0</ele><time>2026-04-04T14:48:03.011Z</time></trkpt><trkpt lat="43.5783433" lon="10.9505683"><ele>84.0</ele><time>2026-04-04T14:48:04.013Z</time></trkpt><trkpt lat="43.5785783" lon="10.9507267"><ele>84.0</ele><time>2026-04-04T14:48:05.011Z</time></trkpt><trkpt lat="43.5788" lon="10.9508867"><ele>86.33333333333333</ele><time>2026-04-04T14:48:06.013Z</time></trkpt><trkpt lat="43.5789933" lon="10.9510617"><ele>88.66666666666666</ele><time>2026-04-04T14:48:07.012Z</time></trkpt><trkpt lat="43.5791667" lon="10.9512433"><ele>91.0</ele><time>2026-04-04T14:48:08.012Z</time></trkpt><trkpt lat="43.57932" lon="10.951445"><ele>91.0</ele><time>2026-04-04T14:48:09.012Z</time></trkpt><trkpt lat="43.5794583" lon="10.9516767"><ele>91.0</ele><time>2026-04-04T14:48:10.012Z</time></trkpt><trkpt lat="43.5795817" lon="10.9519317"><ele>91.0</ele><time>2026-04-04T14:48:11.012Z</time></trkpt><trkpt lat="43.5797" lon="10.9521883"><ele>87.0</ele><time>2026-04-04T14:48:12.012Z</time></trkpt><trkpt lat="43.5798167" lon="10.9524483"><ele>83.0</ele><time>2026-04-04T14:48:13.013Z</time></trkpt><trkpt lat="43.5799483" lon="10.952705"><ele>79.0</ele><time>2026-04-04T14:48:14.013Z</time></trkpt><trkpt lat="43.5801067" lon="10.95294"><ele>76.0</ele><time>2026-04-04T14:48:15.012Z</time></trkpt><trkpt lat="43.5802917" lon="10.95315"><ele>73.0</ele><time>2026-04-04T14:48:16.013Z</time></trkpt><trkpt lat="43.5805083" lon="10.9533317"><ele>71.5</ele><time>2026-04-04T14:48:17.012Z</time></trkpt><trkpt lat="43.5807367" lon="10.9535017"><ele>70.0</ele><time>2026-04-04T14:48:18.012Z</time></trkpt><trkpt lat="43.5809667" lon="10.9536667"><ele>68.0</ele><time>2026-04-04T14:48:19.013Z</time></trkpt><trkpt lat="43.5811867" lon="10.9538383"><ele>66.0</ele><time>2026-04-04T14:48:20.012Z</time></trkpt><trkpt lat="43.5813883" lon="10.9540367"><ele>65.0</ele><time>2026-04-04T14:48:21.013Z</time></trkpt><trkpt lat="43.5815617" lon="10.9542767"><ele>64.0</ele><time>2026-04-04T14:48:22.013Z</time></trkpt><trkpt lat="43.5817017" lon="10.9545617"><ele>64.0</ele><time>2026-04-04T14:48:23.013Z</time></trkpt><trkpt lat="43.581815" lon="10.954875"><ele>64.0</ele><time>2026-04-04T14:48:24.012Z</time></trkpt><trkpt lat="43.5819133" lon="10.9552117"><ele>64.0</ele><time>2026-04-04T14:48:25.01Z</time></trkpt><trkpt lat="43.58201" lon="10.9555567"><ele>64.0</ele><time>2026-04-04T14:48:26.012Z</time></trkpt><trkpt lat="43.5821067" lon="10.9558983"><ele>64.0</ele><time>2026-04-04T14:48:27.012Z</time></trkpt><trkpt lat="43.5822017" lon="10.9562467"><ele>64.0</ele><time>2026-04-04T14:48:28.012Z</time></trkpt><trkpt lat="43.5822967" lon="10.9565983"><ele>64.0</ele><time>2026-04-04T14:48:29.013Z</time></trkpt><trkpt lat="43.5824" lon="10.9569517"><ele>64.0</ele><time>2026-04-04T14:48:30.012Z</time></trkpt><trkpt lat="43.5824983" lon="10.9572983"><ele>63.0</ele><time>2026-04-04T14:48:31.012Z</time></trkpt><trkpt lat="43.5825933" lon="10.9576517"><ele>62.0</ele><time>2026-04-04T14:48:32.012Z</time></trkpt><trkpt lat="43.5826917" lon="10.9580017"><ele>62.0</ele><time>2026-04-04T14:48:33.013Z</time></trkpt><trkpt lat="43.5827967" lon="10.9583517"><ele>62.0</ele><time>2026-04-04T14:48:34.012Z</time></trkpt><trkpt lat="43.5829" lon="10.958705"><ele>62.0</ele><time>2026-04-04T14:48:35.012Z</time></trkpt><trkpt lat="43.5830067" lon="10.9590517"><ele>62.0</ele><time>2026-04-04T14:48:36.012Z</time></trkpt><trkpt lat="43.5831167" lon="10.9593917"><ele>61.5</ele><time>2026-04-04T14:48:37.012Z</time></trkpt><trkpt lat="43.583245" lon="10.9597117"><ele>61.0</ele><time>2026-04-04T14:48:38.011Z</time></trkpt><trkpt lat="43.5833983" lon="10.9600067"><ele>60.5</ele><time>2026-04-04T14:48:39.012Z</time></trkpt><trkpt lat="43.58358" lon="10.960275"><ele>60.0</ele><time>2026-04-04T14:48:40.011Z</time></trkpt><trkpt lat="43.5837817" lon="10.9605183"><ele>59.0</ele><time>2026-04-04T14:48:41.013Z</time></trkpt><trkpt lat="43.5840033" lon="10.9607367"><ele>58.0</ele><time>2026-04-04T14:48:42.012Z</time></trkpt><trkpt lat="43.5842383" lon="10.9609417"><ele>58.0</ele><time>2026-04-04T14:48:43.012Z</time></trkpt><trkpt lat="43.5844767" lon="10.9611433"><ele>58.0</ele><time>2026-04-04T14:48:44.012Z</time></trkpt><trkpt lat="43.5847083" lon="10.9613533"><ele>58.5</ele><time>2026-04-04T14:48:45.013Z</time></trkpt><trkpt lat="43.5849283" lon="10.9615833"><ele>59.0</ele><time>2026-04-04T14:48:46.012Z</time></trkpt><trkpt lat="43.5851283" lon="10.9618217"><ele>59.0</ele><time>2026-04-04T14:48:47.013Z</time></trkpt><trkpt lat="43.5853133" lon="10.9620617"><ele>59.0</ele><time>2026-04-04T14:48:48.013Z</time></trkpt><trkpt lat="43.5854833" lon="10.962315"><ele>58.5</ele><time>2026-04-04T14:48:49.012Z</time></trkpt><trkpt lat="43.5856417" lon="10.9625817"><ele>58.0</ele><time>2026-04-04T14:48:50.013Z</time></trkpt><trkpt lat="43.585795" lon="10.9628417"><ele>58.0</ele><time>2026-04-04T14:48:51.013Z</time></trkpt><trkpt lat="43.5859467" lon="10.963105"><ele>58.0</ele><time>2026-04-04T14:48:52.012Z</time></trkpt><trkpt lat="43.5861" lon="10.9633633"><ele>57.5</ele><time>2026-04-04T14:48:53.012Z</time></trkpt><trkpt lat="43.5862483" lon="10.9636233"><ele>57.0</ele><time>2026-04-04T14:48:54.01Z</time></trkpt><trkpt lat="43.5863933" lon="10.9638783"><ele>57.0</ele><time>2026-04-04T14:48:55.013Z</time></trkpt><trkpt lat="43.5865233" lon="10.9641283"><ele>57.0</ele><time>2026-04-04T14:48:56.012Z</time></trkpt><trkpt lat="43.5866317" lon="10.9643883"><ele>57.0</ele><time>2026-04-04T14:48:57.012Z</time></trkpt><trkpt lat="43.5867167" lon="10.96465"><ele>56.66666666666667</ele><time>2026-04-04T14:48:58.012Z</time></trkpt><trkpt lat="43.5867833" lon="10.96492"><ele>56.333333333333336</ele><time>2026-04-04T14:48:59.013Z</time></trkpt><trkpt lat="43.5868217" lon="10.965195"><ele>56.0</ele><time>2026-04-04T14:49:00.01Z</time></trkpt><trkpt lat="43.586835" lon="10.9654633"><ele>55.66666666666667</ele><time>2026-04-04T14:49:01.012Z</time></trkpt><trkpt lat="43.586825" lon="10.9657183"><ele>55.33333333333333</ele><time>2026-04-04T14:49:02.012Z</time></trkpt><trkpt lat="43.58679" lon="10.9659517"><ele>55.0</ele><time>2026-04-04T14:49:03.012Z</time></trkpt><trkpt lat="43.58675" lon="10.9661683"><ele>55.0</ele><time>2026-04-04T14:49:04.013Z</time></trkpt><trkpt lat="43.5867" lon="10.9663633"><ele>55.0</ele><time>2026-04-04T14:49:05.012Z</time></trkpt><trkpt lat="43.5866483" lon="10.9665367"><ele>55.0</ele><time>2026-04-04T14:49:06.012Z</time></trkpt><trkpt lat="43.5866" lon="10.9666933"><ele>55.0</ele><time>2026-04-04T14:49:07.012Z</time></trkpt><trkpt lat="43.5865667" lon="10.9668333"><ele>54.99999999999999</ele><time>2026-04-04T14:49:08.012Z</time></trkpt><trkpt lat="43.5865333" lon="10.9669583"><ele>55.0</ele><time>2026-04-04T14:49:09.012Z</time></trkpt><trkpt lat="43.5865017" lon="10.96708"><ele>55.0</ele><time>2026-04-04T14:49:10.012Z</time></trkpt><trkpt lat="43.5864667" lon="10.967195"><ele>55.0</ele><time>2026-04-04T14:49:11.011Z</time></trkpt><trkpt lat="43.58643" lon="10.9672883"><ele>54.99999999999999</ele><time>2026-04-04T14:49:12.013Z</time></trkpt><trkpt lat="43.5864017" lon="10.9673733"><ele>55.0</ele><time>2026-04-04T14:49:13.012Z</time></trkpt><trkpt lat="43.5863583" lon="10.967495"><ele>54.99999999999999</ele><time>2026-04-04T14:49:15.012Z</time></trkpt><trkpt lat="43.5863266" lon="10.9674152"><ele>55.0</ele><time>2026-04-04T14:50:03.048Z</time></trkpt><trkpt lat="43.5862761" lon="10.9676308"><ele>55.0</ele><time>2026-04-04T14:55:38.011Z</time></trkpt><trkpt lat="43.5862445" lon="10.9677288"><ele>55.0</ele><time>2026-04-04T14:55:39.012Z</time></trkpt><trkpt lat="43.5862198" lon="10.9678194"><ele>54.99999999999999</ele><time>2026-04-04T14:55:40.012Z</time></trkpt><trkpt lat="43.586196" lon="10.9679008"><ele>55.0</ele><time>2026-04-04T14:55:41.012Z</time></trkpt><trkpt lat="43.5861683" lon="10.9680133"><ele>54.8</ele><time>2026-04-04T14:55:43.012Z</time></trkpt><trkpt lat="43.5861517" lon="10.9681117"><ele>54.6</ele><time>2026-04-04T14:55:46.011Z</time></trkpt><trkpt lat="43.5861617" lon="10.9682333"><ele>54.400000000000006</ele><time>2026-04-04T14:55:53.012Z</time></trkpt><trkpt lat="43.586215" lon="10.9683933"><ele>54.2</ele><time>2026-04-04T14:55:55.011Z</time></trkpt><trkpt lat="43.5862867" lon="10.968505"><ele>54.0</ele><time>2026-04-04T14:55:56.01Z</time></trkpt><trkpt lat="43.5864383" lon="10.968665"><ele>54.0</ele><time>2026-04-04T14:55:57.011Z</time></trkpt><trkpt lat="43.586645" lon="10.9688783"><ele>54.0</ele><time>2026-04-04T14:55:58.01Z</time></trkpt><trkpt lat="43.586805" lon="10.9690633"><ele>54.66666666666667</ele><time>2026-04-04T14:55:59.011Z</time></trkpt><trkpt lat="43.5869583" lon="10.9692417"><ele>55.333333333333336</ele><time>2026-04-04T14:56:00.011Z</time></trkpt><trkpt lat="43.5871233" lon="10.96943"><ele>56.0</ele><time>2026-04-04T14:56:01.011Z</time></trkpt><trkpt lat="43.5872917" lon="10.9696133"><ele>56.0</ele><time>2026-04-04T14:56:02.012Z</time></trkpt><trkpt lat="43.58746" lon="10.9697983"><ele>56.0</ele><time>2026-04-04T14:56:03.011Z</time></trkpt><trkpt lat="43.5876267" lon="10.9699733"><ele>56.0</ele><time>2026-04-04T14:56:04.013Z</time></trkpt><trkpt lat="43.587775" lon="10.9701367"><ele>55.333333333333336</ele><time>2026-04-04T14:56:05.011Z</time></trkpt><trkpt lat="43.5879267" lon="10.9702883"><ele>54.66666666666667</ele><time>2026-04-04T14:56:06.011Z</time></trkpt><trkpt lat="43.5880783" lon="10.9704383"><ele>54.0</ele><time>2026-04-04T14:56:07.009Z</time></trkpt><trkpt lat="43.5882217" lon="10.9705917"><ele>54.0</ele><time>2026-04-04T14:56:08.008Z</time></trkpt><trkpt lat="43.588365" lon="10.9707417"><ele>54.0</ele><time>2026-04-04T14:56:09.011Z</time></trkpt><trkpt lat="43.588505" lon="10.9708833"><ele>54.0</ele><time>2026-04-04T14:56:10.012Z</time></trkpt><trkpt lat="43.5886417" lon="10.9710167"><ele>53.75</ele><time>2026-04-04T14:56:11.012Z</time></trkpt><trkpt lat="43.5887683" lon="10.971135"><ele>53.5</ele><time>2026-04-04T14:56:12.01Z</time></trkpt><trkpt lat="43.5888767" lon="10.9712433"><ele>53.25</ele><time>2026-04-04T14:56:13.01Z</time></trkpt><trkpt lat="43.5889783" lon="10.9713533"><ele>53.0</ele><time>2026-04-04T14:56:14.01Z</time></trkpt><trkpt lat="43.5890767" lon="10.9714783"><ele>53.0</ele><time>2026-04-04T14:56:15.011Z</time></trkpt><trkpt lat="43.5891617" lon="10.9716167"><ele>53.0</ele><time>2026-04-04T14:56:16.01Z</time></trkpt><trkpt lat="43.589235" lon="10.9717483"><ele>53.0</ele><time>2026-04-04T14:56:17.01Z</time></trkpt><trkpt lat="43.58932" lon="10.9718533"><ele>53.0</ele><time>2026-04-04T14:56:18.009Z</time></trkpt><trkpt lat="43.5894417" lon="10.9719233"><ele>52.75</ele><time>2026-04-04T14:56:19.009Z</time></trkpt><trkpt lat="43.5895767" lon="10.9719467"><ele>52.5</ele><time>2026-04-04T14:56:20.01Z</time></trkpt><trkpt lat="43.5897233" lon="10.971935"><ele>52.25</ele><time>2026-04-04T14:56:21.011Z</time></trkpt><trkpt lat="43.5898767" lon="10.97192"><ele>52.0</ele><time>2026-04-04T14:56:22.011Z</time></trkpt><trkpt lat="43.5900483" lon="10.97194"><ele>52.0</ele><time>2026-04-04T14:56:23.012Z</time></trkpt><trkpt lat="43.59023" lon="10.97198"><ele>52.0</ele><time>2026-04-04T14:56:24.009Z</time></trkpt><trkpt lat="43.5904183" lon="10.9720233"><ele>52.0</ele><time>2026-04-04T14:56:25.011Z</time></trkpt><trkpt lat="43.5906083" lon="10.9720767"><ele>52.0</ele><time>2026-04-04T14:56:26.011Z</time></trkpt><trkpt lat="43.5908033" lon="10.9721233"><ele>52.0</ele><time>2026-04-04T14:56:27.011Z</time></trkpt><trkpt lat="43.59101" lon="10.9721583"><ele>52.0</ele><time>2026-04-04T14:56:28.01Z</time></trkpt><trkpt lat="43.5912233" lon="10.9721933"><ele>51.33333333333333</ele><time>2026-04-04T14:56:29.011Z</time></trkpt><trkpt lat="43.5914383" lon="10.9722267"><ele>50.66666666666667</ele><time>2026-04-04T14:56:30.012Z</time></trkpt><trkpt lat="43.5916417" lon="10.9722517"><ele>50.0</ele><time>2026-04-04T14:56:31.012Z</time></trkpt><trkpt lat="43.5918267" lon="10.972275"><ele>50.0</ele><time>2026-04-04T14:56:32.01Z</time></trkpt><trkpt lat="43.5919967" lon="10.9722933"><ele>50.0</ele><time>2026-04-04T14:56:33.01Z</time></trkpt><trkpt lat="43.5921483" lon="10.9723117"><ele>50.0</ele><time>2026-04-04T14:56:34.012Z</time></trkpt><trkpt lat="43.5922817" lon="10.9723267"><ele>50.16666666666667</ele><time>2026-04-04T14:56:35.01Z</time></trkpt><trkpt lat="43.592395" lon="10.9723467"><ele>50.333333333333336</ele><time>2026-04-04T14:56:36.009Z</time></trkpt><trkpt lat="43.5924833" lon="10.9723733"><ele>50.5</ele><time>2026-04-04T14:56:37.01Z</time></trkpt><trkpt lat="43.5925533" lon="10.9724117"><ele>50.66666666666667</ele><time>2026-04-04T14:56:38.011Z</time></trkpt><trkpt lat="43.59262" lon="10.972455"><ele>50.833333333333336</ele><time>2026-04-04T14:56:39.012Z</time></trkpt><trkpt lat="43.5926933" lon="10.9724933"><ele>51.0</ele><time>2026-04-04T14:56:40.012Z</time></trkpt><trkpt lat="43.5927733" lon="10.9725267"><ele>50.75</ele><time>2026-04-04T14:56:41.011Z</time></trkpt><trkpt lat="43.5928683" lon="10.9725033"><ele>50.5</ele><time>2026-04-04T14:56:42.011Z</time></trkpt><trkpt lat="43.5929617" lon="10.97245"><ele>50.25</ele><time>2026-04-04T14:56:43.012Z</time></trkpt><trkpt lat="43.593075" lon="10.9723917"><ele>50.0</ele><time>2026-04-04T14:56:44.012Z</time></trkpt><trkpt lat="43.5932217" lon="10.9723483"><ele>50.0</ele><time>2026-04-04T14:56:45.011Z</time></trkpt><trkpt lat="43.5934017" lon="10.9723133"><ele>50.0</ele><time>2026-04-04T14:56:46.01Z</time></trkpt><trkpt lat="43.5936117" lon="10.9723017"><ele>50.0</ele><time>2026-04-04T14:56:47.012Z</time></trkpt><trkpt lat="43.5938367" lon="10.9723"><ele>50.333333333333336</ele><time>2026-04-04T14:56:48.012Z</time></trkpt><trkpt lat="43.5940633" lon="10.9723"><ele>50.66666666666667</ele><time>2026-04-04T14:56:49.011Z</time></trkpt><trkpt lat="43.594285" lon="10.9722917"><ele>51.0</ele><time>2026-04-04T14:56:50.012Z</time></trkpt><trkpt lat="43.5945033" lon="10.97228"><ele>51.33333333333333</ele><time>2026-04-04T14:56:51.012Z</time></trkpt><trkpt lat="43.5947133" lon="10.9722633"><ele>51.666666666666664</ele><time>2026-04-04T14:56:52.012Z</time></trkpt><trkpt lat="43.594925" lon="10.97225"><ele>52.0</ele><time>2026-04-04T14:56:53.01Z</time></trkpt><trkpt lat="43.5951383" lon="10.9722467"><ele>52.0</ele><time>2026-04-04T14:56:54.012Z</time></trkpt><trkpt lat="43.595355" lon="10.972245"><ele>52.0</ele><time>2026-04-04T14:56:55.011Z</time></trkpt><trkpt lat="43.5955783" lon="10.9722533"><ele>52.0</ele><time>2026-04-04T14:56:56.01Z</time></trkpt><trkpt lat="43.5958017" lon="10.9722933"><ele>52.0</ele><time>2026-04-04T14:56:57.012Z</time></trkpt><trkpt lat="43.5960233" lon="10.97236"><ele>52.0</ele><time>2026-04-04T14:56:58.011Z</time></trkpt><trkpt lat="43.59624" lon="10.9724517"><ele>51.0</ele><time>2026-04-04T14:56:59.012Z</time></trkpt><trkpt lat="43.5964567" lon="10.972575"><ele>50.0</ele><time>2026-04-04T14:57:00.013Z</time></trkpt><trkpt lat="43.5966667" lon="10.9727333"><ele>50.0</ele><time>2026-04-04T14:57:01.013Z</time></trkpt><trkpt lat="43.596875" lon="10.9729267"><ele>50.0</ele><time>2026-04-04T14:57:02.014Z</time></trkpt><trkpt lat="43.597075" lon="10.9731367"><ele>51.0</ele><time>2026-04-04T14:57:03.013Z</time></trkpt><trkpt lat="43.5972683" lon="10.9733433"><ele>52.0</ele><time>2026-04-04T14:57:04.013Z</time></trkpt><trkpt lat="43.5974567" lon="10.9735417"><ele>53.0</ele><time>2026-04-04T14:57:05.012Z</time></trkpt><trkpt lat="43.597645" lon="10.9737367"><ele>54.0</ele><time>2026-04-04T14:57:06.014Z</time></trkpt><trkpt lat="43.5978283" lon="10.9739217"><ele>55.0</ele><time>2026-04-04T14:57:07.012Z</time></trkpt><trkpt lat="43.5980067" lon="10.9740917"><ele>56.0</ele><time>2026-04-04T14:57:08.012Z</time></trkpt><trkpt lat="43.59819" lon="10.9742467"><ele>57.0</ele><time>2026-04-04T14:57:09.012Z</time></trkpt><trkpt lat="43.5983767" lon="10.974385"><ele>57.66666666666667</ele><time>2026-04-04T14:57:10.012Z</time></trkpt><trkpt lat="43.5985683" lon="10.9745017"><ele>58.333333333333336</ele><time>2026-04-04T14:57:11.011Z</time></trkpt><trkpt lat="43.598765" lon="10.974595"><ele>59.0</ele><time>2026-04-04T14:57:12.012Z</time></trkpt><trkpt lat="43.5989683" lon="10.9746683"><ele>59.0</ele><time>2026-04-04T14:57:13.013Z</time></trkpt><trkpt lat="43.59918" lon="10.9747183"><ele>59.0</ele><time>2026-04-04T14:57:14.013Z</time></trkpt><trkpt lat="43.5993983" lon="10.9747517"><ele>59.0</ele><time>2026-04-04T14:57:15.013Z</time></trkpt><trkpt lat="43.5996183" lon="10.974775"><ele>59.66666666666667</ele><time>2026-04-04T14:57:16.01Z</time></trkpt><trkpt lat="43.5998383" lon="10.9748"><ele>60.33333333333333</ele><time>2026-04-04T14:57:17.011Z</time></trkpt><trkpt lat="43.6000617" lon="10.974825"><ele>61.0</ele><time>2026-04-04T14:57:18.011Z</time></trkpt><trkpt lat="43.6002833" lon="10.9748483"><ele>58.666666666666664</ele><time>2026-04-04T14:57:19.012Z</time></trkpt><trkpt lat="43.6005083" lon="10.9748683"><ele>56.33333333333333</ele><time>2026-04-04T14:57:20.011Z</time></trkpt><trkpt lat="43.60073" lon="10.9749017"><ele>54.0</ele><time>2026-04-04T14:57:21.013Z</time></trkpt><trkpt lat="43.600945" lon="10.9749417"><ele>54.0</ele><time>2026-04-04T14:57:22.012Z</time></trkpt><trkpt lat="43.60115" lon="10.9749867"><ele>54.0</ele><time>2026-04-04T14:57:23.011Z</time></trkpt><trkpt lat="43.6013383" lon="10.9750333"><ele>54.0</ele><time>2026-04-04T14:57:24.012Z</time></trkpt><trkpt lat="43.601515" lon="10.9750833"><ele>56.33333333333333</ele><time>2026-04-04T14:57:25.012Z</time></trkpt><trkpt lat="43.6016867" lon="10.97513"><ele>58.666666666666664</ele><time>2026-04-04T14:57:26.012Z</time></trkpt><trkpt lat="43.6018467" lon="10.975175"><ele>61.0</ele><time>2026-04-04T14:57:27.01Z</time></trkpt><trkpt lat="43.6019967" lon="10.9752167"><ele>59.5</ele><time>2026-04-04T14:57:28.011Z</time></trkpt><trkpt lat="43.602135" lon="10.97526"><ele>58.0</ele><time>2026-04-04T14:57:29.012Z</time></trkpt><trkpt lat="43.6022583" lon="10.9752967"><ele>56.5</ele><time>2026-04-04T14:57:30.012Z</time></trkpt><trkpt lat="43.60237" lon="10.9753317"><ele>55.0</ele><time>2026-04-04T14:57:31.013Z</time></trkpt><trkpt lat="43.60247" lon="10.97536"><ele>54.99999999999999</ele><time>2026-04-04T14:57:32.011Z</time></trkpt><trkpt lat="43.60256" lon="10.9753833"><ele>55.0</ele><time>2026-04-04T14:57:33.014Z</time></trkpt><trkpt lat="43.60264" lon="10.9754033"><ele>55.0</ele><time>2026-04-04T14:57:34.013Z</time></trkpt><trkpt lat="43.60271" lon="10.9754217"><ele>55.0</ele><time>2026-04-04T14:57:35.012Z</time></trkpt><trkpt lat="43.60282" lon="10.9754567"><ele>54.99999999999999</ele><time>2026-04-04T14:57:37.011Z</time></trkpt><trkpt lat="43.6028883" lon="10.9754767"><ele>55.0</ele><time>2026-04-04T14:57:39.01Z</time></trkpt><trkpt lat="43.6029617" lon="10.9754883"><ele>54.4</ele><time>2026-04-04T14:57:57.01Z</time></trkpt><trkpt lat="43.6030617" lon="10.9755167"><ele>53.8</ele><time>2026-04-04T14:57:59.011Z</time></trkpt><trkpt lat="43.6031367" lon="10.9755383"><ele>53.2</ele><time>2026-04-04T14:58:00.011Z</time></trkpt><trkpt lat="43.6032183" lon="10.97556"><ele>52.6</ele><time>2026-04-04T14:58:01.01Z</time></trkpt><trkpt lat="43.6033067" lon="10.9755833"><ele>52.0</ele><time>2026-04-04T14:58:02.012Z</time></trkpt><trkpt lat="43.60341" lon="10.9756083"><ele>52.0</ele><time>2026-04-04T14:58:03.011Z</time></trkpt><trkpt lat="43.6035283" lon="10.9756383"><ele>52.0</ele><time>2026-04-04T14:58:04.01Z</time></trkpt><trkpt lat="43.6036617" lon="10.9756717"><ele>52.0</ele><time>2026-04-04T14:58:05.013Z</time></trkpt><trkpt lat="43.6038067" lon="10.9757067"><ele>52.0</ele><time>2026-04-04T14:58:06.012Z</time></trkpt><trkpt lat="43.6039617" lon="10.975745"><ele>52.0</ele><time>2026-04-04T14:58:07.013Z</time></trkpt><trkpt lat="43.6041367" lon="10.9757867"><ele>52.0</ele><time>2026-04-04T14:58:08.012Z</time></trkpt><trkpt lat="43.604315" lon="10.9758217"><ele>52.0</ele><time>2026-04-04T14:58:09.012Z</time></trkpt><trkpt lat="43.6045" lon="10.97586"><ele>51.666666666666664</ele><time>2026-04-04T14:58:10.012Z</time></trkpt><trkpt lat="43.6046917" lon="10.9759033"><ele>51.33333333333333</ele><time>2026-04-04T14:58:11.012Z</time></trkpt><trkpt lat="43.6048833" lon="10.975955"><ele>51.0</ele><time>2026-04-04T14:58:12.012Z</time></trkpt><trkpt lat="43.6050717" lon="10.97601"><ele>51.0</ele><time>2026-04-04T14:58:13.013Z</time></trkpt><trkpt lat="43.60526" lon="10.9760417"><ele>51.0</ele><time>2026-04-04T14:58:14.011Z</time></trkpt><trkpt lat="43.6054383" lon="10.976065"><ele>51.0</ele><time>2026-04-04T14:58:15.012Z</time></trkpt><trkpt lat="43.605615" lon="10.9760617"><ele>51.33333333333333</ele><time>2026-04-04T14:58:16.011Z</time></trkpt><trkpt lat="43.60578" lon="10.9760183"><ele>51.666666666666664</ele><time>2026-04-04T14:58:17.012Z</time></trkpt><trkpt lat="43.605935" lon="10.9759633"><ele>52.0</ele><time>2026-04-04T14:58:18.012Z</time></trkpt><trkpt lat="43.6060767" lon="10.97589"><ele>53.5</ele><time>2026-04-04T14:58:19.011Z</time></trkpt><trkpt lat="43.6061983" lon="10.9757917"><ele>55.0</ele><time>2026-04-04T14:58:20.012Z</time></trkpt><trkpt lat="43.6062983" lon="10.9756667"><ele>56.5</ele><time>2026-04-04T14:58:21.012Z</time></trkpt><trkpt lat="43.60639" lon="10.975515"><ele>58.0</ele><time>2026-04-04T14:58:22.012Z</time></trkpt><trkpt lat="43.60647" lon="10.97534"><ele>58.0</ele><time>2026-04-04T14:58:23.009Z</time></trkpt><trkpt lat="43.60655" lon="10.9751233"><ele>58.0</ele><time>2026-04-04T14:58:24.011Z</time></trkpt><trkpt lat="43.6066333" lon="10.9748817"><ele>58.0</ele><time>2026-04-04T14:58:25.013Z</time></trkpt><trkpt lat="43.6067117" lon="10.97463"><ele>61.0</ele><time>2026-04-04T14:58:26.011Z</time></trkpt><trkpt lat="43.6067867" lon="10.974385"><ele>64.0</ele><time>2026-04-04T14:58:27.012Z</time></trkpt><trkpt lat="43.6068683" lon="10.97416"><ele>67.0</ele><time>2026-04-04T14:58:28.01Z</time></trkpt><trkpt lat="43.6069483" lon="10.9739517"><ele>69.33333333333333</ele><time>2026-04-04T14:58:29.01Z</time></trkpt><trkpt lat="43.6070367" lon="10.9737583"><ele>71.66666666666667</ele><time>2026-04-04T14:58:30.01Z</time></trkpt><trkpt lat="43.6071283" lon="10.9735833"><ele>74.0</ele><time>2026-04-04T14:58:31.013Z</time></trkpt><trkpt lat="43.6072183" lon="10.9734183"><ele>78.5</ele><time>2026-04-04T14:58:32.013Z</time></trkpt><trkpt lat="43.607305" lon="10.9732733"><ele>83.0</ele><time>2026-04-04T14:58:33.013Z</time></trkpt><trkpt lat="43.60739" lon="10.9731433"><ele>87.5</ele><time>2026-04-04T14:58:34.011Z</time></trkpt><trkpt lat="43.6074717" lon="10.97302"><ele>92.0</ele><time>2026-04-04T14:58:35.011Z</time></trkpt><trkpt lat="43.6075583" lon="10.9729067"><ele>92.0</ele><time>2026-04-04T14:58:36.011Z</time></trkpt><trkpt lat="43.607655" lon="10.9728217"><ele>92.0</ele><time>2026-04-04T14:58:37.012Z</time></trkpt><trkpt lat="43.607765" lon="10.9727767"><ele>92.0</ele><time>2026-04-04T14:58:38.012Z</time></trkpt><trkpt lat="43.6078817" lon="10.9727583"><ele>92.0</ele><time>2026-04-04T14:58:39.013Z</time></trkpt><trkpt lat="43.6080067" lon="10.9727817"><ele>92.0</ele><time>2026-04-04T14:58:40.011Z</time></trkpt><trkpt lat="43.6081283" lon="10.9728267"><ele>92.0</ele><time>2026-04-04T14:58:41.011Z</time></trkpt><trkpt lat="43.6082483" lon="10.9728833"><ele>92.0</ele><time>2026-04-04T14:58:42.012Z</time></trkpt><trkpt lat="43.6083567" lon="10.972935"><ele>92.0</ele><time>2026-04-04T14:58:43.01Z</time></trkpt><trkpt lat="43.6084533" lon="10.9729883"><ele>92.0</ele><time>2026-04-04T14:58:44.012Z</time></trkpt><trkpt lat="43.6085533" lon="10.9730433"><ele>92.0</ele><time>2026-04-04T14:58:45.011Z</time></trkpt><trkpt lat="43.608665" lon="10.9731233"><ele>92.0</ele><time>2026-04-04T14:58:46.012Z</time></trkpt><trkpt lat="43.6088017" lon="10.9732217"><ele>92.0</ele><time>2026-04-04T14:58:47.012Z</time></trkpt><trkpt lat="43.60895" lon="10.9733317"><ele>92.66666666666667</ele><time>2026-04-04T14:58:48.012Z</time></trkpt><trkpt lat="43.609095" lon="10.9734467"><ele>93.33333333333333</ele><time>2026-04-04T14:58:49.011Z</time></trkpt><trkpt lat="43.6092367" lon="10.9735617"><ele>94.0</ele><time>2026-04-04T14:58:50.012Z</time></trkpt><trkpt lat="43.6093883" lon="10.97369"><ele>99.0</ele><time>2026-04-04T14:58:51.012Z</time></trkpt><trkpt lat="43.6095533" lon="10.9738233"><ele>104.0</ele><time>2026-04-04T14:58:52.012Z</time></trkpt><trkpt lat="43.60973" lon="10.973965"><ele>109.0</ele><time>2026-04-04T14:58:53.011Z</time></trkpt><trkpt lat="43.6099133" lon="10.9741133"><ele>110.0</ele><time>2026-04-04T14:58:54.011Z</time></trkpt><trkpt lat="43.6100933" lon="10.97428"><ele>111.0</ele><time>2026-04-04T14:58:55.011Z</time></trkpt><trkpt lat="43.6102617" lon="10.9744717"><ele>112.0</ele><time>2026-04-04T14:58:56.012Z</time></trkpt><trkpt lat="43.610415" lon="10.9746817"><ele>112.0</ele><time>2026-04-04T14:58:57.011Z</time></trkpt><trkpt lat="43.6105583" lon="10.974895"><ele>112.0</ele><time>2026-04-04T14:58:58.013Z</time></trkpt><trkpt lat="43.6107133" lon="10.9750933"><ele>112.0</ele><time>2026-04-04T14:58:59.012Z</time></trkpt><trkpt lat="43.6108783" lon="10.9752633"><ele>112.66666666666667</ele><time>2026-04-04T14:59:00.012Z</time></trkpt><trkpt lat="43.61106" lon="10.975405"><ele>113.33333333333334</ele><time>2026-04-04T14:59:01.014Z</time></trkpt><trkpt lat="43.6112417" lon="10.9755317"><ele>114.0</ele><time>2026-04-04T14:59:02.012Z</time></trkpt><trkpt lat="43.61142" lon="10.9756617"><ele>114.0</ele><time>2026-04-04T14:59:03.012Z</time></trkpt><trkpt lat="43.6115983" lon="10.9757983"><ele>114.0</ele><time>2026-04-04T14:59:04.012Z</time></trkpt><trkpt lat="43.6117667" lon="10.975945"><ele>114.0</ele><time>2026-04-04T14:59:05.012Z</time></trkpt><trkpt lat="43.6119317" lon="10.976105"><ele>115.66666666666666</ele><time>2026-04-04T14:59:06.011Z</time></trkpt><trkpt lat="43.61209" lon="10.9762833"><ele>117.33333333333333</ele><time>2026-04-04T14:59:07.011Z</time></trkpt><trkpt lat="43.61224" lon="10.9764733"><ele>119.0</ele><time>2026-04-04T14:59:08.011Z</time></trkpt><trkpt lat="43.6123817" lon="10.97668"><ele>119.66666666666666</ele><time>2026-04-04T14:59:09.011Z</time></trkpt><trkpt lat="43.6125033" lon="10.9769067"><ele>120.33333333333334</ele><time>2026-04-04T14:59:10.011Z</time></trkpt><trkpt lat="43.6126117" lon="10.9771483"><ele>121.0</ele><time>2026-04-04T14:59:11.011Z</time></trkpt><trkpt lat="43.6127133" lon="10.9774117"><ele>121.5</ele><time>2026-04-04T14:59:12.01Z</time></trkpt><trkpt lat="43.61283" lon="10.9777067"><ele>122.0</ele><time>2026-04-04T14:59:13.012Z</time></trkpt><trkpt lat="43.6129433" lon="10.9780217"><ele>122.0</ele><time>2026-04-04T14:59:14.01Z</time></trkpt><trkpt lat="43.6130583" lon="10.9783317"><ele>122.0</ele><time>2026-04-04T14:59:15.011Z</time></trkpt><trkpt lat="43.6131933" lon="10.9786217"><ele>120.0</ele><time>2026-04-04T14:59:16.011Z</time></trkpt><trkpt lat="43.61334" lon="10.978885"><ele>118.0</ele><time>2026-04-04T14:59:17.012Z</time></trkpt><trkpt lat="43.61351" lon="10.9791283"><ele>118.5</ele><time>2026-04-04T14:59:18.012Z</time></trkpt><trkpt lat="43.613695" lon="10.9793467"><ele>119.0</ele><time>2026-04-04T14:59:19.012Z</time></trkpt><trkpt lat="43.6138883" lon="10.979545"><ele>119.0</ele><time>2026-04-04T14:59:20.011Z</time></trkpt><trkpt lat="43.6140733" lon="10.9797367"><ele>119.0</ele><time>2026-04-04T14:59:21.012Z</time></trkpt><trkpt lat="43.6142583" lon="10.979925"><ele>118.33333333333333</ele><time>2026-04-04T14:59:22.011Z</time></trkpt><trkpt lat="43.6144367" lon="10.980115"><ele>117.66666666666666</ele><time>2026-04-04T14:59:23.012Z</time></trkpt><trkpt lat="43.6146067" lon="10.98031"><ele>117.0</ele><time>2026-04-04T14:59:24.013Z</time></trkpt><trkpt lat="43.61477" lon="10.9805267"><ele>122.0</ele><time>2026-04-04T14:59:25.012Z</time></trkpt><trkpt lat="43.614915" lon="10.9807683"><ele>127.0</ele><time>2026-04-04T14:59:26.011Z</time></trkpt><trkpt lat="43.61503" lon="10.98104"><ele>129.33333333333334</ele><time>2026-04-04T14:59:27.012Z</time></trkpt><trkpt lat="43.6151033" lon="10.9813283"><ele>131.66666666666666</ele><time>2026-04-04T14:59:28.012Z</time></trkpt><trkpt lat="43.615145" lon="10.98162"><ele>134.0</ele><time>2026-04-04T14:59:29.011Z</time></trkpt><trkpt lat="43.615165" lon="10.9819017"><ele>134.33333333333331</ele><time>2026-04-04T14:59:30.012Z</time></trkpt><trkpt lat="43.6151833" lon="10.982175"><ele>134.66666666666666</ele><time>2026-04-04T14:59:31.011Z</time></trkpt><trkpt lat="43.61522" lon="10.98244"><ele>135.0</ele><time>2026-04-04T14:59:32.013Z</time></trkpt><trkpt lat="43.6152733" lon="10.9826917"><ele>135.33333333333334</ele><time>2026-04-04T14:59:33.011Z</time></trkpt><trkpt lat="43.6153483" lon="10.982935"><ele>135.66666666666669</ele><time>2026-04-04T14:59:34.011Z</time></trkpt><trkpt lat="43.615445" lon="10.9831517"><ele>136.0</ele><time>2026-04-04T14:59:35.012Z</time></trkpt><trkpt lat="43.6155583" lon="10.983345"><ele>134.66666666666669</ele><time>2026-04-04T14:59:36.012Z</time></trkpt><trkpt lat="43.61572" lon="10.983495"><ele>133.33333333333334</ele><time>2026-04-04T14:59:37.012Z</time></trkpt><trkpt lat="43.6159017" lon="10.9836217"><ele>132.0</ele><time>2026-04-04T14:59:38.012Z</time></trkpt><trkpt lat="43.6160833" lon="10.983745"><ele>132.66666666666666</ele><time>2026-04-04T14:59:39.012Z</time></trkpt><trkpt lat="43.616255" lon="10.98387"><ele>133.33333333333331</ele><time>2026-04-04T14:59:40.012Z</time></trkpt><trkpt lat="43.616415" lon="10.9839833"><ele>134.0</ele><time>2026-04-04T14:59:41.011Z</time></trkpt><trkpt lat="43.616565" lon="10.9840867"><ele>134.0</ele><time>2026-04-04T14:59:42.012Z</time></trkpt><trkpt lat="43.6167067" lon="10.9841717"><ele>134.0</ele><time>2026-04-04T14:59:43.01Z</time></trkpt><trkpt lat="43.6168283" lon="10.984245"><ele>134.0</ele><time>2026-04-04T14:59:44.012Z</time></trkpt><trkpt lat="43.6169383" lon="10.9843033"><ele>134.0</ele><time>2026-04-04T14:59:45.012Z</time></trkpt><trkpt lat="43.61703" lon="10.9843533"><ele>132.33333333333331</ele><time>2026-04-04T14:59:46.013Z</time></trkpt><trkpt lat="43.617105" lon="10.9843917"><ele>130.66666666666666</ele><time>2026-04-04T14:59:47.013Z</time></trkpt><trkpt lat="43.6171683" lon="10.98442"><ele>129.0</ele><time>2026-04-04T14:59:48.012Z</time></trkpt><trkpt lat="43.61726" lon="10.9844617"><ele>127.33333333333334</ele><time>2026-04-04T14:59:50.012Z</time></trkpt><trkpt lat="43.6173267" lon="10.9844917"><ele>125.66666666666667</ele><time>2026-04-04T14:59:52.011Z</time></trkpt><trkpt lat="43.61742" lon="10.984515"><ele>124.0</ele><time>2026-04-04T14:59:54.013Z</time></trkpt><trkpt lat="43.6175333" lon="10.9845533"><ele>124.0</ele><time>2026-04-04T14:59:56.013Z</time></trkpt><trkpt lat="43.6176333" lon="10.98458"><ele>124.0</ele><time>2026-04-04T15:00:22.01Z</time></trkpt><trkpt lat="43.6177117" lon="10.9845967"><ele>124.0</ele><time>2026-04-04T15:00:23.012Z</time></trkpt><trkpt lat="43.617815" lon="10.9846267"><ele>124.0</ele><time>2026-04-04T15:00:24.01Z</time></trkpt><trkpt lat="43.6179367" lon="10.9846717"><ele>124.0</ele><time>2026-04-04T15:00:25.012Z</time></trkpt><trkpt lat="43.6180717" lon="10.984725"><ele>123.66666666666667</ele><time>2026-04-04T15:00:26.012Z</time></trkpt><trkpt lat="43.6182083" lon="10.984795"><ele>123.33333333333334</ele><time>2026-04-04T15:00:27.012Z</time></trkpt><trkpt lat="43.6183517" lon="10.9848883"><ele>123.0</ele><time>2026-04-04T15:00:28.012Z</time></trkpt><trkpt lat="43.6185" lon="10.9850067"><ele>121.33333333333334</ele><time>2026-04-04T15:00:29.012Z</time></trkpt><trkpt lat="43.618655" lon="10.98515"><ele>119.66666666666667</ele><time>2026-04-04T15:00:30.013Z</time></trkpt><trkpt lat="43.61882" lon="10.9852983"><ele>118.0</ele><time>2026-04-04T15:00:31.011Z</time></trkpt><trkpt lat="43.6189967" lon="10.985445"><ele>118.0</ele><time>2026-04-04T15:00:32.012Z</time></trkpt><trkpt lat="43.61918" lon="10.98559"><ele>118.0</ele><time>2026-04-04T15:00:33.013Z</time></trkpt><trkpt lat="43.6193633" lon="10.985755"><ele>118.0</ele><time>2026-04-04T15:00:34.012Z</time></trkpt><trkpt lat="43.6195417" lon="10.98594"><ele>119.0</ele><time>2026-04-04T15:00:35.011Z</time></trkpt><trkpt lat="43.6197133" lon="10.9861583"><ele>120.0</ele><time>2026-04-04T15:00:36.012Z</time></trkpt><trkpt lat="43.6198767" lon="10.986395"><ele>120.0</ele><time>2026-04-04T15:00:37.012Z</time></trkpt><trkpt lat="43.62004" lon="10.9866483"><ele>120.0</ele><time>2026-04-04T15:00:38.013Z</time></trkpt><trkpt lat="43.6202017" lon="10.9868983"><ele>121.0</ele><time>2026-04-04T15:00:39.026Z</time></trkpt><trkpt lat="43.6203633" lon="10.987155"><ele>122.0</ele><time>2026-04-04T15:00:40.013Z</time></trkpt><trkpt lat="43.620525" lon="10.9874167"><ele>123.5</ele><time>2026-04-04T15:00:41.013Z</time></trkpt><trkpt lat="43.62069" lon="10.98767"><ele>125.0</ele><time>2026-04-04T15:00:42.012Z</time></trkpt><trkpt lat="43.6208667" lon="10.9878933"><ele>125.0</ele><time>2026-04-04T15:00:43.012Z</time></trkpt><trkpt lat="43.6210633" lon="10.9880733"><ele>125.0</ele><time>2026-04-04T15:00:44.014Z</time></trkpt><trkpt lat="43.6212933" lon="10.9882067"><ele>122.5</ele><time>2026-04-04T15:00:45.011Z</time></trkpt><trkpt lat="43.6215517" lon="10.98828"><ele>120.0</ele><time>2026-04-04T15:00:46.011Z</time></trkpt><trkpt lat="43.6218217" lon="10.9883083"><ele>120.0</ele><time>2026-04-04T15:00:47.013Z</time></trkpt><trkpt lat="43.6221" lon="10.988325"><ele>120.0</ele><time>2026-04-04T15:00:48.011Z</time></trkpt><trkpt lat="43.6223717" lon="10.9883517"><ele>120.5</ele><time>2026-04-04T15:00:49.012Z</time></trkpt><trkpt lat="43.6226283" lon="10.988375"><ele>121.0</ele><time>2026-04-04T15:00:50.011Z</time></trkpt><trkpt lat="43.6228767" lon="10.9884017"><ele>117.5</ele><time>2026-04-04T15:00:51.013Z</time></trkpt><trkpt lat="43.6231167" lon="10.9884217"><ele>114.0</ele><time>2026-04-04T15:00:52.01Z</time></trkpt><trkpt lat="43.6233483" lon="10.9884517"><ele>114.0</ele><time>2026-04-04T15:00:53.013Z</time></trkpt><trkpt lat="43.6235683" lon="10.9885367"><ele>114.0</ele><time>2026-04-04T15:00:54.01Z</time></trkpt><trkpt lat="43.6237733" lon="10.9886883"><ele>114.5</ele><time>2026-04-04T15:00:55.01Z</time></trkpt><trkpt lat="43.6239567" lon="10.9889083"><ele>115.0</ele><time>2026-04-04T15:00:56.012Z</time></trkpt><trkpt lat="43.6241267" lon="10.9891583"><ele>115.0</ele><time>2026-04-04T15:00:57.012Z</time></trkpt><trkpt lat="43.6243017" lon="10.98938"><ele>115.0</ele><time>2026-04-04T15:00:58.012Z</time></trkpt><trkpt lat="43.6244883" lon="10.98956"><ele>117.33333333333334</ele><time>2026-04-04T15:00:59.012Z</time></trkpt><trkpt lat="43.6246833" lon="10.9897117"><ele>119.66666666666666</ele><time>2026-04-04T15:01:00.012Z</time></trkpt><trkpt lat="43.6248883" lon="10.9898383"><ele>122.0</ele><time>2026-04-04T15:01:01.011Z</time></trkpt><trkpt lat="43.625115" lon="10.9899133"><ele>122.0</ele><time>2026-04-04T15:01:02.011Z</time></trkpt><trkpt lat="43.6253483" lon="10.9899333"><ele>122.0</ele><time>2026-04-04T15:01:03.011Z</time></trkpt><trkpt lat="43.6255883" lon="10.9899217"><ele>122.0</ele><time>2026-04-04T15:01:04.011Z</time></trkpt><trkpt lat="43.625835" lon="10.9899033"><ele>122.0</ele><time>2026-04-04T15:01:05.011Z</time></trkpt><trkpt lat="43.6260733" lon="10.98989"><ele>123.0</ele><time>2026-04-04T15:01:06.013Z</time></trkpt><trkpt lat="43.6262983" lon="10.989885"><ele>124.0</ele><time>2026-04-04T15:01:07.013Z</time></trkpt><trkpt lat="43.626515" lon="10.9899067"><ele>125.0</ele><time>2026-04-04T15:01:08.013Z</time></trkpt><trkpt lat="43.626725" lon="10.989975"><ele>126.66666666666666</ele><time>2026-04-04T15:01:09.012Z</time></trkpt><trkpt lat="43.6269267" lon="10.9900933"><ele>128.33333333333334</ele><time>2026-04-04T15:01:10.012Z</time></trkpt><trkpt lat="43.6271233" lon="10.99024"><ele>130.0</ele><time>2026-04-04T15:01:11.013Z</time></trkpt><trkpt lat="43.6273217" lon="10.99039"><ele>130.0</ele><time>2026-04-04T15:01:12.012Z</time></trkpt><trkpt lat="43.6275117" lon="10.990545"><ele>130.0</ele><time>2026-04-04T15:01:13.01Z</time></trkpt><trkpt lat="43.62768" lon="10.99071"><ele>130.0</ele><time>2026-04-04T15:01:14.012Z</time></trkpt><trkpt lat="43.6278217" lon="10.9909083"><ele>132.0</ele><time>2026-04-04T15:01:15.014Z</time></trkpt><trkpt lat="43.627935" lon="10.9911417"><ele>134.0</ele><time>2026-04-04T15:01:16.012Z</time></trkpt><trkpt lat="43.6280217" lon="10.9914167"><ele>136.0</ele><time>2026-04-04T15:01:17.01Z</time></trkpt><trkpt lat="43.6280833" lon="10.9917167"><ele>137.0</ele><time>2026-04-04T15:01:18.01Z</time></trkpt><trkpt lat="43.6281383" lon="10.9920283"><ele>138.0</ele><time>2026-04-04T15:01:19.011Z</time></trkpt><trkpt lat="43.6282" lon="10.9923517"><ele>139.0</ele><time>2026-04-04T15:01:20.011Z</time></trkpt><trkpt lat="43.628255" lon="10.9926767"><ele>140.0</ele><time>2026-04-04T15:01:21.013Z</time></trkpt><trkpt lat="43.6283133" lon="10.993005"><ele>140.0</ele><time>2026-04-04T15:01:22.012Z</time></trkpt><trkpt lat="43.62838" lon="10.993335"><ele>140.0</ele><time>2026-04-04T15:01:23.013Z</time></trkpt><trkpt lat="43.6284633" lon="10.9936517"><ele>142.5</ele><time>2026-04-04T15:01:24.011Z</time></trkpt><trkpt lat="43.6285733" lon="10.9939433"><ele>145.0</ele><time>2026-04-04T15:01:25.011Z</time></trkpt><trkpt lat="43.6286983" lon="10.9942217"><ele>145.0</ele><time>2026-04-04T15:01:26.011Z</time></trkpt><trkpt lat="43.6288283" lon="10.994485"><ele>145.0</ele><time>2026-04-04T15:01:27.012Z</time></trkpt><trkpt lat="43.62896" lon="10.9947433"><ele>145.0</ele><time>2026-04-04T15:01:28.011Z</time></trkpt><trkpt lat="43.62909" lon="10.9949967"><ele>145.0</ele><time>2026-04-04T15:01:29.012Z</time></trkpt><trkpt lat="43.6292317" lon="10.9952367"><ele>145.0</ele><time>2026-04-04T15:01:30.01Z</time></trkpt><trkpt lat="43.62938" lon="10.9954667"><ele>145.5</ele><time>2026-04-04T15:01:31.012Z</time></trkpt><trkpt lat="43.629545" lon="10.995695"><ele>146.0</ele><time>2026-04-04T15:01:32.01Z</time></trkpt><trkpt lat="43.62972" lon="10.995925"><ele>143.5</ele><time>2026-04-04T15:01:33.012Z</time></trkpt><trkpt lat="43.629895" lon="10.99616"><ele>141.0</ele><time>2026-04-04T15:01:34.011Z</time></trkpt><trkpt lat="43.6300783" lon="10.9963933"><ele>141.0</ele><time>2026-04-04T15:01:35.013Z</time></trkpt><trkpt lat="43.63026" lon="10.9966267"><ele>141.0</ele><time>2026-04-04T15:01:36.012Z</time></trkpt><trkpt lat="43.6304383" lon="10.9968567"><ele>142.0</ele><time>2026-04-04T15:01:37.013Z</time></trkpt><trkpt lat="43.63061" lon="10.9970933"><ele>143.0</ele><time>2026-04-04T15:01:38.011Z</time></trkpt><trkpt lat="43.63075" lon="10.9973567"><ele>143.5</ele><time>2026-04-04T15:01:39.012Z</time></trkpt><trkpt lat="43.6308583" lon="10.997655"><ele>144.0</ele><time>2026-04-04T15:01:40.012Z</time></trkpt><trkpt lat="43.6309533" lon="10.9979633"><ele>144.0</ele><time>2026-04-04T15:01:41.012Z</time></trkpt><trkpt lat="43.6310483" lon="10.9982617"><ele>144.0</ele><time>2026-04-04T15:01:42.011Z</time></trkpt><trkpt lat="43.63114" lon="10.9985533"><ele>146.5</ele><time>2026-04-04T15:01:43.013Z</time></trkpt><trkpt lat="43.6312333" lon="10.9988383"><ele>149.0</ele><time>2026-04-04T15:01:44.012Z</time></trkpt><trkpt lat="43.6313283" lon="10.9991233"><ele>148.0</ele><time>2026-04-04T15:01:45.012Z</time></trkpt><trkpt lat="43.631445" lon="10.9993967"><ele>147.0</ele><time>2026-04-04T15:01:46.011Z</time></trkpt><trkpt lat="43.6315733" lon="10.9996683"><ele>147.0</ele><time>2026-04-04T15:01:47.013Z</time></trkpt><trkpt lat="43.631715" lon="10.9999367"><ele>147.0</ele><time>2026-04-04T15:01:48.011Z</time></trkpt><trkpt lat="43.631865" lon="11.0001967"><ele>149.0</ele><time>2026-04-04T15:01:49.012Z</time></trkpt><trkpt lat="43.63202" lon="11.0004567"><ele>151.0</ele><time>2026-04-04T15:01:50.012Z</time></trkpt><trkpt lat="43.6321667" lon="11.0007183"><ele>153.0</ele><time>2026-04-04T15:01:51.012Z</time></trkpt><trkpt lat="43.6323183" lon="11.000985"><ele>155.0</ele><time>2026-04-04T15:01:52.012Z</time></trkpt><trkpt lat="43.6324667" lon="11.0012483"><ele>155.0</ele><time>2026-04-04T15:01:53.012Z</time></trkpt><trkpt lat="43.6326133" lon="11.001505"><ele>155.0</ele><time>2026-04-04T15:01:54.012Z</time></trkpt><trkpt lat="43.6327567" lon="11.0017567"><ele>160.5</ele><time>2026-04-04T15:01:55.013Z</time></trkpt><trkpt lat="43.6329" lon="11.0020033"><ele>166.0</ele><time>2026-04-04T15:01:56.013Z</time></trkpt><trkpt lat="43.6330417" lon="11.002245"><ele>166.0</ele><time>2026-04-04T15:01:57.012Z</time></trkpt><trkpt lat="43.6331767" lon="11.0024883"><ele>166.0</ele><time>2026-04-04T15:01:58.013Z</time></trkpt><trkpt lat="43.6332967" lon="11.0027283"><ele>166.0</ele><time>2026-04-04T15:01:59.01Z</time></trkpt><trkpt lat="43.6333933" lon="11.002975"><ele>165.33333333333334</ele><time>2026-04-04T15:02:00.012Z</time></trkpt><trkpt lat="43.6334633" lon="11.00323"><ele>164.66666666666666</ele><time>2026-04-04T15:02:01.012Z</time></trkpt><trkpt lat="43.6335033" lon="11.00349"><ele>164.0</ele><time>2026-04-04T15:02:02.012Z</time></trkpt><trkpt lat="43.6335333" lon="11.00375"><ele>164.0</ele><time>2026-04-04T15:02:03.013Z</time></trkpt><trkpt lat="43.633525" lon="11.00401"><ele>164.0</ele><time>2026-04-04T15:02:04.012Z</time></trkpt><trkpt lat="43.6335" lon="11.0042583"><ele>164.0</ele><time>2026-04-04T15:02:05.012Z</time></trkpt><trkpt lat="43.6334967" lon="11.004505"><ele>164.66666666666666</ele><time>2026-04-04T15:02:06.011Z</time></trkpt><trkpt lat="43.63352" lon="11.004745"><ele>165.33333333333334</ele><time>2026-04-04T15:02:07.013Z</time></trkpt><trkpt lat="43.633575" lon="11.004985"><ele>166.0</ele><time>2026-04-04T15:02:08.013Z</time></trkpt><trkpt lat="43.6336667" lon="11.005225"><ele>167.33333333333334</ele><time>2026-04-04T15:02:09.012Z</time></trkpt><trkpt lat="43.6337783" lon="11.0054367"><ele>168.66666666666666</ele><time>2026-04-04T15:02:10.012Z</time></trkpt><trkpt lat="43.6339033" lon="11.00561"><ele>170.0</ele><time>2026-04-04T15:02:11.013Z</time></trkpt><trkpt lat="43.63406" lon="11.00574"><ele>170.0</ele><time>2026-04-04T15:02:12.013Z</time></trkpt><trkpt lat="43.634255" lon="11.00582"><ele>170.0</ele><time>2026-04-04T15:02:13.012Z</time></trkpt><trkpt lat="43.6344583" lon="11.005855"><ele>170.0</ele><time>2026-04-04T15:02:14.013Z</time></trkpt><trkpt lat="43.6346583" lon="11.0058833"><ele>167.66666666666666</ele><time>2026-04-04T15:02:15.011Z</time></trkpt><trkpt lat="43.634875" lon="11.0059283"><ele>165.33333333333334</ele><time>2026-04-04T15:02:16.013Z</time></trkpt><trkpt lat="43.6350833" lon="11.0060117"><ele>163.0</ele><time>2026-04-04T15:02:17.012Z</time></trkpt><trkpt lat="43.6352833" lon="11.006125"><ele>158.66666666666669</ele><time>2026-04-04T15:02:18.012Z</time></trkpt><trkpt lat="43.6354733" lon="11.006265"><ele>154.33333333333334</ele><time>2026-04-04T15:02:19.013Z</time></trkpt><trkpt lat="43.635645" lon="11.0064367"><ele>150.0</ele><time>2026-04-04T15:02:20.013Z</time></trkpt><trkpt lat="43.6358067" lon="11.0066517"><ele>149.5</ele><time>2026-04-04T15:02:21.013Z</time></trkpt><trkpt lat="43.6359517" lon="11.0068917"><ele>149.0</ele><time>2026-04-04T15:02:22.012Z</time></trkpt><trkpt lat="43.6360883" lon="11.00715"><ele>145.0</ele><time>2026-04-04T15:02:23.01Z</time></trkpt><trkpt lat="43.636225" lon="11.0074117"><ele>141.0</ele><time>2026-04-04T15:02:24.012Z</time></trkpt><trkpt lat="43.6363717" lon="11.00766"><ele>141.0</ele><time>2026-04-04T15:02:25.012Z</time></trkpt><trkpt lat="43.6365267" lon="11.0078983"><ele>141.0</ele><time>2026-04-04T15:02:26.012Z</time></trkpt><trkpt lat="43.636695" lon="11.0081217"><ele>140.5</ele><time>2026-04-04T15:02:27.012Z</time></trkpt><trkpt lat="43.6368667" lon="11.00833"><ele>140.0</ele><time>2026-04-04T15:02:28.012Z</time></trkpt><trkpt lat="43.63705" lon="11.0085383"><ele>140.0</ele><time>2026-04-04T15:02:29.01Z</time></trkpt><trkpt lat="43.6372367" lon="11.00874"><ele>140.0</ele><time>2026-04-04T15:02:30.012Z</time></trkpt><trkpt lat="43.6374267" lon="11.0089367"><ele>140.0</ele><time>2026-04-04T15:02:31.012Z</time></trkpt><trkpt lat="43.637615" lon="11.0091267"><ele>140.0</ele><time>2026-04-04T15:02:32.012Z</time></trkpt><trkpt lat="43.6377983" lon="11.0093233"><ele>147.5</ele><time>2026-04-04T15:02:33.013Z</time></trkpt><trkpt lat="43.6379833" lon="11.0095217"><ele>155.0</ele><time>2026-04-04T15:02:34.012Z</time></trkpt><trkpt lat="43.638165" lon="11.00972"><ele>155.0</ele><time>2026-04-04T15:02:35.011Z</time></trkpt><trkpt lat="43.638335" lon="11.0099317"><ele>155.0</ele><time>2026-04-04T15:02:36.012Z</time></trkpt><trkpt lat="43.638485" lon="11.01017"><ele>154.0</ele><time>2026-04-04T15:02:37.011Z</time></trkpt><trkpt lat="43.6385967" lon="11.0104383"><ele>153.0</ele><time>2026-04-04T15:02:38.012Z</time></trkpt><trkpt lat="43.6386783" lon="11.01073"><ele>159.5</ele><time>2026-04-04T15:02:39.011Z</time></trkpt><trkpt lat="43.63873" lon="11.01104"><ele>166.0</ele><time>2026-04-04T15:02:40.012Z</time></trkpt><trkpt lat="43.63876" lon="11.01136"><ele>166.5</ele><time>2026-04-04T15:02:41.012Z</time></trkpt><trkpt lat="43.6387767" lon="11.0116917"><ele>167.0</ele><time>2026-04-04T15:02:42.012Z</time></trkpt><trkpt lat="43.6387833" lon="11.01202"><ele>167.0</ele><time>2026-04-04T15:02:43.011Z</time></trkpt><trkpt lat="43.6387917" lon="11.0123317"><ele>167.0</ele><time>2026-04-04T15:02:44.013Z</time></trkpt><trkpt lat="43.6388033" lon="11.01263"><ele>167.0</ele><time>2026-04-04T15:02:45.013Z</time></trkpt><trkpt lat="43.638805" lon="11.0129133"><ele>167.33333333333331</ele><time>2026-04-04T15:02:46.013Z</time></trkpt><trkpt lat="43.6387817" lon="11.0131817"><ele>167.66666666666666</ele><time>2026-04-04T15:02:47.013Z</time></trkpt><trkpt lat="43.6387217" lon="11.0134333"><ele>168.0</ele><time>2026-04-04T15:02:48.012Z</time></trkpt><trkpt lat="43.6386283" lon="11.0136683"><ele>163.0</ele><time>2026-04-04T15:02:49.011Z</time></trkpt><trkpt lat="43.6384983" lon="11.013875"><ele>158.0</ele><time>2026-04-04T15:02:50.011Z</time></trkpt><trkpt lat="43.6383317" lon="11.0140467"><ele>153.0</ele><time>2026-04-04T15:02:51.013Z</time></trkpt><trkpt lat="43.638135" lon="11.0141783"><ele>153.0</ele><time>2026-04-04T15:02:52.011Z</time></trkpt><trkpt lat="43.6379167" lon="11.0142683"><ele>153.0</ele><time>2026-04-04T15:02:53.011Z</time></trkpt><trkpt lat="43.6376917" lon="11.014335"><ele>150.5</ele><time>2026-04-04T15:02:54.012Z</time></trkpt><trkpt lat="43.637465" lon="11.0143983"><ele>148.0</ele><time>2026-04-04T15:02:55.013Z</time></trkpt><trkpt lat="43.6372483" lon="11.0144683"><ele>148.0</ele><time>2026-04-04T15:02:56.012Z</time></trkpt><trkpt lat="43.6370483" lon="11.0145633"><ele>148.0</ele><time>2026-04-04T15:02:57.012Z</time></trkpt><trkpt lat="43.63687" lon="11.0147033"><ele>148.0</ele><time>2026-04-04T15:02:58.013Z</time></trkpt><trkpt lat="43.636715" lon="11.0148883"><ele>150.0</ele><time>2026-04-04T15:02:59.011Z</time></trkpt><trkpt lat="43.6365867" lon="11.0150933"><ele>152.0</ele><time>2026-04-04T15:03:00.011Z</time></trkpt><trkpt lat="43.6364983" lon="11.0153117"><ele>154.0</ele><time>2026-04-04T15:03:01.012Z</time></trkpt><trkpt lat="43.6364283" lon="11.0155117"><ele>154.0</ele><time>2026-04-04T15:03:02.012Z</time></trkpt><trkpt lat="43.6363517" lon="11.0156933"><ele>154.0</ele><time>2026-04-04T15:03:03.012Z</time></trkpt><trkpt lat="43.636255" lon="11.015855"><ele>154.0</ele><time>2026-04-04T15:03:04.013Z</time></trkpt><trkpt lat="43.636145" lon="11.015995"><ele>157.0</ele><time>2026-04-04T15:03:05.014Z</time></trkpt><trkpt lat="43.63601" lon="11.01611"><ele>160.0</ele><time>2026-04-04T15:03:06.012Z</time></trkpt><trkpt lat="43.6358683" lon="11.0162233"><ele>163.0</ele><time>2026-04-04T15:03:07.013Z</time></trkpt><trkpt lat="43.635725" lon="11.016345"><ele>163.0</ele><time>2026-04-04T15:03:08.014Z</time></trkpt><trkpt lat="43.6355917" lon="11.0164833"><ele>163.0</ele><time>2026-04-04T15:03:09.012Z</time></trkpt><trkpt lat="43.635475" lon="11.0166283"><ele>163.0</ele><time>2026-04-04T15:03:10.013Z</time></trkpt><trkpt lat="43.6353667" lon="11.0167783"><ele>162.25</ele><time>2026-04-04T15:03:11.011Z</time></trkpt><trkpt lat="43.635275" lon="11.0169433"><ele>161.5</ele><time>2026-04-04T15:03:12.013Z</time></trkpt><trkpt lat="43.635205" lon="11.0171233"><ele>160.75</ele><time>2026-04-04T15:03:13.011Z</time></trkpt><trkpt lat="43.6351567" lon="11.01732"><ele>160.0</ele><time>2026-04-04T15:03:14.012Z</time></trkpt><trkpt lat="43.6351367" lon="11.0175317"><ele>160.0</ele><time>2026-04-04T15:03:15.011Z</time></trkpt><trkpt lat="43.6351317" lon="11.01775"><ele>160.0</ele><time>2026-04-04T15:03:16.012Z</time></trkpt><trkpt lat="43.6351267" lon="11.0179617"><ele>160.0</ele><time>2026-04-04T15:03:17.012Z</time></trkpt><trkpt lat="43.63512" lon="11.0181617"><ele>160.5</ele><time>2026-04-04T15:03:18.012Z</time></trkpt><trkpt lat="43.6351017" lon="11.0183467"><ele>161.0</ele><time>2026-04-04T15:03:19.011Z</time></trkpt><trkpt lat="43.63508" lon="11.0185217"><ele>161.5</ele><time>2026-04-04T15:03:20.011Z</time></trkpt><trkpt lat="43.6350583" lon="11.0186983"><ele>162.0</ele><time>2026-04-04T15:03:21.013Z</time></trkpt><trkpt lat="43.6350417" lon="11.0188883"><ele>162.0</ele><time>2026-04-04T15:03:22.011Z</time></trkpt><trkpt lat="43.6350383" lon="11.019085"><ele>162.0</ele><time>2026-04-04T15:03:23.013Z</time></trkpt><trkpt lat="43.6350417" lon="11.0192883"><ele>162.0</ele><time>2026-04-04T15:03:24.012Z</time></trkpt><trkpt lat="43.6350517" lon="11.0194833"><ele>162.0</ele><time>2026-04-04T15:03:25.013Z</time></trkpt><trkpt lat="43.6350617" lon="11.0196733"><ele>162.25</ele><time>2026-04-04T15:03:26.012Z</time></trkpt><trkpt lat="43.6350733" lon="11.01987"><ele>162.5</ele><time>2026-04-04T15:03:27.011Z</time></trkpt><trkpt lat="43.63508" lon="11.020075"><ele>162.75</ele><time>2026-04-04T15:03:28.012Z</time></trkpt><trkpt lat="43.635085" lon="11.0202833"><ele>163.0</ele><time>2026-04-04T15:03:29.012Z</time></trkpt><trkpt lat="43.6350883" lon="11.020495"><ele>162.33333333333334</ele><time>2026-04-04T15:03:30.012Z</time></trkpt><trkpt lat="43.6350933" lon="11.0207133"><ele>161.66666666666666</ele><time>2026-04-04T15:03:31.012Z</time></trkpt><trkpt lat="43.6350967" lon="11.0209317"><ele>161.0</ele><time>2026-04-04T15:03:32.013Z</time></trkpt><trkpt lat="43.6350967" lon="11.0211467"><ele>159.33333333333331</ele><time>2026-04-04T15:03:33.013Z</time></trkpt><trkpt lat="43.6351" lon="11.02136"><ele>157.66666666666666</ele><time>2026-04-04T15:03:34.011Z</time></trkpt><trkpt lat="43.6351033" lon="11.0215733"><ele>156.0</ele><time>2026-04-04T15:03:35.013Z</time></trkpt><trkpt lat="43.6351317" lon="11.0217833"><ele>154.0</ele><time>2026-04-04T15:03:36.013Z</time></trkpt><trkpt lat="43.6351683" lon="11.0219867"><ele>152.0</ele><time>2026-04-04T15:03:37.012Z</time></trkpt><trkpt lat="43.6352283" lon="11.022185"><ele>150.0</ele><time>2026-04-04T15:03:38.012Z</time></trkpt><trkpt lat="43.6352983" lon="11.022375"><ele>148.0</ele><time>2026-04-04T15:03:39.012Z</time></trkpt><trkpt lat="43.635375" lon="11.0225617"><ele>146.0</ele><time>2026-04-04T15:03:40.013Z</time></trkpt><trkpt lat="43.6354567" lon="11.02274"><ele>144.0</ele><time>2026-04-04T15:03:41.012Z</time></trkpt><trkpt lat="43.63555" lon="11.022915"><ele>144.0</ele><time>2026-04-04T15:03:42.013Z</time></trkpt><trkpt lat="43.6356517" lon="11.0230833"><ele>144.0</ele><time>2026-04-04T15:03:43.011Z</time></trkpt><trkpt lat="43.63576" lon="11.0232433"><ele>144.0</ele><time>2026-04-04T15:03:44.012Z</time></trkpt><trkpt lat="43.635875" lon="11.0233983"><ele>144.0</ele><time>2026-04-04T15:03:45.012Z</time></trkpt><trkpt lat="43.6359967" lon="11.0235517"><ele>144.0</ele><time>2026-04-04T15:03:46.012Z</time></trkpt><trkpt lat="43.63612" lon="11.0237017"><ele>144.0</ele><time>2026-04-04T15:03:47.012Z</time></trkpt><trkpt lat="43.6362433" lon="11.023835"><ele>144.0</ele><time>2026-04-04T15:03:48.013Z</time></trkpt><trkpt lat="43.636365" lon="11.0239483"><ele>144.0</ele><time>2026-04-04T15:03:49.012Z</time></trkpt><trkpt lat="43.6364833" lon="11.024035"><ele>144.0</ele><time>2026-04-04T15:03:50.013Z</time></trkpt><trkpt lat="43.6366133" lon="11.0241017"><ele>144.0</ele><time>2026-04-04T15:03:51.013Z</time></trkpt><trkpt lat="43.6367517" lon="11.0241717"><ele>144.66666666666666</ele><time>2026-04-04T15:03:52.011Z</time></trkpt><trkpt lat="43.6368983" lon="11.02425"><ele>145.33333333333331</ele><time>2026-04-04T15:03:53.012Z</time></trkpt><trkpt lat="43.6370517" lon="11.02435"><ele>146.0</ele><time>2026-04-04T15:03:54.012Z</time></trkpt><trkpt lat="43.637195" lon="11.0244783"><ele>146.0</ele><time>2026-04-04T15:03:55.01Z</time></trkpt><trkpt lat="43.6373317" lon="11.024635"><ele>146.0</ele><time>2026-04-04T15:03:56.012Z</time></trkpt><trkpt lat="43.63745" lon="11.0248"><ele>146.0</ele><time>2026-04-04T15:03:57.012Z</time></trkpt><trkpt lat="43.6375533" lon="11.0249783"><ele>145.66666666666666</ele><time>2026-04-04T15:03:58.013Z</time></trkpt><trkpt lat="43.6376433" lon="11.02516"><ele>145.33333333333334</ele><time>2026-04-04T15:03:59.012Z</time></trkpt><trkpt lat="43.63773" lon="11.0253367"><ele>145.0</ele><time>2026-04-04T15:04:00.012Z</time></trkpt><trkpt lat="43.63781" lon="11.0255117"><ele>144.0</ele><time>2026-04-04T15:04:01.012Z</time></trkpt><trkpt lat="43.637895" lon="11.0256883"><ele>143.0</ele><time>2026-04-04T15:04:02.012Z</time></trkpt><trkpt lat="43.6379767" lon="11.0258633"><ele>142.0</ele><time>2026-04-04T15:04:03.013Z</time></trkpt><trkpt lat="43.638065" lon="11.0260367"><ele>142.0</ele><time>2026-04-04T15:04:04.012Z</time></trkpt><trkpt lat="43.6381517" lon="11.02621"><ele>142.0</ele><time>2026-04-04T15:04:05.012Z</time></trkpt><trkpt lat="43.638235" lon="11.02638"><ele>142.0</ele><time>2026-04-04T15:04:06.012Z</time></trkpt><trkpt lat="43.63832" lon="11.02655"><ele>141.5</ele><time>2026-04-04T15:04:07.012Z</time></trkpt><trkpt lat="43.6384033" lon="11.0267183"><ele>141.0</ele><time>2026-04-04T15:04:08.012Z</time></trkpt><trkpt lat="43.6384883" lon="11.0268867"><ele>140.5</ele><time>2026-04-04T15:04:09.013Z</time></trkpt><trkpt lat="43.6385683" lon="11.027055"><ele>140.0</ele><time>2026-04-04T15:04:10.013Z</time></trkpt><trkpt lat="43.6386467" lon="11.0272133"><ele>140.0</ele><time>2026-04-04T15:04:11.012Z</time></trkpt><trkpt lat="43.63872" lon="11.0273567"><ele>140.0</ele><time>2026-04-04T15:04:12.013Z</time></trkpt><trkpt lat="43.638795" lon="11.0274883"><ele>140.0</ele><time>2026-04-04T15:04:13.012Z</time></trkpt><trkpt lat="43.6388683" lon="11.027625"><ele>140.0</ele><time>2026-04-04T15:04:14.012Z</time></trkpt><trkpt lat="43.638935" lon="11.0277767"><ele>142.25</ele><time>2026-04-04T15:04:15.012Z</time></trkpt><trkpt lat="43.6389917" lon="11.027945"><ele>144.5</ele><time>2026-04-04T15:04:16.013Z</time></trkpt><trkpt lat="43.6390533" lon="11.028125"><ele>146.75</ele><time>2026-04-04T15:04:17.012Z</time></trkpt><trkpt lat="43.6391233" lon="11.02831"><ele>149.0</ele><time>2026-04-04T15:04:18.012Z</time></trkpt><trkpt lat="43.6392" lon="11.028495"><ele>150.66666666666666</ele><time>2026-04-04T15:04:19.012Z</time></trkpt><trkpt lat="43.639275" lon="11.028685"><ele>152.33333333333334</ele><time>2026-04-04T15:04:20.012Z</time></trkpt><trkpt lat="43.639355" lon="11.0288817"><ele>154.0</ele><time>2026-04-04T15:04:21.012Z</time></trkpt><trkpt lat="43.6394333" lon="11.0290833"><ele>153.66666666666669</ele><time>2026-04-04T15:04:22.013Z</time></trkpt><trkpt lat="43.6395117" lon="11.0292917"><ele>153.33333333333334</ele><time>2026-04-04T15:04:23.012Z</time></trkpt><trkpt lat="43.6395917" lon="11.0295017"><ele>153.0</ele><time>2026-04-04T15:04:24.013Z</time></trkpt><trkpt lat="43.6396733" lon="11.0297133"><ele>153.0</ele><time>2026-04-04T15:04:25.012Z</time></trkpt><trkpt lat="43.6397533" lon="11.0299217"><ele>153.0</ele><time>2026-04-04T15:04:26.012Z</time></trkpt><trkpt lat="43.6398367" lon="11.0301367"><ele>153.0</ele><time>2026-04-04T15:04:27.013Z</time></trkpt><trkpt lat="43.63992" lon="11.0303567"><ele>154.33333333333334</ele><time>2026-04-04T15:04:28.012Z</time></trkpt><trkpt lat="43.640005" lon="11.0305833"><ele>155.66666666666669</ele><time>2026-04-04T15:04:29.013Z</time></trkpt><trkpt lat="43.6400917" lon="11.030815"><ele>157.0</ele><time>2026-04-04T15:04:30.012Z</time></trkpt><trkpt lat="43.64018" lon="11.0310433"><ele>160.0</ele><time>2026-04-04T15:04:31.012Z</time></trkpt><trkpt lat="43.64027" lon="11.03127"><ele>163.0</ele><time>2026-04-04T15:04:32.012Z</time></trkpt><trkpt lat="43.6403567" lon="11.0314867"><ele>166.0</ele><time>2026-04-04T15:04:33.012Z</time></trkpt><trkpt lat="43.6404433" lon="11.0317017"><ele>169.66666666666669</ele><time>2026-04-04T15:04:34.012Z</time></trkpt><trkpt lat="43.6405267" lon="11.0319217"><ele>173.33333333333334</ele><time>2026-04-04T15:04:35.012Z</time></trkpt><trkpt lat="43.64061" lon="11.0321483"><ele>177.0</ele><time>2026-04-04T15:04:36.013Z</time></trkpt><trkpt lat="43.640695" lon="11.032375"><ele>178.0</ele><time>2026-04-04T15:04:37.012Z</time></trkpt><trkpt lat="43.6407817" lon="11.032605"><ele>179.0</ele><time>2026-04-04T15:04:38.01Z</time></trkpt><trkpt lat="43.6408717" lon="11.0328367"><ele>180.0</ele><time>2026-04-04T15:04:39.012Z</time></trkpt><trkpt lat="43.640965" lon="11.0330717"><ele>181.0</ele><time>2026-04-04T15:04:40.013Z</time></trkpt><trkpt lat="43.64106" lon="11.03331"><ele>182.0</ele><time>2026-04-04T15:04:41.013Z</time></trkpt><trkpt lat="43.6411533" lon="11.0335517"><ele>183.0</ele><time>2026-04-04T15:04:42.011Z</time></trkpt><trkpt lat="43.641255" lon="11.0338017"><ele>184.33333333333334</ele><time>2026-04-04T15:04:43.012Z</time></trkpt><trkpt lat="43.6413617" lon="11.0340517"><ele>185.66666666666669</ele><time>2026-04-04T15:04:44.014Z</time></trkpt><trkpt lat="43.641475" lon="11.0343083"><ele>187.0</ele><time>2026-04-04T15:04:45.013Z</time></trkpt><trkpt lat="43.641595" lon="11.0345717"><ele>187.0</ele><time>2026-04-04T15:04:46.012Z</time></trkpt><trkpt lat="43.6417217" lon="11.0348333"><ele>187.0</ele><time>2026-04-04T15:04:47.011Z</time></trkpt><trkpt lat="43.6418483" lon="11.0350983"><ele>188.0</ele><time>2026-04-04T15:04:48.013Z</time></trkpt><trkpt lat="43.6419783" lon="11.0353667"><ele>189.0</ele><time>2026-04-04T15:04:49.012Z</time></trkpt><trkpt lat="43.64211" lon="11.0356367"><ele>187.5</ele><time>2026-04-04T15:04:50.012Z</time></trkpt><trkpt lat="43.642245" lon="11.03591"><ele>186.0</ele><time>2026-04-04T15:04:51.012Z</time></trkpt><trkpt lat="43.6423817" lon="11.0361867"><ele>186.0</ele><time>2026-04-04T15:04:52.012Z</time></trkpt><trkpt lat="43.6425133" lon="11.0364667"><ele>186.0</ele><time>2026-04-04T15:04:53.013Z</time></trkpt><trkpt lat="43.6426433" lon="11.0367467"><ele>187.0</ele><time>2026-04-04T15:04:54.012Z</time></trkpt><trkpt lat="43.64277" lon="11.0370283"><ele>188.0</ele><time>2026-04-04T15:04:55.012Z</time></trkpt><trkpt lat="43.6428983" lon="11.03731"><ele>185.5</ele><time>2026-04-04T15:04:56.012Z</time></trkpt><trkpt lat="43.6430317" lon="11.0375917"><ele>183.0</ele><time>2026-04-04T15:04:57.012Z</time></trkpt><trkpt lat="43.6431633" lon="11.03787"><ele>183.0</ele><time>2026-04-04T15:04:58.013Z</time></trkpt><trkpt lat="43.643285" lon="11.038145"><ele>183.0</ele><time>2026-04-04T15:04:59.012Z</time></trkpt><trkpt lat="43.6433917" lon="11.0384183"><ele>186.0</ele><time>2026-04-04T15:05:00.012Z</time></trkpt><trkpt lat="43.6434733" lon="11.038695"><ele>189.0</ele><time>2026-04-04T15:05:01.011Z</time></trkpt><trkpt lat="43.6435417" lon="11.038975"><ele>192.0</ele><time>2026-04-04T15:05:02.012Z</time></trkpt><trkpt lat="43.6436" lon="11.03925"><ele>189.33333333333334</ele><time>2026-04-04T15:05:03.012Z</time></trkpt><trkpt lat="43.643665" lon="11.0395133"><ele>186.66666666666669</ele><time>2026-04-04T15:05:04.012Z</time></trkpt><trkpt lat="43.6437583" lon="11.039755"><ele>184.0</ele><time>2026-04-04T15:05:05.012Z</time></trkpt><trkpt lat="43.6438917" lon="11.039975"><ele>184.0</ele><time>2026-04-04T15:05:06.013Z</time></trkpt><trkpt lat="43.644055" lon="11.040175"><ele>184.0</ele><time>2026-04-04T15:05:07.012Z</time></trkpt><trkpt lat="43.6442367" lon="11.04036"><ele>184.0</ele><time>2026-04-04T15:05:08.011Z</time></trkpt><trkpt lat="43.64442" lon="11.0405333"><ele>185.66666666666669</ele><time>2026-04-04T15:05:09.011Z</time></trkpt><trkpt lat="43.6445867" lon="11.04069"><ele>187.33333333333334</ele><time>2026-04-04T15:05:10.011Z</time></trkpt><trkpt lat="43.6447367" lon="11.0408317"><ele>189.0</ele><time>2026-04-04T15:05:11.012Z</time></trkpt><trkpt lat="43.6448683" lon="11.04098"><ele>189.0</ele><time>2026-04-04T15:05:12.013Z</time></trkpt><trkpt lat="43.644965" lon="11.04115"><ele>189.0</ele><time>2026-04-04T15:05:13.014Z</time></trkpt><trkpt lat="43.6450167" lon="11.04134"><ele>189.0</ele><time>2026-04-04T15:05:14.012Z</time></trkpt><trkpt lat="43.6450283" lon="11.0415567"><ele>190.33333333333331</ele><time>2026-04-04T15:05:15.012Z</time></trkpt><trkpt lat="43.6450117" lon="11.0418067"><ele>191.66666666666666</ele><time>2026-04-04T15:05:16.012Z</time></trkpt><trkpt lat="43.6449867" lon="11.04207"><ele>193.0</ele><time>2026-04-04T15:05:17.012Z</time></trkpt><trkpt lat="43.6449617" lon="11.0423333"><ele>193.66666666666666</ele><time>2026-04-04T15:05:18.014Z</time></trkpt><trkpt lat="43.64494" lon="11.042595"><ele>194.33333333333331</ele><time>2026-04-04T15:05:19.014Z</time></trkpt><trkpt lat="43.6449233" lon="11.0428433"><ele>195.0</ele><time>2026-04-04T15:05:20.013Z</time></trkpt><trkpt lat="43.644915" lon="11.0430867"><ele>194.33333333333331</ele><time>2026-04-04T15:05:21.012Z</time></trkpt><trkpt lat="43.64491" lon="11.0433367"><ele>193.66666666666666</ele><time>2026-04-04T15:05:22.012Z</time></trkpt><trkpt lat="43.644895" lon="11.0435983"><ele>193.0</ele><time>2026-04-04T15:05:23.012Z</time></trkpt><trkpt lat="43.64487" lon="11.0438683"><ele>192.66666666666666</ele><time>2026-04-04T15:05:24.012Z</time></trkpt><trkpt lat="43.6448383" lon="11.0441383"><ele>192.33333333333331</ele><time>2026-04-04T15:05:25.013Z</time></trkpt><trkpt lat="43.6448083" lon="11.0444033"><ele>192.0</ele><time>2026-04-04T15:05:26.011Z</time></trkpt><trkpt lat="43.6447767" lon="11.0446583"><ele>192.0</ele><time>2026-04-04T15:05:27.012Z</time></trkpt><trkpt lat="43.6447433" lon="11.0448933"><ele>192.0</ele><time>2026-04-04T15:05:28.011Z</time></trkpt><trkpt lat="43.644695" lon="11.0451067"><ele>192.0</ele><time>2026-04-04T15:05:29.01Z</time></trkpt><trkpt lat="43.6446267" lon="11.0453017"><ele>191.66666666666666</ele><time>2026-04-04T15:05:30.011Z</time></trkpt><trkpt lat="43.64455" lon="11.045485"><ele>191.33333333333331</ele><time>2026-04-04T15:05:31.01Z</time></trkpt><trkpt lat="43.64447" lon="11.0456683"><ele>191.0</ele><time>2026-04-04T15:05:32.01Z</time></trkpt><trkpt lat="43.6444083" lon="11.0458583"><ele>190.66666666666666</ele><time>2026-04-04T15:05:33.013Z</time></trkpt><trkpt lat="43.6443617" lon="11.0460583"><ele>190.33333333333334</ele><time>2026-04-04T15:05:34.012Z</time></trkpt><trkpt lat="43.6443217" lon="11.0462683"><ele>190.0</ele><time>2026-04-04T15:05:35.012Z</time></trkpt><trkpt lat="43.6442883" lon="11.0464767"><ele>192.33333333333334</ele><time>2026-04-04T15:05:36.01Z</time></trkpt><trkpt lat="43.6442567" lon="11.0466917"><ele>194.66666666666669</ele><time>2026-04-04T15:05:37.011Z</time></trkpt><trkpt lat="43.6442233" lon="11.04691"><ele>197.0</ele><time>2026-04-04T15:05:38.012Z</time></trkpt><trkpt lat="43.64419" lon="11.04713"><ele>197.0</ele><time>2026-04-04T15:05:39.012Z</time></trkpt><trkpt lat="43.6441467" lon="11.0473517"><ele>197.0</ele><time>2026-04-04T15:05:40.012Z</time></trkpt><trkpt lat="43.6440817" lon="11.047565"><ele>197.0</ele><time>2026-04-04T15:05:41.012Z</time></trkpt><trkpt lat="43.644005" lon="11.0477667"><ele>198.66666666666669</ele><time>2026-04-04T15:05:42.012Z</time></trkpt><trkpt lat="43.6439283" lon="11.0479567"><ele>200.33333333333331</ele><time>2026-04-04T15:05:43.012Z</time></trkpt><trkpt lat="43.6438517" lon="11.0481417"><ele>202.0</ele><time>2026-04-04T15:05:44.01Z</time></trkpt><trkpt lat="43.6437717" lon="11.04833"><ele>201.33333333333331</ele><time>2026-04-04T15:05:45.012Z</time></trkpt><trkpt lat="43.643705" lon="11.0485283"><ele>200.66666666666669</ele><time>2026-04-04T15:05:46.01Z</time></trkpt><trkpt lat="43.6436433" lon="11.0487367"><ele>200.0</ele><time>2026-04-04T15:05:47.009Z</time></trkpt><trkpt lat="43.6435833" lon="11.0489567"><ele>201.0</ele><time>2026-04-04T15:05:48.011Z</time></trkpt><trkpt lat="43.6435283" lon="11.0491817"><ele>202.0</ele><time>2026-04-04T15:05:49.013Z</time></trkpt><trkpt lat="43.6434917" lon="11.0494233"><ele>203.0</ele><time>2026-04-04T15:05:50.012Z</time></trkpt><trkpt lat="43.6434833" lon="11.0496833"><ele>203.0</ele><time>2026-04-04T15:05:51.012Z</time></trkpt><trkpt lat="43.6434883" lon="11.0499467"><ele>203.0</ele><time>2026-04-04T15:05:52.01Z</time></trkpt><trkpt lat="43.6435083" lon="11.0501933"><ele>203.0</ele><time>2026-04-04T15:05:53.01Z</time></trkpt><trkpt lat="43.6435467" lon="11.0504233"><ele>203.0</ele><time>2026-04-04T15:05:54.011Z</time></trkpt><trkpt lat="43.643615" lon="11.05064"><ele>203.0</ele><time>2026-04-04T15:05:55.012Z</time></trkpt><trkpt lat="43.6436967" lon="11.05085"><ele>203.0</ele><time>2026-04-04T15:05:56.012Z</time></trkpt><trkpt lat="43.64379" lon="11.0510617"><ele>205.33333333333334</ele><time>2026-04-04T15:05:57.01Z</time></trkpt><trkpt lat="43.64388" lon="11.0512817"><ele>207.66666666666669</ele><time>2026-04-04T15:05:58.011Z</time></trkpt><trkpt lat="43.643945" lon="11.0515167"><ele>210.0</ele><time>2026-04-04T15:05:59.012Z</time></trkpt><trkpt lat="43.643985" lon="11.051765"><ele>210.0</ele><time>2026-04-04T15:06:00.012Z</time></trkpt><trkpt lat="43.644015" lon="11.0520183"><ele>210.0</ele><time>2026-04-04T15:06:01.011Z</time></trkpt><trkpt lat="43.6440483" lon="11.0522717"><ele>210.0</ele><time>2026-04-04T15:06:02.01Z</time></trkpt><trkpt lat="43.6440933" lon="11.0525367"><ele>209.33333333333331</ele><time>2026-04-04T15:06:03.011Z</time></trkpt><trkpt lat="43.6441383" lon="11.052805"><ele>208.66666666666666</ele><time>2026-04-04T15:06:04.012Z</time></trkpt><trkpt lat="43.644185" lon="11.05307"><ele>208.0</ele><time>2026-04-04T15:06:05.013Z</time></trkpt><trkpt lat="43.6442267" lon="11.0533333"><ele>205.66666666666666</ele><time>2026-04-04T15:06:06.01Z</time></trkpt><trkpt lat="43.6442483" lon="11.0535967"><ele>203.33333333333331</ele><time>2026-04-04T15:06:07.01Z</time></trkpt><trkpt lat="43.644235" lon="11.05386"><ele>201.0</ele><time>2026-04-04T15:06:08.012Z</time></trkpt><trkpt lat="43.6442117" lon="11.05413"><ele>200.33333333333331</ele><time>2026-04-04T15:06:09.012Z</time></trkpt><trkpt lat="43.64416" lon="11.054405"><ele>199.66666666666666</ele><time>2026-04-04T15:06:10.012Z</time></trkpt><trkpt lat="43.6441117" lon="11.0546783"><ele>199.0</ele><time>2026-04-04T15:06:11.012Z</time></trkpt><trkpt lat="43.6440733" lon="11.0549633"><ele>200.33333333333331</ele><time>2026-04-04T15:06:12.012Z</time></trkpt><trkpt lat="43.644055" lon="11.0552533"><ele>201.66666666666669</ele><time>2026-04-04T15:06:13.012Z</time></trkpt><trkpt lat="43.6440567" lon="11.0555367"><ele>203.0</ele><time>2026-04-04T15:06:14.011Z</time></trkpt><trkpt lat="43.6440867" lon="11.0558133"><ele>204.66666666666669</ele><time>2026-04-04T15:06:15.012Z</time></trkpt><trkpt lat="43.6441367" lon="11.0560783"><ele>206.33333333333331</ele><time>2026-04-04T15:06:16.011Z</time></trkpt><trkpt lat="43.644195" lon="11.0563367"><ele>208.0</ele><time>2026-04-04T15:06:17.011Z</time></trkpt><trkpt lat="43.644255" lon="11.056595"><ele>210.33333333333331</ele><time>2026-04-04T15:06:18.011Z</time></trkpt><trkpt lat="43.6443133" lon="11.0568483"><ele>212.66666666666669</ele><time>2026-04-04T15:06:19.012Z</time></trkpt><trkpt lat="43.6443767" lon="11.0570983"><ele>215.0</ele><time>2026-04-04T15:06:20.012Z</time></trkpt><trkpt lat="43.6444383" lon="11.057345"><ele>213.0</ele><time>2026-04-04T15:06:21.013Z</time></trkpt><trkpt lat="43.6445" lon="11.0575833"><ele>211.0</ele><time>2026-04-04T15:06:22.011Z</time></trkpt><trkpt lat="43.6445617" lon="11.057815"><ele>209.0</ele><time>2026-04-04T15:06:23.011Z</time></trkpt><trkpt lat="43.64463" lon="11.0580317"><ele>209.0</ele><time>2026-04-04T15:06:24.011Z</time></trkpt><trkpt lat="43.6446933" lon="11.0582333"><ele>209.0</ele><time>2026-04-04T15:06:25.012Z</time></trkpt><trkpt lat="43.6447583" lon="11.058425"><ele>209.0</ele><time>2026-04-04T15:06:26.011Z</time></trkpt><trkpt lat="43.6448233" lon="11.0586117"><ele>210.75</ele><time>2026-04-04T15:06:27.013Z</time></trkpt><trkpt lat="43.6448867" lon="11.0587867"><ele>212.5</ele><time>2026-04-04T15:06:28.012Z</time></trkpt><trkpt lat="43.64495" lon="11.058955"><ele>214.25</ele><time>2026-04-04T15:06:29.01Z</time></trkpt><trkpt lat="43.645015" lon="11.059115"><ele>216.0</ele><time>2026-04-04T15:06:30.01Z</time></trkpt><trkpt lat="43.645075" lon="11.0592717"><ele>215.4</ele><time>2026-04-04T15:06:31.012Z</time></trkpt><trkpt lat="43.6451283" lon="11.0594117"><ele>214.8</ele><time>2026-04-04T15:06:32.012Z</time></trkpt><trkpt lat="43.6451767" lon="11.0595383"><ele>214.20000000000002</ele><time>2026-04-04T15:06:33.01Z</time></trkpt><trkpt lat="43.645225" lon="11.0596633"><ele>213.60000000000002</ele><time>2026-04-04T15:06:34.011Z</time></trkpt><trkpt lat="43.6452833" lon="11.0597983"><ele>213.0</ele><time>2026-04-04T15:06:35.012Z</time></trkpt><trkpt lat="43.645335" lon="11.059945"><ele>216.0</ele><time>2026-04-04T15:06:36.016Z</time></trkpt><trkpt lat="43.6453867" lon="11.0600967"><ele>219.0</ele><time>2026-04-04T15:06:37.011Z</time></trkpt><trkpt lat="43.6454467" lon="11.060255"><ele>222.0</ele><time>2026-04-04T15:06:38.012Z</time></trkpt><trkpt lat="43.645505" lon="11.060415"><ele>225.0</ele><time>2026-04-04T15:06:39.012Z</time></trkpt><trkpt lat="43.6455567" lon="11.0605717"><ele>225.0</ele><time>2026-04-04T15:06:40.011Z</time></trkpt><trkpt lat="43.645615" lon="11.06073"><ele>225.0</ele><time>2026-04-04T15:06:41.012Z</time></trkpt><trkpt lat="43.6456683" lon="11.0608867"><ele>225.0</ele><time>2026-04-04T15:06:42.011Z</time></trkpt><trkpt lat="43.6457183" lon="11.0610417"><ele>225.0</ele><time>2026-04-04T15:06:43.009Z</time></trkpt><trkpt lat="43.64577" lon="11.0611983"><ele>225.5</ele><time>2026-04-04T15:06:44.012Z</time></trkpt><trkpt lat="43.6458233" lon="11.0613633"><ele>226.0</ele><time>2026-04-04T15:06:45.011Z</time></trkpt><trkpt lat="43.64588" lon="11.061535"><ele>226.5</ele><time>2026-04-04T15:06:46.012Z</time></trkpt><trkpt lat="43.6459367" lon="11.0617083"><ele>227.0</ele><time>2026-04-04T15:06:47.011Z</time></trkpt><trkpt lat="43.6459967" lon="11.06188"><ele>227.0</ele><time>2026-04-04T15:06:48.012Z</time></trkpt><trkpt lat="43.6460533" lon="11.0620483"><ele>227.0</ele><time>2026-04-04T15:06:49.012Z</time></trkpt><trkpt lat="43.6461" lon="11.0622167"><ele>227.0</ele><time>2026-04-04T15:06:50.01Z</time></trkpt><trkpt lat="43.64612" lon="11.06239"><ele>227.0</ele><time>2026-04-04T15:06:51.012Z</time></trkpt><trkpt lat="43.6461167" lon="11.062575"><ele>227.25</ele><time>2026-04-04T15:06:52.009Z</time></trkpt><trkpt lat="43.6461" lon="11.0627567"><ele>227.5</ele><time>2026-04-04T15:06:53.011Z</time></trkpt><trkpt lat="43.64607" lon="11.06294"><ele>227.75</ele><time>2026-04-04T15:06:54.01Z</time></trkpt><trkpt lat="43.6460383" lon="11.063125"><ele>228.0</ele><time>2026-04-04T15:06:55.011Z</time></trkpt><trkpt lat="43.6460117" lon="11.0633083"><ele>228.0</ele><time>2026-04-04T15:06:56.012Z</time></trkpt><trkpt lat="43.6459817" lon="11.0634967"><ele>228.0</ele><time>2026-04-04T15:06:57.012Z</time></trkpt><trkpt lat="43.6459617" lon="11.0636883"><ele>228.0</ele><time>2026-04-04T15:06:58.012Z</time></trkpt><trkpt lat="43.6459417" lon="11.0638783"><ele>228.0</ele><time>2026-04-04T15:06:59.012Z</time></trkpt><trkpt lat="43.6459317" lon="11.0640533"><ele>228.8</ele><time>2026-04-04T15:07:00.014Z</time></trkpt><trkpt lat="43.645925" lon="11.0642117"><ele>229.60000000000002</ele><time>2026-04-04T15:07:01.012Z</time></trkpt><trkpt lat="43.645925" lon="11.0643533"><ele>230.39999999999998</ele><time>2026-04-04T15:07:02.011Z</time></trkpt><trkpt lat="43.645925" lon="11.06449"><ele>231.2</ele><time>2026-04-04T15:07:03.01Z</time></trkpt><trkpt lat="43.6459267" lon="11.064635"><ele>232.0</ele><time>2026-04-04T15:07:04.012Z</time></trkpt><trkpt lat="43.6459267" lon="11.0647867"><ele>232.0</ele><time>2026-04-04T15:07:05.011Z</time></trkpt><trkpt lat="43.6459267" lon="11.0649383"><ele>232.0</ele><time>2026-04-04T15:07:06.011Z</time></trkpt><trkpt lat="43.6459283" lon="11.0650883"><ele>232.0</ele><time>2026-04-04T15:07:07.012Z</time></trkpt><trkpt lat="43.64593" lon="11.0652317"><ele>232.0</ele><time>2026-04-04T15:07:08.011Z</time></trkpt><trkpt lat="43.6459317" lon="11.065375"><ele>232.0</ele><time>2026-04-04T15:07:09.012Z</time></trkpt><trkpt lat="43.64593" lon="11.0655267"><ele>232.25</ele><time>2026-04-04T15:07:10.011Z</time></trkpt><trkpt lat="43.64593" lon="11.065685"><ele>232.5</ele><time>2026-04-04T15:07:11.012Z</time></trkpt><trkpt lat="43.6459267" lon="11.06585"><ele>232.75</ele><time>2026-04-04T15:07:12.011Z</time></trkpt><trkpt lat="43.6459183" lon="11.0660133"><ele>233.0</ele><time>2026-04-04T15:07:13.011Z</time></trkpt><trkpt lat="43.6459017" lon="11.066165"><ele>233.2</ele><time>2026-04-04T15:07:14.011Z</time></trkpt><trkpt lat="43.6458833" lon="11.06631"><ele>233.4</ele><time>2026-04-04T15:07:15.012Z</time></trkpt><trkpt lat="43.645855" lon="11.0664417"><ele>233.59999999999997</ele><time>2026-04-04T15:07:16.012Z</time></trkpt><trkpt lat="43.6458183" lon="11.0665783"><ele>233.79999999999998</ele><time>2026-04-04T15:07:17.012Z</time></trkpt><trkpt lat="43.645775" lon="11.066715"><ele>234.0</ele><time>2026-04-04T15:07:18.011Z</time></trkpt><trkpt lat="43.6457267" lon="11.066855"><ele>234.0</ele><time>2026-04-04T15:07:19.012Z</time></trkpt><trkpt lat="43.6456717" lon="11.0669833"><ele>233.99999999999997</ele><time>2026-04-04T15:07:20.012Z</time></trkpt><trkpt lat="43.6456167" lon="11.0670983"><ele>233.99999999999997</ele><time>2026-04-04T15:07:21.012Z</time></trkpt><trkpt lat="43.6455583" lon="11.0672017"><ele>234.0</ele><time>2026-04-04T15:07:22.011Z</time></trkpt><trkpt lat="43.645505" lon="11.0673"><ele>234.0</ele><time>2026-04-04T15:07:23.012Z</time></trkpt><trkpt lat="43.6454533" lon="11.0674"><ele>233.0</ele><time>2026-04-04T15:07:24.012Z</time></trkpt><trkpt lat="43.6453933" lon="11.067505"><ele>231.99999999999997</ele><time>2026-04-04T15:07:25.012Z</time></trkpt><trkpt lat="43.6453317" lon="11.067615"><ele>230.99999999999997</ele><time>2026-04-04T15:07:26.012Z</time></trkpt><trkpt lat="43.6452717" lon="11.0677233"><ele>230.0</ele><time>2026-04-04T15:07:27.012Z</time></trkpt><trkpt lat="43.6452167" lon="11.0678317"><ele>229.0</ele><time>2026-04-04T15:07:28.009Z</time></trkpt><trkpt lat="43.6451633" lon="11.06795"><ele>229.0</ele><time>2026-04-04T15:07:29.01Z</time></trkpt><trkpt lat="43.6451033" lon="11.0680717"><ele>228.99999999999997</ele><time>2026-04-04T15:07:30.012Z</time></trkpt><trkpt lat="43.645045" lon="11.0682017"><ele>228.99999999999997</ele><time>2026-04-04T15:07:31.011Z</time></trkpt><trkpt lat="43.6449867" lon="11.0683267"><ele>229.0</ele><time>2026-04-04T15:07:32.012Z</time></trkpt><trkpt lat="43.6449433" lon="11.068445"><ele>229.0</ele><time>2026-04-04T15:07:33.012Z</time></trkpt><trkpt lat="43.6449067" lon="11.068555"><ele>229.0</ele><time>2026-04-04T15:07:34.012Z</time></trkpt><trkpt lat="43.6448767" lon="11.06867"><ele>228.99999999999997</ele><time>2026-04-04T15:07:35.011Z</time></trkpt><trkpt lat="43.64485" lon="11.068795"><ele>228.99999999999997</ele><time>2026-04-04T15:07:36.011Z</time></trkpt><trkpt lat="43.6448183" lon="11.06892"><ele>229.0</ele><time>2026-04-04T15:07:37.01Z</time></trkpt><trkpt lat="43.6447967" lon="11.0690467"><ele>229.0</ele><time>2026-04-04T15:07:38.011Z</time></trkpt><trkpt lat="43.6447767" lon="11.0691733"><ele>228.75</ele><time>2026-04-04T15:07:39.01Z</time></trkpt><trkpt lat="43.64476" lon="11.0693117"><ele>228.5</ele><time>2026-04-04T15:07:40.012Z</time></trkpt><trkpt lat="43.64474" lon="11.06947"><ele>228.25</ele><time>2026-04-04T15:07:41.012Z</time></trkpt><trkpt lat="43.6447133" lon="11.0696533"><ele>228.0</ele><time>2026-04-04T15:07:42.012Z</time></trkpt><trkpt lat="43.6446817" lon="11.06985"><ele>228.5</ele><time>2026-04-04T15:07:43.012Z</time></trkpt><trkpt lat="43.64464" lon="11.0700483"><ele>229.0</ele><time>2026-04-04T15:07:44.011Z</time></trkpt><trkpt lat="43.6445883" lon="11.070235"><ele>229.5</ele><time>2026-04-04T15:07:45.013Z</time></trkpt><trkpt lat="43.64454" lon="11.0704083"><ele>230.0</ele><time>2026-04-04T15:07:46.012Z</time></trkpt><trkpt lat="43.6445" lon="11.0705667"><ele>230.00000000000003</ele><time>2026-04-04T15:07:47.012Z</time></trkpt><trkpt lat="43.644465" lon="11.070705"><ele>230.0</ele><time>2026-04-04T15:07:48.012Z</time></trkpt><trkpt lat="43.6444267" lon="11.0708183"><ele>230.0</ele><time>2026-04-04T15:07:49.013Z</time></trkpt><trkpt lat="43.6444" lon="11.07092"><ele>230.0</ele><time>2026-04-04T15:07:50.012Z</time></trkpt><trkpt lat="43.6443817" lon="11.071015"><ele>230.00000000000003</ele><time>2026-04-04T15:07:51.012Z</time></trkpt><trkpt lat="43.6443867" lon="11.0711067"><ele>230.0</ele><time>2026-04-04T15:07:52.012Z</time></trkpt><trkpt lat="43.6444017" lon="11.0711967"><ele>230.25</ele><time>2026-04-04T15:07:53.011Z</time></trkpt><trkpt lat="43.6444967" lon="11.071325"><ele>230.5</ele><time>2026-04-04T15:07:55.011Z</time></trkpt><trkpt lat="43.6445917" lon="11.0714017"><ele>230.75</ele><time>2026-04-04T15:07:56.013Z</time></trkpt><trkpt lat="43.6446733" lon="11.0715133"><ele>231.0</ele><time>2026-04-04T15:07:57.012Z</time></trkpt><trkpt lat="43.6447517" lon="11.071645"><ele>231.25</ele><time>2026-04-04T15:07:58.012Z</time></trkpt><trkpt lat="43.6448183" lon="11.0717933"><ele>231.5</ele><time>2026-04-04T15:07:59.009Z</time></trkpt><trkpt lat="43.6448783" lon="11.0719417"><ele>231.75</ele><time>2026-04-04T15:08:00.011Z</time></trkpt><trkpt lat="43.644915" lon="11.0720917"><ele>232.0</ele><time>2026-04-04T15:08:01.012Z</time></trkpt><trkpt lat="43.64495" lon="11.0722433"><ele>232.0</ele><time>2026-04-04T15:08:02.009Z</time></trkpt><trkpt lat="43.6449717" lon="11.0723917"><ele>232.0</ele><time>2026-04-04T15:08:03.011Z</time></trkpt><trkpt lat="43.6449917" lon="11.0725283"><ele>232.0</ele><time>2026-04-04T15:08:04.013Z</time></trkpt><trkpt lat="43.64501" lon="11.0726533"><ele>232.0</ele><time>2026-04-04T15:08:05.011Z</time></trkpt><trkpt lat="43.6450283" lon="11.07277"><ele>232.0</ele><time>2026-04-04T15:08:06.012Z</time></trkpt><trkpt lat="43.6450467" lon="11.0728767"><ele>232.14285714285717</ele><time>2026-04-04T15:08:07.012Z</time></trkpt><trkpt lat="43.645055" lon="11.0729783"><ele>232.28571428571428</ele><time>2026-04-04T15:08:08.011Z</time></trkpt><trkpt lat="43.645065" lon="11.0730783"><ele>232.42857142857144</ele><time>2026-04-04T15:08:09.013Z</time></trkpt><trkpt lat="43.6450717" lon="11.0731733"><ele>232.57142857142858</ele><time>2026-04-04T15:08:10.013Z</time></trkpt><trkpt lat="43.6450733" lon="11.0732667"><ele>232.71428571428572</ele><time>2026-04-04T15:08:11.013Z</time></trkpt><trkpt lat="43.6450633" lon="11.0733567"><ele>232.85714285714286</ele><time>2026-04-04T15:08:12.01Z</time></trkpt><trkpt lat="43.6450533" lon="11.0734433"><ele>233.0</ele><time>2026-04-04T15:08:13.013Z</time></trkpt><trkpt lat="43.6450567" lon="11.0735317"><ele>233.33333333333334</ele><time>2026-04-04T15:08:14.014Z</time></trkpt><trkpt lat="43.6450817" lon="11.07362"><ele>233.66666666666669</ele><time>2026-04-04T15:08:15.014Z</time></trkpt><trkpt lat="43.6451117" lon="11.07371"><ele>234.0</ele><time>2026-04-04T15:08:16.011Z</time></trkpt><trkpt lat="43.6451383" lon="11.0738133"><ele>234.33333333333331</ele><time>2026-04-04T15:08:17.012Z</time></trkpt><trkpt lat="43.6451567" lon="11.0739217"><ele>234.66666666666666</ele><time>2026-04-04T15:08:18.012Z</time></trkpt><trkpt lat="43.64517" lon="11.07403"><ele>235.0</ele><time>2026-04-04T15:08:19.01Z</time></trkpt><trkpt lat="43.64518" lon="11.07414"><ele>235.6</ele><time>2026-04-04T15:08:20.012Z</time></trkpt><trkpt lat="43.6451933" lon="11.0742533"><ele>236.2</ele><time>2026-04-04T15:08:21.012Z</time></trkpt><trkpt lat="43.6452083" lon="11.0743733"><ele>236.8</ele><time>2026-04-04T15:08:22.012Z</time></trkpt><trkpt lat="43.64523" lon="11.074525"><ele>237.4</ele><time>2026-04-04T15:08:23.011Z</time></trkpt><trkpt lat="43.645245" lon="11.0746833"><ele>238.0</ele><time>2026-04-04T15:08:24.012Z</time></trkpt><trkpt lat="43.64526" lon="11.0748533"><ele>239.0</ele><time>2026-04-04T15:08:25.012Z</time></trkpt><trkpt lat="43.6452767" lon="11.0750317"><ele>240.0</ele><time>2026-04-04T15:08:26.011Z</time></trkpt><trkpt lat="43.6453017" lon="11.0752067"><ele>241.0</ele><time>2026-04-04T15:08:27.012Z</time></trkpt><trkpt lat="43.6453233" lon="11.0753833"><ele>242.0</ele><time>2026-04-04T15:08:28.012Z</time></trkpt><trkpt lat="43.6453483" lon="11.0755683"><ele>238.75</ele><time>2026-04-04T15:08:29.011Z</time></trkpt><trkpt lat="43.6453717" lon="11.0757617"><ele>235.5</ele><time>2026-04-04T15:08:30.01Z</time></trkpt><trkpt lat="43.6454" lon="11.0759567"><ele>232.25</ele><time>2026-04-04T15:08:31.012Z</time></trkpt><trkpt lat="43.645435" lon="11.0761483"><ele>229.0</ele><time>2026-04-04T15:08:32.011Z</time></trkpt><trkpt lat="43.6454717" lon="11.0763383"><ele>228.75</ele><time>2026-04-04T15:08:33.012Z</time></trkpt><trkpt lat="43.6455033" lon="11.0765217"><ele>228.5</ele><time>2026-04-04T15:08:34.01Z</time></trkpt><trkpt lat="43.645535" lon="11.0767033"><ele>228.25</ele><time>2026-04-04T15:08:35.012Z</time></trkpt><trkpt lat="43.6455817" lon="11.0768883"><ele>228.0</ele><time>2026-04-04T15:08:36.012Z</time></trkpt><trkpt lat="43.6456433" lon="11.0770967"><ele>228.0</ele><time>2026-04-04T15:08:37.012Z</time></trkpt><trkpt lat="43.6457133" lon="11.0773467"><ele>228.0</ele><time>2026-04-04T15:08:38.012Z</time></trkpt><trkpt lat="43.6457867" lon="11.0776417"><ele>228.0</ele><time>2026-04-04T15:08:39.013Z</time></trkpt><trkpt lat="43.64585" lon="11.0779617"><ele>227.0</ele><time>2026-04-04T15:08:40.012Z</time></trkpt><trkpt lat="43.6459017" lon="11.0782833"><ele>226.0</ele><time>2026-04-04T15:08:41.011Z</time></trkpt><trkpt lat="43.6459483" lon="11.0785917"><ele>226.0</ele><time>2026-04-04T15:08:42.011Z</time></trkpt><trkpt lat="43.645995" lon="11.0788933"><ele>226.0</ele><time>2026-04-04T15:08:43.012Z</time></trkpt><trkpt lat="43.646045" lon="11.07918"><ele>226.0</ele><time>2026-04-04T15:08:44.011Z</time></trkpt><trkpt lat="43.6461167" lon="11.079465"><ele>221.33333333333331</ele><time>2026-04-04T15:08:45.012Z</time></trkpt><trkpt lat="43.6462183" lon="11.07974"><ele>216.66666666666669</ele><time>2026-04-04T15:08:46.012Z</time></trkpt><trkpt lat="43.64634" lon="11.08"><ele>212.0</ele><time>2026-04-04T15:08:47.012Z</time></trkpt><trkpt lat="43.6464817" lon="11.0802417"><ele>212.0</ele><time>2026-04-04T15:08:48.012Z</time></trkpt><trkpt lat="43.6466467" lon="11.0804633"><ele>212.0</ele><time>2026-04-04T15:08:49.012Z</time></trkpt><trkpt lat="43.6468183" lon="11.08067"><ele>209.33333333333334</ele><time>2026-04-04T15:08:50.013Z</time></trkpt><trkpt lat="43.6469767" lon="11.080885"><ele>206.66666666666669</ele><time>2026-04-04T15:08:51.012Z</time></trkpt><trkpt lat="43.6471167" lon="11.0811167"><ele>204.0</ele><time>2026-04-04T15:08:52.011Z</time></trkpt><trkpt lat="43.6472317" lon="11.08137"><ele>207.0</ele><time>2026-04-04T15:08:53.012Z</time></trkpt><trkpt lat="43.6473233" lon="11.0816433"><ele>210.0</ele><time>2026-04-04T15:08:54.011Z</time></trkpt><trkpt lat="43.6473917" lon="11.0819317"><ele>213.0</ele><time>2026-04-04T15:08:55.011Z</time></trkpt><trkpt lat="43.6474467" lon="11.08221"><ele>212.33333333333331</ele><time>2026-04-04T15:08:56.011Z</time></trkpt><trkpt lat="43.647505" lon="11.0824817"><ele>211.66666666666666</ele><time>2026-04-04T15:08:57.013Z</time></trkpt><trkpt lat="43.6475717" lon="11.0827517"><ele>211.0</ele><time>2026-04-04T15:08:58.012Z</time></trkpt><trkpt lat="43.64765" lon="11.0830233"><ele>209.66666666666666</ele><time>2026-04-04T15:08:59.012Z</time></trkpt><trkpt lat="43.6477317" lon="11.083295"><ele>208.33333333333331</ele><time>2026-04-04T15:09:00.012Z</time></trkpt><trkpt lat="43.64781" lon="11.0835683"><ele>207.0</ele><time>2026-04-04T15:09:01.011Z</time></trkpt><trkpt lat="43.6478933" lon="11.083845"><ele>205.66666666666669</ele><time>2026-04-04T15:09:02.013Z</time></trkpt><trkpt lat="43.6479717" lon="11.0841183"><ele>204.33333333333334</ele><time>2026-04-04T15:09:03.012Z</time></trkpt><trkpt lat="43.6480483" lon="11.0843783"><ele>203.0</ele><time>2026-04-04T15:09:04.012Z</time></trkpt><trkpt lat="43.6481217" lon="11.0846317"><ele>203.0</ele><time>2026-04-04T15:09:05.011Z</time></trkpt><trkpt lat="43.6481917" lon="11.08487"><ele>203.0</ele><time>2026-04-04T15:09:06.012Z</time></trkpt><trkpt lat="43.648255" lon="11.0850933"><ele>203.0</ele><time>2026-04-04T15:09:07.011Z</time></trkpt><trkpt lat="43.6483367" lon="11.0853033"><ele>203.0</ele><time>2026-04-04T15:09:08.012Z</time></trkpt><trkpt lat="43.6484167" lon="11.0854833"><ele>203.0</ele><time>2026-04-04T15:09:09.012Z</time></trkpt><trkpt lat="43.64852" lon="11.08564"><ele>203.0</ele><time>2026-04-04T15:09:10.011Z</time></trkpt><trkpt lat="43.648635" lon="11.0857617"><ele>200.75</ele><time>2026-04-04T15:09:11.011Z</time></trkpt><trkpt lat="43.6487633" lon="11.0858433"><ele>198.5</ele><time>2026-04-04T15:09:12.012Z</time></trkpt><trkpt lat="43.648905" lon="11.085875"><ele>196.25</ele><time>2026-04-04T15:09:13.012Z</time></trkpt><trkpt lat="43.6490333" lon="11.0858533"><ele>194.0</ele><time>2026-04-04T15:09:14.013Z</time></trkpt><trkpt lat="43.64914" lon="11.085785"><ele>196.0</ele><time>2026-04-04T15:09:15.012Z</time></trkpt><trkpt lat="43.6492267" lon="11.08566"><ele>198.0</ele><time>2026-04-04T15:09:16.013Z</time></trkpt><trkpt lat="43.6492867" lon="11.0854933"><ele>200.0</ele><time>2026-04-04T15:09:17.011Z</time></trkpt><trkpt lat="43.6493333" lon="11.085295"><ele>202.0</ele><time>2026-04-04T15:09:18.011Z</time></trkpt><trkpt lat="43.649395" lon="11.0851083"><ele>199.0</ele><time>2026-04-04T15:09:19.013Z</time></trkpt><trkpt lat="43.6494883" lon="11.08496"><ele>196.0</ele><time>2026-04-04T15:09:20.012Z</time></trkpt><trkpt lat="43.6496067" lon="11.084855"><ele>193.0</ele><time>2026-04-04T15:09:21.011Z</time></trkpt><trkpt lat="43.6497583" lon="11.0847833"><ele>190.0</ele><time>2026-04-04T15:09:22.012Z</time></trkpt><trkpt lat="43.6499267" lon="11.0847283"><ele>189.66666666666669</ele><time>2026-04-04T15:09:23.012Z</time></trkpt><trkpt lat="43.6501067" lon="11.084695"><ele>189.33333333333334</ele><time>2026-04-04T15:09:24.012Z</time></trkpt><trkpt lat="43.6502933" lon="11.0846817"><ele>189.0</ele><time>2026-04-04T15:09:25.011Z</time></trkpt><trkpt lat="43.6504767" lon="11.0846783"><ele>186.33333333333334</ele><time>2026-04-04T15:09:26.013Z</time></trkpt><trkpt lat="43.6506583" lon="11.084675"><ele>183.66666666666669</ele><time>2026-04-04T15:09:27.014Z</time></trkpt><trkpt lat="43.6508283" lon="11.0846883"><ele>181.0</ele><time>2026-04-04T15:09:28.011Z</time></trkpt><trkpt lat="43.6509867" lon="11.0847167"><ele>181.0</ele><time>2026-04-04T15:09:29.011Z</time></trkpt><trkpt lat="43.6511217" lon="11.0847733"><ele>181.0</ele><time>2026-04-04T15:09:30.011Z</time></trkpt><trkpt lat="43.651225" lon="11.0848667"><ele>181.0</ele><time>2026-04-04T15:09:31.012Z</time></trkpt><trkpt lat="43.6512883" lon="11.0849867"><ele>181.0</ele><time>2026-04-04T15:09:32.012Z</time></trkpt><trkpt lat="43.6513033" lon="11.0851233"><ele>179.0</ele><time>2026-04-04T15:09:33.012Z</time></trkpt><trkpt lat="43.651295" lon="11.085275"><ele>177.0</ele><time>2026-04-04T15:09:34.012Z</time></trkpt><trkpt lat="43.65128" lon="11.0854217"><ele>175.0</ele><time>2026-04-04T15:09:35.012Z</time></trkpt><trkpt lat="43.6512817" lon="11.0855567"><ele>173.0</ele><time>2026-04-04T15:09:36.011Z</time></trkpt><trkpt lat="43.65132" lon="11.0856633"><ele>171.0</ele><time>2026-04-04T15:09:37.012Z</time></trkpt><trkpt lat="43.651415" lon="11.0857017"><ele>171.0</ele><time>2026-04-04T15:09:38.013Z</time></trkpt><trkpt lat="43.6515167" lon="11.0856683"><ele>171.0</ele><time>2026-04-04T15:09:39.012Z</time></trkpt><trkpt lat="43.6516183" lon="11.085585"><ele>171.0</ele><time>2026-04-04T15:09:40.011Z</time></trkpt><trkpt lat="43.6517233" lon="11.085445"><ele>171.0</ele><time>2026-04-04T15:09:41.012Z</time></trkpt><trkpt lat="43.6518417" lon="11.0852567"><ele>167.66666666666666</ele><time>2026-04-04T15:09:42.012Z</time></trkpt><trkpt lat="43.6519783" lon="11.0851033"><ele>164.33333333333331</ele><time>2026-04-04T15:09:43.011Z</time></trkpt><trkpt lat="43.6521267" lon="11.08497"><ele>161.0</ele><time>2026-04-04T15:09:44.012Z</time></trkpt><trkpt lat="43.6522867" lon="11.0848667"><ele>160.0</ele><time>2026-04-04T15:09:45.011Z</time></trkpt><trkpt lat="43.65245" lon="11.0847867"><ele>159.0</ele><time>2026-04-04T15:09:46.011Z</time></trkpt><trkpt lat="43.6526017" lon="11.0847117"><ele>158.0</ele><time>2026-04-04T15:09:47.013Z</time></trkpt><trkpt lat="43.6527467" lon="11.0846433"><ele>156.0</ele><time>2026-04-04T15:09:48.012Z</time></trkpt><trkpt lat="43.6528817" lon="11.0845783"><ele>154.0</ele><time>2026-04-04T15:09:49.013Z</time></trkpt><trkpt lat="43.6530067" lon="11.084545"><ele>152.0</ele><time>2026-04-04T15:09:50.011Z</time></trkpt><trkpt lat="43.6531267" lon="11.0845683"><ele>150.0</ele><time>2026-04-04T15:09:51.012Z</time></trkpt><trkpt lat="43.65323" lon="11.0846533"><ele>150.0</ele><time>2026-04-04T15:09:52.012Z</time></trkpt><trkpt lat="43.6533133" lon="11.0847767"><ele>150.0</ele><time>2026-04-04T15:09:53.011Z</time></trkpt><trkpt lat="43.6533683" lon="11.0849383"><ele>150.0</ele><time>2026-04-04T15:09:54.012Z</time></trkpt><trkpt lat="43.6533833" lon="11.0851117"><ele>150.0</ele><time>2026-04-04T15:09:55.012Z</time></trkpt><trkpt lat="43.6533633" lon="11.0852667"><ele>151.0</ele><time>2026-04-04T15:09:56.012Z</time></trkpt><trkpt lat="43.6533" lon="11.0854083"><ele>152.0</ele><time>2026-04-04T15:09:57.012Z</time></trkpt><trkpt lat="43.6532017" lon="11.0855233"><ele>153.0</ele><time>2026-04-04T15:09:58.012Z</time></trkpt><trkpt lat="43.65307" lon="11.0856167"><ele>154.0</ele><time>2026-04-04T15:09:59.012Z</time></trkpt><trkpt lat="43.6529317" lon="11.085705"><ele>154.75</ele><time>2026-04-04T15:10:00.012Z</time></trkpt><trkpt lat="43.6528" lon="11.085795"><ele>155.5</ele><time>2026-04-04T15:10:01.012Z</time></trkpt><trkpt lat="43.6526817" lon="11.0858817"><ele>156.25</ele><time>2026-04-04T15:10:02.012Z</time></trkpt><trkpt lat="43.6525817" lon="11.0859917"><ele>157.0</ele><time>2026-04-04T15:10:03.013Z</time></trkpt><trkpt lat="43.6525217" lon="11.086145"><ele>157.0</ele><time>2026-04-04T15:10:04.012Z</time></trkpt><trkpt lat="43.6524917" lon="11.0863083"><ele>157.0</ele><time>2026-04-04T15:10:05.012Z</time></trkpt><trkpt lat="43.6524783" lon="11.0864717"><ele>157.0</ele><time>2026-04-04T15:10:06.012Z</time></trkpt><trkpt lat="43.6524633" lon="11.0866283"><ele>157.0</ele><time>2026-04-04T15:10:07.012Z</time></trkpt><trkpt lat="43.6524383" lon="11.0867817"><ele>155.2</ele><time>2026-04-04T15:10:08.012Z</time></trkpt><trkpt lat="43.6524" lon="11.0869267"><ele>153.39999999999998</ele><time>2026-04-04T15:10:09.012Z</time></trkpt><trkpt lat="43.6523417" lon="11.0870567"><ele>151.60000000000002</ele><time>2026-04-04T15:10:10.011Z</time></trkpt><trkpt lat="43.6522667" lon="11.0871667"><ele>149.8</ele><time>2026-04-04T15:10:11.012Z</time></trkpt><trkpt lat="43.6521733" lon="11.087235"><ele>148.0</ele><time>2026-04-04T15:10:12.013Z</time></trkpt><trkpt lat="43.6520833" lon="11.0872833"><ele>148.0</ele><time>2026-04-04T15:10:13.011Z</time></trkpt><trkpt lat="43.6520017" lon="11.0873233"><ele>148.0</ele><time>2026-04-04T15:10:14.012Z</time></trkpt><trkpt lat="43.6519317" lon="11.0873683"><ele>148.0</ele><time>2026-04-04T15:10:15.012Z</time></trkpt><trkpt lat="43.6518733" lon="11.0874317"><ele>148.0</ele><time>2026-04-04T15:10:16.012Z</time></trkpt><trkpt lat="43.651825" lon="11.0875183"><ele>148.0</ele><time>2026-04-04T15:10:17.012Z</time></trkpt><trkpt lat="43.65179" lon="11.0876183"><ele>148.0</ele><time>2026-04-04T15:10:18.01Z</time></trkpt><trkpt lat="43.65177" lon="11.0877267"><ele>148.0</ele><time>2026-04-04T15:10:19.012Z</time></trkpt><trkpt lat="43.651775" lon="11.087835"><ele>148.0</ele><time>2026-04-04T15:10:20.011Z</time></trkpt><trkpt lat="43.6518417" lon="11.0879317"><ele>148.0</ele><time>2026-04-04T15:10:21.012Z</time></trkpt><trkpt lat="43.6519067" lon="11.088"><ele>148.0</ele><time>2026-04-04T15:10:22.011Z</time></trkpt><trkpt lat="43.651995" lon="11.088045"><ele>148.0</ele><time>2026-04-04T15:10:23.011Z</time></trkpt><trkpt lat="43.6520867" lon="11.0880733"><ele>148.0</ele><time>2026-04-04T15:10:24.012Z</time></trkpt><trkpt lat="43.65222" lon="11.0880317"><ele>145.5</ele><time>2026-04-04T15:10:25.011Z</time></trkpt><trkpt lat="43.652355" lon="11.087975"><ele>143.0</ele><time>2026-04-04T15:10:26.013Z</time></trkpt><trkpt lat="43.652485" lon="11.0879133"><ele>140.5</ele><time>2026-04-04T15:10:27.012Z</time></trkpt><trkpt lat="43.6526133" lon="11.087835"><ele>138.0</ele><time>2026-04-04T15:10:28.012Z</time></trkpt><trkpt lat="43.6527417" lon="11.08775"><ele>137.5</ele><time>2026-04-04T15:10:29.012Z</time></trkpt><trkpt lat="43.652865" lon="11.0876583"><ele>137.0</ele><time>2026-04-04T15:10:30.011Z</time></trkpt><trkpt lat="43.652985" lon="11.08756"><ele>136.5</ele><time>2026-04-04T15:10:31.01Z</time></trkpt><trkpt lat="43.653105" lon="11.08746"><ele>136.0</ele><time>2026-04-04T15:10:32.014Z</time></trkpt><trkpt lat="43.653225" lon="11.08736"><ele>136.0</ele><time>2026-04-04T15:10:33.012Z</time></trkpt><trkpt lat="43.653355" lon="11.0872617"><ele>136.0</ele><time>2026-04-04T15:10:34.012Z</time></trkpt><trkpt lat="43.653485" lon="11.0871683"><ele>136.0</ele><time>2026-04-04T15:10:35.011Z</time></trkpt><trkpt lat="43.6536083" lon="11.0870783"><ele>136.0</ele><time>2026-04-04T15:10:36.012Z</time></trkpt><trkpt lat="43.653725" lon="11.086995"><ele>133.25</ele><time>2026-04-04T15:10:37.011Z</time></trkpt><trkpt lat="43.6538317" lon="11.0869183"><ele>130.5</ele><time>2026-04-04T15:10:38.012Z</time></trkpt><trkpt lat="43.65394" lon="11.0868383"><ele>127.75</ele><time>2026-04-04T15:10:39.012Z</time></trkpt><trkpt lat="43.6540567" lon="11.086755"><ele>125.0</ele><time>2026-04-04T15:10:40.012Z</time></trkpt><trkpt lat="43.6541767" lon="11.0866717"><ele>123.5</ele><time>2026-04-04T15:10:41.012Z</time></trkpt><trkpt lat="43.654295" lon="11.0865783"><ele>122.0</ele><time>2026-04-04T15:10:42.012Z</time></trkpt><trkpt lat="43.654415" lon="11.0864917"><ele>120.5</ele><time>2026-04-04T15:10:43.011Z</time></trkpt><trkpt lat="43.654535" lon="11.0864033"><ele>119.0</ele><time>2026-04-04T15:10:44.012Z</time></trkpt><trkpt lat="43.6546467" lon="11.08631"><ele>119.0</ele><time>2026-04-04T15:10:45.011Z</time></trkpt><trkpt lat="43.65475" lon="11.08622"><ele>119.0</ele><time>2026-04-04T15:10:46.011Z</time></trkpt><trkpt lat="43.654845" lon="11.0861283"><ele>119.0</ele><time>2026-04-04T15:10:47.012Z</time></trkpt><trkpt lat="43.654935" lon="11.086035"><ele>119.0</ele><time>2026-04-04T15:10:48.012Z</time></trkpt><trkpt lat="43.6550233" lon="11.0859333"><ele>119.0</ele><time>2026-04-04T15:10:49.012Z</time></trkpt><trkpt lat="43.6551117" lon="11.085825"><ele>119.0</ele><time>2026-04-04T15:10:50.013Z</time></trkpt><trkpt lat="43.6552033" lon="11.08572"><ele>119.0</ele><time>2026-04-04T15:10:51.013Z</time></trkpt><trkpt lat="43.6552933" lon="11.0856133"><ele>119.0</ele><time>2026-04-04T15:10:52.012Z</time></trkpt><trkpt lat="43.6553767" lon="11.0854983"><ele>117.0</ele><time>2026-04-04T15:10:53.012Z</time></trkpt><trkpt lat="43.6554517" lon="11.0853783"><ele>115.0</ele><time>2026-04-04T15:10:54.011Z</time></trkpt><trkpt lat="43.655525" lon="11.08526"><ele>113.0</ele><time>2026-04-04T15:10:55.012Z</time></trkpt><trkpt lat="43.6555783" lon="11.0851417"><ele>111.0</ele><time>2026-04-04T15:10:56.012Z</time></trkpt><trkpt lat="43.6556283" lon="11.0850167"><ele>109.0</ele><time>2026-04-04T15:10:57.012Z</time></trkpt><trkpt lat="43.6556767" lon="11.0848933"><ele>109.0</ele><time>2026-04-04T15:10:58.012Z</time></trkpt><trkpt lat="43.65573" lon="11.0847783"><ele>109.0</ele><time>2026-04-04T15:10:59.012Z</time></trkpt><trkpt lat="43.6557883" lon="11.0846767"><ele>109.0</ele><time>2026-04-04T15:11:00.012Z</time></trkpt><trkpt lat="43.65585" lon="11.0845767"><ele>109.0</ele><time>2026-04-04T15:11:01.012Z</time></trkpt><trkpt lat="43.65592" lon="11.08448"><ele>109.0</ele><time>2026-04-04T15:11:02.011Z</time></trkpt><trkpt lat="43.6559967" lon="11.08439"><ele>109.0</ele><time>2026-04-04T15:11:03.012Z</time></trkpt><trkpt lat="43.6560783" lon="11.084305"><ele>109.0</ele><time>2026-04-04T15:11:04.012Z</time></trkpt><trkpt lat="43.6561633" lon="11.0842283"><ele>109.0</ele><time>2026-04-04T15:11:05.011Z</time></trkpt><trkpt lat="43.656255" lon="11.0841717"><ele>109.0</ele><time>2026-04-04T15:11:06.013Z</time></trkpt><trkpt lat="43.656345" lon="11.0841233"><ele>109.0</ele><time>2026-04-04T15:11:07.012Z</time></trkpt><trkpt lat="43.6564317" lon="11.0840767"><ele>108.50000000000001</ele><time>2026-04-04T15:11:08.012Z</time></trkpt><trkpt lat="43.656515" lon="11.0840283"><ele>108.0</ele><time>2026-04-04T15:11:09.012Z</time></trkpt><trkpt lat="43.656595" lon="11.0839983"><ele>107.5</ele><time>2026-04-04T15:11:10.011Z</time></trkpt><trkpt lat="43.65667" lon="11.0839567"><ele>107.0</ele><time>2026-04-04T15:11:11.012Z</time></trkpt><trkpt lat="43.6567433" lon="11.0839167"><ele>106.50000000000001</ele><time>2026-04-04T15:11:12.012Z</time></trkpt><trkpt lat="43.65682" lon="11.083875"><ele>106.0</ele><time>2026-04-04T15:11:13.011Z</time></trkpt><trkpt lat="43.656895" lon="11.0838333"><ele>105.66666666666667</ele><time>2026-04-04T15:11:14.012Z</time></trkpt><trkpt lat="43.656975" lon="11.0838067"><ele>105.33333333333334</ele><time>2026-04-04T15:11:15.012Z</time></trkpt><trkpt lat="43.65705" lon="11.0837817"><ele>105.0</ele><time>2026-04-04T15:11:16.011Z</time></trkpt><trkpt lat="43.6571233" lon="11.0837633"><ele>104.66666666666666</ele><time>2026-04-04T15:11:17.01Z</time></trkpt><trkpt lat="43.6571883" lon="11.0837517"><ele>104.33333333333333</ele><time>2026-04-04T15:11:18.012Z</time></trkpt><trkpt lat="43.6573" lon="11.083745"><ele>104.0</ele><time>2026-04-04T15:11:20.012Z</time></trkpt><trkpt lat="43.6574183" lon="11.08374"><ele>104.0</ele><time>2026-04-04T15:11:22.013Z</time></trkpt><trkpt lat="43.65751" lon="11.083735"><ele>104.0</ele><time>2026-04-04T15:11:23.013Z</time></trkpt><trkpt lat="43.6576233" lon="11.083735"><ele>104.0</ele><time>2026-04-04T15:11:24.012Z</time></trkpt><trkpt lat="43.6577533" lon="11.0837483"><ele>104.0</ele><time>2026-04-04T15:11:25.012Z</time></trkpt><trkpt lat="43.6578917" lon="11.0837667"><ele>103.5</ele><time>2026-04-04T15:11:26.012Z</time></trkpt><trkpt lat="43.65803" lon="11.0837967"><ele>103.0</ele><time>2026-04-04T15:11:27.012Z</time></trkpt><trkpt lat="43.6581667" lon="11.0838283"><ele>102.5</ele><time>2026-04-04T15:11:28.01Z</time></trkpt><trkpt lat="43.6583033" lon="11.0838583"><ele>102.0</ele><time>2026-04-04T15:11:29.012Z</time></trkpt><trkpt lat="43.65844" lon="11.0838817"><ele>102.0</ele><time>2026-04-04T15:11:30.012Z</time></trkpt><trkpt lat="43.658585" lon="11.0839117"><ele>102.0</ele><time>2026-04-04T15:11:31.01Z</time></trkpt><trkpt lat="43.658735" lon="11.083945"><ele>102.0</ele><time>2026-04-04T15:11:32.01Z</time></trkpt><trkpt lat="43.6588917" lon="11.08398"><ele>101.33333333333334</ele><time>2026-04-04T15:11:33.011Z</time></trkpt><trkpt lat="43.6590533" lon="11.084025"><ele>100.66666666666667</ele><time>2026-04-04T15:11:34.012Z</time></trkpt><trkpt lat="43.6592133" lon="11.0840717"><ele>100.0</ele><time>2026-04-04T15:11:35.011Z</time></trkpt><trkpt lat="43.6593667" lon="11.0841167"><ele>99.66666666666667</ele><time>2026-04-04T15:11:36.012Z</time></trkpt><trkpt lat="43.65952" lon="11.0841583"><ele>99.33333333333334</ele><time>2026-04-04T15:11:37.011Z</time></trkpt><trkpt lat="43.6596767" lon="11.0842"><ele>99.0</ele><time>2026-04-04T15:11:38.011Z</time></trkpt><trkpt lat="43.6598317" lon="11.0842417"><ele>99.0</ele><time>2026-04-04T15:11:39.012Z</time></trkpt><trkpt lat="43.65999" lon="11.08427"><ele>99.0</ele><time>2026-04-04T15:11:40.012Z</time></trkpt><trkpt lat="43.660145" lon="11.0842933"><ele>99.0</ele><time>2026-04-04T15:11:41.014Z</time></trkpt><trkpt lat="43.660295" lon="11.0843083"><ele>98.5</ele><time>2026-04-04T15:11:42.011Z</time></trkpt><trkpt lat="43.6604317" lon="11.0843183"><ele>98.0</ele><time>2026-04-04T15:11:43.012Z</time></trkpt><trkpt lat="43.6605567" lon="11.0843317"><ele>97.5</ele><time>2026-04-04T15:11:44.011Z</time></trkpt><trkpt lat="43.660665" lon="11.0843567"><ele>97.0</ele><time>2026-04-04T15:11:45.012Z</time></trkpt><trkpt lat="43.6607517" lon="11.0844183"><ele>97.00000000000001</ele><time>2026-04-04T15:11:46.012Z</time></trkpt><trkpt lat="43.6608117" lon="11.0845167"><ele>97.0</ele><time>2026-04-04T15:11:47.01Z</time></trkpt><trkpt lat="43.6608533" lon="11.08463"><ele>97.0</ele><time>2026-04-04T15:11:48.013Z</time></trkpt><trkpt lat="43.6608967" lon="11.0847383"><ele>97.0</ele><time>2026-04-04T15:11:49.01Z</time></trkpt><trkpt lat="43.6609483" lon="11.08483"><ele>97.00000000000001</ele><time>2026-04-04T15:11:50.012Z</time></trkpt><trkpt lat="43.6610183" lon="11.0848717"><ele>97.0</ele><time>2026-04-04T15:11:51.012Z</time></trkpt><trkpt lat="43.6610917" lon="11.0848817"><ele>97.66666666666667</ele><time>2026-04-04T15:11:52.011Z</time></trkpt><trkpt lat="43.6611567" lon="11.084855"><ele>98.33333333333334</ele><time>2026-04-04T15:11:53.012Z</time></trkpt><trkpt lat="43.66121" lon="11.0847883"><ele>99.0</ele><time>2026-04-04T15:11:54.011Z</time></trkpt><trkpt lat="43.66127" lon="11.0847083"><ele>99.66666666666666</ele><time>2026-04-04T15:11:55.012Z</time></trkpt><trkpt lat="43.6613467" lon="11.08463"><ele>100.33333333333333</ele><time>2026-04-04T15:11:56.013Z</time></trkpt><trkpt lat="43.6614383" lon="11.0845583"><ele>101.0</ele><time>2026-04-04T15:11:57.012Z</time></trkpt><trkpt lat="43.6615417" lon="11.0845067"><ele>101.0</ele><time>2026-04-04T15:11:58.013Z</time></trkpt><trkpt lat="43.66167" lon="11.0844783"><ele>101.0</ele><time>2026-04-04T15:11:59.011Z</time></trkpt><trkpt lat="43.6618233" lon="11.0844767"><ele>101.0</ele><time>2026-04-04T15:12:00.012Z</time></trkpt><trkpt lat="43.6619917" lon="11.084485"><ele>100.66666666666666</ele><time>2026-04-04T15:12:01.011Z</time></trkpt><trkpt lat="43.6621683" lon="11.0844967"><ele>100.33333333333334</ele><time>2026-04-04T15:12:02.012Z</time></trkpt><trkpt lat="43.662345" lon="11.084505"><ele>100.0</ele><time>2026-04-04T15:12:03.013Z</time></trkpt><trkpt lat="43.6625167" lon="11.084515"><ele>100.0</ele><time>2026-04-04T15:12:04.011Z</time></trkpt><trkpt lat="43.6626767" lon="11.0845383"><ele>100.0</ele><time>2026-04-04T15:12:05.012Z</time></trkpt><trkpt lat="43.6628267" lon="11.0845683"><ele>100.0</ele><time>2026-04-04T15:12:06.012Z</time></trkpt><trkpt lat="43.6629733" lon="11.0846017"><ele>99.0</ele><time>2026-04-04T15:12:07.013Z</time></trkpt><trkpt lat="43.6631183" lon="11.0846517"><ele>98.0</ele><time>2026-04-04T15:12:08.013Z</time></trkpt><trkpt lat="43.6632667" lon="11.0847033"><ele>97.0</ele><time>2026-04-04T15:12:09.011Z</time></trkpt><trkpt lat="43.663415" lon="11.0847517"><ele>97.0</ele><time>2026-04-04T15:12:10.012Z</time></trkpt><trkpt lat="43.663565" lon="11.084795"><ele>97.0</ele><time>2026-04-04T15:12:11.011Z</time></trkpt><trkpt lat="43.6637067" lon="11.0848283"><ele>97.0</ele><time>2026-04-04T15:12:12.012Z</time></trkpt><trkpt lat="43.6638433" lon="11.08484"><ele>97.0</ele><time>2026-04-04T15:12:13.013Z</time></trkpt><trkpt lat="43.66398" lon="11.08481"><ele>98.0</ele><time>2026-04-04T15:12:14.013Z</time></trkpt><trkpt lat="43.664115" lon="11.0847517"><ele>99.0</ele><time>2026-04-04T15:12:15.012Z</time></trkpt><trkpt lat="43.6642433" lon="11.0846817"><ele>100.0</ele><time>2026-04-04T15:12:16.012Z</time></trkpt><trkpt lat="43.6643633" lon="11.0846033"><ele>101.0</ele><time>2026-04-04T15:12:17.012Z</time></trkpt><trkpt lat="43.6644833" lon="11.0845233"><ele>102.25</ele><time>2026-04-04T15:12:18.011Z</time></trkpt><trkpt lat="43.6645917" lon="11.084435"><ele>103.5</ele><time>2026-04-04T15:12:19.013Z</time></trkpt><trkpt lat="43.6647083" lon="11.0843317"><ele>104.75</ele><time>2026-04-04T15:12:20.01Z</time></trkpt><trkpt lat="43.6648217" lon="11.084215"><ele>106.0</ele><time>2026-04-04T15:12:21.012Z</time></trkpt><trkpt lat="43.664945" lon="11.084095"><ele>106.25</ele><time>2026-04-04T15:12:22.012Z</time></trkpt><trkpt lat="43.66506" lon="11.08397"><ele>106.5</ele><time>2026-04-04T15:12:23.012Z</time></trkpt><trkpt lat="43.6651617" lon="11.0838317"><ele>106.75</ele><time>2026-04-04T15:12:24.011Z</time></trkpt><trkpt lat="43.6652683" lon="11.083705"><ele>107.0</ele><time>2026-04-04T15:12:25.013Z</time></trkpt><trkpt lat="43.6653767" lon="11.0835767"><ele>107.75</ele><time>2026-04-04T15:12:26.012Z</time></trkpt><trkpt lat="43.6654917" lon="11.08345"><ele>108.5</ele><time>2026-04-04T15:12:27.012Z</time></trkpt><trkpt lat="43.6656117" lon="11.0833233"><ele>109.25</ele><time>2026-04-04T15:12:28.011Z</time></trkpt><trkpt lat="43.6657267" lon="11.0831967"><ele>110.0</ele><time>2026-04-04T15:12:29.013Z</time></trkpt><trkpt lat="43.6658583" lon="11.08308"><ele>110.0</ele><time>2026-04-04T15:12:30.012Z</time></trkpt><trkpt lat="43.6660133" lon="11.0829717"><ele>110.0</ele><time>2026-04-04T15:12:31.013Z</time></trkpt><trkpt lat="43.666195" lon="11.0828667"><ele>110.0</ele><time>2026-04-04T15:12:32.012Z</time></trkpt><trkpt lat="43.6664083" lon="11.0827617"><ele>112.5</ele><time>2026-04-04T15:12:33.012Z</time></trkpt><trkpt lat="43.6666433" lon="11.0826617"><ele>115.0</ele><time>2026-04-04T15:12:34.012Z</time></trkpt><trkpt lat="43.666885" lon="11.0825683"><ele>115.33333333333334</ele><time>2026-04-04T15:12:35.013Z</time></trkpt><trkpt lat="43.6671033" lon="11.082475"><ele>115.66666666666666</ele><time>2026-04-04T15:12:36.012Z</time></trkpt><trkpt lat="43.6672983" lon="11.0823883"><ele>116.0</ele><time>2026-04-04T15:12:37.012Z</time></trkpt><trkpt lat="43.66747" lon="11.0823117"><ele>116.0</ele><time>2026-04-04T15:12:38.011Z</time></trkpt><trkpt lat="43.6676233" lon="11.08227"><ele>116.0</ele><time>2026-04-04T15:12:39.013Z</time></trkpt><trkpt lat="43.6677533" lon="11.0822817"><ele>116.0</ele><time>2026-04-04T15:12:40.012Z</time></trkpt><trkpt lat="43.66785" lon="11.08237"><ele>116.0</ele><time>2026-04-04T15:12:41.012Z</time></trkpt><trkpt lat="43.6678983" lon="11.08252"><ele>117.5</ele><time>2026-04-04T15:12:42.012Z</time></trkpt><trkpt lat="43.6678883" lon="11.0826883"><ele>119.0</ele><time>2026-04-04T15:12:43.012Z</time></trkpt><trkpt lat="43.667815" lon="11.08286"><ele>120.5</ele><time>2026-04-04T15:12:44.011Z</time></trkpt><trkpt lat="43.667695" lon="11.0830417"><ele>122.0</ele><time>2026-04-04T15:12:45.013Z</time></trkpt><trkpt lat="43.6675133" lon="11.0832517"><ele>127.0</ele><time>2026-04-04T15:12:46.012Z</time></trkpt><trkpt lat="43.66733" lon="11.0834933"><ele>132.0</ele><time>2026-04-04T15:12:47.012Z</time></trkpt><trkpt lat="43.667135" lon="11.083755"><ele>131.5</ele><time>2026-04-04T15:12:48.013Z</time></trkpt><trkpt lat="43.6669417" lon="11.084005"><ele>131.0</ele><time>2026-04-04T15:12:49.013Z</time></trkpt><trkpt lat="43.666765" lon="11.08423"><ele>131.0</ele><time>2026-04-04T15:12:50.011Z</time></trkpt><trkpt lat="43.6666233" lon="11.084455"><ele>131.0</ele><time>2026-04-04T15:12:51.012Z</time></trkpt><trkpt lat="43.6665217" lon="11.084685"><ele>131.0</ele><time>2026-04-04T15:12:52.012Z</time></trkpt><trkpt lat="43.6664633" lon="11.0849317"><ele>133.66666666666666</ele><time>2026-04-04T15:12:53.014Z</time></trkpt><trkpt lat="43.66647" lon="11.0852"><ele>136.33333333333334</ele><time>2026-04-04T15:12:54.014Z</time></trkpt><trkpt lat="43.6665433" lon="11.0854883"><ele>139.0</ele><time>2026-04-04T15:12:55.012Z</time></trkpt><trkpt lat="43.6666283" lon="11.0858117"><ele>139.0</ele><time>2026-04-04T15:12:56.013Z</time></trkpt><trkpt lat="43.6667167" lon="11.0861467"><ele>139.0</ele><time>2026-04-04T15:12:57.013Z</time></trkpt><trkpt lat="43.6668083" lon="11.0864617"><ele>137.0</ele><time>2026-04-04T15:12:58.011Z</time></trkpt><trkpt lat="43.666915" lon="11.086745"><ele>135.0</ele><time>2026-04-04T15:12:59.013Z</time></trkpt><trkpt lat="43.66705" lon="11.0869917"><ele>140.5</ele><time>2026-04-04T15:13:00.011Z</time></trkpt><trkpt lat="43.6672333" lon="11.0872183"><ele>146.0</ele><time>2026-04-04T15:13:01.013Z</time></trkpt><trkpt lat="43.6674417" lon="11.087445"><ele>146.0</ele><time>2026-04-04T15:13:02.012Z</time></trkpt><trkpt lat="43.667655" lon="11.0876833"><ele>146.0</ele><time>2026-04-04T15:13:03.013Z</time></trkpt><trkpt lat="43.667855" lon="11.0879217"><ele>152.5</ele><time>2026-04-04T15:13:04.012Z</time></trkpt><trkpt lat="43.66803" lon="11.0881767"><ele>159.0</ele><time>2026-04-04T15:13:05.012Z</time></trkpt><trkpt lat="43.6681983" lon="11.0884367"><ele>159.0</ele><time>2026-04-04T15:13:06.011Z</time></trkpt><trkpt lat="43.6683683" lon="11.0886933"><ele>159.0</ele><time>2026-04-04T15:13:07.013Z</time></trkpt><trkpt lat="43.6685517" lon="11.0889233"><ele>162.5</ele><time>2026-04-04T15:13:08.012Z</time></trkpt><trkpt lat="43.66875" lon="11.0891483"><ele>166.0</ele><time>2026-04-04T15:13:09.014Z</time></trkpt><trkpt lat="43.6689517" lon="11.0893617"><ele>166.0</ele><time>2026-04-04T15:13:10.014Z</time></trkpt><trkpt lat="43.66914" lon="11.0895633"><ele>166.0</ele><time>2026-04-04T15:13:11.013Z</time></trkpt><trkpt lat="43.669305" lon="11.0897783"><ele>170.0</ele><time>2026-04-04T15:13:12.012Z</time></trkpt><trkpt lat="43.6694467" lon="11.0900217"><ele>174.0</ele><time>2026-04-04T15:13:13.012Z</time></trkpt><trkpt lat="43.6695667" lon="11.0902717"><ele>178.0</ele><time>2026-04-04T15:13:14.012Z</time></trkpt><trkpt lat="43.669675" lon="11.0905017"><ele>178.0</ele><time>2026-04-04T15:13:15.012Z</time></trkpt><trkpt lat="43.669805" lon="11.0907017"><ele>178.0</ele><time>2026-04-04T15:13:16.012Z</time></trkpt><trkpt lat="43.6699433" lon="11.0908783"><ele>178.0</ele><time>2026-04-04T15:13:17.013Z</time></trkpt><trkpt lat="43.6701017" lon="11.0909867"><ele>178.33333333333334</ele><time>2026-04-04T15:13:18.012Z</time></trkpt><trkpt lat="43.6702767" lon="11.0910417"><ele>178.66666666666666</ele><time>2026-04-04T15:13:19.013Z</time></trkpt><trkpt lat="43.6704317" lon="11.0911333"><ele>179.0</ele><time>2026-04-04T15:13:20.011Z</time></trkpt><trkpt lat="43.6705633" lon="11.09129"><ele>179.0</ele><time>2026-04-04T15:13:21.013Z</time></trkpt><trkpt lat="43.670675" lon="11.0915017"><ele>179.0</ele><time>2026-04-04T15:13:22.011Z</time></trkpt><trkpt lat="43.670775" lon="11.0917683"><ele>179.0</ele><time>2026-04-04T15:13:23.012Z</time></trkpt><trkpt lat="43.670865" lon="11.092075"><ele>179.0</ele><time>2026-04-04T15:13:24.013Z</time></trkpt><trkpt lat="43.6709283" lon="11.0923833"><ele>179.0</ele><time>2026-04-04T15:13:25.012Z</time></trkpt><trkpt lat="43.6709633" lon="11.09268"><ele>179.0</ele><time>2026-04-04T15:13:26.012Z</time></trkpt><trkpt lat="43.6709633" lon="11.09298"><ele>180.5</ele><time>2026-04-04T15:13:27.011Z</time></trkpt><trkpt lat="43.67092" lon="11.0932817"><ele>182.0</ele><time>2026-04-04T15:13:28.013Z</time></trkpt><trkpt lat="43.6708567" lon="11.0935867"><ele>182.0</ele><time>2026-04-04T15:13:29.011Z</time></trkpt><trkpt lat="43.67077" lon="11.0939067"><ele>182.0</ele><time>2026-04-04T15:13:30.013Z</time></trkpt><trkpt lat="43.6706767" lon="11.0942183"><ele>185.0</ele><time>2026-04-04T15:13:31.012Z</time></trkpt><trkpt lat="43.6705667" lon="11.0944917"><ele>188.0</ele><time>2026-04-04T15:13:32.012Z</time></trkpt><trkpt lat="43.6704467" lon="11.0947133"><ele>191.0</ele><time>2026-04-04T15:13:33.012Z</time></trkpt><trkpt lat="43.6703417" lon="11.094915"><ele>189.25</ele><time>2026-04-04T15:13:34.011Z</time></trkpt><trkpt lat="43.6702617" lon="11.0951033"><ele>187.5</ele><time>2026-04-04T15:13:35.012Z</time></trkpt><trkpt lat="43.67022" lon="11.0952867"><ele>185.75</ele><time>2026-04-04T15:13:36.013Z</time></trkpt><trkpt lat="43.6702433" lon="11.0954917"><ele>184.0</ele><time>2026-04-04T15:13:37.013Z</time></trkpt><trkpt lat="43.67032" lon="11.0957333"><ele>189.33333333333334</ele><time>2026-04-04T15:13:38.013Z</time></trkpt><trkpt lat="43.6703817" lon="11.09601"><ele>194.66666666666669</ele><time>2026-04-04T15:13:39.011Z</time></trkpt><trkpt lat="43.6704083" lon="11.096325"><ele>200.0</ele><time>2026-04-04T15:13:40.012Z</time></trkpt><trkpt lat="43.670405" lon="11.09664"><ele>200.33333333333334</ele><time>2026-04-04T15:13:41.011Z</time></trkpt><trkpt lat="43.6703633" lon="11.0969367"><ele>200.66666666666669</ele><time>2026-04-04T15:13:42.013Z</time></trkpt><trkpt lat="43.6702833" lon="11.0972133"><ele>201.0</ele><time>2026-04-04T15:13:43.011Z</time></trkpt><trkpt lat="43.6701983" lon="11.0974633"><ele>197.0</ele><time>2026-04-04T15:13:44.011Z</time></trkpt><trkpt lat="43.67015" lon="11.0977"><ele>193.0</ele><time>2026-04-04T15:13:45.013Z</time></trkpt><trkpt lat="43.6701333" lon="11.0979367"><ele>189.0</ele><time>2026-04-04T15:13:46.012Z</time></trkpt><trkpt lat="43.6701733" lon="11.0981617"><ele>189.66666666666666</ele><time>2026-04-04T15:13:47.014Z</time></trkpt><trkpt lat="43.6702717" lon="11.098395"><ele>190.33333333333331</ele><time>2026-04-04T15:13:48.013Z</time></trkpt><trkpt lat="43.6704033" lon="11.0986417"><ele>191.0</ele><time>2026-04-04T15:13:49.013Z</time></trkpt><trkpt lat="43.670545" lon="11.09889"><ele>196.5</ele><time>2026-04-04T15:13:50.012Z</time></trkpt><trkpt lat="43.6707067" lon="11.09913"><ele>202.0</ele><time>2026-04-04T15:13:51.014Z</time></trkpt><trkpt lat="43.6708883" lon="11.099335"><ele>202.0</ele><time>2026-04-04T15:13:52.012Z</time></trkpt><trkpt lat="43.671075" lon="11.099515"><ele>202.0</ele><time>2026-04-04T15:13:53.012Z</time></trkpt><trkpt lat="43.67126" lon="11.09968"><ele>202.0</ele><time>2026-04-04T15:13:54.013Z</time></trkpt><trkpt lat="43.6714367" lon="11.0998383"><ele>204.33333333333331</ele><time>2026-04-04T15:13:55.012Z</time></trkpt><trkpt lat="43.6715967" lon="11.10001"><ele>206.66666666666669</ele><time>2026-04-04T15:13:56.012Z</time></trkpt><trkpt lat="43.6717333" lon="11.1002017"><ele>209.0</ele><time>2026-04-04T15:13:57.013Z</time></trkpt><trkpt lat="43.6718417" lon="11.10041"><ele>209.0</ele><time>2026-04-04T15:13:58.012Z</time></trkpt><trkpt lat="43.6719183" lon="11.1006283"><ele>209.0</ele><time>2026-04-04T15:13:59.011Z</time></trkpt><trkpt lat="43.6719683" lon="11.1008467"><ele>209.0</ele><time>2026-04-04T15:14:00.012Z</time></trkpt><trkpt lat="43.671995" lon="11.1010717"><ele>211.33333333333334</ele><time>2026-04-04T15:14:01.012Z</time></trkpt><trkpt lat="43.6720033" lon="11.1013067"><ele>213.66666666666669</ele><time>2026-04-04T15:14:02.012Z</time></trkpt><trkpt lat="43.6719983" lon="11.1015467"><ele>216.0</ele><time>2026-04-04T15:14:03.012Z</time></trkpt><trkpt lat="43.6719967" lon="11.101785"><ele>216.66666666666669</ele><time>2026-04-04T15:14:04.012Z</time></trkpt><trkpt lat="43.67201" lon="11.10202"><ele>217.33333333333334</ele><time>2026-04-04T15:14:05.011Z</time></trkpt><trkpt lat="43.6720483" lon="11.1022433"><ele>218.0</ele><time>2026-04-04T15:14:06.012Z</time></trkpt><trkpt lat="43.67211" lon="11.102465"><ele>218.0</ele><time>2026-04-04T15:14:07.012Z</time></trkpt><trkpt lat="43.672175" lon="11.102685"><ele>218.0</ele><time>2026-04-04T15:14:08.012Z</time></trkpt><trkpt lat="43.67224" lon="11.1029017"><ele>218.0</ele><time>2026-04-04T15:14:09.013Z</time></trkpt><trkpt lat="43.6723017" lon="11.1031117"><ele>217.33333333333334</ele><time>2026-04-04T15:14:10.011Z</time></trkpt><trkpt lat="43.672355" lon="11.10331"><ele>216.66666666666669</ele><time>2026-04-04T15:14:11.011Z</time></trkpt><trkpt lat="43.6724" lon="11.10351"><ele>216.0</ele><time>2026-04-04T15:14:12.01Z</time></trkpt><trkpt lat="43.6724517" lon="11.103705"><ele>216.0</ele><time>2026-04-04T15:14:13.011Z</time></trkpt><trkpt lat="43.6724967" lon="11.1038867"><ele>216.0</ele><time>2026-04-04T15:14:14.011Z</time></trkpt><trkpt lat="43.6725317" lon="11.104045"><ele>216.0</ele><time>2026-04-04T15:14:15.011Z</time></trkpt><trkpt lat="43.6725667" lon="11.1041967"><ele>216.0</ele><time>2026-04-04T15:14:16.011Z</time></trkpt><trkpt lat="43.6725983" lon="11.1043283"><ele>215.66666666666666</ele><time>2026-04-04T15:14:17.012Z</time></trkpt><trkpt lat="43.6726317" lon="11.10445"><ele>215.33333333333331</ele><time>2026-04-04T15:14:18.012Z</time></trkpt><trkpt lat="43.6726533" lon="11.1045533"><ele>215.0</ele><time>2026-04-04T15:14:19.013Z</time></trkpt><trkpt lat="43.6726717" lon="11.1046417"><ele>214.66666666666666</ele><time>2026-04-04T15:14:20.012Z</time></trkpt><trkpt lat="43.6726983" lon="11.1047533"><ele>214.33333333333331</ele><time>2026-04-04T15:14:22.013Z</time></trkpt><trkpt lat="43.6727483" lon="11.1048183"><ele>214.0</ele><time>2026-04-04T15:14:26.011Z</time></trkpt><trkpt lat="43.6727333" lon="11.104725"><ele>213.99999999999997</ele><time>2026-04-04T15:15:24.011Z</time></trkpt><trkpt lat="43.6726783" lon="11.1048267"><ele>214.0</ele><time>2026-04-04T15:15:29.011Z</time></trkpt><trkpt lat="43.6726983" lon="11.1049167"><ele>214.0</ele><time>2026-04-04T15:15:30.013Z</time></trkpt><trkpt lat="43.6727267" lon="11.1050167"><ele>214.0</ele><time>2026-04-04T15:15:31.012Z</time></trkpt><trkpt lat="43.6727583" lon="11.1051317"><ele>213.99999999999997</ele><time>2026-04-04T15:15:32.012Z</time></trkpt><trkpt lat="43.67279" lon="11.1052567"><ele>214.0</ele><time>2026-04-04T15:15:33.012Z</time></trkpt><trkpt lat="43.67283" lon="11.1053967"><ele>213.25</ele><time>2026-04-04T15:15:34.012Z</time></trkpt><trkpt lat="43.6728767" lon="11.1055483"><ele>212.5</ele><time>2026-04-04T15:15:35.013Z</time></trkpt><trkpt lat="43.6729267" lon="11.1057033"><ele>211.75</ele><time>2026-04-04T15:15:36.011Z</time></trkpt><trkpt lat="43.67298" lon="11.10586"><ele>211.0</ele><time>2026-04-04T15:15:37.012Z</time></trkpt><trkpt lat="43.6730517" lon="11.1060133"><ele>212.5</ele><time>2026-04-04T15:15:38.01Z</time></trkpt><trkpt lat="43.6731267" lon="11.1061717"><ele>214.0</ele><time>2026-04-04T15:15:39.012Z</time></trkpt><trkpt lat="43.6732" lon="11.1063283"><ele>215.5</ele><time>2026-04-04T15:15:40.014Z</time></trkpt><trkpt lat="43.6732817" lon="11.1064867"><ele>217.0</ele><time>2026-04-04T15:15:41.01Z</time></trkpt><trkpt lat="43.6733617" lon="11.10665"><ele>218.33333333333331</ele><time>2026-04-04T15:15:42.013Z</time></trkpt><trkpt lat="43.6734383" lon="11.1068217"><ele>219.66666666666669</ele><time>2026-04-04T15:15:43.013Z</time></trkpt><trkpt lat="43.67352" lon="11.1069967"><ele>221.0</ele><time>2026-04-04T15:15:44.013Z</time></trkpt><trkpt lat="43.6736083" lon="11.1071833"><ele>218.66666666666669</ele><time>2026-04-04T15:15:45.012Z</time></trkpt><trkpt lat="43.6736933" lon="11.1073767"><ele>216.33333333333331</ele><time>2026-04-04T15:15:46.013Z</time></trkpt><trkpt lat="43.6737767" lon="11.1075667"><ele>214.0</ele><time>2026-04-04T15:15:47.013Z</time></trkpt><trkpt lat="43.6738683" lon="11.10776"><ele>214.0</ele><time>2026-04-04T15:15:48.013Z</time></trkpt><trkpt lat="43.6739633" lon="11.1079633"><ele>214.0</ele><time>2026-04-04T15:15:49.011Z</time></trkpt><trkpt lat="43.6740633" lon="11.1081717"><ele>214.0</ele><time>2026-04-04T15:15:50.012Z</time></trkpt><trkpt lat="43.6741667" lon="11.1083717"><ele>214.66666666666666</ele><time>2026-04-04T15:15:51.012Z</time></trkpt><trkpt lat="43.6742733" lon="11.1085583"><ele>215.33333333333331</ele><time>2026-04-04T15:15:52.012Z</time></trkpt><trkpt lat="43.674385" lon="11.10873"><ele>216.0</ele><time>2026-04-04T15:15:53.01Z</time></trkpt><trkpt lat="43.6745017" lon="11.10888"><ele>214.0</ele><time>2026-04-04T15:15:54.012Z</time></trkpt><trkpt lat="43.6746283" lon="11.1089933"><ele>212.0</ele><time>2026-04-04T15:15:55.012Z</time></trkpt><trkpt lat="43.674765" lon="11.1090917"><ele>210.0</ele><time>2026-04-04T15:15:56.012Z</time></trkpt><trkpt lat="43.6749183" lon="11.10917"><ele>208.33333333333331</ele><time>2026-04-04T15:15:57.012Z</time></trkpt><trkpt lat="43.67507" lon="11.1092467"><ele>206.66666666666666</ele><time>2026-04-04T15:15:58.011Z</time></trkpt><trkpt lat="43.67522" lon="11.1093333"><ele>205.0</ele><time>2026-04-04T15:15:59.013Z</time></trkpt><trkpt lat="43.6753617" lon="11.1094333"><ele>202.0</ele><time>2026-04-04T15:16:00.011Z</time></trkpt><trkpt lat="43.6754967" lon="11.10955"><ele>199.0</ele><time>2026-04-04T15:16:01.009Z</time></trkpt><trkpt lat="43.6756183" lon="11.1096833"><ele>196.0</ele><time>2026-04-04T15:16:02.012Z</time></trkpt><trkpt lat="43.6757333" lon="11.109835"><ele>196.33333333333331</ele><time>2026-04-04T15:16:03.011Z</time></trkpt><trkpt lat="43.6758533" lon="11.1099967"><ele>196.66666666666669</ele><time>2026-04-04T15:16:04.013Z</time></trkpt><trkpt lat="43.67599" lon="11.11017"><ele>197.0</ele><time>2026-04-04T15:16:05.012Z</time></trkpt><trkpt lat="43.6761383" lon="11.1103533"><ele>195.0</ele><time>2026-04-04T15:16:06.013Z</time></trkpt><trkpt lat="43.6762917" lon="11.1105383"><ele>193.0</ele><time>2026-04-04T15:16:07.012Z</time></trkpt><trkpt lat="43.67644" lon="11.110705"><ele>191.0</ele><time>2026-04-04T15:16:08.012Z</time></trkpt><trkpt lat="43.6765783" lon="11.110845"><ele>191.0</ele><time>2026-04-04T15:16:09.014Z</time></trkpt><trkpt lat="43.6767083" lon="11.1109617"><ele>191.0</ele><time>2026-04-04T15:16:10.011Z</time></trkpt><trkpt lat="43.6768417" lon="11.11107"><ele>191.0</ele><time>2026-04-04T15:16:11.013Z</time></trkpt><trkpt lat="43.6769717" lon="11.1111517"><ele>189.25</ele><time>2026-04-04T15:16:12.011Z</time></trkpt><trkpt lat="43.6770967" lon="11.1112217"><ele>187.5</ele><time>2026-04-04T15:16:13.012Z</time></trkpt><trkpt lat="43.67722" lon="11.111285"><ele>185.75</ele><time>2026-04-04T15:16:14.012Z</time></trkpt><trkpt lat="43.6773383" lon="11.11135"><ele>184.0</ele><time>2026-04-04T15:16:15.013Z</time></trkpt><trkpt lat="43.6774483" lon="11.1114217"><ele>184.0</ele><time>2026-04-04T15:16:16.013Z</time></trkpt><trkpt lat="43.6775483" lon="11.1115033"><ele>184.0</ele><time>2026-04-04T15:16:17.013Z</time></trkpt><trkpt lat="43.67764" lon="11.11159"><ele>184.0</ele><time>2026-04-04T15:16:18.011Z</time></trkpt><trkpt lat="43.6777333" lon="11.111655"><ele>184.0</ele><time>2026-04-04T15:16:19.012Z</time></trkpt><trkpt lat="43.6778383" lon="11.11169"><ele>184.0</ele><time>2026-04-04T15:16:20.011Z</time></trkpt><trkpt lat="43.677955" lon="11.1116883"><ele>183.75</ele><time>2026-04-04T15:16:21.01Z</time></trkpt><trkpt lat="43.6780733" lon="11.1116617"><ele>183.5</ele><time>2026-04-04T15:16:22.013Z</time></trkpt><trkpt lat="43.6781933" lon="11.111625"><ele>183.25</ele><time>2026-04-04T15:16:23.012Z</time></trkpt><trkpt lat="43.6783183" lon="11.1115867"><ele>183.0</ele><time>2026-04-04T15:16:24.013Z</time></trkpt><trkpt lat="43.67846" lon="11.1115517"><ele>183.5</ele><time>2026-04-04T15:16:25.013Z</time></trkpt><trkpt lat="43.67861" lon="11.111525"><ele>184.0</ele><time>2026-04-04T15:16:26.012Z</time></trkpt><trkpt lat="43.6787583" lon="11.1115067"><ele>184.5</ele><time>2026-04-04T15:16:27.012Z</time></trkpt><trkpt lat="43.6788833" lon="11.1115067"><ele>185.0</ele><time>2026-04-04T15:16:28.013Z</time></trkpt><trkpt lat="43.6789883" lon="11.1115167"><ele>185.0</ele><time>2026-04-04T15:16:29.011Z</time></trkpt><trkpt lat="43.679085" lon="11.1115017"><ele>185.0</ele><time>2026-04-04T15:16:30.013Z</time></trkpt><trkpt lat="43.6791667" lon="11.11147"><ele>185.0</ele><time>2026-04-04T15:16:31.012Z</time></trkpt><trkpt lat="43.6792467" lon="11.1114267"><ele>185.0</ele><time>2026-04-04T15:16:32.013Z</time></trkpt><trkpt lat="43.6793383" lon="11.1113433"><ele>185.0</ele><time>2026-04-04T15:16:33.012Z</time></trkpt><trkpt lat="43.6794367" lon="11.1111933"><ele>184.0</ele><time>2026-04-04T15:16:34.013Z</time></trkpt><trkpt lat="43.6795333" lon="11.1110267"><ele>183.0</ele><time>2026-04-04T15:16:35.013Z</time></trkpt><trkpt lat="43.6796233" lon="11.1108633"><ele>182.0</ele><time>2026-04-04T15:16:36.012Z</time></trkpt><trkpt lat="43.6797067" lon="11.1107083"><ele>181.0</ele><time>2026-04-04T15:16:37.012Z</time></trkpt><trkpt lat="43.6797883" lon="11.1105633"><ele>180.25</ele><time>2026-04-04T15:16:38.012Z</time></trkpt><trkpt lat="43.67986" lon="11.110415"><ele>179.5</ele><time>2026-04-04T15:16:39.012Z</time></trkpt><trkpt lat="43.6799183" lon="11.1102417"><ele>178.75</ele><time>2026-04-04T15:16:40.013Z</time></trkpt><trkpt lat="43.679965" lon="11.1100433"><ele>178.0</ele><time>2026-04-04T15:16:41.013Z</time></trkpt><trkpt lat="43.6800083" lon="11.1098233"><ele>175.33333333333334</ele><time>2026-04-04T15:16:42.013Z</time></trkpt><trkpt lat="43.6800533" lon="11.1096033"><ele>172.66666666666666</ele><time>2026-04-04T15:16:43.013Z</time></trkpt><trkpt lat="43.6801067" lon="11.1093983"><ele>170.0</ele><time>2026-04-04T15:16:44.013Z</time></trkpt><trkpt lat="43.6801717" lon="11.109205"><ele>169.25</ele><time>2026-04-04T15:16:45.013Z</time></trkpt><trkpt lat="43.6802367" lon="11.1090283"><ele>168.5</ele><time>2026-04-04T15:16:46.012Z</time></trkpt><trkpt lat="43.68031" lon="11.1088733"><ele>167.75</ele><time>2026-04-04T15:16:47.012Z</time></trkpt><trkpt lat="43.6804033" lon="11.1087367"><ele>167.0</ele><time>2026-04-04T15:16:48.012Z</time></trkpt><trkpt lat="43.6805117" lon="11.10861"><ele>167.0</ele><time>2026-04-04T15:16:49.013Z</time></trkpt><trkpt lat="43.680635" lon="11.10849"><ele>167.0</ele><time>2026-04-04T15:16:50.013Z</time></trkpt><trkpt lat="43.68077" lon="11.10837"><ele>167.0</ele><time>2026-04-04T15:16:51.013Z</time></trkpt><trkpt lat="43.6809117" lon="11.1082583"><ele>164.66666666666666</ele><time>2026-04-04T15:16:52.013Z</time></trkpt><trkpt lat="43.6810583" lon="11.1081433"><ele>162.33333333333334</ele><time>2026-04-04T15:16:53.012Z</time></trkpt><trkpt lat="43.6812067" lon="11.1080333"><ele>160.0</ele><time>2026-04-04T15:16:54.013Z</time></trkpt><trkpt lat="43.6813533" lon="11.1079167"><ele>159.0</ele><time>2026-04-04T15:16:55.013Z</time></trkpt><trkpt lat="43.6814967" lon="11.1077967"><ele>158.0</ele><time>2026-04-04T15:16:56.013Z</time></trkpt><trkpt lat="43.6816433" lon="11.1076783"><ele>157.0</ele><time>2026-04-04T15:16:57.013Z</time></trkpt><trkpt lat="43.6817933" lon="11.1075667"><ele>155.0</ele><time>2026-04-04T15:16:58.013Z</time></trkpt><trkpt lat="43.6819467" lon="11.107455"><ele>153.0</ele><time>2026-04-04T15:16:59.013Z</time></trkpt><trkpt lat="43.682095" lon="11.1073467"><ele>151.0</ele><time>2026-04-04T15:17:00.013Z</time></trkpt><trkpt lat="43.682245" lon="11.1072467"><ele>151.0</ele><time>2026-04-04T15:17:01.013Z</time></trkpt><trkpt lat="43.6823833" lon="11.10714"><ele>151.0</ele><time>2026-04-04T15:17:02.012Z</time></trkpt><trkpt lat="43.6825117" lon="11.1070333"><ele>151.0</ele><time>2026-04-04T15:17:03.013Z</time></trkpt><trkpt lat="43.68264" lon="11.1069217"><ele>151.0</ele><time>2026-04-04T15:17:04.013Z</time></trkpt><trkpt lat="43.6827633" lon="11.1067917"><ele>151.0</ele><time>2026-04-04T15:17:05.012Z</time></trkpt><trkpt lat="43.6828867" lon="11.1066417"><ele>151.0</ele><time>2026-04-04T15:17:06.012Z</time></trkpt><trkpt lat="43.6830117" lon="11.10648"><ele>149.33333333333334</ele><time>2026-04-04T15:17:07.013Z</time></trkpt><trkpt lat="43.683135" lon="11.1063083"><ele>147.66666666666666</ele><time>2026-04-04T15:17:08.013Z</time></trkpt><trkpt lat="43.68327" lon="11.1061333"><ele>146.0</ele><time>2026-04-04T15:17:09.012Z</time></trkpt><trkpt lat="43.683405" lon="11.10596"><ele>146.0</ele><time>2026-04-04T15:17:10.013Z</time></trkpt><trkpt lat="43.683535" lon="11.1057883"><ele>146.0</ele><time>2026-04-04T15:17:11.013Z</time></trkpt><trkpt lat="43.683655" lon="11.1056283"><ele>146.0</ele><time>2026-04-04T15:17:12.011Z</time></trkpt><trkpt lat="43.6837683" lon="11.1054717"><ele>144.75</ele><time>2026-04-04T15:17:13.012Z</time></trkpt><trkpt lat="43.6838683" lon="11.1053267"><ele>143.5</ele><time>2026-04-04T15:17:14.012Z</time></trkpt><trkpt lat="43.68396" lon="11.1051983"><ele>142.25</ele><time>2026-04-04T15:17:15.013Z</time></trkpt><trkpt lat="43.6840467" lon="11.105085"><ele>141.0</ele><time>2026-04-04T15:17:16.012Z</time></trkpt><trkpt lat="43.6841367" lon="11.10499"><ele>141.25</ele><time>2026-04-04T15:17:17.013Z</time></trkpt><trkpt lat="43.6842133" lon="11.1048767"><ele>141.5</ele><time>2026-04-04T15:17:18.013Z</time></trkpt><trkpt lat="43.68429" lon="11.1047517"><ele>141.75</ele><time>2026-04-04T15:17:19.013Z</time></trkpt><trkpt lat="43.68437" lon="11.1046233"><ele>142.0</ele><time>2026-04-04T15:17:20.012Z</time></trkpt><trkpt lat="43.68445" lon="11.1044967"><ele>141.0</ele><time>2026-04-04T15:17:21.012Z</time></trkpt><trkpt lat="43.68453" lon="11.1043733"><ele>140.0</ele><time>2026-04-04T15:17:22.012Z</time></trkpt><trkpt lat="43.6846117" lon="11.1042467"><ele>139.0</ele><time>2026-04-04T15:17:23.013Z</time></trkpt><trkpt lat="43.6846933" lon="11.1041167"><ele>138.0</ele><time>2026-04-04T15:17:24.014Z</time></trkpt><trkpt lat="43.684775" lon="11.1039767"><ele>138.0</ele><time>2026-04-04T15:17:25.01Z</time></trkpt><trkpt lat="43.6848533" lon="11.103835"><ele>138.0</ele><time>2026-04-04T15:17:26.012Z</time></trkpt><trkpt lat="43.684925" lon="11.1036733"><ele>138.0</ele><time>2026-04-04T15:17:27.011Z</time></trkpt><trkpt lat="43.6849883" lon="11.1035033"><ele>138.0</ele><time>2026-04-04T15:17:28.012Z</time></trkpt><trkpt lat="43.6850533" lon="11.1033317"><ele>137.25</ele><time>2026-04-04T15:17:29.011Z</time></trkpt><trkpt lat="43.6851283" lon="11.10316"><ele>136.5</ele><time>2026-04-04T15:17:30.013Z</time></trkpt><trkpt lat="43.6852067" lon="11.10299"><ele>135.75</ele><time>2026-04-04T15:17:31.012Z</time></trkpt><trkpt lat="43.6852817" lon="11.1028333"><ele>135.0</ele><time>2026-04-04T15:17:32.011Z</time></trkpt><trkpt lat="43.6853667" lon="11.1026983"><ele>134.75</ele><time>2026-04-04T15:17:33.01Z</time></trkpt><trkpt lat="43.6854567" lon="11.1025567"><ele>134.5</ele><time>2026-04-04T15:17:34.011Z</time></trkpt><trkpt lat="43.685545" lon="11.1024"><ele>134.25</ele><time>2026-04-04T15:17:35.012Z</time></trkpt><trkpt lat="43.685625" lon="11.10221"><ele>134.0</ele><time>2026-04-04T15:17:36.012Z</time></trkpt><trkpt lat="43.685715" lon="11.10201"><ele>133.0</ele><time>2026-04-04T15:17:37.011Z</time></trkpt><trkpt lat="43.6858067" lon="11.10181"><ele>132.0</ele><time>2026-04-04T15:17:38.01Z</time></trkpt><trkpt lat="43.68589" lon="11.10161"><ele>131.0</ele><time>2026-04-04T15:17:39.011Z</time></trkpt><trkpt lat="43.6859667" lon="11.1014167"><ele>131.33333333333331</ele><time>2026-04-04T15:17:40.01Z</time></trkpt><trkpt lat="43.686045" lon="11.101235"><ele>131.66666666666666</ele><time>2026-04-04T15:17:41.013Z</time></trkpt><trkpt lat="43.6861283" lon="11.10106"><ele>132.0</ele><time>2026-04-04T15:17:42.011Z</time></trkpt><trkpt lat="43.68621" lon="11.1008767"><ele>131.33333333333334</ele><time>2026-04-04T15:17:43.011Z</time></trkpt><trkpt lat="43.68629" lon="11.10069"><ele>130.66666666666669</ele><time>2026-04-04T15:17:44.012Z</time></trkpt><trkpt lat="43.6863717" lon="11.1005033"><ele>130.0</ele><time>2026-04-04T15:17:45.01Z</time></trkpt><trkpt lat="43.6864633" lon="11.1003283"><ele>130.0</ele><time>2026-04-04T15:17:46.009Z</time></trkpt><trkpt lat="43.6865583" lon="11.10016"><ele>130.0</ele><time>2026-04-04T15:17:47.01Z</time></trkpt><trkpt lat="43.6866733" lon="11.0999967"><ele>130.0</ele><time>2026-04-04T15:17:48.013Z</time></trkpt><trkpt lat="43.6868" lon="11.0998283"><ele>131.0</ele><time>2026-04-04T15:17:49.012Z</time></trkpt><trkpt lat="43.6869333" lon="11.0996583"><ele>132.0</ele><time>2026-04-04T15:17:50.01Z</time></trkpt><trkpt lat="43.6870633" lon="11.0994817"><ele>133.0</ele><time>2026-04-04T15:17:51.012Z</time></trkpt><trkpt lat="43.687195" lon="11.0992983"><ele>133.0</ele><time>2026-04-04T15:17:52.012Z</time></trkpt><trkpt lat="43.6873317" lon="11.0991133"><ele>133.0</ele><time>2026-04-04T15:17:53.011Z</time></trkpt><trkpt lat="43.6874683" lon="11.0989283"><ele>133.0</ele><time>2026-04-04T15:17:54.011Z</time></trkpt><trkpt lat="43.6876067" lon="11.09875"><ele>134.0</ele><time>2026-04-04T15:17:55.012Z</time></trkpt><trkpt lat="43.6877433" lon="11.0985767"><ele>135.0</ele><time>2026-04-04T15:17:56.011Z</time></trkpt><trkpt lat="43.68788" lon="11.0984233"><ele>136.0</ele><time>2026-04-04T15:17:57.01Z</time></trkpt><trkpt lat="43.688015" lon="11.0982933"><ele>135.0</ele><time>2026-04-04T15:17:58.01Z</time></trkpt><trkpt lat="43.6881417" lon="11.0981717"><ele>134.0</ele><time>2026-04-04T15:17:59.009Z</time></trkpt><trkpt lat="43.6882583" lon="11.0980683"><ele>133.0</ele><time>2026-04-04T15:18:00.012Z</time></trkpt><trkpt lat="43.6883717" lon="11.0979583"><ele>132.0</ele><time>2026-04-04T15:18:01.012Z</time></trkpt><trkpt lat="43.6884917" lon="11.097825"><ele>130.33333333333334</ele><time>2026-04-04T15:18:02.011Z</time></trkpt><trkpt lat="43.6886117" lon="11.097675"><ele>128.66666666666669</ele><time>2026-04-04T15:18:03.011Z</time></trkpt><trkpt lat="43.6887417" lon="11.0975167"><ele>127.0</ele><time>2026-04-04T15:18:04.01Z</time></trkpt><trkpt lat="43.6888767" lon="11.0973517"><ele>127.0</ele><time>2026-04-04T15:18:05.01Z</time></trkpt><trkpt lat="43.6890067" lon="11.0971833"><ele>127.0</ele><time>2026-04-04T15:18:06.01Z</time></trkpt><trkpt lat="43.6891283" lon="11.0970167"><ele>127.0</ele><time>2026-04-04T15:18:07.011Z</time></trkpt><trkpt lat="43.6892483" lon="11.096865"><ele>127.0</ele><time>2026-04-04T15:18:08.01Z</time></trkpt><trkpt lat="43.6893667" lon="11.096725"><ele>127.0</ele><time>2026-04-04T15:18:09.011Z</time></trkpt><trkpt lat="43.6894833" lon="11.0965967"><ele>127.0</ele><time>2026-04-04T15:18:10.01Z</time></trkpt><trkpt lat="43.6896067" lon="11.0964767"><ele>125.0</ele><time>2026-04-04T15:18:11.01Z</time></trkpt><trkpt lat="43.6897417" lon="11.09636"><ele>123.0</ele><time>2026-04-04T15:18:12.01Z</time></trkpt><trkpt lat="43.68988" lon="11.0962533"><ele>121.0</ele><time>2026-04-04T15:18:13.009Z</time></trkpt><trkpt lat="43.6900067" lon="11.0961433"><ele>121.0</ele><time>2026-04-04T15:18:14.012Z</time></trkpt><trkpt lat="43.690125" lon="11.09603"><ele>121.0</ele><time>2026-04-04T15:18:15.013Z</time></trkpt><trkpt lat="43.69023" lon="11.0959117"><ele>121.0</ele><time>2026-04-04T15:18:16.011Z</time></trkpt><trkpt lat="43.6903283" lon="11.0957667"><ele>121.0</ele><time>2026-04-04T15:18:17.01Z</time></trkpt><trkpt lat="43.6904167" lon="11.0955933"><ele>117.0</ele><time>2026-04-04T15:18:18.011Z</time></trkpt><trkpt lat="43.6905" lon="11.0954067"><ele>113.0</ele><time>2026-04-04T15:18:19.013Z</time></trkpt><trkpt lat="43.6905833" lon="11.095215"><ele>109.0</ele><time>2026-04-04T15:18:20.012Z</time></trkpt><trkpt lat="43.6906717" lon="11.0950367"><ele>108.75</ele><time>2026-04-04T15:18:21.011Z</time></trkpt><trkpt lat="43.6907717" lon="11.0948833"><ele>108.5</ele><time>2026-04-04T15:18:22.011Z</time></trkpt><trkpt lat="43.69088" lon="11.094755"><ele>108.25</ele><time>2026-04-04T15:18:23.01Z</time></trkpt><trkpt lat="43.691015" lon="11.0946583"><ele>108.0</ele><time>2026-04-04T15:18:24.012Z</time></trkpt><trkpt lat="43.6911667" lon="11.0945633"><ele>107.33333333333334</ele><time>2026-04-04T15:18:25.01Z</time></trkpt><trkpt lat="43.69133" lon="11.0944633"><ele>106.66666666666667</ele><time>2026-04-04T15:18:26.01Z</time></trkpt><trkpt lat="43.6914967" lon="11.09436"><ele>106.0</ele><time>2026-04-04T15:18:27.011Z</time></trkpt><trkpt lat="43.6916617" lon="11.0942633"><ele>106.0</ele><time>2026-04-04T15:18:28.01Z</time></trkpt><trkpt lat="43.6918183" lon="11.094185"><ele>106.0</ele><time>2026-04-04T15:18:29.011Z</time></trkpt><trkpt lat="43.6919583" lon="11.094125"><ele>106.0</ele><time>2026-04-04T15:18:30.011Z</time></trkpt><trkpt lat="43.6920833" lon="11.094075"><ele>106.0</ele><time>2026-04-04T15:18:31.012Z</time></trkpt><trkpt lat="43.6921983" lon="11.0940417"><ele>106.19999999999999</ele><time>2026-04-04T15:18:32.012Z</time></trkpt><trkpt lat="43.69231" lon="11.0940283"><ele>106.39999999999999</ele><time>2026-04-04T15:18:33.01Z</time></trkpt><trkpt lat="43.6924117" lon="11.0940367"><ele>106.6</ele><time>2026-04-04T15:18:34.011Z</time></trkpt><trkpt lat="43.69251" lon="11.0940783"><ele>106.8</ele><time>2026-04-04T15:18:35.011Z</time></trkpt><trkpt lat="43.6926017" lon="11.0941617"><ele>107.0</ele><time>2026-04-04T15:18:36.011Z</time></trkpt><trkpt lat="43.69267" lon="11.0942733"><ele>105.6</ele><time>2026-04-04T15:18:37.01Z</time></trkpt><trkpt lat="43.6927067" lon="11.0943983"><ele>104.19999999999999</ele><time>2026-04-04T15:18:38.012Z</time></trkpt><trkpt lat="43.6927017" lon="11.09452"><ele>102.8</ele><time>2026-04-04T15:18:39.01Z</time></trkpt><trkpt lat="43.69266" lon="11.0946383"><ele>101.4</ele><time>2026-04-04T15:18:40.01Z</time></trkpt><trkpt lat="43.69258" lon="11.0947417"><ele>100.0</ele><time>2026-04-04T15:18:41.01Z</time></trkpt><trkpt lat="43.6924733" lon="11.0948233"><ele>100.0</ele><time>2026-04-04T15:18:42.011Z</time></trkpt><trkpt lat="43.6923517" lon="11.0948917"><ele>100.0</ele><time>2026-04-04T15:18:43.013Z</time></trkpt><trkpt lat="43.69224" lon="11.094955"><ele>100.0</ele><time>2026-04-04T15:18:44.01Z</time></trkpt><trkpt lat="43.692145" lon="11.0950183"><ele>100.0</ele><time>2026-04-04T15:18:45.013Z</time></trkpt><trkpt lat="43.6920917" lon="11.0950767"><ele>100.0</ele><time>2026-04-04T15:18:46.01Z</time></trkpt><trkpt lat="43.69202" lon="11.095195"><ele>98.2</ele><time>2026-04-04T15:18:48.012Z</time></trkpt><trkpt lat="43.6920317" lon="11.0953717"><ele>96.4</ele><time>2026-04-04T15:18:50.012Z</time></trkpt><trkpt lat="43.692105" lon="11.0954383"><ele>94.6</ele><time>2026-04-04T15:18:51.011Z</time></trkpt><trkpt lat="43.692195" lon="11.0954667"><ele>92.8</ele><time>2026-04-04T15:18:52.012Z</time></trkpt><trkpt lat="43.69229" lon="11.0954433"><ele>91.0</ele><time>2026-04-04T15:18:53.01Z</time></trkpt><trkpt lat="43.6923967" lon="11.0953617"><ele>91.0</ele><time>2026-04-04T15:18:54.013Z</time></trkpt><trkpt lat="43.6924933" lon="11.095335"><ele>91.0</ele><time>2026-04-04T15:18:55.01Z</time></trkpt><trkpt lat="43.6925783" lon="11.095355"><ele>91.0</ele><time>2026-04-04T15:18:56.012Z</time></trkpt><trkpt lat="43.69264" lon="11.0954383"><ele>91.0</ele><time>2026-04-04T15:18:57.011Z</time></trkpt><trkpt lat="43.6926717" lon="11.0955867"><ele>91.0</ele><time>2026-04-04T15:18:58.012Z</time></trkpt><trkpt lat="43.6926933" lon="11.09578"><ele>88.5</ele><time>2026-04-04T15:18:59.01Z</time></trkpt><trkpt lat="43.6927183" lon="11.09597"><ele>86.0</ele><time>2026-04-04T15:19:00.011Z</time></trkpt><trkpt lat="43.69277" lon="11.0961517"><ele>83.5</ele><time>2026-04-04T15:19:01.011Z</time></trkpt><trkpt lat="43.6928483" lon="11.0963167"><ele>81.0</ele><time>2026-04-04T15:19:02.01Z</time></trkpt><trkpt lat="43.6929467" lon="11.0964767"><ele>77.5</ele><time>2026-04-04T15:19:03.012Z</time></trkpt><trkpt lat="43.69305" lon="11.0966383"><ele>74.0</ele><time>2026-04-04T15:19:04.011Z</time></trkpt><trkpt lat="43.69315" lon="11.0967933"><ele>70.5</ele><time>2026-04-04T15:19:05.011Z</time></trkpt><trkpt lat="43.69324" lon="11.0969417"><ele>67.0</ele><time>2026-04-04T15:19:06.011Z</time></trkpt><trkpt lat="43.69333" lon="11.0970933"><ele>67.0</ele><time>2026-04-04T15:19:07.01Z</time></trkpt><trkpt lat="43.6934317" lon="11.097235"><ele>67.0</ele><time>2026-04-04T15:19:08.011Z</time></trkpt><trkpt lat="43.6935417" lon="11.09738"><ele>67.0</ele><time>2026-04-04T15:19:09.011Z</time></trkpt><trkpt lat="43.6936617" lon="11.0975233"><ele>64.66666666666666</ele><time>2026-04-04T15:19:10.01Z</time></trkpt><trkpt lat="43.69378" lon="11.0976683"><ele>62.33333333333333</ele><time>2026-04-04T15:19:11.011Z</time></trkpt><trkpt lat="43.6938983" lon="11.09781"><ele>60.0</ele><time>2026-04-04T15:19:12.01Z</time></trkpt><trkpt lat="43.6940167" lon="11.09795"><ele>60.0</ele><time>2026-04-04T15:19:13.009Z</time></trkpt><trkpt lat="43.6941367" lon="11.0980833"><ele>60.0</ele><time>2026-04-04T15:19:14.01Z</time></trkpt><trkpt lat="43.6942533" lon="11.0982183"><ele>60.0</ele><time>2026-04-04T15:19:15.011Z</time></trkpt><trkpt lat="43.694375" lon="11.0983617"><ele>60.33333333333333</ele><time>2026-04-04T15:19:16.011Z</time></trkpt><trkpt lat="43.6945033" lon="11.0985"><ele>60.666666666666664</ele><time>2026-04-04T15:19:17.011Z</time></trkpt><trkpt lat="43.6946217" lon="11.0986333"><ele>61.0</ele><time>2026-04-04T15:19:18.011Z</time></trkpt><trkpt lat="43.6947333" lon="11.0987517"><ele>61.0</ele><time>2026-04-04T15:19:19.011Z</time></trkpt><trkpt lat="43.694835" lon="11.0988617"><ele>61.0</ele><time>2026-04-04T15:19:20.01Z</time></trkpt><trkpt lat="43.6949317" lon="11.0989667"><ele>61.0</ele><time>2026-04-04T15:19:21.012Z</time></trkpt><trkpt lat="43.69502" lon="11.0990567"><ele>61.0</ele><time>2026-04-04T15:19:22.009Z</time></trkpt><trkpt lat="43.6951017" lon="11.0991333"><ele>61.199999999999996</ele><time>2026-04-04T15:19:23.012Z</time></trkpt><trkpt lat="43.695185" lon="11.0992133"><ele>61.39999999999999</ele><time>2026-04-04T15:19:24.011Z</time></trkpt><trkpt lat="43.6952733" lon="11.0992917"><ele>61.6</ele><time>2026-04-04T15:19:25.01Z</time></trkpt><trkpt lat="43.6953683" lon="11.0993767"><ele>61.8</ele><time>2026-04-04T15:19:26.012Z</time></trkpt><trkpt lat="43.695465" lon="11.0994633"><ele>62.0</ele><time>2026-04-04T15:19:27.011Z</time></trkpt><trkpt lat="43.6955617" lon="11.099545"><ele>61.5</ele><time>2026-04-04T15:19:28.011Z</time></trkpt><trkpt lat="43.6956583" lon="11.0996233"><ele>61.0</ele><time>2026-04-04T15:19:29.01Z</time></trkpt><trkpt lat="43.6957583" lon="11.0997083"><ele>60.5</ele><time>2026-04-04T15:19:30.011Z</time></trkpt><trkpt lat="43.6958567" lon="11.0998033"><ele>60.0</ele><time>2026-04-04T15:19:31.011Z</time></trkpt><trkpt lat="43.6959617" lon="11.0998883"><ele>60.0</ele><time>2026-04-04T15:19:32.01Z</time></trkpt><trkpt lat="43.6960633" lon="11.0999717"><ele>60.0</ele><time>2026-04-04T15:19:33.011Z</time></trkpt><trkpt lat="43.69616" lon="11.1000267"><ele>60.0</ele><time>2026-04-04T15:19:34.011Z</time></trkpt><trkpt lat="43.69625" lon="11.1000517"><ele>60.0</ele><time>2026-04-04T15:19:35.011Z</time></trkpt><trkpt lat="43.6963317" lon="11.1000617"><ele>60.0</ele><time>2026-04-04T15:19:36.009Z</time></trkpt><trkpt lat="43.6963967" lon="11.1000567"><ele>60.166666666666664</ele><time>2026-04-04T15:19:37.009Z</time></trkpt><trkpt lat="43.6964783" lon="11.100035"><ele>60.33333333333333</ele><time>2026-04-04T15:19:39.009Z</time></trkpt><trkpt lat="43.696555" lon="11.100015"><ele>60.5</ele><time>2026-04-04T15:20:32.011Z</time></trkpt><trkpt lat="43.696675" lon="11.1000183"><ele>60.666666666666664</ele><time>2026-04-04T15:20:34.01Z</time></trkpt><trkpt lat="43.6967317" lon="11.100065"><ele>60.83333333333333</ele><time>2026-04-04T15:20:35.01Z</time></trkpt><trkpt lat="43.6967717" lon="11.1001467"><ele>61.0</ele><time>2026-04-04T15:20:36.011Z</time></trkpt><trkpt lat="43.6968" lon="11.1002517"><ele>61.0</ele><time>2026-04-04T15:20:37.01Z</time></trkpt><trkpt lat="43.6967933" lon="11.1003883"><ele>60.99999999999999</ele><time>2026-04-04T15:20:38.01Z</time></trkpt><trkpt lat="43.696775" lon="11.1005267"><ele>60.99999999999999</ele><time>2026-04-04T15:20:39.01Z</time></trkpt><trkpt lat="43.69673" lon="11.1006767"><ele>61.0</ele><time>2026-04-04T15:20:40.011Z</time></trkpt><trkpt lat="43.6966717" lon="11.10083"><ele>61.0</ele><time>2026-04-04T15:20:41.01Z</time></trkpt><trkpt lat="43.6965883" lon="11.1009833"><ele>61.5</ele><time>2026-04-04T15:20:42.01Z</time></trkpt><trkpt lat="43.6964983" lon="11.10114"><ele>62.0</ele><time>2026-04-04T15:20:43.01Z</time></trkpt><trkpt lat="43.6964033" lon="11.1013017"><ele>62.5</ele><time>2026-04-04T15:20:44.011Z</time></trkpt><trkpt lat="43.6963117" lon="11.10146"><ele>63.0</ele><time>2026-04-04T15:20:45.011Z</time></trkpt><trkpt lat="43.696215" lon="11.101625"><ele>63.33333333333333</ele><time>2026-04-04T15:20:46.011Z</time></trkpt><trkpt lat="43.6961117" lon="11.10179"><ele>63.666666666666664</ele><time>2026-04-04T15:20:47.01Z</time></trkpt><trkpt lat="43.6960067" lon="11.10196"><ele>64.0</ele><time>2026-04-04T15:20:48.012Z</time></trkpt><trkpt lat="43.6959017" lon="11.10214"><ele>64.0</ele><time>2026-04-04T15:20:49.013Z</time></trkpt><trkpt lat="43.6958" lon="11.1023367"><ele>64.0</ele><time>2026-04-04T15:20:50.011Z</time></trkpt><trkpt lat="43.6957017" lon="11.1025517"><ele>64.0</ele><time>2026-04-04T15:20:51.01Z</time></trkpt><trkpt lat="43.695625" lon="11.1027933"><ele>64.33333333333333</ele><time>2026-04-04T15:20:52.011Z</time></trkpt><trkpt lat="43.6955567" lon="11.1030483"><ele>64.66666666666667</ele><time>2026-04-04T15:20:53.011Z</time></trkpt><trkpt lat="43.6955017" lon="11.10331"><ele>65.0</ele><time>2026-04-04T15:20:54.013Z</time></trkpt><trkpt lat="43.6954467" lon="11.1035617"><ele>65.25</ele><time>2026-04-04T15:20:55.01Z</time></trkpt><trkpt lat="43.6954033" lon="11.1037917"><ele>65.5</ele><time>2026-04-04T15:20:56.011Z</time></trkpt><trkpt lat="43.695365" lon="11.1039867"><ele>65.75</ele><time>2026-04-04T15:20:57.01Z</time></trkpt><trkpt lat="43.6953283" lon="11.1041417"><ele>66.0</ele><time>2026-04-04T15:20:58.011Z</time></trkpt><trkpt lat="43.6952717" lon="11.1042733"><ele>66.0</ele><time>2026-04-04T15:20:59.011Z</time></trkpt><trkpt lat="43.6952033" lon="11.1043983"><ele>66.0</ele><time>2026-04-04T15:21:00.01Z</time></trkpt><trkpt lat="43.6951383" lon="11.10452"><ele>66.0</ele><time>2026-04-04T15:21:01.011Z</time></trkpt><trkpt lat="43.69512" lon="11.1046517"><ele>66.0</ele><time>2026-04-04T15:21:02.011Z</time></trkpt><trkpt lat="43.6951217" lon="11.1048117"><ele>66.0</ele><time>2026-04-04T15:21:03.011Z</time></trkpt><trkpt lat="43.69513" lon="11.1050133"><ele>66.0</ele><time>2026-04-04T15:21:04.01Z</time></trkpt><trkpt lat="43.6951183" lon="11.1052467"><ele>66.0</ele><time>2026-04-04T15:21:05.011Z</time></trkpt><trkpt lat="43.6950817" lon="11.1055117"><ele>66.0</ele><time>2026-04-04T15:21:06.011Z</time></trkpt><trkpt lat="43.695035" lon="11.105785"><ele>66.33333333333333</ele><time>2026-04-04T15:21:07.011Z</time></trkpt><trkpt lat="43.6949867" lon="11.1060533"><ele>66.66666666666666</ele><time>2026-04-04T15:21:08.011Z</time></trkpt><trkpt lat="43.69494" lon="11.1063233"><ele>67.0</ele><time>2026-04-04T15:21:09.011Z</time></trkpt><trkpt lat="43.6948917" lon="11.10659"><ele>67.33333333333333</ele><time>2026-04-04T15:21:10.01Z</time></trkpt><trkpt lat="43.6948417" lon="11.1068433"><ele>67.66666666666667</ele><time>2026-04-04T15:21:11.01Z</time></trkpt><trkpt lat="43.6947867" lon="11.1070767"><ele>68.0</ele><time>2026-04-04T15:21:12.011Z</time></trkpt><trkpt lat="43.6947383" lon="11.1073"><ele>68.0</ele><time>2026-04-04T15:21:13.011Z</time></trkpt><trkpt lat="43.6946933" lon="11.1075167"><ele>68.0</ele><time>2026-04-04T15:21:14.01Z</time></trkpt><trkpt lat="43.6946517" lon="11.1077317"><ele>68.0</ele><time>2026-04-04T15:21:15.01Z</time></trkpt><trkpt lat="43.694615" lon="11.1079333"><ele>68.0</ele><time>2026-04-04T15:21:16.013Z</time></trkpt><trkpt lat="43.6945817" lon="11.1081167"><ele>68.0</ele><time>2026-04-04T15:21:17.011Z</time></trkpt><trkpt lat="43.6945517" lon="11.108285"><ele>68.0</ele><time>2026-04-04T15:21:18.011Z</time></trkpt><trkpt lat="43.69452" lon="11.1084467"><ele>68.0</ele><time>2026-04-04T15:21:19.011Z</time></trkpt><trkpt lat="43.6944817" lon="11.1086217"><ele>68.0</ele><time>2026-04-04T15:21:20.012Z</time></trkpt><trkpt lat="43.6944233" lon="11.1088167"><ele>68.0</ele><time>2026-04-04T15:21:21.01Z</time></trkpt><trkpt lat="43.694345" lon="11.1090167"><ele>68.0</ele><time>2026-04-04T15:21:22.011Z</time></trkpt><trkpt lat="43.69426" lon="11.109215"><ele>69.0</ele><time>2026-04-04T15:21:23.01Z</time></trkpt><trkpt lat="43.694165" lon="11.109405"><ele>70.0</ele><time>2026-04-04T15:21:24.012Z</time></trkpt><trkpt lat="43.694075" lon="11.1095933"><ele>71.0</ele><time>2026-04-04T15:21:25.011Z</time></trkpt><trkpt lat="43.6939967" lon="11.10979"><ele>71.66666666666667</ele><time>2026-04-04T15:21:26.013Z</time></trkpt><trkpt lat="43.6939233" lon="11.10999"><ele>72.33333333333333</ele><time>2026-04-04T15:21:27.011Z</time></trkpt><trkpt lat="43.6938533" lon="11.1101983"><ele>73.0</ele><time>2026-04-04T15:21:28.011Z</time></trkpt><trkpt lat="43.6937967" lon="11.1104217"><ele>73.0</ele><time>2026-04-04T15:21:29.011Z</time></trkpt><trkpt lat="43.69375" lon="11.1106433"><ele>73.0</ele><time>2026-04-04T15:21:30.012Z</time></trkpt><trkpt lat="43.6937217" lon="11.1108567"><ele>73.0</ele><time>2026-04-04T15:21:31.013Z</time></trkpt><trkpt lat="43.6937033" lon="11.111065"><ele>72.75</ele><time>2026-04-04T15:21:32.011Z</time></trkpt><trkpt lat="43.693685" lon="11.1112667"><ele>72.5</ele><time>2026-04-04T15:21:33.011Z</time></trkpt><trkpt lat="43.693655" lon="11.1114617"><ele>72.25</ele><time>2026-04-04T15:21:34.01Z</time></trkpt><trkpt lat="43.69361" lon="11.1116583"><ele>72.0</ele><time>2026-04-04T15:21:35.012Z</time></trkpt><trkpt lat="43.6935417" lon="11.11184"><ele>72.0</ele><time>2026-04-04T15:21:36.012Z</time></trkpt><trkpt lat="43.6934467" lon="11.11201"><ele>72.0</ele><time>2026-04-04T15:21:37.01Z</time></trkpt><trkpt lat="43.6933433" lon="11.11219"><ele>72.0</ele><time>2026-04-04T15:21:38.011Z</time></trkpt><trkpt lat="43.6932317" lon="11.1123983"><ele>74.5</ele><time>2026-04-04T15:21:39.011Z</time></trkpt><trkpt lat="43.693095" lon="11.1126433"><ele>77.0</ele><time>2026-04-04T15:21:40.012Z</time></trkpt><trkpt lat="43.69293" lon="11.1129017"><ele>75.0</ele><time>2026-04-04T15:21:41.012Z</time></trkpt><trkpt lat="43.692745" lon="11.113155"><ele>73.0</ele><time>2026-04-04T15:21:42.011Z</time></trkpt><trkpt lat="43.6925517" lon="11.1134017"><ele>73.0</ele><time>2026-04-04T15:21:43.012Z</time></trkpt><trkpt lat="43.69236" lon="11.1136517"><ele>73.0</ele><time>2026-04-04T15:21:44.013Z</time></trkpt><trkpt lat="43.6921783" lon="11.113905"><ele>75.0</ele><time>2026-04-04T15:21:45.012Z</time></trkpt><trkpt lat="43.6920117" lon="11.1141433"><ele>77.0</ele><time>2026-04-04T15:21:46.01Z</time></trkpt><trkpt lat="43.691855" lon="11.114385"><ele>73.0</ele><time>2026-04-04T15:21:47.01Z</time></trkpt><trkpt lat="43.6917033" lon="11.114635"><ele>69.0</ele><time>2026-04-04T15:21:48.013Z</time></trkpt><trkpt lat="43.69156" lon="11.1148917"><ele>70.0</ele><time>2026-04-04T15:21:49.011Z</time></trkpt><trkpt lat="43.69143" lon="11.1151633"><ele>71.0</ele><time>2026-04-04T15:21:50.011Z</time></trkpt><trkpt lat="43.6913083" lon="11.1154383"><ele>71.0</ele><time>2026-04-04T15:21:51.012Z</time></trkpt><trkpt lat="43.6911883" lon="11.1157167"><ele>71.0</ele><time>2026-04-04T15:21:52.011Z</time></trkpt><trkpt lat="43.6910767" lon="11.116"><ele>71.0</ele><time>2026-04-04T15:21:53.01Z</time></trkpt><trkpt lat="43.6909717" lon="11.11629"><ele>71.0</ele><time>2026-04-04T15:21:54.01Z</time></trkpt><trkpt lat="43.6908867" lon="11.11659"><ele>71.0</ele><time>2026-04-04T15:21:55.01Z</time></trkpt><trkpt lat="43.6908133" lon="11.1168933"><ele>71.0</ele><time>2026-04-04T15:21:56.012Z</time></trkpt><trkpt lat="43.690725" lon="11.117175"><ele>71.0</ele><time>2026-04-04T15:21:57.011Z</time></trkpt><trkpt lat="43.69062" lon="11.1174367"><ele>71.0</ele><time>2026-04-04T15:21:58.012Z</time></trkpt><trkpt lat="43.6904917" lon="11.1176833"><ele>71.0</ele><time>2026-04-04T15:21:59.013Z</time></trkpt><trkpt lat="43.6903517" lon="11.11792"><ele>70.66666666666667</ele><time>2026-04-04T15:22:00.012Z</time></trkpt><trkpt lat="43.6901983" lon="11.1181417"><ele>70.33333333333333</ele><time>2026-04-04T15:22:01.012Z</time></trkpt><trkpt lat="43.690035" lon="11.1183383"><ele>70.0</ele><time>2026-04-04T15:22:02.011Z</time></trkpt><trkpt lat="43.6898683" lon="11.1185017"><ele>70.66666666666666</ele><time>2026-04-04T15:22:03.011Z</time></trkpt><trkpt lat="43.6897017" lon="11.1186383"><ele>71.33333333333333</ele><time>2026-04-04T15:22:04.011Z</time></trkpt><trkpt lat="43.6895567" lon="11.11877"><ele>72.0</ele><time>2026-04-04T15:22:05.011Z</time></trkpt><trkpt lat="43.68943" lon="11.1189167"><ele>72.0</ele><time>2026-04-04T15:22:06.012Z</time></trkpt><trkpt lat="43.689335" lon="11.1191"><ele>72.0</ele><time>2026-04-04T15:22:07.011Z</time></trkpt><trkpt lat="43.6892917" lon="11.1193283"><ele>72.0</ele><time>2026-04-04T15:22:08.013Z</time></trkpt><trkpt lat="43.6892833" lon="11.11957"><ele>72.0</ele><time>2026-04-04T15:22:09.013Z</time></trkpt><trkpt lat="43.689305" lon="11.11981"><ele>72.0</ele><time>2026-04-04T15:22:10.012Z</time></trkpt><trkpt lat="43.6893217" lon="11.1200433"><ele>72.0</ele><time>2026-04-04T15:22:11.012Z</time></trkpt><trkpt lat="43.6893233" lon="11.1202733"><ele>72.0</ele><time>2026-04-04T15:22:12.013Z</time></trkpt><trkpt lat="43.6893067" lon="11.12049"><ele>72.0</ele><time>2026-04-04T15:22:13.013Z</time></trkpt><trkpt lat="43.68928" lon="11.1206883"><ele>72.0</ele><time>2026-04-04T15:22:14.011Z</time></trkpt><trkpt lat="43.6892467" lon="11.12087"><ele>72.0</ele><time>2026-04-04T15:22:15.011Z</time></trkpt><trkpt lat="43.6892117" lon="11.1210417"><ele>72.25</ele><time>2026-04-04T15:22:16.011Z</time></trkpt><trkpt lat="43.6891733" lon="11.1211983"><ele>72.5</ele><time>2026-04-04T15:22:17.011Z</time></trkpt><trkpt lat="43.6891433" lon="11.121345"><ele>72.75</ele><time>2026-04-04T15:22:18.01Z</time></trkpt><trkpt lat="43.6891167" lon="11.1214883"><ele>73.0</ele><time>2026-04-04T15:22:19.013Z</time></trkpt><trkpt lat="43.6890833" lon="11.1216383"><ele>73.25</ele><time>2026-04-04T15:22:20.011Z</time></trkpt><trkpt lat="43.6890383" lon="11.121795"><ele>73.5</ele><time>2026-04-04T15:22:21.011Z</time></trkpt><trkpt lat="43.68898" lon="11.1219467"><ele>73.75</ele><time>2026-04-04T15:22:22.011Z</time></trkpt><trkpt lat="43.6888983" lon="11.1220817"><ele>74.0</ele><time>2026-04-04T15:22:23.011Z</time></trkpt><trkpt lat="43.6888017" lon="11.1222033"><ele>74.0</ele><time>2026-04-04T15:22:24.012Z</time></trkpt><trkpt lat="43.6886933" lon="11.1223167"><ele>74.0</ele><time>2026-04-04T15:22:25.011Z</time></trkpt><trkpt lat="43.6885867" lon="11.1224267"><ele>74.0</ele><time>2026-04-04T15:22:26.01Z</time></trkpt><trkpt lat="43.68848" lon="11.1225367"><ele>74.0</ele><time>2026-04-04T15:22:27.012Z</time></trkpt><trkpt lat="43.6883783" lon="11.1226483"><ele>74.25</ele><time>2026-04-04T15:22:28.012Z</time></trkpt><trkpt lat="43.6882867" lon="11.1227667"><ele>74.5</ele><time>2026-04-04T15:22:29.013Z</time></trkpt><trkpt lat="43.68821" lon="11.1228917"><ele>74.75</ele><time>2026-04-04T15:22:30.013Z</time></trkpt><trkpt lat="43.6881383" lon="11.1230217"><ele>75.0</ele><time>2026-04-04T15:22:31.013Z</time></trkpt><trkpt lat="43.6880633" lon="11.1231483"><ele>74.75</ele><time>2026-04-04T15:22:32.011Z</time></trkpt><trkpt lat="43.6879783" lon="11.12328"><ele>74.5</ele><time>2026-04-04T15:22:33.012Z</time></trkpt><trkpt lat="43.6878833" lon="11.123405"><ele>74.25</ele><time>2026-04-04T15:22:34.013Z</time></trkpt><trkpt lat="43.687785" lon="11.123525"><ele>74.0</ele><time>2026-04-04T15:22:35.013Z</time></trkpt><trkpt lat="43.6876867" lon="11.1236517"><ele>74.0</ele><time>2026-04-04T15:22:36.011Z</time></trkpt><trkpt lat="43.6875883" lon="11.12378"><ele>74.0</ele><time>2026-04-04T15:22:37.011Z</time></trkpt><trkpt lat="43.6874867" lon="11.123915"><ele>74.0</ele><time>2026-04-04T15:22:38.013Z</time></trkpt><trkpt lat="43.6873883" lon="11.1240483"><ele>74.0</ele><time>2026-04-04T15:22:39.011Z</time></trkpt><trkpt lat="43.6872933" lon="11.1241667"><ele>73.75</ele><time>2026-04-04T15:22:40.013Z</time></trkpt><trkpt lat="43.687195" lon="11.12429"><ele>73.5</ele><time>2026-04-04T15:22:41.015Z</time></trkpt><trkpt lat="43.6870967" lon="11.1244183"><ele>73.25</ele><time>2026-04-04T15:22:42.011Z</time></trkpt><trkpt lat="43.6869967" lon="11.1245383"><ele>73.0</ele><time>2026-04-04T15:22:43.011Z</time></trkpt><trkpt lat="43.6869" lon="11.1246583"><ele>73.0</ele><time>2026-04-04T15:22:44.011Z</time></trkpt><trkpt lat="43.68681" lon="11.12477"><ele>73.0</ele><time>2026-04-04T15:22:45.012Z</time></trkpt><trkpt lat="43.6867233" lon="11.1248783"><ele>73.0</ele><time>2026-04-04T15:22:46.012Z</time></trkpt><trkpt lat="43.6866467" lon="11.1249817"><ele>73.0</ele><time>2026-04-04T15:22:47.012Z</time></trkpt><trkpt lat="43.6865667" lon="11.1250833"><ele>73.8</ele><time>2026-04-04T15:22:48.015Z</time></trkpt><trkpt lat="43.6864883" lon="11.1251817"><ele>74.6</ele><time>2026-04-04T15:22:49.012Z</time></trkpt><trkpt lat="43.686405" lon="11.1252833"><ele>75.4</ele><time>2026-04-04T15:22:50.011Z</time></trkpt><trkpt lat="43.686325" lon="11.125385"><ele>76.2</ele><time>2026-04-04T15:22:51.013Z</time></trkpt><trkpt lat="43.6862417" lon="11.1254833"><ele>77.0</ele><time>2026-04-04T15:22:52.014Z</time></trkpt><trkpt lat="43.686155" lon="11.125585"><ele>77.2</ele><time>2026-04-04T15:22:53.014Z</time></trkpt><trkpt lat="43.6860667" lon="11.1256783"><ele>77.4</ele><time>2026-04-04T15:22:54.012Z</time></trkpt><trkpt lat="43.685985" lon="11.1257667"><ele>77.6</ele><time>2026-04-04T15:22:55.01Z</time></trkpt><trkpt lat="43.685895" lon="11.1258583"><ele>77.8</ele><time>2026-04-04T15:22:56.011Z</time></trkpt><trkpt lat="43.685805" lon="11.1259417"><ele>78.0</ele><time>2026-04-04T15:22:57.011Z</time></trkpt><trkpt lat="43.685715" lon="11.1260183"><ele>78.0</ele><time>2026-04-04T15:22:58.012Z</time></trkpt><trkpt lat="43.6856217" lon="11.1260983"><ele>78.0</ele><time>2026-04-04T15:22:59.012Z</time></trkpt><trkpt lat="43.6855317" lon="11.1261767"><ele>78.0</ele><time>2026-04-04T15:23:00.011Z</time></trkpt><trkpt lat="43.68544" lon="11.12626"><ele>78.0</ele><time>2026-04-04T15:23:01.011Z</time></trkpt><trkpt lat="43.68535" lon="11.126355"><ele>78.0</ele><time>2026-04-04T15:23:02.012Z</time></trkpt><trkpt lat="43.6852667" lon="11.126445"><ele>78.33333333333333</ele><time>2026-04-04T15:23:03.01Z</time></trkpt><trkpt lat="43.6851833" lon="11.1265267"><ele>78.66666666666667</ele><time>2026-04-04T15:23:04.011Z</time></trkpt><trkpt lat="43.6851067" lon="11.126595"><ele>79.0</ele><time>2026-04-04T15:23:05.011Z</time></trkpt><trkpt lat="43.6850417" lon="11.12666"><ele>79.33333333333334</ele><time>2026-04-04T15:23:06.011Z</time></trkpt><trkpt lat="43.684985" lon="11.1267217"><ele>79.66666666666667</ele><time>2026-04-04T15:23:07.012Z</time></trkpt><trkpt lat="43.6849317" lon="11.1267833"><ele>80.0</ele><time>2026-04-04T15:23:08.01Z</time></trkpt><trkpt lat="43.68488" lon="11.1268517"><ele>80.0</ele><time>2026-04-04T15:23:09.014Z</time></trkpt><trkpt lat="43.6848233" lon="11.1269233"><ele>80.0</ele><time>2026-04-04T15:23:10.012Z</time></trkpt><trkpt lat="43.684765" lon="11.127"><ele>80.0</ele><time>2026-04-04T15:23:11.011Z</time></trkpt><trkpt lat="43.6847083" lon="11.1270833"><ele>80.0</ele><time>2026-04-04T15:23:12.013Z</time></trkpt><trkpt lat="43.6846533" lon="11.1271683"><ele>80.0</ele><time>2026-04-04T15:23:13.013Z</time></trkpt><trkpt lat="43.6845983" lon="11.127255"><ele>80.0</ele><time>2026-04-04T15:23:14.013Z</time></trkpt><trkpt lat="43.684545" lon="11.1273383"><ele>80.33333333333334</ele><time>2026-04-04T15:23:15.012Z</time></trkpt><trkpt lat="43.684505" lon="11.1274183"><ele>80.66666666666667</ele><time>2026-04-04T15:23:16.011Z</time></trkpt><trkpt lat="43.68445" lon="11.1275217"><ele>81.0</ele><time>2026-04-04T15:23:18.013Z</time></trkpt><trkpt lat="43.6844167" lon="11.1275983"><ele>81.33333333333333</ele><time>2026-04-04T15:23:21.011Z</time></trkpt><trkpt lat="43.6843717" lon="11.1277017"><ele>81.66666666666666</ele><time>2026-04-04T15:23:26.011Z</time></trkpt><trkpt lat="43.6843483" lon="11.1277867"><ele>82.0</ele><time>2026-04-04T15:23:29.013Z</time></trkpt><trkpt lat="43.684365" lon="11.127915"><ele>82.0</ele><time>2026-04-04T15:23:31.014Z</time></trkpt><trkpt lat="43.6844083" lon="11.1280883"><ele>82.0</ele><time>2026-04-04T15:23:33.014Z</time></trkpt><trkpt lat="43.6844433" lon="11.1281833"><ele>82.0</ele><time>2026-04-04T15:23:34.012Z</time></trkpt><trkpt lat="43.6844833" lon="11.1282783"><ele>82.0</ele><time>2026-04-04T15:23:35.012Z</time></trkpt><trkpt lat="43.6845383" lon="11.128385"><ele>82.0</ele><time>2026-04-04T15:23:36.012Z</time></trkpt><trkpt lat="43.6845817" lon="11.1284933"><ele>82.39999999999999</ele><time>2026-04-04T15:23:37.012Z</time></trkpt><trkpt lat="43.684625" lon="11.128605"><ele>82.8</ele><time>2026-04-04T15:23:38.011Z</time></trkpt><trkpt lat="43.6846633" lon="11.1287317"><ele>83.2</ele><time>2026-04-04T15:23:39.013Z</time></trkpt><trkpt lat="43.6846967" lon="11.1288633"><ele>83.6</ele><time>2026-04-04T15:23:40.013Z</time></trkpt><trkpt lat="43.6847333" lon="11.1289983"><ele>84.0</ele><time>2026-04-04T15:23:41.012Z</time></trkpt><trkpt lat="43.6847717" lon="11.12913"><ele>84.2</ele><time>2026-04-04T15:23:42.012Z</time></trkpt><trkpt lat="43.6848067" lon="11.1292617"><ele>84.4</ele><time>2026-04-04T15:23:43.013Z</time></trkpt><trkpt lat="43.684865" lon="11.1293717"><ele>84.6</ele><time>2026-04-04T15:23:44.012Z</time></trkpt><trkpt lat="43.68492" lon="11.1294783"><ele>84.8</ele><time>2026-04-04T15:23:45.011Z</time></trkpt><trkpt lat="43.684975" lon="11.129585"><ele>85.0</ele><time>2026-04-04T15:23:46.011Z</time></trkpt><trkpt lat="43.6850483" lon="11.129685"><ele>85.0</ele><time>2026-04-04T15:23:47.01Z</time></trkpt><trkpt lat="43.6851217" lon="11.1297733"><ele>85.0</ele><time>2026-04-04T15:23:48.012Z</time></trkpt><trkpt lat="43.6852033" lon="11.1298567"><ele>85.0</ele><time>2026-04-04T15:23:49.011Z</time></trkpt><trkpt lat="43.6852783" lon="11.1299333"><ele>85.0</ele><time>2026-04-04T15:23:50.014Z</time></trkpt><trkpt lat="43.6853517" lon="11.1300017"><ele>85.0</ele><time>2026-04-04T15:23:51.012Z</time></trkpt><trkpt lat="43.6854167" lon="11.13007"><ele>85.83333333333333</ele><time>2026-04-04T15:23:52.013Z</time></trkpt><trkpt lat="43.6854867" lon="11.130135"><ele>86.66666666666666</ele><time>2026-04-04T15:23:53.012Z</time></trkpt><trkpt lat="43.6855517" lon="11.1301983"><ele>87.5</ele><time>2026-04-04T15:23:54.013Z</time></trkpt><trkpt lat="43.6856133" lon="11.1302633"><ele>88.33333333333333</ele><time>2026-04-04T15:23:55.011Z</time></trkpt><trkpt lat="43.6856683" lon="11.1303317"><ele>89.16666666666667</ele><time>2026-04-04T15:23:56.012Z</time></trkpt><trkpt lat="43.685725" lon="11.1304017"><ele>90.0</ele><time>2026-04-04T15:23:57.012Z</time></trkpt><trkpt lat="43.6858217" lon="11.1305183"><ele>90.0</ele><time>2026-04-04T15:23:59.013Z</time></trkpt><trkpt lat="43.6858833" lon="11.130575"><ele>90.0</ele><time>2026-04-04T15:24:00.012Z</time></trkpt><trkpt lat="43.68595" lon="11.130645"><ele>90.0</ele><time>2026-04-04T15:24:01.013Z</time></trkpt><trkpt lat="43.6860233" lon="11.1307267"><ele>90.0</ele><time>2026-04-04T15:24:02.012Z</time></trkpt><trkpt lat="43.6860983" lon="11.1308083"><ele>90.0</ele><time>2026-04-04T15:24:03.013Z</time></trkpt><trkpt lat="43.68618" lon="11.130895"><ele>90.8</ele><time>2026-04-04T15:24:04.014Z</time></trkpt><trkpt lat="43.6862667" lon="11.1309783"><ele>91.6</ele><time>2026-04-04T15:24:05.01Z</time></trkpt><trkpt lat="43.68635" lon="11.131065"><ele>92.4</ele><time>2026-04-04T15:24:06.011Z</time></trkpt><trkpt lat="43.686435" lon="11.1311483"><ele>93.2</ele><time>2026-04-04T15:24:07.012Z</time></trkpt><trkpt lat="43.6865217" lon="11.1312367"><ele>94.0</ele><time>2026-04-04T15:24:08.01Z</time></trkpt><trkpt lat="43.6866033" lon="11.13133"><ele>94.0</ele><time>2026-04-04T15:24:09.011Z</time></trkpt><trkpt lat="43.6866783" lon="11.1314283"><ele>94.0</ele><time>2026-04-04T15:24:10.011Z</time></trkpt><trkpt lat="43.6867483" lon="11.1315367"><ele>94.0</ele><time>2026-04-04T15:24:11.009Z</time></trkpt><trkpt lat="43.68682" lon="11.131645"><ele>94.0</ele><time>2026-04-04T15:24:12.012Z</time></trkpt><trkpt lat="43.686885" lon="11.1317617"><ele>94.0</ele><time>2026-04-04T15:24:13.013Z</time></trkpt><trkpt lat="43.6869617" lon="11.1318933"><ele>94.75</ele><time>2026-04-04T15:24:14.015Z</time></trkpt><trkpt lat="43.687035" lon="11.1320283"><ele>95.5</ele><time>2026-04-04T15:24:15.015Z</time></trkpt><trkpt lat="43.6871133" lon="11.13217"><ele>96.25</ele><time>2026-04-04T15:24:16.013Z</time></trkpt><trkpt lat="43.687195" lon="11.1323133"><ele>97.0</ele><time>2026-04-04T15:24:17.011Z</time></trkpt><trkpt lat="43.6872833" lon="11.1324567"><ele>97.75</ele><time>2026-04-04T15:24:18.013Z</time></trkpt><trkpt lat="43.6873633" lon="11.1326067"><ele>98.5</ele><time>2026-04-04T15:24:19.012Z</time></trkpt><trkpt lat="43.687425" lon="11.1327667"><ele>99.25</ele><time>2026-04-04T15:24:20.012Z</time></trkpt><trkpt lat="43.6874667" lon="11.1329433"><ele>100.0</ele><time>2026-04-04T15:24:21.014Z</time></trkpt><trkpt lat="43.687505" lon="11.1331217"><ele>100.25</ele><time>2026-04-04T15:24:22.012Z</time></trkpt><trkpt lat="43.687545" lon="11.1333017"><ele>100.5</ele><time>2026-04-04T15:24:23.012Z</time></trkpt><trkpt lat="43.687575" lon="11.13348"><ele>100.75</ele><time>2026-04-04T15:24:24.011Z</time></trkpt><trkpt lat="43.6876117" lon="11.133655"><ele>101.0</ele><time>2026-04-04T15:24:25.012Z</time></trkpt><trkpt lat="43.68766" lon="11.1338233"><ele>101.0</ele><time>2026-04-04T15:24:26.012Z</time></trkpt><trkpt lat="43.6877217" lon="11.134"><ele>101.0</ele><time>2026-04-04T15:24:27.011Z</time></trkpt><trkpt lat="43.68778" lon="11.1341867"><ele>101.0</ele><time>2026-04-04T15:24:28.013Z</time></trkpt><trkpt lat="43.6878417" lon="11.1343883"><ele>101.0</ele><time>2026-04-04T15:24:29.011Z</time></trkpt><trkpt lat="43.6879117" lon="11.1345967"><ele>102.66666666666666</ele><time>2026-04-04T15:24:30.013Z</time></trkpt><trkpt lat="43.6879917" lon="11.1348083"><ele>104.33333333333334</ele><time>2026-04-04T15:24:31.013Z</time></trkpt><trkpt lat="43.688085" lon="11.1350167"><ele>106.0</ele><time>2026-04-04T15:24:32.011Z</time></trkpt><trkpt lat="43.6881983" lon="11.1352283"><ele>106.33333333333334</ele><time>2026-04-04T15:24:33.012Z</time></trkpt><trkpt lat="43.68831" lon="11.1354333"><ele>106.66666666666666</ele><time>2026-04-04T15:24:34.013Z</time></trkpt><trkpt lat="43.6884233" lon="11.1356417"><ele>107.0</ele><time>2026-04-04T15:24:35.012Z</time></trkpt><trkpt lat="43.6885283" lon="11.1358533"><ele>107.66666666666666</ele><time>2026-04-04T15:24:36.012Z</time></trkpt><trkpt lat="43.6886367" lon="11.1360583"><ele>108.33333333333334</ele><time>2026-04-04T15:24:37.012Z</time></trkpt><trkpt lat="43.688745" lon="11.1362467"><ele>109.0</ele><time>2026-04-04T15:24:38.012Z</time></trkpt><trkpt lat="43.6888717" lon="11.136425"><ele>111.0</ele><time>2026-04-04T15:24:39.011Z</time></trkpt><trkpt lat="43.689015" lon="11.1365883"><ele>113.0</ele><time>2026-04-04T15:24:40.012Z</time></trkpt><trkpt lat="43.6891617" lon="11.1367383"><ele>115.0</ele><time>2026-04-04T15:24:41.012Z</time></trkpt><trkpt lat="43.6893" lon="11.13689"><ele>115.0</ele><time>2026-04-04T15:24:42.011Z</time></trkpt><trkpt lat="43.6894217" lon="11.1370517"><ele>115.0</ele><time>2026-04-04T15:24:43.013Z</time></trkpt><trkpt lat="43.68952" lon="11.1372283"><ele>115.0</ele><time>2026-04-04T15:24:44.012Z</time></trkpt><trkpt lat="43.6895933" lon="11.13742"><ele>115.66666666666667</ele><time>2026-04-04T15:24:45.012Z</time></trkpt><trkpt lat="43.6896533" lon="11.1376283"><ele>116.33333333333334</ele><time>2026-04-04T15:24:46.012Z</time></trkpt><trkpt lat="43.6897183" lon="11.137845"><ele>117.0</ele><time>2026-04-04T15:24:47.013Z</time></trkpt><trkpt lat="43.6897967" lon="11.13807"><ele>118.33333333333334</ele><time>2026-04-04T15:24:48.012Z</time></trkpt><trkpt lat="43.6898867" lon="11.1382983"><ele>119.66666666666667</ele><time>2026-04-04T15:24:49.013Z</time></trkpt><trkpt lat="43.6899867" lon="11.138535"><ele>121.0</ele><time>2026-04-04T15:24:50.01Z</time></trkpt><trkpt lat="43.69009" lon="11.13877"><ele>121.0</ele><time>2026-04-04T15:24:51.013Z</time></trkpt><trkpt lat="43.6901817" lon="11.1389917"><ele>121.0</ele><time>2026-04-04T15:24:52.013Z</time></trkpt><trkpt lat="43.6902583" lon="11.13919"><ele>121.0</ele><time>2026-04-04T15:24:53.011Z</time></trkpt><trkpt lat="43.6903133" lon="11.13937"><ele>121.0</ele><time>2026-04-04T15:24:54.012Z</time></trkpt><trkpt lat="43.6903517" lon="11.13955"><ele>121.0</ele><time>2026-04-04T15:24:55.011Z</time></trkpt><trkpt lat="43.6903933" lon="11.139735"><ele>121.0</ele><time>2026-04-04T15:24:56.01Z</time></trkpt><trkpt lat="43.6904467" lon="11.1399267"><ele>121.0</ele><time>2026-04-04T15:24:57.011Z</time></trkpt><trkpt lat="43.69052" lon="11.140125"><ele>123.33333333333334</ele><time>2026-04-04T15:24:58.013Z</time></trkpt><trkpt lat="43.690605" lon="11.1403333"><ele>125.66666666666666</ele><time>2026-04-04T15:24:59.012Z</time></trkpt><trkpt lat="43.6906867" lon="11.1405483"><ele>128.0</ele><time>2026-04-04T15:25:00.012Z</time></trkpt><trkpt lat="43.6907633" lon="11.1407717"><ele>128.66666666666666</ele><time>2026-04-04T15:25:01.013Z</time></trkpt><trkpt lat="43.690825" lon="11.1409967"><ele>129.33333333333334</ele><time>2026-04-04T15:25:02.011Z</time></trkpt><trkpt lat="43.6908833" lon="11.1412183"><ele>130.0</ele><time>2026-04-04T15:25:03.013Z</time></trkpt><trkpt lat="43.6909333" lon="11.1414383"><ele>131.33333333333334</ele><time>2026-04-04T15:25:04.012Z</time></trkpt><trkpt lat="43.6909833" lon="11.141655"><ele>132.66666666666666</ele><time>2026-04-04T15:25:05.012Z</time></trkpt><trkpt lat="43.6910367" lon="11.141865"><ele>134.0</ele><time>2026-04-04T15:25:06.013Z</time></trkpt><trkpt lat="43.6911067" lon="11.1420583"><ele>134.0</ele><time>2026-04-04T15:25:07.013Z</time></trkpt><trkpt lat="43.6911933" lon="11.1422333"><ele>134.0</ele><time>2026-04-04T15:25:08.013Z</time></trkpt><trkpt lat="43.69129" lon="11.1423933"><ele>134.0</ele><time>2026-04-04T15:25:09.014Z</time></trkpt><trkpt lat="43.6913833" lon="11.1425433"><ele>134.0</ele><time>2026-04-04T15:25:10.013Z</time></trkpt><trkpt lat="43.6914833" lon="11.1427"><ele>137.33333333333331</ele><time>2026-04-04T15:25:11.013Z</time></trkpt><trkpt lat="43.6915767" lon="11.1428667"><ele>140.66666666666666</ele><time>2026-04-04T15:25:12.011Z</time></trkpt><trkpt lat="43.6916683" lon="11.1430617"><ele>144.0</ele><time>2026-04-04T15:25:13.012Z</time></trkpt><trkpt lat="43.6917667" lon="11.1432767"><ele>146.33333333333334</ele><time>2026-04-04T15:25:14.011Z</time></trkpt><trkpt lat="43.6918683" lon="11.1435183"><ele>148.66666666666669</ele><time>2026-04-04T15:25:15.012Z</time></trkpt><trkpt lat="43.6919733" lon="11.1437767"><ele>151.0</ele><time>2026-04-04T15:25:16.013Z</time></trkpt><trkpt lat="43.6920683" lon="11.1440367"><ele>156.66666666666669</ele><time>2026-04-04T15:25:17.01Z</time></trkpt><trkpt lat="43.69216" lon="11.144295"><ele>162.33333333333334</ele><time>2026-04-04T15:25:18.011Z</time></trkpt><trkpt lat="43.6922583" lon="11.1445533"><ele>168.0</ele><time>2026-04-04T15:25:19.011Z</time></trkpt><trkpt lat="43.6923583" lon="11.1448017"><ele>169.0</ele><time>2026-04-04T15:25:20.013Z</time></trkpt><trkpt lat="43.6924617" lon="11.1450383"><ele>170.0</ele><time>2026-04-04T15:25:21.012Z</time></trkpt><trkpt lat="43.692575" lon="11.1452783"><ele>171.0</ele><time>2026-04-04T15:25:22.013Z</time></trkpt><trkpt lat="43.6927" lon="11.1455117"><ele>175.0</ele><time>2026-04-04T15:25:23.012Z</time></trkpt><trkpt lat="43.6928233" lon="11.1457383"><ele>179.0</ele><time>2026-04-04T15:25:24.011Z</time></trkpt><trkpt lat="43.692955" lon="11.14596"><ele>183.0</ele><time>2026-04-04T15:25:25.013Z</time></trkpt><trkpt lat="43.6930817" lon="11.1461617"><ele>183.0</ele><time>2026-04-04T15:25:26.012Z</time></trkpt><trkpt lat="43.6931933" lon="11.1463483"><ele>183.0</ele><time>2026-04-04T15:25:27.013Z</time></trkpt><trkpt lat="43.69329" lon="11.1465517"><ele>183.0</ele><time>2026-04-04T15:25:28.013Z</time></trkpt><trkpt lat="43.693365" lon="11.1467683"><ele>184.33333333333334</ele><time>2026-04-04T15:25:29.013Z</time></trkpt><trkpt lat="43.693425" lon="11.1470033"><ele>185.66666666666669</ele><time>2026-04-04T15:25:30.013Z</time></trkpt><trkpt lat="43.6934733" lon="11.147255"><ele>187.0</ele><time>2026-04-04T15:25:31.013Z</time></trkpt><trkpt lat="43.69352" lon="11.1475233"><ele>187.0</ele><time>2026-04-04T15:25:32.011Z</time></trkpt><trkpt lat="43.69356" lon="11.1478067"><ele>187.0</ele><time>2026-04-04T15:25:33.013Z</time></trkpt><trkpt lat="43.6935983" lon="11.1481017"><ele>187.0</ele><time>2026-04-04T15:25:34.013Z</time></trkpt><trkpt lat="43.69364" lon="11.1483933"><ele>187.66666666666669</ele><time>2026-04-04T15:25:35.01Z</time></trkpt><trkpt lat="43.69368" lon="11.14868"><ele>188.33333333333334</ele><time>2026-04-04T15:25:36.012Z</time></trkpt><trkpt lat="43.6937233" lon="11.1489717"><ele>189.0</ele><time>2026-04-04T15:25:37.013Z</time></trkpt><trkpt lat="43.69376" lon="11.1492717"><ele>189.0</ele><time>2026-04-04T15:25:38.013Z</time></trkpt><trkpt lat="43.6937967" lon="11.149565"><ele>189.0</ele><time>2026-04-04T15:25:39.012Z</time></trkpt><trkpt lat="43.693825" lon="11.1498517"><ele>189.0</ele><time>2026-04-04T15:25:40.013Z</time></trkpt><trkpt lat="43.6938483" lon="11.1501217"><ele>193.33333333333331</ele><time>2026-04-04T15:25:41.013Z</time></trkpt><trkpt lat="43.693875" lon="11.1503633"><ele>197.66666666666666</ele><time>2026-04-04T15:25:42.012Z</time></trkpt><trkpt lat="43.6939183" lon="11.1505783"><ele>202.0</ele><time>2026-04-04T15:25:43.01Z</time></trkpt><trkpt lat="43.6939817" lon="11.1507683"><ele>203.5</ele><time>2026-04-04T15:25:44.012Z</time></trkpt><trkpt lat="43.6940583" lon="11.15094"><ele>205.0</ele><time>2026-04-04T15:25:45.013Z</time></trkpt><trkpt lat="43.6941333" lon="11.1510983"><ele>206.5</ele><time>2026-04-04T15:25:46.013Z</time></trkpt><trkpt lat="43.6942033" lon="11.1512467"><ele>208.0</ele><time>2026-04-04T15:25:47.013Z</time></trkpt><trkpt lat="43.6942817" lon="11.1514117"><ele>208.66666666666666</ele><time>2026-04-04T15:25:48.013Z</time></trkpt><trkpt lat="43.6943517" lon="11.1516017"><ele>209.33333333333331</ele><time>2026-04-04T15:25:49.01Z</time></trkpt><trkpt lat="43.6944183" lon="11.1518117"><ele>210.0</ele><time>2026-04-04T15:25:50.01Z</time></trkpt><trkpt lat="43.6944767" lon="11.15204"><ele>204.66666666666669</ele><time>2026-04-04T15:25:51.011Z</time></trkpt><trkpt lat="43.6945233" lon="11.152275"><ele>199.33333333333334</ele><time>2026-04-04T15:25:52.012Z</time></trkpt><trkpt lat="43.6945733" lon="11.1525033"><ele>194.0</ele><time>2026-04-04T15:25:53.011Z</time></trkpt><trkpt lat="43.6946367" lon="11.1527117"><ele>194.0</ele><time>2026-04-04T15:25:54.014Z</time></trkpt><trkpt lat="43.6947233" lon="11.1529033"><ele>194.0</ele><time>2026-04-04T15:25:55.011Z</time></trkpt><trkpt lat="43.69484" lon="11.1530683"><ele>194.0</ele><time>2026-04-04T15:25:56.012Z</time></trkpt><trkpt lat="43.69499" lon="11.1532133"><ele>195.66666666666669</ele><time>2026-04-04T15:25:57.013Z</time></trkpt><trkpt lat="43.6951417" lon="11.1533583"><ele>197.33333333333331</ele><time>2026-04-04T15:25:58.012Z</time></trkpt><trkpt lat="43.6952883" lon="11.153505"><ele>199.0</ele><time>2026-04-04T15:25:59.012Z</time></trkpt><trkpt lat="43.6954317" lon="11.1536583"><ele>199.0</ele><time>2026-04-04T15:26:00.012Z</time></trkpt><trkpt lat="43.6955567" lon="11.1538267"><ele>199.0</ele><time>2026-04-04T15:26:01.012Z</time></trkpt><trkpt lat="43.6956617" lon="11.154025"><ele>199.0</ele><time>2026-04-04T15:26:02.012Z</time></trkpt><trkpt lat="43.6957533" lon="11.15423"><ele>201.0</ele><time>2026-04-04T15:26:03.013Z</time></trkpt><trkpt lat="43.6958467" lon="11.154435"><ele>203.0</ele><time>2026-04-04T15:26:04.012Z</time></trkpt><trkpt lat="43.69594" lon="11.15463"><ele>205.0</ele><time>2026-04-04T15:26:05.011Z</time></trkpt><trkpt lat="43.6959983" lon="11.1548217"><ele>205.0</ele><time>2026-04-04T15:26:06.013Z</time></trkpt><trkpt lat="43.69603" lon="11.15502"><ele>205.0</ele><time>2026-04-04T15:26:07.013Z</time></trkpt><trkpt lat="43.6960283" lon="11.1552267"><ele>205.0</ele><time>2026-04-04T15:26:08.011Z</time></trkpt><trkpt lat="43.6959967" lon="11.15543"><ele>205.0</ele><time>2026-04-04T15:26:09.014Z</time></trkpt><trkpt lat="43.695965" lon="11.1556433"><ele>207.5</ele><time>2026-04-04T15:26:10.012Z</time></trkpt><trkpt lat="43.69596" lon="11.1558433"><ele>210.0</ele><time>2026-04-04T15:26:11.014Z</time></trkpt><trkpt lat="43.695955" lon="11.1560317"><ele>212.5</ele><time>2026-04-04T15:26:12.013Z</time></trkpt><trkpt lat="43.695955" lon="11.1562267"><ele>215.0</ele><time>2026-04-04T15:26:13.013Z</time></trkpt><trkpt lat="43.6959583" lon="11.15644"><ele>217.5</ele><time>2026-04-04T15:26:14.011Z</time></trkpt><trkpt lat="43.6959583" lon="11.1566533"><ele>220.0</ele><time>2026-04-04T15:26:15.011Z</time></trkpt><trkpt lat="43.6959483" lon="11.1568533"><ele>222.5</ele><time>2026-04-04T15:26:16.013Z</time></trkpt><trkpt lat="43.6959283" lon="11.1570433"><ele>225.0</ele><time>2026-04-04T15:26:17.012Z</time></trkpt><trkpt lat="43.6959117" lon="11.1572133"><ele>226.5</ele><time>2026-04-04T15:26:18.013Z</time></trkpt><trkpt lat="43.6959133" lon="11.1573983"><ele>228.0</ele><time>2026-04-04T15:26:19.012Z</time></trkpt><trkpt lat="43.6959167" lon="11.1575767"><ele>229.5</ele><time>2026-04-04T15:26:20.013Z</time></trkpt><trkpt lat="43.6959283" lon="11.15775"><ele>231.0</ele><time>2026-04-04T15:26:21.013Z</time></trkpt><trkpt lat="43.695945" lon="11.1579117"><ele>231.0</ele><time>2026-04-04T15:26:22.011Z</time></trkpt><trkpt lat="43.695965" lon="11.1580667"><ele>231.0</ele><time>2026-04-04T15:26:23.013Z</time></trkpt><trkpt lat="43.6959917" lon="11.15822"><ele>231.0</ele><time>2026-04-04T15:26:24.013Z</time></trkpt><trkpt lat="43.6960217" lon="11.1583717"><ele>231.0</ele><time>2026-04-04T15:26:25.013Z</time></trkpt><trkpt lat="43.69606" lon="11.1585267"><ele>230.5</ele><time>2026-04-04T15:26:26.012Z</time></trkpt><trkpt lat="43.69609" lon="11.15868"><ele>230.0</ele><time>2026-04-04T15:26:27.013Z</time></trkpt><trkpt lat="43.6961183" lon="11.158835"><ele>229.5</ele><time>2026-04-04T15:26:28.013Z</time></trkpt><trkpt lat="43.696145" lon="11.1589867"><ele>229.0</ele><time>2026-04-04T15:26:29.012Z</time></trkpt><trkpt lat="43.69618" lon="11.15914"><ele>230.75</ele><time>2026-04-04T15:26:30.014Z</time></trkpt><trkpt lat="43.69623" lon="11.1592917"><ele>232.5</ele><time>2026-04-04T15:26:31.013Z</time></trkpt><trkpt lat="43.6963017" lon="11.1594267"><ele>234.25</ele><time>2026-04-04T15:26:32.013Z</time></trkpt><trkpt lat="43.6963817" lon="11.1595533"><ele>236.0</ele><time>2026-04-04T15:26:33.014Z</time></trkpt><trkpt lat="43.6964583" lon="11.1596617"><ele>236.0</ele><time>2026-04-04T15:26:34.012Z</time></trkpt><trkpt lat="43.6965317" lon="11.1597467"><ele>236.00000000000003</ele><time>2026-04-04T15:26:35.013Z</time></trkpt><trkpt lat="43.69661" lon="11.1598117"><ele>236.00000000000003</ele><time>2026-04-04T15:26:36.013Z</time></trkpt><trkpt lat="43.6966933" lon="11.15988"><ele>236.0</ele><time>2026-04-04T15:26:37.013Z</time></trkpt><trkpt lat="43.6967817" lon="11.159935"><ele>236.0</ele><time>2026-04-04T15:26:38.013Z</time></trkpt><trkpt lat="43.696865" lon="11.1599933"><ele>236.0</ele><time>2026-04-04T15:26:39.013Z</time></trkpt><trkpt lat="43.6969517" lon="11.160075"><ele>236.00000000000003</ele><time>2026-04-04T15:26:40.013Z</time></trkpt><trkpt lat="43.6970333" lon="11.1601533"><ele>236.00000000000003</ele><time>2026-04-04T15:26:41.013Z</time></trkpt><trkpt lat="43.697105" lon="11.160235"><ele>236.0</ele><time>2026-04-04T15:26:42.012Z</time></trkpt><trkpt lat="43.6971667" lon="11.1603017"><ele>236.0</ele><time>2026-04-04T15:26:43.012Z</time></trkpt><trkpt lat="43.6972233" lon="11.1603817"><ele>236.0</ele><time>2026-04-04T15:26:44.01Z</time></trkpt><trkpt lat="43.6972883" lon="11.1604667"><ele>236.00000000000003</ele><time>2026-04-04T15:26:45.011Z</time></trkpt><trkpt lat="43.6973617" lon="11.1605667"><ele>236.00000000000003</ele><time>2026-04-04T15:26:46.012Z</time></trkpt><trkpt lat="43.6974383" lon="11.1606667"><ele>236.0</ele><time>2026-04-04T15:26:47.013Z</time></trkpt><trkpt lat="43.69752" lon="11.16077"><ele>236.0</ele><time>2026-04-04T15:26:48.013Z</time></trkpt><trkpt lat="43.6975917" lon="11.1608767"><ele>235.75</ele><time>2026-04-04T15:26:49.012Z</time></trkpt><trkpt lat="43.697665" lon="11.1609917"><ele>235.5</ele><time>2026-04-04T15:26:50.013Z</time></trkpt><trkpt lat="43.697715" lon="11.1611617"><ele>235.25</ele><time>2026-04-04T15:26:51.013Z</time></trkpt><trkpt lat="43.697765" lon="11.16133"><ele>235.0</ele><time>2026-04-04T15:26:52.013Z</time></trkpt><trkpt lat="43.6978283" lon="11.1614917"><ele>234.25</ele><time>2026-04-04T15:26:53.012Z</time></trkpt><trkpt lat="43.6978833" lon="11.1616567"><ele>233.5</ele><time>2026-04-04T15:26:54.012Z</time></trkpt><trkpt lat="43.6979483" lon="11.161815"><ele>232.75</ele><time>2026-04-04T15:26:55.014Z</time></trkpt><trkpt lat="43.69802" lon="11.16196"><ele>232.0</ele><time>2026-04-04T15:26:56.013Z</time></trkpt><trkpt lat="43.6980967" lon="11.1621083"><ele>232.0</ele><time>2026-04-04T15:26:57.012Z</time></trkpt><trkpt lat="43.6981783" lon="11.1622533"><ele>232.0</ele><time>2026-04-04T15:26:58.013Z</time></trkpt><trkpt lat="43.6982633" lon="11.1623917"><ele>232.0</ele><time>2026-04-04T15:26:59.014Z</time></trkpt><trkpt lat="43.6983633" lon="11.1625167"><ele>232.0</ele><time>2026-04-04T15:27:00.013Z</time></trkpt><trkpt lat="43.69848" lon="11.162615"><ele>235.0</ele><time>2026-04-04T15:27:01.011Z</time></trkpt><trkpt lat="43.6986167" lon="11.1626833"><ele>238.0</ele><time>2026-04-04T15:27:02.012Z</time></trkpt><trkpt lat="43.6987667" lon="11.1627317"><ele>241.0</ele><time>2026-04-04T15:27:03.014Z</time></trkpt><trkpt lat="43.6989233" lon="11.16277"><ele>241.0</ele><time>2026-04-04T15:27:04.01Z</time></trkpt><trkpt lat="43.6990817" lon="11.1627683"><ele>241.0</ele><time>2026-04-04T15:27:05.012Z</time></trkpt><trkpt lat="43.6992417" lon="11.1627633"><ele>241.0</ele><time>2026-04-04T15:27:06.012Z</time></trkpt><trkpt lat="43.6994033" lon="11.1627483"><ele>242.5</ele><time>2026-04-04T15:27:07.013Z</time></trkpt><trkpt lat="43.6995567" lon="11.1627233"><ele>244.0</ele><time>2026-04-04T15:27:08.013Z</time></trkpt><trkpt lat="43.6996967" lon="11.1626967"><ele>245.5</ele><time>2026-04-04T15:27:09.012Z</time></trkpt><trkpt lat="43.6998167" lon="11.16269"><ele>247.0</ele><time>2026-04-04T15:27:10.011Z</time></trkpt><trkpt lat="43.6999317" lon="11.1627067"><ele>247.0</ele><time>2026-04-04T15:27:11.012Z</time></trkpt><trkpt lat="43.7000433" lon="11.1627517"><ele>247.0</ele><time>2026-04-04T15:27:12.011Z</time></trkpt><trkpt lat="43.7001617" lon="11.1628167"><ele>247.0</ele><time>2026-04-04T15:27:13.013Z</time></trkpt><trkpt lat="43.7002917" lon="11.1628933"><ele>247.0</ele><time>2026-04-04T15:27:14.013Z</time></trkpt><trkpt lat="43.7004267" lon="11.1629767"><ele>246.5</ele><time>2026-04-04T15:27:15.012Z</time></trkpt><trkpt lat="43.7005483" lon="11.1630417"><ele>246.0</ele><time>2026-04-04T15:27:16.013Z</time></trkpt><trkpt lat="43.70066" lon="11.163105"><ele>245.5</ele><time>2026-04-04T15:27:17.013Z</time></trkpt><trkpt lat="43.7007633" lon="11.1631633"><ele>245.0</ele><time>2026-04-04T15:27:18.012Z</time></trkpt><trkpt lat="43.7008517" lon="11.1632167"><ele>245.0</ele><time>2026-04-04T15:27:19.012Z</time></trkpt><trkpt lat="43.7009283" lon="11.16326"><ele>245.0</ele><time>2026-04-04T15:27:20.013Z</time></trkpt><trkpt lat="43.7010117" lon="11.1633333"><ele>245.0</ele><time>2026-04-04T15:27:22.012Z</time></trkpt><trkpt lat="43.7009383" lon="11.1635017"><ele>245.0</ele><time>2026-04-04T15:27:25.373Z</time></trkpt><trkpt lat="43.7009683" lon="11.1635817"><ele>245.0</ele><time>2026-04-04T15:27:26.512Z</time></trkpt><trkpt lat="43.7009233" lon="11.163685"><ele>245.0</ele><time>2026-04-04T15:27:28.014Z</time></trkpt><trkpt lat="43.7008817" lon="11.16379"><ele>245.0</ele><time>2026-04-04T15:27:30.012Z</time></trkpt><trkpt lat="43.7008867" lon="11.1639033"><ele>245.0</ele><time>2026-04-04T15:27:33.012Z</time></trkpt><trkpt lat="43.7009383" lon="11.163965"><ele>245.0</ele><time>2026-04-04T15:27:35.01Z</time></trkpt><trkpt lat="43.7010117" lon="11.16402"><ele>245.0</ele><time>2026-04-04T15:27:37.013Z</time></trkpt><trkpt lat="43.70108" lon="11.1640517"><ele>241.0</ele><time>2026-04-04T15:27:40.012Z</time></trkpt></trkseg></trk></gpx>